<?xml version="1.0" encoding="UTF-8" standalone="no" ?>
<gpx xmlns="http://www.topografix.com/GPX/1/1" xmlns:xsi="http://www.w3.org/2001/XMLSchema-instance" xsi:schemaLocation="http://www.topografix.com/GPX/1/1 http://www.topografix.com/GPX/1/1/gpx.xsd" version="1.1" creator="VisuGPX - https://www.visugpx.com">
  <metadata>
    <name>Juillan vtt 50 kms</name>
  </metadata>
  <trk>
    <name><![CDATA[Juillan]]></name>
    <trkseg>
      <trkpt lat="43.20144" lon="0.02501">
        <ele>327.3</ele>
        <time>2020-09-12T19:00:19Z</time>
      </trkpt>
      <trkpt lat="43.2014" lon="0.02493">
        <ele>327.4</ele>
        <time>2020-09-12T19:00:20Z</time>
      </trkpt>
      <trkpt lat="43.20145" lon="0.02506">
        <ele>327.5</ele>
        <time>2020-09-12T19:00:21Z</time>
      </trkpt>
      <trkpt lat="43.20138" lon="0.02506">
        <ele>327.6</ele>
        <time>2020-09-12T19:00:23Z</time>
      </trkpt>
      <trkpt lat="43.20134" lon="0.02506">
        <ele>327.7</ele>
        <time>2020-09-12T19:00:25Z</time>
      </trkpt>
      <trkpt lat="43.20131" lon="0.02504">
        <ele>327.7</ele>
        <time>2020-09-12T19:00:29Z</time>
      </trkpt>
      <trkpt lat="43.20128" lon="0.02501">
        <ele>327.8</ele>
        <time>2020-09-12T19:00:42Z</time>
      </trkpt>
      <trkpt lat="43.20124" lon="0.02502">
        <ele>327.8</ele>
        <time>2020-09-12T19:00:44Z</time>
      </trkpt>
      <trkpt lat="43.2012" lon="0.02503">
        <ele>327.9</ele>
        <time>2020-09-12T19:00:46Z</time>
      </trkpt>
      <trkpt lat="43.20122" lon="0.02499">
        <ele>327.9</ele>
        <time>2020-09-12T19:00:56Z</time>
      </trkpt>
      <trkpt lat="43.20111" lon="0.02497">
        <ele>328.1</ele>
        <time>2020-09-12T19:09:57Z</time>
      </trkpt>
      <trkpt lat="43.20107" lon="0.02497">
        <ele>328.2</ele>
        <time>2020-09-12T19:09:58Z</time>
      </trkpt>
      <trkpt lat="43.20105" lon="0.02497">
        <ele>328.2</ele>
        <time>2020-09-12T19:09:59Z</time>
      </trkpt>
      <trkpt lat="43.20101" lon="0.02498">
        <ele>328.3</ele>
        <time>2020-09-12T19:10:00Z</time>
      </trkpt>
      <trkpt lat="43.20099" lon="0.02496">
        <ele>328.3</ele>
        <time>2020-09-12T19:10:01Z</time>
      </trkpt>
      <trkpt lat="43.20096" lon="0.02493">
        <ele>328.4</ele>
        <time>2020-09-12T19:10:02Z</time>
      </trkpt>
      <trkpt lat="43.20095" lon="0.02488">
        <ele>328.4</ele>
        <time>2020-09-12T19:10:03Z</time>
      </trkpt>
      <trkpt lat="43.20093" lon="0.02481">
        <ele>328.5</ele>
        <time>2020-09-12T19:10:04Z</time>
      </trkpt>
      <trkpt lat="43.20092" lon="0.02476">
        <ele>328.6</ele>
        <time>2020-09-12T19:10:05Z</time>
      </trkpt>
      <trkpt lat="43.2009" lon="0.02469">
        <ele>328.6</ele>
        <time>2020-09-12T19:10:06Z</time>
      </trkpt>
      <trkpt lat="43.20088" lon="0.02463">
        <ele>328.6</ele>
        <time>2020-09-12T19:10:07Z</time>
      </trkpt>
      <trkpt lat="43.20086" lon="0.02456">
        <ele>328.6</ele>
        <time>2020-09-12T19:10:08Z</time>
      </trkpt>
      <trkpt lat="43.20086" lon="0.0245">
        <ele>328.6</ele>
        <time>2020-09-12T19:10:09Z</time>
      </trkpt>
      <trkpt lat="43.20085" lon="0.02444">
        <ele>328.6</ele>
        <time>2020-09-12T19:10:10Z</time>
      </trkpt>
      <trkpt lat="43.20084" lon="0.02438">
        <ele>328.6</ele>
        <time>2020-09-12T19:10:11Z</time>
      </trkpt>
      <trkpt lat="43.20083" lon="0.02432">
        <ele>328.6</ele>
        <time>2020-09-12T19:10:12Z</time>
      </trkpt>
      <trkpt lat="43.20082" lon="0.02426">
        <ele>328.6</ele>
        <time>2020-09-12T19:10:13Z</time>
      </trkpt>
      <trkpt lat="43.20081" lon="0.0242">
        <ele>328.7</ele>
        <time>2020-09-12T19:10:14Z</time>
      </trkpt>
      <trkpt lat="43.2008" lon="0.02415">
        <ele>328.7</ele>
        <time>2020-09-12T19:10:15Z</time>
      </trkpt>
      <trkpt lat="43.20079" lon="0.02409">
        <ele>328.7</ele>
        <time>2020-09-12T19:10:16Z</time>
      </trkpt>
      <trkpt lat="43.20078" lon="0.02404">
        <ele>328.8</ele>
        <time>2020-09-12T19:10:17Z</time>
      </trkpt>
      <trkpt lat="43.20077" lon="0.02397">
        <ele>328.8</ele>
        <time>2020-09-12T19:10:18Z</time>
      </trkpt>
      <trkpt lat="43.20076" lon="0.02391">
        <ele>328.9</ele>
        <time>2020-09-12T19:10:19Z</time>
      </trkpt>
      <trkpt lat="43.20074" lon="0.02385">
        <ele>328.9</ele>
        <time>2020-09-12T19:10:20Z</time>
      </trkpt>
      <trkpt lat="43.20073" lon="0.0238">
        <ele>328.9</ele>
        <time>2020-09-12T19:10:21Z</time>
      </trkpt>
      <trkpt lat="43.20072" lon="0.02373">
        <ele>328.9</ele>
        <time>2020-09-12T19:10:22Z</time>
      </trkpt>
      <trkpt lat="43.20073" lon="0.02367">
        <ele>328.9</ele>
        <time>2020-09-12T19:10:23Z</time>
      </trkpt>
      <trkpt lat="43.20074" lon="0.02361">
        <ele>328.9</ele>
        <time>2020-09-12T19:10:24Z</time>
      </trkpt>
      <trkpt lat="43.20075" lon="0.02354">
        <ele>328.9</ele>
        <time>2020-09-12T19:10:25Z</time>
      </trkpt>
      <trkpt lat="43.20076" lon="0.02347">
        <ele>328.9</ele>
        <time>2020-09-12T19:10:26Z</time>
      </trkpt>
      <trkpt lat="43.20077" lon="0.02341">
        <ele>328.9</ele>
        <time>2020-09-12T19:10:27Z</time>
      </trkpt>
      <trkpt lat="43.20078" lon="0.02334">
        <ele>328.9</ele>
        <time>2020-09-12T19:10:28Z</time>
      </trkpt>
      <trkpt lat="43.20079" lon="0.02328">
        <ele>328.9</ele>
        <time>2020-09-12T19:10:29Z</time>
      </trkpt>
      <trkpt lat="43.2008" lon="0.02321">
        <ele>328.9</ele>
        <time>2020-09-12T19:10:30Z</time>
      </trkpt>
      <trkpt lat="43.20081" lon="0.02314">
        <ele>328.9</ele>
        <time>2020-09-12T19:10:31Z</time>
      </trkpt>
      <trkpt lat="43.20083" lon="0.02307">
        <ele>328.9</ele>
        <time>2020-09-12T19:10:32Z</time>
      </trkpt>
      <trkpt lat="43.20085" lon="0.023">
        <ele>328.9</ele>
        <time>2020-09-12T19:10:33Z</time>
      </trkpt>
      <trkpt lat="43.20087" lon="0.02293">
        <ele>328.9</ele>
        <time>2020-09-12T19:10:34Z</time>
      </trkpt>
      <trkpt lat="43.20088" lon="0.02286">
        <ele>328.9</ele>
        <time>2020-09-12T19:10:35Z</time>
      </trkpt>
      <trkpt lat="43.2009" lon="0.02279">
        <ele>328.9</ele>
        <time>2020-09-12T19:10:36Z</time>
      </trkpt>
      <trkpt lat="43.20092" lon="0.02272">
        <ele>328.9</ele>
        <time>2020-09-12T19:10:37Z</time>
      </trkpt>
      <trkpt lat="43.20093" lon="0.02265">
        <ele>328.9</ele>
        <time>2020-09-12T19:10:38Z</time>
      </trkpt>
      <trkpt lat="43.20094" lon="0.02258">
        <ele>328.9</ele>
        <time>2020-09-12T19:10:39Z</time>
      </trkpt>
      <trkpt lat="43.20095" lon="0.02251">
        <ele>328.9</ele>
        <time>2020-09-12T19:10:40Z</time>
      </trkpt>
      <trkpt lat="43.20097" lon="0.02244">
        <ele>328.8</ele>
        <time>2020-09-12T19:10:41Z</time>
      </trkpt>
      <trkpt lat="43.20099" lon="0.02238">
        <ele>328.8</ele>
        <time>2020-09-12T19:10:42Z</time>
      </trkpt>
      <trkpt lat="43.20101" lon="0.02234">
        <ele>328.7</ele>
        <time>2020-09-12T19:10:43Z</time>
      </trkpt>
      <trkpt lat="43.20105" lon="0.02234">
        <ele>328.7</ele>
        <time>2020-09-12T19:10:44Z</time>
      </trkpt>
      <trkpt lat="43.2011" lon="0.02236">
        <ele>328.6</ele>
        <time>2020-09-12T19:10:45Z</time>
      </trkpt>
      <trkpt lat="43.20114" lon="0.02241">
        <ele>328.6</ele>
        <time>2020-09-12T19:10:46Z</time>
      </trkpt>
      <trkpt lat="43.2012" lon="0.02245">
        <ele>328.5</ele>
        <time>2020-09-12T19:10:47Z</time>
      </trkpt>
      <trkpt lat="43.20127" lon="0.02249">
        <ele>328.4</ele>
        <time>2020-09-12T19:10:48Z</time>
      </trkpt>
      <trkpt lat="43.20134" lon="0.02252">
        <ele>328.4</ele>
        <time>2020-09-12T19:10:49Z</time>
      </trkpt>
      <trkpt lat="43.20142" lon="0.02254">
        <ele>328.3</ele>
        <time>2020-09-12T19:10:50Z</time>
      </trkpt>
      <trkpt lat="43.20148" lon="0.02256">
        <ele>328.3</ele>
        <time>2020-09-12T19:10:51Z</time>
      </trkpt>
      <trkpt lat="43.20155" lon="0.02258">
        <ele>328.3</ele>
        <time>2020-09-12T19:10:52Z</time>
      </trkpt>
      <trkpt lat="43.20161" lon="0.0226">
        <ele>328.3</ele>
        <time>2020-09-12T19:10:53Z</time>
      </trkpt>
      <trkpt lat="43.20167" lon="0.02262">
        <ele>328.4</ele>
        <time>2020-09-12T19:10:54Z</time>
      </trkpt>
      <trkpt lat="43.20175" lon="0.02265">
        <ele>328.4</ele>
        <time>2020-09-12T19:10:55Z</time>
      </trkpt>
      <trkpt lat="43.20182" lon="0.02266">
        <ele>328.4</ele>
        <time>2020-09-12T19:10:56Z</time>
      </trkpt>
      <trkpt lat="43.20189" lon="0.02265">
        <ele>328.5</ele>
        <time>2020-09-12T19:10:57Z</time>
      </trkpt>
      <trkpt lat="43.20196" lon="0.02264">
        <ele>328.5</ele>
        <time>2020-09-12T19:10:58Z</time>
      </trkpt>
      <trkpt lat="43.20202" lon="0.0226">
        <ele>328.7</ele>
        <time>2020-09-12T19:10:59Z</time>
      </trkpt>
      <trkpt lat="43.20209" lon="0.02257">
        <ele>328.7</ele>
        <time>2020-09-12T19:11:00Z</time>
      </trkpt>
      <trkpt lat="43.20215" lon="0.02256">
        <ele>328.5</ele>
        <time>2020-09-12T19:11:01Z</time>
      </trkpt>
      <trkpt lat="43.20221" lon="0.02257">
        <ele>328.4</ele>
        <time>2020-09-12T19:11:02Z</time>
      </trkpt>
      <trkpt lat="43.20226" lon="0.0226">
        <ele>328.3</ele>
        <time>2020-09-12T19:11:03Z</time>
      </trkpt>
      <trkpt lat="43.20231" lon="0.02266">
        <ele>328.3</ele>
        <time>2020-09-12T19:11:04Z</time>
      </trkpt>
      <trkpt lat="43.20235" lon="0.02274">
        <ele>328.2</ele>
        <time>2020-09-12T19:11:05Z</time>
      </trkpt>
      <trkpt lat="43.20239" lon="0.02281">
        <ele>328.1</ele>
        <time>2020-09-12T19:11:06Z</time>
      </trkpt>
      <trkpt lat="43.20242" lon="0.02289">
        <ele>328.1</ele>
        <time>2020-09-12T19:11:07Z</time>
      </trkpt>
      <trkpt lat="43.20246" lon="0.02297">
        <ele>328</ele>
        <time>2020-09-12T19:11:08Z</time>
      </trkpt>
      <trkpt lat="43.2025" lon="0.02304">
        <ele>327.9</ele>
        <time>2020-09-12T19:11:09Z</time>
      </trkpt>
      <trkpt lat="43.20254" lon="0.02312">
        <ele>327.8</ele>
        <time>2020-09-12T19:11:10Z</time>
      </trkpt>
      <trkpt lat="43.20258" lon="0.02318">
        <ele>327.6</ele>
        <time>2020-09-12T19:11:11Z</time>
      </trkpt>
      <trkpt lat="43.20261" lon="0.02326">
        <ele>327.5</ele>
        <time>2020-09-12T19:11:12Z</time>
      </trkpt>
      <trkpt lat="43.20264" lon="0.02334">
        <ele>327.4</ele>
        <time>2020-09-12T19:11:13Z</time>
      </trkpt>
      <trkpt lat="43.20265" lon="0.02343">
        <ele>327.3</ele>
        <time>2020-09-12T19:11:14Z</time>
      </trkpt>
      <trkpt lat="43.20265" lon="0.02352">
        <ele>327.3</ele>
        <time>2020-09-12T19:11:15Z</time>
      </trkpt>
      <trkpt lat="43.20267" lon="0.0236">
        <ele>327.3</ele>
        <time>2020-09-12T19:11:16Z</time>
      </trkpt>
      <trkpt lat="43.20269" lon="0.02368">
        <ele>327.3</ele>
        <time>2020-09-12T19:11:17Z</time>
      </trkpt>
      <trkpt lat="43.20273" lon="0.02376">
        <ele>327.2</ele>
        <time>2020-09-12T19:11:18Z</time>
      </trkpt>
      <trkpt lat="43.20276" lon="0.02384">
        <ele>327.1</ele>
        <time>2020-09-12T19:11:19Z</time>
      </trkpt>
      <trkpt lat="43.20279" lon="0.02392">
        <ele>327.1</ele>
        <time>2020-09-12T19:11:20Z</time>
      </trkpt>
      <trkpt lat="43.20283" lon="0.02399">
        <ele>327</ele>
        <time>2020-09-12T19:11:21Z</time>
      </trkpt>
      <trkpt lat="43.20286" lon="0.02407">
        <ele>327</ele>
        <time>2020-09-12T19:11:22Z</time>
      </trkpt>
      <trkpt lat="43.20289" lon="0.02415">
        <ele>327</ele>
        <time>2020-09-12T19:11:23Z</time>
      </trkpt>
      <trkpt lat="43.20292" lon="0.02423">
        <ele>326.9</ele>
        <time>2020-09-12T19:11:24Z</time>
      </trkpt>
      <trkpt lat="43.20295" lon="0.02431">
        <ele>326.9</ele>
        <time>2020-09-12T19:11:25Z</time>
      </trkpt>
      <trkpt lat="43.20297" lon="0.02439">
        <ele>327</ele>
        <time>2020-09-12T19:11:26Z</time>
      </trkpt>
      <trkpt lat="43.203" lon="0.02447">
        <ele>327</ele>
        <time>2020-09-12T19:11:27Z</time>
      </trkpt>
      <trkpt lat="43.20303" lon="0.02455">
        <ele>327</ele>
        <time>2020-09-12T19:11:28Z</time>
      </trkpt>
      <trkpt lat="43.20305" lon="0.02463">
        <ele>327</ele>
        <time>2020-09-12T19:11:29Z</time>
      </trkpt>
      <trkpt lat="43.20308" lon="0.02471">
        <ele>327</ele>
        <time>2020-09-12T19:11:30Z</time>
      </trkpt>
      <trkpt lat="43.20312" lon="0.02478">
        <ele>327.1</ele>
        <time>2020-09-12T19:11:31Z</time>
      </trkpt>
      <trkpt lat="43.20317" lon="0.02483">
        <ele>327</ele>
        <time>2020-09-12T19:11:32Z</time>
      </trkpt>
      <trkpt lat="43.20323" lon="0.02486">
        <ele>327</ele>
        <time>2020-09-12T19:11:33Z</time>
      </trkpt>
      <trkpt lat="43.20329" lon="0.02489">
        <ele>327</ele>
        <time>2020-09-12T19:11:34Z</time>
      </trkpt>
      <trkpt lat="43.20334" lon="0.02493">
        <ele>327</ele>
        <time>2020-09-12T19:11:35Z</time>
      </trkpt>
      <trkpt lat="43.2034" lon="0.02496">
        <ele>327</ele>
        <time>2020-09-12T19:11:36Z</time>
      </trkpt>
      <trkpt lat="43.20345" lon="0.025">
        <ele>326.9</ele>
        <time>2020-09-12T19:11:37Z</time>
      </trkpt>
      <trkpt lat="43.20351" lon="0.02503">
        <ele>326.9</ele>
        <time>2020-09-12T19:11:38Z</time>
      </trkpt>
      <trkpt lat="43.20357" lon="0.02506">
        <ele>326.8</ele>
        <time>2020-09-12T19:11:39Z</time>
      </trkpt>
      <trkpt lat="43.20363" lon="0.02509">
        <ele>326.7</ele>
        <time>2020-09-12T19:11:40Z</time>
      </trkpt>
      <trkpt lat="43.20368" lon="0.02513">
        <ele>326.6</ele>
        <time>2020-09-12T19:11:41Z</time>
      </trkpt>
      <trkpt lat="43.20375" lon="0.02515">
        <ele>326.4</ele>
        <time>2020-09-12T19:11:42Z</time>
      </trkpt>
      <trkpt lat="43.20381" lon="0.02518">
        <ele>326.2</ele>
        <time>2020-09-12T19:11:43Z</time>
      </trkpt>
      <trkpt lat="43.20386" lon="0.02521">
        <ele>326</ele>
        <time>2020-09-12T19:11:44Z</time>
      </trkpt>
      <trkpt lat="43.20393" lon="0.02524">
        <ele>325.9</ele>
        <time>2020-09-12T19:11:45Z</time>
      </trkpt>
      <trkpt lat="43.20399" lon="0.02528">
        <ele>325.9</ele>
        <time>2020-09-12T19:11:46Z</time>
      </trkpt>
      <trkpt lat="43.20405" lon="0.02531">
        <ele>325.8</ele>
        <time>2020-09-12T19:11:47Z</time>
      </trkpt>
      <trkpt lat="43.2041" lon="0.02535">
        <ele>325.8</ele>
        <time>2020-09-12T19:11:48Z</time>
      </trkpt>
      <trkpt lat="43.20414" lon="0.02541">
        <ele>325.6</ele>
        <time>2020-09-12T19:11:49Z</time>
      </trkpt>
      <trkpt lat="43.20417" lon="0.02548">
        <ele>325.5</ele>
        <time>2020-09-12T19:11:50Z</time>
      </trkpt>
      <trkpt lat="43.20419" lon="0.02556">
        <ele>325.5</ele>
        <time>2020-09-12T19:11:51Z</time>
      </trkpt>
      <trkpt lat="43.2042" lon="0.02564">
        <ele>325.5</ele>
        <time>2020-09-12T19:11:52Z</time>
      </trkpt>
      <trkpt lat="43.20421" lon="0.02573">
        <ele>325.5</ele>
        <time>2020-09-12T19:11:53Z</time>
      </trkpt>
      <trkpt lat="43.20422" lon="0.02581">
        <ele>325.5</ele>
        <time>2020-09-12T19:11:54Z</time>
      </trkpt>
      <trkpt lat="43.20422" lon="0.0259">
        <ele>325.5</ele>
        <time>2020-09-12T19:11:55Z</time>
      </trkpt>
      <trkpt lat="43.20422" lon="0.02599">
        <ele>325.4</ele>
        <time>2020-09-12T19:11:56Z</time>
      </trkpt>
      <trkpt lat="43.20422" lon="0.02608">
        <ele>325.4</ele>
        <time>2020-09-12T19:11:57Z</time>
      </trkpt>
      <trkpt lat="43.20423" lon="0.02616">
        <ele>325.3</ele>
        <time>2020-09-12T19:11:58Z</time>
      </trkpt>
      <trkpt lat="43.20423" lon="0.02625">
        <ele>325.2</ele>
        <time>2020-09-12T19:11:59Z</time>
      </trkpt>
      <trkpt lat="43.20423" lon="0.02634">
        <ele>325.1</ele>
        <time>2020-09-12T19:12:00Z</time>
      </trkpt>
      <trkpt lat="43.20423" lon="0.02643">
        <ele>325</ele>
        <time>2020-09-12T19:12:01Z</time>
      </trkpt>
      <trkpt lat="43.20422" lon="0.02653">
        <ele>325</ele>
        <time>2020-09-12T19:12:02Z</time>
      </trkpt>
      <trkpt lat="43.20422" lon="0.02662">
        <ele>324.9</ele>
        <time>2020-09-12T19:12:03Z</time>
      </trkpt>
      <trkpt lat="43.20422" lon="0.02671">
        <ele>324.9</ele>
        <time>2020-09-12T19:12:04Z</time>
      </trkpt>
      <trkpt lat="43.20422" lon="0.0268">
        <ele>324.8</ele>
        <time>2020-09-12T19:12:05Z</time>
      </trkpt>
      <trkpt lat="43.20422" lon="0.02689">
        <ele>324.8</ele>
        <time>2020-09-12T19:12:06Z</time>
      </trkpt>
      <trkpt lat="43.20422" lon="0.02698">
        <ele>324.8</ele>
        <time>2020-09-12T19:12:07Z</time>
      </trkpt>
      <trkpt lat="43.20423" lon="0.02707">
        <ele>324.8</ele>
        <time>2020-09-12T19:12:08Z</time>
      </trkpt>
      <trkpt lat="43.20423" lon="0.02717">
        <ele>324.7</ele>
        <time>2020-09-12T19:12:09Z</time>
      </trkpt>
      <trkpt lat="43.20424" lon="0.02726">
        <ele>324.7</ele>
        <time>2020-09-12T19:12:10Z</time>
      </trkpt>
      <trkpt lat="43.20424" lon="0.02735">
        <ele>324.6</ele>
        <time>2020-09-12T19:12:11Z</time>
      </trkpt>
      <trkpt lat="43.20425" lon="0.02744">
        <ele>324.5</ele>
        <time>2020-09-12T19:12:12Z</time>
      </trkpt>
      <trkpt lat="43.20425" lon="0.02753">
        <ele>324.4</ele>
        <time>2020-09-12T19:12:13Z</time>
      </trkpt>
      <trkpt lat="43.20425" lon="0.02763">
        <ele>324.2</ele>
        <time>2020-09-12T19:12:14Z</time>
      </trkpt>
      <trkpt lat="43.20424" lon="0.02772">
        <ele>324</ele>
        <time>2020-09-12T19:12:15Z</time>
      </trkpt>
      <trkpt lat="43.20423" lon="0.02781">
        <ele>323.8</ele>
        <time>2020-09-12T19:12:16Z</time>
      </trkpt>
      <trkpt lat="43.20421" lon="0.0279">
        <ele>323.8</ele>
        <time>2020-09-12T19:12:17Z</time>
      </trkpt>
      <trkpt lat="43.20417" lon="0.02798">
        <ele>323.9</ele>
        <time>2020-09-12T19:12:18Z</time>
      </trkpt>
      <trkpt lat="43.20414" lon="0.02806">
        <ele>323.9</ele>
        <time>2020-09-12T19:12:19Z</time>
      </trkpt>
      <trkpt lat="43.20412" lon="0.02815">
        <ele>323.9</ele>
        <time>2020-09-12T19:12:20Z</time>
      </trkpt>
      <trkpt lat="43.20412" lon="0.02825">
        <ele>323.9</ele>
        <time>2020-09-12T19:12:21Z</time>
      </trkpt>
      <trkpt lat="43.20412" lon="0.02834">
        <ele>323.9</ele>
        <time>2020-09-12T19:12:22Z</time>
      </trkpt>
      <trkpt lat="43.20412" lon="0.02844">
        <ele>323.9</ele>
        <time>2020-09-12T19:12:23Z</time>
      </trkpt>
      <trkpt lat="43.20411" lon="0.02852">
        <ele>323.8</ele>
        <time>2020-09-12T19:12:24Z</time>
      </trkpt>
      <trkpt lat="43.20409" lon="0.02861">
        <ele>323.6</ele>
        <time>2020-09-12T19:12:25Z</time>
      </trkpt>
      <trkpt lat="43.20407" lon="0.0287">
        <ele>323.3</ele>
        <time>2020-09-12T19:12:26Z</time>
      </trkpt>
      <trkpt lat="43.20405" lon="0.0288">
        <ele>322.8</ele>
        <time>2020-09-12T19:12:27Z</time>
      </trkpt>
      <trkpt lat="43.20405" lon="0.0289">
        <ele>322.4</ele>
        <time>2020-09-12T19:12:28Z</time>
      </trkpt>
      <trkpt lat="43.20405" lon="0.02901">
        <ele>322</ele>
        <time>2020-09-12T19:12:29Z</time>
      </trkpt>
      <trkpt lat="43.20405" lon="0.02911">
        <ele>321.7</ele>
        <time>2020-09-12T19:12:30Z</time>
      </trkpt>
      <trkpt lat="43.20406" lon="0.02922">
        <ele>321.5</ele>
        <time>2020-09-12T19:12:31Z</time>
      </trkpt>
      <trkpt lat="43.20406" lon="0.02932">
        <ele>321.3</ele>
        <time>2020-09-12T19:12:32Z</time>
      </trkpt>
      <trkpt lat="43.20409" lon="0.02942">
        <ele>321.3</ele>
        <time>2020-09-12T19:12:33Z</time>
      </trkpt>
      <trkpt lat="43.20416" lon="0.0295">
        <ele>321.3</ele>
        <time>2020-09-12T19:12:34Z</time>
      </trkpt>
      <trkpt lat="43.20422" lon="0.02957">
        <ele>321.3</ele>
        <time>2020-09-12T19:12:35Z</time>
      </trkpt>
      <trkpt lat="43.20428" lon="0.02964">
        <ele>321.4</ele>
        <time>2020-09-12T19:12:36Z</time>
      </trkpt>
      <trkpt lat="43.20434" lon="0.02971">
        <ele>321.4</ele>
        <time>2020-09-12T19:12:37Z</time>
      </trkpt>
      <trkpt lat="43.20441" lon="0.02978">
        <ele>321.4</ele>
        <time>2020-09-12T19:12:38Z</time>
      </trkpt>
      <trkpt lat="43.20446" lon="0.02985">
        <ele>321.4</ele>
        <time>2020-09-12T19:12:39Z</time>
      </trkpt>
      <trkpt lat="43.20451" lon="0.02994">
        <ele>321.5</ele>
        <time>2020-09-12T19:12:40Z</time>
      </trkpt>
      <trkpt lat="43.20456" lon="0.03002">
        <ele>321.5</ele>
        <time>2020-09-12T19:12:41Z</time>
      </trkpt>
      <trkpt lat="43.20461" lon="0.0301">
        <ele>321.5</ele>
        <time>2020-09-12T19:12:42Z</time>
      </trkpt>
      <trkpt lat="43.20466" lon="0.03018">
        <ele>321.5</ele>
        <time>2020-09-12T19:12:43Z</time>
      </trkpt>
      <trkpt lat="43.20471" lon="0.03026">
        <ele>321.5</ele>
        <time>2020-09-12T19:12:44Z</time>
      </trkpt>
      <trkpt lat="43.20476" lon="0.03034">
        <ele>321.4</ele>
        <time>2020-09-12T19:12:45Z</time>
      </trkpt>
      <trkpt lat="43.2048" lon="0.03043">
        <ele>321.2</ele>
        <time>2020-09-12T19:12:46Z</time>
      </trkpt>
      <trkpt lat="43.20483" lon="0.03051">
        <ele>321</ele>
        <time>2020-09-12T19:12:47Z</time>
      </trkpt>
      <trkpt lat="43.20486" lon="0.0306">
        <ele>320.9</ele>
        <time>2020-09-12T19:12:48Z</time>
      </trkpt>
      <trkpt lat="43.20486" lon="0.03069">
        <ele>320.8</ele>
        <time>2020-09-12T19:12:49Z</time>
      </trkpt>
      <trkpt lat="43.20484" lon="0.03077">
        <ele>320.7</ele>
        <time>2020-09-12T19:12:50Z</time>
      </trkpt>
      <trkpt lat="43.20479" lon="0.03083">
        <ele>320.6</ele>
        <time>2020-09-12T19:12:51Z</time>
      </trkpt>
      <trkpt lat="43.20475" lon="0.03089">
        <ele>320.5</ele>
        <time>2020-09-12T19:12:52Z</time>
      </trkpt>
      <trkpt lat="43.20469" lon="0.03094">
        <ele>320.4</ele>
        <time>2020-09-12T19:12:53Z</time>
      </trkpt>
      <trkpt lat="43.20463" lon="0.03099">
        <ele>320.3</ele>
        <time>2020-09-12T19:12:54Z</time>
      </trkpt>
      <trkpt lat="43.20458" lon="0.03105">
        <ele>320.2</ele>
        <time>2020-09-12T19:12:55Z</time>
      </trkpt>
      <trkpt lat="43.20452" lon="0.03111">
        <ele>320.1</ele>
        <time>2020-09-12T19:12:56Z</time>
      </trkpt>
      <trkpt lat="43.20447" lon="0.03118">
        <ele>319.6</ele>
        <time>2020-09-12T19:12:57Z</time>
      </trkpt>
      <trkpt lat="43.20442" lon="0.03125">
        <ele>319.2</ele>
        <time>2020-09-12T19:12:58Z</time>
      </trkpt>
      <trkpt lat="43.20438" lon="0.03134">
        <ele>318.9</ele>
        <time>2020-09-12T19:12:59Z</time>
      </trkpt>
      <trkpt lat="43.20435" lon="0.03142">
        <ele>318.7</ele>
        <time>2020-09-12T19:13:00Z</time>
      </trkpt>
      <trkpt lat="43.20432" lon="0.03151">
        <ele>318.6</ele>
        <time>2020-09-12T19:13:01Z</time>
      </trkpt>
      <trkpt lat="43.20429" lon="0.0316">
        <ele>318.4</ele>
        <time>2020-09-12T19:13:02Z</time>
      </trkpt>
      <trkpt lat="43.20426" lon="0.03169">
        <ele>318.4</ele>
        <time>2020-09-12T19:13:03Z</time>
      </trkpt>
      <trkpt lat="43.20424" lon="0.03177">
        <ele>318.3</ele>
        <time>2020-09-12T19:13:04Z</time>
      </trkpt>
      <trkpt lat="43.20421" lon="0.03186">
        <ele>318.3</ele>
        <time>2020-09-12T19:13:05Z</time>
      </trkpt>
      <trkpt lat="43.2042" lon="0.03194">
        <ele>318.4</ele>
        <time>2020-09-12T19:13:06Z</time>
      </trkpt>
      <trkpt lat="43.20418" lon="0.03203">
        <ele>318.5</ele>
        <time>2020-09-12T19:13:07Z</time>
      </trkpt>
      <trkpt lat="43.20417" lon="0.03211">
        <ele>318.6</ele>
        <time>2020-09-12T19:13:08Z</time>
      </trkpt>
      <trkpt lat="43.20415" lon="0.03219">
        <ele>318.8</ele>
        <time>2020-09-12T19:13:09Z</time>
      </trkpt>
      <trkpt lat="43.20413" lon="0.03228">
        <ele>319</ele>
        <time>2020-09-12T19:13:10Z</time>
      </trkpt>
      <trkpt lat="43.20412" lon="0.03236">
        <ele>319.2</ele>
        <time>2020-09-12T19:13:11Z</time>
      </trkpt>
      <trkpt lat="43.2041" lon="0.03244">
        <ele>319.5</ele>
        <time>2020-09-12T19:13:12Z</time>
      </trkpt>
      <trkpt lat="43.20408" lon="0.03253">
        <ele>319.6</ele>
        <time>2020-09-12T19:13:13Z</time>
      </trkpt>
      <trkpt lat="43.20404" lon="0.0326">
        <ele>319.7</ele>
        <time>2020-09-12T19:13:14Z</time>
      </trkpt>
      <trkpt lat="43.204" lon="0.03266">
        <ele>319.8</ele>
        <time>2020-09-12T19:13:15Z</time>
      </trkpt>
      <trkpt lat="43.20394" lon="0.03269">
        <ele>319.8</ele>
        <time>2020-09-12T19:13:16Z</time>
      </trkpt>
      <trkpt lat="43.20388" lon="0.03272">
        <ele>319.8</ele>
        <time>2020-09-12T19:13:17Z</time>
      </trkpt>
      <trkpt lat="43.20383" lon="0.03274">
        <ele>319.7</ele>
        <time>2020-09-12T19:13:18Z</time>
      </trkpt>
      <trkpt lat="43.20378" lon="0.03276">
        <ele>319.6</ele>
        <time>2020-09-12T19:13:19Z</time>
      </trkpt>
      <trkpt lat="43.20375" lon="0.03279">
        <ele>319.6</ele>
        <time>2020-09-12T19:13:20Z</time>
      </trkpt>
      <trkpt lat="43.20374" lon="0.03283">
        <ele>319.6</ele>
        <time>2020-09-12T19:13:21Z</time>
      </trkpt>
      <trkpt lat="43.20375" lon="0.03287">
        <ele>319.6</ele>
        <time>2020-09-12T19:13:22Z</time>
      </trkpt>
      <trkpt lat="43.20377" lon="0.03292">
        <ele>319.5</ele>
        <time>2020-09-12T19:13:23Z</time>
      </trkpt>
      <trkpt lat="43.20379" lon="0.03298">
        <ele>319.5</ele>
        <time>2020-09-12T19:13:24Z</time>
      </trkpt>
      <trkpt lat="43.20382" lon="0.03305">
        <ele>319.5</ele>
        <time>2020-09-12T19:13:25Z</time>
      </trkpt>
      <trkpt lat="43.20386" lon="0.03312">
        <ele>319.4</ele>
        <time>2020-09-12T19:13:26Z</time>
      </trkpt>
      <trkpt lat="43.20389" lon="0.03319">
        <ele>319.4</ele>
        <time>2020-09-12T19:13:27Z</time>
      </trkpt>
      <trkpt lat="43.20393" lon="0.03327">
        <ele>319.4</ele>
        <time>2020-09-12T19:13:28Z</time>
      </trkpt>
      <trkpt lat="43.20396" lon="0.03334">
        <ele>319.4</ele>
        <time>2020-09-12T19:13:29Z</time>
      </trkpt>
      <trkpt lat="43.20401" lon="0.03341">
        <ele>319.5</ele>
        <time>2020-09-12T19:13:30Z</time>
      </trkpt>
      <trkpt lat="43.20405" lon="0.03349">
        <ele>319.7</ele>
        <time>2020-09-12T19:13:31Z</time>
      </trkpt>
      <trkpt lat="43.20408" lon="0.03357">
        <ele>319.8</ele>
        <time>2020-09-12T19:13:32Z</time>
      </trkpt>
      <trkpt lat="43.2041" lon="0.03367">
        <ele>319.9</ele>
        <time>2020-09-12T19:13:33Z</time>
      </trkpt>
      <trkpt lat="43.20413" lon="0.03376">
        <ele>320</ele>
        <time>2020-09-12T19:13:34Z</time>
      </trkpt>
      <trkpt lat="43.20415" lon="0.03386">
        <ele>320</ele>
        <time>2020-09-12T19:13:35Z</time>
      </trkpt>
      <trkpt lat="43.20418" lon="0.03395">
        <ele>320</ele>
        <time>2020-09-12T19:13:36Z</time>
      </trkpt>
      <trkpt lat="43.2042" lon="0.03404">
        <ele>319.9</ele>
        <time>2020-09-12T19:13:37Z</time>
      </trkpt>
      <trkpt lat="43.20423" lon="0.03413">
        <ele>319.9</ele>
        <time>2020-09-12T19:13:38Z</time>
      </trkpt>
      <trkpt lat="43.20426" lon="0.03421">
        <ele>319.9</ele>
        <time>2020-09-12T19:13:39Z</time>
      </trkpt>
      <trkpt lat="43.20429" lon="0.0343">
        <ele>319.8</ele>
        <time>2020-09-12T19:13:40Z</time>
      </trkpt>
      <trkpt lat="43.20432" lon="0.03437">
        <ele>319.7</ele>
        <time>2020-09-12T19:13:41Z</time>
      </trkpt>
      <trkpt lat="43.20437" lon="0.03444">
        <ele>319.7</ele>
        <time>2020-09-12T19:13:42Z</time>
      </trkpt>
      <trkpt lat="43.2044" lon="0.0345">
        <ele>319.7</ele>
        <time>2020-09-12T19:13:43Z</time>
      </trkpt>
      <trkpt lat="43.20441" lon="0.03458">
        <ele>319.7</ele>
        <time>2020-09-12T19:13:44Z</time>
      </trkpt>
      <trkpt lat="43.20441" lon="0.03467">
        <ele>319.7</ele>
        <time>2020-09-12T19:13:45Z</time>
      </trkpt>
      <trkpt lat="43.2044" lon="0.03476">
        <ele>319.7</ele>
        <time>2020-09-12T19:13:46Z</time>
      </trkpt>
      <trkpt lat="43.20439" lon="0.03485">
        <ele>319.7</ele>
        <time>2020-09-12T19:13:47Z</time>
      </trkpt>
      <trkpt lat="43.20438" lon="0.03494">
        <ele>319.7</ele>
        <time>2020-09-12T19:13:48Z</time>
      </trkpt>
      <trkpt lat="43.20436" lon="0.03502">
        <ele>319.7</ele>
        <time>2020-09-12T19:13:49Z</time>
      </trkpt>
      <trkpt lat="43.20435" lon="0.0351">
        <ele>319.7</ele>
        <time>2020-09-12T19:13:50Z</time>
      </trkpt>
      <trkpt lat="43.20432" lon="0.03518">
        <ele>319.7</ele>
        <time>2020-09-12T19:13:51Z</time>
      </trkpt>
      <trkpt lat="43.20429" lon="0.03524">
        <ele>319.7</ele>
        <time>2020-09-12T19:13:52Z</time>
      </trkpt>
      <trkpt lat="43.20426" lon="0.03528">
        <ele>319.7</ele>
        <time>2020-09-12T19:13:53Z</time>
      </trkpt>
      <trkpt lat="43.20422" lon="0.03532">
        <ele>319.7</ele>
        <time>2020-09-12T19:13:54Z</time>
      </trkpt>
      <trkpt lat="43.20418" lon="0.03534">
        <ele>319.7</ele>
        <time>2020-09-12T19:13:55Z</time>
      </trkpt>
      <trkpt lat="43.20413" lon="0.03534">
        <ele>319.7</ele>
        <time>2020-09-12T19:13:56Z</time>
      </trkpt>
      <trkpt lat="43.20409" lon="0.03534">
        <ele>319.7</ele>
        <time>2020-09-12T19:13:57Z</time>
      </trkpt>
      <trkpt lat="43.20404" lon="0.03532">
        <ele>319.6</ele>
        <time>2020-09-12T19:13:58Z</time>
      </trkpt>
      <trkpt lat="43.20399" lon="0.0353">
        <ele>319.6</ele>
        <time>2020-09-12T19:13:59Z</time>
      </trkpt>
      <trkpt lat="43.20393" lon="0.03529">
        <ele>319.6</ele>
        <time>2020-09-12T19:14:00Z</time>
      </trkpt>
      <trkpt lat="43.20388" lon="0.03527">
        <ele>319.6</ele>
        <time>2020-09-12T19:14:01Z</time>
      </trkpt>
      <trkpt lat="43.20383" lon="0.03526">
        <ele>319.6</ele>
        <time>2020-09-12T19:14:02Z</time>
      </trkpt>
      <trkpt lat="43.20377" lon="0.03526">
        <ele>319.6</ele>
        <time>2020-09-12T19:14:03Z</time>
      </trkpt>
      <trkpt lat="43.20372" lon="0.03523">
        <ele>319.6</ele>
        <time>2020-09-12T19:14:04Z</time>
      </trkpt>
      <trkpt lat="43.20367" lon="0.03521">
        <ele>319.5</ele>
        <time>2020-09-12T19:14:05Z</time>
      </trkpt>
      <trkpt lat="43.20361" lon="0.03519">
        <ele>319.5</ele>
        <time>2020-09-12T19:14:06Z</time>
      </trkpt>
      <trkpt lat="43.20356" lon="0.03516">
        <ele>319.5</ele>
        <time>2020-09-12T19:14:07Z</time>
      </trkpt>
      <trkpt lat="43.20351" lon="0.03514">
        <ele>319.6</ele>
        <time>2020-09-12T19:14:08Z</time>
      </trkpt>
      <trkpt lat="43.20345" lon="0.03511">
        <ele>319.6</ele>
        <time>2020-09-12T19:14:09Z</time>
      </trkpt>
      <trkpt lat="43.20339" lon="0.0351">
        <ele>319.7</ele>
        <time>2020-09-12T19:14:10Z</time>
      </trkpt>
      <trkpt lat="43.20334" lon="0.03509">
        <ele>319.8</ele>
        <time>2020-09-12T19:14:11Z</time>
      </trkpt>
      <trkpt lat="43.20329" lon="0.03507">
        <ele>319.9</ele>
        <time>2020-09-12T19:14:12Z</time>
      </trkpt>
      <trkpt lat="43.20325" lon="0.03505">
        <ele>320</ele>
        <time>2020-09-12T19:14:13Z</time>
      </trkpt>
      <trkpt lat="43.20319" lon="0.03503">
        <ele>320.1</ele>
        <time>2020-09-12T19:14:14Z</time>
      </trkpt>
      <trkpt lat="43.20315" lon="0.03501">
        <ele>320.2</ele>
        <time>2020-09-12T19:14:15Z</time>
      </trkpt>
      <trkpt lat="43.2031" lon="0.03498">
        <ele>320.3</ele>
        <time>2020-09-12T19:14:16Z</time>
      </trkpt>
      <trkpt lat="43.20306" lon="0.03495">
        <ele>320.4</ele>
        <time>2020-09-12T19:14:17Z</time>
      </trkpt>
      <trkpt lat="43.20301" lon="0.03492">
        <ele>320.5</ele>
        <time>2020-09-12T19:14:18Z</time>
      </trkpt>
      <trkpt lat="43.20296" lon="0.03488">
        <ele>320.6</ele>
        <time>2020-09-12T19:14:19Z</time>
      </trkpt>
      <trkpt lat="43.20291" lon="0.03484">
        <ele>320.8</ele>
        <time>2020-09-12T19:14:20Z</time>
      </trkpt>
      <trkpt lat="43.20285" lon="0.03479">
        <ele>321</ele>
        <time>2020-09-12T19:14:21Z</time>
      </trkpt>
      <trkpt lat="43.2028" lon="0.03474">
        <ele>321.1</ele>
        <time>2020-09-12T19:14:22Z</time>
      </trkpt>
      <trkpt lat="43.20274" lon="0.0347">
        <ele>321.2</ele>
        <time>2020-09-12T19:14:23Z</time>
      </trkpt>
      <trkpt lat="43.20268" lon="0.03466">
        <ele>321.2</ele>
        <time>2020-09-12T19:14:24Z</time>
      </trkpt>
      <trkpt lat="43.20262" lon="0.03462">
        <ele>321.3</ele>
        <time>2020-09-12T19:14:25Z</time>
      </trkpt>
      <trkpt lat="43.20256" lon="0.03459">
        <ele>321.4</ele>
        <time>2020-09-12T19:14:26Z</time>
      </trkpt>
      <trkpt lat="43.20251" lon="0.03457">
        <ele>321.4</ele>
        <time>2020-09-12T19:14:27Z</time>
      </trkpt>
      <trkpt lat="43.20245" lon="0.03453">
        <ele>321.5</ele>
        <time>2020-09-12T19:14:28Z</time>
      </trkpt>
      <trkpt lat="43.20239" lon="0.0345">
        <ele>321.5</ele>
        <time>2020-09-12T19:14:29Z</time>
      </trkpt>
      <trkpt lat="43.20234" lon="0.03448">
        <ele>321.5</ele>
        <time>2020-09-12T19:14:30Z</time>
      </trkpt>
      <trkpt lat="43.20228" lon="0.03445">
        <ele>321.5</ele>
        <time>2020-09-12T19:14:31Z</time>
      </trkpt>
      <trkpt lat="43.20223" lon="0.03444">
        <ele>321.5</ele>
        <time>2020-09-12T19:14:32Z</time>
      </trkpt>
      <trkpt lat="43.20218" lon="0.03446">
        <ele>321.4</ele>
        <time>2020-09-12T19:14:33Z</time>
      </trkpt>
      <trkpt lat="43.20214" lon="0.03451">
        <ele>321.4</ele>
        <time>2020-09-12T19:14:34Z</time>
      </trkpt>
      <trkpt lat="43.2021" lon="0.03456">
        <ele>321.4</ele>
        <time>2020-09-12T19:14:35Z</time>
      </trkpt>
      <trkpt lat="43.20207" lon="0.03462">
        <ele>321.4</ele>
        <time>2020-09-12T19:14:36Z</time>
      </trkpt>
      <trkpt lat="43.20204" lon="0.03469">
        <ele>321.4</ele>
        <time>2020-09-12T19:14:37Z</time>
      </trkpt>
      <trkpt lat="43.20201" lon="0.03475">
        <ele>321.5</ele>
        <time>2020-09-12T19:14:38Z</time>
      </trkpt>
      <trkpt lat="43.20198" lon="0.03482">
        <ele>321.5</ele>
        <time>2020-09-12T19:14:39Z</time>
      </trkpt>
      <trkpt lat="43.20195" lon="0.03489">
        <ele>321.5</ele>
        <time>2020-09-12T19:14:40Z</time>
      </trkpt>
      <trkpt lat="43.20192" lon="0.03496">
        <ele>321.5</ele>
        <time>2020-09-12T19:14:41Z</time>
      </trkpt>
      <trkpt lat="43.2019" lon="0.03504">
        <ele>321.5</ele>
        <time>2020-09-12T19:14:42Z</time>
      </trkpt>
      <trkpt lat="43.20186" lon="0.0351">
        <ele>321.5</ele>
        <time>2020-09-12T19:14:43Z</time>
      </trkpt>
      <trkpt lat="43.20183" lon="0.03517">
        <ele>321.5</ele>
        <time>2020-09-12T19:14:44Z</time>
      </trkpt>
      <trkpt lat="43.20179" lon="0.03522">
        <ele>321.5</ele>
        <time>2020-09-12T19:14:45Z</time>
      </trkpt>
      <trkpt lat="43.20175" lon="0.03527">
        <ele>321.5</ele>
        <time>2020-09-12T19:14:46Z</time>
      </trkpt>
      <trkpt lat="43.2017" lon="0.03531">
        <ele>321.5</ele>
        <time>2020-09-12T19:14:47Z</time>
      </trkpt>
      <trkpt lat="43.20166" lon="0.03535">
        <ele>321.5</ele>
        <time>2020-09-12T19:14:48Z</time>
      </trkpt>
      <trkpt lat="43.20161" lon="0.03539">
        <ele>321.5</ele>
        <time>2020-09-12T19:14:49Z</time>
      </trkpt>
      <trkpt lat="43.20156" lon="0.03542">
        <ele>321.6</ele>
        <time>2020-09-12T19:14:50Z</time>
      </trkpt>
      <trkpt lat="43.2015" lon="0.03546">
        <ele>321.6</ele>
        <time>2020-09-12T19:14:51Z</time>
      </trkpt>
      <trkpt lat="43.20144" lon="0.03549">
        <ele>321.6</ele>
        <time>2020-09-12T19:14:52Z</time>
      </trkpt>
      <trkpt lat="43.20139" lon="0.03552">
        <ele>321.7</ele>
        <time>2020-09-12T19:14:53Z</time>
      </trkpt>
      <trkpt lat="43.20133" lon="0.03555">
        <ele>321.7</ele>
        <time>2020-09-12T19:14:54Z</time>
      </trkpt>
      <trkpt lat="43.20127" lon="0.03557">
        <ele>321.7</ele>
        <time>2020-09-12T19:14:55Z</time>
      </trkpt>
      <trkpt lat="43.20121" lon="0.03559">
        <ele>321.7</ele>
        <time>2020-09-12T19:14:56Z</time>
      </trkpt>
      <trkpt lat="43.20115" lon="0.0356">
        <ele>321.8</ele>
        <time>2020-09-12T19:14:57Z</time>
      </trkpt>
      <trkpt lat="43.20109" lon="0.03561">
        <ele>322</ele>
        <time>2020-09-12T19:14:58Z</time>
      </trkpt>
      <trkpt lat="43.20102" lon="0.0356">
        <ele>322.2</ele>
        <time>2020-09-12T19:14:59Z</time>
      </trkpt>
      <trkpt lat="43.20096" lon="0.03558">
        <ele>322.4</ele>
        <time>2020-09-12T19:15:00Z</time>
      </trkpt>
      <trkpt lat="43.2009" lon="0.03557">
        <ele>322.7</ele>
        <time>2020-09-12T19:15:01Z</time>
      </trkpt>
      <trkpt lat="43.20084" lon="0.0356">
        <ele>322.8</ele>
        <time>2020-09-12T19:15:02Z</time>
      </trkpt>
      <trkpt lat="43.20079" lon="0.03565">
        <ele>322.9</ele>
        <time>2020-09-12T19:15:03Z</time>
      </trkpt>
      <trkpt lat="43.20074" lon="0.03569">
        <ele>322.9</ele>
        <time>2020-09-12T19:15:04Z</time>
      </trkpt>
      <trkpt lat="43.20067" lon="0.03571">
        <ele>323</ele>
        <time>2020-09-12T19:15:05Z</time>
      </trkpt>
      <trkpt lat="43.20061" lon="0.03569">
        <ele>323</ele>
        <time>2020-09-12T19:15:06Z</time>
      </trkpt>
      <trkpt lat="43.20056" lon="0.03564">
        <ele>323</ele>
        <time>2020-09-12T19:15:07Z</time>
      </trkpt>
      <trkpt lat="43.20051" lon="0.03558">
        <ele>323.1</ele>
        <time>2020-09-12T19:15:08Z</time>
      </trkpt>
      <trkpt lat="43.20045" lon="0.03553">
        <ele>323.1</ele>
        <time>2020-09-12T19:15:09Z</time>
      </trkpt>
      <trkpt lat="43.20039" lon="0.03549">
        <ele>323.1</ele>
        <time>2020-09-12T19:15:10Z</time>
      </trkpt>
      <trkpt lat="43.20033" lon="0.03547">
        <ele>323.6</ele>
        <time>2020-09-12T19:15:11Z</time>
      </trkpt>
      <trkpt lat="43.20027" lon="0.03546">
        <ele>323.9</ele>
        <time>2020-09-12T19:15:12Z</time>
      </trkpt>
      <trkpt lat="43.20021" lon="0.03545">
        <ele>324</ele>
        <time>2020-09-12T19:15:13Z</time>
      </trkpt>
      <trkpt lat="43.20014" lon="0.03545">
        <ele>324.1</ele>
        <time>2020-09-12T19:15:14Z</time>
      </trkpt>
      <trkpt lat="43.20008" lon="0.03545">
        <ele>324.1</ele>
        <time>2020-09-12T19:15:15Z</time>
      </trkpt>
      <trkpt lat="43.20002" lon="0.03542">
        <ele>324.1</ele>
        <time>2020-09-12T19:15:16Z</time>
      </trkpt>
      <trkpt lat="43.19995" lon="0.03543">
        <ele>324.1</ele>
        <time>2020-09-12T19:15:17Z</time>
      </trkpt>
      <trkpt lat="43.19991" lon="0.03548">
        <ele>323.5</ele>
        <time>2020-09-12T19:15:18Z</time>
      </trkpt>
      <trkpt lat="43.19989" lon="0.03557">
        <ele>323.3</ele>
        <time>2020-09-12T19:15:19Z</time>
      </trkpt>
      <trkpt lat="43.19989" lon="0.03565">
        <ele>323.1</ele>
        <time>2020-09-12T19:15:20Z</time>
      </trkpt>
      <trkpt lat="43.1999" lon="0.03574">
        <ele>322.9</ele>
        <time>2020-09-12T19:15:21Z</time>
      </trkpt>
      <trkpt lat="43.19992" lon="0.03583">
        <ele>322.7</ele>
        <time>2020-09-12T19:15:22Z</time>
      </trkpt>
      <trkpt lat="43.19993" lon="0.03591">
        <ele>322.5</ele>
        <time>2020-09-12T19:15:23Z</time>
      </trkpt>
      <trkpt lat="43.19995" lon="0.036">
        <ele>322.3</ele>
        <time>2020-09-12T19:15:24Z</time>
      </trkpt>
      <trkpt lat="43.19997" lon="0.03609">
        <ele>322.2</ele>
        <time>2020-09-12T19:15:25Z</time>
      </trkpt>
      <trkpt lat="43.19999" lon="0.03618">
        <ele>322.2</ele>
        <time>2020-09-12T19:15:26Z</time>
      </trkpt>
      <trkpt lat="43.20001" lon="0.03627">
        <ele>322.2</ele>
        <time>2020-09-12T19:15:27Z</time>
      </trkpt>
      <trkpt lat="43.20003" lon="0.03635">
        <ele>322.2</ele>
        <time>2020-09-12T19:15:28Z</time>
      </trkpt>
      <trkpt lat="43.20005" lon="0.03644">
        <ele>322.3</ele>
        <time>2020-09-12T19:15:29Z</time>
      </trkpt>
      <trkpt lat="43.20007" lon="0.03653">
        <ele>322.4</ele>
        <time>2020-09-12T19:15:30Z</time>
      </trkpt>
      <trkpt lat="43.20009" lon="0.03662">
        <ele>322.6</ele>
        <time>2020-09-12T19:15:31Z</time>
      </trkpt>
      <trkpt lat="43.20011" lon="0.03671">
        <ele>322.7</ele>
        <time>2020-09-12T19:15:32Z</time>
      </trkpt>
      <trkpt lat="43.20013" lon="0.0368">
        <ele>322.9</ele>
        <time>2020-09-12T19:15:33Z</time>
      </trkpt>
      <trkpt lat="43.20014" lon="0.03688">
        <ele>323.1</ele>
        <time>2020-09-12T19:15:34Z</time>
      </trkpt>
      <trkpt lat="43.20016" lon="0.03697">
        <ele>323.3</ele>
        <time>2020-09-12T19:15:35Z</time>
      </trkpt>
      <trkpt lat="43.20018" lon="0.03706">
        <ele>323.7</ele>
        <time>2020-09-12T19:15:36Z</time>
      </trkpt>
      <trkpt lat="43.2002" lon="0.03715">
        <ele>323.7</ele>
        <time>2020-09-12T19:15:37Z</time>
      </trkpt>
      <trkpt lat="43.20023" lon="0.03723">
        <ele>323.7</ele>
        <time>2020-09-12T19:15:38Z</time>
      </trkpt>
      <trkpt lat="43.20025" lon="0.03732">
        <ele>323.7</ele>
        <time>2020-09-12T19:15:39Z</time>
      </trkpt>
      <trkpt lat="43.20027" lon="0.0374">
        <ele>323.7</ele>
        <time>2020-09-12T19:15:40Z</time>
      </trkpt>
      <trkpt lat="43.2003" lon="0.03749">
        <ele>323.7</ele>
        <time>2020-09-12T19:15:41Z</time>
      </trkpt>
      <trkpt lat="43.20033" lon="0.03756">
        <ele>323.8</ele>
        <time>2020-09-12T19:15:42Z</time>
      </trkpt>
      <trkpt lat="43.20036" lon="0.03764">
        <ele>323.8</ele>
        <time>2020-09-12T19:15:43Z</time>
      </trkpt>
      <trkpt lat="43.20039" lon="0.03771">
        <ele>323.8</ele>
        <time>2020-09-12T19:15:44Z</time>
      </trkpt>
      <trkpt lat="43.20042" lon="0.03778">
        <ele>323.9</ele>
        <time>2020-09-12T19:15:45Z</time>
      </trkpt>
      <trkpt lat="43.20045" lon="0.03786">
        <ele>324.6</ele>
        <time>2020-09-12T19:15:46Z</time>
      </trkpt>
      <trkpt lat="43.20048" lon="0.03793">
        <ele>324.8</ele>
        <time>2020-09-12T19:15:47Z</time>
      </trkpt>
      <trkpt lat="43.2005" lon="0.038">
        <ele>325</ele>
        <time>2020-09-12T19:15:48Z</time>
      </trkpt>
      <trkpt lat="43.20051" lon="0.03808">
        <ele>325.2</ele>
        <time>2020-09-12T19:15:49Z</time>
      </trkpt>
      <trkpt lat="43.2005" lon="0.03816">
        <ele>325.4</ele>
        <time>2020-09-12T19:15:50Z</time>
      </trkpt>
      <trkpt lat="43.20047" lon="0.03822">
        <ele>325.6</ele>
        <time>2020-09-12T19:15:51Z</time>
      </trkpt>
      <trkpt lat="43.20042" lon="0.03827">
        <ele>325.9</ele>
        <time>2020-09-12T19:15:52Z</time>
      </trkpt>
      <trkpt lat="43.20037" lon="0.03831">
        <ele>325.9</ele>
        <time>2020-09-12T19:15:53Z</time>
      </trkpt>
      <trkpt lat="43.20032" lon="0.03835">
        <ele>325.9</ele>
        <time>2020-09-12T19:15:54Z</time>
      </trkpt>
      <trkpt lat="43.20027" lon="0.03839">
        <ele>325.9</ele>
        <time>2020-09-12T19:15:55Z</time>
      </trkpt>
      <trkpt lat="43.20022" lon="0.03843">
        <ele>325.9</ele>
        <time>2020-09-12T19:15:56Z</time>
      </trkpt>
      <trkpt lat="43.20017" lon="0.03848">
        <ele>326.7</ele>
        <time>2020-09-12T19:15:57Z</time>
      </trkpt>
      <trkpt lat="43.20013" lon="0.03853">
        <ele>327</ele>
        <time>2020-09-12T19:15:58Z</time>
      </trkpt>
      <trkpt lat="43.20009" lon="0.03858">
        <ele>327.4</ele>
        <time>2020-09-12T19:15:59Z</time>
      </trkpt>
      <trkpt lat="43.20004" lon="0.03863">
        <ele>327.7</ele>
        <time>2020-09-12T19:16:00Z</time>
      </trkpt>
      <trkpt lat="43.2" lon="0.03867">
        <ele>328</ele>
        <time>2020-09-12T19:16:01Z</time>
      </trkpt>
      <trkpt lat="43.19996" lon="0.03872">
        <ele>328.3</ele>
        <time>2020-09-12T19:16:02Z</time>
      </trkpt>
      <trkpt lat="43.19992" lon="0.03876">
        <ele>328.5</ele>
        <time>2020-09-12T19:16:03Z</time>
      </trkpt>
      <trkpt lat="43.19989" lon="0.0388">
        <ele>328.7</ele>
        <time>2020-09-12T19:16:04Z</time>
      </trkpt>
      <trkpt lat="43.19986" lon="0.03883">
        <ele>328.9</ele>
        <time>2020-09-12T19:16:05Z</time>
      </trkpt>
      <trkpt lat="43.19984" lon="0.03887">
        <ele>329.1</ele>
        <time>2020-09-12T19:16:06Z</time>
      </trkpt>
      <trkpt lat="43.19981" lon="0.0389">
        <ele>329.2</ele>
        <time>2020-09-12T19:16:07Z</time>
      </trkpt>
      <trkpt lat="43.19978" lon="0.03894">
        <ele>329.4</ele>
        <time>2020-09-12T19:16:08Z</time>
      </trkpt>
      <trkpt lat="43.19975" lon="0.03897">
        <ele>329.6</ele>
        <time>2020-09-12T19:16:09Z</time>
      </trkpt>
      <trkpt lat="43.19972" lon="0.03902">
        <ele>329.8</ele>
        <time>2020-09-12T19:16:10Z</time>
      </trkpt>
      <trkpt lat="43.19969" lon="0.03906">
        <ele>330</ele>
        <time>2020-09-12T19:16:11Z</time>
      </trkpt>
      <trkpt lat="43.19966" lon="0.0391">
        <ele>330.1</ele>
        <time>2020-09-12T19:16:12Z</time>
      </trkpt>
      <trkpt lat="43.19962" lon="0.03913">
        <ele>330.2</ele>
        <time>2020-09-12T19:16:13Z</time>
      </trkpt>
      <trkpt lat="43.19958" lon="0.03916">
        <ele>330.3</ele>
        <time>2020-09-12T19:16:14Z</time>
      </trkpt>
      <trkpt lat="43.19954" lon="0.0392">
        <ele>330.4</ele>
        <time>2020-09-12T19:16:15Z</time>
      </trkpt>
      <trkpt lat="43.19949" lon="0.03922">
        <ele>330.5</ele>
        <time>2020-09-12T19:16:16Z</time>
      </trkpt>
      <trkpt lat="43.19944" lon="0.03925">
        <ele>330.5</ele>
        <time>2020-09-12T19:16:17Z</time>
      </trkpt>
      <trkpt lat="43.19938" lon="0.03928">
        <ele>330.6</ele>
        <time>2020-09-12T19:16:18Z</time>
      </trkpt>
      <trkpt lat="43.19933" lon="0.0393">
        <ele>330.6</ele>
        <time>2020-09-12T19:16:19Z</time>
      </trkpt>
      <trkpt lat="43.19929" lon="0.03932">
        <ele>330.7</ele>
        <time>2020-09-12T19:16:20Z</time>
      </trkpt>
      <trkpt lat="43.19923" lon="0.03934">
        <ele>330.7</ele>
        <time>2020-09-12T19:16:21Z</time>
      </trkpt>
      <trkpt lat="43.19918" lon="0.03936">
        <ele>330.7</ele>
        <time>2020-09-12T19:16:22Z</time>
      </trkpt>
      <trkpt lat="43.19912" lon="0.03937">
        <ele>330.8</ele>
        <time>2020-09-12T19:16:23Z</time>
      </trkpt>
      <trkpt lat="43.19907" lon="0.03939">
        <ele>330.8</ele>
        <time>2020-09-12T19:16:24Z</time>
      </trkpt>
      <trkpt lat="43.19901" lon="0.03939">
        <ele>330.8</ele>
        <time>2020-09-12T19:16:25Z</time>
      </trkpt>
      <trkpt lat="43.19895" lon="0.03939">
        <ele>330.8</ele>
        <time>2020-09-12T19:16:26Z</time>
      </trkpt>
      <trkpt lat="43.19889" lon="0.03939">
        <ele>330.8</ele>
        <time>2020-09-12T19:16:27Z</time>
      </trkpt>
      <trkpt lat="43.19883" lon="0.03939">
        <ele>330.8</ele>
        <time>2020-09-12T19:16:28Z</time>
      </trkpt>
      <trkpt lat="43.19878" lon="0.03938">
        <ele>330.7</ele>
        <time>2020-09-12T19:16:29Z</time>
      </trkpt>
      <trkpt lat="43.19871" lon="0.03937">
        <ele>330.6</ele>
        <time>2020-09-12T19:16:30Z</time>
      </trkpt>
      <trkpt lat="43.19865" lon="0.03936">
        <ele>330.5</ele>
        <time>2020-09-12T19:16:31Z</time>
      </trkpt>
      <trkpt lat="43.19858" lon="0.03934">
        <ele>330.4</ele>
        <time>2020-09-12T19:16:32Z</time>
      </trkpt>
      <trkpt lat="43.19852" lon="0.03933">
        <ele>330.3</ele>
        <time>2020-09-12T19:16:33Z</time>
      </trkpt>
      <trkpt lat="43.19846" lon="0.03933">
        <ele>330.3</ele>
        <time>2020-09-12T19:16:34Z</time>
      </trkpt>
      <trkpt lat="43.19841" lon="0.03931">
        <ele>330.3</ele>
        <time>2020-09-12T19:16:35Z</time>
      </trkpt>
      <trkpt lat="43.19835" lon="0.0393">
        <ele>330.3</ele>
        <time>2020-09-12T19:16:36Z</time>
      </trkpt>
      <trkpt lat="43.1983" lon="0.03928">
        <ele>330.3</ele>
        <time>2020-09-12T19:16:37Z</time>
      </trkpt>
      <trkpt lat="43.19824" lon="0.03926">
        <ele>330.4</ele>
        <time>2020-09-12T19:16:38Z</time>
      </trkpt>
      <trkpt lat="43.1982" lon="0.03923">
        <ele>330.5</ele>
        <time>2020-09-12T19:16:39Z</time>
      </trkpt>
      <trkpt lat="43.19814" lon="0.0392">
        <ele>330.6</ele>
        <time>2020-09-12T19:16:40Z</time>
      </trkpt>
      <trkpt lat="43.19809" lon="0.03917">
        <ele>330.7</ele>
        <time>2020-09-12T19:16:41Z</time>
      </trkpt>
      <trkpt lat="43.19804" lon="0.03913">
        <ele>330.8</ele>
        <time>2020-09-12T19:16:42Z</time>
      </trkpt>
      <trkpt lat="43.19799" lon="0.03909">
        <ele>330.9</ele>
        <time>2020-09-12T19:16:43Z</time>
      </trkpt>
      <trkpt lat="43.19793" lon="0.03906">
        <ele>331</ele>
        <time>2020-09-12T19:16:44Z</time>
      </trkpt>
      <trkpt lat="43.19788" lon="0.03902">
        <ele>331.1</ele>
        <time>2020-09-12T19:16:45Z</time>
      </trkpt>
      <trkpt lat="43.19783" lon="0.03899">
        <ele>331.2</ele>
        <time>2020-09-12T19:16:46Z</time>
      </trkpt>
      <trkpt lat="43.19778" lon="0.03896">
        <ele>331.3</ele>
        <time>2020-09-12T19:16:47Z</time>
      </trkpt>
      <trkpt lat="43.19773" lon="0.03892">
        <ele>331.4</ele>
        <time>2020-09-12T19:16:48Z</time>
      </trkpt>
      <trkpt lat="43.19768" lon="0.03888">
        <ele>331.5</ele>
        <time>2020-09-12T19:16:49Z</time>
      </trkpt>
      <trkpt lat="43.19764" lon="0.03885">
        <ele>331.6</ele>
        <time>2020-09-12T19:16:50Z</time>
      </trkpt>
      <trkpt lat="43.19759" lon="0.03881">
        <ele>331.7</ele>
        <time>2020-09-12T19:16:51Z</time>
      </trkpt>
      <trkpt lat="43.19755" lon="0.03876">
        <ele>331.9</ele>
        <time>2020-09-12T19:16:52Z</time>
      </trkpt>
      <trkpt lat="43.1975" lon="0.03872">
        <ele>332.1</ele>
        <time>2020-09-12T19:16:53Z</time>
      </trkpt>
      <trkpt lat="43.19746" lon="0.03868">
        <ele>332.3</ele>
        <time>2020-09-12T19:16:54Z</time>
      </trkpt>
      <trkpt lat="43.19742" lon="0.03864">
        <ele>332.6</ele>
        <time>2020-09-12T19:16:55Z</time>
      </trkpt>
      <trkpt lat="43.19737" lon="0.03859">
        <ele>332.9</ele>
        <time>2020-09-12T19:16:56Z</time>
      </trkpt>
      <trkpt lat="43.19733" lon="0.03856">
        <ele>333.2</ele>
        <time>2020-09-12T19:16:57Z</time>
      </trkpt>
      <trkpt lat="43.19728" lon="0.03852">
        <ele>333.5</ele>
        <time>2020-09-12T19:16:58Z</time>
      </trkpt>
      <trkpt lat="43.19722" lon="0.03848">
        <ele>333.9</ele>
        <time>2020-09-12T19:16:59Z</time>
      </trkpt>
      <trkpt lat="43.19717" lon="0.03844">
        <ele>334</ele>
        <time>2020-09-12T19:17:00Z</time>
      </trkpt>
      <trkpt lat="43.19711" lon="0.0384">
        <ele>334.2</ele>
        <time>2020-09-12T19:17:01Z</time>
      </trkpt>
      <trkpt lat="43.19706" lon="0.03836">
        <ele>334.3</ele>
        <time>2020-09-12T19:17:02Z</time>
      </trkpt>
      <trkpt lat="43.19701" lon="0.03832">
        <ele>334.5</ele>
        <time>2020-09-12T19:17:03Z</time>
      </trkpt>
      <trkpt lat="43.19696" lon="0.03828">
        <ele>334.6</ele>
        <time>2020-09-12T19:17:04Z</time>
      </trkpt>
      <trkpt lat="43.1969" lon="0.03825">
        <ele>334.7</ele>
        <time>2020-09-12T19:17:05Z</time>
      </trkpt>
      <trkpt lat="43.19686" lon="0.03821">
        <ele>334.8</ele>
        <time>2020-09-12T19:17:06Z</time>
      </trkpt>
      <trkpt lat="43.19681" lon="0.03817">
        <ele>334.9</ele>
        <time>2020-09-12T19:17:07Z</time>
      </trkpt>
      <trkpt lat="43.19676" lon="0.03813">
        <ele>335</ele>
        <time>2020-09-12T19:17:08Z</time>
      </trkpt>
      <trkpt lat="43.19672" lon="0.03809">
        <ele>335.1</ele>
        <time>2020-09-12T19:17:09Z</time>
      </trkpt>
      <trkpt lat="43.19667" lon="0.03806">
        <ele>335.2</ele>
        <time>2020-09-12T19:17:10Z</time>
      </trkpt>
      <trkpt lat="43.19662" lon="0.03802">
        <ele>335.3</ele>
        <time>2020-09-12T19:17:11Z</time>
      </trkpt>
      <trkpt lat="43.19657" lon="0.03798">
        <ele>335.4</ele>
        <time>2020-09-12T19:17:12Z</time>
      </trkpt>
      <trkpt lat="43.19653" lon="0.03794">
        <ele>335.5</ele>
        <time>2020-09-12T19:17:13Z</time>
      </trkpt>
      <trkpt lat="43.19649" lon="0.03791">
        <ele>335.6</ele>
        <time>2020-09-12T19:17:14Z</time>
      </trkpt>
      <trkpt lat="43.19645" lon="0.03787">
        <ele>335.6</ele>
        <time>2020-09-12T19:17:15Z</time>
      </trkpt>
      <trkpt lat="43.19641" lon="0.03783">
        <ele>335.6</ele>
        <time>2020-09-12T19:17:16Z</time>
      </trkpt>
      <trkpt lat="43.19637" lon="0.03778">
        <ele>335.6</ele>
        <time>2020-09-12T19:17:17Z</time>
      </trkpt>
      <trkpt lat="43.19633" lon="0.03773">
        <ele>335.6</ele>
        <time>2020-09-12T19:17:18Z</time>
      </trkpt>
      <trkpt lat="43.19629" lon="0.03769">
        <ele>335.6</ele>
        <time>2020-09-12T19:17:19Z</time>
      </trkpt>
      <trkpt lat="43.19625" lon="0.03764">
        <ele>335.7</ele>
        <time>2020-09-12T19:17:20Z</time>
      </trkpt>
      <trkpt lat="43.19621" lon="0.03759">
        <ele>335.7</ele>
        <time>2020-09-12T19:17:21Z</time>
      </trkpt>
      <trkpt lat="43.19617" lon="0.03755">
        <ele>335.7</ele>
        <time>2020-09-12T19:17:22Z</time>
      </trkpt>
      <trkpt lat="43.19612" lon="0.0375">
        <ele>335.7</ele>
        <time>2020-09-12T19:17:23Z</time>
      </trkpt>
      <trkpt lat="43.19608" lon="0.03745">
        <ele>335.8</ele>
        <time>2020-09-12T19:17:24Z</time>
      </trkpt>
      <trkpt lat="43.19605" lon="0.03741">
        <ele>335.9</ele>
        <time>2020-09-12T19:17:25Z</time>
      </trkpt>
      <trkpt lat="43.19602" lon="0.03736">
        <ele>336</ele>
        <time>2020-09-12T19:17:26Z</time>
      </trkpt>
      <trkpt lat="43.19599" lon="0.03731">
        <ele>336.1</ele>
        <time>2020-09-12T19:17:27Z</time>
      </trkpt>
      <trkpt lat="43.19596" lon="0.03726">
        <ele>336.3</ele>
        <time>2020-09-12T19:17:28Z</time>
      </trkpt>
      <trkpt lat="43.19593" lon="0.03721">
        <ele>336.4</ele>
        <time>2020-09-12T19:17:29Z</time>
      </trkpt>
      <trkpt lat="43.19591" lon="0.03715">
        <ele>336.6</ele>
        <time>2020-09-12T19:17:30Z</time>
      </trkpt>
      <trkpt lat="43.19588" lon="0.03709">
        <ele>336.7</ele>
        <time>2020-09-12T19:17:31Z</time>
      </trkpt>
      <trkpt lat="43.19585" lon="0.03703">
        <ele>336.9</ele>
        <time>2020-09-12T19:17:32Z</time>
      </trkpt>
      <trkpt lat="43.19582" lon="0.03697">
        <ele>337.1</ele>
        <time>2020-09-12T19:17:33Z</time>
      </trkpt>
      <trkpt lat="43.19579" lon="0.03691">
        <ele>337.3</ele>
        <time>2020-09-12T19:17:34Z</time>
      </trkpt>
      <trkpt lat="43.19576" lon="0.03687">
        <ele>337.4</ele>
        <time>2020-09-12T19:17:35Z</time>
      </trkpt>
      <trkpt lat="43.19574" lon="0.03682">
        <ele>337.6</ele>
        <time>2020-09-12T19:17:36Z</time>
      </trkpt>
      <trkpt lat="43.19572" lon="0.03678">
        <ele>337.7</ele>
        <time>2020-09-12T19:17:37Z</time>
      </trkpt>
      <trkpt lat="43.19572" lon="0.03673">
        <ele>337.9</ele>
        <time>2020-09-12T19:17:38Z</time>
      </trkpt>
      <trkpt lat="43.19572" lon="0.03668">
        <ele>338</ele>
        <time>2020-09-12T19:17:39Z</time>
      </trkpt>
      <trkpt lat="43.19571" lon="0.03661">
        <ele>338.3</ele>
        <time>2020-09-12T19:17:40Z</time>
      </trkpt>
      <trkpt lat="43.19569" lon="0.03654">
        <ele>338.6</ele>
        <time>2020-09-12T19:17:41Z</time>
      </trkpt>
      <trkpt lat="43.19567" lon="0.03648">
        <ele>338.9</ele>
        <time>2020-09-12T19:17:42Z</time>
      </trkpt>
      <trkpt lat="43.19566" lon="0.03641">
        <ele>338.4</ele>
        <time>2020-09-12T19:17:43Z</time>
      </trkpt>
      <trkpt lat="43.19563" lon="0.03634">
        <ele>338.1</ele>
        <time>2020-09-12T19:17:44Z</time>
      </trkpt>
      <trkpt lat="43.19561" lon="0.03628">
        <ele>337.9</ele>
        <time>2020-09-12T19:17:45Z</time>
      </trkpt>
      <trkpt lat="43.19559" lon="0.0362">
        <ele>337.8</ele>
        <time>2020-09-12T19:17:46Z</time>
      </trkpt>
      <trkpt lat="43.19557" lon="0.03614">
        <ele>337.6</ele>
        <time>2020-09-12T19:17:47Z</time>
      </trkpt>
      <trkpt lat="43.19555" lon="0.03607">
        <ele>337.4</ele>
        <time>2020-09-12T19:17:48Z</time>
      </trkpt>
      <trkpt lat="43.19552" lon="0.036">
        <ele>337.4</ele>
        <time>2020-09-12T19:17:49Z</time>
      </trkpt>
      <trkpt lat="43.1955" lon="0.03596">
        <ele>337.3</ele>
        <time>2020-09-12T19:17:50Z</time>
      </trkpt>
      <trkpt lat="43.19548" lon="0.03593">
        <ele>337.3</ele>
        <time>2020-09-12T19:17:51Z</time>
      </trkpt>
      <trkpt lat="43.19545" lon="0.0359">
        <ele>337.2</ele>
        <time>2020-09-12T19:17:52Z</time>
      </trkpt>
      <trkpt lat="43.19542" lon="0.03588">
        <ele>337.2</ele>
        <time>2020-09-12T19:17:53Z</time>
      </trkpt>
      <trkpt lat="43.19538" lon="0.03585">
        <ele>337.2</ele>
        <time>2020-09-12T19:17:54Z</time>
      </trkpt>
      <trkpt lat="43.19534" lon="0.03583">
        <ele>337.2</ele>
        <time>2020-09-12T19:17:55Z</time>
      </trkpt>
      <trkpt lat="43.1953" lon="0.03581">
        <ele>337.3</ele>
        <time>2020-09-12T19:17:56Z</time>
      </trkpt>
      <trkpt lat="43.19526" lon="0.03578">
        <ele>337.3</ele>
        <time>2020-09-12T19:17:57Z</time>
      </trkpt>
      <trkpt lat="43.19522" lon="0.03575">
        <ele>337.3</ele>
        <time>2020-09-12T19:17:58Z</time>
      </trkpt>
      <trkpt lat="43.19518" lon="0.03572">
        <ele>337.5</ele>
        <time>2020-09-12T19:17:59Z</time>
      </trkpt>
      <trkpt lat="43.19514" lon="0.03567">
        <ele>337.6</ele>
        <time>2020-09-12T19:18:00Z</time>
      </trkpt>
      <trkpt lat="43.19509" lon="0.03563">
        <ele>337.7</ele>
        <time>2020-09-12T19:18:01Z</time>
      </trkpt>
      <trkpt lat="43.19505" lon="0.0356">
        <ele>337.9</ele>
        <time>2020-09-12T19:18:02Z</time>
      </trkpt>
      <trkpt lat="43.19502" lon="0.03556">
        <ele>338</ele>
        <time>2020-09-12T19:18:03Z</time>
      </trkpt>
      <trkpt lat="43.19499" lon="0.03553">
        <ele>338.2</ele>
        <time>2020-09-12T19:18:04Z</time>
      </trkpt>
      <trkpt lat="43.19497" lon="0.03549">
        <ele>338.3</ele>
        <time>2020-09-12T19:18:05Z</time>
      </trkpt>
      <trkpt lat="43.19494" lon="0.03547">
        <ele>338.4</ele>
        <time>2020-09-12T19:18:06Z</time>
      </trkpt>
      <trkpt lat="43.19492" lon="0.03544">
        <ele>338.5</ele>
        <time>2020-09-12T19:18:07Z</time>
      </trkpt>
      <trkpt lat="43.19489" lon="0.03541">
        <ele>338.7</ele>
        <time>2020-09-12T19:18:08Z</time>
      </trkpt>
      <trkpt lat="43.19486" lon="0.03538">
        <ele>338.9</ele>
        <time>2020-09-12T19:18:09Z</time>
      </trkpt>
      <trkpt lat="43.19483" lon="0.03535">
        <ele>339.1</ele>
        <time>2020-09-12T19:18:10Z</time>
      </trkpt>
      <trkpt lat="43.19479" lon="0.03533">
        <ele>339.3</ele>
        <time>2020-09-12T19:18:11Z</time>
      </trkpt>
      <trkpt lat="43.19474" lon="0.0353">
        <ele>339.4</ele>
        <time>2020-09-12T19:18:12Z</time>
      </trkpt>
      <trkpt lat="43.1947" lon="0.03526">
        <ele>339.6</ele>
        <time>2020-09-12T19:18:13Z</time>
      </trkpt>
      <trkpt lat="43.19466" lon="0.03523">
        <ele>339.7</ele>
        <time>2020-09-12T19:18:14Z</time>
      </trkpt>
      <trkpt lat="43.19462" lon="0.03518">
        <ele>339.8</ele>
        <time>2020-09-12T19:18:15Z</time>
      </trkpt>
      <trkpt lat="43.19458" lon="0.03513">
        <ele>339.9</ele>
        <time>2020-09-12T19:18:16Z</time>
      </trkpt>
      <trkpt lat="43.19454" lon="0.03509">
        <ele>340</ele>
        <time>2020-09-12T19:18:17Z</time>
      </trkpt>
      <trkpt lat="43.1945" lon="0.03504">
        <ele>340.1</ele>
        <time>2020-09-12T19:18:18Z</time>
      </trkpt>
      <trkpt lat="43.19446" lon="0.035">
        <ele>340.1</ele>
        <time>2020-09-12T19:18:19Z</time>
      </trkpt>
      <trkpt lat="43.19442" lon="0.03496">
        <ele>340.2</ele>
        <time>2020-09-12T19:18:20Z</time>
      </trkpt>
      <trkpt lat="43.19438" lon="0.03491">
        <ele>340.4</ele>
        <time>2020-09-12T19:18:21Z</time>
      </trkpt>
      <trkpt lat="43.19435" lon="0.03486">
        <ele>340.4</ele>
        <time>2020-09-12T19:18:22Z</time>
      </trkpt>
      <trkpt lat="43.19432" lon="0.03482">
        <ele>340.5</ele>
        <time>2020-09-12T19:18:23Z</time>
      </trkpt>
      <trkpt lat="43.19429" lon="0.03477">
        <ele>340.5</ele>
        <time>2020-09-12T19:18:24Z</time>
      </trkpt>
      <trkpt lat="43.19425" lon="0.03473">
        <ele>340.6</ele>
        <time>2020-09-12T19:18:25Z</time>
      </trkpt>
      <trkpt lat="43.1942" lon="0.03469">
        <ele>340.7</ele>
        <time>2020-09-12T19:18:26Z</time>
      </trkpt>
      <trkpt lat="43.19416" lon="0.03465">
        <ele>340.8</ele>
        <time>2020-09-12T19:18:27Z</time>
      </trkpt>
      <trkpt lat="43.19413" lon="0.03462">
        <ele>340.9</ele>
        <time>2020-09-12T19:18:28Z</time>
      </trkpt>
      <trkpt lat="43.1941" lon="0.0346">
        <ele>341</ele>
        <time>2020-09-12T19:18:29Z</time>
      </trkpt>
      <trkpt lat="43.19406" lon="0.03459">
        <ele>341.2</ele>
        <time>2020-09-12T19:18:30Z</time>
      </trkpt>
      <trkpt lat="43.19402" lon="0.03459">
        <ele>341.3</ele>
        <time>2020-09-12T19:18:31Z</time>
      </trkpt>
      <trkpt lat="43.19399" lon="0.03459">
        <ele>341.5</ele>
        <time>2020-09-12T19:18:32Z</time>
      </trkpt>
      <trkpt lat="43.19394" lon="0.03456">
        <ele>341.6</ele>
        <time>2020-09-12T19:18:33Z</time>
      </trkpt>
      <trkpt lat="43.19392" lon="0.03452">
        <ele>341.8</ele>
        <time>2020-09-12T19:18:34Z</time>
      </trkpt>
      <trkpt lat="43.1939" lon="0.03447">
        <ele>341.9</ele>
        <time>2020-09-12T19:18:35Z</time>
      </trkpt>
      <trkpt lat="43.19388" lon="0.03442">
        <ele>342</ele>
        <time>2020-09-12T19:18:36Z</time>
      </trkpt>
      <trkpt lat="43.19386" lon="0.03436">
        <ele>342.1</ele>
        <time>2020-09-12T19:18:37Z</time>
      </trkpt>
      <trkpt lat="43.19384" lon="0.03432">
        <ele>342.2</ele>
        <time>2020-09-12T19:18:38Z</time>
      </trkpt>
      <trkpt lat="43.19383" lon="0.03426">
        <ele>342.2</ele>
        <time>2020-09-12T19:18:39Z</time>
      </trkpt>
      <trkpt lat="43.19381" lon="0.03422">
        <ele>342.2</ele>
        <time>2020-09-12T19:18:40Z</time>
      </trkpt>
      <trkpt lat="43.19378" lon="0.03419">
        <ele>342.2</ele>
        <time>2020-09-12T19:18:41Z</time>
      </trkpt>
      <trkpt lat="43.19374" lon="0.03418">
        <ele>342.3</ele>
        <time>2020-09-12T19:18:42Z</time>
      </trkpt>
      <trkpt lat="43.19371" lon="0.03416">
        <ele>342.3</ele>
        <time>2020-09-12T19:18:43Z</time>
      </trkpt>
      <trkpt lat="43.19369" lon="0.03414">
        <ele>342.4</ele>
        <time>2020-09-12T19:18:44Z</time>
      </trkpt>
      <trkpt lat="43.19366" lon="0.03411">
        <ele>342.4</ele>
        <time>2020-09-12T19:18:45Z</time>
      </trkpt>
      <trkpt lat="43.19364" lon="0.03407">
        <ele>342.5</ele>
        <time>2020-09-12T19:18:46Z</time>
      </trkpt>
      <trkpt lat="43.19361" lon="0.03404">
        <ele>342.6</ele>
        <time>2020-09-12T19:18:47Z</time>
      </trkpt>
      <trkpt lat="43.19358" lon="0.03399">
        <ele>342.7</ele>
        <time>2020-09-12T19:18:48Z</time>
      </trkpt>
      <trkpt lat="43.19355" lon="0.03394">
        <ele>342.8</ele>
        <time>2020-09-12T19:18:49Z</time>
      </trkpt>
      <trkpt lat="43.19352" lon="0.03389">
        <ele>342.9</ele>
        <time>2020-09-12T19:18:50Z</time>
      </trkpt>
      <trkpt lat="43.19349" lon="0.03384">
        <ele>343</ele>
        <time>2020-09-12T19:18:51Z</time>
      </trkpt>
      <trkpt lat="43.19346" lon="0.0338">
        <ele>343</ele>
        <time>2020-09-12T19:18:52Z</time>
      </trkpt>
      <trkpt lat="43.19343" lon="0.03375">
        <ele>343</ele>
        <time>2020-09-12T19:18:53Z</time>
      </trkpt>
      <trkpt lat="43.1934" lon="0.03372">
        <ele>343</ele>
        <time>2020-09-12T19:18:54Z</time>
      </trkpt>
      <trkpt lat="43.19336" lon="0.03368">
        <ele>343</ele>
        <time>2020-09-12T19:18:55Z</time>
      </trkpt>
      <trkpt lat="43.19331" lon="0.03367">
        <ele>343</ele>
        <time>2020-09-12T19:18:56Z</time>
      </trkpt>
      <trkpt lat="43.19327" lon="0.03366">
        <ele>342.9</ele>
        <time>2020-09-12T19:18:57Z</time>
      </trkpt>
      <trkpt lat="43.19323" lon="0.03368">
        <ele>342.9</ele>
        <time>2020-09-12T19:18:58Z</time>
      </trkpt>
      <trkpt lat="43.19318" lon="0.03369">
        <ele>342.9</ele>
        <time>2020-09-12T19:18:59Z</time>
      </trkpt>
      <trkpt lat="43.19313" lon="0.0337">
        <ele>342.9</ele>
        <time>2020-09-12T19:19:00Z</time>
      </trkpt>
      <trkpt lat="43.19308" lon="0.03372">
        <ele>342.9</ele>
        <time>2020-09-12T19:19:01Z</time>
      </trkpt>
      <trkpt lat="43.19304" lon="0.03373">
        <ele>342.9</ele>
        <time>2020-09-12T19:19:02Z</time>
      </trkpt>
      <trkpt lat="43.19301" lon="0.03373">
        <ele>342.9</ele>
        <time>2020-09-12T19:19:03Z</time>
      </trkpt>
      <trkpt lat="43.19297" lon="0.03373">
        <ele>342.9</ele>
        <time>2020-09-12T19:19:04Z</time>
      </trkpt>
      <trkpt lat="43.19293" lon="0.03374">
        <ele>342.9</ele>
        <time>2020-09-12T19:19:06Z</time>
      </trkpt>
      <trkpt lat="43.1929" lon="0.03376">
        <ele>343</ele>
        <time>2020-09-12T19:19:08Z</time>
      </trkpt>
      <trkpt lat="43.19288" lon="0.0338">
        <ele>343</ele>
        <time>2020-09-12T19:19:09Z</time>
      </trkpt>
      <trkpt lat="43.19286" lon="0.03383">
        <ele>342.9</ele>
        <time>2020-09-12T19:19:10Z</time>
      </trkpt>
      <trkpt lat="43.19282" lon="0.03388">
        <ele>342.9</ele>
        <time>2020-09-12T19:19:12Z</time>
      </trkpt>
      <trkpt lat="43.1928" lon="0.03391">
        <ele>342.9</ele>
        <time>2020-09-12T19:19:13Z</time>
      </trkpt>
      <trkpt lat="43.19278" lon="0.03396">
        <ele>342.9</ele>
        <time>2020-09-12T19:19:14Z</time>
      </trkpt>
      <trkpt lat="43.19276" lon="0.03402">
        <ele>342.9</ele>
        <time>2020-09-12T19:19:15Z</time>
      </trkpt>
      <trkpt lat="43.19274" lon="0.03406">
        <ele>342.9</ele>
        <time>2020-09-12T19:19:16Z</time>
      </trkpt>
      <trkpt lat="43.19272" lon="0.03412">
        <ele>342.8</ele>
        <time>2020-09-12T19:19:17Z</time>
      </trkpt>
      <trkpt lat="43.19271" lon="0.03416">
        <ele>342.8</ele>
        <time>2020-09-12T19:19:18Z</time>
      </trkpt>
      <trkpt lat="43.1927" lon="0.03419">
        <ele>342.7</ele>
        <time>2020-09-12T19:19:19Z</time>
      </trkpt>
      <trkpt lat="43.1927" lon="0.03424">
        <ele>342.7</ele>
        <time>2020-09-12T19:19:20Z</time>
      </trkpt>
      <trkpt lat="43.1927" lon="0.03429">
        <ele>342.6</ele>
        <time>2020-09-12T19:19:21Z</time>
      </trkpt>
      <trkpt lat="43.1927" lon="0.03433">
        <ele>342.6</ele>
        <time>2020-09-12T19:19:22Z</time>
      </trkpt>
      <trkpt lat="43.19271" lon="0.03438">
        <ele>342.5</ele>
        <time>2020-09-12T19:19:23Z</time>
      </trkpt>
      <trkpt lat="43.19271" lon="0.03442">
        <ele>342.5</ele>
        <time>2020-09-12T19:19:24Z</time>
      </trkpt>
      <trkpt lat="43.19271" lon="0.03447">
        <ele>342.4</ele>
        <time>2020-09-12T19:19:25Z</time>
      </trkpt>
      <trkpt lat="43.1927" lon="0.03453">
        <ele>342.3</ele>
        <time>2020-09-12T19:19:26Z</time>
      </trkpt>
      <trkpt lat="43.1927" lon="0.03459">
        <ele>342.2</ele>
        <time>2020-09-12T19:19:27Z</time>
      </trkpt>
      <trkpt lat="43.19269" lon="0.03464">
        <ele>342.2</ele>
        <time>2020-09-12T19:19:28Z</time>
      </trkpt>
      <trkpt lat="43.19266" lon="0.03469">
        <ele>342.1</ele>
        <time>2020-09-12T19:19:29Z</time>
      </trkpt>
      <trkpt lat="43.19263" lon="0.03472">
        <ele>342</ele>
        <time>2020-09-12T19:19:30Z</time>
      </trkpt>
      <trkpt lat="43.19259" lon="0.03476">
        <ele>342</ele>
        <time>2020-09-12T19:19:31Z</time>
      </trkpt>
      <trkpt lat="43.19256" lon="0.03481">
        <ele>341.9</ele>
        <time>2020-09-12T19:19:32Z</time>
      </trkpt>
      <trkpt lat="43.19252" lon="0.03485">
        <ele>341.9</ele>
        <time>2020-09-12T19:19:33Z</time>
      </trkpt>
      <trkpt lat="43.19249" lon="0.0349">
        <ele>341.8</ele>
        <time>2020-09-12T19:19:34Z</time>
      </trkpt>
      <trkpt lat="43.19246" lon="0.03496">
        <ele>341.8</ele>
        <time>2020-09-12T19:19:35Z</time>
      </trkpt>
      <trkpt lat="43.19243" lon="0.03501">
        <ele>341.8</ele>
        <time>2020-09-12T19:19:36Z</time>
      </trkpt>
      <trkpt lat="43.19241" lon="0.03506">
        <ele>341.7</ele>
        <time>2020-09-12T19:19:37Z</time>
      </trkpt>
      <trkpt lat="43.19239" lon="0.03511">
        <ele>341.7</ele>
        <time>2020-09-12T19:19:38Z</time>
      </trkpt>
      <trkpt lat="43.19237" lon="0.03516">
        <ele>341.6</ele>
        <time>2020-09-12T19:19:39Z</time>
      </trkpt>
      <trkpt lat="43.19236" lon="0.03521">
        <ele>341.6</ele>
        <time>2020-09-12T19:19:40Z</time>
      </trkpt>
      <trkpt lat="43.19236" lon="0.03527">
        <ele>341.6</ele>
        <time>2020-09-12T19:19:41Z</time>
      </trkpt>
      <trkpt lat="43.19236" lon="0.03532">
        <ele>341.5</ele>
        <time>2020-09-12T19:19:42Z</time>
      </trkpt>
      <trkpt lat="43.19236" lon="0.03538">
        <ele>341.5</ele>
        <time>2020-09-12T19:19:43Z</time>
      </trkpt>
      <trkpt lat="43.19236" lon="0.03544">
        <ele>341.5</ele>
        <time>2020-09-12T19:19:44Z</time>
      </trkpt>
      <trkpt lat="43.19235" lon="0.03549">
        <ele>341.5</ele>
        <time>2020-09-12T19:19:45Z</time>
      </trkpt>
      <trkpt lat="43.19233" lon="0.03553">
        <ele>341.5</ele>
        <time>2020-09-12T19:19:46Z</time>
      </trkpt>
      <trkpt lat="43.1923" lon="0.03557">
        <ele>341.5</ele>
        <time>2020-09-12T19:19:47Z</time>
      </trkpt>
      <trkpt lat="43.19229" lon="0.03563">
        <ele>341.4</ele>
        <time>2020-09-12T19:19:48Z</time>
      </trkpt>
      <trkpt lat="43.19229" lon="0.03567">
        <ele>341.4</ele>
        <time>2020-09-12T19:19:49Z</time>
      </trkpt>
      <trkpt lat="43.19231" lon="0.03571">
        <ele>341.4</ele>
        <time>2020-09-12T19:19:50Z</time>
      </trkpt>
      <trkpt lat="43.19234" lon="0.03574">
        <ele>341.4</ele>
        <time>2020-09-12T19:19:51Z</time>
      </trkpt>
      <trkpt lat="43.19237" lon="0.03576">
        <ele>341.4</ele>
        <time>2020-09-12T19:19:52Z</time>
      </trkpt>
      <trkpt lat="43.1924" lon="0.03579">
        <ele>341.3</ele>
        <time>2020-09-12T19:19:53Z</time>
      </trkpt>
      <trkpt lat="43.19243" lon="0.03583">
        <ele>341.3</ele>
        <time>2020-09-12T19:19:54Z</time>
      </trkpt>
      <trkpt lat="43.19244" lon="0.03588">
        <ele>341.3</ele>
        <time>2020-09-12T19:19:55Z</time>
      </trkpt>
      <trkpt lat="43.19243" lon="0.03595">
        <ele>341.3</ele>
        <time>2020-09-12T19:19:56Z</time>
      </trkpt>
      <trkpt lat="43.19241" lon="0.03601">
        <ele>341.3</ele>
        <time>2020-09-12T19:19:57Z</time>
      </trkpt>
      <trkpt lat="43.1924" lon="0.03607">
        <ele>341.3</ele>
        <time>2020-09-12T19:19:58Z</time>
      </trkpt>
      <trkpt lat="43.1924" lon="0.03614">
        <ele>341.3</ele>
        <time>2020-09-12T19:19:59Z</time>
      </trkpt>
      <trkpt lat="43.19239" lon="0.0362">
        <ele>341.2</ele>
        <time>2020-09-12T19:20:00Z</time>
      </trkpt>
      <trkpt lat="43.19238" lon="0.03626">
        <ele>341.2</ele>
        <time>2020-09-12T19:20:01Z</time>
      </trkpt>
      <trkpt lat="43.19237" lon="0.03632">
        <ele>341.2</ele>
        <time>2020-09-12T19:20:02Z</time>
      </trkpt>
      <trkpt lat="43.19236" lon="0.03638">
        <ele>341.2</ele>
        <time>2020-09-12T19:20:03Z</time>
      </trkpt>
      <trkpt lat="43.19234" lon="0.03643">
        <ele>341.2</ele>
        <time>2020-09-12T19:20:04Z</time>
      </trkpt>
      <trkpt lat="43.19232" lon="0.03649">
        <ele>341.2</ele>
        <time>2020-09-12T19:20:05Z</time>
      </trkpt>
      <trkpt lat="43.1923" lon="0.03654">
        <ele>341.2</ele>
        <time>2020-09-12T19:20:06Z</time>
      </trkpt>
      <trkpt lat="43.19227" lon="0.03658">
        <ele>341.2</ele>
        <time>2020-09-12T19:20:07Z</time>
      </trkpt>
      <trkpt lat="43.19224" lon="0.0366">
        <ele>341.2</ele>
        <time>2020-09-12T19:20:08Z</time>
      </trkpt>
      <trkpt lat="43.1922" lon="0.03661">
        <ele>341.1</ele>
        <time>2020-09-12T19:20:09Z</time>
      </trkpt>
      <trkpt lat="43.19215" lon="0.03662">
        <ele>341.1</ele>
        <time>2020-09-12T19:20:10Z</time>
      </trkpt>
      <trkpt lat="43.19211" lon="0.03662">
        <ele>341</ele>
        <time>2020-09-12T19:20:11Z</time>
      </trkpt>
      <trkpt lat="43.19207" lon="0.03662">
        <ele>341</ele>
        <time>2020-09-12T19:20:12Z</time>
      </trkpt>
      <trkpt lat="43.19203" lon="0.03665">
        <ele>340.9</ele>
        <time>2020-09-12T19:20:13Z</time>
      </trkpt>
      <trkpt lat="43.19201" lon="0.0367">
        <ele>340.9</ele>
        <time>2020-09-12T19:20:14Z</time>
      </trkpt>
      <trkpt lat="43.192" lon="0.03674">
        <ele>340.8</ele>
        <time>2020-09-12T19:20:15Z</time>
      </trkpt>
      <trkpt lat="43.192" lon="0.03678">
        <ele>340.8</ele>
        <time>2020-09-12T19:20:16Z</time>
      </trkpt>
      <trkpt lat="43.19202" lon="0.03682">
        <ele>340.9</ele>
        <time>2020-09-12T19:20:17Z</time>
      </trkpt>
      <trkpt lat="43.19203" lon="0.03686">
        <ele>340.8</ele>
        <time>2020-09-12T19:20:18Z</time>
      </trkpt>
      <trkpt lat="43.19204" lon="0.03693">
        <ele>340.8</ele>
        <time>2020-09-12T19:20:19Z</time>
      </trkpt>
      <trkpt lat="43.19204" lon="0.03699">
        <ele>340.8</ele>
        <time>2020-09-12T19:20:20Z</time>
      </trkpt>
      <trkpt lat="43.19202" lon="0.03704">
        <ele>340.8</ele>
        <time>2020-09-12T19:20:21Z</time>
      </trkpt>
      <trkpt lat="43.19199" lon="0.03708">
        <ele>340.7</ele>
        <time>2020-09-12T19:20:22Z</time>
      </trkpt>
      <trkpt lat="43.19196" lon="0.03713">
        <ele>340.7</ele>
        <time>2020-09-12T19:20:23Z</time>
      </trkpt>
      <trkpt lat="43.19193" lon="0.03716">
        <ele>340.6</ele>
        <time>2020-09-12T19:20:24Z</time>
      </trkpt>
      <trkpt lat="43.1919" lon="0.03717">
        <ele>340.6</ele>
        <time>2020-09-12T19:20:25Z</time>
      </trkpt>
      <trkpt lat="43.19186" lon="0.03718">
        <ele>340.6</ele>
        <time>2020-09-12T19:20:26Z</time>
      </trkpt>
      <trkpt lat="43.19182" lon="0.03717">
        <ele>340.5</ele>
        <time>2020-09-12T19:20:27Z</time>
      </trkpt>
      <trkpt lat="43.19179" lon="0.03717">
        <ele>340.5</ele>
        <time>2020-09-12T19:20:28Z</time>
      </trkpt>
      <trkpt lat="43.19175" lon="0.03721">
        <ele>340.4</ele>
        <time>2020-09-12T19:20:29Z</time>
      </trkpt>
      <trkpt lat="43.19173" lon="0.03725">
        <ele>340.4</ele>
        <time>2020-09-12T19:20:30Z</time>
      </trkpt>
      <trkpt lat="43.19171" lon="0.03731">
        <ele>340.4</ele>
        <time>2020-09-12T19:20:31Z</time>
      </trkpt>
      <trkpt lat="43.19169" lon="0.03736">
        <ele>340.3</ele>
        <time>2020-09-12T19:20:32Z</time>
      </trkpt>
      <trkpt lat="43.19167" lon="0.03739">
        <ele>340.3</ele>
        <time>2020-09-12T19:20:33Z</time>
      </trkpt>
      <trkpt lat="43.19162" lon="0.03738">
        <ele>340.3</ele>
        <time>2020-09-12T19:20:35Z</time>
      </trkpt>
      <trkpt lat="43.1916" lon="0.03736">
        <ele>340.3</ele>
        <time>2020-09-12T19:20:36Z</time>
      </trkpt>
      <trkpt lat="43.19157" lon="0.03733">
        <ele>340.3</ele>
        <time>2020-09-12T19:20:37Z</time>
      </trkpt>
      <trkpt lat="43.19154" lon="0.03731">
        <ele>340.3</ele>
        <time>2020-09-12T19:20:38Z</time>
      </trkpt>
      <trkpt lat="43.19151" lon="0.03728">
        <ele>340.3</ele>
        <time>2020-09-12T19:20:39Z</time>
      </trkpt>
      <trkpt lat="43.19148" lon="0.03725">
        <ele>340.3</ele>
        <time>2020-09-12T19:20:40Z</time>
      </trkpt>
      <trkpt lat="43.19144" lon="0.03722">
        <ele>340.3</ele>
        <time>2020-09-12T19:20:41Z</time>
      </trkpt>
      <trkpt lat="43.19141" lon="0.03719">
        <ele>340.3</ele>
        <time>2020-09-12T19:20:42Z</time>
      </trkpt>
      <trkpt lat="43.19138" lon="0.03715">
        <ele>340.3</ele>
        <time>2020-09-12T19:20:43Z</time>
      </trkpt>
      <trkpt lat="43.19135" lon="0.0371">
        <ele>340.4</ele>
        <time>2020-09-12T19:20:44Z</time>
      </trkpt>
      <trkpt lat="43.19131" lon="0.03706">
        <ele>340.4</ele>
        <time>2020-09-12T19:20:45Z</time>
      </trkpt>
      <trkpt lat="43.19128" lon="0.03703">
        <ele>340.5</ele>
        <time>2020-09-12T19:20:46Z</time>
      </trkpt>
      <trkpt lat="43.19124" lon="0.03699">
        <ele>340.6</ele>
        <time>2020-09-12T19:20:47Z</time>
      </trkpt>
      <trkpt lat="43.19121" lon="0.03695">
        <ele>340.7</ele>
        <time>2020-09-12T19:20:48Z</time>
      </trkpt>
      <trkpt lat="43.19117" lon="0.03691">
        <ele>340.8</ele>
        <time>2020-09-12T19:20:49Z</time>
      </trkpt>
      <trkpt lat="43.19114" lon="0.03688">
        <ele>340.9</ele>
        <time>2020-09-12T19:20:50Z</time>
      </trkpt>
      <trkpt lat="43.1911" lon="0.03684">
        <ele>341</ele>
        <time>2020-09-12T19:20:51Z</time>
      </trkpt>
      <trkpt lat="43.19106" lon="0.03681">
        <ele>341</ele>
        <time>2020-09-12T19:20:52Z</time>
      </trkpt>
      <trkpt lat="43.19102" lon="0.0368">
        <ele>341.1</ele>
        <time>2020-09-12T19:20:53Z</time>
      </trkpt>
      <trkpt lat="43.19099" lon="0.03681">
        <ele>341.4</ele>
        <time>2020-09-12T19:20:54Z</time>
      </trkpt>
      <trkpt lat="43.19096" lon="0.03686">
        <ele>341.4</ele>
        <time>2020-09-12T19:20:55Z</time>
      </trkpt>
      <trkpt lat="43.19095" lon="0.03692">
        <ele>341.4</ele>
        <time>2020-09-12T19:20:56Z</time>
      </trkpt>
      <trkpt lat="43.19093" lon="0.03698">
        <ele>341.5</ele>
        <time>2020-09-12T19:20:57Z</time>
      </trkpt>
      <trkpt lat="43.19092" lon="0.03703">
        <ele>341.5</ele>
        <time>2020-09-12T19:20:58Z</time>
      </trkpt>
      <trkpt lat="43.1909" lon="0.03707">
        <ele>341.5</ele>
        <time>2020-09-12T19:20:59Z</time>
      </trkpt>
      <trkpt lat="43.19087" lon="0.03709">
        <ele>341.6</ele>
        <time>2020-09-12T19:21:00Z</time>
      </trkpt>
      <trkpt lat="43.19083" lon="0.03707">
        <ele>341.6</ele>
        <time>2020-09-12T19:21:01Z</time>
      </trkpt>
      <trkpt lat="43.19079" lon="0.03704">
        <ele>341.7</ele>
        <time>2020-09-12T19:21:02Z</time>
      </trkpt>
      <trkpt lat="43.19075" lon="0.037">
        <ele>341.7</ele>
        <time>2020-09-12T19:21:03Z</time>
      </trkpt>
      <trkpt lat="43.19072" lon="0.03696">
        <ele>341.8</ele>
        <time>2020-09-12T19:21:04Z</time>
      </trkpt>
      <trkpt lat="43.19068" lon="0.03692">
        <ele>341.8</ele>
        <time>2020-09-12T19:21:05Z</time>
      </trkpt>
      <trkpt lat="43.19065" lon="0.03688">
        <ele>341.9</ele>
        <time>2020-09-12T19:21:06Z</time>
      </trkpt>
      <trkpt lat="43.19061" lon="0.03684">
        <ele>342</ele>
        <time>2020-09-12T19:21:07Z</time>
      </trkpt>
      <trkpt lat="43.19057" lon="0.0368">
        <ele>342</ele>
        <time>2020-09-12T19:21:08Z</time>
      </trkpt>
      <trkpt lat="43.19054" lon="0.03676">
        <ele>342.1</ele>
        <time>2020-09-12T19:21:09Z</time>
      </trkpt>
      <trkpt lat="43.19051" lon="0.03671">
        <ele>342.2</ele>
        <time>2020-09-12T19:21:10Z</time>
      </trkpt>
      <trkpt lat="43.19049" lon="0.03666">
        <ele>342.2</ele>
        <time>2020-09-12T19:21:11Z</time>
      </trkpt>
      <trkpt lat="43.19047" lon="0.03662">
        <ele>342.3</ele>
        <time>2020-09-12T19:21:12Z</time>
      </trkpt>
      <trkpt lat="43.19043" lon="0.03659">
        <ele>342.4</ele>
        <time>2020-09-12T19:21:13Z</time>
      </trkpt>
      <trkpt lat="43.1904" lon="0.03657">
        <ele>342.4</ele>
        <time>2020-09-12T19:21:14Z</time>
      </trkpt>
      <trkpt lat="43.19037" lon="0.03654">
        <ele>342.5</ele>
        <time>2020-09-12T19:21:15Z</time>
      </trkpt>
      <trkpt lat="43.19034" lon="0.03651">
        <ele>342.6</ele>
        <time>2020-09-12T19:21:16Z</time>
      </trkpt>
      <trkpt lat="43.1903" lon="0.03647">
        <ele>342.7</ele>
        <time>2020-09-12T19:21:17Z</time>
      </trkpt>
      <trkpt lat="43.19027" lon="0.03644">
        <ele>342.8</ele>
        <time>2020-09-12T19:21:18Z</time>
      </trkpt>
      <trkpt lat="43.19024" lon="0.0364">
        <ele>342.9</ele>
        <time>2020-09-12T19:21:19Z</time>
      </trkpt>
      <trkpt lat="43.19021" lon="0.03635">
        <ele>343</ele>
        <time>2020-09-12T19:21:20Z</time>
      </trkpt>
      <trkpt lat="43.19017" lon="0.03632">
        <ele>343.1</ele>
        <time>2020-09-12T19:21:21Z</time>
      </trkpt>
      <trkpt lat="43.19014" lon="0.03629">
        <ele>343.2</ele>
        <time>2020-09-12T19:21:22Z</time>
      </trkpt>
      <trkpt lat="43.1901" lon="0.03626">
        <ele>343.4</ele>
        <time>2020-09-12T19:21:23Z</time>
      </trkpt>
      <trkpt lat="43.19005" lon="0.03624">
        <ele>343.6</ele>
        <time>2020-09-12T19:21:24Z</time>
      </trkpt>
      <trkpt lat="43.19002" lon="0.03622">
        <ele>343.7</ele>
        <time>2020-09-12T19:21:25Z</time>
      </trkpt>
      <trkpt lat="43.18998" lon="0.03619">
        <ele>343.9</ele>
        <time>2020-09-12T19:21:26Z</time>
      </trkpt>
      <trkpt lat="43.18994" lon="0.03617">
        <ele>344.1</ele>
        <time>2020-09-12T19:21:27Z</time>
      </trkpt>
      <trkpt lat="43.18991" lon="0.03615">
        <ele>344.3</ele>
        <time>2020-09-12T19:21:28Z</time>
      </trkpt>
      <trkpt lat="43.18987" lon="0.03613">
        <ele>344.4</ele>
        <time>2020-09-12T19:21:29Z</time>
      </trkpt>
      <trkpt lat="43.18983" lon="0.03611">
        <ele>344.6</ele>
        <time>2020-09-12T19:21:30Z</time>
      </trkpt>
      <trkpt lat="43.18979" lon="0.03609">
        <ele>344.7</ele>
        <time>2020-09-12T19:21:31Z</time>
      </trkpt>
      <trkpt lat="43.18975" lon="0.03606">
        <ele>344.9</ele>
        <time>2020-09-12T19:21:32Z</time>
      </trkpt>
      <trkpt lat="43.18971" lon="0.03604">
        <ele>345.1</ele>
        <time>2020-09-12T19:21:33Z</time>
      </trkpt>
      <trkpt lat="43.18967" lon="0.03602">
        <ele>345.3</ele>
        <time>2020-09-12T19:21:34Z</time>
      </trkpt>
      <trkpt lat="43.18963" lon="0.036">
        <ele>345.5</ele>
        <time>2020-09-12T19:21:35Z</time>
      </trkpt>
      <trkpt lat="43.1896" lon="0.03597">
        <ele>345.7</ele>
        <time>2020-09-12T19:21:36Z</time>
      </trkpt>
      <trkpt lat="43.18956" lon="0.03594">
        <ele>345.8</ele>
        <time>2020-09-12T19:21:37Z</time>
      </trkpt>
      <trkpt lat="43.18953" lon="0.03591">
        <ele>346</ele>
        <time>2020-09-12T19:21:38Z</time>
      </trkpt>
      <trkpt lat="43.1895" lon="0.03588">
        <ele>346.2</ele>
        <time>2020-09-12T19:21:39Z</time>
      </trkpt>
      <trkpt lat="43.18946" lon="0.03585">
        <ele>346.3</ele>
        <time>2020-09-12T19:21:40Z</time>
      </trkpt>
      <trkpt lat="43.18943" lon="0.03584">
        <ele>346.5</ele>
        <time>2020-09-12T19:21:41Z</time>
      </trkpt>
      <trkpt lat="43.1894" lon="0.03584">
        <ele>346.6</ele>
        <time>2020-09-12T19:21:42Z</time>
      </trkpt>
      <trkpt lat="43.18937" lon="0.03582">
        <ele>346.8</ele>
        <time>2020-09-12T19:21:43Z</time>
      </trkpt>
      <trkpt lat="43.18936" lon="0.03579">
        <ele>347</ele>
        <time>2020-09-12T19:21:44Z</time>
      </trkpt>
      <trkpt lat="43.18935" lon="0.03575">
        <ele>347.1</ele>
        <time>2020-09-12T19:21:45Z</time>
      </trkpt>
      <trkpt lat="43.18933" lon="0.0357">
        <ele>347.4</ele>
        <time>2020-09-12T19:21:46Z</time>
      </trkpt>
      <trkpt lat="43.1893" lon="0.03567">
        <ele>347.7</ele>
        <time>2020-09-12T19:21:47Z</time>
      </trkpt>
      <trkpt lat="43.18928" lon="0.03564">
        <ele>347.9</ele>
        <time>2020-09-12T19:21:48Z</time>
      </trkpt>
      <trkpt lat="43.18926" lon="0.03561">
        <ele>348.1</ele>
        <time>2020-09-12T19:21:49Z</time>
      </trkpt>
      <trkpt lat="43.18924" lon="0.03557">
        <ele>348.3</ele>
        <time>2020-09-12T19:21:50Z</time>
      </trkpt>
      <trkpt lat="43.18922" lon="0.03553">
        <ele>348.6</ele>
        <time>2020-09-12T19:21:51Z</time>
      </trkpt>
      <trkpt lat="43.1892" lon="0.0355">
        <ele>348.8</ele>
        <time>2020-09-12T19:21:52Z</time>
      </trkpt>
      <trkpt lat="43.18917" lon="0.03546">
        <ele>349</ele>
        <time>2020-09-12T19:21:53Z</time>
      </trkpt>
      <trkpt lat="43.18915" lon="0.03543">
        <ele>349.3</ele>
        <time>2020-09-12T19:21:54Z</time>
      </trkpt>
      <trkpt lat="43.18912" lon="0.03539">
        <ele>349.5</ele>
        <time>2020-09-12T19:21:55Z</time>
      </trkpt>
      <trkpt lat="43.1891" lon="0.03536">
        <ele>349.8</ele>
        <time>2020-09-12T19:21:56Z</time>
      </trkpt>
      <trkpt lat="43.18907" lon="0.03532">
        <ele>350.1</ele>
        <time>2020-09-12T19:21:57Z</time>
      </trkpt>
      <trkpt lat="43.18904" lon="0.03532">
        <ele>352.8</ele>
        <time>2020-09-12T19:21:58Z</time>
      </trkpt>
      <trkpt lat="43.18901" lon="0.03534">
        <ele>353</ele>
        <time>2020-09-12T19:21:59Z</time>
      </trkpt>
      <trkpt lat="43.18899" lon="0.03538">
        <ele>353.2</ele>
        <time>2020-09-12T19:22:00Z</time>
      </trkpt>
      <trkpt lat="43.18896" lon="0.03541">
        <ele>353.4</ele>
        <time>2020-09-12T19:22:01Z</time>
      </trkpt>
      <trkpt lat="43.18893" lon="0.03545">
        <ele>353.6</ele>
        <time>2020-09-12T19:22:02Z</time>
      </trkpt>
      <trkpt lat="43.1889" lon="0.03548">
        <ele>353.8</ele>
        <time>2020-09-12T19:22:03Z</time>
      </trkpt>
      <trkpt lat="43.18889" lon="0.03552">
        <ele>354</ele>
        <time>2020-09-12T19:22:04Z</time>
      </trkpt>
      <trkpt lat="43.18887" lon="0.03555">
        <ele>354.2</ele>
        <time>2020-09-12T19:22:05Z</time>
      </trkpt>
      <trkpt lat="43.18885" lon="0.03559">
        <ele>354.3</ele>
        <time>2020-09-12T19:22:06Z</time>
      </trkpt>
      <trkpt lat="43.18882" lon="0.03562">
        <ele>354.6</ele>
        <time>2020-09-12T19:22:07Z</time>
      </trkpt>
      <trkpt lat="43.18877" lon="0.03563">
        <ele>354.9</ele>
        <time>2020-09-12T19:22:08Z</time>
      </trkpt>
      <trkpt lat="43.18874" lon="0.03566">
        <ele>355.2</ele>
        <time>2020-09-12T19:22:09Z</time>
      </trkpt>
      <trkpt lat="43.18872" lon="0.03569">
        <ele>355.5</ele>
        <time>2020-09-12T19:22:10Z</time>
      </trkpt>
      <trkpt lat="43.18869" lon="0.03573">
        <ele>355.7</ele>
        <time>2020-09-12T19:22:11Z</time>
      </trkpt>
      <trkpt lat="43.18866" lon="0.03576">
        <ele>356</ele>
        <time>2020-09-12T19:22:12Z</time>
      </trkpt>
      <trkpt lat="43.18863" lon="0.0358">
        <ele>356.3</ele>
        <time>2020-09-12T19:22:13Z</time>
      </trkpt>
      <trkpt lat="43.18861" lon="0.03585">
        <ele>356.6</ele>
        <time>2020-09-12T19:22:14Z</time>
      </trkpt>
      <trkpt lat="43.18859" lon="0.03589">
        <ele>356.8</ele>
        <time>2020-09-12T19:22:15Z</time>
      </trkpt>
      <trkpt lat="43.18857" lon="0.03592">
        <ele>357</ele>
        <time>2020-09-12T19:22:16Z</time>
      </trkpt>
      <trkpt lat="43.18852" lon="0.03592">
        <ele>357.1</ele>
        <time>2020-09-12T19:22:17Z</time>
      </trkpt>
      <trkpt lat="43.18849" lon="0.03594">
        <ele>357.3</ele>
        <time>2020-09-12T19:22:18Z</time>
      </trkpt>
      <trkpt lat="43.18845" lon="0.03595">
        <ele>357.4</ele>
        <time>2020-09-12T19:22:19Z</time>
      </trkpt>
      <trkpt lat="43.1884" lon="0.03596">
        <ele>357.6</ele>
        <time>2020-09-12T19:22:20Z</time>
      </trkpt>
      <trkpt lat="43.18836" lon="0.03595">
        <ele>357.8</ele>
        <time>2020-09-12T19:22:21Z</time>
      </trkpt>
      <trkpt lat="43.18833" lon="0.03591">
        <ele>357.9</ele>
        <time>2020-09-12T19:22:23Z</time>
      </trkpt>
      <trkpt lat="43.18834" lon="0.03587">
        <ele>358</ele>
        <time>2020-09-12T19:22:24Z</time>
      </trkpt>
      <trkpt lat="43.18836" lon="0.03583">
        <ele>358.1</ele>
        <time>2020-09-12T19:22:25Z</time>
      </trkpt>
      <trkpt lat="43.18837" lon="0.03579">
        <ele>358.2</ele>
        <time>2020-09-12T19:22:26Z</time>
      </trkpt>
      <trkpt lat="43.18839" lon="0.03574">
        <ele>358.4</ele>
        <time>2020-09-12T19:22:27Z</time>
      </trkpt>
      <trkpt lat="43.1884" lon="0.03569">
        <ele>358.5</ele>
        <time>2020-09-12T19:22:28Z</time>
      </trkpt>
      <trkpt lat="43.18841" lon="0.03565">
        <ele>358.6</ele>
        <time>2020-09-12T19:22:29Z</time>
      </trkpt>
      <trkpt lat="43.18841" lon="0.0356">
        <ele>358.7</ele>
        <time>2020-09-12T19:22:30Z</time>
      </trkpt>
      <trkpt lat="43.1884" lon="0.03555">
        <ele>358.8</ele>
        <time>2020-09-12T19:22:31Z</time>
      </trkpt>
      <trkpt lat="43.18839" lon="0.0355">
        <ele>358.9</ele>
        <time>2020-09-12T19:22:32Z</time>
      </trkpt>
      <trkpt lat="43.18838" lon="0.03546">
        <ele>359</ele>
        <time>2020-09-12T19:22:33Z</time>
      </trkpt>
      <trkpt lat="43.18837" lon="0.03542">
        <ele>359.1</ele>
        <time>2020-09-12T19:22:34Z</time>
      </trkpt>
      <trkpt lat="43.18836" lon="0.03538">
        <ele>359.2</ele>
        <time>2020-09-12T19:22:35Z</time>
      </trkpt>
      <trkpt lat="43.18836" lon="0.03534">
        <ele>359.3</ele>
        <time>2020-09-12T19:22:36Z</time>
      </trkpt>
      <trkpt lat="43.18835" lon="0.0353">
        <ele>359.5</ele>
        <time>2020-09-12T19:22:37Z</time>
      </trkpt>
      <trkpt lat="43.18835" lon="0.03526">
        <ele>359.7</ele>
        <time>2020-09-12T19:22:38Z</time>
      </trkpt>
      <trkpt lat="43.18835" lon="0.03523">
        <ele>359.9</ele>
        <time>2020-09-12T19:22:39Z</time>
      </trkpt>
      <trkpt lat="43.18834" lon="0.03519">
        <ele>360.1</ele>
        <time>2020-09-12T19:22:40Z</time>
      </trkpt>
      <trkpt lat="43.18834" lon="0.03514">
        <ele>360.3</ele>
        <time>2020-09-12T19:22:41Z</time>
      </trkpt>
      <trkpt lat="43.18834" lon="0.03508">
        <ele>360.6</ele>
        <time>2020-09-12T19:22:42Z</time>
      </trkpt>
      <trkpt lat="43.18834" lon="0.03504">
        <ele>360.8</ele>
        <time>2020-09-12T19:22:43Z</time>
      </trkpt>
      <trkpt lat="43.18834" lon="0.03499">
        <ele>361</ele>
        <time>2020-09-12T19:22:44Z</time>
      </trkpt>
      <trkpt lat="43.18833" lon="0.03496">
        <ele>361.2</ele>
        <time>2020-09-12T19:22:45Z</time>
      </trkpt>
      <trkpt lat="43.18832" lon="0.03492">
        <ele>361.4</ele>
        <time>2020-09-12T19:22:46Z</time>
      </trkpt>
      <trkpt lat="43.1883" lon="0.03489">
        <ele>361.6</ele>
        <time>2020-09-12T19:22:47Z</time>
      </trkpt>
      <trkpt lat="43.18828" lon="0.03486">
        <ele>361.8</ele>
        <time>2020-09-12T19:22:48Z</time>
      </trkpt>
      <trkpt lat="43.18827" lon="0.03483">
        <ele>362</ele>
        <time>2020-09-12T19:22:49Z</time>
      </trkpt>
      <trkpt lat="43.18823" lon="0.03478">
        <ele>362.4</ele>
        <time>2020-09-12T19:22:51Z</time>
      </trkpt>
      <trkpt lat="43.18821" lon="0.03475">
        <ele>362.6</ele>
        <time>2020-09-12T19:22:52Z</time>
      </trkpt>
      <trkpt lat="43.18819" lon="0.03472">
        <ele>362.8</ele>
        <time>2020-09-12T19:22:53Z</time>
      </trkpt>
      <trkpt lat="43.18817" lon="0.03466">
        <ele>363.2</ele>
        <time>2020-09-12T19:22:55Z</time>
      </trkpt>
      <trkpt lat="43.18817" lon="0.03459">
        <ele>363.1</ele>
        <time>2020-09-12T19:22:57Z</time>
      </trkpt>
      <trkpt lat="43.1882" lon="0.03455">
        <ele>363</ele>
        <time>2020-09-12T19:22:58Z</time>
      </trkpt>
      <trkpt lat="43.18822" lon="0.03452">
        <ele>362.9</ele>
        <time>2020-09-12T19:22:59Z</time>
      </trkpt>
      <trkpt lat="43.18825" lon="0.03448">
        <ele>362.9</ele>
        <time>2020-09-12T19:23:00Z</time>
      </trkpt>
      <trkpt lat="43.1883" lon="0.03445">
        <ele>362.8</ele>
        <time>2020-09-12T19:23:01Z</time>
      </trkpt>
      <trkpt lat="43.18833" lon="0.03442">
        <ele>362.7</ele>
        <time>2020-09-12T19:23:02Z</time>
      </trkpt>
      <trkpt lat="43.18835" lon="0.03438">
        <ele>362.8</ele>
        <time>2020-09-12T19:23:03Z</time>
      </trkpt>
      <trkpt lat="43.18835" lon="0.03434">
        <ele>362.9</ele>
        <time>2020-09-12T19:23:04Z</time>
      </trkpt>
      <trkpt lat="43.18836" lon="0.03428">
        <ele>363</ele>
        <time>2020-09-12T19:23:05Z</time>
      </trkpt>
      <trkpt lat="43.18838" lon="0.03423">
        <ele>363</ele>
        <time>2020-09-12T19:23:06Z</time>
      </trkpt>
      <trkpt lat="43.1884" lon="0.03418">
        <ele>363.1</ele>
        <time>2020-09-12T19:23:07Z</time>
      </trkpt>
      <trkpt lat="43.18842" lon="0.03413">
        <ele>363.2</ele>
        <time>2020-09-12T19:23:08Z</time>
      </trkpt>
      <trkpt lat="43.18843" lon="0.03408">
        <ele>365</ele>
        <time>2020-09-12T19:23:09Z</time>
      </trkpt>
      <trkpt lat="43.18844" lon="0.03403">
        <ele>365.2</ele>
        <time>2020-09-12T19:23:10Z</time>
      </trkpt>
      <trkpt lat="43.18843" lon="0.03398">
        <ele>365.3</ele>
        <time>2020-09-12T19:23:11Z</time>
      </trkpt>
      <trkpt lat="43.18843" lon="0.03394">
        <ele>365.5</ele>
        <time>2020-09-12T19:23:12Z</time>
      </trkpt>
      <trkpt lat="43.1884" lon="0.03388">
        <ele>366.1</ele>
        <time>2020-09-12T19:23:14Z</time>
      </trkpt>
      <trkpt lat="43.18838" lon="0.03386">
        <ele>366.3</ele>
        <time>2020-09-12T19:23:15Z</time>
      </trkpt>
      <trkpt lat="43.18836" lon="0.03382">
        <ele>367</ele>
        <time>2020-09-12T19:23:16Z</time>
      </trkpt>
      <trkpt lat="43.18833" lon="0.03377">
        <ele>367.7</ele>
        <time>2020-09-12T19:23:18Z</time>
      </trkpt>
      <trkpt lat="43.1883" lon="0.03376">
        <ele>368.2</ele>
        <time>2020-09-12T19:23:21Z</time>
      </trkpt>
      <trkpt lat="43.18827" lon="0.03375">
        <ele>368.7</ele>
        <time>2020-09-12T19:23:23Z</time>
      </trkpt>
      <trkpt lat="43.18824" lon="0.03371">
        <ele>369.3</ele>
        <time>2020-09-12T19:23:25Z</time>
      </trkpt>
      <trkpt lat="43.1882" lon="0.03367">
        <ele>369.9</ele>
        <time>2020-09-12T19:23:27Z</time>
      </trkpt>
      <trkpt lat="43.18818" lon="0.03365">
        <ele>370.4</ele>
        <time>2020-09-12T19:23:28Z</time>
      </trkpt>
      <trkpt lat="43.18814" lon="0.03358">
        <ele>371.1</ele>
        <time>2020-09-12T19:23:30Z</time>
      </trkpt>
      <trkpt lat="43.18812" lon="0.03351">
        <ele>371.9</ele>
        <time>2020-09-12T19:23:32Z</time>
      </trkpt>
      <trkpt lat="43.18812" lon="0.03347">
        <ele>372.1</ele>
        <time>2020-09-12T19:23:33Z</time>
      </trkpt>
      <trkpt lat="43.18812" lon="0.03343">
        <ele>372.3</ele>
        <time>2020-09-12T19:23:34Z</time>
      </trkpt>
      <trkpt lat="43.18813" lon="0.03339">
        <ele>371.9</ele>
        <time>2020-09-12T19:23:35Z</time>
      </trkpt>
      <trkpt lat="43.18814" lon="0.03334">
        <ele>372.1</ele>
        <time>2020-09-12T19:23:36Z</time>
      </trkpt>
      <trkpt lat="43.18813" lon="0.03329">
        <ele>372.3</ele>
        <time>2020-09-12T19:23:37Z</time>
      </trkpt>
      <trkpt lat="43.18812" lon="0.03325">
        <ele>373.1</ele>
        <time>2020-09-12T19:23:38Z</time>
      </trkpt>
      <trkpt lat="43.18808" lon="0.03321">
        <ele>374</ele>
        <time>2020-09-12T19:23:40Z</time>
      </trkpt>
      <trkpt lat="43.18805" lon="0.03319">
        <ele>374.6</ele>
        <time>2020-09-12T19:23:42Z</time>
      </trkpt>
      <trkpt lat="43.18803" lon="0.03317">
        <ele>375.4</ele>
        <time>2020-09-12T19:23:44Z</time>
      </trkpt>
      <trkpt lat="43.188" lon="0.03315">
        <ele>376.1</ele>
        <time>2020-09-12T19:23:47Z</time>
      </trkpt>
      <trkpt lat="43.18793" lon="0.03318">
        <ele>377</ele>
        <time>2020-09-12T19:23:49Z</time>
      </trkpt>
      <trkpt lat="43.1879" lon="0.03321">
        <ele>377.5</ele>
        <time>2020-09-12T19:23:50Z</time>
      </trkpt>
      <trkpt lat="43.18787" lon="0.03322">
        <ele>377.9</ele>
        <time>2020-09-12T19:23:51Z</time>
      </trkpt>
      <trkpt lat="43.18783" lon="0.03324">
        <ele>378.4</ele>
        <time>2020-09-12T19:23:52Z</time>
      </trkpt>
      <trkpt lat="43.1878" lon="0.03325">
        <ele>379</ele>
        <time>2020-09-12T19:23:53Z</time>
      </trkpt>
      <trkpt lat="43.18776" lon="0.03326">
        <ele>379.5</ele>
        <time>2020-09-12T19:23:54Z</time>
      </trkpt>
      <trkpt lat="43.18773" lon="0.03327">
        <ele>379.8</ele>
        <time>2020-09-12T19:23:55Z</time>
      </trkpt>
      <trkpt lat="43.18769" lon="0.03325">
        <ele>380.5</ele>
        <time>2020-09-12T19:23:57Z</time>
      </trkpt>
      <trkpt lat="43.18765" lon="0.03322">
        <ele>381.4</ele>
        <time>2020-09-12T19:23:59Z</time>
      </trkpt>
      <trkpt lat="43.18761" lon="0.03322">
        <ele>381.8</ele>
        <time>2020-09-12T19:24:01Z</time>
      </trkpt>
      <trkpt lat="43.18758" lon="0.03323">
        <ele>382.3</ele>
        <time>2020-09-12T19:24:02Z</time>
      </trkpt>
      <trkpt lat="43.18754" lon="0.03323">
        <ele>382.8</ele>
        <time>2020-09-12T19:24:03Z</time>
      </trkpt>
      <trkpt lat="43.18751" lon="0.03323">
        <ele>383.2</ele>
        <time>2020-09-12T19:24:04Z</time>
      </trkpt>
      <trkpt lat="43.18748" lon="0.03323">
        <ele>383.7</ele>
        <time>2020-09-12T19:24:05Z</time>
      </trkpt>
      <trkpt lat="43.1874" lon="0.03322">
        <ele>385.3</ele>
        <time>2020-09-12T19:24:07Z</time>
      </trkpt>
      <trkpt lat="43.18734" lon="0.03321">
        <ele>386.2</ele>
        <time>2020-09-12T19:24:08Z</time>
      </trkpt>
      <trkpt lat="43.18729" lon="0.03322">
        <ele>386.3</ele>
        <time>2020-09-12T19:24:09Z</time>
      </trkpt>
      <trkpt lat="43.18725" lon="0.03323">
        <ele>387.1</ele>
        <time>2020-09-12T19:24:10Z</time>
      </trkpt>
      <trkpt lat="43.1872" lon="0.03325">
        <ele>387.5</ele>
        <time>2020-09-12T19:24:11Z</time>
      </trkpt>
      <trkpt lat="43.18716" lon="0.03329">
        <ele>387.6</ele>
        <time>2020-09-12T19:24:12Z</time>
      </trkpt>
      <trkpt lat="43.18712" lon="0.03332">
        <ele>387.9</ele>
        <time>2020-09-12T19:24:13Z</time>
      </trkpt>
      <trkpt lat="43.1871" lon="0.03336">
        <ele>387.5</ele>
        <time>2020-09-12T19:24:14Z</time>
      </trkpt>
      <trkpt lat="43.18708" lon="0.03339">
        <ele>387.4</ele>
        <time>2020-09-12T19:24:15Z</time>
      </trkpt>
      <trkpt lat="43.18707" lon="0.03344">
        <ele>387</ele>
        <time>2020-09-12T19:24:16Z</time>
      </trkpt>
      <trkpt lat="43.18705" lon="0.03348">
        <ele>386.9</ele>
        <time>2020-09-12T19:24:17Z</time>
      </trkpt>
      <trkpt lat="43.18703" lon="0.03355">
        <ele>386.6</ele>
        <time>2020-09-12T19:24:19Z</time>
      </trkpt>
      <trkpt lat="43.18702" lon="0.0336">
        <ele>385.7</ele>
        <time>2020-09-12T19:24:21Z</time>
      </trkpt>
      <trkpt lat="43.18699" lon="0.03363">
        <ele>385.9</ele>
        <time>2020-09-12T19:24:23Z</time>
      </trkpt>
      <trkpt lat="43.18695" lon="0.03369">
        <ele>385.2</ele>
        <time>2020-09-12T19:24:25Z</time>
      </trkpt>
      <trkpt lat="43.18694" lon="0.03377">
        <ele>384.8</ele>
        <time>2020-09-12T19:24:26Z</time>
      </trkpt>
      <trkpt lat="43.18695" lon="0.03385">
        <ele>384.4</ele>
        <time>2020-09-12T19:24:27Z</time>
      </trkpt>
      <trkpt lat="43.18696" lon="0.03394">
        <ele>384.1</ele>
        <time>2020-09-12T19:24:28Z</time>
      </trkpt>
      <trkpt lat="43.18697" lon="0.03403">
        <ele>383.8</ele>
        <time>2020-09-12T19:24:29Z</time>
      </trkpt>
      <trkpt lat="43.18698" lon="0.03411">
        <ele>383.4</ele>
        <time>2020-09-12T19:24:30Z</time>
      </trkpt>
      <trkpt lat="43.18698" lon="0.0342">
        <ele>382.9</ele>
        <time>2020-09-12T19:24:31Z</time>
      </trkpt>
      <trkpt lat="43.18697" lon="0.03427">
        <ele>382.5</ele>
        <time>2020-09-12T19:24:32Z</time>
      </trkpt>
      <trkpt lat="43.18694" lon="0.03431">
        <ele>382.1</ele>
        <time>2020-09-12T19:24:33Z</time>
      </trkpt>
      <trkpt lat="43.18692" lon="0.03435">
        <ele>381.7</ele>
        <time>2020-09-12T19:24:34Z</time>
      </trkpt>
      <trkpt lat="43.18691" lon="0.03441">
        <ele>381.2</ele>
        <time>2020-09-12T19:24:35Z</time>
      </trkpt>
      <trkpt lat="43.18689" lon="0.03448">
        <ele>380.6</ele>
        <time>2020-09-12T19:24:36Z</time>
      </trkpt>
      <trkpt lat="43.18689" lon="0.03453">
        <ele>380.1</ele>
        <time>2020-09-12T19:24:37Z</time>
      </trkpt>
      <trkpt lat="43.18687" lon="0.03457">
        <ele>379.6</ele>
        <time>2020-09-12T19:24:38Z</time>
      </trkpt>
      <trkpt lat="43.18685" lon="0.03461">
        <ele>379</ele>
        <time>2020-09-12T19:24:39Z</time>
      </trkpt>
      <trkpt lat="43.18683" lon="0.03465">
        <ele>378.5</ele>
        <time>2020-09-12T19:24:40Z</time>
      </trkpt>
      <trkpt lat="43.18681" lon="0.0347">
        <ele>377.9</ele>
        <time>2020-09-12T19:24:41Z</time>
      </trkpt>
      <trkpt lat="43.1868" lon="0.03475">
        <ele>377.4</ele>
        <time>2020-09-12T19:24:42Z</time>
      </trkpt>
      <trkpt lat="43.18677" lon="0.03473">
        <ele>377</ele>
        <time>2020-09-12T19:24:47Z</time>
      </trkpt>
      <trkpt lat="43.18675" lon="0.0347">
        <ele>376.6</ele>
        <time>2020-09-12T19:24:48Z</time>
      </trkpt>
      <trkpt lat="43.18672" lon="0.03466">
        <ele>376</ele>
        <time>2020-09-12T19:24:49Z</time>
      </trkpt>
      <trkpt lat="43.18667" lon="0.03463">
        <ele>375.1</ele>
        <time>2020-09-12T19:24:50Z</time>
      </trkpt>
      <trkpt lat="43.18661" lon="0.03459">
        <ele>375.3</ele>
        <time>2020-09-12T19:24:51Z</time>
      </trkpt>
      <trkpt lat="43.18658" lon="0.03457">
        <ele>375.4</ele>
        <time>2020-09-12T19:24:52Z</time>
      </trkpt>
      <trkpt lat="43.18653" lon="0.03455">
        <ele>375.6</ele>
        <time>2020-09-12T19:24:53Z</time>
      </trkpt>
      <trkpt lat="43.1865" lon="0.03454">
        <ele>375.7</ele>
        <time>2020-09-12T19:24:54Z</time>
      </trkpt>
      <trkpt lat="43.18644" lon="0.03452">
        <ele>376</ele>
        <time>2020-09-12T19:24:55Z</time>
      </trkpt>
      <trkpt lat="43.18639" lon="0.03447">
        <ele>376.2</ele>
        <time>2020-09-12T19:24:56Z</time>
      </trkpt>
      <trkpt lat="43.18634" lon="0.03443">
        <ele>376.5</ele>
        <time>2020-09-12T19:24:57Z</time>
      </trkpt>
      <trkpt lat="43.18629" lon="0.0344">
        <ele>376.7</ele>
        <time>2020-09-12T19:24:58Z</time>
      </trkpt>
      <trkpt lat="43.18624" lon="0.03438">
        <ele>377</ele>
        <time>2020-09-12T19:24:59Z</time>
      </trkpt>
      <trkpt lat="43.18619" lon="0.03438">
        <ele>377.3</ele>
        <time>2020-09-12T19:25:00Z</time>
      </trkpt>
      <trkpt lat="43.18615" lon="0.03436">
        <ele>377.6</ele>
        <time>2020-09-12T19:25:01Z</time>
      </trkpt>
      <trkpt lat="43.18612" lon="0.03434">
        <ele>377.8</ele>
        <time>2020-09-12T19:25:02Z</time>
      </trkpt>
      <trkpt lat="43.18609" lon="0.03432">
        <ele>377.9</ele>
        <time>2020-09-12T19:25:03Z</time>
      </trkpt>
      <trkpt lat="43.18607" lon="0.03429">
        <ele>378.1</ele>
        <time>2020-09-12T19:25:04Z</time>
      </trkpt>
      <trkpt lat="43.18603" lon="0.03427">
        <ele>378.3</ele>
        <time>2020-09-12T19:25:05Z</time>
      </trkpt>
      <trkpt lat="43.18599" lon="0.03424">
        <ele>378.5</ele>
        <time>2020-09-12T19:25:06Z</time>
      </trkpt>
      <trkpt lat="43.18596" lon="0.03421">
        <ele>378.9</ele>
        <time>2020-09-12T19:25:07Z</time>
      </trkpt>
      <trkpt lat="43.18593" lon="0.03418">
        <ele>379.2</ele>
        <time>2020-09-12T19:25:08Z</time>
      </trkpt>
      <trkpt lat="43.18589" lon="0.03416">
        <ele>379.4</ele>
        <time>2020-09-12T19:25:09Z</time>
      </trkpt>
      <trkpt lat="43.18584" lon="0.03415">
        <ele>379.7</ele>
        <time>2020-09-12T19:25:10Z</time>
      </trkpt>
      <trkpt lat="43.1858" lon="0.03413">
        <ele>379.9</ele>
        <time>2020-09-12T19:25:11Z</time>
      </trkpt>
      <trkpt lat="43.18577" lon="0.03411">
        <ele>380.1</ele>
        <time>2020-09-12T19:25:12Z</time>
      </trkpt>
      <trkpt lat="43.18572" lon="0.03406">
        <ele>380.4</ele>
        <time>2020-09-12T19:25:13Z</time>
      </trkpt>
      <trkpt lat="43.18568" lon="0.03404">
        <ele>380.6</ele>
        <time>2020-09-12T19:25:14Z</time>
      </trkpt>
      <trkpt lat="43.18564" lon="0.03402">
        <ele>381</ele>
        <time>2020-09-12T19:25:15Z</time>
      </trkpt>
      <trkpt lat="43.18562" lon="0.034">
        <ele>381.4</ele>
        <time>2020-09-12T19:25:16Z</time>
      </trkpt>
      <trkpt lat="43.18559" lon="0.03396">
        <ele>381.8</ele>
        <time>2020-09-12T19:25:18Z</time>
      </trkpt>
      <trkpt lat="43.18556" lon="0.03391">
        <ele>382.1</ele>
        <time>2020-09-12T19:25:20Z</time>
      </trkpt>
      <trkpt lat="43.18554" lon="0.03385">
        <ele>382.5</ele>
        <time>2020-09-12T19:25:23Z</time>
      </trkpt>
      <trkpt lat="43.1855" lon="0.03383">
        <ele>382.7</ele>
        <time>2020-09-12T19:25:24Z</time>
      </trkpt>
      <trkpt lat="43.18547" lon="0.03381">
        <ele>382.9</ele>
        <time>2020-09-12T19:25:25Z</time>
      </trkpt>
      <trkpt lat="43.18543" lon="0.03381">
        <ele>383</ele>
        <time>2020-09-12T19:25:26Z</time>
      </trkpt>
      <trkpt lat="43.18539" lon="0.03379">
        <ele>383.1</ele>
        <time>2020-09-12T19:25:27Z</time>
      </trkpt>
      <trkpt lat="43.18536" lon="0.03375">
        <ele>383.3</ele>
        <time>2020-09-12T19:25:28Z</time>
      </trkpt>
      <trkpt lat="43.18532" lon="0.03372">
        <ele>383.4</ele>
        <time>2020-09-12T19:25:29Z</time>
      </trkpt>
      <trkpt lat="43.1853" lon="0.0337">
        <ele>383.5</ele>
        <time>2020-09-12T19:25:30Z</time>
      </trkpt>
      <trkpt lat="43.18527" lon="0.03367">
        <ele>383.6</ele>
        <time>2020-09-12T19:25:31Z</time>
      </trkpt>
      <trkpt lat="43.18524" lon="0.03365">
        <ele>383.8</ele>
        <time>2020-09-12T19:25:33Z</time>
      </trkpt>
      <trkpt lat="43.1852" lon="0.03366">
        <ele>384</ele>
        <time>2020-09-12T19:25:35Z</time>
      </trkpt>
      <trkpt lat="43.18516" lon="0.03365">
        <ele>384.2</ele>
        <time>2020-09-12T19:25:37Z</time>
      </trkpt>
      <trkpt lat="43.18512" lon="0.03364">
        <ele>384.4</ele>
        <time>2020-09-12T19:25:38Z</time>
      </trkpt>
      <trkpt lat="43.18509" lon="0.03361">
        <ele>384.7</ele>
        <time>2020-09-12T19:25:39Z</time>
      </trkpt>
      <trkpt lat="43.18507" lon="0.03359">
        <ele>384.9</ele>
        <time>2020-09-12T19:25:40Z</time>
      </trkpt>
      <trkpt lat="43.18506" lon="0.03355">
        <ele>385.1</ele>
        <time>2020-09-12T19:25:41Z</time>
      </trkpt>
      <trkpt lat="43.18505" lon="0.03352">
        <ele>385.4</ele>
        <time>2020-09-12T19:25:42Z</time>
      </trkpt>
      <trkpt lat="43.18503" lon="0.03348">
        <ele>385.9</ele>
        <time>2020-09-12T19:25:44Z</time>
      </trkpt>
      <trkpt lat="43.18503" lon="0.03344">
        <ele>386.1</ele>
        <time>2020-09-12T19:25:46Z</time>
      </trkpt>
      <trkpt lat="43.18502" lon="0.03339">
        <ele>386.3</ele>
        <time>2020-09-12T19:25:48Z</time>
      </trkpt>
      <trkpt lat="43.18502" lon="0.03334">
        <ele>386.5</ele>
        <time>2020-09-12T19:25:50Z</time>
      </trkpt>
      <trkpt lat="43.18505" lon="0.03329">
        <ele>386.8</ele>
        <time>2020-09-12T19:25:52Z</time>
      </trkpt>
      <trkpt lat="43.18508" lon="0.03324">
        <ele>387.1</ele>
        <time>2020-09-12T19:25:56Z</time>
      </trkpt>
      <trkpt lat="43.18508" lon="0.03319">
        <ele>387.2</ele>
        <time>2020-09-12T19:25:58Z</time>
      </trkpt>
      <trkpt lat="43.18508" lon="0.03316">
        <ele>387.3</ele>
        <time>2020-09-12T19:26:01Z</time>
      </trkpt>
      <trkpt lat="43.1851" lon="0.03311">
        <ele>387.5</ele>
        <time>2020-09-12T19:26:04Z</time>
      </trkpt>
      <trkpt lat="43.18512" lon="0.03306">
        <ele>387.7</ele>
        <time>2020-09-12T19:26:07Z</time>
      </trkpt>
      <trkpt lat="43.18512" lon="0.03302">
        <ele>387.8</ele>
        <time>2020-09-12T19:26:09Z</time>
      </trkpt>
      <trkpt lat="43.18513" lon="0.03296">
        <ele>388</ele>
        <time>2020-09-12T19:26:11Z</time>
      </trkpt>
      <trkpt lat="43.18513" lon="0.03291">
        <ele>388.2</ele>
        <time>2020-09-12T19:26:12Z</time>
      </trkpt>
      <trkpt lat="43.18513" lon="0.03288">
        <ele>388.4</ele>
        <time>2020-09-12T19:26:13Z</time>
      </trkpt>
      <trkpt lat="43.18512" lon="0.03282">
        <ele>388.6</ele>
        <time>2020-09-12T19:26:14Z</time>
      </trkpt>
      <trkpt lat="43.18512" lon="0.03277">
        <ele>388.9</ele>
        <time>2020-09-12T19:26:15Z</time>
      </trkpt>
      <trkpt lat="43.18512" lon="0.03273">
        <ele>389.1</ele>
        <time>2020-09-12T19:26:16Z</time>
      </trkpt>
      <trkpt lat="43.18514" lon="0.03267">
        <ele>389.3</ele>
        <time>2020-09-12T19:26:18Z</time>
      </trkpt>
      <trkpt lat="43.18515" lon="0.0326">
        <ele>389.7</ele>
        <time>2020-09-12T19:26:20Z</time>
      </trkpt>
      <trkpt lat="43.18516" lon="0.03254">
        <ele>390.1</ele>
        <time>2020-09-12T19:26:22Z</time>
      </trkpt>
      <trkpt lat="43.18517" lon="0.03249">
        <ele>390.5</ele>
        <time>2020-09-12T19:26:24Z</time>
      </trkpt>
      <trkpt lat="43.18517" lon="0.03243">
        <ele>391</ele>
        <time>2020-09-12T19:26:26Z</time>
      </trkpt>
      <trkpt lat="43.18516" lon="0.03239">
        <ele>391.4</ele>
        <time>2020-09-12T19:26:27Z</time>
      </trkpt>
      <trkpt lat="43.18516" lon="0.03236">
        <ele>391.8</ele>
        <time>2020-09-12T19:26:28Z</time>
      </trkpt>
      <trkpt lat="43.18516" lon="0.03231">
        <ele>392.2</ele>
        <time>2020-09-12T19:26:30Z</time>
      </trkpt>
      <trkpt lat="43.18515" lon="0.03224">
        <ele>392.8</ele>
        <time>2020-09-12T19:26:32Z</time>
      </trkpt>
      <trkpt lat="43.18516" lon="0.03217">
        <ele>393.5</ele>
        <time>2020-09-12T19:26:34Z</time>
      </trkpt>
      <trkpt lat="43.18516" lon="0.03211">
        <ele>394.1</ele>
        <time>2020-09-12T19:26:36Z</time>
      </trkpt>
      <trkpt lat="43.18516" lon="0.03207">
        <ele>394.7</ele>
        <time>2020-09-12T19:26:38Z</time>
      </trkpt>
      <trkpt lat="43.18516" lon="0.03202">
        <ele>395.3</ele>
        <time>2020-09-12T19:26:40Z</time>
      </trkpt>
      <trkpt lat="43.18518" lon="0.03197">
        <ele>396.1</ele>
        <time>2020-09-12T19:26:42Z</time>
      </trkpt>
      <trkpt lat="43.18519" lon="0.03192">
        <ele>396.9</ele>
        <time>2020-09-12T19:26:44Z</time>
      </trkpt>
      <trkpt lat="43.18521" lon="0.03187">
        <ele>397.6</ele>
        <time>2020-09-12T19:26:46Z</time>
      </trkpt>
      <trkpt lat="43.18524" lon="0.03183">
        <ele>398.2</ele>
        <time>2020-09-12T19:26:48Z</time>
      </trkpt>
      <trkpt lat="43.18527" lon="0.03179">
        <ele>398.8</ele>
        <time>2020-09-12T19:26:50Z</time>
      </trkpt>
      <trkpt lat="43.1853" lon="0.03172">
        <ele>399.7</ele>
        <time>2020-09-12T19:26:52Z</time>
      </trkpt>
      <trkpt lat="43.18534" lon="0.03168">
        <ele>400.4</ele>
        <time>2020-09-12T19:26:54Z</time>
      </trkpt>
      <trkpt lat="43.18539" lon="0.03165">
        <ele>400.5</ele>
        <time>2020-09-12T19:26:56Z</time>
      </trkpt>
      <trkpt lat="43.18542" lon="0.03162">
        <ele>400.5</ele>
        <time>2020-09-12T19:26:57Z</time>
      </trkpt>
      <trkpt lat="43.18546" lon="0.0316">
        <ele>400.5</ele>
        <time>2020-09-12T19:26:58Z</time>
      </trkpt>
      <trkpt lat="43.1855" lon="0.0316">
        <ele>400.4</ele>
        <time>2020-09-12T19:26:59Z</time>
      </trkpt>
      <trkpt lat="43.18554" lon="0.03159">
        <ele>400.4</ele>
        <time>2020-09-12T19:27:00Z</time>
      </trkpt>
      <trkpt lat="43.18557" lon="0.03159">
        <ele>400.3</ele>
        <time>2020-09-12T19:27:01Z</time>
      </trkpt>
      <trkpt lat="43.18561" lon="0.03159">
        <ele>400.2</ele>
        <time>2020-09-12T19:27:02Z</time>
      </trkpt>
      <trkpt lat="43.18564" lon="0.0316">
        <ele>400.1</ele>
        <time>2020-09-12T19:27:03Z</time>
      </trkpt>
      <trkpt lat="43.18569" lon="0.03165">
        <ele>399.9</ele>
        <time>2020-09-12T19:27:05Z</time>
      </trkpt>
      <trkpt lat="43.18572" lon="0.03168">
        <ele>399.8</ele>
        <time>2020-09-12T19:27:06Z</time>
      </trkpt>
      <trkpt lat="43.18574" lon="0.03172">
        <ele>399.7</ele>
        <time>2020-09-12T19:27:07Z</time>
      </trkpt>
      <trkpt lat="43.18577" lon="0.03176">
        <ele>399.6</ele>
        <time>2020-09-12T19:27:08Z</time>
      </trkpt>
      <trkpt lat="43.18579" lon="0.03179">
        <ele>399.5</ele>
        <time>2020-09-12T19:27:09Z</time>
      </trkpt>
      <trkpt lat="43.18581" lon="0.03182">
        <ele>399.4</ele>
        <time>2020-09-12T19:27:10Z</time>
      </trkpt>
      <trkpt lat="43.18584" lon="0.03185">
        <ele>399.3</ele>
        <time>2020-09-12T19:27:11Z</time>
      </trkpt>
      <trkpt lat="43.18586" lon="0.03188">
        <ele>399.3</ele>
        <time>2020-09-12T19:27:12Z</time>
      </trkpt>
      <trkpt lat="43.18589" lon="0.03191">
        <ele>399.2</ele>
        <time>2020-09-12T19:27:13Z</time>
      </trkpt>
      <trkpt lat="43.18592" lon="0.03194">
        <ele>399.2</ele>
        <time>2020-09-12T19:27:14Z</time>
      </trkpt>
      <trkpt lat="43.18594" lon="0.03196">
        <ele>399.2</ele>
        <time>2020-09-12T19:27:15Z</time>
      </trkpt>
      <trkpt lat="43.18597" lon="0.03199">
        <ele>399.2</ele>
        <time>2020-09-12T19:27:16Z</time>
      </trkpt>
      <trkpt lat="43.186" lon="0.03202">
        <ele>399.2</ele>
        <time>2020-09-12T19:27:17Z</time>
      </trkpt>
      <trkpt lat="43.18603" lon="0.03205">
        <ele>399.2</ele>
        <time>2020-09-12T19:27:18Z</time>
      </trkpt>
      <trkpt lat="43.18606" lon="0.03207">
        <ele>399.2</ele>
        <time>2020-09-12T19:27:19Z</time>
      </trkpt>
      <trkpt lat="43.18608" lon="0.0321">
        <ele>399.2</ele>
        <time>2020-09-12T19:27:20Z</time>
      </trkpt>
      <trkpt lat="43.18611" lon="0.03212">
        <ele>399.1</ele>
        <time>2020-09-12T19:27:21Z</time>
      </trkpt>
      <trkpt lat="43.18614" lon="0.03214">
        <ele>399.1</ele>
        <time>2020-09-12T19:27:22Z</time>
      </trkpt>
      <trkpt lat="43.18616" lon="0.03216">
        <ele>399</ele>
        <time>2020-09-12T19:27:23Z</time>
      </trkpt>
      <trkpt lat="43.1862" lon="0.03216">
        <ele>398.9</ele>
        <time>2020-09-12T19:27:24Z</time>
      </trkpt>
      <trkpt lat="43.18624" lon="0.03216">
        <ele>398.8</ele>
        <time>2020-09-12T19:27:25Z</time>
      </trkpt>
      <trkpt lat="43.18627" lon="0.03215">
        <ele>398.7</ele>
        <time>2020-09-12T19:27:26Z</time>
      </trkpt>
      <trkpt lat="43.1863" lon="0.03215">
        <ele>398.6</ele>
        <time>2020-09-12T19:27:27Z</time>
      </trkpt>
      <trkpt lat="43.18633" lon="0.03215">
        <ele>398.4</ele>
        <time>2020-09-12T19:27:28Z</time>
      </trkpt>
      <trkpt lat="43.18636" lon="0.03214">
        <ele>398.3</ele>
        <time>2020-09-12T19:27:29Z</time>
      </trkpt>
      <trkpt lat="43.18639" lon="0.03213">
        <ele>398.1</ele>
        <time>2020-09-12T19:27:30Z</time>
      </trkpt>
      <trkpt lat="43.18642" lon="0.0321">
        <ele>398</ele>
        <time>2020-09-12T19:27:31Z</time>
      </trkpt>
      <trkpt lat="43.18645" lon="0.03207">
        <ele>397.8</ele>
        <time>2020-09-12T19:27:32Z</time>
      </trkpt>
      <trkpt lat="43.18649" lon="0.03204">
        <ele>397.6</ele>
        <time>2020-09-12T19:27:33Z</time>
      </trkpt>
      <trkpt lat="43.18652" lon="0.03201">
        <ele>397.4</ele>
        <time>2020-09-12T19:27:34Z</time>
      </trkpt>
      <trkpt lat="43.18655" lon="0.03199">
        <ele>397.2</ele>
        <time>2020-09-12T19:27:35Z</time>
      </trkpt>
      <trkpt lat="43.1866" lon="0.03197">
        <ele>397.2</ele>
        <time>2020-09-12T19:27:36Z</time>
      </trkpt>
      <trkpt lat="43.18663" lon="0.03195">
        <ele>397.2</ele>
        <time>2020-09-12T19:27:37Z</time>
      </trkpt>
      <trkpt lat="43.18667" lon="0.03192">
        <ele>397.2</ele>
        <time>2020-09-12T19:27:38Z</time>
      </trkpt>
      <trkpt lat="43.1867" lon="0.03189">
        <ele>397.2</ele>
        <time>2020-09-12T19:27:39Z</time>
      </trkpt>
      <trkpt lat="43.18673" lon="0.03187">
        <ele>397.3</ele>
        <time>2020-09-12T19:27:40Z</time>
      </trkpt>
      <trkpt lat="43.18677" lon="0.03184">
        <ele>397</ele>
        <time>2020-09-12T19:27:41Z</time>
      </trkpt>
      <trkpt lat="43.18681" lon="0.03181">
        <ele>396.8</ele>
        <time>2020-09-12T19:27:42Z</time>
      </trkpt>
      <trkpt lat="43.18683" lon="0.03178">
        <ele>396.6</ele>
        <time>2020-09-12T19:27:43Z</time>
      </trkpt>
      <trkpt lat="43.18684" lon="0.03175">
        <ele>396.5</ele>
        <time>2020-09-12T19:27:44Z</time>
      </trkpt>
      <trkpt lat="43.18684" lon="0.03171">
        <ele>396.2</ele>
        <time>2020-09-12T19:27:45Z</time>
      </trkpt>
      <trkpt lat="43.18683" lon="0.03165">
        <ele>396</ele>
        <time>2020-09-12T19:27:48Z</time>
      </trkpt>
      <trkpt lat="43.18682" lon="0.03158">
        <ele>395.7</ele>
        <time>2020-09-12T19:27:50Z</time>
      </trkpt>
      <trkpt lat="43.18681" lon="0.03154">
        <ele>395.6</ele>
        <time>2020-09-12T19:27:51Z</time>
      </trkpt>
      <trkpt lat="43.18679" lon="0.03148">
        <ele>397.7</ele>
        <time>2020-09-12T19:27:53Z</time>
      </trkpt>
      <trkpt lat="43.18678" lon="0.03143">
        <ele>398.3</ele>
        <time>2020-09-12T19:27:55Z</time>
      </trkpt>
      <trkpt lat="43.18677" lon="0.03139">
        <ele>398.9</ele>
        <time>2020-09-12T19:27:56Z</time>
      </trkpt>
      <trkpt lat="43.18676" lon="0.03136">
        <ele>399.4</ele>
        <time>2020-09-12T19:27:57Z</time>
      </trkpt>
      <trkpt lat="43.18673" lon="0.03131">
        <ele>400.2</ele>
        <time>2020-09-12T19:27:58Z</time>
      </trkpt>
      <trkpt lat="43.18671" lon="0.03125">
        <ele>400.9</ele>
        <time>2020-09-12T19:28:00Z</time>
      </trkpt>
      <trkpt lat="43.18669" lon="0.0312">
        <ele>401.3</ele>
        <time>2020-09-12T19:28:02Z</time>
      </trkpt>
      <trkpt lat="43.18667" lon="0.03116">
        <ele>401.6</ele>
        <time>2020-09-12T19:28:04Z</time>
      </trkpt>
      <trkpt lat="43.18665" lon="0.03111">
        <ele>401.9</ele>
        <time>2020-09-12T19:28:06Z</time>
      </trkpt>
      <trkpt lat="43.18663" lon="0.03106">
        <ele>402.3</ele>
        <time>2020-09-12T19:28:08Z</time>
      </trkpt>
      <trkpt lat="43.1866" lon="0.03099">
        <ele>402.8</ele>
        <time>2020-09-12T19:28:10Z</time>
      </trkpt>
      <trkpt lat="43.18659" lon="0.03094">
        <ele>403.2</ele>
        <time>2020-09-12T19:28:12Z</time>
      </trkpt>
      <trkpt lat="43.18657" lon="0.03088">
        <ele>403.6</ele>
        <time>2020-09-12T19:28:14Z</time>
      </trkpt>
      <trkpt lat="43.18655" lon="0.03083">
        <ele>403.8</ele>
        <time>2020-09-12T19:28:16Z</time>
      </trkpt>
      <trkpt lat="43.18652" lon="0.03078">
        <ele>404.1</ele>
        <time>2020-09-12T19:28:18Z</time>
      </trkpt>
      <trkpt lat="43.1865" lon="0.03073">
        <ele>404.1</ele>
        <time>2020-09-12T19:28:20Z</time>
      </trkpt>
      <trkpt lat="43.18648" lon="0.03067">
        <ele>404.1</ele>
        <time>2020-09-12T19:28:22Z</time>
      </trkpt>
      <trkpt lat="43.18647" lon="0.03064">
        <ele>404.1</ele>
        <time>2020-09-12T19:28:23Z</time>
      </trkpt>
      <trkpt lat="43.18645" lon="0.03057">
        <ele>404</ele>
        <time>2020-09-12T19:28:25Z</time>
      </trkpt>
      <trkpt lat="43.18643" lon="0.03053">
        <ele>404</ele>
        <time>2020-09-12T19:28:27Z</time>
      </trkpt>
      <trkpt lat="43.18641" lon="0.03048">
        <ele>404.1</ele>
        <time>2020-09-12T19:28:28Z</time>
      </trkpt>
      <trkpt lat="43.18639" lon="0.03045">
        <ele>404.3</ele>
        <time>2020-09-12T19:28:29Z</time>
      </trkpt>
      <trkpt lat="43.18637" lon="0.03041">
        <ele>404.5</ele>
        <time>2020-09-12T19:28:30Z</time>
      </trkpt>
      <trkpt lat="43.18635" lon="0.03038">
        <ele>404.7</ele>
        <time>2020-09-12T19:28:31Z</time>
      </trkpt>
      <trkpt lat="43.18634" lon="0.03034">
        <ele>405</ele>
        <time>2020-09-12T19:28:32Z</time>
      </trkpt>
      <trkpt lat="43.18632" lon="0.03029">
        <ele>405.3</ele>
        <time>2020-09-12T19:28:33Z</time>
      </trkpt>
      <trkpt lat="43.1863" lon="0.03025">
        <ele>405.6</ele>
        <time>2020-09-12T19:28:34Z</time>
      </trkpt>
      <trkpt lat="43.18629" lon="0.03022">
        <ele>405.9</ele>
        <time>2020-09-12T19:28:35Z</time>
      </trkpt>
      <trkpt lat="43.18626" lon="0.03017">
        <ele>406.4</ele>
        <time>2020-09-12T19:28:37Z</time>
      </trkpt>
      <trkpt lat="43.18624" lon="0.03013">
        <ele>406.7</ele>
        <time>2020-09-12T19:28:39Z</time>
      </trkpt>
      <trkpt lat="43.18623" lon="0.0301">
        <ele>407</ele>
        <time>2020-09-12T19:28:41Z</time>
      </trkpt>
      <trkpt lat="43.18621" lon="0.03006">
        <ele>407.4</ele>
        <time>2020-09-12T19:28:43Z</time>
      </trkpt>
      <trkpt lat="43.18619" lon="0.03001">
        <ele>407.8</ele>
        <time>2020-09-12T19:28:45Z</time>
      </trkpt>
      <trkpt lat="43.18617" lon="0.02997">
        <ele>408.1</ele>
        <time>2020-09-12T19:28:47Z</time>
      </trkpt>
      <trkpt lat="43.18615" lon="0.02993">
        <ele>408.5</ele>
        <time>2020-09-12T19:28:49Z</time>
      </trkpt>
      <trkpt lat="43.18612" lon="0.02989">
        <ele>409</ele>
        <time>2020-09-12T19:28:51Z</time>
      </trkpt>
      <trkpt lat="43.18609" lon="0.02984">
        <ele>409.6</ele>
        <time>2020-09-12T19:28:53Z</time>
      </trkpt>
      <trkpt lat="43.18606" lon="0.02978">
        <ele>410.3</ele>
        <time>2020-09-12T19:28:55Z</time>
      </trkpt>
      <trkpt lat="43.18605" lon="0.02975">
        <ele>410.8</ele>
        <time>2020-09-12T19:28:56Z</time>
      </trkpt>
      <trkpt lat="43.18603" lon="0.02971">
        <ele>411.3</ele>
        <time>2020-09-12T19:28:57Z</time>
      </trkpt>
      <trkpt lat="43.18602" lon="0.02968">
        <ele>411.8</ele>
        <time>2020-09-12T19:28:58Z</time>
      </trkpt>
      <trkpt lat="43.18599" lon="0.02962">
        <ele>412.5</ele>
        <time>2020-09-12T19:29:00Z</time>
      </trkpt>
      <trkpt lat="43.18597" lon="0.02959">
        <ele>412.9</ele>
        <time>2020-09-12T19:29:01Z</time>
      </trkpt>
      <trkpt lat="43.18595" lon="0.02957">
        <ele>413.2</ele>
        <time>2020-09-12T19:29:02Z</time>
      </trkpt>
      <trkpt lat="43.18592" lon="0.02955">
        <ele>413.5</ele>
        <time>2020-09-12T19:29:03Z</time>
      </trkpt>
      <trkpt lat="43.18588" lon="0.02951">
        <ele>414</ele>
        <time>2020-09-12T19:29:05Z</time>
      </trkpt>
      <trkpt lat="43.18585" lon="0.02949">
        <ele>414.5</ele>
        <time>2020-09-12T19:29:07Z</time>
      </trkpt>
      <trkpt lat="43.1858" lon="0.02944">
        <ele>415.3</ele>
        <time>2020-09-12T19:29:09Z</time>
      </trkpt>
      <trkpt lat="43.18578" lon="0.02942">
        <ele>415.6</ele>
        <time>2020-09-12T19:29:10Z</time>
      </trkpt>
      <trkpt lat="43.18574" lon="0.02939">
        <ele>416.3</ele>
        <time>2020-09-12T19:29:12Z</time>
      </trkpt>
      <trkpt lat="43.18571" lon="0.02936">
        <ele>416.8</ele>
        <time>2020-09-12T19:29:14Z</time>
      </trkpt>
      <trkpt lat="43.18567" lon="0.02933">
        <ele>417.5</ele>
        <time>2020-09-12T19:29:16Z</time>
      </trkpt>
      <trkpt lat="43.18563" lon="0.0293">
        <ele>418.3</ele>
        <time>2020-09-12T19:29:18Z</time>
      </trkpt>
      <trkpt lat="43.18559" lon="0.02926">
        <ele>418.9</ele>
        <time>2020-09-12T19:29:20Z</time>
      </trkpt>
      <trkpt lat="43.18556" lon="0.02924">
        <ele>419.5</ele>
        <time>2020-09-12T19:29:22Z</time>
      </trkpt>
      <trkpt lat="43.18553" lon="0.02921">
        <ele>420</ele>
        <time>2020-09-12T19:29:24Z</time>
      </trkpt>
      <trkpt lat="43.18549" lon="0.02918">
        <ele>420.5</ele>
        <time>2020-09-12T19:29:26Z</time>
      </trkpt>
      <trkpt lat="43.18545" lon="0.02915">
        <ele>421</ele>
        <time>2020-09-12T19:29:28Z</time>
      </trkpt>
      <trkpt lat="43.18541" lon="0.02912">
        <ele>421.3</ele>
        <time>2020-09-12T19:29:30Z</time>
      </trkpt>
      <trkpt lat="43.18537" lon="0.0291">
        <ele>421.6</ele>
        <time>2020-09-12T19:29:32Z</time>
      </trkpt>
      <trkpt lat="43.18535" lon="0.02908">
        <ele>421.8</ele>
        <time>2020-09-12T19:29:34Z</time>
      </trkpt>
      <trkpt lat="43.1853" lon="0.02905">
        <ele>422</ele>
        <time>2020-09-12T19:29:36Z</time>
      </trkpt>
      <trkpt lat="43.18528" lon="0.02903">
        <ele>422.2</ele>
        <time>2020-09-12T19:29:37Z</time>
      </trkpt>
      <trkpt lat="43.18525" lon="0.02902">
        <ele>422.3</ele>
        <time>2020-09-12T19:29:38Z</time>
      </trkpt>
      <trkpt lat="43.18521" lon="0.02902">
        <ele>422.4</ele>
        <time>2020-09-12T19:29:40Z</time>
      </trkpt>
      <trkpt lat="43.18516" lon="0.029">
        <ele>422.6</ele>
        <time>2020-09-12T19:29:42Z</time>
      </trkpt>
      <trkpt lat="43.18512" lon="0.02898">
        <ele>422.7</ele>
        <time>2020-09-12T19:29:44Z</time>
      </trkpt>
      <trkpt lat="43.18509" lon="0.02897">
        <ele>422.8</ele>
        <time>2020-09-12T19:29:45Z</time>
      </trkpt>
      <trkpt lat="43.18504" lon="0.02897">
        <ele>422.8</ele>
        <time>2020-09-12T19:29:47Z</time>
      </trkpt>
      <trkpt lat="43.18501" lon="0.02896">
        <ele>422.9</ele>
        <time>2020-09-12T19:29:48Z</time>
      </trkpt>
      <trkpt lat="43.18498" lon="0.02895">
        <ele>422.9</ele>
        <time>2020-09-12T19:29:49Z</time>
      </trkpt>
      <trkpt lat="43.18495" lon="0.02894">
        <ele>422.9</ele>
        <time>2020-09-12T19:29:50Z</time>
      </trkpt>
      <trkpt lat="43.18493" lon="0.02894">
        <ele>422.9</ele>
        <time>2020-09-12T19:29:51Z</time>
      </trkpt>
      <trkpt lat="43.18489" lon="0.02894">
        <ele>422.9</ele>
        <time>2020-09-12T19:29:52Z</time>
      </trkpt>
      <trkpt lat="43.18487" lon="0.02892">
        <ele>423</ele>
        <time>2020-09-12T19:29:53Z</time>
      </trkpt>
      <trkpt lat="43.18484" lon="0.02891">
        <ele>423</ele>
        <time>2020-09-12T19:29:54Z</time>
      </trkpt>
      <trkpt lat="43.18479" lon="0.02891">
        <ele>423.1</ele>
        <time>2020-09-12T19:29:56Z</time>
      </trkpt>
      <trkpt lat="43.18476" lon="0.02889">
        <ele>423.2</ele>
        <time>2020-09-12T19:29:58Z</time>
      </trkpt>
      <trkpt lat="43.18471" lon="0.02887">
        <ele>423.4</ele>
        <time>2020-09-12T19:30:00Z</time>
      </trkpt>
      <trkpt lat="43.18468" lon="0.02887">
        <ele>423.7</ele>
        <time>2020-09-12T19:30:01Z</time>
      </trkpt>
      <trkpt lat="43.18463" lon="0.02885">
        <ele>424</ele>
        <time>2020-09-12T19:30:03Z</time>
      </trkpt>
      <trkpt lat="43.18459" lon="0.02883">
        <ele>424.5</ele>
        <time>2020-09-12T19:30:05Z</time>
      </trkpt>
      <trkpt lat="43.18456" lon="0.02882">
        <ele>424.8</ele>
        <time>2020-09-12T19:30:06Z</time>
      </trkpt>
      <trkpt lat="43.18452" lon="0.0288">
        <ele>425.2</ele>
        <time>2020-09-12T19:30:08Z</time>
      </trkpt>
      <trkpt lat="43.18447" lon="0.02879">
        <ele>425.5</ele>
        <time>2020-09-12T19:30:10Z</time>
      </trkpt>
      <trkpt lat="43.18445" lon="0.02877">
        <ele>425.6</ele>
        <time>2020-09-12T19:30:11Z</time>
      </trkpt>
      <trkpt lat="43.18439" lon="0.02877">
        <ele>425.8</ele>
        <time>2020-09-12T19:30:13Z</time>
      </trkpt>
      <trkpt lat="43.18436" lon="0.02877">
        <ele>425.9</ele>
        <time>2020-09-12T19:30:14Z</time>
      </trkpt>
      <trkpt lat="43.1843" lon="0.02877">
        <ele>426</ele>
        <time>2020-09-12T19:30:16Z</time>
      </trkpt>
      <trkpt lat="43.18427" lon="0.02876">
        <ele>426.2</ele>
        <time>2020-09-12T19:30:17Z</time>
      </trkpt>
      <trkpt lat="43.18422" lon="0.02875">
        <ele>426.5</ele>
        <time>2020-09-12T19:30:19Z</time>
      </trkpt>
      <trkpt lat="43.18417" lon="0.02874">
        <ele>427</ele>
        <time>2020-09-12T19:30:21Z</time>
      </trkpt>
      <trkpt lat="43.18414" lon="0.02874">
        <ele>427.4</ele>
        <time>2020-09-12T19:30:22Z</time>
      </trkpt>
      <trkpt lat="43.18409" lon="0.02873">
        <ele>428.1</ele>
        <time>2020-09-12T19:30:24Z</time>
      </trkpt>
      <trkpt lat="43.18403" lon="0.02873">
        <ele>428.8</ele>
        <time>2020-09-12T19:30:26Z</time>
      </trkpt>
      <trkpt lat="43.18398" lon="0.02872">
        <ele>429.4</ele>
        <time>2020-09-12T19:30:28Z</time>
      </trkpt>
      <trkpt lat="43.18395" lon="0.02871">
        <ele>429.7</ele>
        <time>2020-09-12T19:30:29Z</time>
      </trkpt>
      <trkpt lat="43.18392" lon="0.0287">
        <ele>430</ele>
        <time>2020-09-12T19:30:30Z</time>
      </trkpt>
      <trkpt lat="43.18387" lon="0.02869">
        <ele>430.3</ele>
        <time>2020-09-12T19:30:32Z</time>
      </trkpt>
      <trkpt lat="43.18383" lon="0.02869">
        <ele>430.5</ele>
        <time>2020-09-12T19:30:34Z</time>
      </trkpt>
      <trkpt lat="43.18379" lon="0.02868">
        <ele>430.7</ele>
        <time>2020-09-12T19:30:36Z</time>
      </trkpt>
      <trkpt lat="43.18375" lon="0.02868">
        <ele>430.9</ele>
        <time>2020-09-12T19:30:38Z</time>
      </trkpt>
      <trkpt lat="43.1837" lon="0.02869">
        <ele>431.1</ele>
        <time>2020-09-12T19:30:40Z</time>
      </trkpt>
      <trkpt lat="43.18365" lon="0.02868">
        <ele>431.4</ele>
        <time>2020-09-12T19:30:42Z</time>
      </trkpt>
      <trkpt lat="43.18361" lon="0.02864">
        <ele>431.8</ele>
        <time>2020-09-12T19:30:44Z</time>
      </trkpt>
      <trkpt lat="43.18362" lon="0.02856">
        <ele>430.9</ele>
        <time>2020-09-12T19:30:46Z</time>
      </trkpt>
      <trkpt lat="43.18364" lon="0.0285">
        <ele>430.5</ele>
        <time>2020-09-12T19:30:47Z</time>
      </trkpt>
      <trkpt lat="43.18364" lon="0.02841">
        <ele>429.7</ele>
        <time>2020-09-12T19:30:48Z</time>
      </trkpt>
      <trkpt lat="43.18363" lon="0.02833">
        <ele>428.7</ele>
        <time>2020-09-12T19:30:49Z</time>
      </trkpt>
      <trkpt lat="43.18361" lon="0.02827">
        <ele>427.7</ele>
        <time>2020-09-12T19:30:50Z</time>
      </trkpt>
      <trkpt lat="43.18358" lon="0.02824">
        <ele>427.8</ele>
        <time>2020-09-12T19:30:51Z</time>
      </trkpt>
      <trkpt lat="43.18354" lon="0.02823">
        <ele>427.3</ele>
        <time>2020-09-12T19:30:52Z</time>
      </trkpt>
      <trkpt lat="43.18351" lon="0.02823">
        <ele>427.3</ele>
        <time>2020-09-12T19:30:53Z</time>
      </trkpt>
      <trkpt lat="43.18348" lon="0.02823">
        <ele>427.3</ele>
        <time>2020-09-12T19:30:54Z</time>
      </trkpt>
      <trkpt lat="43.18344" lon="0.02823">
        <ele>427.3</ele>
        <time>2020-09-12T19:30:55Z</time>
      </trkpt>
      <trkpt lat="43.1834" lon="0.02824">
        <ele>427.9</ele>
        <time>2020-09-12T19:30:56Z</time>
      </trkpt>
      <trkpt lat="43.18337" lon="0.02824">
        <ele>427.9</ele>
        <time>2020-09-12T19:30:57Z</time>
      </trkpt>
      <trkpt lat="43.18333" lon="0.02824">
        <ele>427.9</ele>
        <time>2020-09-12T19:30:58Z</time>
      </trkpt>
      <trkpt lat="43.1833" lon="0.02823">
        <ele>427.2</ele>
        <time>2020-09-12T19:30:59Z</time>
      </trkpt>
      <trkpt lat="43.18327" lon="0.02821">
        <ele>427.2</ele>
        <time>2020-09-12T19:31:00Z</time>
      </trkpt>
      <trkpt lat="43.18324" lon="0.02818">
        <ele>426.7</ele>
        <time>2020-09-12T19:31:01Z</time>
      </trkpt>
      <trkpt lat="43.18321" lon="0.02816">
        <ele>426.7</ele>
        <time>2020-09-12T19:31:02Z</time>
      </trkpt>
      <trkpt lat="43.18317" lon="0.02814">
        <ele>426.1</ele>
        <time>2020-09-12T19:31:03Z</time>
      </trkpt>
      <trkpt lat="43.18313" lon="0.02812">
        <ele>426.2</ele>
        <time>2020-09-12T19:31:04Z</time>
      </trkpt>
      <trkpt lat="43.18311" lon="0.02809">
        <ele>425.8</ele>
        <time>2020-09-12T19:31:05Z</time>
      </trkpt>
      <trkpt lat="43.18308" lon="0.02805">
        <ele>425.4</ele>
        <time>2020-09-12T19:31:06Z</time>
      </trkpt>
      <trkpt lat="43.18307" lon="0.02802">
        <ele>424.9</ele>
        <time>2020-09-12T19:31:07Z</time>
      </trkpt>
      <trkpt lat="43.18305" lon="0.02797">
        <ele>424.6</ele>
        <time>2020-09-12T19:31:08Z</time>
      </trkpt>
      <trkpt lat="43.18303" lon="0.02793">
        <ele>424.1</ele>
        <time>2020-09-12T19:31:09Z</time>
      </trkpt>
      <trkpt lat="43.18299" lon="0.02791">
        <ele>424.3</ele>
        <time>2020-09-12T19:31:11Z</time>
      </trkpt>
      <trkpt lat="43.18296" lon="0.02788">
        <ele>423.9</ele>
        <time>2020-09-12T19:31:13Z</time>
      </trkpt>
      <trkpt lat="43.18293" lon="0.02783">
        <ele>423.4</ele>
        <time>2020-09-12T19:31:14Z</time>
      </trkpt>
      <trkpt lat="43.18292" lon="0.02779">
        <ele>422.9</ele>
        <time>2020-09-12T19:31:15Z</time>
      </trkpt>
      <trkpt lat="43.1829" lon="0.02773">
        <ele>422.3</ele>
        <time>2020-09-12T19:31:16Z</time>
      </trkpt>
      <trkpt lat="43.18288" lon="0.02769">
        <ele>421.8</ele>
        <time>2020-09-12T19:31:17Z</time>
      </trkpt>
      <trkpt lat="43.18286" lon="0.02767">
        <ele>421.3</ele>
        <time>2020-09-12T19:31:18Z</time>
      </trkpt>
      <trkpt lat="43.18283" lon="0.02766">
        <ele>421.2</ele>
        <time>2020-09-12T19:31:21Z</time>
      </trkpt>
      <trkpt lat="43.1828" lon="0.02769">
        <ele>421.6</ele>
        <time>2020-09-12T19:31:23Z</time>
      </trkpt>
      <trkpt lat="43.18275" lon="0.0277">
        <ele>421.5</ele>
        <time>2020-09-12T19:31:25Z</time>
      </trkpt>
      <trkpt lat="43.18272" lon="0.02771">
        <ele>421.4</ele>
        <time>2020-09-12T19:31:27Z</time>
      </trkpt>
      <trkpt lat="43.18268" lon="0.02771">
        <ele>421.3</ele>
        <time>2020-09-12T19:31:29Z</time>
      </trkpt>
      <trkpt lat="43.18267" lon="0.02766">
        <ele>420.8</ele>
        <time>2020-09-12T19:31:34Z</time>
      </trkpt>
      <trkpt lat="43.18262" lon="0.02764">
        <ele>420.2</ele>
        <time>2020-09-12T19:31:36Z</time>
      </trkpt>
      <trkpt lat="43.1826" lon="0.02761">
        <ele>420.1</ele>
        <time>2020-09-12T19:31:37Z</time>
      </trkpt>
      <trkpt lat="43.18256" lon="0.02757">
        <ele>419.6</ele>
        <time>2020-09-12T19:31:39Z</time>
      </trkpt>
      <trkpt lat="43.18252" lon="0.02754">
        <ele>418.9</ele>
        <time>2020-09-12T19:31:41Z</time>
      </trkpt>
      <trkpt lat="43.1825" lon="0.0275">
        <ele>418.4</ele>
        <time>2020-09-12T19:31:44Z</time>
      </trkpt>
      <trkpt lat="43.18249" lon="0.02742">
        <ele>417.3</ele>
        <time>2020-09-12T19:31:46Z</time>
      </trkpt>
      <trkpt lat="43.18249" lon="0.02734">
        <ele>416.7</ele>
        <time>2020-09-12T19:31:48Z</time>
      </trkpt>
      <trkpt lat="43.18249" lon="0.02729">
        <ele>415.4</ele>
        <time>2020-09-12T19:31:49Z</time>
      </trkpt>
      <trkpt lat="43.1825" lon="0.02721">
        <ele>414.3</ele>
        <time>2020-09-12T19:31:51Z</time>
      </trkpt>
      <trkpt lat="43.18251" lon="0.02715">
        <ele>413.6</ele>
        <time>2020-09-12T19:31:52Z</time>
      </trkpt>
      <trkpt lat="43.18252" lon="0.02711">
        <ele>412.9</ele>
        <time>2020-09-12T19:31:53Z</time>
      </trkpt>
      <trkpt lat="43.18253" lon="0.02708">
        <ele>412.3</ele>
        <time>2020-09-12T19:31:54Z</time>
      </trkpt>
      <trkpt lat="43.18256" lon="0.02703">
        <ele>411.6</ele>
        <time>2020-09-12T19:31:56Z</time>
      </trkpt>
      <trkpt lat="43.18259" lon="0.027">
        <ele>411.7</ele>
        <time>2020-09-12T19:31:58Z</time>
      </trkpt>
      <trkpt lat="43.18261" lon="0.02698">
        <ele>410.9</ele>
        <time>2020-09-12T19:31:59Z</time>
      </trkpt>
      <trkpt lat="43.18263" lon="0.02694">
        <ele>410.1</ele>
        <time>2020-09-12T19:32:00Z</time>
      </trkpt>
      <trkpt lat="43.18264" lon="0.02691">
        <ele>409.3</ele>
        <time>2020-09-12T19:32:01Z</time>
      </trkpt>
      <trkpt lat="43.18267" lon="0.02686">
        <ele>408.7</ele>
        <time>2020-09-12T19:32:02Z</time>
      </trkpt>
      <trkpt lat="43.1827" lon="0.02682">
        <ele>408.2</ele>
        <time>2020-09-12T19:32:03Z</time>
      </trkpt>
      <trkpt lat="43.18272" lon="0.02678">
        <ele>407.6</ele>
        <time>2020-09-12T19:32:04Z</time>
      </trkpt>
      <trkpt lat="43.18275" lon="0.02675">
        <ele>407.8</ele>
        <time>2020-09-12T19:32:05Z</time>
      </trkpt>
      <trkpt lat="43.18279" lon="0.02672">
        <ele>407.3</ele>
        <time>2020-09-12T19:32:06Z</time>
      </trkpt>
      <trkpt lat="43.18282" lon="0.02671">
        <ele>407.4</ele>
        <time>2020-09-12T19:32:07Z</time>
      </trkpt>
      <trkpt lat="43.18286" lon="0.02669">
        <ele>406.7</ele>
        <time>2020-09-12T19:32:09Z</time>
      </trkpt>
      <trkpt lat="43.18289" lon="0.02666">
        <ele>406.8</ele>
        <time>2020-09-12T19:32:11Z</time>
      </trkpt>
      <trkpt lat="43.18292" lon="0.02663">
        <ele>406</ele>
        <time>2020-09-12T19:32:13Z</time>
      </trkpt>
      <trkpt lat="43.18295" lon="0.02659">
        <ele>405.2</ele>
        <time>2020-09-12T19:32:15Z</time>
      </trkpt>
      <trkpt lat="43.18299" lon="0.02656">
        <ele>404.2</ele>
        <time>2020-09-12T19:32:17Z</time>
      </trkpt>
      <trkpt lat="43.18302" lon="0.02655">
        <ele>404.2</ele>
        <time>2020-09-12T19:32:21Z</time>
      </trkpt>
      <trkpt lat="43.18306" lon="0.02654">
        <ele>404.1</ele>
        <time>2020-09-12T19:32:24Z</time>
      </trkpt>
      <trkpt lat="43.1831" lon="0.02653">
        <ele>404</ele>
        <time>2020-09-12T19:32:27Z</time>
      </trkpt>
      <trkpt lat="43.18312" lon="0.0265">
        <ele>403.1</ele>
        <time>2020-09-12T19:32:29Z</time>
      </trkpt>
      <trkpt lat="43.18314" lon="0.02648">
        <ele>403.1</ele>
        <time>2020-09-12T19:32:31Z</time>
      </trkpt>
      <trkpt lat="43.18318" lon="0.02648">
        <ele>402</ele>
        <time>2020-09-12T19:32:32Z</time>
      </trkpt>
      <trkpt lat="43.18321" lon="0.02647">
        <ele>401.9</ele>
        <time>2020-09-12T19:32:33Z</time>
      </trkpt>
      <trkpt lat="43.18326" lon="0.02648">
        <ele>401.7</ele>
        <time>2020-09-12T19:32:35Z</time>
      </trkpt>
      <trkpt lat="43.18329" lon="0.02648">
        <ele>402.5</ele>
        <time>2020-09-12T19:32:37Z</time>
      </trkpt>
      <trkpt lat="43.18334" lon="0.02647">
        <ele>401.2</ele>
        <time>2020-09-12T19:32:39Z</time>
      </trkpt>
      <trkpt lat="43.18339" lon="0.02646">
        <ele>401.1</ele>
        <time>2020-09-12T19:32:41Z</time>
      </trkpt>
      <trkpt lat="43.18344" lon="0.02643">
        <ele>399.8</ele>
        <time>2020-09-12T19:32:43Z</time>
      </trkpt>
      <trkpt lat="43.18346" lon="0.02641">
        <ele>399.8</ele>
        <time>2020-09-12T19:32:44Z</time>
      </trkpt>
      <trkpt lat="43.18349" lon="0.02638">
        <ele>398.6</ele>
        <time>2020-09-12T19:32:46Z</time>
      </trkpt>
      <trkpt lat="43.18353" lon="0.02635">
        <ele>398.2</ele>
        <time>2020-09-12T19:32:48Z</time>
      </trkpt>
      <trkpt lat="43.18357" lon="0.02634">
        <ele>397.1</ele>
        <time>2020-09-12T19:32:50Z</time>
      </trkpt>
      <trkpt lat="43.18361" lon="0.02632">
        <ele>396.9</ele>
        <time>2020-09-12T19:32:52Z</time>
      </trkpt>
      <trkpt lat="43.18364" lon="0.02632">
        <ele>396.7</ele>
        <time>2020-09-12T19:32:54Z</time>
      </trkpt>
      <trkpt lat="43.18366" lon="0.02635">
        <ele>396.5</ele>
        <time>2020-09-12T19:32:56Z</time>
      </trkpt>
      <trkpt lat="43.18369" lon="0.02637">
        <ele>397.3</ele>
        <time>2020-09-12T19:32:58Z</time>
      </trkpt>
      <trkpt lat="43.18373" lon="0.02634">
        <ele>396.2</ele>
        <time>2020-09-12T19:33:01Z</time>
      </trkpt>
      <trkpt lat="43.18376" lon="0.02637">
        <ele>396.9</ele>
        <time>2020-09-12T19:33:04Z</time>
      </trkpt>
      <trkpt lat="43.18378" lon="0.02641">
        <ele>397.7</ele>
        <time>2020-09-12T19:33:07Z</time>
      </trkpt>
      <trkpt lat="43.18381" lon="0.02639">
        <ele>396.6</ele>
        <time>2020-09-12T19:33:10Z</time>
      </trkpt>
      <trkpt lat="43.18384" lon="0.02638">
        <ele>396.6</ele>
        <time>2020-09-12T19:33:12Z</time>
      </trkpt>
      <trkpt lat="43.18387" lon="0.02637">
        <ele>396.2</ele>
        <time>2020-09-12T19:33:14Z</time>
      </trkpt>
      <trkpt lat="43.18391" lon="0.02633">
        <ele>395.1</ele>
        <time>2020-09-12T19:33:16Z</time>
      </trkpt>
      <trkpt lat="43.18394" lon="0.02631">
        <ele>394.9</ele>
        <time>2020-09-12T19:33:17Z</time>
      </trkpt>
      <trkpt lat="43.184" lon="0.0263">
        <ele>393.6</ele>
        <time>2020-09-12T19:33:19Z</time>
      </trkpt>
      <trkpt lat="43.18403" lon="0.02631">
        <ele>394.2</ele>
        <time>2020-09-12T19:33:20Z</time>
      </trkpt>
      <trkpt lat="43.18406" lon="0.02632">
        <ele>393.9</ele>
        <time>2020-09-12T19:33:21Z</time>
      </trkpt>
      <trkpt lat="43.18409" lon="0.02631">
        <ele>393.6</ele>
        <time>2020-09-12T19:33:22Z</time>
      </trkpt>
      <trkpt lat="43.18414" lon="0.0263">
        <ele>392.6</ele>
        <time>2020-09-12T19:33:24Z</time>
      </trkpt>
      <trkpt lat="43.18418" lon="0.0263">
        <ele>391.9</ele>
        <time>2020-09-12T19:33:26Z</time>
      </trkpt>
      <trkpt lat="43.18422" lon="0.02629">
        <ele>391.7</ele>
        <time>2020-09-12T19:33:28Z</time>
      </trkpt>
      <trkpt lat="43.18426" lon="0.02629">
        <ele>391.4</ele>
        <time>2020-09-12T19:33:30Z</time>
      </trkpt>
      <trkpt lat="43.1843" lon="0.02631">
        <ele>391.2</ele>
        <time>2020-09-12T19:33:32Z</time>
      </trkpt>
      <trkpt lat="43.18433" lon="0.02631">
        <ele>391.7</ele>
        <time>2020-09-12T19:33:33Z</time>
      </trkpt>
      <trkpt lat="43.18436" lon="0.02633">
        <ele>391.5</ele>
        <time>2020-09-12T19:33:34Z</time>
      </trkpt>
      <trkpt lat="43.18439" lon="0.02634">
        <ele>391.2</ele>
        <time>2020-09-12T19:33:35Z</time>
      </trkpt>
      <trkpt lat="43.18443" lon="0.02637">
        <ele>391.7</ele>
        <time>2020-09-12T19:33:37Z</time>
      </trkpt>
      <trkpt lat="43.18447" lon="0.02639">
        <ele>391.9</ele>
        <time>2020-09-12T19:33:39Z</time>
      </trkpt>
      <trkpt lat="43.18451" lon="0.0264">
        <ele>391.8</ele>
        <time>2020-09-12T19:33:41Z</time>
      </trkpt>
      <trkpt lat="43.18455" lon="0.02641">
        <ele>391.6</ele>
        <time>2020-09-12T19:33:43Z</time>
      </trkpt>
      <trkpt lat="43.18456" lon="0.02646">
        <ele>392.2</ele>
        <time>2020-09-12T19:33:44Z</time>
      </trkpt>
      <trkpt lat="43.18459" lon="0.0265">
        <ele>392.8</ele>
        <time>2020-09-12T19:33:46Z</time>
      </trkpt>
      <trkpt lat="43.18462" lon="0.02652">
        <ele>392.7</ele>
        <time>2020-09-12T19:33:48Z</time>
      </trkpt>
      <trkpt lat="43.18465" lon="0.02651">
        <ele>392.5</ele>
        <time>2020-09-12T19:33:50Z</time>
      </trkpt>
      <trkpt lat="43.18468" lon="0.02649">
        <ele>392.3</ele>
        <time>2020-09-12T19:33:51Z</time>
      </trkpt>
      <trkpt lat="43.18471" lon="0.02647">
        <ele>391.4</ele>
        <time>2020-09-12T19:33:53Z</time>
      </trkpt>
      <trkpt lat="43.18475" lon="0.02646">
        <ele>391</ele>
        <time>2020-09-12T19:33:56Z</time>
      </trkpt>
      <trkpt lat="43.18478" lon="0.02644">
        <ele>390.3</ele>
        <time>2020-09-12T19:33:58Z</time>
      </trkpt>
      <trkpt lat="43.18479" lon="0.02638">
        <ele>389.3</ele>
        <time>2020-09-12T19:34:01Z</time>
      </trkpt>
      <trkpt lat="43.18481" lon="0.02632">
        <ele>388.6</ele>
        <time>2020-09-12T19:34:03Z</time>
      </trkpt>
      <trkpt lat="43.18481" lon="0.02628">
        <ele>387.9</ele>
        <time>2020-09-12T19:34:04Z</time>
      </trkpt>
      <trkpt lat="43.18482" lon="0.02623">
        <ele>387</ele>
        <time>2020-09-12T19:34:05Z</time>
      </trkpt>
      <trkpt lat="43.18483" lon="0.0262">
        <ele>386.2</ele>
        <time>2020-09-12T19:34:06Z</time>
      </trkpt>
      <trkpt lat="43.18483" lon="0.02616">
        <ele>385.3</ele>
        <time>2020-09-12T19:34:07Z</time>
      </trkpt>
      <trkpt lat="43.18484" lon="0.02612">
        <ele>384.4</ele>
        <time>2020-09-12T19:34:08Z</time>
      </trkpt>
      <trkpt lat="43.18485" lon="0.02607">
        <ele>383.1</ele>
        <time>2020-09-12T19:34:09Z</time>
      </trkpt>
      <trkpt lat="43.18485" lon="0.02603">
        <ele>382.1</ele>
        <time>2020-09-12T19:34:10Z</time>
      </trkpt>
      <trkpt lat="43.18486" lon="0.02598">
        <ele>381.2</ele>
        <time>2020-09-12T19:34:11Z</time>
      </trkpt>
      <trkpt lat="43.18486" lon="0.02594">
        <ele>380.3</ele>
        <time>2020-09-12T19:34:12Z</time>
      </trkpt>
      <trkpt lat="43.18487" lon="0.0259">
        <ele>379.1</ele>
        <time>2020-09-12T19:34:13Z</time>
      </trkpt>
      <trkpt lat="43.18486" lon="0.02583">
        <ele>377.6</ele>
        <time>2020-09-12T19:34:15Z</time>
      </trkpt>
      <trkpt lat="43.18484" lon="0.02579">
        <ele>377.8</ele>
        <time>2020-09-12T19:34:16Z</time>
      </trkpt>
      <trkpt lat="43.18482" lon="0.02575">
        <ele>376.9</ele>
        <time>2020-09-12T19:34:17Z</time>
      </trkpt>
      <trkpt lat="43.1848" lon="0.02571">
        <ele>376.2</ele>
        <time>2020-09-12T19:34:18Z</time>
      </trkpt>
      <trkpt lat="43.18478" lon="0.02568">
        <ele>375.5</ele>
        <time>2020-09-12T19:34:19Z</time>
      </trkpt>
      <trkpt lat="43.18475" lon="0.02563">
        <ele>374.6</ele>
        <time>2020-09-12T19:34:21Z</time>
      </trkpt>
      <trkpt lat="43.18473" lon="0.02557">
        <ele>372</ele>
        <time>2020-09-12T19:34:23Z</time>
      </trkpt>
      <trkpt lat="43.18473" lon="0.02553">
        <ele>370.7</ele>
        <time>2020-09-12T19:34:24Z</time>
      </trkpt>
      <trkpt lat="43.18474" lon="0.02547">
        <ele>369.5</ele>
        <time>2020-09-12T19:34:26Z</time>
      </trkpt>
      <trkpt lat="43.18476" lon="0.02542">
        <ele>368.1</ele>
        <time>2020-09-12T19:34:28Z</time>
      </trkpt>
      <trkpt lat="43.1848" lon="0.02539">
        <ele>366.8</ele>
        <time>2020-09-12T19:34:30Z</time>
      </trkpt>
      <trkpt lat="43.18481" lon="0.02533">
        <ele>365.6</ele>
        <time>2020-09-12T19:34:32Z</time>
      </trkpt>
      <trkpt lat="43.1848" lon="0.02529">
        <ele>364.3</ele>
        <time>2020-09-12T19:34:33Z</time>
      </trkpt>
      <trkpt lat="43.18479" lon="0.02525">
        <ele>363</ele>
        <time>2020-09-12T19:34:34Z</time>
      </trkpt>
      <trkpt lat="43.18476" lon="0.02518">
        <ele>360.1</ele>
        <time>2020-09-12T19:34:36Z</time>
      </trkpt>
      <trkpt lat="43.18472" lon="0.02514">
        <ele>358.6</ele>
        <time>2020-09-12T19:34:38Z</time>
      </trkpt>
      <trkpt lat="43.1847" lon="0.02511">
        <ele>358.5</ele>
        <time>2020-09-12T19:34:41Z</time>
      </trkpt>
      <trkpt lat="43.18469" lon="0.02506">
        <ele>355.7</ele>
        <time>2020-09-12T19:34:43Z</time>
      </trkpt>
      <trkpt lat="43.1847" lon="0.025">
        <ele>354.3</ele>
        <time>2020-09-12T19:34:47Z</time>
      </trkpt>
      <trkpt lat="43.18471" lon="0.02495">
        <ele>352.9</ele>
        <time>2020-09-12T19:34:49Z</time>
      </trkpt>
      <trkpt lat="43.18473" lon="0.0249">
        <ele>351.7</ele>
        <time>2020-09-12T19:34:51Z</time>
      </trkpt>
      <trkpt lat="43.18473" lon="0.02485">
        <ele>350.5</ele>
        <time>2020-09-12T19:34:53Z</time>
      </trkpt>
      <trkpt lat="43.18473" lon="0.02479">
        <ele>347.8</ele>
        <time>2020-09-12T19:34:57Z</time>
      </trkpt>
      <trkpt lat="43.1847" lon="0.02481">
        <ele>349</ele>
        <time>2020-09-12T19:35:06Z</time>
      </trkpt>
      <trkpt lat="43.18468" lon="0.02483">
        <ele>348.9</ele>
        <time>2020-09-12T19:35:07Z</time>
      </trkpt>
      <trkpt lat="43.18465" lon="0.02489">
        <ele>351.6</ele>
        <time>2020-09-12T19:35:09Z</time>
      </trkpt>
      <trkpt lat="43.18463" lon="0.02494">
        <ele>352.8</ele>
        <time>2020-09-12T19:35:11Z</time>
      </trkpt>
      <trkpt lat="43.1846" lon="0.02497">
        <ele>352.7</ele>
        <time>2020-09-12T19:35:13Z</time>
      </trkpt>
      <trkpt lat="43.18458" lon="0.02501">
        <ele>354</ele>
        <time>2020-09-12T19:35:15Z</time>
      </trkpt>
      <trkpt lat="43.18455" lon="0.02503">
        <ele>355.4</ele>
        <time>2020-09-12T19:35:17Z</time>
      </trkpt>
      <trkpt lat="43.18452" lon="0.02506">
        <ele>355.4</ele>
        <time>2020-09-12T19:35:19Z</time>
      </trkpt>
      <trkpt lat="43.18449" lon="0.02504">
        <ele>355.4</ele>
        <time>2020-09-12T19:35:21Z</time>
      </trkpt>
      <trkpt lat="43.18445" lon="0.02503">
        <ele>355.4</ele>
        <time>2020-09-12T19:35:23Z</time>
      </trkpt>
      <trkpt lat="43.18441" lon="0.02503">
        <ele>355.4</ele>
        <time>2020-09-12T19:35:26Z</time>
      </trkpt>
      <trkpt lat="43.18437" lon="0.02504">
        <ele>355.4</ele>
        <time>2020-09-12T19:35:28Z</time>
      </trkpt>
      <trkpt lat="43.18433" lon="0.02505">
        <ele>355.5</ele>
        <time>2020-09-12T19:35:30Z</time>
      </trkpt>
      <trkpt lat="43.1843" lon="0.02503">
        <ele>355.6</ele>
        <time>2020-09-12T19:35:33Z</time>
      </trkpt>
      <trkpt lat="43.18426" lon="0.02503">
        <ele>355.7</ele>
        <time>2020-09-12T19:35:35Z</time>
      </trkpt>
      <trkpt lat="43.18424" lon="0.02503">
        <ele>355.8</ele>
        <time>2020-09-12T19:35:37Z</time>
      </trkpt>
      <trkpt lat="43.18421" lon="0.02503">
        <ele>355.9</ele>
        <time>2020-09-12T19:35:39Z</time>
      </trkpt>
      <trkpt lat="43.18417" lon="0.02503">
        <ele>356</ele>
        <time>2020-09-12T19:35:45Z</time>
      </trkpt>
      <trkpt lat="43.18415" lon="0.02507">
        <ele>357.6</ele>
        <time>2020-09-12T19:35:47Z</time>
      </trkpt>
      <trkpt lat="43.18418" lon="0.02515">
        <ele>360.9</ele>
        <time>2020-09-12T19:35:52Z</time>
      </trkpt>
      <trkpt lat="43.18422" lon="0.02516">
        <ele>360.7</ele>
        <time>2020-09-12T19:35:55Z</time>
      </trkpt>
      <trkpt lat="43.18425" lon="0.02517">
        <ele>360.7</ele>
        <time>2020-09-12T19:35:56Z</time>
      </trkpt>
      <trkpt lat="43.18429" lon="0.02517">
        <ele>360.6</ele>
        <time>2020-09-12T19:35:57Z</time>
      </trkpt>
      <trkpt lat="43.18432" lon="0.02517">
        <ele>360.5</ele>
        <time>2020-09-12T19:35:58Z</time>
      </trkpt>
      <trkpt lat="43.18435" lon="0.02517">
        <ele>360.4</ele>
        <time>2020-09-12T19:35:59Z</time>
      </trkpt>
      <trkpt lat="43.1844" lon="0.0252">
        <ele>362</ele>
        <time>2020-09-12T19:36:01Z</time>
      </trkpt>
      <trkpt lat="43.18444" lon="0.02523">
        <ele>361.9</ele>
        <time>2020-09-12T19:36:03Z</time>
      </trkpt>
      <trkpt lat="43.18446" lon="0.02526">
        <ele>363.5</ele>
        <time>2020-09-12T19:36:05Z</time>
      </trkpt>
      <trkpt lat="43.18448" lon="0.02528">
        <ele>365</ele>
        <time>2020-09-12T19:36:08Z</time>
      </trkpt>
      <trkpt lat="43.1845" lon="0.0253">
        <ele>365</ele>
        <time>2020-09-12T19:36:11Z</time>
      </trkpt>
      <trkpt lat="43.18453" lon="0.02527">
        <ele>363.4</ele>
        <time>2020-09-12T19:36:15Z</time>
      </trkpt>
      <trkpt lat="43.18456" lon="0.02533">
        <ele>366.5</ele>
        <time>2020-09-12T19:36:21Z</time>
      </trkpt>
      <trkpt lat="43.18451" lon="0.02543">
        <ele>369.4</ele>
        <time>2020-09-12T19:36:33Z</time>
      </trkpt>
      <trkpt lat="43.18447" lon="0.02545">
        <ele>370.9</ele>
        <time>2020-09-12T19:36:35Z</time>
      </trkpt>
      <trkpt lat="43.18443" lon="0.02546">
        <ele>371</ele>
        <time>2020-09-12T19:36:37Z</time>
      </trkpt>
      <trkpt lat="43.18439" lon="0.02545">
        <ele>371.2</ele>
        <time>2020-09-12T19:36:39Z</time>
      </trkpt>
      <trkpt lat="43.18435" lon="0.02545">
        <ele>371.3</ele>
        <time>2020-09-12T19:36:41Z</time>
      </trkpt>
      <trkpt lat="43.18431" lon="0.02545">
        <ele>371.5</ele>
        <time>2020-09-12T19:36:43Z</time>
      </trkpt>
      <trkpt lat="43.18425" lon="0.02545">
        <ele>371.6</ele>
        <time>2020-09-12T19:36:45Z</time>
      </trkpt>
      <trkpt lat="43.18423" lon="0.02546">
        <ele>371.7</ele>
        <time>2020-09-12T19:36:46Z</time>
      </trkpt>
      <trkpt lat="43.18418" lon="0.02544">
        <ele>370.5</ele>
        <time>2020-09-12T19:36:48Z</time>
      </trkpt>
      <trkpt lat="43.18415" lon="0.02545">
        <ele>370.6</ele>
        <time>2020-09-12T19:36:50Z</time>
      </trkpt>
      <trkpt lat="43.18411" lon="0.02545">
        <ele>372.2</ele>
        <time>2020-09-12T19:36:52Z</time>
      </trkpt>
      <trkpt lat="43.18408" lon="0.02547">
        <ele>372.2</ele>
        <time>2020-09-12T19:36:53Z</time>
      </trkpt>
      <trkpt lat="43.18405" lon="0.02548">
        <ele>372.3</ele>
        <time>2020-09-12T19:36:55Z</time>
      </trkpt>
      <trkpt lat="43.18401" lon="0.02548">
        <ele>372.3</ele>
        <time>2020-09-12T19:36:57Z</time>
      </trkpt>
      <trkpt lat="43.18398" lon="0.0255">
        <ele>373.8</ele>
        <time>2020-09-12T19:36:59Z</time>
      </trkpt>
      <trkpt lat="43.18395" lon="0.02551">
        <ele>373.7</ele>
        <time>2020-09-12T19:37:01Z</time>
      </trkpt>
      <trkpt lat="43.18392" lon="0.02552">
        <ele>373.7</ele>
        <time>2020-09-12T19:37:03Z</time>
      </trkpt>
      <trkpt lat="43.18389" lon="0.02552">
        <ele>373.7</ele>
        <time>2020-09-12T19:37:05Z</time>
      </trkpt>
      <trkpt lat="43.18386" lon="0.02553">
        <ele>373.7</ele>
        <time>2020-09-12T19:37:08Z</time>
      </trkpt>
      <trkpt lat="43.18382" lon="0.02552">
        <ele>373.7</ele>
        <time>2020-09-12T19:37:11Z</time>
      </trkpt>
      <trkpt lat="43.18379" lon="0.02552">
        <ele>373.7</ele>
        <time>2020-09-12T19:37:13Z</time>
      </trkpt>
      <trkpt lat="43.18375" lon="0.02552">
        <ele>373.7</ele>
        <time>2020-09-12T19:37:16Z</time>
      </trkpt>
      <trkpt lat="43.18372" lon="0.02553">
        <ele>373.7</ele>
        <time>2020-09-12T19:37:20Z</time>
      </trkpt>
      <trkpt lat="43.18367" lon="0.02552">
        <ele>373.7</ele>
        <time>2020-09-12T19:37:33Z</time>
      </trkpt>
      <trkpt lat="43.18365" lon="0.02554">
        <ele>375.3</ele>
        <time>2020-09-12T19:37:36Z</time>
      </trkpt>
      <trkpt lat="43.1836" lon="0.02557">
        <ele>375.4</ele>
        <time>2020-09-12T19:37:42Z</time>
      </trkpt>
      <trkpt lat="43.18356" lon="0.02558">
        <ele>375.5</ele>
        <time>2020-09-12T19:37:44Z</time>
      </trkpt>
      <trkpt lat="43.18354" lon="0.0256">
        <ele>377.1</ele>
        <time>2020-09-12T19:37:46Z</time>
      </trkpt>
      <trkpt lat="43.1835" lon="0.02561">
        <ele>377.2</ele>
        <time>2020-09-12T19:37:49Z</time>
      </trkpt>
      <trkpt lat="43.18348" lon="0.0256">
        <ele>377.3</ele>
        <time>2020-09-12T19:37:52Z</time>
      </trkpt>
      <trkpt lat="43.18345" lon="0.02563">
        <ele>378.9</ele>
        <time>2020-09-12T19:37:55Z</time>
      </trkpt>
      <trkpt lat="43.18342" lon="0.02566">
        <ele>379</ele>
        <time>2020-09-12T19:37:58Z</time>
      </trkpt>
      <trkpt lat="43.18339" lon="0.02568">
        <ele>380.6</ele>
        <time>2020-09-12T19:38:01Z</time>
      </trkpt>
      <trkpt lat="43.18338" lon="0.02571">
        <ele>380.6</ele>
        <time>2020-09-12T19:38:06Z</time>
      </trkpt>
      <trkpt lat="43.18335" lon="0.02572">
        <ele>382.1</ele>
        <time>2020-09-12T19:38:09Z</time>
      </trkpt>
      <trkpt lat="43.18332" lon="0.02573">
        <ele>382.2</ele>
        <time>2020-09-12T19:38:12Z</time>
      </trkpt>
      <trkpt lat="43.18329" lon="0.02574">
        <ele>382.3</ele>
        <time>2020-09-12T19:38:15Z</time>
      </trkpt>
      <trkpt lat="43.18325" lon="0.02574">
        <ele>382.3</ele>
        <time>2020-09-12T19:38:18Z</time>
      </trkpt>
      <trkpt lat="43.18321" lon="0.02575">
        <ele>383.7</ele>
        <time>2020-09-12T19:38:20Z</time>
      </trkpt>
      <trkpt lat="43.18319" lon="0.02576">
        <ele>383.7</ele>
        <time>2020-09-12T19:38:24Z</time>
      </trkpt>
      <trkpt lat="43.18315" lon="0.02578">
        <ele>383.7</ele>
        <time>2020-09-12T19:38:27Z</time>
      </trkpt>
      <trkpt lat="43.18312" lon="0.02579">
        <ele>385</ele>
        <time>2020-09-12T19:38:31Z</time>
      </trkpt>
      <trkpt lat="43.18309" lon="0.0258">
        <ele>384.9</ele>
        <time>2020-09-12T19:38:34Z</time>
      </trkpt>
      <trkpt lat="43.18304" lon="0.02581">
        <ele>384.7</ele>
        <time>2020-09-12T19:38:36Z</time>
      </trkpt>
      <trkpt lat="43.18301" lon="0.02583">
        <ele>384.6</ele>
        <time>2020-09-12T19:38:38Z</time>
      </trkpt>
      <trkpt lat="43.18298" lon="0.02585">
        <ele>385.9</ele>
        <time>2020-09-12T19:38:41Z</time>
      </trkpt>
      <trkpt lat="43.18295" lon="0.02588">
        <ele>387.2</ele>
        <time>2020-09-12T19:38:44Z</time>
      </trkpt>
      <trkpt lat="43.18292" lon="0.02591">
        <ele>387.1</ele>
        <time>2020-09-12T19:38:47Z</time>
      </trkpt>
      <trkpt lat="43.18289" lon="0.02596">
        <ele>388.5</ele>
        <time>2020-09-12T19:38:50Z</time>
      </trkpt>
      <trkpt lat="43.18286" lon="0.02599">
        <ele>389.9</ele>
        <time>2020-09-12T19:38:53Z</time>
      </trkpt>
      <trkpt lat="43.18284" lon="0.02605">
        <ele>391.4</ele>
        <time>2020-09-12T19:38:56Z</time>
      </trkpt>
      <trkpt lat="43.18284" lon="0.02609">
        <ele>393</ele>
        <time>2020-09-12T19:39:00Z</time>
      </trkpt>
      <trkpt lat="43.18283" lon="0.02613">
        <ele>394.3</ele>
        <time>2020-09-12T19:39:06Z</time>
      </trkpt>
      <trkpt lat="43.18283" lon="0.02617">
        <ele>395.7</ele>
        <time>2020-09-12T19:39:09Z</time>
      </trkpt>
      <trkpt lat="43.18283" lon="0.02622">
        <ele>397</ele>
        <time>2020-09-12T19:39:12Z</time>
      </trkpt>
      <trkpt lat="43.18282" lon="0.02626">
        <ele>398.2</ele>
        <time>2020-09-12T19:39:16Z</time>
      </trkpt>
      <trkpt lat="43.18282" lon="0.0263">
        <ele>399.4</ele>
        <time>2020-09-12T19:39:20Z</time>
      </trkpt>
      <trkpt lat="43.18282" lon="0.02635">
        <ele>400.5</ele>
        <time>2020-09-12T19:39:25Z</time>
      </trkpt>
      <trkpt lat="43.18282" lon="0.02639">
        <ele>401.6</ele>
        <time>2020-09-12T19:39:28Z</time>
      </trkpt>
      <trkpt lat="43.18279" lon="0.02639">
        <ele>402.5</ele>
        <time>2020-09-12T19:39:34Z</time>
      </trkpt>
      <trkpt lat="43.18275" lon="0.02641">
        <ele>402.4</ele>
        <time>2020-09-12T19:39:40Z</time>
      </trkpt>
      <trkpt lat="43.18274" lon="0.02644">
        <ele>403.3</ele>
        <time>2020-09-12T19:39:44Z</time>
      </trkpt>
      <trkpt lat="43.18272" lon="0.02647">
        <ele>403.3</ele>
        <time>2020-09-12T19:39:49Z</time>
      </trkpt>
      <trkpt lat="43.18271" lon="0.02654">
        <ele>405.2</ele>
        <time>2020-09-12T19:39:55Z</time>
      </trkpt>
      <trkpt lat="43.18268" lon="0.02655">
        <ele>405.1</ele>
        <time>2020-09-12T19:39:58Z</time>
      </trkpt>
      <trkpt lat="43.18265" lon="0.02659">
        <ele>406</ele>
        <time>2020-09-12T19:40:02Z</time>
      </trkpt>
      <trkpt lat="43.18263" lon="0.02662">
        <ele>406.7</ele>
        <time>2020-09-12T19:40:04Z</time>
      </trkpt>
      <trkpt lat="43.18261" lon="0.02666">
        <ele>407.4</ele>
        <time>2020-09-12T19:40:12Z</time>
      </trkpt>
      <trkpt lat="43.18256" lon="0.02674">
        <ele>408.5</ele>
        <time>2020-09-12T19:40:28Z</time>
      </trkpt>
      <trkpt lat="43.18252" lon="0.02677">
        <ele>408.4</ele>
        <time>2020-09-12T19:40:30Z</time>
      </trkpt>
      <trkpt lat="43.18248" lon="0.02682">
        <ele>409</ele>
        <time>2020-09-12T19:40:32Z</time>
      </trkpt>
      <trkpt lat="43.18246" lon="0.02687">
        <ele>409.6</ele>
        <time>2020-09-12T19:40:33Z</time>
      </trkpt>
      <trkpt lat="43.18244" lon="0.02691">
        <ele>411.3</ele>
        <time>2020-09-12T19:40:34Z</time>
      </trkpt>
      <trkpt lat="43.18242" lon="0.02695">
        <ele>412.1</ele>
        <time>2020-09-12T19:40:35Z</time>
      </trkpt>
      <trkpt lat="43.18241" lon="0.02699">
        <ele>412.1</ele>
        <time>2020-09-12T19:40:36Z</time>
      </trkpt>
      <trkpt lat="43.18238" lon="0.02704">
        <ele>413.6</ele>
        <time>2020-09-12T19:40:38Z</time>
      </trkpt>
      <trkpt lat="43.18235" lon="0.02708">
        <ele>414.2</ele>
        <time>2020-09-12T19:40:40Z</time>
      </trkpt>
      <trkpt lat="43.18233" lon="0.02714">
        <ele>414.7</ele>
        <time>2020-09-12T19:40:42Z</time>
      </trkpt>
      <trkpt lat="43.18232" lon="0.0272">
        <ele>415.4</ele>
        <time>2020-09-12T19:40:44Z</time>
      </trkpt>
      <trkpt lat="43.1823" lon="0.02724">
        <ele>415.8</ele>
        <time>2020-09-12T19:40:45Z</time>
      </trkpt>
      <trkpt lat="43.18227" lon="0.02729">
        <ele>416.2</ele>
        <time>2020-09-12T19:40:47Z</time>
      </trkpt>
      <trkpt lat="43.18225" lon="0.02732">
        <ele>416.9</ele>
        <time>2020-09-12T19:40:49Z</time>
      </trkpt>
      <trkpt lat="43.18224" lon="0.02738">
        <ele>417.3</ele>
        <time>2020-09-12T19:40:51Z</time>
      </trkpt>
      <trkpt lat="43.18223" lon="0.02743">
        <ele>418.6</ele>
        <time>2020-09-12T19:40:53Z</time>
      </trkpt>
      <trkpt lat="43.18219" lon="0.02748">
        <ele>419</ele>
        <time>2020-09-12T19:40:55Z</time>
      </trkpt>
      <trkpt lat="43.18216" lon="0.02749">
        <ele>418.8</ele>
        <time>2020-09-12T19:40:56Z</time>
      </trkpt>
      <trkpt lat="43.18215" lon="0.02753">
        <ele>419.4</ele>
        <time>2020-09-12T19:40:57Z</time>
      </trkpt>
      <trkpt lat="43.18212" lon="0.02754">
        <ele>419.2</ele>
        <time>2020-09-12T19:40:59Z</time>
      </trkpt>
      <trkpt lat="43.18208" lon="0.02753">
        <ele>418.8</ele>
        <time>2020-09-12T19:41:01Z</time>
      </trkpt>
      <trkpt lat="43.18204" lon="0.02754">
        <ele>418.6</ele>
        <time>2020-09-12T19:41:04Z</time>
      </trkpt>
      <trkpt lat="43.18197" lon="0.02756">
        <ele>418.7</ele>
        <time>2020-09-12T19:41:06Z</time>
      </trkpt>
      <trkpt lat="43.18194" lon="0.02756">
        <ele>418.5</ele>
        <time>2020-09-12T19:41:07Z</time>
      </trkpt>
      <trkpt lat="43.1819" lon="0.02758">
        <ele>418</ele>
        <time>2020-09-12T19:41:08Z</time>
      </trkpt>
      <trkpt lat="43.18185" lon="0.02759">
        <ele>417.8</ele>
        <time>2020-09-12T19:41:10Z</time>
      </trkpt>
      <trkpt lat="43.1818" lon="0.02757">
        <ele>417.4</ele>
        <time>2020-09-12T19:41:12Z</time>
      </trkpt>
      <trkpt lat="43.18177" lon="0.02756">
        <ele>417.2</ele>
        <time>2020-09-12T19:41:13Z</time>
      </trkpt>
      <trkpt lat="43.18174" lon="0.02753">
        <ele>416.4</ele>
        <time>2020-09-12T19:41:15Z</time>
      </trkpt>
      <trkpt lat="43.18167" lon="0.02752">
        <ele>415.9</ele>
        <time>2020-09-12T19:41:16Z</time>
      </trkpt>
      <trkpt lat="43.18162" lon="0.02752">
        <ele>415.7</ele>
        <time>2020-09-12T19:41:17Z</time>
      </trkpt>
      <trkpt lat="43.18158" lon="0.02752">
        <ele>415.3</ele>
        <time>2020-09-12T19:41:18Z</time>
      </trkpt>
      <trkpt lat="43.18155" lon="0.02751">
        <ele>415.2</ele>
        <time>2020-09-12T19:41:19Z</time>
      </trkpt>
      <trkpt lat="43.18151" lon="0.02749">
        <ele>414.3</ele>
        <time>2020-09-12T19:41:21Z</time>
      </trkpt>
      <trkpt lat="43.18146" lon="0.02746">
        <ele>413.4</ele>
        <time>2020-09-12T19:41:23Z</time>
      </trkpt>
      <trkpt lat="43.18141" lon="0.02744">
        <ele>412.9</ele>
        <time>2020-09-12T19:41:25Z</time>
      </trkpt>
      <trkpt lat="43.18138" lon="0.02742">
        <ele>411.9</ele>
        <time>2020-09-12T19:41:27Z</time>
      </trkpt>
      <trkpt lat="43.18136" lon="0.02744">
        <ele>412.4</ele>
        <time>2020-09-12T19:41:30Z</time>
      </trkpt>
      <trkpt lat="43.18135" lon="0.02749">
        <ele>413.2</ele>
        <time>2020-09-12T19:41:32Z</time>
      </trkpt>
      <trkpt lat="43.18134" lon="0.02754">
        <ele>413.9</ele>
        <time>2020-09-12T19:41:35Z</time>
      </trkpt>
      <trkpt lat="43.1813" lon="0.02754">
        <ele>413.5</ele>
        <time>2020-09-12T19:41:39Z</time>
      </trkpt>
      <trkpt lat="43.18126" lon="0.02755">
        <ele>413.3</ele>
        <time>2020-09-12T19:41:42Z</time>
      </trkpt>
      <trkpt lat="43.18123" lon="0.02757">
        <ele>413.8</ele>
        <time>2020-09-12T19:41:44Z</time>
      </trkpt>
      <trkpt lat="43.1812" lon="0.02758">
        <ele>413.6</ele>
        <time>2020-09-12T19:41:46Z</time>
      </trkpt>
      <trkpt lat="43.18116" lon="0.02759">
        <ele>413.4</ele>
        <time>2020-09-12T19:41:48Z</time>
      </trkpt>
      <trkpt lat="43.18113" lon="0.02759">
        <ele>412.9</ele>
        <time>2020-09-12T19:41:50Z</time>
      </trkpt>
      <trkpt lat="43.1811" lon="0.02761">
        <ele>413.4</ele>
        <time>2020-09-12T19:41:52Z</time>
      </trkpt>
      <trkpt lat="43.18106" lon="0.02763">
        <ele>413.1</ele>
        <time>2020-09-12T19:41:54Z</time>
      </trkpt>
      <trkpt lat="43.18102" lon="0.02767">
        <ele>413.3</ele>
        <time>2020-09-12T19:41:56Z</time>
      </trkpt>
      <trkpt lat="43.18099" lon="0.02769">
        <ele>413.6</ele>
        <time>2020-09-12T19:41:58Z</time>
      </trkpt>
      <trkpt lat="43.18096" lon="0.0277">
        <ele>413.6</ele>
        <time>2020-09-12T19:41:59Z</time>
      </trkpt>
      <trkpt lat="43.18093" lon="0.02773">
        <ele>413.6</ele>
        <time>2020-09-12T19:42:01Z</time>
      </trkpt>
      <trkpt lat="43.1809" lon="0.02779">
        <ele>414.3</ele>
        <time>2020-09-12T19:42:03Z</time>
      </trkpt>
      <trkpt lat="43.18088" lon="0.02783">
        <ele>414.6</ele>
        <time>2020-09-12T19:42:05Z</time>
      </trkpt>
      <trkpt lat="43.18087" lon="0.02787">
        <ele>415.2</ele>
        <time>2020-09-12T19:42:07Z</time>
      </trkpt>
      <trkpt lat="43.18084" lon="0.0279">
        <ele>415.4</ele>
        <time>2020-09-12T19:42:09Z</time>
      </trkpt>
      <trkpt lat="43.18081" lon="0.02795">
        <ele>415.6</ele>
        <time>2020-09-12T19:42:11Z</time>
      </trkpt>
      <trkpt lat="43.18079" lon="0.02798">
        <ele>415.7</ele>
        <time>2020-09-12T19:42:12Z</time>
      </trkpt>
      <trkpt lat="43.18076" lon="0.02802">
        <ele>415.9</ele>
        <time>2020-09-12T19:42:13Z</time>
      </trkpt>
      <trkpt lat="43.18074" lon="0.02807">
        <ele>416.1</ele>
        <time>2020-09-12T19:42:14Z</time>
      </trkpt>
      <trkpt lat="43.18073" lon="0.02813">
        <ele>416.3</ele>
        <time>2020-09-12T19:42:15Z</time>
      </trkpt>
      <trkpt lat="43.18072" lon="0.02818">
        <ele>416.5</ele>
        <time>2020-09-12T19:42:16Z</time>
      </trkpt>
      <trkpt lat="43.18072" lon="0.02823">
        <ele>416.7</ele>
        <time>2020-09-12T19:42:17Z</time>
      </trkpt>
      <trkpt lat="43.18071" lon="0.02827">
        <ele>417</ele>
        <time>2020-09-12T19:42:18Z</time>
      </trkpt>
      <trkpt lat="43.18071" lon="0.02831">
        <ele>417.2</ele>
        <time>2020-09-12T19:42:19Z</time>
      </trkpt>
      <trkpt lat="43.18071" lon="0.02836">
        <ele>417.5</ele>
        <time>2020-09-12T19:42:20Z</time>
      </trkpt>
      <trkpt lat="43.18071" lon="0.02842">
        <ele>417.9</ele>
        <time>2020-09-12T19:42:21Z</time>
      </trkpt>
      <trkpt lat="43.18072" lon="0.02847">
        <ele>418.2</ele>
        <time>2020-09-12T19:42:22Z</time>
      </trkpt>
      <trkpt lat="43.18072" lon="0.02852">
        <ele>418.4</ele>
        <time>2020-09-12T19:42:23Z</time>
      </trkpt>
      <trkpt lat="43.18073" lon="0.02856">
        <ele>418.6</ele>
        <time>2020-09-12T19:42:24Z</time>
      </trkpt>
      <trkpt lat="43.18073" lon="0.02863">
        <ele>418.9</ele>
        <time>2020-09-12T19:42:26Z</time>
      </trkpt>
      <trkpt lat="43.18073" lon="0.0287">
        <ele>419.1</ele>
        <time>2020-09-12T19:42:28Z</time>
      </trkpt>
      <trkpt lat="43.18073" lon="0.02875">
        <ele>419.2</ele>
        <time>2020-09-12T19:42:29Z</time>
      </trkpt>
      <trkpt lat="43.18073" lon="0.02879">
        <ele>419.4</ele>
        <time>2020-09-12T19:42:30Z</time>
      </trkpt>
      <trkpt lat="43.18072" lon="0.02883">
        <ele>419.4</ele>
        <time>2020-09-12T19:42:31Z</time>
      </trkpt>
      <trkpt lat="43.18071" lon="0.02888">
        <ele>419.5</ele>
        <time>2020-09-12T19:42:32Z</time>
      </trkpt>
      <trkpt lat="43.1807" lon="0.02892">
        <ele>419.5</ele>
        <time>2020-09-12T19:42:33Z</time>
      </trkpt>
      <trkpt lat="43.18068" lon="0.02899">
        <ele>419.5</ele>
        <time>2020-09-12T19:42:35Z</time>
      </trkpt>
      <trkpt lat="43.18066" lon="0.02902">
        <ele>419.5</ele>
        <time>2020-09-12T19:42:36Z</time>
      </trkpt>
      <trkpt lat="43.18064" lon="0.02906">
        <ele>419.5</ele>
        <time>2020-09-12T19:42:37Z</time>
      </trkpt>
      <trkpt lat="43.18063" lon="0.02913">
        <ele>419.4</ele>
        <time>2020-09-12T19:42:38Z</time>
      </trkpt>
      <trkpt lat="43.18061" lon="0.02918">
        <ele>419.4</ele>
        <time>2020-09-12T19:42:39Z</time>
      </trkpt>
      <trkpt lat="43.18058" lon="0.02923">
        <ele>419.2</ele>
        <time>2020-09-12T19:42:40Z</time>
      </trkpt>
      <trkpt lat="43.18054" lon="0.02928">
        <ele>419</ele>
        <time>2020-09-12T19:42:41Z</time>
      </trkpt>
      <trkpt lat="43.18048" lon="0.02933">
        <ele>418.7</ele>
        <time>2020-09-12T19:42:42Z</time>
      </trkpt>
      <trkpt lat="43.18045" lon="0.02942">
        <ele>418.4</ele>
        <time>2020-09-12T19:42:43Z</time>
      </trkpt>
      <trkpt lat="43.18041" lon="0.02951">
        <ele>417.9</ele>
        <time>2020-09-12T19:42:44Z</time>
      </trkpt>
      <trkpt lat="43.18038" lon="0.02959">
        <ele>417.2</ele>
        <time>2020-09-12T19:42:45Z</time>
      </trkpt>
      <trkpt lat="43.18035" lon="0.02969">
        <ele>416.4</ele>
        <time>2020-09-12T19:42:46Z</time>
      </trkpt>
      <trkpt lat="43.18032" lon="0.02976">
        <ele>416.5</ele>
        <time>2020-09-12T19:42:47Z</time>
      </trkpt>
      <trkpt lat="43.18031" lon="0.02982">
        <ele>416.6</ele>
        <time>2020-09-12T19:42:48Z</time>
      </trkpt>
      <trkpt lat="43.18029" lon="0.02988">
        <ele>416.7</ele>
        <time>2020-09-12T19:42:49Z</time>
      </trkpt>
      <trkpt lat="43.18026" lon="0.02994">
        <ele>416.7</ele>
        <time>2020-09-12T19:42:50Z</time>
      </trkpt>
      <trkpt lat="43.18024" lon="0.02999">
        <ele>416.7</ele>
        <time>2020-09-12T19:42:51Z</time>
      </trkpt>
      <trkpt lat="43.18022" lon="0.03004">
        <ele>416.6</ele>
        <time>2020-09-12T19:42:52Z</time>
      </trkpt>
      <trkpt lat="43.1802" lon="0.03008">
        <ele>416.6</ele>
        <time>2020-09-12T19:42:53Z</time>
      </trkpt>
      <trkpt lat="43.18018" lon="0.03012">
        <ele>416.5</ele>
        <time>2020-09-12T19:42:54Z</time>
      </trkpt>
      <trkpt lat="43.18016" lon="0.03014">
        <ele>416.5</ele>
        <time>2020-09-12T19:42:55Z</time>
      </trkpt>
      <trkpt lat="43.18012" lon="0.03018">
        <ele>416.4</ele>
        <time>2020-09-12T19:42:57Z</time>
      </trkpt>
      <trkpt lat="43.18006" lon="0.03021">
        <ele>416.3</ele>
        <time>2020-09-12T19:42:58Z</time>
      </trkpt>
      <trkpt lat="43.18001" lon="0.03023">
        <ele>416.2</ele>
        <time>2020-09-12T19:42:59Z</time>
      </trkpt>
      <trkpt lat="43.17995" lon="0.03025">
        <ele>416.1</ele>
        <time>2020-09-12T19:43:00Z</time>
      </trkpt>
      <trkpt lat="43.1799" lon="0.03028">
        <ele>416</ele>
        <time>2020-09-12T19:43:01Z</time>
      </trkpt>
      <trkpt lat="43.17985" lon="0.03029">
        <ele>415.9</ele>
        <time>2020-09-12T19:43:02Z</time>
      </trkpt>
      <trkpt lat="43.17981" lon="0.0303">
        <ele>415.8</ele>
        <time>2020-09-12T19:43:03Z</time>
      </trkpt>
      <trkpt lat="43.17976" lon="0.03032">
        <ele>415.7</ele>
        <time>2020-09-12T19:43:04Z</time>
      </trkpt>
      <trkpt lat="43.17972" lon="0.03033">
        <ele>415.7</ele>
        <time>2020-09-12T19:43:05Z</time>
      </trkpt>
      <trkpt lat="43.17967" lon="0.03034">
        <ele>415.6</ele>
        <time>2020-09-12T19:43:06Z</time>
      </trkpt>
      <trkpt lat="43.17963" lon="0.03036">
        <ele>415.6</ele>
        <time>2020-09-12T19:43:07Z</time>
      </trkpt>
      <trkpt lat="43.1796" lon="0.03037">
        <ele>415.5</ele>
        <time>2020-09-12T19:43:08Z</time>
      </trkpt>
      <trkpt lat="43.17956" lon="0.03038">
        <ele>415.5</ele>
        <time>2020-09-12T19:43:09Z</time>
      </trkpt>
      <trkpt lat="43.17953" lon="0.03039">
        <ele>415.4</ele>
        <time>2020-09-12T19:43:10Z</time>
      </trkpt>
      <trkpt lat="43.1795" lon="0.0304">
        <ele>415.4</ele>
        <time>2020-09-12T19:43:11Z</time>
      </trkpt>
      <trkpt lat="43.17947" lon="0.03041">
        <ele>415.4</ele>
        <time>2020-09-12T19:43:12Z</time>
      </trkpt>
      <trkpt lat="43.17943" lon="0.03041">
        <ele>415.3</ele>
        <time>2020-09-12T19:43:13Z</time>
      </trkpt>
      <trkpt lat="43.17939" lon="0.03042">
        <ele>415.3</ele>
        <time>2020-09-12T19:43:14Z</time>
      </trkpt>
      <trkpt lat="43.17935" lon="0.03043">
        <ele>415.2</ele>
        <time>2020-09-12T19:43:15Z</time>
      </trkpt>
      <trkpt lat="43.17932" lon="0.03045">
        <ele>415.2</ele>
        <time>2020-09-12T19:43:16Z</time>
      </trkpt>
      <trkpt lat="43.17928" lon="0.03046">
        <ele>415.1</ele>
        <time>2020-09-12T19:43:17Z</time>
      </trkpt>
      <trkpt lat="43.17924" lon="0.03047">
        <ele>415.1</ele>
        <time>2020-09-12T19:43:18Z</time>
      </trkpt>
      <trkpt lat="43.17921" lon="0.03047">
        <ele>415</ele>
        <time>2020-09-12T19:43:19Z</time>
      </trkpt>
      <trkpt lat="43.17917" lon="0.03048">
        <ele>414.9</ele>
        <time>2020-09-12T19:43:20Z</time>
      </trkpt>
      <trkpt lat="43.17915" lon="0.03049">
        <ele>414.9</ele>
        <time>2020-09-12T19:43:21Z</time>
      </trkpt>
      <trkpt lat="43.17911" lon="0.03051">
        <ele>414.8</ele>
        <time>2020-09-12T19:43:22Z</time>
      </trkpt>
      <trkpt lat="43.17908" lon="0.03053">
        <ele>414.7</ele>
        <time>2020-09-12T19:43:23Z</time>
      </trkpt>
      <trkpt lat="43.17905" lon="0.03054">
        <ele>414.7</ele>
        <time>2020-09-12T19:43:24Z</time>
      </trkpt>
      <trkpt lat="43.17902" lon="0.03057">
        <ele>414.6</ele>
        <time>2020-09-12T19:43:25Z</time>
      </trkpt>
      <trkpt lat="43.17899" lon="0.0306">
        <ele>414.5</ele>
        <time>2020-09-12T19:43:26Z</time>
      </trkpt>
      <trkpt lat="43.17896" lon="0.03062">
        <ele>414.5</ele>
        <time>2020-09-12T19:43:27Z</time>
      </trkpt>
      <trkpt lat="43.17893" lon="0.03068">
        <ele>414.4</ele>
        <time>2020-09-12T19:43:29Z</time>
      </trkpt>
      <trkpt lat="43.17891" lon="0.03071">
        <ele>414.3</ele>
        <time>2020-09-12T19:43:30Z</time>
      </trkpt>
      <trkpt lat="43.17889" lon="0.03076">
        <ele>414.2</ele>
        <time>2020-09-12T19:43:31Z</time>
      </trkpt>
      <trkpt lat="43.17886" lon="0.03082">
        <ele>414.1</ele>
        <time>2020-09-12T19:43:33Z</time>
      </trkpt>
      <trkpt lat="43.17884" lon="0.03086">
        <ele>414</ele>
        <time>2020-09-12T19:43:34Z</time>
      </trkpt>
      <trkpt lat="43.17881" lon="0.03092">
        <ele>413.8</ele>
        <time>2020-09-12T19:43:35Z</time>
      </trkpt>
      <trkpt lat="43.17879" lon="0.03097">
        <ele>413.7</ele>
        <time>2020-09-12T19:43:36Z</time>
      </trkpt>
      <trkpt lat="43.17877" lon="0.03103">
        <ele>413.6</ele>
        <time>2020-09-12T19:43:37Z</time>
      </trkpt>
      <trkpt lat="43.17876" lon="0.03109">
        <ele>413.5</ele>
        <time>2020-09-12T19:43:38Z</time>
      </trkpt>
      <trkpt lat="43.17874" lon="0.03116">
        <ele>413.4</ele>
        <time>2020-09-12T19:43:39Z</time>
      </trkpt>
      <trkpt lat="43.17872" lon="0.03122">
        <ele>413.2</ele>
        <time>2020-09-12T19:43:40Z</time>
      </trkpt>
      <trkpt lat="43.17871" lon="0.03126">
        <ele>413.2</ele>
        <time>2020-09-12T19:43:41Z</time>
      </trkpt>
      <trkpt lat="43.17869" lon="0.03133">
        <ele>413</ele>
        <time>2020-09-12T19:43:42Z</time>
      </trkpt>
      <trkpt lat="43.17866" lon="0.03139">
        <ele>412.9</ele>
        <time>2020-09-12T19:43:43Z</time>
      </trkpt>
      <trkpt lat="43.17865" lon="0.03146">
        <ele>412.7</ele>
        <time>2020-09-12T19:43:44Z</time>
      </trkpt>
      <trkpt lat="43.17862" lon="0.03152">
        <ele>412.6</ele>
        <time>2020-09-12T19:43:45Z</time>
      </trkpt>
      <trkpt lat="43.1786" lon="0.03158">
        <ele>412.5</ele>
        <time>2020-09-12T19:43:46Z</time>
      </trkpt>
      <trkpt lat="43.17855" lon="0.03162">
        <ele>412.3</ele>
        <time>2020-09-12T19:43:47Z</time>
      </trkpt>
      <trkpt lat="43.1785" lon="0.03164">
        <ele>412.1</ele>
        <time>2020-09-12T19:43:48Z</time>
      </trkpt>
      <trkpt lat="43.17844" lon="0.03165">
        <ele>411.9</ele>
        <time>2020-09-12T19:43:49Z</time>
      </trkpt>
      <trkpt lat="43.17837" lon="0.03166">
        <ele>411.6</ele>
        <time>2020-09-12T19:43:50Z</time>
      </trkpt>
      <trkpt lat="43.17829" lon="0.03169">
        <ele>411.3</ele>
        <time>2020-09-12T19:43:51Z</time>
      </trkpt>
      <trkpt lat="43.17819" lon="0.03172">
        <ele>410.9</ele>
        <time>2020-09-12T19:43:52Z</time>
      </trkpt>
      <trkpt lat="43.17813" lon="0.03178">
        <ele>410.6</ele>
        <time>2020-09-12T19:43:53Z</time>
      </trkpt>
      <trkpt lat="43.17807" lon="0.03182">
        <ele>410.5</ele>
        <time>2020-09-12T19:43:54Z</time>
      </trkpt>
      <trkpt lat="43.17801" lon="0.03186">
        <ele>410.3</ele>
        <time>2020-09-12T19:43:55Z</time>
      </trkpt>
      <trkpt lat="43.17793" lon="0.0319">
        <ele>410.7</ele>
        <time>2020-09-12T19:43:56Z</time>
      </trkpt>
      <trkpt lat="43.17785" lon="0.03193">
        <ele>411.3</ele>
        <time>2020-09-12T19:43:57Z</time>
      </trkpt>
      <trkpt lat="43.17778" lon="0.03195">
        <ele>411.7</ele>
        <time>2020-09-12T19:43:58Z</time>
      </trkpt>
      <trkpt lat="43.1777" lon="0.03197">
        <ele>412</ele>
        <time>2020-09-12T19:43:59Z</time>
      </trkpt>
      <trkpt lat="43.17764" lon="0.03199">
        <ele>412.2</ele>
        <time>2020-09-12T19:44:00Z</time>
      </trkpt>
      <trkpt lat="43.17757" lon="0.03199">
        <ele>412.2</ele>
        <time>2020-09-12T19:44:01Z</time>
      </trkpt>
      <trkpt lat="43.17752" lon="0.03198">
        <ele>412.2</ele>
        <time>2020-09-12T19:44:02Z</time>
      </trkpt>
      <trkpt lat="43.17746" lon="0.03197">
        <ele>412.1</ele>
        <time>2020-09-12T19:44:03Z</time>
      </trkpt>
      <trkpt lat="43.17742" lon="0.03197">
        <ele>412.1</ele>
        <time>2020-09-12T19:44:04Z</time>
      </trkpt>
      <trkpt lat="43.17739" lon="0.03198">
        <ele>412</ele>
        <time>2020-09-12T19:44:05Z</time>
      </trkpt>
      <trkpt lat="43.17734" lon="0.03198">
        <ele>411.9</ele>
        <time>2020-09-12T19:44:07Z</time>
      </trkpt>
      <trkpt lat="43.17733" lon="0.03193">
        <ele>411.9</ele>
        <time>2020-09-12T19:44:10Z</time>
      </trkpt>
      <trkpt lat="43.17732" lon="0.03188">
        <ele>411.8</ele>
        <time>2020-09-12T19:44:13Z</time>
      </trkpt>
      <trkpt lat="43.1773" lon="0.03183">
        <ele>411.8</ele>
        <time>2020-09-12T19:44:16Z</time>
      </trkpt>
      <trkpt lat="43.17729" lon="0.03181">
        <ele>411.7</ele>
        <time>2020-09-12T19:44:18Z</time>
      </trkpt>
      <trkpt lat="43.17725" lon="0.03179">
        <ele>411.7</ele>
        <time>2020-09-12T19:44:20Z</time>
      </trkpt>
      <trkpt lat="43.17721" lon="0.03176">
        <ele>411.6</ele>
        <time>2020-09-12T19:44:22Z</time>
      </trkpt>
      <trkpt lat="43.17717" lon="0.03173">
        <ele>411.4</ele>
        <time>2020-09-12T19:44:24Z</time>
      </trkpt>
      <trkpt lat="43.17713" lon="0.0317">
        <ele>411</ele>
        <time>2020-09-12T19:44:26Z</time>
      </trkpt>
      <trkpt lat="43.1771" lon="0.03166">
        <ele>410.6</ele>
        <time>2020-09-12T19:44:28Z</time>
      </trkpt>
      <trkpt lat="43.17709" lon="0.03162">
        <ele>410.3</ele>
        <time>2020-09-12T19:44:30Z</time>
      </trkpt>
      <trkpt lat="43.17708" lon="0.03156">
        <ele>409.9</ele>
        <time>2020-09-12T19:44:32Z</time>
      </trkpt>
      <trkpt lat="43.17708" lon="0.03149">
        <ele>409.4</ele>
        <time>2020-09-12T19:44:34Z</time>
      </trkpt>
      <trkpt lat="43.1771" lon="0.03146">
        <ele>409.1</ele>
        <time>2020-09-12T19:44:35Z</time>
      </trkpt>
      <trkpt lat="43.17711" lon="0.03142">
        <ele>408.8</ele>
        <time>2020-09-12T19:44:36Z</time>
      </trkpt>
      <trkpt lat="43.17711" lon="0.03138">
        <ele>408.5</ele>
        <time>2020-09-12T19:44:37Z</time>
      </trkpt>
      <trkpt lat="43.17713" lon="0.03133">
        <ele>408.2</ele>
        <time>2020-09-12T19:44:38Z</time>
      </trkpt>
      <trkpt lat="43.17714" lon="0.03129">
        <ele>407.9</ele>
        <time>2020-09-12T19:44:39Z</time>
      </trkpt>
      <trkpt lat="43.17715" lon="0.03124">
        <ele>407.5</ele>
        <time>2020-09-12T19:44:40Z</time>
      </trkpt>
      <trkpt lat="43.17717" lon="0.03119">
        <ele>407.1</ele>
        <time>2020-09-12T19:44:41Z</time>
      </trkpt>
      <trkpt lat="43.17721" lon="0.03113">
        <ele>406.4</ele>
        <time>2020-09-12T19:44:42Z</time>
      </trkpt>
      <trkpt lat="43.17724" lon="0.03109">
        <ele>406</ele>
        <time>2020-09-12T19:44:43Z</time>
      </trkpt>
      <trkpt lat="43.17726" lon="0.03104">
        <ele>405.7</ele>
        <time>2020-09-12T19:44:44Z</time>
      </trkpt>
      <trkpt lat="43.17727" lon="0.03098">
        <ele>405.3</ele>
        <time>2020-09-12T19:44:45Z</time>
      </trkpt>
      <trkpt lat="43.17729" lon="0.03091">
        <ele>404.9</ele>
        <time>2020-09-12T19:44:46Z</time>
      </trkpt>
      <trkpt lat="43.1773" lon="0.03086">
        <ele>404.5</ele>
        <time>2020-09-12T19:44:47Z</time>
      </trkpt>
      <trkpt lat="43.17732" lon="0.03079">
        <ele>404</ele>
        <time>2020-09-12T19:44:48Z</time>
      </trkpt>
      <trkpt lat="43.17733" lon="0.03073">
        <ele>403.6</ele>
        <time>2020-09-12T19:44:49Z</time>
      </trkpt>
      <trkpt lat="43.17734" lon="0.03067">
        <ele>403.4</ele>
        <time>2020-09-12T19:44:50Z</time>
      </trkpt>
      <trkpt lat="43.17733" lon="0.0306">
        <ele>403</ele>
        <time>2020-09-12T19:44:51Z</time>
      </trkpt>
      <trkpt lat="43.17732" lon="0.03053">
        <ele>402.7</ele>
        <time>2020-09-12T19:44:52Z</time>
      </trkpt>
      <trkpt lat="43.17729" lon="0.03045">
        <ele>402.2</ele>
        <time>2020-09-12T19:44:53Z</time>
      </trkpt>
      <trkpt lat="43.17727" lon="0.0304">
        <ele>401.9</ele>
        <time>2020-09-12T19:44:54Z</time>
      </trkpt>
      <trkpt lat="43.17726" lon="0.03036">
        <ele>401.6</ele>
        <time>2020-09-12T19:44:55Z</time>
      </trkpt>
      <trkpt lat="43.17725" lon="0.03031">
        <ele>401.2</ele>
        <time>2020-09-12T19:44:56Z</time>
      </trkpt>
      <trkpt lat="43.17723" lon="0.03026">
        <ele>400.8</ele>
        <time>2020-09-12T19:44:57Z</time>
      </trkpt>
      <trkpt lat="43.17722" lon="0.03021">
        <ele>400.3</ele>
        <time>2020-09-12T19:44:58Z</time>
      </trkpt>
      <trkpt lat="43.17721" lon="0.03017">
        <ele>399.9</ele>
        <time>2020-09-12T19:44:59Z</time>
      </trkpt>
      <trkpt lat="43.17721" lon="0.03012">
        <ele>399</ele>
        <time>2020-09-12T19:45:00Z</time>
      </trkpt>
      <trkpt lat="43.17721" lon="0.03007">
        <ele>398.2</ele>
        <time>2020-09-12T19:45:01Z</time>
      </trkpt>
      <trkpt lat="43.17721" lon="0.03002">
        <ele>397.3</ele>
        <time>2020-09-12T19:45:02Z</time>
      </trkpt>
      <trkpt lat="43.17721" lon="0.02998">
        <ele>396.5</ele>
        <time>2020-09-12T19:45:03Z</time>
      </trkpt>
      <trkpt lat="43.17721" lon="0.02993">
        <ele>395.7</ele>
        <time>2020-09-12T19:45:04Z</time>
      </trkpt>
      <trkpt lat="43.1772" lon="0.0299">
        <ele>394.8</ele>
        <time>2020-09-12T19:45:05Z</time>
      </trkpt>
      <trkpt lat="43.17717" lon="0.02987">
        <ele>394.6</ele>
        <time>2020-09-12T19:45:07Z</time>
      </trkpt>
      <trkpt lat="43.17715" lon="0.02987">
        <ele>393.7</ele>
        <time>2020-09-12T19:45:09Z</time>
      </trkpt>
      <trkpt lat="43.17712" lon="0.02985">
        <ele>393.5</ele>
        <time>2020-09-12T19:45:10Z</time>
      </trkpt>
      <trkpt lat="43.17708" lon="0.02986">
        <ele>393.1</ele>
        <time>2020-09-12T19:45:12Z</time>
      </trkpt>
      <trkpt lat="43.17702" lon="0.02986">
        <ele>392.8</ele>
        <time>2020-09-12T19:45:14Z</time>
      </trkpt>
      <trkpt lat="43.17697" lon="0.02987">
        <ele>392.5</ele>
        <time>2020-09-12T19:45:15Z</time>
      </trkpt>
      <trkpt lat="43.17693" lon="0.02988">
        <ele>393.1</ele>
        <time>2020-09-12T19:45:16Z</time>
      </trkpt>
      <trkpt lat="43.17689" lon="0.0299">
        <ele>392.8</ele>
        <time>2020-09-12T19:45:17Z</time>
      </trkpt>
      <trkpt lat="43.17686" lon="0.02994">
        <ele>393.4</ele>
        <time>2020-09-12T19:45:18Z</time>
      </trkpt>
      <trkpt lat="43.17683" lon="0.02997">
        <ele>394.1</ele>
        <time>2020-09-12T19:45:19Z</time>
      </trkpt>
      <trkpt lat="43.17679" lon="0.03">
        <ele>394.9</ele>
        <time>2020-09-12T19:45:20Z</time>
      </trkpt>
      <trkpt lat="43.17676" lon="0.03003">
        <ele>394.6</ele>
        <time>2020-09-12T19:45:21Z</time>
      </trkpt>
      <trkpt lat="43.17671" lon="0.03005">
        <ele>395.4</ele>
        <time>2020-09-12T19:45:22Z</time>
      </trkpt>
      <trkpt lat="43.17666" lon="0.03007">
        <ele>395</ele>
        <time>2020-09-12T19:45:23Z</time>
      </trkpt>
      <trkpt lat="43.17663" lon="0.03008">
        <ele>394.7</ele>
        <time>2020-09-12T19:45:24Z</time>
      </trkpt>
      <trkpt lat="43.17659" lon="0.03009">
        <ele>395.5</ele>
        <time>2020-09-12T19:45:25Z</time>
      </trkpt>
      <trkpt lat="43.17655" lon="0.0301">
        <ele>395.3</ele>
        <time>2020-09-12T19:45:26Z</time>
      </trkpt>
      <trkpt lat="43.17652" lon="0.0301">
        <ele>395.1</ele>
        <time>2020-09-12T19:45:27Z</time>
      </trkpt>
      <trkpt lat="43.17649" lon="0.03011">
        <ele>394.9</ele>
        <time>2020-09-12T19:45:28Z</time>
      </trkpt>
      <trkpt lat="43.17646" lon="0.03013">
        <ele>394.7</ele>
        <time>2020-09-12T19:45:29Z</time>
      </trkpt>
      <trkpt lat="43.17643" lon="0.03013">
        <ele>395.6</ele>
        <time>2020-09-12T19:45:30Z</time>
      </trkpt>
      <trkpt lat="43.17639" lon="0.03015">
        <ele>395.3</ele>
        <time>2020-09-12T19:45:31Z</time>
      </trkpt>
      <trkpt lat="43.17636" lon="0.03017">
        <ele>396.2</ele>
        <time>2020-09-12T19:45:32Z</time>
      </trkpt>
      <trkpt lat="43.17634" lon="0.03022">
        <ele>397.1</ele>
        <time>2020-09-12T19:45:33Z</time>
      </trkpt>
      <trkpt lat="43.17631" lon="0.03026">
        <ele>397.8</ele>
        <time>2020-09-12T19:45:35Z</time>
      </trkpt>
      <trkpt lat="43.17627" lon="0.03028">
        <ele>397.6</ele>
        <time>2020-09-12T19:45:37Z</time>
      </trkpt>
      <trkpt lat="43.17624" lon="0.03027">
        <ele>397.2</ele>
        <time>2020-09-12T19:45:40Z</time>
      </trkpt>
      <trkpt lat="43.17623" lon="0.03021">
        <ele>395.8</ele>
        <time>2020-09-12T19:45:42Z</time>
      </trkpt>
      <trkpt lat="43.17622" lon="0.03017">
        <ele>395.3</ele>
        <time>2020-09-12T19:45:43Z</time>
      </trkpt>
      <trkpt lat="43.17621" lon="0.03011">
        <ele>394.7</ele>
        <time>2020-09-12T19:45:44Z</time>
      </trkpt>
      <trkpt lat="43.1762" lon="0.03008">
        <ele>394.3</ele>
        <time>2020-09-12T19:45:45Z</time>
      </trkpt>
      <trkpt lat="43.17618" lon="0.03003">
        <ele>393.7</ele>
        <time>2020-09-12T19:45:46Z</time>
      </trkpt>
      <trkpt lat="43.17615" lon="0.02998">
        <ele>393</ele>
        <time>2020-09-12T19:45:48Z</time>
      </trkpt>
      <trkpt lat="43.17613" lon="0.02995">
        <ele>392.4</ele>
        <time>2020-09-12T19:45:50Z</time>
      </trkpt>
      <trkpt lat="43.17609" lon="0.02991">
        <ele>391.5</ele>
        <time>2020-09-12T19:45:54Z</time>
      </trkpt>
      <trkpt lat="43.17606" lon="0.02991">
        <ele>390.9</ele>
        <time>2020-09-12T19:45:57Z</time>
      </trkpt>
      <trkpt lat="43.17603" lon="0.02991">
        <ele>390.4</ele>
        <time>2020-09-12T19:45:59Z</time>
      </trkpt>
      <trkpt lat="43.17599" lon="0.02991">
        <ele>389.4</ele>
        <time>2020-09-12T19:46:01Z</time>
      </trkpt>
      <trkpt lat="43.17596" lon="0.0299">
        <ele>388.7</ele>
        <time>2020-09-12T19:46:02Z</time>
      </trkpt>
      <trkpt lat="43.17593" lon="0.02989">
        <ele>388</ele>
        <time>2020-09-12T19:46:03Z</time>
      </trkpt>
      <trkpt lat="43.1759" lon="0.02988">
        <ele>387.3</ele>
        <time>2020-09-12T19:46:04Z</time>
      </trkpt>
      <trkpt lat="43.17586" lon="0.02987">
        <ele>386.4</ele>
        <time>2020-09-12T19:46:06Z</time>
      </trkpt>
      <trkpt lat="43.17582" lon="0.02985">
        <ele>385.6</ele>
        <time>2020-09-12T19:46:07Z</time>
      </trkpt>
      <trkpt lat="43.17579" lon="0.02984">
        <ele>385.2</ele>
        <time>2020-09-12T19:46:08Z</time>
      </trkpt>
      <trkpt lat="43.17576" lon="0.02983">
        <ele>384.6</ele>
        <time>2020-09-12T19:46:09Z</time>
      </trkpt>
      <trkpt lat="43.17571" lon="0.02983">
        <ele>384</ele>
        <time>2020-09-12T19:46:10Z</time>
      </trkpt>
      <trkpt lat="43.17567" lon="0.02984">
        <ele>383.3</ele>
        <time>2020-09-12T19:46:11Z</time>
      </trkpt>
      <trkpt lat="43.17563" lon="0.02984">
        <ele>382.5</ele>
        <time>2020-09-12T19:46:12Z</time>
      </trkpt>
      <trkpt lat="43.17559" lon="0.02985">
        <ele>381.8</ele>
        <time>2020-09-12T19:46:13Z</time>
      </trkpt>
      <trkpt lat="43.17552" lon="0.02989">
        <ele>380.9</ele>
        <time>2020-09-12T19:46:14Z</time>
      </trkpt>
      <trkpt lat="43.17548" lon="0.02992">
        <ele>380.3</ele>
        <time>2020-09-12T19:46:15Z</time>
      </trkpt>
      <trkpt lat="43.17543" lon="0.02994">
        <ele>380</ele>
        <time>2020-09-12T19:46:16Z</time>
      </trkpt>
      <trkpt lat="43.17538" lon="0.02996">
        <ele>379.7</ele>
        <time>2020-09-12T19:46:17Z</time>
      </trkpt>
      <trkpt lat="43.17533" lon="0.02996">
        <ele>379.4</ele>
        <time>2020-09-12T19:46:18Z</time>
      </trkpt>
      <trkpt lat="43.17529" lon="0.02996">
        <ele>379.3</ele>
        <time>2020-09-12T19:46:19Z</time>
      </trkpt>
      <trkpt lat="43.17525" lon="0.02996">
        <ele>379.2</ele>
        <time>2020-09-12T19:46:20Z</time>
      </trkpt>
      <trkpt lat="43.17521" lon="0.02996">
        <ele>379</ele>
        <time>2020-09-12T19:46:21Z</time>
      </trkpt>
      <trkpt lat="43.17518" lon="0.02993">
        <ele>378.9</ele>
        <time>2020-09-12T19:46:22Z</time>
      </trkpt>
      <trkpt lat="43.17514" lon="0.02992">
        <ele>378.8</ele>
        <time>2020-09-12T19:46:23Z</time>
      </trkpt>
      <trkpt lat="43.1751" lon="0.02991">
        <ele>378.7</ele>
        <time>2020-09-12T19:46:24Z</time>
      </trkpt>
      <trkpt lat="43.17507" lon="0.0299">
        <ele>378.6</ele>
        <time>2020-09-12T19:46:25Z</time>
      </trkpt>
      <trkpt lat="43.17504" lon="0.0299">
        <ele>378.4</ele>
        <time>2020-09-12T19:46:26Z</time>
      </trkpt>
      <trkpt lat="43.175" lon="0.0299">
        <ele>378.2</ele>
        <time>2020-09-12T19:46:27Z</time>
      </trkpt>
      <trkpt lat="43.17496" lon="0.02992">
        <ele>377.9</ele>
        <time>2020-09-12T19:46:28Z</time>
      </trkpt>
      <trkpt lat="43.17493" lon="0.02994">
        <ele>377.7</ele>
        <time>2020-09-12T19:46:29Z</time>
      </trkpt>
      <trkpt lat="43.17489" lon="0.02995">
        <ele>377.4</ele>
        <time>2020-09-12T19:46:30Z</time>
      </trkpt>
      <trkpt lat="43.17484" lon="0.02997">
        <ele>376.9</ele>
        <time>2020-09-12T19:46:31Z</time>
      </trkpt>
      <trkpt lat="43.1748" lon="0.02999">
        <ele>376.4</ele>
        <time>2020-09-12T19:46:32Z</time>
      </trkpt>
      <trkpt lat="43.17476" lon="0.03002">
        <ele>376</ele>
        <time>2020-09-12T19:46:33Z</time>
      </trkpt>
      <trkpt lat="43.17472" lon="0.03004">
        <ele>375.6</ele>
        <time>2020-09-12T19:46:34Z</time>
      </trkpt>
      <trkpt lat="43.17469" lon="0.03006">
        <ele>375.3</ele>
        <time>2020-09-12T19:46:35Z</time>
      </trkpt>
      <trkpt lat="43.17465" lon="0.03008">
        <ele>375</ele>
        <time>2020-09-12T19:46:36Z</time>
      </trkpt>
      <trkpt lat="43.17463" lon="0.03011">
        <ele>374.8</ele>
        <time>2020-09-12T19:46:37Z</time>
      </trkpt>
      <trkpt lat="43.1746" lon="0.03013">
        <ele>374.6</ele>
        <time>2020-09-12T19:46:38Z</time>
      </trkpt>
      <trkpt lat="43.17457" lon="0.03015">
        <ele>374.4</ele>
        <time>2020-09-12T19:46:39Z</time>
      </trkpt>
      <trkpt lat="43.17454" lon="0.03015">
        <ele>374.2</ele>
        <time>2020-09-12T19:46:40Z</time>
      </trkpt>
      <trkpt lat="43.17451" lon="0.03015">
        <ele>374</ele>
        <time>2020-09-12T19:46:41Z</time>
      </trkpt>
      <trkpt lat="43.17446" lon="0.03018">
        <ele>373.6</ele>
        <time>2020-09-12T19:46:43Z</time>
      </trkpt>
      <trkpt lat="43.17443" lon="0.0302">
        <ele>373.4</ele>
        <time>2020-09-12T19:46:44Z</time>
      </trkpt>
      <trkpt lat="43.17439" lon="0.0302">
        <ele>373</ele>
        <time>2020-09-12T19:46:45Z</time>
      </trkpt>
      <trkpt lat="43.17434" lon="0.03021">
        <ele>372.6</ele>
        <time>2020-09-12T19:46:46Z</time>
      </trkpt>
      <trkpt lat="43.17431" lon="0.03019">
        <ele>372.2</ele>
        <time>2020-09-12T19:46:47Z</time>
      </trkpt>
      <trkpt lat="43.17428" lon="0.03017">
        <ele>371.8</ele>
        <time>2020-09-12T19:46:48Z</time>
      </trkpt>
      <trkpt lat="43.17427" lon="0.03011">
        <ele>370.8</ele>
        <time>2020-09-12T19:46:50Z</time>
      </trkpt>
      <trkpt lat="43.17428" lon="0.03004">
        <ele>369.3</ele>
        <time>2020-09-12T19:46:52Z</time>
      </trkpt>
      <trkpt lat="43.17429" lon="0.02998">
        <ele>368</ele>
        <time>2020-09-12T19:46:53Z</time>
      </trkpt>
      <trkpt lat="43.17428" lon="0.02994">
        <ele>366.9</ele>
        <time>2020-09-12T19:46:54Z</time>
      </trkpt>
      <trkpt lat="43.17426" lon="0.02989">
        <ele>365.8</ele>
        <time>2020-09-12T19:46:55Z</time>
      </trkpt>
      <trkpt lat="43.17423" lon="0.02986">
        <ele>364.6</ele>
        <time>2020-09-12T19:46:56Z</time>
      </trkpt>
      <trkpt lat="43.17418" lon="0.02982">
        <ele>363.3</ele>
        <time>2020-09-12T19:46:57Z</time>
      </trkpt>
      <trkpt lat="43.17412" lon="0.02974">
        <ele>361.9</ele>
        <time>2020-09-12T19:46:58Z</time>
      </trkpt>
      <trkpt lat="43.17407" lon="0.02969">
        <ele>360.9</ele>
        <time>2020-09-12T19:46:59Z</time>
      </trkpt>
      <trkpt lat="43.17402" lon="0.02963">
        <ele>359.7</ele>
        <time>2020-09-12T19:47:00Z</time>
      </trkpt>
      <trkpt lat="43.17397" lon="0.02959">
        <ele>358.5</ele>
        <time>2020-09-12T19:47:01Z</time>
      </trkpt>
      <trkpt lat="43.17392" lon="0.02954">
        <ele>357.5</ele>
        <time>2020-09-12T19:47:02Z</time>
      </trkpt>
      <trkpt lat="43.17388" lon="0.0295">
        <ele>356.7</ele>
        <time>2020-09-12T19:47:03Z</time>
      </trkpt>
      <trkpt lat="43.17385" lon="0.02947">
        <ele>356</ele>
        <time>2020-09-12T19:47:04Z</time>
      </trkpt>
      <trkpt lat="43.17382" lon="0.02944">
        <ele>355.4</ele>
        <time>2020-09-12T19:47:05Z</time>
      </trkpt>
      <trkpt lat="43.17379" lon="0.0294">
        <ele>354.8</ele>
        <time>2020-09-12T19:47:06Z</time>
      </trkpt>
      <trkpt lat="43.17376" lon="0.02937">
        <ele>354.3</ele>
        <time>2020-09-12T19:47:07Z</time>
      </trkpt>
      <trkpt lat="43.17375" lon="0.02934">
        <ele>353.9</ele>
        <time>2020-09-12T19:47:08Z</time>
      </trkpt>
      <trkpt lat="43.17375" lon="0.02929">
        <ele>353.4</ele>
        <time>2020-09-12T19:47:09Z</time>
      </trkpt>
      <trkpt lat="43.17376" lon="0.02924">
        <ele>352.7</ele>
        <time>2020-09-12T19:47:10Z</time>
      </trkpt>
      <trkpt lat="43.17377" lon="0.02918">
        <ele>351.9</ele>
        <time>2020-09-12T19:47:11Z</time>
      </trkpt>
      <trkpt lat="43.17379" lon="0.0291">
        <ele>349.6</ele>
        <time>2020-09-12T19:47:12Z</time>
      </trkpt>
      <trkpt lat="43.17382" lon="0.02902">
        <ele>348.8</ele>
        <time>2020-09-12T19:47:13Z</time>
      </trkpt>
      <trkpt lat="43.17385" lon="0.02892">
        <ele>347.9</ele>
        <time>2020-09-12T19:47:14Z</time>
      </trkpt>
      <trkpt lat="43.17389" lon="0.02882">
        <ele>346.9</ele>
        <time>2020-09-12T19:47:15Z</time>
      </trkpt>
      <trkpt lat="43.17394" lon="0.02872">
        <ele>346</ele>
        <time>2020-09-12T19:47:16Z</time>
      </trkpt>
      <trkpt lat="43.17399" lon="0.02861">
        <ele>345.3</ele>
        <time>2020-09-12T19:47:17Z</time>
      </trkpt>
      <trkpt lat="43.17405" lon="0.02851">
        <ele>344.5</ele>
        <time>2020-09-12T19:47:18Z</time>
      </trkpt>
      <trkpt lat="43.1741" lon="0.02843">
        <ele>343.9</ele>
        <time>2020-09-12T19:47:19Z</time>
      </trkpt>
      <trkpt lat="43.17417" lon="0.02837">
        <ele>343.3</ele>
        <time>2020-09-12T19:47:20Z</time>
      </trkpt>
      <trkpt lat="43.17425" lon="0.02833">
        <ele>342.9</ele>
        <time>2020-09-12T19:47:21Z</time>
      </trkpt>
      <trkpt lat="43.17432" lon="0.02829">
        <ele>342.6</ele>
        <time>2020-09-12T19:47:22Z</time>
      </trkpt>
      <trkpt lat="43.17439" lon="0.02825">
        <ele>342.3</ele>
        <time>2020-09-12T19:47:23Z</time>
      </trkpt>
      <trkpt lat="43.17446" lon="0.02822">
        <ele>342</ele>
        <time>2020-09-12T19:47:24Z</time>
      </trkpt>
      <trkpt lat="43.17452" lon="0.02816">
        <ele>341.7</ele>
        <time>2020-09-12T19:47:25Z</time>
      </trkpt>
      <trkpt lat="43.17456" lon="0.02809">
        <ele>341.5</ele>
        <time>2020-09-12T19:47:26Z</time>
      </trkpt>
      <trkpt lat="43.17461" lon="0.02802">
        <ele>341.3</ele>
        <time>2020-09-12T19:47:27Z</time>
      </trkpt>
      <trkpt lat="43.17463" lon="0.02792">
        <ele>341.2</ele>
        <time>2020-09-12T19:47:28Z</time>
      </trkpt>
      <trkpt lat="43.17465" lon="0.02783">
        <ele>341.1</ele>
        <time>2020-09-12T19:47:29Z</time>
      </trkpt>
      <trkpt lat="43.17467" lon="0.02773">
        <ele>340.9</ele>
        <time>2020-09-12T19:47:30Z</time>
      </trkpt>
      <trkpt lat="43.1747" lon="0.02762">
        <ele>340.6</ele>
        <time>2020-09-12T19:47:31Z</time>
      </trkpt>
      <trkpt lat="43.17472" lon="0.02751">
        <ele>340.4</ele>
        <time>2020-09-12T19:47:32Z</time>
      </trkpt>
      <trkpt lat="43.17474" lon="0.02739">
        <ele>340.1</ele>
        <time>2020-09-12T19:47:33Z</time>
      </trkpt>
      <trkpt lat="43.17475" lon="0.02727">
        <ele>339.9</ele>
        <time>2020-09-12T19:47:34Z</time>
      </trkpt>
      <trkpt lat="43.1748" lon="0.02717">
        <ele>339.7</ele>
        <time>2020-09-12T19:47:35Z</time>
      </trkpt>
      <trkpt lat="43.17482" lon="0.02706">
        <ele>339.5</ele>
        <time>2020-09-12T19:47:36Z</time>
      </trkpt>
      <trkpt lat="43.17484" lon="0.02694">
        <ele>339.4</ele>
        <time>2020-09-12T19:47:37Z</time>
      </trkpt>
      <trkpt lat="43.17486" lon="0.02684">
        <ele>339.2</ele>
        <time>2020-09-12T19:47:38Z</time>
      </trkpt>
      <trkpt lat="43.17488" lon="0.02673">
        <ele>339.1</ele>
        <time>2020-09-12T19:47:39Z</time>
      </trkpt>
      <trkpt lat="43.17488" lon="0.02661">
        <ele>338.8</ele>
        <time>2020-09-12T19:47:40Z</time>
      </trkpt>
      <trkpt lat="43.17491" lon="0.02651">
        <ele>338.6</ele>
        <time>2020-09-12T19:47:41Z</time>
      </trkpt>
      <trkpt lat="43.17493" lon="0.0264">
        <ele>338.4</ele>
        <time>2020-09-12T19:47:42Z</time>
      </trkpt>
      <trkpt lat="43.17496" lon="0.0263">
        <ele>338.1</ele>
        <time>2020-09-12T19:47:43Z</time>
      </trkpt>
      <trkpt lat="43.175" lon="0.02621">
        <ele>337.9</ele>
        <time>2020-09-12T19:47:44Z</time>
      </trkpt>
      <trkpt lat="43.17503" lon="0.02611">
        <ele>337.7</ele>
        <time>2020-09-12T19:47:45Z</time>
      </trkpt>
      <trkpt lat="43.17507" lon="0.02601">
        <ele>337.5</ele>
        <time>2020-09-12T19:47:46Z</time>
      </trkpt>
      <trkpt lat="43.17509" lon="0.02591">
        <ele>337.4</ele>
        <time>2020-09-12T19:47:47Z</time>
      </trkpt>
      <trkpt lat="43.17512" lon="0.02581">
        <ele>337.3</ele>
        <time>2020-09-12T19:47:48Z</time>
      </trkpt>
      <trkpt lat="43.17516" lon="0.02572">
        <ele>337.3</ele>
        <time>2020-09-12T19:47:49Z</time>
      </trkpt>
      <trkpt lat="43.1752" lon="0.02563">
        <ele>337.3</ele>
        <time>2020-09-12T19:47:50Z</time>
      </trkpt>
      <trkpt lat="43.17525" lon="0.02555">
        <ele>337.3</ele>
        <time>2020-09-12T19:47:51Z</time>
      </trkpt>
      <trkpt lat="43.1753" lon="0.02548">
        <ele>337.4</ele>
        <time>2020-09-12T19:47:52Z</time>
      </trkpt>
      <trkpt lat="43.17536" lon="0.02542">
        <ele>337.5</ele>
        <time>2020-09-12T19:47:53Z</time>
      </trkpt>
      <trkpt lat="43.17542" lon="0.02537">
        <ele>337.6</ele>
        <time>2020-09-12T19:47:54Z</time>
      </trkpt>
      <trkpt lat="43.17548" lon="0.02531">
        <ele>337.8</ele>
        <time>2020-09-12T19:47:55Z</time>
      </trkpt>
      <trkpt lat="43.17554" lon="0.02524">
        <ele>338</ele>
        <time>2020-09-12T19:47:56Z</time>
      </trkpt>
      <trkpt lat="43.17558" lon="0.02517">
        <ele>338.3</ele>
        <time>2020-09-12T19:47:57Z</time>
      </trkpt>
      <trkpt lat="43.17562" lon="0.02508">
        <ele>338.4</ele>
        <time>2020-09-12T19:47:58Z</time>
      </trkpt>
      <trkpt lat="43.17565" lon="0.02498">
        <ele>338.6</ele>
        <time>2020-09-12T19:47:59Z</time>
      </trkpt>
      <trkpt lat="43.17567" lon="0.02489">
        <ele>338.6</ele>
        <time>2020-09-12T19:48:00Z</time>
      </trkpt>
      <trkpt lat="43.17571" lon="0.0248">
        <ele>338.6</ele>
        <time>2020-09-12T19:48:01Z</time>
      </trkpt>
      <trkpt lat="43.17575" lon="0.02472">
        <ele>338.6</ele>
        <time>2020-09-12T19:48:02Z</time>
      </trkpt>
      <trkpt lat="43.1758" lon="0.02464">
        <ele>338.6</ele>
        <time>2020-09-12T19:48:03Z</time>
      </trkpt>
      <trkpt lat="43.17585" lon="0.02456">
        <ele>338.5</ele>
        <time>2020-09-12T19:48:04Z</time>
      </trkpt>
      <trkpt lat="43.1759" lon="0.02448">
        <ele>338.5</ele>
        <time>2020-09-12T19:48:05Z</time>
      </trkpt>
      <trkpt lat="43.17595" lon="0.02439">
        <ele>338.4</ele>
        <time>2020-09-12T19:48:06Z</time>
      </trkpt>
      <trkpt lat="43.176" lon="0.02431">
        <ele>338.1</ele>
        <time>2020-09-12T19:48:07Z</time>
      </trkpt>
      <trkpt lat="43.17604" lon="0.02423">
        <ele>337.8</ele>
        <time>2020-09-12T19:48:08Z</time>
      </trkpt>
      <trkpt lat="43.17607" lon="0.02414">
        <ele>337.3</ele>
        <time>2020-09-12T19:48:09Z</time>
      </trkpt>
      <trkpt lat="43.17607" lon="0.02404">
        <ele>336.8</ele>
        <time>2020-09-12T19:48:10Z</time>
      </trkpt>
      <trkpt lat="43.17606" lon="0.02394">
        <ele>336.3</ele>
        <time>2020-09-12T19:48:11Z</time>
      </trkpt>
      <trkpt lat="43.17605" lon="0.02383">
        <ele>335.7</ele>
        <time>2020-09-12T19:48:12Z</time>
      </trkpt>
      <trkpt lat="43.17603" lon="0.02372">
        <ele>335.3</ele>
        <time>2020-09-12T19:48:13Z</time>
      </trkpt>
      <trkpt lat="43.176" lon="0.02361">
        <ele>335</ele>
        <time>2020-09-12T19:48:14Z</time>
      </trkpt>
      <trkpt lat="43.17598" lon="0.02349">
        <ele>334.6</ele>
        <time>2020-09-12T19:48:15Z</time>
      </trkpt>
      <trkpt lat="43.17596" lon="0.02338">
        <ele>334.3</ele>
        <time>2020-09-12T19:48:16Z</time>
      </trkpt>
      <trkpt lat="43.17594" lon="0.02327">
        <ele>334.1</ele>
        <time>2020-09-12T19:48:17Z</time>
      </trkpt>
      <trkpt lat="43.17592" lon="0.02317">
        <ele>334</ele>
        <time>2020-09-12T19:48:18Z</time>
      </trkpt>
      <trkpt lat="43.17589" lon="0.02307">
        <ele>334</ele>
        <time>2020-09-12T19:48:19Z</time>
      </trkpt>
      <trkpt lat="43.17587" lon="0.02298">
        <ele>334</ele>
        <time>2020-09-12T19:48:20Z</time>
      </trkpt>
      <trkpt lat="43.17583" lon="0.02289">
        <ele>334.1</ele>
        <time>2020-09-12T19:48:21Z</time>
      </trkpt>
      <trkpt lat="43.17579" lon="0.02281">
        <ele>334.3</ele>
        <time>2020-09-12T19:48:22Z</time>
      </trkpt>
      <trkpt lat="43.17576" lon="0.02272">
        <ele>334.5</ele>
        <time>2020-09-12T19:48:23Z</time>
      </trkpt>
      <trkpt lat="43.17572" lon="0.02264">
        <ele>334.8</ele>
        <time>2020-09-12T19:48:24Z</time>
      </trkpt>
      <trkpt lat="43.17569" lon="0.02256">
        <ele>334.9</ele>
        <time>2020-09-12T19:48:25Z</time>
      </trkpt>
      <trkpt lat="43.17565" lon="0.02249">
        <ele>335.1</ele>
        <time>2020-09-12T19:48:26Z</time>
      </trkpt>
      <trkpt lat="43.17561" lon="0.02241">
        <ele>335.2</ele>
        <time>2020-09-12T19:48:27Z</time>
      </trkpt>
      <trkpt lat="43.17558" lon="0.02234">
        <ele>335.3</ele>
        <time>2020-09-12T19:48:28Z</time>
      </trkpt>
      <trkpt lat="43.17555" lon="0.02226">
        <ele>335.3</ele>
        <time>2020-09-12T19:48:29Z</time>
      </trkpt>
      <trkpt lat="43.17551" lon="0.02217">
        <ele>335.3</ele>
        <time>2020-09-12T19:48:30Z</time>
      </trkpt>
      <trkpt lat="43.17546" lon="0.02209">
        <ele>335.4</ele>
        <time>2020-09-12T19:48:31Z</time>
      </trkpt>
      <trkpt lat="43.17541" lon="0.02201">
        <ele>335.5</ele>
        <time>2020-09-12T19:48:32Z</time>
      </trkpt>
      <trkpt lat="43.17536" lon="0.02194">
        <ele>335.7</ele>
        <time>2020-09-12T19:48:33Z</time>
      </trkpt>
      <trkpt lat="43.1753" lon="0.02189">
        <ele>336.3</ele>
        <time>2020-09-12T19:48:34Z</time>
      </trkpt>
      <trkpt lat="43.17525" lon="0.02183">
        <ele>337.2</ele>
        <time>2020-09-12T19:48:35Z</time>
      </trkpt>
      <trkpt lat="43.1752" lon="0.02177">
        <ele>338</ele>
        <time>2020-09-12T19:48:36Z</time>
      </trkpt>
      <trkpt lat="43.17515" lon="0.02172">
        <ele>338.6</ele>
        <time>2020-09-12T19:48:37Z</time>
      </trkpt>
      <trkpt lat="43.17511" lon="0.02168">
        <ele>339.1</ele>
        <time>2020-09-12T19:48:38Z</time>
      </trkpt>
      <trkpt lat="43.17506" lon="0.02164">
        <ele>339.5</ele>
        <time>2020-09-12T19:48:39Z</time>
      </trkpt>
      <trkpt lat="43.17502" lon="0.02161">
        <ele>339.9</ele>
        <time>2020-09-12T19:48:40Z</time>
      </trkpt>
      <trkpt lat="43.17498" lon="0.02157">
        <ele>340.4</ele>
        <time>2020-09-12T19:48:41Z</time>
      </trkpt>
      <trkpt lat="43.17494" lon="0.02154">
        <ele>340.8</ele>
        <time>2020-09-12T19:48:42Z</time>
      </trkpt>
      <trkpt lat="43.1749" lon="0.02152">
        <ele>341.1</ele>
        <time>2020-09-12T19:48:43Z</time>
      </trkpt>
      <trkpt lat="43.17486" lon="0.02149">
        <ele>341.5</ele>
        <time>2020-09-12T19:48:44Z</time>
      </trkpt>
      <trkpt lat="43.17483" lon="0.02147">
        <ele>341.8</ele>
        <time>2020-09-12T19:48:45Z</time>
      </trkpt>
      <trkpt lat="43.17479" lon="0.02144">
        <ele>342.1</ele>
        <time>2020-09-12T19:48:46Z</time>
      </trkpt>
      <trkpt lat="43.17476" lon="0.02142">
        <ele>342.3</ele>
        <time>2020-09-12T19:48:47Z</time>
      </trkpt>
      <trkpt lat="43.17472" lon="0.0214">
        <ele>342.6</ele>
        <time>2020-09-12T19:48:48Z</time>
      </trkpt>
      <trkpt lat="43.17469" lon="0.02139">
        <ele>342.8</ele>
        <time>2020-09-12T19:48:49Z</time>
      </trkpt>
      <trkpt lat="43.17465" lon="0.02136">
        <ele>343.1</ele>
        <time>2020-09-12T19:48:50Z</time>
      </trkpt>
      <trkpt lat="43.17462" lon="0.02134">
        <ele>343.4</ele>
        <time>2020-09-12T19:48:51Z</time>
      </trkpt>
      <trkpt lat="43.17458" lon="0.0213">
        <ele>343.7</ele>
        <time>2020-09-12T19:48:52Z</time>
      </trkpt>
      <trkpt lat="43.17455" lon="0.02125">
        <ele>344</ele>
        <time>2020-09-12T19:48:53Z</time>
      </trkpt>
      <trkpt lat="43.17452" lon="0.02121">
        <ele>344.3</ele>
        <time>2020-09-12T19:48:54Z</time>
      </trkpt>
      <trkpt lat="43.1745" lon="0.02117">
        <ele>344.6</ele>
        <time>2020-09-12T19:48:55Z</time>
      </trkpt>
      <trkpt lat="43.17449" lon="0.02112">
        <ele>344.9</ele>
        <time>2020-09-12T19:48:56Z</time>
      </trkpt>
      <trkpt lat="43.1745" lon="0.02107">
        <ele>345.2</ele>
        <time>2020-09-12T19:48:57Z</time>
      </trkpt>
      <trkpt lat="43.17449" lon="0.02103">
        <ele>345.5</ele>
        <time>2020-09-12T19:48:58Z</time>
      </trkpt>
      <trkpt lat="43.1745" lon="0.02098">
        <ele>345.8</ele>
        <time>2020-09-12T19:48:59Z</time>
      </trkpt>
      <trkpt lat="43.17451" lon="0.02094">
        <ele>346.1</ele>
        <time>2020-09-12T19:49:00Z</time>
      </trkpt>
      <trkpt lat="43.17452" lon="0.02089">
        <ele>346.4</ele>
        <time>2020-09-12T19:49:01Z</time>
      </trkpt>
      <trkpt lat="43.17454" lon="0.02085">
        <ele>346.7</ele>
        <time>2020-09-12T19:49:02Z</time>
      </trkpt>
      <trkpt lat="43.17456" lon="0.02081">
        <ele>347</ele>
        <time>2020-09-12T19:49:03Z</time>
      </trkpt>
      <trkpt lat="43.17458" lon="0.02077">
        <ele>347.3</ele>
        <time>2020-09-12T19:49:04Z</time>
      </trkpt>
      <trkpt lat="43.17461" lon="0.02073">
        <ele>347.6</ele>
        <time>2020-09-12T19:49:05Z</time>
      </trkpt>
      <trkpt lat="43.17464" lon="0.02069">
        <ele>347.9</ele>
        <time>2020-09-12T19:49:06Z</time>
      </trkpt>
      <trkpt lat="43.17466" lon="0.02065">
        <ele>348.7</ele>
        <time>2020-09-12T19:49:07Z</time>
      </trkpt>
      <trkpt lat="43.17469" lon="0.02061">
        <ele>348.7</ele>
        <time>2020-09-12T19:49:08Z</time>
      </trkpt>
      <trkpt lat="43.17471" lon="0.02058">
        <ele>348.8</ele>
        <time>2020-09-12T19:49:09Z</time>
      </trkpt>
      <trkpt lat="43.17474" lon="0.02054">
        <ele>349.1</ele>
        <time>2020-09-12T19:49:10Z</time>
      </trkpt>
      <trkpt lat="43.17477" lon="0.02051">
        <ele>349.3</ele>
        <time>2020-09-12T19:49:11Z</time>
      </trkpt>
      <trkpt lat="43.17479" lon="0.02047">
        <ele>349.5</ele>
        <time>2020-09-12T19:49:12Z</time>
      </trkpt>
      <trkpt lat="43.17482" lon="0.02044">
        <ele>349.6</ele>
        <time>2020-09-12T19:49:13Z</time>
      </trkpt>
      <trkpt lat="43.17484" lon="0.02041">
        <ele>349.7</ele>
        <time>2020-09-12T19:49:14Z</time>
      </trkpt>
      <trkpt lat="43.17487" lon="0.02037">
        <ele>349.9</ele>
        <time>2020-09-12T19:49:15Z</time>
      </trkpt>
      <trkpt lat="43.17491" lon="0.02034">
        <ele>350</ele>
        <time>2020-09-12T19:49:16Z</time>
      </trkpt>
      <trkpt lat="43.17494" lon="0.02031">
        <ele>350.2</ele>
        <time>2020-09-12T19:49:17Z</time>
      </trkpt>
      <trkpt lat="43.17498" lon="0.02027">
        <ele>350.3</ele>
        <time>2020-09-12T19:49:18Z</time>
      </trkpt>
      <trkpt lat="43.17502" lon="0.02025">
        <ele>350.4</ele>
        <time>2020-09-12T19:49:19Z</time>
      </trkpt>
      <trkpt lat="43.17505" lon="0.02022">
        <ele>350.6</ele>
        <time>2020-09-12T19:49:20Z</time>
      </trkpt>
      <trkpt lat="43.1751" lon="0.0202">
        <ele>350.7</ele>
        <time>2020-09-12T19:49:21Z</time>
      </trkpt>
      <trkpt lat="43.17515" lon="0.02019">
        <ele>350.8</ele>
        <time>2020-09-12T19:49:22Z</time>
      </trkpt>
      <trkpt lat="43.17519" lon="0.02017">
        <ele>350.9</ele>
        <time>2020-09-12T19:49:23Z</time>
      </trkpt>
      <trkpt lat="43.17524" lon="0.02016">
        <ele>351</ele>
        <time>2020-09-12T19:49:24Z</time>
      </trkpt>
      <trkpt lat="43.17529" lon="0.02013">
        <ele>351.2</ele>
        <time>2020-09-12T19:49:25Z</time>
      </trkpt>
      <trkpt lat="43.17532" lon="0.02008">
        <ele>351.3</ele>
        <time>2020-09-12T19:49:26Z</time>
      </trkpt>
      <trkpt lat="43.17535" lon="0.02003">
        <ele>351.4</ele>
        <time>2020-09-12T19:49:27Z</time>
      </trkpt>
      <trkpt lat="43.17538" lon="0.01998">
        <ele>351.5</ele>
        <time>2020-09-12T19:49:28Z</time>
      </trkpt>
      <trkpt lat="43.17541" lon="0.01993">
        <ele>351.6</ele>
        <time>2020-09-12T19:49:29Z</time>
      </trkpt>
      <trkpt lat="43.17544" lon="0.01988">
        <ele>351.7</ele>
        <time>2020-09-12T19:49:30Z</time>
      </trkpt>
      <trkpt lat="43.17546" lon="0.01983">
        <ele>351.8</ele>
        <time>2020-09-12T19:49:31Z</time>
      </trkpt>
      <trkpt lat="43.17547" lon="0.01977">
        <ele>351.8</ele>
        <time>2020-09-12T19:49:32Z</time>
      </trkpt>
      <trkpt lat="43.17547" lon="0.01971">
        <ele>351.9</ele>
        <time>2020-09-12T19:49:33Z</time>
      </trkpt>
      <trkpt lat="43.17545" lon="0.01963">
        <ele>352</ele>
        <time>2020-09-12T19:49:34Z</time>
      </trkpt>
      <trkpt lat="43.17544" lon="0.01957">
        <ele>352</ele>
        <time>2020-09-12T19:49:35Z</time>
      </trkpt>
      <trkpt lat="43.17543" lon="0.01951">
        <ele>352.1</ele>
        <time>2020-09-12T19:49:36Z</time>
      </trkpt>
      <trkpt lat="43.17541" lon="0.01945">
        <ele>352.1</ele>
        <time>2020-09-12T19:49:37Z</time>
      </trkpt>
      <trkpt lat="43.17539" lon="0.01938">
        <ele>352.2</ele>
        <time>2020-09-12T19:49:38Z</time>
      </trkpt>
      <trkpt lat="43.17536" lon="0.01932">
        <ele>352.2</ele>
        <time>2020-09-12T19:49:39Z</time>
      </trkpt>
      <trkpt lat="43.17532" lon="0.01925">
        <ele>352.3</ele>
        <time>2020-09-12T19:49:40Z</time>
      </trkpt>
      <trkpt lat="43.17529" lon="0.01918">
        <ele>352.3</ele>
        <time>2020-09-12T19:49:41Z</time>
      </trkpt>
      <trkpt lat="43.17526" lon="0.01912">
        <ele>352.3</ele>
        <time>2020-09-12T19:49:42Z</time>
      </trkpt>
      <trkpt lat="43.17524" lon="0.01906">
        <ele>352.3</ele>
        <time>2020-09-12T19:49:43Z</time>
      </trkpt>
      <trkpt lat="43.17521" lon="0.01899">
        <ele>352.4</ele>
        <time>2020-09-12T19:49:44Z</time>
      </trkpt>
      <trkpt lat="43.17518" lon="0.01892">
        <ele>352.4</ele>
        <time>2020-09-12T19:49:45Z</time>
      </trkpt>
      <trkpt lat="43.17516" lon="0.01886">
        <ele>352.5</ele>
        <time>2020-09-12T19:49:46Z</time>
      </trkpt>
      <trkpt lat="43.17515" lon="0.01881">
        <ele>352.6</ele>
        <time>2020-09-12T19:49:47Z</time>
      </trkpt>
      <trkpt lat="43.17515" lon="0.01876">
        <ele>352.6</ele>
        <time>2020-09-12T19:49:48Z</time>
      </trkpt>
      <trkpt lat="43.17514" lon="0.01869">
        <ele>352.7</ele>
        <time>2020-09-12T19:49:49Z</time>
      </trkpt>
      <trkpt lat="43.17514" lon="0.01863">
        <ele>352.7</ele>
        <time>2020-09-12T19:49:50Z</time>
      </trkpt>
      <trkpt lat="43.17512" lon="0.01855">
        <ele>352.8</ele>
        <time>2020-09-12T19:49:51Z</time>
      </trkpt>
      <trkpt lat="43.17512" lon="0.01848">
        <ele>352.9</ele>
        <time>2020-09-12T19:49:52Z</time>
      </trkpt>
      <trkpt lat="43.17512" lon="0.01841">
        <ele>353</ele>
        <time>2020-09-12T19:49:53Z</time>
      </trkpt>
      <trkpt lat="43.17512" lon="0.01833">
        <ele>353.2</ele>
        <time>2020-09-12T19:49:54Z</time>
      </trkpt>
      <trkpt lat="43.17512" lon="0.01826">
        <ele>353.3</ele>
        <time>2020-09-12T19:49:55Z</time>
      </trkpt>
      <trkpt lat="43.1751" lon="0.0182">
        <ele>353.3</ele>
        <time>2020-09-12T19:49:56Z</time>
      </trkpt>
      <trkpt lat="43.17508" lon="0.01816">
        <ele>353.4</ele>
        <time>2020-09-12T19:49:57Z</time>
      </trkpt>
      <trkpt lat="43.17504" lon="0.01814">
        <ele>353.4</ele>
        <time>2020-09-12T19:49:58Z</time>
      </trkpt>
      <trkpt lat="43.17499" lon="0.01811">
        <ele>353.5</ele>
        <time>2020-09-12T19:49:59Z</time>
      </trkpt>
      <trkpt lat="43.17494" lon="0.01809">
        <ele>353.7</ele>
        <time>2020-09-12T19:50:00Z</time>
      </trkpt>
      <trkpt lat="43.17489" lon="0.01806">
        <ele>353.7</ele>
        <time>2020-09-12T19:50:01Z</time>
      </trkpt>
      <trkpt lat="43.17484" lon="0.01804">
        <ele>353.7</ele>
        <time>2020-09-12T19:50:02Z</time>
      </trkpt>
      <trkpt lat="43.17479" lon="0.01801">
        <ele>353.7</ele>
        <time>2020-09-12T19:50:03Z</time>
      </trkpt>
      <trkpt lat="43.17475" lon="0.01797">
        <ele>353.8</ele>
        <time>2020-09-12T19:50:04Z</time>
      </trkpt>
      <trkpt lat="43.17471" lon="0.01792">
        <ele>353.9</ele>
        <time>2020-09-12T19:50:05Z</time>
      </trkpt>
      <trkpt lat="43.17467" lon="0.01788">
        <ele>353.9</ele>
        <time>2020-09-12T19:50:06Z</time>
      </trkpt>
      <trkpt lat="43.17462" lon="0.01784">
        <ele>354</ele>
        <time>2020-09-12T19:50:07Z</time>
      </trkpt>
      <trkpt lat="43.17457" lon="0.01781">
        <ele>354.1</ele>
        <time>2020-09-12T19:50:08Z</time>
      </trkpt>
      <trkpt lat="43.17451" lon="0.01775">
        <ele>354.2</ele>
        <time>2020-09-12T19:50:09Z</time>
      </trkpt>
      <trkpt lat="43.17447" lon="0.01772">
        <ele>354.2</ele>
        <time>2020-09-12T19:50:10Z</time>
      </trkpt>
      <trkpt lat="43.17441" lon="0.01768">
        <ele>354.3</ele>
        <time>2020-09-12T19:50:11Z</time>
      </trkpt>
      <trkpt lat="43.17436" lon="0.01764">
        <ele>354.4</ele>
        <time>2020-09-12T19:50:12Z</time>
      </trkpt>
      <trkpt lat="43.1743" lon="0.0176">
        <ele>354.6</ele>
        <time>2020-09-12T19:50:13Z</time>
      </trkpt>
      <trkpt lat="43.17424" lon="0.01756">
        <ele>354.7</ele>
        <time>2020-09-12T19:50:14Z</time>
      </trkpt>
      <trkpt lat="43.17419" lon="0.01753">
        <ele>354.8</ele>
        <time>2020-09-12T19:50:15Z</time>
      </trkpt>
      <trkpt lat="43.17415" lon="0.01751">
        <ele>355</ele>
        <time>2020-09-12T19:50:16Z</time>
      </trkpt>
      <trkpt lat="43.17409" lon="0.01749">
        <ele>355.1</ele>
        <time>2020-09-12T19:50:17Z</time>
      </trkpt>
      <trkpt lat="43.17405" lon="0.01747">
        <ele>355.2</ele>
        <time>2020-09-12T19:50:18Z</time>
      </trkpt>
      <trkpt lat="43.174" lon="0.01745">
        <ele>355.3</ele>
        <time>2020-09-12T19:50:19Z</time>
      </trkpt>
      <trkpt lat="43.17396" lon="0.01743">
        <ele>355.5</ele>
        <time>2020-09-12T19:50:20Z</time>
      </trkpt>
      <trkpt lat="43.17392" lon="0.0174">
        <ele>355.6</ele>
        <time>2020-09-12T19:50:21Z</time>
      </trkpt>
      <trkpt lat="43.17387" lon="0.01738">
        <ele>355.8</ele>
        <time>2020-09-12T19:50:22Z</time>
      </trkpt>
      <trkpt lat="43.17382" lon="0.01735">
        <ele>355.9</ele>
        <time>2020-09-12T19:50:23Z</time>
      </trkpt>
      <trkpt lat="43.17378" lon="0.01732">
        <ele>356.1</ele>
        <time>2020-09-12T19:50:24Z</time>
      </trkpt>
      <trkpt lat="43.17372" lon="0.01728">
        <ele>356.3</ele>
        <time>2020-09-12T19:50:25Z</time>
      </trkpt>
      <trkpt lat="43.17367" lon="0.01725">
        <ele>356.4</ele>
        <time>2020-09-12T19:50:26Z</time>
      </trkpt>
      <trkpt lat="43.17363" lon="0.01724">
        <ele>356.5</ele>
        <time>2020-09-12T19:50:27Z</time>
      </trkpt>
      <trkpt lat="43.17358" lon="0.01722">
        <ele>356.6</ele>
        <time>2020-09-12T19:50:28Z</time>
      </trkpt>
      <trkpt lat="43.17352" lon="0.01719">
        <ele>356.8</ele>
        <time>2020-09-12T19:50:29Z</time>
      </trkpt>
      <trkpt lat="43.17346" lon="0.01716">
        <ele>356.9</ele>
        <time>2020-09-12T19:50:30Z</time>
      </trkpt>
      <trkpt lat="43.1734" lon="0.01713">
        <ele>357.2</ele>
        <time>2020-09-12T19:50:31Z</time>
      </trkpt>
      <trkpt lat="43.17335" lon="0.0171">
        <ele>357.3</ele>
        <time>2020-09-12T19:50:32Z</time>
      </trkpt>
      <trkpt lat="43.17331" lon="0.01708">
        <ele>357.4</ele>
        <time>2020-09-12T19:50:33Z</time>
      </trkpt>
      <trkpt lat="43.17327" lon="0.01703">
        <ele>357.5</ele>
        <time>2020-09-12T19:50:34Z</time>
      </trkpt>
      <trkpt lat="43.17322" lon="0.01698">
        <ele>357.6</ele>
        <time>2020-09-12T19:50:35Z</time>
      </trkpt>
      <trkpt lat="43.17318" lon="0.01693">
        <ele>357.7</ele>
        <time>2020-09-12T19:50:36Z</time>
      </trkpt>
      <trkpt lat="43.17314" lon="0.01688">
        <ele>357.9</ele>
        <time>2020-09-12T19:50:37Z</time>
      </trkpt>
      <trkpt lat="43.1731" lon="0.01682">
        <ele>358</ele>
        <time>2020-09-12T19:50:38Z</time>
      </trkpt>
      <trkpt lat="43.17306" lon="0.01677">
        <ele>358.2</ele>
        <time>2020-09-12T19:50:39Z</time>
      </trkpt>
      <trkpt lat="43.17303" lon="0.01672">
        <ele>358.2</ele>
        <time>2020-09-12T19:50:40Z</time>
      </trkpt>
      <trkpt lat="43.173" lon="0.01668">
        <ele>358.3</ele>
        <time>2020-09-12T19:50:41Z</time>
      </trkpt>
      <trkpt lat="43.17297" lon="0.01664">
        <ele>358.3</ele>
        <time>2020-09-12T19:50:42Z</time>
      </trkpt>
      <trkpt lat="43.17294" lon="0.01659">
        <ele>358.4</ele>
        <time>2020-09-12T19:50:43Z</time>
      </trkpt>
      <trkpt lat="43.1729" lon="0.01656">
        <ele>358.5</ele>
        <time>2020-09-12T19:50:44Z</time>
      </trkpt>
      <trkpt lat="43.17286" lon="0.01652">
        <ele>358.6</ele>
        <time>2020-09-12T19:50:45Z</time>
      </trkpt>
      <trkpt lat="43.17282" lon="0.01648">
        <ele>358.7</ele>
        <time>2020-09-12T19:50:46Z</time>
      </trkpt>
      <trkpt lat="43.17278" lon="0.01644">
        <ele>358.8</ele>
        <time>2020-09-12T19:50:47Z</time>
      </trkpt>
      <trkpt lat="43.17274" lon="0.01641">
        <ele>358.9</ele>
        <time>2020-09-12T19:50:48Z</time>
      </trkpt>
      <trkpt lat="43.1727" lon="0.01637">
        <ele>359</ele>
        <time>2020-09-12T19:50:49Z</time>
      </trkpt>
      <trkpt lat="43.17266" lon="0.01633">
        <ele>359.2</ele>
        <time>2020-09-12T19:50:50Z</time>
      </trkpt>
      <trkpt lat="43.17262" lon="0.0163">
        <ele>359.3</ele>
        <time>2020-09-12T19:50:51Z</time>
      </trkpt>
      <trkpt lat="43.17259" lon="0.01626">
        <ele>359.5</ele>
        <time>2020-09-12T19:50:52Z</time>
      </trkpt>
      <trkpt lat="43.17255" lon="0.01622">
        <ele>359.7</ele>
        <time>2020-09-12T19:50:53Z</time>
      </trkpt>
      <trkpt lat="43.17251" lon="0.01618">
        <ele>359.8</ele>
        <time>2020-09-12T19:50:54Z</time>
      </trkpt>
      <trkpt lat="43.17246" lon="0.01615">
        <ele>360</ele>
        <time>2020-09-12T19:50:55Z</time>
      </trkpt>
      <trkpt lat="43.17242" lon="0.01611">
        <ele>360.2</ele>
        <time>2020-09-12T19:50:56Z</time>
      </trkpt>
      <trkpt lat="43.17238" lon="0.01607">
        <ele>360.3</ele>
        <time>2020-09-12T19:50:57Z</time>
      </trkpt>
      <trkpt lat="43.17234" lon="0.01603">
        <ele>360.4</ele>
        <time>2020-09-12T19:50:58Z</time>
      </trkpt>
      <trkpt lat="43.1723" lon="0.01599">
        <ele>360.6</ele>
        <time>2020-09-12T19:50:59Z</time>
      </trkpt>
      <trkpt lat="43.17226" lon="0.01595">
        <ele>360.7</ele>
        <time>2020-09-12T19:51:00Z</time>
      </trkpt>
      <trkpt lat="43.17222" lon="0.01592">
        <ele>360.8</ele>
        <time>2020-09-12T19:51:01Z</time>
      </trkpt>
      <trkpt lat="43.17218" lon="0.01587">
        <ele>361</ele>
        <time>2020-09-12T19:51:02Z</time>
      </trkpt>
      <trkpt lat="43.17214" lon="0.01583">
        <ele>361.1</ele>
        <time>2020-09-12T19:51:03Z</time>
      </trkpt>
      <trkpt lat="43.1721" lon="0.01579">
        <ele>361.2</ele>
        <time>2020-09-12T19:51:04Z</time>
      </trkpt>
      <trkpt lat="43.17206" lon="0.01575">
        <ele>361.4</ele>
        <time>2020-09-12T19:51:05Z</time>
      </trkpt>
      <trkpt lat="43.17202" lon="0.01571">
        <ele>361.5</ele>
        <time>2020-09-12T19:51:06Z</time>
      </trkpt>
      <trkpt lat="43.17198" lon="0.01566">
        <ele>361.6</ele>
        <time>2020-09-12T19:51:07Z</time>
      </trkpt>
      <trkpt lat="43.17194" lon="0.01562">
        <ele>361.7</ele>
        <time>2020-09-12T19:51:08Z</time>
      </trkpt>
      <trkpt lat="43.1719" lon="0.01558">
        <ele>361.9</ele>
        <time>2020-09-12T19:51:09Z</time>
      </trkpt>
      <trkpt lat="43.17186" lon="0.01553">
        <ele>362</ele>
        <time>2020-09-12T19:51:10Z</time>
      </trkpt>
      <trkpt lat="43.17182" lon="0.01549">
        <ele>362.2</ele>
        <time>2020-09-12T19:51:11Z</time>
      </trkpt>
      <trkpt lat="43.17178" lon="0.01544">
        <ele>362.3</ele>
        <time>2020-09-12T19:51:12Z</time>
      </trkpt>
      <trkpt lat="43.17174" lon="0.0154">
        <ele>362.5</ele>
        <time>2020-09-12T19:51:13Z</time>
      </trkpt>
      <trkpt lat="43.1717" lon="0.01535">
        <ele>362.5</ele>
        <time>2020-09-12T19:51:14Z</time>
      </trkpt>
      <trkpt lat="43.17166" lon="0.01532">
        <ele>362.6</ele>
        <time>2020-09-12T19:51:15Z</time>
      </trkpt>
      <trkpt lat="43.17162" lon="0.01529">
        <ele>362.6</ele>
        <time>2020-09-12T19:51:16Z</time>
      </trkpt>
      <trkpt lat="43.17157" lon="0.01528">
        <ele>362.6</ele>
        <time>2020-09-12T19:51:17Z</time>
      </trkpt>
      <trkpt lat="43.17153" lon="0.01529">
        <ele>362.6</ele>
        <time>2020-09-12T19:51:18Z</time>
      </trkpt>
      <trkpt lat="43.17148" lon="0.01532">
        <ele>362.8</ele>
        <time>2020-09-12T19:51:19Z</time>
      </trkpt>
      <trkpt lat="43.17143" lon="0.01535">
        <ele>363</ele>
        <time>2020-09-12T19:51:20Z</time>
      </trkpt>
      <trkpt lat="43.17139" lon="0.0154">
        <ele>363.2</ele>
        <time>2020-09-12T19:51:21Z</time>
      </trkpt>
      <trkpt lat="43.17135" lon="0.01545">
        <ele>363.3</ele>
        <time>2020-09-12T19:51:22Z</time>
      </trkpt>
      <trkpt lat="43.17131" lon="0.01549">
        <ele>363.4</ele>
        <time>2020-09-12T19:51:23Z</time>
      </trkpt>
      <trkpt lat="43.17127" lon="0.01554">
        <ele>363.4</ele>
        <time>2020-09-12T19:51:24Z</time>
      </trkpt>
      <trkpt lat="43.17123" lon="0.01558">
        <ele>363.4</ele>
        <time>2020-09-12T19:51:25Z</time>
      </trkpt>
      <trkpt lat="43.17119" lon="0.01563">
        <ele>363.3</ele>
        <time>2020-09-12T19:51:26Z</time>
      </trkpt>
      <trkpt lat="43.17115" lon="0.01567">
        <ele>363.4</ele>
        <time>2020-09-12T19:51:27Z</time>
      </trkpt>
      <trkpt lat="43.17111" lon="0.01571">
        <ele>363.5</ele>
        <time>2020-09-12T19:51:28Z</time>
      </trkpt>
      <trkpt lat="43.17106" lon="0.01575">
        <ele>363.6</ele>
        <time>2020-09-12T19:51:29Z</time>
      </trkpt>
      <trkpt lat="43.17101" lon="0.01579">
        <ele>363.8</ele>
        <time>2020-09-12T19:51:30Z</time>
      </trkpt>
      <trkpt lat="43.17097" lon="0.01582">
        <ele>363.9</ele>
        <time>2020-09-12T19:51:31Z</time>
      </trkpt>
      <trkpt lat="43.17092" lon="0.01586">
        <ele>364</ele>
        <time>2020-09-12T19:51:32Z</time>
      </trkpt>
      <trkpt lat="43.17087" lon="0.01589">
        <ele>364.1</ele>
        <time>2020-09-12T19:51:33Z</time>
      </trkpt>
      <trkpt lat="43.17082" lon="0.01592">
        <ele>364.3</ele>
        <time>2020-09-12T19:51:34Z</time>
      </trkpt>
      <trkpt lat="43.17077" lon="0.01596">
        <ele>364.4</ele>
        <time>2020-09-12T19:51:35Z</time>
      </trkpt>
      <trkpt lat="43.17072" lon="0.01599">
        <ele>364.4</ele>
        <time>2020-09-12T19:51:36Z</time>
      </trkpt>
      <trkpt lat="43.17067" lon="0.01603">
        <ele>364.5</ele>
        <time>2020-09-12T19:51:37Z</time>
      </trkpt>
      <trkpt lat="43.17062" lon="0.01607">
        <ele>364.7</ele>
        <time>2020-09-12T19:51:38Z</time>
      </trkpt>
      <trkpt lat="43.17057" lon="0.01611">
        <ele>364.8</ele>
        <time>2020-09-12T19:51:39Z</time>
      </trkpt>
      <trkpt lat="43.17052" lon="0.01616">
        <ele>365.2</ele>
        <time>2020-09-12T19:51:40Z</time>
      </trkpt>
      <trkpt lat="43.17047" lon="0.0162">
        <ele>365.3</ele>
        <time>2020-09-12T19:51:41Z</time>
      </trkpt>
      <trkpt lat="43.17043" lon="0.01625">
        <ele>365.4</ele>
        <time>2020-09-12T19:51:42Z</time>
      </trkpt>
      <trkpt lat="43.17038" lon="0.01629">
        <ele>365.5</ele>
        <time>2020-09-12T19:51:43Z</time>
      </trkpt>
      <trkpt lat="43.17033" lon="0.01633">
        <ele>365.6</ele>
        <time>2020-09-12T19:51:44Z</time>
      </trkpt>
      <trkpt lat="43.17028" lon="0.01638">
        <ele>365.7</ele>
        <time>2020-09-12T19:51:45Z</time>
      </trkpt>
      <trkpt lat="43.17023" lon="0.01642">
        <ele>365.8</ele>
        <time>2020-09-12T19:51:46Z</time>
      </trkpt>
      <trkpt lat="43.17018" lon="0.01646">
        <ele>365.7</ele>
        <time>2020-09-12T19:51:47Z</time>
      </trkpt>
      <trkpt lat="43.17013" lon="0.01651">
        <ele>365.6</ele>
        <time>2020-09-12T19:51:48Z</time>
      </trkpt>
      <trkpt lat="43.17008" lon="0.01655">
        <ele>365.6</ele>
        <time>2020-09-12T19:51:49Z</time>
      </trkpt>
      <trkpt lat="43.17003" lon="0.01659">
        <ele>365.5</ele>
        <time>2020-09-12T19:51:50Z</time>
      </trkpt>
      <trkpt lat="43.16998" lon="0.01664">
        <ele>365.5</ele>
        <time>2020-09-12T19:51:51Z</time>
      </trkpt>
      <trkpt lat="43.16993" lon="0.01668">
        <ele>365.5</ele>
        <time>2020-09-12T19:51:52Z</time>
      </trkpt>
      <trkpt lat="43.16989" lon="0.01673">
        <ele>365.6</ele>
        <time>2020-09-12T19:51:53Z</time>
      </trkpt>
      <trkpt lat="43.16984" lon="0.01678">
        <ele>365.6</ele>
        <time>2020-09-12T19:51:54Z</time>
      </trkpt>
      <trkpt lat="43.16979" lon="0.01683">
        <ele>365.5</ele>
        <time>2020-09-12T19:51:55Z</time>
      </trkpt>
      <trkpt lat="43.16974" lon="0.01688">
        <ele>365.5</ele>
        <time>2020-09-12T19:51:56Z</time>
      </trkpt>
      <trkpt lat="43.16969" lon="0.01693">
        <ele>365.3</ele>
        <time>2020-09-12T19:51:57Z</time>
      </trkpt>
      <trkpt lat="43.16964" lon="0.01698">
        <ele>365.1</ele>
        <time>2020-09-12T19:51:58Z</time>
      </trkpt>
      <trkpt lat="43.16959" lon="0.01704">
        <ele>365</ele>
        <time>2020-09-12T19:51:59Z</time>
      </trkpt>
      <trkpt lat="43.16954" lon="0.01709">
        <ele>365</ele>
        <time>2020-09-12T19:52:00Z</time>
      </trkpt>
      <trkpt lat="43.1695" lon="0.01715">
        <ele>364.9</ele>
        <time>2020-09-12T19:52:01Z</time>
      </trkpt>
      <trkpt lat="43.16945" lon="0.0172">
        <ele>364.9</ele>
        <time>2020-09-12T19:52:02Z</time>
      </trkpt>
      <trkpt lat="43.16941" lon="0.01726">
        <ele>364.8</ele>
        <time>2020-09-12T19:52:03Z</time>
      </trkpt>
      <trkpt lat="43.16936" lon="0.01731">
        <ele>364.8</ele>
        <time>2020-09-12T19:52:04Z</time>
      </trkpt>
      <trkpt lat="43.16931" lon="0.01737">
        <ele>364.8</ele>
        <time>2020-09-12T19:52:05Z</time>
      </trkpt>
      <trkpt lat="43.16927" lon="0.01742">
        <ele>364.8</ele>
        <time>2020-09-12T19:52:06Z</time>
      </trkpt>
      <trkpt lat="43.16922" lon="0.01748">
        <ele>364.7</ele>
        <time>2020-09-12T19:52:07Z</time>
      </trkpt>
      <trkpt lat="43.16917" lon="0.01754">
        <ele>364.7</ele>
        <time>2020-09-12T19:52:08Z</time>
      </trkpt>
      <trkpt lat="43.16912" lon="0.01759">
        <ele>364.7</ele>
        <time>2020-09-12T19:52:09Z</time>
      </trkpt>
      <trkpt lat="43.16907" lon="0.01765">
        <ele>364.7</ele>
        <time>2020-09-12T19:52:10Z</time>
      </trkpt>
      <trkpt lat="43.16903" lon="0.01771">
        <ele>364.7</ele>
        <time>2020-09-12T19:52:11Z</time>
      </trkpt>
      <trkpt lat="43.16898" lon="0.01777">
        <ele>364.7</ele>
        <time>2020-09-12T19:52:12Z</time>
      </trkpt>
      <trkpt lat="43.16894" lon="0.01783">
        <ele>364.6</ele>
        <time>2020-09-12T19:52:13Z</time>
      </trkpt>
      <trkpt lat="43.16889" lon="0.01787">
        <ele>364.6</ele>
        <time>2020-09-12T19:52:14Z</time>
      </trkpt>
      <trkpt lat="43.16883" lon="0.01787">
        <ele>364.6</ele>
        <time>2020-09-12T19:52:15Z</time>
      </trkpt>
      <trkpt lat="43.16877" lon="0.01784">
        <ele>364.7</ele>
        <time>2020-09-12T19:52:16Z</time>
      </trkpt>
      <trkpt lat="43.16871" lon="0.01777">
        <ele>364.8</ele>
        <time>2020-09-12T19:52:17Z</time>
      </trkpt>
      <trkpt lat="43.16866" lon="0.01772">
        <ele>364.8</ele>
        <time>2020-09-12T19:52:18Z</time>
      </trkpt>
      <trkpt lat="43.16861" lon="0.01767">
        <ele>365</ele>
        <time>2020-09-12T19:52:19Z</time>
      </trkpt>
      <trkpt lat="43.16855" lon="0.01762">
        <ele>365.3</ele>
        <time>2020-09-12T19:52:20Z</time>
      </trkpt>
      <trkpt lat="43.16849" lon="0.01757">
        <ele>365.5</ele>
        <time>2020-09-12T19:52:21Z</time>
      </trkpt>
      <trkpt lat="43.16844" lon="0.01752">
        <ele>365.8</ele>
        <time>2020-09-12T19:52:22Z</time>
      </trkpt>
      <trkpt lat="43.16838" lon="0.01747">
        <ele>366.2</ele>
        <time>2020-09-12T19:52:23Z</time>
      </trkpt>
      <trkpt lat="43.16832" lon="0.01742">
        <ele>366.4</ele>
        <time>2020-09-12T19:52:24Z</time>
      </trkpt>
      <trkpt lat="43.16826" lon="0.01736">
        <ele>366.6</ele>
        <time>2020-09-12T19:52:25Z</time>
      </trkpt>
      <trkpt lat="43.16821" lon="0.01731">
        <ele>366.8</ele>
        <time>2020-09-12T19:52:26Z</time>
      </trkpt>
      <trkpt lat="43.16815" lon="0.01726">
        <ele>367</ele>
        <time>2020-09-12T19:52:27Z</time>
      </trkpt>
      <trkpt lat="43.1681" lon="0.0172">
        <ele>367.2</ele>
        <time>2020-09-12T19:52:28Z</time>
      </trkpt>
      <trkpt lat="43.16804" lon="0.01715">
        <ele>367.4</ele>
        <time>2020-09-12T19:52:29Z</time>
      </trkpt>
      <trkpt lat="43.16798" lon="0.0171">
        <ele>367.7</ele>
        <time>2020-09-12T19:52:30Z</time>
      </trkpt>
      <trkpt lat="43.16792" lon="0.01705">
        <ele>367.6</ele>
        <time>2020-09-12T19:52:31Z</time>
      </trkpt>
      <trkpt lat="43.16786" lon="0.017">
        <ele>367.5</ele>
        <time>2020-09-12T19:52:32Z</time>
      </trkpt>
      <trkpt lat="43.16781" lon="0.01696">
        <ele>367.4</ele>
        <time>2020-09-12T19:52:33Z</time>
      </trkpt>
      <trkpt lat="43.16775" lon="0.01693">
        <ele>367.3</ele>
        <time>2020-09-12T19:52:34Z</time>
      </trkpt>
      <trkpt lat="43.16769" lon="0.01689">
        <ele>367.1</ele>
        <time>2020-09-12T19:52:35Z</time>
      </trkpt>
      <trkpt lat="43.16763" lon="0.01685">
        <ele>367</ele>
        <time>2020-09-12T19:52:36Z</time>
      </trkpt>
      <trkpt lat="43.16757" lon="0.01681">
        <ele>366.9</ele>
        <time>2020-09-12T19:52:37Z</time>
      </trkpt>
      <trkpt lat="43.16751" lon="0.01677">
        <ele>366.7</ele>
        <time>2020-09-12T19:52:38Z</time>
      </trkpt>
      <trkpt lat="43.16745" lon="0.01673">
        <ele>366.6</ele>
        <time>2020-09-12T19:52:39Z</time>
      </trkpt>
      <trkpt lat="43.16739" lon="0.0167">
        <ele>366.4</ele>
        <time>2020-09-12T19:52:40Z</time>
      </trkpt>
      <trkpt lat="43.16732" lon="0.01667">
        <ele>366.1</ele>
        <time>2020-09-12T19:52:41Z</time>
      </trkpt>
      <trkpt lat="43.16726" lon="0.01664">
        <ele>365.9</ele>
        <time>2020-09-12T19:52:42Z</time>
      </trkpt>
      <trkpt lat="43.16719" lon="0.01662">
        <ele>365.6</ele>
        <time>2020-09-12T19:52:43Z</time>
      </trkpt>
      <trkpt lat="43.16713" lon="0.01659">
        <ele>365.7</ele>
        <time>2020-09-12T19:52:44Z</time>
      </trkpt>
      <trkpt lat="43.16706" lon="0.01656">
        <ele>365.8</ele>
        <time>2020-09-12T19:52:45Z</time>
      </trkpt>
      <trkpt lat="43.167" lon="0.01653">
        <ele>365.9</ele>
        <time>2020-09-12T19:52:46Z</time>
      </trkpt>
      <trkpt lat="43.16693" lon="0.0165">
        <ele>366</ele>
        <time>2020-09-12T19:52:47Z</time>
      </trkpt>
      <trkpt lat="43.16687" lon="0.01648">
        <ele>366.1</ele>
        <time>2020-09-12T19:52:48Z</time>
      </trkpt>
      <trkpt lat="43.16681" lon="0.01646">
        <ele>366.2</ele>
        <time>2020-09-12T19:52:49Z</time>
      </trkpt>
      <trkpt lat="43.16674" lon="0.01644">
        <ele>366.3</ele>
        <time>2020-09-12T19:52:50Z</time>
      </trkpt>
      <trkpt lat="43.16668" lon="0.0164">
        <ele>366.3</ele>
        <time>2020-09-12T19:52:51Z</time>
      </trkpt>
      <trkpt lat="43.16662" lon="0.01637">
        <ele>366.4</ele>
        <time>2020-09-12T19:52:52Z</time>
      </trkpt>
      <trkpt lat="43.16656" lon="0.01634">
        <ele>366.4</ele>
        <time>2020-09-12T19:52:53Z</time>
      </trkpt>
      <trkpt lat="43.16651" lon="0.0163">
        <ele>366.5</ele>
        <time>2020-09-12T19:52:54Z</time>
      </trkpt>
      <trkpt lat="43.16645" lon="0.01627">
        <ele>366.5</ele>
        <time>2020-09-12T19:52:55Z</time>
      </trkpt>
      <trkpt lat="43.16639" lon="0.01624">
        <ele>366.6</ele>
        <time>2020-09-12T19:52:56Z</time>
      </trkpt>
      <trkpt lat="43.16634" lon="0.01621">
        <ele>366.6</ele>
        <time>2020-09-12T19:52:57Z</time>
      </trkpt>
      <trkpt lat="43.16628" lon="0.01618">
        <ele>366.7</ele>
        <time>2020-09-12T19:52:58Z</time>
      </trkpt>
      <trkpt lat="43.16623" lon="0.01615">
        <ele>366.7</ele>
        <time>2020-09-12T19:52:59Z</time>
      </trkpt>
      <trkpt lat="43.16618" lon="0.0161">
        <ele>366.8</ele>
        <time>2020-09-12T19:53:00Z</time>
      </trkpt>
      <trkpt lat="43.16614" lon="0.01604">
        <ele>366.9</ele>
        <time>2020-09-12T19:53:01Z</time>
      </trkpt>
      <trkpt lat="43.1661" lon="0.01597">
        <ele>367</ele>
        <time>2020-09-12T19:53:02Z</time>
      </trkpt>
      <trkpt lat="43.16606" lon="0.0159">
        <ele>367.2</ele>
        <time>2020-09-12T19:53:03Z</time>
      </trkpt>
      <trkpt lat="43.16603" lon="0.01583">
        <ele>367.4</ele>
        <time>2020-09-12T19:53:04Z</time>
      </trkpt>
      <trkpt lat="43.16599" lon="0.01577">
        <ele>367.5</ele>
        <time>2020-09-12T19:53:05Z</time>
      </trkpt>
      <trkpt lat="43.16596" lon="0.0157">
        <ele>367.7</ele>
        <time>2020-09-12T19:53:06Z</time>
      </trkpt>
      <trkpt lat="43.16593" lon="0.01563">
        <ele>367.8</ele>
        <time>2020-09-12T19:53:07Z</time>
      </trkpt>
      <trkpt lat="43.1659" lon="0.01556">
        <ele>367.9</ele>
        <time>2020-09-12T19:53:08Z</time>
      </trkpt>
      <trkpt lat="43.16586" lon="0.0155">
        <ele>368</ele>
        <time>2020-09-12T19:53:09Z</time>
      </trkpt>
      <trkpt lat="43.16583" lon="0.01543">
        <ele>368</ele>
        <time>2020-09-12T19:53:10Z</time>
      </trkpt>
      <trkpt lat="43.16578" lon="0.01537">
        <ele>368.2</ele>
        <time>2020-09-12T19:53:11Z</time>
      </trkpt>
      <trkpt lat="43.16574" lon="0.01531">
        <ele>368.3</ele>
        <time>2020-09-12T19:53:12Z</time>
      </trkpt>
      <trkpt lat="43.16569" lon="0.01526">
        <ele>368.5</ele>
        <time>2020-09-12T19:53:13Z</time>
      </trkpt>
      <trkpt lat="43.16563" lon="0.0152">
        <ele>368.8</ele>
        <time>2020-09-12T19:53:14Z</time>
      </trkpt>
      <trkpt lat="43.16558" lon="0.01514">
        <ele>368.8</ele>
        <time>2020-09-12T19:53:15Z</time>
      </trkpt>
      <trkpt lat="43.16552" lon="0.01509">
        <ele>368.7</ele>
        <time>2020-09-12T19:53:16Z</time>
      </trkpt>
      <trkpt lat="43.16547" lon="0.01504">
        <ele>368.8</ele>
        <time>2020-09-12T19:53:17Z</time>
      </trkpt>
      <trkpt lat="43.16542" lon="0.01498">
        <ele>368.8</ele>
        <time>2020-09-12T19:53:18Z</time>
      </trkpt>
      <trkpt lat="43.16538" lon="0.01491">
        <ele>368.9</ele>
        <time>2020-09-12T19:53:19Z</time>
      </trkpt>
      <trkpt lat="43.16534" lon="0.01484">
        <ele>368.9</ele>
        <time>2020-09-12T19:53:20Z</time>
      </trkpt>
      <trkpt lat="43.1653" lon="0.01477">
        <ele>368.9</ele>
        <time>2020-09-12T19:53:21Z</time>
      </trkpt>
      <trkpt lat="43.16525" lon="0.01471">
        <ele>368.9</ele>
        <time>2020-09-12T19:53:22Z</time>
      </trkpt>
      <trkpt lat="43.1652" lon="0.01466">
        <ele>368.9</ele>
        <time>2020-09-12T19:53:23Z</time>
      </trkpt>
      <trkpt lat="43.16515" lon="0.01462">
        <ele>368.9</ele>
        <time>2020-09-12T19:53:24Z</time>
      </trkpt>
      <trkpt lat="43.16509" lon="0.01458">
        <ele>369</ele>
        <time>2020-09-12T19:53:25Z</time>
      </trkpt>
      <trkpt lat="43.16503" lon="0.01455">
        <ele>369</ele>
        <time>2020-09-12T19:53:26Z</time>
      </trkpt>
      <trkpt lat="43.16497" lon="0.0145">
        <ele>369.1</ele>
        <time>2020-09-12T19:53:27Z</time>
      </trkpt>
      <trkpt lat="43.16491" lon="0.01446">
        <ele>369.1</ele>
        <time>2020-09-12T19:53:28Z</time>
      </trkpt>
      <trkpt lat="43.16486" lon="0.01443">
        <ele>369.2</ele>
        <time>2020-09-12T19:53:29Z</time>
      </trkpt>
      <trkpt lat="43.1648" lon="0.01439">
        <ele>369.3</ele>
        <time>2020-09-12T19:53:30Z</time>
      </trkpt>
      <trkpt lat="43.16474" lon="0.01436">
        <ele>369.3</ele>
        <time>2020-09-12T19:53:31Z</time>
      </trkpt>
      <trkpt lat="43.16468" lon="0.01432">
        <ele>369.3</ele>
        <time>2020-09-12T19:53:32Z</time>
      </trkpt>
      <trkpt lat="43.16463" lon="0.01429">
        <ele>369.4</ele>
        <time>2020-09-12T19:53:33Z</time>
      </trkpt>
      <trkpt lat="43.16457" lon="0.01424">
        <ele>369.5</ele>
        <time>2020-09-12T19:53:34Z</time>
      </trkpt>
      <trkpt lat="43.16452" lon="0.0142">
        <ele>369.6</ele>
        <time>2020-09-12T19:53:35Z</time>
      </trkpt>
      <trkpt lat="43.16447" lon="0.01417">
        <ele>369.6</ele>
        <time>2020-09-12T19:53:36Z</time>
      </trkpt>
      <trkpt lat="43.16441" lon="0.01416">
        <ele>369.7</ele>
        <time>2020-09-12T19:53:37Z</time>
      </trkpt>
      <trkpt lat="43.16435" lon="0.01419">
        <ele>369.7</ele>
        <time>2020-09-12T19:53:38Z</time>
      </trkpt>
      <trkpt lat="43.16428" lon="0.01421">
        <ele>369.3</ele>
        <time>2020-09-12T19:53:39Z</time>
      </trkpt>
      <trkpt lat="43.16422" lon="0.01424">
        <ele>368.9</ele>
        <time>2020-09-12T19:53:40Z</time>
      </trkpt>
      <trkpt lat="43.16416" lon="0.01429">
        <ele>368.5</ele>
        <time>2020-09-12T19:53:41Z</time>
      </trkpt>
      <trkpt lat="43.1641" lon="0.01433">
        <ele>368.1</ele>
        <time>2020-09-12T19:53:42Z</time>
      </trkpt>
      <trkpt lat="43.16403" lon="0.01437">
        <ele>367.6</ele>
        <time>2020-09-12T19:53:43Z</time>
      </trkpt>
      <trkpt lat="43.16397" lon="0.01441">
        <ele>367.2</ele>
        <time>2020-09-12T19:53:44Z</time>
      </trkpt>
      <trkpt lat="43.16391" lon="0.01444">
        <ele>366.8</ele>
        <time>2020-09-12T19:53:45Z</time>
      </trkpt>
      <trkpt lat="43.16385" lon="0.01448">
        <ele>366.5</ele>
        <time>2020-09-12T19:53:46Z</time>
      </trkpt>
      <trkpt lat="43.16378" lon="0.0145">
        <ele>366.2</ele>
        <time>2020-09-12T19:53:47Z</time>
      </trkpt>
      <trkpt lat="43.16371" lon="0.01449">
        <ele>366</ele>
        <time>2020-09-12T19:53:48Z</time>
      </trkpt>
      <trkpt lat="43.16363" lon="0.01449">
        <ele>366</ele>
        <time>2020-09-12T19:53:49Z</time>
      </trkpt>
      <trkpt lat="43.16355" lon="0.01449">
        <ele>366</ele>
        <time>2020-09-12T19:53:50Z</time>
      </trkpt>
      <trkpt lat="43.16346" lon="0.01447">
        <ele>366</ele>
        <time>2020-09-12T19:53:51Z</time>
      </trkpt>
      <trkpt lat="43.16338" lon="0.01445">
        <ele>366.1</ele>
        <time>2020-09-12T19:53:52Z</time>
      </trkpt>
      <trkpt lat="43.16329" lon="0.01446">
        <ele>366.4</ele>
        <time>2020-09-12T19:53:53Z</time>
      </trkpt>
      <trkpt lat="43.16319" lon="0.01447">
        <ele>366.7</ele>
        <time>2020-09-12T19:53:54Z</time>
      </trkpt>
      <trkpt lat="43.1631" lon="0.01451">
        <ele>367.1</ele>
        <time>2020-09-12T19:53:55Z</time>
      </trkpt>
      <trkpt lat="43.16302" lon="0.01457">
        <ele>367</ele>
        <time>2020-09-12T19:53:56Z</time>
      </trkpt>
      <trkpt lat="43.16295" lon="0.01466">
        <ele>366.6</ele>
        <time>2020-09-12T19:53:57Z</time>
      </trkpt>
      <trkpt lat="43.16288" lon="0.01476">
        <ele>366.9</ele>
        <time>2020-09-12T19:53:58Z</time>
      </trkpt>
      <trkpt lat="43.16281" lon="0.01484">
        <ele>367.2</ele>
        <time>2020-09-12T19:53:59Z</time>
      </trkpt>
      <trkpt lat="43.16274" lon="0.01491">
        <ele>367.5</ele>
        <time>2020-09-12T19:54:00Z</time>
      </trkpt>
      <trkpt lat="43.16266" lon="0.01497">
        <ele>367.8</ele>
        <time>2020-09-12T19:54:01Z</time>
      </trkpt>
      <trkpt lat="43.1626" lon="0.01503">
        <ele>368</ele>
        <time>2020-09-12T19:54:02Z</time>
      </trkpt>
      <trkpt lat="43.16255" lon="0.01509">
        <ele>368.2</ele>
        <time>2020-09-12T19:54:03Z</time>
      </trkpt>
      <trkpt lat="43.16249" lon="0.01515">
        <ele>368.3</ele>
        <time>2020-09-12T19:54:04Z</time>
      </trkpt>
      <trkpt lat="43.16244" lon="0.0152">
        <ele>368.4</ele>
        <time>2020-09-12T19:54:05Z</time>
      </trkpt>
      <trkpt lat="43.16238" lon="0.01526">
        <ele>368.5</ele>
        <time>2020-09-12T19:54:06Z</time>
      </trkpt>
      <trkpt lat="43.16233" lon="0.01531">
        <ele>368.6</ele>
        <time>2020-09-12T19:54:07Z</time>
      </trkpt>
      <trkpt lat="43.16228" lon="0.01535">
        <ele>368.7</ele>
        <time>2020-09-12T19:54:08Z</time>
      </trkpt>
      <trkpt lat="43.16223" lon="0.0154">
        <ele>368.7</ele>
        <time>2020-09-12T19:54:09Z</time>
      </trkpt>
      <trkpt lat="43.16218" lon="0.01544">
        <ele>368.7</ele>
        <time>2020-09-12T19:54:10Z</time>
      </trkpt>
      <trkpt lat="43.16213" lon="0.01549">
        <ele>368.7</ele>
        <time>2020-09-12T19:54:11Z</time>
      </trkpt>
      <trkpt lat="43.16208" lon="0.01553">
        <ele>368.8</ele>
        <time>2020-09-12T19:54:12Z</time>
      </trkpt>
      <trkpt lat="43.16203" lon="0.01557">
        <ele>368.8</ele>
        <time>2020-09-12T19:54:13Z</time>
      </trkpt>
      <trkpt lat="43.16198" lon="0.01561">
        <ele>368.8</ele>
        <time>2020-09-12T19:54:14Z</time>
      </trkpt>
      <trkpt lat="43.16193" lon="0.01565">
        <ele>368.8</ele>
        <time>2020-09-12T19:54:15Z</time>
      </trkpt>
      <trkpt lat="43.16189" lon="0.01568">
        <ele>368.8</ele>
        <time>2020-09-12T19:54:16Z</time>
      </trkpt>
      <trkpt lat="43.16185" lon="0.0157">
        <ele>368.8</ele>
        <time>2020-09-12T19:54:17Z</time>
      </trkpt>
      <trkpt lat="43.16182" lon="0.0157">
        <ele>368.9</ele>
        <time>2020-09-12T19:54:18Z</time>
      </trkpt>
      <trkpt lat="43.16179" lon="0.01566">
        <ele>369</ele>
        <time>2020-09-12T19:54:19Z</time>
      </trkpt>
      <trkpt lat="43.16179" lon="0.0156">
        <ele>369.2</ele>
        <time>2020-09-12T19:54:20Z</time>
      </trkpt>
      <trkpt lat="43.16177" lon="0.01553">
        <ele>369.3</ele>
        <time>2020-09-12T19:54:21Z</time>
      </trkpt>
      <trkpt lat="43.16176" lon="0.01546">
        <ele>369.4</ele>
        <time>2020-09-12T19:54:22Z</time>
      </trkpt>
      <trkpt lat="43.16175" lon="0.0154">
        <ele>369.6</ele>
        <time>2020-09-12T19:54:23Z</time>
      </trkpt>
      <trkpt lat="43.16174" lon="0.01532">
        <ele>369.7</ele>
        <time>2020-09-12T19:54:24Z</time>
      </trkpt>
      <trkpt lat="43.16173" lon="0.01525">
        <ele>369.9</ele>
        <time>2020-09-12T19:54:25Z</time>
      </trkpt>
      <trkpt lat="43.16172" lon="0.01518">
        <ele>370</ele>
        <time>2020-09-12T19:54:26Z</time>
      </trkpt>
      <trkpt lat="43.16171" lon="0.01512">
        <ele>370.1</ele>
        <time>2020-09-12T19:54:27Z</time>
      </trkpt>
      <trkpt lat="43.1617" lon="0.01505">
        <ele>370.3</ele>
        <time>2020-09-12T19:54:28Z</time>
      </trkpt>
      <trkpt lat="43.16169" lon="0.01499">
        <ele>370.4</ele>
        <time>2020-09-12T19:54:29Z</time>
      </trkpt>
      <trkpt lat="43.16168" lon="0.01493">
        <ele>370.5</ele>
        <time>2020-09-12T19:54:30Z</time>
      </trkpt>
      <trkpt lat="43.16167" lon="0.01487">
        <ele>370.6</ele>
        <time>2020-09-12T19:54:31Z</time>
      </trkpt>
      <trkpt lat="43.16166" lon="0.01481">
        <ele>370.8</ele>
        <time>2020-09-12T19:54:32Z</time>
      </trkpt>
      <trkpt lat="43.16164" lon="0.01475">
        <ele>370.9</ele>
        <time>2020-09-12T19:54:33Z</time>
      </trkpt>
      <trkpt lat="43.16163" lon="0.01469">
        <ele>371</ele>
        <time>2020-09-12T19:54:34Z</time>
      </trkpt>
      <trkpt lat="43.16161" lon="0.01464">
        <ele>371.1</ele>
        <time>2020-09-12T19:54:35Z</time>
      </trkpt>
      <trkpt lat="43.16157" lon="0.01459">
        <ele>371.3</ele>
        <time>2020-09-12T19:54:36Z</time>
      </trkpt>
      <trkpt lat="43.16153" lon="0.01454">
        <ele>371.4</ele>
        <time>2020-09-12T19:54:37Z</time>
      </trkpt>
      <trkpt lat="43.16149" lon="0.01451">
        <ele>371.4</ele>
        <time>2020-09-12T19:54:38Z</time>
      </trkpt>
      <trkpt lat="43.16144" lon="0.01449">
        <ele>371.4</ele>
        <time>2020-09-12T19:54:39Z</time>
      </trkpt>
      <trkpt lat="43.16139" lon="0.01448">
        <ele>371.4</ele>
        <time>2020-09-12T19:54:40Z</time>
      </trkpt>
      <trkpt lat="43.16134" lon="0.01447">
        <ele>371.4</ele>
        <time>2020-09-12T19:54:41Z</time>
      </trkpt>
      <trkpt lat="43.16129" lon="0.01446">
        <ele>371.5</ele>
        <time>2020-09-12T19:54:42Z</time>
      </trkpt>
      <trkpt lat="43.16124" lon="0.01444">
        <ele>371.5</ele>
        <time>2020-09-12T19:54:43Z</time>
      </trkpt>
      <trkpt lat="43.16119" lon="0.01443">
        <ele>371.6</ele>
        <time>2020-09-12T19:54:44Z</time>
      </trkpt>
      <trkpt lat="43.16115" lon="0.01441">
        <ele>371.6</ele>
        <time>2020-09-12T19:54:45Z</time>
      </trkpt>
      <trkpt lat="43.16111" lon="0.01438">
        <ele>371.7</ele>
        <time>2020-09-12T19:54:46Z</time>
      </trkpt>
      <trkpt lat="43.16108" lon="0.01435">
        <ele>371.8</ele>
        <time>2020-09-12T19:54:47Z</time>
      </trkpt>
      <trkpt lat="43.16105" lon="0.01432">
        <ele>371.9</ele>
        <time>2020-09-12T19:54:48Z</time>
      </trkpt>
      <trkpt lat="43.16101" lon="0.01428">
        <ele>372</ele>
        <time>2020-09-12T19:54:49Z</time>
      </trkpt>
      <trkpt lat="43.16098" lon="0.01425">
        <ele>372.1</ele>
        <time>2020-09-12T19:54:50Z</time>
      </trkpt>
      <trkpt lat="43.16094" lon="0.01422">
        <ele>372.3</ele>
        <time>2020-09-12T19:54:51Z</time>
      </trkpt>
      <trkpt lat="43.1609" lon="0.01419">
        <ele>372.5</ele>
        <time>2020-09-12T19:54:52Z</time>
      </trkpt>
      <trkpt lat="43.16087" lon="0.01417">
        <ele>372.7</ele>
        <time>2020-09-12T19:54:53Z</time>
      </trkpt>
      <trkpt lat="43.16084" lon="0.01416">
        <ele>372.9</ele>
        <time>2020-09-12T19:54:54Z</time>
      </trkpt>
      <trkpt lat="43.1608" lon="0.01414">
        <ele>373.2</ele>
        <time>2020-09-12T19:54:56Z</time>
      </trkpt>
      <trkpt lat="43.16076" lon="0.0141">
        <ele>373.5</ele>
        <time>2020-09-12T19:54:58Z</time>
      </trkpt>
      <trkpt lat="43.16073" lon="0.01406">
        <ele>373.8</ele>
        <time>2020-09-12T19:55:00Z</time>
      </trkpt>
      <trkpt lat="43.16071" lon="0.01403">
        <ele>374.8</ele>
        <time>2020-09-12T19:55:02Z</time>
      </trkpt>
      <trkpt lat="43.16067" lon="0.01401">
        <ele>375.6</ele>
        <time>2020-09-12T19:55:05Z</time>
      </trkpt>
      <trkpt lat="43.16062" lon="0.01398">
        <ele>376.7</ele>
        <time>2020-09-12T19:55:07Z</time>
      </trkpt>
      <trkpt lat="43.1606" lon="0.01396">
        <ele>377.3</ele>
        <time>2020-09-12T19:55:08Z</time>
      </trkpt>
      <trkpt lat="43.16057" lon="0.01394">
        <ele>377.9</ele>
        <time>2020-09-12T19:55:10Z</time>
      </trkpt>
      <trkpt lat="43.16054" lon="0.01394">
        <ele>378.5</ele>
        <time>2020-09-12T19:55:12Z</time>
      </trkpt>
      <trkpt lat="43.16051" lon="0.01392">
        <ele>379.1</ele>
        <time>2020-09-12T19:55:14Z</time>
      </trkpt>
      <trkpt lat="43.16047" lon="0.0139">
        <ele>379.7</ele>
        <time>2020-09-12T19:55:16Z</time>
      </trkpt>
      <trkpt lat="43.16043" lon="0.01388">
        <ele>380.3</ele>
        <time>2020-09-12T19:55:18Z</time>
      </trkpt>
      <trkpt lat="43.16039" lon="0.01385">
        <ele>381.1</ele>
        <time>2020-09-12T19:55:20Z</time>
      </trkpt>
      <trkpt lat="43.16035" lon="0.01383">
        <ele>382.1</ele>
        <time>2020-09-12T19:55:22Z</time>
      </trkpt>
      <trkpt lat="43.16031" lon="0.01381">
        <ele>382.9</ele>
        <time>2020-09-12T19:55:24Z</time>
      </trkpt>
      <trkpt lat="43.16027" lon="0.0138">
        <ele>383.8</ele>
        <time>2020-09-12T19:55:26Z</time>
      </trkpt>
      <trkpt lat="43.16024" lon="0.01378">
        <ele>384.6</ele>
        <time>2020-09-12T19:55:28Z</time>
      </trkpt>
      <trkpt lat="43.16019" lon="0.01377">
        <ele>385.4</ele>
        <time>2020-09-12T19:55:30Z</time>
      </trkpt>
      <trkpt lat="43.16014" lon="0.01376">
        <ele>386.4</ele>
        <time>2020-09-12T19:55:32Z</time>
      </trkpt>
      <trkpt lat="43.1601" lon="0.01375">
        <ele>387.4</ele>
        <time>2020-09-12T19:55:34Z</time>
      </trkpt>
      <trkpt lat="43.16006" lon="0.01375">
        <ele>388.3</ele>
        <time>2020-09-12T19:55:36Z</time>
      </trkpt>
      <trkpt lat="43.16001" lon="0.01375">
        <ele>389.3</ele>
        <time>2020-09-12T19:55:38Z</time>
      </trkpt>
      <trkpt lat="43.15998" lon="0.01374">
        <ele>390.1</ele>
        <time>2020-09-12T19:55:40Z</time>
      </trkpt>
      <trkpt lat="43.15994" lon="0.01374">
        <ele>390.8</ele>
        <time>2020-09-12T19:55:42Z</time>
      </trkpt>
      <trkpt lat="43.1599" lon="0.01374">
        <ele>391.6</ele>
        <time>2020-09-12T19:55:44Z</time>
      </trkpt>
      <trkpt lat="43.15985" lon="0.01375">
        <ele>392.3</ele>
        <time>2020-09-12T19:55:46Z</time>
      </trkpt>
      <trkpt lat="43.15981" lon="0.01376">
        <ele>392.9</ele>
        <time>2020-09-12T19:55:48Z</time>
      </trkpt>
      <trkpt lat="43.15976" lon="0.01377">
        <ele>393.5</ele>
        <time>2020-09-12T19:55:50Z</time>
      </trkpt>
      <trkpt lat="43.15972" lon="0.01378">
        <ele>394</ele>
        <time>2020-09-12T19:55:52Z</time>
      </trkpt>
      <trkpt lat="43.15968" lon="0.01379">
        <ele>394.6</ele>
        <time>2020-09-12T19:55:54Z</time>
      </trkpt>
      <trkpt lat="43.15963" lon="0.01383">
        <ele>395.4</ele>
        <time>2020-09-12T19:55:56Z</time>
      </trkpt>
      <trkpt lat="43.15961" lon="0.01384">
        <ele>395.8</ele>
        <time>2020-09-12T19:55:57Z</time>
      </trkpt>
      <trkpt lat="43.15958" lon="0.01384">
        <ele>396.2</ele>
        <time>2020-09-12T19:55:58Z</time>
      </trkpt>
      <trkpt lat="43.15953" lon="0.01386">
        <ele>396.7</ele>
        <time>2020-09-12T19:56:00Z</time>
      </trkpt>
      <trkpt lat="43.15948" lon="0.01389">
        <ele>397.2</ele>
        <time>2020-09-12T19:56:02Z</time>
      </trkpt>
      <trkpt lat="43.15945" lon="0.01392">
        <ele>397.8</ele>
        <time>2020-09-12T19:56:04Z</time>
      </trkpt>
      <trkpt lat="43.15941" lon="0.01396">
        <ele>398.5</ele>
        <time>2020-09-12T19:56:06Z</time>
      </trkpt>
      <trkpt lat="43.15936" lon="0.01397">
        <ele>399.1</ele>
        <time>2020-09-12T19:56:08Z</time>
      </trkpt>
      <trkpt lat="43.15934" lon="0.01391">
        <ele>400.4</ele>
        <time>2020-09-12T19:56:13Z</time>
      </trkpt>
      <trkpt lat="43.15935" lon="0.01384">
        <ele>400.3</ele>
        <time>2020-09-12T19:56:15Z</time>
      </trkpt>
      <trkpt lat="43.15936" lon="0.01381">
        <ele>400.2</ele>
        <time>2020-09-12T19:56:16Z</time>
      </trkpt>
      <trkpt lat="43.15937" lon="0.01377">
        <ele>400.4</ele>
        <time>2020-09-12T19:56:17Z</time>
      </trkpt>
      <trkpt lat="43.15938" lon="0.01373">
        <ele>400.2</ele>
        <time>2020-09-12T19:56:18Z</time>
      </trkpt>
      <trkpt lat="43.15939" lon="0.01369">
        <ele>400</ele>
        <time>2020-09-12T19:56:19Z</time>
      </trkpt>
      <trkpt lat="43.1594" lon="0.01364">
        <ele>400</ele>
        <time>2020-09-12T19:56:20Z</time>
      </trkpt>
      <trkpt lat="43.15941" lon="0.01358">
        <ele>400</ele>
        <time>2020-09-12T19:56:21Z</time>
      </trkpt>
      <trkpt lat="43.15941" lon="0.01352">
        <ele>400.1</ele>
        <time>2020-09-12T19:56:22Z</time>
      </trkpt>
      <trkpt lat="43.15941" lon="0.01346">
        <ele>399.5</ele>
        <time>2020-09-12T19:56:23Z</time>
      </trkpt>
      <trkpt lat="43.15941" lon="0.01339">
        <ele>399.5</ele>
        <time>2020-09-12T19:56:24Z</time>
      </trkpt>
      <trkpt lat="43.15941" lon="0.01332">
        <ele>399.3</ele>
        <time>2020-09-12T19:56:25Z</time>
      </trkpt>
      <trkpt lat="43.15941" lon="0.01324">
        <ele>398.7</ele>
        <time>2020-09-12T19:56:26Z</time>
      </trkpt>
      <trkpt lat="43.1594" lon="0.01316">
        <ele>399</ele>
        <time>2020-09-12T19:56:27Z</time>
      </trkpt>
      <trkpt lat="43.1594" lon="0.01309">
        <ele>398.8</ele>
        <time>2020-09-12T19:56:28Z</time>
      </trkpt>
      <trkpt lat="43.1594" lon="0.01302">
        <ele>398.3</ele>
        <time>2020-09-12T19:56:29Z</time>
      </trkpt>
      <trkpt lat="43.15939" lon="0.01295">
        <ele>397.9</ele>
        <time>2020-09-12T19:56:30Z</time>
      </trkpt>
      <trkpt lat="43.15938" lon="0.01287">
        <ele>396.5</ele>
        <time>2020-09-12T19:56:31Z</time>
      </trkpt>
      <trkpt lat="43.15937" lon="0.0128">
        <ele>396.1</ele>
        <time>2020-09-12T19:56:32Z</time>
      </trkpt>
      <trkpt lat="43.15935" lon="0.01273">
        <ele>395.9</ele>
        <time>2020-09-12T19:56:33Z</time>
      </trkpt>
      <trkpt lat="43.15934" lon="0.01268">
        <ele>395.7</ele>
        <time>2020-09-12T19:56:34Z</time>
      </trkpt>
      <trkpt lat="43.15931" lon="0.01263">
        <ele>395.2</ele>
        <time>2020-09-12T19:56:36Z</time>
      </trkpt>
      <trkpt lat="43.15929" lon="0.01259">
        <ele>394.6</ele>
        <time>2020-09-12T19:56:38Z</time>
      </trkpt>
      <trkpt lat="43.15927" lon="0.01254">
        <ele>394.2</ele>
        <time>2020-09-12T19:56:40Z</time>
      </trkpt>
      <trkpt lat="43.15924" lon="0.01249">
        <ele>394</ele>
        <time>2020-09-12T19:56:42Z</time>
      </trkpt>
      <trkpt lat="43.15921" lon="0.01245">
        <ele>393.9</ele>
        <time>2020-09-12T19:56:44Z</time>
      </trkpt>
      <trkpt lat="43.15918" lon="0.01242">
        <ele>393.6</ele>
        <time>2020-09-12T19:56:46Z</time>
      </trkpt>
      <trkpt lat="43.15915" lon="0.01238">
        <ele>393.6</ele>
        <time>2020-09-12T19:56:48Z</time>
      </trkpt>
      <trkpt lat="43.15913" lon="0.01235">
        <ele>393.6</ele>
        <time>2020-09-12T19:56:50Z</time>
      </trkpt>
      <trkpt lat="43.15911" lon="0.01231">
        <ele>394</ele>
        <time>2020-09-12T19:56:53Z</time>
      </trkpt>
      <trkpt lat="43.15907" lon="0.01226">
        <ele>394</ele>
        <time>2020-09-12T19:56:55Z</time>
      </trkpt>
      <trkpt lat="43.15904" lon="0.01222">
        <ele>394</ele>
        <time>2020-09-12T19:56:57Z</time>
      </trkpt>
      <trkpt lat="43.15901" lon="0.01219">
        <ele>393.9</ele>
        <time>2020-09-12T19:56:59Z</time>
      </trkpt>
      <trkpt lat="43.15896" lon="0.01214">
        <ele>393.9</ele>
        <time>2020-09-12T19:57:01Z</time>
      </trkpt>
      <trkpt lat="43.15894" lon="0.01209">
        <ele>394.2</ele>
        <time>2020-09-12T19:57:03Z</time>
      </trkpt>
      <trkpt lat="43.15892" lon="0.01204">
        <ele>394.3</ele>
        <time>2020-09-12T19:57:05Z</time>
      </trkpt>
      <trkpt lat="43.1589" lon="0.01201">
        <ele>394.2</ele>
        <time>2020-09-12T19:57:07Z</time>
      </trkpt>
      <trkpt lat="43.15888" lon="0.01198">
        <ele>394.3</ele>
        <time>2020-09-12T19:57:09Z</time>
      </trkpt>
      <trkpt lat="43.15886" lon="0.01195">
        <ele>394.6</ele>
        <time>2020-09-12T19:57:11Z</time>
      </trkpt>
      <trkpt lat="43.15883" lon="0.0119">
        <ele>394.4</ele>
        <time>2020-09-12T19:57:13Z</time>
      </trkpt>
      <trkpt lat="43.15878" lon="0.01185">
        <ele>394.6</ele>
        <time>2020-09-12T19:57:16Z</time>
      </trkpt>
      <trkpt lat="43.15876" lon="0.01182">
        <ele>394.6</ele>
        <time>2020-09-12T19:57:18Z</time>
      </trkpt>
      <trkpt lat="43.15873" lon="0.01177">
        <ele>394.9</ele>
        <time>2020-09-12T19:57:20Z</time>
      </trkpt>
      <trkpt lat="43.1587" lon="0.01173">
        <ele>395.5</ele>
        <time>2020-09-12T19:57:22Z</time>
      </trkpt>
      <trkpt lat="43.15867" lon="0.01168">
        <ele>395.7</ele>
        <time>2020-09-12T19:57:24Z</time>
      </trkpt>
      <trkpt lat="43.15865" lon="0.01165">
        <ele>395.6</ele>
        <time>2020-09-12T19:57:25Z</time>
      </trkpt>
      <trkpt lat="43.15863" lon="0.01162">
        <ele>395.4</ele>
        <time>2020-09-12T19:57:26Z</time>
      </trkpt>
      <trkpt lat="43.15859" lon="0.01157">
        <ele>395.2</ele>
        <time>2020-09-12T19:57:28Z</time>
      </trkpt>
      <trkpt lat="43.15857" lon="0.01155">
        <ele>395.5</ele>
        <time>2020-09-12T19:57:29Z</time>
      </trkpt>
      <trkpt lat="43.15854" lon="0.01153">
        <ele>395.4</ele>
        <time>2020-09-12T19:57:30Z</time>
      </trkpt>
      <trkpt lat="43.15852" lon="0.01149">
        <ele>395.5</ele>
        <time>2020-09-12T19:57:31Z</time>
      </trkpt>
      <trkpt lat="43.15849" lon="0.01147">
        <ele>395</ele>
        <time>2020-09-12T19:57:32Z</time>
      </trkpt>
      <trkpt lat="43.15847" lon="0.01145">
        <ele>395</ele>
        <time>2020-09-12T19:57:33Z</time>
      </trkpt>
      <trkpt lat="43.15843" lon="0.0114">
        <ele>395.3</ele>
        <time>2020-09-12T19:57:34Z</time>
      </trkpt>
      <trkpt lat="43.15841" lon="0.01137">
        <ele>395.2</ele>
        <time>2020-09-12T19:57:35Z</time>
      </trkpt>
      <trkpt lat="43.15838" lon="0.01134">
        <ele>395.3</ele>
        <time>2020-09-12T19:57:36Z</time>
      </trkpt>
      <trkpt lat="43.15835" lon="0.01131">
        <ele>395.1</ele>
        <time>2020-09-12T19:57:37Z</time>
      </trkpt>
      <trkpt lat="43.15833" lon="0.01128">
        <ele>395.3</ele>
        <time>2020-09-12T19:57:38Z</time>
      </trkpt>
      <trkpt lat="43.15831" lon="0.01123">
        <ele>395.6</ele>
        <time>2020-09-12T19:57:39Z</time>
      </trkpt>
      <trkpt lat="43.15829" lon="0.0112">
        <ele>396.2</ele>
        <time>2020-09-12T19:57:40Z</time>
      </trkpt>
      <trkpt lat="43.15828" lon="0.01116">
        <ele>396.9</ele>
        <time>2020-09-12T19:57:41Z</time>
      </trkpt>
      <trkpt lat="43.15828" lon="0.01112">
        <ele>396.7</ele>
        <time>2020-09-12T19:57:42Z</time>
      </trkpt>
      <trkpt lat="43.15827" lon="0.01105">
        <ele>396.7</ele>
        <time>2020-09-12T19:57:44Z</time>
      </trkpt>
      <trkpt lat="43.15824" lon="0.01098">
        <ele>396.4</ele>
        <time>2020-09-12T19:57:46Z</time>
      </trkpt>
      <trkpt lat="43.15823" lon="0.01093">
        <ele>396.4</ele>
        <time>2020-09-12T19:57:48Z</time>
      </trkpt>
      <trkpt lat="43.15822" lon="0.01088">
        <ele>396.8</ele>
        <time>2020-09-12T19:57:50Z</time>
      </trkpt>
      <trkpt lat="43.15821" lon="0.01085">
        <ele>397.2</ele>
        <time>2020-09-12T19:57:51Z</time>
      </trkpt>
      <trkpt lat="43.1582" lon="0.01081">
        <ele>396.8</ele>
        <time>2020-09-12T19:57:52Z</time>
      </trkpt>
      <trkpt lat="43.1582" lon="0.01077">
        <ele>396.5</ele>
        <time>2020-09-12T19:57:53Z</time>
      </trkpt>
      <trkpt lat="43.15819" lon="0.01071">
        <ele>396.7</ele>
        <time>2020-09-12T19:57:55Z</time>
      </trkpt>
      <trkpt lat="43.15822" lon="0.01068">
        <ele>396.4</ele>
        <time>2020-09-12T19:57:58Z</time>
      </trkpt>
      <trkpt lat="43.15824" lon="0.01064">
        <ele>395.9</ele>
        <time>2020-09-12T19:58:01Z</time>
      </trkpt>
      <trkpt lat="43.15824" lon="0.0106">
        <ele>396.3</ele>
        <time>2020-09-12T19:58:04Z</time>
      </trkpt>
      <trkpt lat="43.15827" lon="0.0106">
        <ele>396.7</ele>
        <time>2020-09-12T19:58:07Z</time>
      </trkpt>
      <trkpt lat="43.15831" lon="0.01059">
        <ele>396.7</ele>
        <time>2020-09-12T19:58:10Z</time>
      </trkpt>
      <trkpt lat="43.15832" lon="0.01056">
        <ele>397.7</ele>
        <time>2020-09-12T19:58:14Z</time>
      </trkpt>
      <trkpt lat="43.15835" lon="0.01054">
        <ele>398.2</ele>
        <time>2020-09-12T19:58:17Z</time>
      </trkpt>
      <trkpt lat="43.15835" lon="0.0105">
        <ele>398.3</ele>
        <time>2020-09-12T19:58:19Z</time>
      </trkpt>
      <trkpt lat="43.15835" lon="0.01042">
        <ele>398.4</ele>
        <time>2020-09-12T19:58:21Z</time>
      </trkpt>
      <trkpt lat="43.15831" lon="0.01043">
        <ele>400.4</ele>
        <time>2020-09-12T19:58:33Z</time>
      </trkpt>
      <trkpt lat="43.15829" lon="0.01041">
        <ele>401.1</ele>
        <time>2020-09-12T19:58:36Z</time>
      </trkpt>
      <trkpt lat="43.15827" lon="0.01038">
        <ele>401.7</ele>
        <time>2020-09-12T19:58:38Z</time>
      </trkpt>
      <trkpt lat="43.15825" lon="0.01033">
        <ele>402</ele>
        <time>2020-09-12T19:58:39Z</time>
      </trkpt>
      <trkpt lat="43.15825" lon="0.01027">
        <ele>402.5</ele>
        <time>2020-09-12T19:58:41Z</time>
      </trkpt>
      <trkpt lat="43.15825" lon="0.01022">
        <ele>402.5</ele>
        <time>2020-09-12T19:58:44Z</time>
      </trkpt>
      <trkpt lat="43.15826" lon="0.01019">
        <ele>402.8</ele>
        <time>2020-09-12T19:58:46Z</time>
      </trkpt>
      <trkpt lat="43.15825" lon="0.01011">
        <ele>403.1</ele>
        <time>2020-09-12T19:58:48Z</time>
      </trkpt>
      <trkpt lat="43.15826" lon="0.01005">
        <ele>402.8</ele>
        <time>2020-09-12T19:58:50Z</time>
      </trkpt>
      <trkpt lat="43.15825" lon="0.00999">
        <ele>402.8</ele>
        <time>2020-09-12T19:58:51Z</time>
      </trkpt>
      <trkpt lat="43.15824" lon="0.00992">
        <ele>402.4</ele>
        <time>2020-09-12T19:58:52Z</time>
      </trkpt>
      <trkpt lat="43.15823" lon="0.00985">
        <ele>402.2</ele>
        <time>2020-09-12T19:58:53Z</time>
      </trkpt>
      <trkpt lat="43.15821" lon="0.00979">
        <ele>402.7</ele>
        <time>2020-09-12T19:58:54Z</time>
      </trkpt>
      <trkpt lat="43.15821" lon="0.00973">
        <ele>401.9</ele>
        <time>2020-09-12T19:58:55Z</time>
      </trkpt>
      <trkpt lat="43.15821" lon="0.00964">
        <ele>400.9</ele>
        <time>2020-09-12T19:58:56Z</time>
      </trkpt>
      <trkpt lat="43.15821" lon="0.00957">
        <ele>400.3</ele>
        <time>2020-09-12T19:58:57Z</time>
      </trkpt>
      <trkpt lat="43.1582" lon="0.0095">
        <ele>399.5</ele>
        <time>2020-09-12T19:58:58Z</time>
      </trkpt>
      <trkpt lat="43.15819" lon="0.00945">
        <ele>399.3</ele>
        <time>2020-09-12T19:58:59Z</time>
      </trkpt>
      <trkpt lat="43.15819" lon="0.00941">
        <ele>399.1</ele>
        <time>2020-09-12T19:59:00Z</time>
      </trkpt>
      <trkpt lat="43.15819" lon="0.00935">
        <ele>398.4</ele>
        <time>2020-09-12T19:59:01Z</time>
      </trkpt>
      <trkpt lat="43.1582" lon="0.0093">
        <ele>397.6</ele>
        <time>2020-09-12T19:59:02Z</time>
      </trkpt>
      <trkpt lat="43.15821" lon="0.00923">
        <ele>397</ele>
        <time>2020-09-12T19:59:03Z</time>
      </trkpt>
      <trkpt lat="43.15824" lon="0.00915">
        <ele>396</ele>
        <time>2020-09-12T19:59:04Z</time>
      </trkpt>
      <trkpt lat="43.15826" lon="0.00907">
        <ele>396.2</ele>
        <time>2020-09-12T19:59:05Z</time>
      </trkpt>
      <trkpt lat="43.15829" lon="0.00898">
        <ele>396.4</ele>
        <time>2020-09-12T19:59:06Z</time>
      </trkpt>
      <trkpt lat="43.1583" lon="0.00892">
        <ele>395.8</ele>
        <time>2020-09-12T19:59:07Z</time>
      </trkpt>
      <trkpt lat="43.15831" lon="0.00883">
        <ele>395.1</ele>
        <time>2020-09-12T19:59:08Z</time>
      </trkpt>
      <trkpt lat="43.15832" lon="0.00873">
        <ele>393.8</ele>
        <time>2020-09-12T19:59:09Z</time>
      </trkpt>
      <trkpt lat="43.15831" lon="0.00865">
        <ele>393.5</ele>
        <time>2020-09-12T19:59:10Z</time>
      </trkpt>
      <trkpt lat="43.15831" lon="0.00857">
        <ele>392.1</ele>
        <time>2020-09-12T19:59:11Z</time>
      </trkpt>
      <trkpt lat="43.15828" lon="0.00847">
        <ele>391.2</ele>
        <time>2020-09-12T19:59:12Z</time>
      </trkpt>
      <trkpt lat="43.15826" lon="0.00838">
        <ele>390.8</ele>
        <time>2020-09-12T19:59:13Z</time>
      </trkpt>
      <trkpt lat="43.15823" lon="0.0083">
        <ele>390.6</ele>
        <time>2020-09-12T19:59:14Z</time>
      </trkpt>
      <trkpt lat="43.15823" lon="0.00821">
        <ele>389.8</ele>
        <time>2020-09-12T19:59:15Z</time>
      </trkpt>
      <trkpt lat="43.15822" lon="0.00814">
        <ele>388.9</ele>
        <time>2020-09-12T19:59:16Z</time>
      </trkpt>
      <trkpt lat="43.15822" lon="0.00808">
        <ele>387.8</ele>
        <time>2020-09-12T19:59:17Z</time>
      </trkpt>
      <trkpt lat="43.15821" lon="0.00803">
        <ele>387.8</ele>
        <time>2020-09-12T19:59:18Z</time>
      </trkpt>
      <trkpt lat="43.15821" lon="0.00796">
        <ele>387.6</ele>
        <time>2020-09-12T19:59:20Z</time>
      </trkpt>
      <trkpt lat="43.1582" lon="0.00791">
        <ele>386.3</ele>
        <time>2020-09-12T19:59:22Z</time>
      </trkpt>
      <trkpt lat="43.15819" lon="0.00788">
        <ele>385.1</ele>
        <time>2020-09-12T19:59:24Z</time>
      </trkpt>
      <trkpt lat="43.15817" lon="0.00783">
        <ele>385.6</ele>
        <time>2020-09-12T19:59:25Z</time>
      </trkpt>
      <trkpt lat="43.15816" lon="0.0078">
        <ele>385.8</ele>
        <time>2020-09-12T19:59:26Z</time>
      </trkpt>
      <trkpt lat="43.15814" lon="0.00776">
        <ele>385.5</ele>
        <time>2020-09-12T19:59:28Z</time>
      </trkpt>
      <trkpt lat="43.15817" lon="0.00772">
        <ele>383.1</ele>
        <time>2020-09-12T19:59:36Z</time>
      </trkpt>
      <trkpt lat="43.15815" lon="0.00769">
        <ele>382.8</ele>
        <time>2020-09-12T19:59:38Z</time>
      </trkpt>
      <trkpt lat="43.15813" lon="0.00764">
        <ele>382.4</ele>
        <time>2020-09-12T19:59:40Z</time>
      </trkpt>
      <trkpt lat="43.15813" lon="0.00759">
        <ele>382.4</ele>
        <time>2020-09-12T19:59:42Z</time>
      </trkpt>
      <trkpt lat="43.15814" lon="0.00753">
        <ele>382.8</ele>
        <time>2020-09-12T19:59:46Z</time>
      </trkpt>
      <trkpt lat="43.15813" lon="0.00749">
        <ele>383.1</ele>
        <time>2020-09-12T19:59:47Z</time>
      </trkpt>
      <trkpt lat="43.15813" lon="0.00745">
        <ele>383.2</ele>
        <time>2020-09-12T19:59:48Z</time>
      </trkpt>
      <trkpt lat="43.15813" lon="0.00741">
        <ele>382.7</ele>
        <time>2020-09-12T19:59:49Z</time>
      </trkpt>
      <trkpt lat="43.15813" lon="0.00737">
        <ele>382.7</ele>
        <time>2020-09-12T19:59:50Z</time>
      </trkpt>
      <trkpt lat="43.15815" lon="0.00731">
        <ele>383.7</ele>
        <time>2020-09-12T19:59:52Z</time>
      </trkpt>
      <trkpt lat="43.15817" lon="0.00728">
        <ele>383.8</ele>
        <time>2020-09-12T19:59:53Z</time>
      </trkpt>
      <trkpt lat="43.1582" lon="0.00725">
        <ele>383.7</ele>
        <time>2020-09-12T19:59:54Z</time>
      </trkpt>
      <trkpt lat="43.15822" lon="0.00722">
        <ele>384.5</ele>
        <time>2020-09-12T19:59:55Z</time>
      </trkpt>
      <trkpt lat="43.15825" lon="0.0072">
        <ele>384.6</ele>
        <time>2020-09-12T19:59:56Z</time>
      </trkpt>
      <trkpt lat="43.15829" lon="0.00718">
        <ele>384.8</ele>
        <time>2020-09-12T19:59:57Z</time>
      </trkpt>
      <trkpt lat="43.15831" lon="0.00717">
        <ele>384.8</ele>
        <time>2020-09-12T19:59:58Z</time>
      </trkpt>
      <trkpt lat="43.15835" lon="0.00717">
        <ele>384.1</ele>
        <time>2020-09-12T20:00:00Z</time>
      </trkpt>
      <trkpt lat="43.15838" lon="0.00719">
        <ele>382.7</ele>
        <time>2020-09-12T20:00:09Z</time>
      </trkpt>
      <trkpt lat="43.15839" lon="0.00713">
        <ele>382.9</ele>
        <time>2020-09-12T20:00:13Z</time>
      </trkpt>
      <trkpt lat="43.15841" lon="0.00709">
        <ele>383.2</ele>
        <time>2020-09-12T20:00:15Z</time>
      </trkpt>
      <trkpt lat="43.15842" lon="0.00703">
        <ele>383.6</ele>
        <time>2020-09-12T20:00:17Z</time>
      </trkpt>
      <trkpt lat="43.15846" lon="0.00698">
        <ele>383.9</ele>
        <time>2020-09-12T20:00:19Z</time>
      </trkpt>
      <trkpt lat="43.15849" lon="0.00695">
        <ele>383.5</ele>
        <time>2020-09-12T20:00:21Z</time>
      </trkpt>
      <trkpt lat="43.15852" lon="0.00691">
        <ele>384.3</ele>
        <time>2020-09-12T20:00:23Z</time>
      </trkpt>
      <trkpt lat="43.15855" lon="0.00686">
        <ele>384.4</ele>
        <time>2020-09-12T20:00:25Z</time>
      </trkpt>
      <trkpt lat="43.15857" lon="0.00679">
        <ele>384.3</ele>
        <time>2020-09-12T20:00:27Z</time>
      </trkpt>
      <trkpt lat="43.15858" lon="0.00673">
        <ele>383.9</ele>
        <time>2020-09-12T20:00:29Z</time>
      </trkpt>
      <trkpt lat="43.15857" lon="0.00668">
        <ele>384.1</ele>
        <time>2020-09-12T20:00:30Z</time>
      </trkpt>
      <trkpt lat="43.15858" lon="0.00664">
        <ele>384.3</ele>
        <time>2020-09-12T20:00:31Z</time>
      </trkpt>
      <trkpt lat="43.15858" lon="0.00659">
        <ele>384.4</ele>
        <time>2020-09-12T20:00:32Z</time>
      </trkpt>
      <trkpt lat="43.15858" lon="0.00655">
        <ele>384.2</ele>
        <time>2020-09-12T20:00:33Z</time>
      </trkpt>
      <trkpt lat="43.15857" lon="0.00648">
        <ele>383.8</ele>
        <time>2020-09-12T20:00:34Z</time>
      </trkpt>
      <trkpt lat="43.15856" lon="0.00642">
        <ele>383.2</ele>
        <time>2020-09-12T20:00:35Z</time>
      </trkpt>
      <trkpt lat="43.15854" lon="0.00637">
        <ele>382.8</ele>
        <time>2020-09-12T20:00:36Z</time>
      </trkpt>
      <trkpt lat="43.15851" lon="0.00637">
        <ele>382.5</ele>
        <time>2020-09-12T20:00:37Z</time>
      </trkpt>
      <trkpt lat="43.15849" lon="0.00637">
        <ele>382.6</ele>
        <time>2020-09-12T20:00:38Z</time>
      </trkpt>
      <trkpt lat="43.15846" lon="0.00636">
        <ele>382.4</ele>
        <time>2020-09-12T20:00:39Z</time>
      </trkpt>
      <trkpt lat="43.15843" lon="0.00637">
        <ele>382.4</ele>
        <time>2020-09-12T20:00:40Z</time>
      </trkpt>
      <trkpt lat="43.15838" lon="0.00637">
        <ele>382.9</ele>
        <time>2020-09-12T20:00:42Z</time>
      </trkpt>
      <trkpt lat="43.15833" lon="0.00636">
        <ele>382.2</ele>
        <time>2020-09-12T20:00:44Z</time>
      </trkpt>
      <trkpt lat="43.1583" lon="0.00635">
        <ele>382</ele>
        <time>2020-09-12T20:00:45Z</time>
      </trkpt>
      <trkpt lat="43.15827" lon="0.00633">
        <ele>382</ele>
        <time>2020-09-12T20:00:46Z</time>
      </trkpt>
      <trkpt lat="43.15825" lon="0.00632">
        <ele>381.8</ele>
        <time>2020-09-12T20:00:47Z</time>
      </trkpt>
      <trkpt lat="43.15821" lon="0.0063">
        <ele>381.7</ele>
        <time>2020-09-12T20:00:48Z</time>
      </trkpt>
      <trkpt lat="43.15818" lon="0.00628">
        <ele>381.8</ele>
        <time>2020-09-12T20:00:49Z</time>
      </trkpt>
      <trkpt lat="43.15814" lon="0.00627">
        <ele>381.8</ele>
        <time>2020-09-12T20:00:50Z</time>
      </trkpt>
      <trkpt lat="43.15811" lon="0.00625">
        <ele>381.9</ele>
        <time>2020-09-12T20:00:51Z</time>
      </trkpt>
      <trkpt lat="43.15808" lon="0.00624">
        <ele>382.3</ele>
        <time>2020-09-12T20:00:52Z</time>
      </trkpt>
      <trkpt lat="43.15805" lon="0.00623">
        <ele>382.6</ele>
        <time>2020-09-12T20:00:53Z</time>
      </trkpt>
      <trkpt lat="43.15803" lon="0.00621">
        <ele>383</ele>
        <time>2020-09-12T20:00:54Z</time>
      </trkpt>
      <trkpt lat="43.158" lon="0.00619">
        <ele>383</ele>
        <time>2020-09-12T20:00:55Z</time>
      </trkpt>
      <trkpt lat="43.15795" lon="0.00617">
        <ele>383.1</ele>
        <time>2020-09-12T20:00:57Z</time>
      </trkpt>
      <trkpt lat="43.15792" lon="0.00616">
        <ele>383.2</ele>
        <time>2020-09-12T20:00:58Z</time>
      </trkpt>
      <trkpt lat="43.1579" lon="0.00615">
        <ele>383.7</ele>
        <time>2020-09-12T20:00:59Z</time>
      </trkpt>
      <trkpt lat="43.15787" lon="0.00614">
        <ele>383.4</ele>
        <time>2020-09-12T20:01:00Z</time>
      </trkpt>
      <trkpt lat="43.15784" lon="0.00614">
        <ele>383.8</ele>
        <time>2020-09-12T20:01:01Z</time>
      </trkpt>
      <trkpt lat="43.15781" lon="0.00614">
        <ele>383.3</ele>
        <time>2020-09-12T20:01:02Z</time>
      </trkpt>
      <trkpt lat="43.15778" lon="0.00615">
        <ele>383.5</ele>
        <time>2020-09-12T20:01:03Z</time>
      </trkpt>
      <trkpt lat="43.15775" lon="0.00616">
        <ele>383.7</ele>
        <time>2020-09-12T20:01:04Z</time>
      </trkpt>
      <trkpt lat="43.15772" lon="0.00617">
        <ele>384.1</ele>
        <time>2020-09-12T20:01:05Z</time>
      </trkpt>
      <trkpt lat="43.15768" lon="0.00616">
        <ele>384.1</ele>
        <time>2020-09-12T20:01:07Z</time>
      </trkpt>
      <trkpt lat="43.15763" lon="0.00617">
        <ele>384.7</ele>
        <time>2020-09-12T20:01:09Z</time>
      </trkpt>
      <trkpt lat="43.15758" lon="0.00612">
        <ele>385.2</ele>
        <time>2020-09-12T20:01:11Z</time>
      </trkpt>
      <trkpt lat="43.15757" lon="0.00607">
        <ele>386.2</ele>
        <time>2020-09-12T20:01:12Z</time>
      </trkpt>
      <trkpt lat="43.15757" lon="0.00603">
        <ele>386.2</ele>
        <time>2020-09-12T20:01:13Z</time>
      </trkpt>
      <trkpt lat="43.15757" lon="0.00596">
        <ele>385.7</ele>
        <time>2020-09-12T20:01:14Z</time>
      </trkpt>
      <trkpt lat="43.15759" lon="0.00589">
        <ele>385.7</ele>
        <time>2020-09-12T20:01:15Z</time>
      </trkpt>
      <trkpt lat="43.15758" lon="0.00579">
        <ele>385.8</ele>
        <time>2020-09-12T20:01:16Z</time>
      </trkpt>
      <trkpt lat="43.15758" lon="0.00571">
        <ele>385.6</ele>
        <time>2020-09-12T20:01:17Z</time>
      </trkpt>
      <trkpt lat="43.15757" lon="0.00562">
        <ele>385.6</ele>
        <time>2020-09-12T20:01:18Z</time>
      </trkpt>
      <trkpt lat="43.15756" lon="0.00554">
        <ele>385.7</ele>
        <time>2020-09-12T20:01:19Z</time>
      </trkpt>
      <trkpt lat="43.15755" lon="0.00545">
        <ele>385.8</ele>
        <time>2020-09-12T20:01:20Z</time>
      </trkpt>
      <trkpt lat="43.15754" lon="0.00538">
        <ele>385.8</ele>
        <time>2020-09-12T20:01:21Z</time>
      </trkpt>
      <trkpt lat="43.15752" lon="0.00533">
        <ele>385.9</ele>
        <time>2020-09-12T20:01:22Z</time>
      </trkpt>
      <trkpt lat="43.15749" lon="0.00529">
        <ele>385.9</ele>
        <time>2020-09-12T20:01:23Z</time>
      </trkpt>
      <trkpt lat="43.15747" lon="0.00524">
        <ele>385.9</ele>
        <time>2020-09-12T20:01:24Z</time>
      </trkpt>
      <trkpt lat="43.15745" lon="0.00518">
        <ele>386</ele>
        <time>2020-09-12T20:01:25Z</time>
      </trkpt>
      <trkpt lat="43.15743" lon="0.00512">
        <ele>386.1</ele>
        <time>2020-09-12T20:01:26Z</time>
      </trkpt>
      <trkpt lat="43.15741" lon="0.00509">
        <ele>386.1</ele>
        <time>2020-09-12T20:01:27Z</time>
      </trkpt>
      <trkpt lat="43.15738" lon="0.00506">
        <ele>386.1</ele>
        <time>2020-09-12T20:01:28Z</time>
      </trkpt>
      <trkpt lat="43.15734" lon="0.00501">
        <ele>386.2</ele>
        <time>2020-09-12T20:01:30Z</time>
      </trkpt>
      <trkpt lat="43.1573" lon="0.00497">
        <ele>386.2</ele>
        <time>2020-09-12T20:01:32Z</time>
      </trkpt>
      <trkpt lat="43.15727" lon="0.00494">
        <ele>386.3</ele>
        <time>2020-09-12T20:01:34Z</time>
      </trkpt>
      <trkpt lat="43.15724" lon="0.0049">
        <ele>386.3</ele>
        <time>2020-09-12T20:01:36Z</time>
      </trkpt>
      <trkpt lat="43.15722" lon="0.00485">
        <ele>386.4</ele>
        <time>2020-09-12T20:01:38Z</time>
      </trkpt>
      <trkpt lat="43.15719" lon="0.00479">
        <ele>386.4</ele>
        <time>2020-09-12T20:01:40Z</time>
      </trkpt>
      <trkpt lat="43.15718" lon="0.00475">
        <ele>386.4</ele>
        <time>2020-09-12T20:01:41Z</time>
      </trkpt>
      <trkpt lat="43.15718" lon="0.00471">
        <ele>386.5</ele>
        <time>2020-09-12T20:01:42Z</time>
      </trkpt>
      <trkpt lat="43.15718" lon="0.00467">
        <ele>386.5</ele>
        <time>2020-09-12T20:01:43Z</time>
      </trkpt>
      <trkpt lat="43.1572" lon="0.00461">
        <ele>386.6</ele>
        <time>2020-09-12T20:01:45Z</time>
      </trkpt>
      <trkpt lat="43.15721" lon="0.00457">
        <ele>386.6</ele>
        <time>2020-09-12T20:01:46Z</time>
      </trkpt>
      <trkpt lat="43.15722" lon="0.00452">
        <ele>386.6</ele>
        <time>2020-09-12T20:01:47Z</time>
      </trkpt>
      <trkpt lat="43.15724" lon="0.00444">
        <ele>386.7</ele>
        <time>2020-09-12T20:01:48Z</time>
      </trkpt>
      <trkpt lat="43.15725" lon="0.00438">
        <ele>386.7</ele>
        <time>2020-09-12T20:01:49Z</time>
      </trkpt>
      <trkpt lat="43.15726" lon="0.00433">
        <ele>386.8</ele>
        <time>2020-09-12T20:01:50Z</time>
      </trkpt>
      <trkpt lat="43.15727" lon="0.00429">
        <ele>386.8</ele>
        <time>2020-09-12T20:01:51Z</time>
      </trkpt>
      <trkpt lat="43.15728" lon="0.00423">
        <ele>386.8</ele>
        <time>2020-09-12T20:01:52Z</time>
      </trkpt>
      <trkpt lat="43.15729" lon="0.00419">
        <ele>386.9</ele>
        <time>2020-09-12T20:01:53Z</time>
      </trkpt>
      <trkpt lat="43.15731" lon="0.00413">
        <ele>386.9</ele>
        <time>2020-09-12T20:01:54Z</time>
      </trkpt>
      <trkpt lat="43.15732" lon="0.00408">
        <ele>387</ele>
        <time>2020-09-12T20:01:55Z</time>
      </trkpt>
      <trkpt lat="43.15732" lon="0.00402">
        <ele>387</ele>
        <time>2020-09-12T20:01:56Z</time>
      </trkpt>
      <trkpt lat="43.15733" lon="0.00397">
        <ele>387.1</ele>
        <time>2020-09-12T20:01:57Z</time>
      </trkpt>
      <trkpt lat="43.15732" lon="0.00393">
        <ele>387.1</ele>
        <time>2020-09-12T20:01:58Z</time>
      </trkpt>
      <trkpt lat="43.15733" lon="0.00388">
        <ele>387.1</ele>
        <time>2020-09-12T20:01:59Z</time>
      </trkpt>
      <trkpt lat="43.15733" lon="0.00384">
        <ele>387.2</ele>
        <time>2020-09-12T20:02:00Z</time>
      </trkpt>
      <trkpt lat="43.15733" lon="0.00379">
        <ele>387.2</ele>
        <time>2020-09-12T20:02:01Z</time>
      </trkpt>
      <trkpt lat="43.15733" lon="0.00374">
        <ele>387.2</ele>
        <time>2020-09-12T20:02:02Z</time>
      </trkpt>
      <trkpt lat="43.15733" lon="0.0037">
        <ele>387.2</ele>
        <time>2020-09-12T20:02:03Z</time>
      </trkpt>
      <trkpt lat="43.15731" lon="0.00366">
        <ele>387.3</ele>
        <time>2020-09-12T20:02:04Z</time>
      </trkpt>
      <trkpt lat="43.15729" lon="0.00363">
        <ele>387.3</ele>
        <time>2020-09-12T20:02:05Z</time>
      </trkpt>
      <trkpt lat="43.15726" lon="0.00356">
        <ele>387.4</ele>
        <time>2020-09-12T20:02:06Z</time>
      </trkpt>
      <trkpt lat="43.15725" lon="0.00352">
        <ele>387.4</ele>
        <time>2020-09-12T20:02:07Z</time>
      </trkpt>
      <trkpt lat="43.15724" lon="0.00345">
        <ele>387.4</ele>
        <time>2020-09-12T20:02:08Z</time>
      </trkpt>
      <trkpt lat="43.15723" lon="0.0034">
        <ele>387.5</ele>
        <time>2020-09-12T20:02:09Z</time>
      </trkpt>
      <trkpt lat="43.15724" lon="0.00336">
        <ele>387.5</ele>
        <time>2020-09-12T20:02:10Z</time>
      </trkpt>
      <trkpt lat="43.15725" lon="0.00332">
        <ele>387.5</ele>
        <time>2020-09-12T20:02:11Z</time>
      </trkpt>
      <trkpt lat="43.15726" lon="0.00325">
        <ele>387.6</ele>
        <time>2020-09-12T20:02:13Z</time>
      </trkpt>
      <trkpt lat="43.15726" lon="0.00319">
        <ele>387.6</ele>
        <time>2020-09-12T20:02:15Z</time>
      </trkpt>
      <trkpt lat="43.15726" lon="0.00315">
        <ele>387.7</ele>
        <time>2020-09-12T20:02:16Z</time>
      </trkpt>
      <trkpt lat="43.15726" lon="0.00307">
        <ele>387.7</ele>
        <time>2020-09-12T20:02:18Z</time>
      </trkpt>
      <trkpt lat="43.15727" lon="0.00303">
        <ele>387.7</ele>
        <time>2020-09-12T20:02:19Z</time>
      </trkpt>
      <trkpt lat="43.15728" lon="0.00299">
        <ele>387.8</ele>
        <time>2020-09-12T20:02:20Z</time>
      </trkpt>
      <trkpt lat="43.15729" lon="0.00295">
        <ele>387.8</ele>
        <time>2020-09-12T20:02:21Z</time>
      </trkpt>
      <trkpt lat="43.15729" lon="0.00287">
        <ele>387.9</ele>
        <time>2020-09-12T20:02:23Z</time>
      </trkpt>
      <trkpt lat="43.15729" lon="0.00283">
        <ele>387.9</ele>
        <time>2020-09-12T20:02:24Z</time>
      </trkpt>
      <trkpt lat="43.1573" lon="0.00279">
        <ele>387.9</ele>
        <time>2020-09-12T20:02:25Z</time>
      </trkpt>
      <trkpt lat="43.15728" lon="0.00272">
        <ele>388</ele>
        <time>2020-09-12T20:02:27Z</time>
      </trkpt>
      <trkpt lat="43.15725" lon="0.00268">
        <ele>388</ele>
        <time>2020-09-12T20:02:29Z</time>
      </trkpt>
      <trkpt lat="43.15722" lon="0.00265">
        <ele>388.1</ele>
        <time>2020-09-12T20:02:31Z</time>
      </trkpt>
      <trkpt lat="43.15719" lon="0.0026">
        <ele>388.1</ele>
        <time>2020-09-12T20:02:33Z</time>
      </trkpt>
      <trkpt lat="43.15718" lon="0.00256">
        <ele>388.1</ele>
        <time>2020-09-12T20:02:34Z</time>
      </trkpt>
      <trkpt lat="43.15717" lon="0.00252">
        <ele>388.2</ele>
        <time>2020-09-12T20:02:35Z</time>
      </trkpt>
      <trkpt lat="43.15717" lon="0.00248">
        <ele>388.2</ele>
        <time>2020-09-12T20:02:36Z</time>
      </trkpt>
      <trkpt lat="43.15716" lon="0.00244">
        <ele>388.2</ele>
        <time>2020-09-12T20:02:37Z</time>
      </trkpt>
      <trkpt lat="43.15715" lon="0.00238">
        <ele>388.3</ele>
        <time>2020-09-12T20:02:39Z</time>
      </trkpt>
      <trkpt lat="43.15713" lon="0.0023">
        <ele>388.3</ele>
        <time>2020-09-12T20:02:41Z</time>
      </trkpt>
      <trkpt lat="43.15711" lon="0.00227">
        <ele>388.3</ele>
        <time>2020-09-12T20:02:42Z</time>
      </trkpt>
      <trkpt lat="43.15707" lon="0.00221">
        <ele>388.4</ele>
        <time>2020-09-12T20:02:44Z</time>
      </trkpt>
      <trkpt lat="43.15704" lon="0.00219">
        <ele>388.4</ele>
        <time>2020-09-12T20:02:45Z</time>
      </trkpt>
      <trkpt lat="43.15701" lon="0.00216">
        <ele>388.5</ele>
        <time>2020-09-12T20:02:46Z</time>
      </trkpt>
      <trkpt lat="43.15698" lon="0.00212">
        <ele>388.5</ele>
        <time>2020-09-12T20:02:47Z</time>
      </trkpt>
      <trkpt lat="43.15695" lon="0.00209">
        <ele>388.6</ele>
        <time>2020-09-12T20:02:48Z</time>
      </trkpt>
      <trkpt lat="43.15693" lon="0.00205">
        <ele>388.6</ele>
        <time>2020-09-12T20:02:49Z</time>
      </trkpt>
      <trkpt lat="43.15689" lon="0.00202">
        <ele>388.6</ele>
        <time>2020-09-12T20:02:50Z</time>
      </trkpt>
      <trkpt lat="43.15687" lon="0.002">
        <ele>388.7</ele>
        <time>2020-09-12T20:02:51Z</time>
      </trkpt>
      <trkpt lat="43.15685" lon="0.00198">
        <ele>388.7</ele>
        <time>2020-09-12T20:02:52Z</time>
      </trkpt>
      <trkpt lat="43.15682" lon="0.00196">
        <ele>388.7</ele>
        <time>2020-09-12T20:02:53Z</time>
      </trkpt>
      <trkpt lat="43.15679" lon="0.00193">
        <ele>388.8</ele>
        <time>2020-09-12T20:02:54Z</time>
      </trkpt>
      <trkpt lat="43.15676" lon="0.00191">
        <ele>388.8</ele>
        <time>2020-09-12T20:02:55Z</time>
      </trkpt>
      <trkpt lat="43.15673" lon="0.00188">
        <ele>388.8</ele>
        <time>2020-09-12T20:02:56Z</time>
      </trkpt>
      <trkpt lat="43.1567" lon="0.00186">
        <ele>388.9</ele>
        <time>2020-09-12T20:02:57Z</time>
      </trkpt>
      <trkpt lat="43.15665" lon="0.00182">
        <ele>388.9</ele>
        <time>2020-09-12T20:02:59Z</time>
      </trkpt>
      <trkpt lat="43.15663" lon="0.0018">
        <ele>389</ele>
        <time>2020-09-12T20:03:00Z</time>
      </trkpt>
      <trkpt lat="43.1566" lon="0.00177">
        <ele>389</ele>
        <time>2020-09-12T20:03:01Z</time>
      </trkpt>
      <trkpt lat="43.15657" lon="0.00174">
        <ele>389</ele>
        <time>2020-09-12T20:03:02Z</time>
      </trkpt>
      <trkpt lat="43.15654" lon="0.00172">
        <ele>389.1</ele>
        <time>2020-09-12T20:03:03Z</time>
      </trkpt>
      <trkpt lat="43.15651" lon="0.0017">
        <ele>389.1</ele>
        <time>2020-09-12T20:03:04Z</time>
      </trkpt>
      <trkpt lat="43.15648" lon="0.00167">
        <ele>389.1</ele>
        <time>2020-09-12T20:03:05Z</time>
      </trkpt>
      <trkpt lat="43.15645" lon="0.00164">
        <ele>389.2</ele>
        <time>2020-09-12T20:03:06Z</time>
      </trkpt>
      <trkpt lat="43.15643" lon="0.00161">
        <ele>389.2</ele>
        <time>2020-09-12T20:03:07Z</time>
      </trkpt>
      <trkpt lat="43.1564" lon="0.00159">
        <ele>389.2</ele>
        <time>2020-09-12T20:03:08Z</time>
      </trkpt>
      <trkpt lat="43.15637" lon="0.00154">
        <ele>389.3</ele>
        <time>2020-09-12T20:03:10Z</time>
      </trkpt>
      <trkpt lat="43.15635" lon="0.00149">
        <ele>389.3</ele>
        <time>2020-09-12T20:03:12Z</time>
      </trkpt>
      <trkpt lat="43.15633" lon="0.00143">
        <ele>389.4</ele>
        <time>2020-09-12T20:03:14Z</time>
      </trkpt>
      <trkpt lat="43.15629" lon="0.00138">
        <ele>389.4</ele>
        <time>2020-09-12T20:03:16Z</time>
      </trkpt>
      <trkpt lat="43.15626" lon="0.00134">
        <ele>389.5</ele>
        <time>2020-09-12T20:03:18Z</time>
      </trkpt>
      <trkpt lat="43.15623" lon="0.00129">
        <ele>389.5</ele>
        <time>2020-09-12T20:03:21Z</time>
      </trkpt>
      <trkpt lat="43.15619" lon="0.00123">
        <ele>389.6</ele>
        <time>2020-09-12T20:03:23Z</time>
      </trkpt>
      <trkpt lat="43.15616" lon="0.00117">
        <ele>389.6</ele>
        <time>2020-09-12T20:03:25Z</time>
      </trkpt>
      <trkpt lat="43.15613" lon="0.00111">
        <ele>389.7</ele>
        <time>2020-09-12T20:03:27Z</time>
      </trkpt>
      <trkpt lat="43.15609" lon="0.00108">
        <ele>389.7</ele>
        <time>2020-09-12T20:03:29Z</time>
      </trkpt>
      <trkpt lat="43.15606" lon="0.00106">
        <ele>389.8</ele>
        <time>2020-09-12T20:03:30Z</time>
      </trkpt>
      <trkpt lat="43.15602" lon="0.00103">
        <ele>389.8</ele>
        <time>2020-09-12T20:03:32Z</time>
      </trkpt>
      <trkpt lat="43.15599" lon="0.001">
        <ele>389.9</ele>
        <time>2020-09-12T20:03:33Z</time>
      </trkpt>
      <trkpt lat="43.15596" lon="0.00098">
        <ele>389.9</ele>
        <time>2020-09-12T20:03:34Z</time>
      </trkpt>
      <trkpt lat="43.15592" lon="0.00096">
        <ele>389.9</ele>
        <time>2020-09-12T20:03:35Z</time>
      </trkpt>
      <trkpt lat="43.1559" lon="0.00093">
        <ele>390</ele>
        <time>2020-09-12T20:03:36Z</time>
      </trkpt>
      <trkpt lat="43.15588" lon="0.00091">
        <ele>390</ele>
        <time>2020-09-12T20:03:37Z</time>
      </trkpt>
      <trkpt lat="43.15586" lon="0.00086">
        <ele>390.1</ele>
        <time>2020-09-12T20:03:38Z</time>
      </trkpt>
      <trkpt lat="43.15584" lon="0.0008">
        <ele>390.1</ele>
        <time>2020-09-12T20:03:39Z</time>
      </trkpt>
      <trkpt lat="43.15583" lon="0.00076">
        <ele>390.1</ele>
        <time>2020-09-12T20:03:40Z</time>
      </trkpt>
      <trkpt lat="43.15582" lon="0.00072">
        <ele>390.2</ele>
        <time>2020-09-12T20:03:41Z</time>
      </trkpt>
      <trkpt lat="43.15581" lon="0.00067">
        <ele>390.2</ele>
        <time>2020-09-12T20:03:42Z</time>
      </trkpt>
      <trkpt lat="43.15578" lon="0.00063">
        <ele>390.3</ele>
        <time>2020-09-12T20:03:44Z</time>
      </trkpt>
      <trkpt lat="43.15579" lon="0.00058">
        <ele>390.3</ele>
        <time>2020-09-12T20:03:47Z</time>
      </trkpt>
      <trkpt lat="43.15583" lon="0.00053">
        <ele>390.4</ele>
        <time>2020-09-12T20:03:49Z</time>
      </trkpt>
      <trkpt lat="43.15585" lon="0.00047">
        <ele>390.4</ele>
        <time>2020-09-12T20:03:51Z</time>
      </trkpt>
      <trkpt lat="43.15587" lon="0.00044">
        <ele>390.5</ele>
        <time>2020-09-12T20:03:53Z</time>
      </trkpt>
      <trkpt lat="43.15585" lon="0.00039">
        <ele>390.5</ele>
        <time>2020-09-12T20:03:54Z</time>
      </trkpt>
      <trkpt lat="43.15584" lon="0.00035">
        <ele>390.5</ele>
        <time>2020-09-12T20:03:57Z</time>
      </trkpt>
      <trkpt lat="43.15582" lon="0.00032">
        <ele>390.6</ele>
        <time>2020-09-12T20:03:58Z</time>
      </trkpt>
      <trkpt lat="43.15581" lon="0.00026">
        <ele>389.7</ele>
        <time>2020-09-12T20:03:59Z</time>
      </trkpt>
      <trkpt lat="43.15579" lon="0.00024">
        <ele>389.7</ele>
        <time>2020-09-12T20:04:00Z</time>
      </trkpt>
      <trkpt lat="43.15575" lon="0.00022">
        <ele>389.6</ele>
        <time>2020-09-12T20:04:01Z</time>
      </trkpt>
      <trkpt lat="43.15572" lon="0.00021">
        <ele>389.6</ele>
        <time>2020-09-12T20:04:02Z</time>
      </trkpt>
      <trkpt lat="43.15569" lon="0.00021">
        <ele>390.3</ele>
        <time>2020-09-12T20:04:03Z</time>
      </trkpt>
      <trkpt lat="43.15565" lon="0.00024">
        <ele>390.8</ele>
        <time>2020-09-12T20:04:05Z</time>
      </trkpt>
      <trkpt lat="43.1556" lon="0.00026">
        <ele>391.3</ele>
        <time>2020-09-12T20:04:07Z</time>
      </trkpt>
      <trkpt lat="43.15555" lon="0.00027">
        <ele>391.8</ele>
        <time>2020-09-12T20:04:09Z</time>
      </trkpt>
      <trkpt lat="43.15552" lon="0.00026">
        <ele>392.2</ele>
        <time>2020-09-12T20:04:11Z</time>
      </trkpt>
      <trkpt lat="43.15548" lon="0.00024">
        <ele>392.5</ele>
        <time>2020-09-12T20:04:13Z</time>
      </trkpt>
      <trkpt lat="43.15545" lon="0.00022">
        <ele>392.6</ele>
        <time>2020-09-12T20:04:15Z</time>
      </trkpt>
      <trkpt lat="43.15544" lon="0.00019">
        <ele>392.7</ele>
        <time>2020-09-12T20:04:18Z</time>
      </trkpt>
      <trkpt lat="43.15542" lon="0.00015">
        <ele>389.3</ele>
        <time>2020-09-12T20:04:19Z</time>
      </trkpt>
      <trkpt lat="43.15542" lon="0.00011">
        <ele>389.3</ele>
        <time>2020-09-12T20:04:22Z</time>
      </trkpt>
      <trkpt lat="43.15542" lon="4.0E-5">
        <ele>389.3</ele>
        <time>2020-09-12T20:04:24Z</time>
      </trkpt>
      <trkpt lat="43.1554" lon="-1.0E-5">
        <ele>389.3</ele>
        <time>2020-09-12T20:04:26Z</time>
      </trkpt>
      <trkpt lat="43.1554" lon="-5.0E-5">
        <ele>389.3</ele>
        <time>2020-09-12T20:04:28Z</time>
      </trkpt>
      <trkpt lat="43.1554" lon="-0.0001">
        <ele>389.4</ele>
        <time>2020-09-12T20:04:30Z</time>
      </trkpt>
      <trkpt lat="43.15539" lon="-0.00015">
        <ele>389.4</ele>
        <time>2020-09-12T20:04:32Z</time>
      </trkpt>
      <trkpt lat="43.15538" lon="-0.0002">
        <ele>389.4</ele>
        <time>2020-09-12T20:04:33Z</time>
      </trkpt>
      <trkpt lat="43.15537" lon="-0.00023">
        <ele>389.5</ele>
        <time>2020-09-12T20:04:34Z</time>
      </trkpt>
      <trkpt lat="43.15535" lon="-0.0003">
        <ele>389.6</ele>
        <time>2020-09-12T20:04:36Z</time>
      </trkpt>
      <trkpt lat="43.15535" lon="-0.00034">
        <ele>389.6</ele>
        <time>2020-09-12T20:04:37Z</time>
      </trkpt>
      <trkpt lat="43.15534" lon="-0.00041">
        <ele>389.7</ele>
        <time>2020-09-12T20:04:39Z</time>
      </trkpt>
      <trkpt lat="43.15532" lon="-0.00045">
        <ele>389.8</ele>
        <time>2020-09-12T20:04:41Z</time>
      </trkpt>
      <trkpt lat="43.1553" lon="-0.00048">
        <ele>389.8</ele>
        <time>2020-09-12T20:04:43Z</time>
      </trkpt>
      <trkpt lat="43.15528" lon="-0.00053">
        <ele>389.9</ele>
        <time>2020-09-12T20:04:45Z</time>
      </trkpt>
      <trkpt lat="43.15525" lon="-0.00056">
        <ele>390.1</ele>
        <time>2020-09-12T20:04:47Z</time>
      </trkpt>
      <trkpt lat="43.15523" lon="-0.00058">
        <ele>390.2</ele>
        <time>2020-09-12T20:04:48Z</time>
      </trkpt>
      <trkpt lat="43.15521" lon="-0.00061">
        <ele>390.3</ele>
        <time>2020-09-12T20:04:49Z</time>
      </trkpt>
      <trkpt lat="43.15516" lon="-0.00066">
        <ele>390.5</ele>
        <time>2020-09-12T20:04:51Z</time>
      </trkpt>
      <trkpt lat="43.15514" lon="-0.0007">
        <ele>390.7</ele>
        <time>2020-09-12T20:04:52Z</time>
      </trkpt>
      <trkpt lat="43.15512" lon="-0.00073">
        <ele>390.9</ele>
        <time>2020-09-12T20:04:53Z</time>
      </trkpt>
      <trkpt lat="43.15509" lon="-0.00077">
        <ele>391.2</ele>
        <time>2020-09-12T20:04:55Z</time>
      </trkpt>
      <trkpt lat="43.15506" lon="-0.00078">
        <ele>391.5</ele>
        <time>2020-09-12T20:04:57Z</time>
      </trkpt>
      <trkpt lat="43.15503" lon="-0.0008">
        <ele>391.7</ele>
        <time>2020-09-12T20:04:59Z</time>
      </trkpt>
      <trkpt lat="43.15501" lon="-0.00085">
        <ele>391.9</ele>
        <time>2020-09-12T20:05:01Z</time>
      </trkpt>
      <trkpt lat="43.15498" lon="-0.00091">
        <ele>392.2</ele>
        <time>2020-09-12T20:05:03Z</time>
      </trkpt>
      <trkpt lat="43.15496" lon="-0.00097">
        <ele>392.3</ele>
        <time>2020-09-12T20:05:04Z</time>
      </trkpt>
      <trkpt lat="43.15495" lon="-0.00102">
        <ele>392.4</ele>
        <time>2020-09-12T20:05:05Z</time>
      </trkpt>
      <trkpt lat="43.15496" lon="-0.00106">
        <ele>392.4</ele>
        <time>2020-09-12T20:05:06Z</time>
      </trkpt>
      <trkpt lat="43.15496" lon="-0.00112">
        <ele>392.4</ele>
        <time>2020-09-12T20:05:07Z</time>
      </trkpt>
      <trkpt lat="43.15497" lon="-0.00116">
        <ele>392.3</ele>
        <time>2020-09-12T20:05:08Z</time>
      </trkpt>
      <trkpt lat="43.15499" lon="-0.0012">
        <ele>392.3</ele>
        <time>2020-09-12T20:05:09Z</time>
      </trkpt>
      <trkpt lat="43.15502" lon="-0.00124">
        <ele>392.2</ele>
        <time>2020-09-12T20:05:10Z</time>
      </trkpt>
      <trkpt lat="43.15505" lon="-0.00128">
        <ele>392.1</ele>
        <time>2020-09-12T20:05:11Z</time>
      </trkpt>
      <trkpt lat="43.15508" lon="-0.00132">
        <ele>392</ele>
        <time>2020-09-12T20:05:12Z</time>
      </trkpt>
      <trkpt lat="43.15509" lon="-0.00136">
        <ele>391.4</ele>
        <time>2020-09-12T20:05:13Z</time>
      </trkpt>
      <trkpt lat="43.15508" lon="-0.0014">
        <ele>391.2</ele>
        <time>2020-09-12T20:05:25Z</time>
      </trkpt>
      <trkpt lat="43.15508" lon="-0.00146">
        <ele>390.8</ele>
        <time>2020-09-12T20:05:34Z</time>
      </trkpt>
      <trkpt lat="43.15508" lon="-0.00151">
        <ele>390.6</ele>
        <time>2020-09-12T20:05:36Z</time>
      </trkpt>
      <trkpt lat="43.15509" lon="-0.00156">
        <ele>390.4</ele>
        <time>2020-09-12T20:05:38Z</time>
      </trkpt>
      <trkpt lat="43.15509" lon="-0.00161">
        <ele>390.3</ele>
        <time>2020-09-12T20:05:45Z</time>
      </trkpt>
      <trkpt lat="43.15507" lon="-0.00165">
        <ele>390.2</ele>
        <time>2020-09-12T20:05:48Z</time>
      </trkpt>
      <trkpt lat="43.15505" lon="-0.00168">
        <ele>390.2</ele>
        <time>2020-09-12T20:05:50Z</time>
      </trkpt>
      <trkpt lat="43.15504" lon="-0.00172">
        <ele>390.1</ele>
        <time>2020-09-12T20:05:52Z</time>
      </trkpt>
      <trkpt lat="43.15502" lon="-0.00176">
        <ele>390.2</ele>
        <time>2020-09-12T20:05:54Z</time>
      </trkpt>
      <trkpt lat="43.15498" lon="-0.0018">
        <ele>390.3</ele>
        <time>2020-09-12T20:05:56Z</time>
      </trkpt>
      <trkpt lat="43.15496" lon="-0.00183">
        <ele>390.4</ele>
        <time>2020-09-12T20:05:57Z</time>
      </trkpt>
      <trkpt lat="43.15494" lon="-0.00185">
        <ele>390.6</ele>
        <time>2020-09-12T20:05:58Z</time>
      </trkpt>
      <trkpt lat="43.15491" lon="-0.0019">
        <ele>390.9</ele>
        <time>2020-09-12T20:06:00Z</time>
      </trkpt>
      <trkpt lat="43.15488" lon="-0.00196">
        <ele>391.3</ele>
        <time>2020-09-12T20:06:02Z</time>
      </trkpt>
      <trkpt lat="43.15485" lon="-0.00199">
        <ele>391.5</ele>
        <time>2020-09-12T20:06:03Z</time>
      </trkpt>
      <trkpt lat="43.15483" lon="-0.00202">
        <ele>391.8</ele>
        <time>2020-09-12T20:06:04Z</time>
      </trkpt>
      <trkpt lat="43.15481" lon="-0.00206">
        <ele>392.1</ele>
        <time>2020-09-12T20:06:05Z</time>
      </trkpt>
      <trkpt lat="43.15479" lon="-0.00209">
        <ele>392.4</ele>
        <time>2020-09-12T20:06:06Z</time>
      </trkpt>
      <trkpt lat="43.15478" lon="-0.00213">
        <ele>392.6</ele>
        <time>2020-09-12T20:06:07Z</time>
      </trkpt>
      <trkpt lat="43.15474" lon="-0.00219">
        <ele>392.9</ele>
        <time>2020-09-12T20:06:09Z</time>
      </trkpt>
      <trkpt lat="43.15473" lon="-0.00223">
        <ele>393.1</ele>
        <time>2020-09-12T20:06:10Z</time>
      </trkpt>
      <trkpt lat="43.15471" lon="-0.00226">
        <ele>393.3</ele>
        <time>2020-09-12T20:06:11Z</time>
      </trkpt>
      <trkpt lat="43.15469" lon="-0.00229">
        <ele>393.5</ele>
        <time>2020-09-12T20:06:12Z</time>
      </trkpt>
      <trkpt lat="43.15467" lon="-0.00233">
        <ele>393.7</ele>
        <time>2020-09-12T20:06:13Z</time>
      </trkpt>
      <trkpt lat="43.15465" lon="-0.00236">
        <ele>394</ele>
        <time>2020-09-12T20:06:14Z</time>
      </trkpt>
      <trkpt lat="43.15463" lon="-0.00239">
        <ele>394.2</ele>
        <time>2020-09-12T20:06:15Z</time>
      </trkpt>
      <trkpt lat="43.15461" lon="-0.00243">
        <ele>394.5</ele>
        <time>2020-09-12T20:06:16Z</time>
      </trkpt>
      <trkpt lat="43.15459" lon="-0.00246">
        <ele>394.6</ele>
        <time>2020-09-12T20:06:17Z</time>
      </trkpt>
      <trkpt lat="43.15456" lon="-0.00253">
        <ele>395</ele>
        <time>2020-09-12T20:06:19Z</time>
      </trkpt>
      <trkpt lat="43.15455" lon="-0.00258">
        <ele>395.3</ele>
        <time>2020-09-12T20:06:20Z</time>
      </trkpt>
      <trkpt lat="43.15454" lon="-0.00263">
        <ele>395.5</ele>
        <time>2020-09-12T20:06:21Z</time>
      </trkpt>
      <trkpt lat="43.15452" lon="-0.00266">
        <ele>395.6</ele>
        <time>2020-09-12T20:06:22Z</time>
      </trkpt>
      <trkpt lat="43.1545" lon="-0.00271">
        <ele>395.8</ele>
        <time>2020-09-12T20:06:23Z</time>
      </trkpt>
      <trkpt lat="43.15447" lon="-0.00275">
        <ele>395.9</ele>
        <time>2020-09-12T20:06:24Z</time>
      </trkpt>
      <trkpt lat="43.15445" lon="-0.00279">
        <ele>396</ele>
        <time>2020-09-12T20:06:25Z</time>
      </trkpt>
      <trkpt lat="43.15443" lon="-0.00283">
        <ele>396.2</ele>
        <time>2020-09-12T20:06:26Z</time>
      </trkpt>
      <trkpt lat="43.15441" lon="-0.00287">
        <ele>396.3</ele>
        <time>2020-09-12T20:06:27Z</time>
      </trkpt>
      <trkpt lat="43.15439" lon="-0.00291">
        <ele>396.4</ele>
        <time>2020-09-12T20:06:28Z</time>
      </trkpt>
      <trkpt lat="43.15437" lon="-0.00296">
        <ele>396.6</ele>
        <time>2020-09-12T20:06:29Z</time>
      </trkpt>
      <trkpt lat="43.15435" lon="-0.00301">
        <ele>396.7</ele>
        <time>2020-09-12T20:06:30Z</time>
      </trkpt>
      <trkpt lat="43.15433" lon="-0.00304">
        <ele>396.8</ele>
        <time>2020-09-12T20:06:31Z</time>
      </trkpt>
      <trkpt lat="43.15431" lon="-0.00307">
        <ele>396.9</ele>
        <time>2020-09-12T20:06:32Z</time>
      </trkpt>
      <trkpt lat="43.15429" lon="-0.00311">
        <ele>397</ele>
        <time>2020-09-12T20:06:33Z</time>
      </trkpt>
      <trkpt lat="43.15427" lon="-0.00314">
        <ele>397.1</ele>
        <time>2020-09-12T20:06:34Z</time>
      </trkpt>
      <trkpt lat="43.15425" lon="-0.00317">
        <ele>397.3</ele>
        <time>2020-09-12T20:06:35Z</time>
      </trkpt>
      <trkpt lat="43.15422" lon="-0.00322">
        <ele>397.5</ele>
        <time>2020-09-12T20:06:37Z</time>
      </trkpt>
      <trkpt lat="43.15418" lon="-0.00328">
        <ele>397.8</ele>
        <time>2020-09-12T20:06:39Z</time>
      </trkpt>
      <trkpt lat="43.15416" lon="-0.00331">
        <ele>398</ele>
        <time>2020-09-12T20:06:40Z</time>
      </trkpt>
      <trkpt lat="43.15412" lon="-0.00337">
        <ele>398.2</ele>
        <time>2020-09-12T20:06:42Z</time>
      </trkpt>
      <trkpt lat="43.15409" lon="-0.00339">
        <ele>398.3</ele>
        <time>2020-09-12T20:06:43Z</time>
      </trkpt>
      <trkpt lat="43.15406" lon="-0.00342">
        <ele>398.5</ele>
        <time>2020-09-12T20:06:44Z</time>
      </trkpt>
      <trkpt lat="43.15404" lon="-0.00346">
        <ele>398.6</ele>
        <time>2020-09-12T20:06:45Z</time>
      </trkpt>
      <trkpt lat="43.15401" lon="-0.0035">
        <ele>398.7</ele>
        <time>2020-09-12T20:06:46Z</time>
      </trkpt>
      <trkpt lat="43.15399" lon="-0.00354">
        <ele>398.8</ele>
        <time>2020-09-12T20:06:47Z</time>
      </trkpt>
      <trkpt lat="43.15396" lon="-0.00357">
        <ele>398.8</ele>
        <time>2020-09-12T20:06:48Z</time>
      </trkpt>
      <trkpt lat="43.15393" lon="-0.00361">
        <ele>398.8</ele>
        <time>2020-09-12T20:06:49Z</time>
      </trkpt>
      <trkpt lat="43.1539" lon="-0.00366">
        <ele>398.8</ele>
        <time>2020-09-12T20:06:50Z</time>
      </trkpt>
      <trkpt lat="43.15385" lon="-0.00372">
        <ele>398.7</ele>
        <time>2020-09-12T20:06:51Z</time>
      </trkpt>
      <trkpt lat="43.1538" lon="-0.00376">
        <ele>398.6</ele>
        <time>2020-09-12T20:06:52Z</time>
      </trkpt>
      <trkpt lat="43.15375" lon="-0.00379">
        <ele>398.5</ele>
        <time>2020-09-12T20:06:53Z</time>
      </trkpt>
      <trkpt lat="43.15371" lon="-0.00382">
        <ele>398.4</ele>
        <time>2020-09-12T20:06:54Z</time>
      </trkpt>
      <trkpt lat="43.15367" lon="-0.00385">
        <ele>398.3</ele>
        <time>2020-09-12T20:06:55Z</time>
      </trkpt>
      <trkpt lat="43.15365" lon="-0.00387">
        <ele>398.3</ele>
        <time>2020-09-12T20:06:56Z</time>
      </trkpt>
      <trkpt lat="43.15364" lon="-0.00391">
        <ele>398.2</ele>
        <time>2020-09-12T20:06:57Z</time>
      </trkpt>
      <trkpt lat="43.15362" lon="-0.00397">
        <ele>398.1</ele>
        <time>2020-09-12T20:06:58Z</time>
      </trkpt>
      <trkpt lat="43.1536" lon="-0.00402">
        <ele>398</ele>
        <time>2020-09-12T20:06:59Z</time>
      </trkpt>
      <trkpt lat="43.15358" lon="-0.00407">
        <ele>397.9</ele>
        <time>2020-09-12T20:07:00Z</time>
      </trkpt>
      <trkpt lat="43.15356" lon="-0.00411">
        <ele>397.8</ele>
        <time>2020-09-12T20:07:01Z</time>
      </trkpt>
      <trkpt lat="43.15354" lon="-0.00416">
        <ele>397.7</ele>
        <time>2020-09-12T20:07:02Z</time>
      </trkpt>
      <trkpt lat="43.15352" lon="-0.0042">
        <ele>397.6</ele>
        <time>2020-09-12T20:07:03Z</time>
      </trkpt>
      <trkpt lat="43.1535" lon="-0.00425">
        <ele>397.5</ele>
        <time>2020-09-12T20:07:04Z</time>
      </trkpt>
      <trkpt lat="43.15348" lon="-0.00429">
        <ele>397.5</ele>
        <time>2020-09-12T20:07:05Z</time>
      </trkpt>
      <trkpt lat="43.15345" lon="-0.00433">
        <ele>397.4</ele>
        <time>2020-09-12T20:07:06Z</time>
      </trkpt>
      <trkpt lat="43.15342" lon="-0.00438">
        <ele>397.3</ele>
        <time>2020-09-12T20:07:07Z</time>
      </trkpt>
      <trkpt lat="43.15339" lon="-0.00443">
        <ele>397.2</ele>
        <time>2020-09-12T20:07:08Z</time>
      </trkpt>
      <trkpt lat="43.15336" lon="-0.00448">
        <ele>397</ele>
        <time>2020-09-12T20:07:09Z</time>
      </trkpt>
      <trkpt lat="43.15333" lon="-0.00454">
        <ele>396.9</ele>
        <time>2020-09-12T20:07:10Z</time>
      </trkpt>
      <trkpt lat="43.15328" lon="-0.00461">
        <ele>396.8</ele>
        <time>2020-09-12T20:07:11Z</time>
      </trkpt>
      <trkpt lat="43.15325" lon="-0.00468">
        <ele>396.6</ele>
        <time>2020-09-12T20:07:12Z</time>
      </trkpt>
      <trkpt lat="43.15323" lon="-0.00474">
        <ele>396.5</ele>
        <time>2020-09-12T20:07:13Z</time>
      </trkpt>
      <trkpt lat="43.15321" lon="-0.00481">
        <ele>396.4</ele>
        <time>2020-09-12T20:07:14Z</time>
      </trkpt>
      <trkpt lat="43.1532" lon="-0.00487">
        <ele>396.2</ele>
        <time>2020-09-12T20:07:15Z</time>
      </trkpt>
      <trkpt lat="43.15318" lon="-0.00494">
        <ele>396.1</ele>
        <time>2020-09-12T20:07:16Z</time>
      </trkpt>
      <trkpt lat="43.15318" lon="-0.00501">
        <ele>395.9</ele>
        <time>2020-09-12T20:07:17Z</time>
      </trkpt>
      <trkpt lat="43.15318" lon="-0.00507">
        <ele>395.9</ele>
        <time>2020-09-12T20:07:18Z</time>
      </trkpt>
      <trkpt lat="43.15317" lon="-0.00513">
        <ele>395.8</ele>
        <time>2020-09-12T20:07:19Z</time>
      </trkpt>
      <trkpt lat="43.15316" lon="-0.0052">
        <ele>395.7</ele>
        <time>2020-09-12T20:07:20Z</time>
      </trkpt>
      <trkpt lat="43.15316" lon="-0.00526">
        <ele>395.7</ele>
        <time>2020-09-12T20:07:21Z</time>
      </trkpt>
      <trkpt lat="43.15316" lon="-0.00531">
        <ele>395.7</ele>
        <time>2020-09-12T20:07:22Z</time>
      </trkpt>
      <trkpt lat="43.15315" lon="-0.00537">
        <ele>395.6</ele>
        <time>2020-09-12T20:07:23Z</time>
      </trkpt>
      <trkpt lat="43.15313" lon="-0.00542">
        <ele>395.6</ele>
        <time>2020-09-12T20:07:24Z</time>
      </trkpt>
      <trkpt lat="43.15308" lon="-0.0055">
        <ele>395.5</ele>
        <time>2020-09-12T20:07:25Z</time>
      </trkpt>
      <trkpt lat="43.15303" lon="-0.00554">
        <ele>395.5</ele>
        <time>2020-09-12T20:07:26Z</time>
      </trkpt>
      <trkpt lat="43.15298" lon="-0.00558">
        <ele>395.4</ele>
        <time>2020-09-12T20:07:27Z</time>
      </trkpt>
      <trkpt lat="43.15293" lon="-0.00559">
        <ele>395.4</ele>
        <time>2020-09-12T20:07:28Z</time>
      </trkpt>
      <trkpt lat="43.15287" lon="-0.00559">
        <ele>395.3</ele>
        <time>2020-09-12T20:07:29Z</time>
      </trkpt>
      <trkpt lat="43.15282" lon="-0.0056">
        <ele>395.3</ele>
        <time>2020-09-12T20:07:30Z</time>
      </trkpt>
      <trkpt lat="43.15276" lon="-0.0056">
        <ele>395.2</ele>
        <time>2020-09-12T20:07:31Z</time>
      </trkpt>
      <trkpt lat="43.15271" lon="-0.00561">
        <ele>395.2</ele>
        <time>2020-09-12T20:07:32Z</time>
      </trkpt>
      <trkpt lat="43.15267" lon="-0.00562">
        <ele>395.2</ele>
        <time>2020-09-12T20:07:33Z</time>
      </trkpt>
      <trkpt lat="43.15262" lon="-0.00564">
        <ele>395.1</ele>
        <time>2020-09-12T20:07:34Z</time>
      </trkpt>
      <trkpt lat="43.15258" lon="-0.00566">
        <ele>395.1</ele>
        <time>2020-09-12T20:07:35Z</time>
      </trkpt>
      <trkpt lat="43.15254" lon="-0.00567">
        <ele>395.1</ele>
        <time>2020-09-12T20:07:36Z</time>
      </trkpt>
      <trkpt lat="43.15249" lon="-0.00569">
        <ele>395.1</ele>
        <time>2020-09-12T20:07:37Z</time>
      </trkpt>
      <trkpt lat="43.15246" lon="-0.00571">
        <ele>395.1</ele>
        <time>2020-09-12T20:07:38Z</time>
      </trkpt>
      <trkpt lat="43.15242" lon="-0.00573">
        <ele>395.1</ele>
        <time>2020-09-12T20:07:39Z</time>
      </trkpt>
      <trkpt lat="43.15239" lon="-0.00575">
        <ele>395.1</ele>
        <time>2020-09-12T20:07:40Z</time>
      </trkpt>
      <trkpt lat="43.15236" lon="-0.00577">
        <ele>395.1</ele>
        <time>2020-09-12T20:07:41Z</time>
      </trkpt>
      <trkpt lat="43.15233" lon="-0.00579">
        <ele>395.1</ele>
        <time>2020-09-12T20:07:42Z</time>
      </trkpt>
      <trkpt lat="43.15229" lon="-0.0058">
        <ele>395.1</ele>
        <time>2020-09-12T20:07:43Z</time>
      </trkpt>
      <trkpt lat="43.15225" lon="-0.00581">
        <ele>395.1</ele>
        <time>2020-09-12T20:07:44Z</time>
      </trkpt>
      <trkpt lat="43.15221" lon="-0.00581">
        <ele>395.1</ele>
        <time>2020-09-12T20:07:45Z</time>
      </trkpt>
      <trkpt lat="43.15217" lon="-0.00581">
        <ele>395.1</ele>
        <time>2020-09-12T20:07:46Z</time>
      </trkpt>
      <trkpt lat="43.15212" lon="-0.00582">
        <ele>395.2</ele>
        <time>2020-09-12T20:07:47Z</time>
      </trkpt>
      <trkpt lat="43.15208" lon="-0.00583">
        <ele>395.2</ele>
        <time>2020-09-12T20:07:48Z</time>
      </trkpt>
      <trkpt lat="43.15203" lon="-0.00585">
        <ele>395.2</ele>
        <time>2020-09-12T20:07:49Z</time>
      </trkpt>
      <trkpt lat="43.15199" lon="-0.00587">
        <ele>395.2</ele>
        <time>2020-09-12T20:07:50Z</time>
      </trkpt>
      <trkpt lat="43.15195" lon="-0.00591">
        <ele>395.2</ele>
        <time>2020-09-12T20:07:51Z</time>
      </trkpt>
      <trkpt lat="43.15192" lon="-0.00594">
        <ele>395.2</ele>
        <time>2020-09-12T20:07:52Z</time>
      </trkpt>
      <trkpt lat="43.1519" lon="-0.00596">
        <ele>395.2</ele>
        <time>2020-09-12T20:07:53Z</time>
      </trkpt>
      <trkpt lat="43.15187" lon="-0.00601">
        <ele>395.1</ele>
        <time>2020-09-12T20:07:55Z</time>
      </trkpt>
      <trkpt lat="43.15186" lon="-0.00605">
        <ele>395.1</ele>
        <time>2020-09-12T20:07:58Z</time>
      </trkpt>
      <trkpt lat="43.15185" lon="-0.00609">
        <ele>395</ele>
        <time>2020-09-12T20:08:02Z</time>
      </trkpt>
      <trkpt lat="43.15185" lon="-0.00613">
        <ele>395</ele>
        <time>2020-09-12T20:08:05Z</time>
      </trkpt>
      <trkpt lat="43.15185" lon="-0.00618">
        <ele>394.9</ele>
        <time>2020-09-12T20:08:07Z</time>
      </trkpt>
      <trkpt lat="43.15186" lon="-0.00622">
        <ele>394.8</ele>
        <time>2020-09-12T20:08:09Z</time>
      </trkpt>
      <trkpt lat="43.15188" lon="-0.00629">
        <ele>394.7</ele>
        <time>2020-09-12T20:08:11Z</time>
      </trkpt>
      <trkpt lat="43.15189" lon="-0.00635">
        <ele>394.6</ele>
        <time>2020-09-12T20:08:12Z</time>
      </trkpt>
      <trkpt lat="43.1519" lon="-0.00641">
        <ele>394.4</ele>
        <time>2020-09-12T20:08:13Z</time>
      </trkpt>
      <trkpt lat="43.1519" lon="-0.00648">
        <ele>394.3</ele>
        <time>2020-09-12T20:08:14Z</time>
      </trkpt>
      <trkpt lat="43.1519" lon="-0.00654">
        <ele>394.2</ele>
        <time>2020-09-12T20:08:15Z</time>
      </trkpt>
      <trkpt lat="43.15191" lon="-0.0066">
        <ele>394</ele>
        <time>2020-09-12T20:08:16Z</time>
      </trkpt>
      <trkpt lat="43.15192" lon="-0.00666">
        <ele>394</ele>
        <time>2020-09-12T20:08:17Z</time>
      </trkpt>
      <trkpt lat="43.15192" lon="-0.00672">
        <ele>394.6</ele>
        <time>2020-09-12T20:08:18Z</time>
      </trkpt>
      <trkpt lat="43.15192" lon="-0.00679">
        <ele>394.9</ele>
        <time>2020-09-12T20:08:19Z</time>
      </trkpt>
      <trkpt lat="43.15193" lon="-0.00686">
        <ele>395.3</ele>
        <time>2020-09-12T20:08:20Z</time>
      </trkpt>
      <trkpt lat="43.15192" lon="-0.00692">
        <ele>395.7</ele>
        <time>2020-09-12T20:08:21Z</time>
      </trkpt>
      <trkpt lat="43.15192" lon="-0.00698">
        <ele>396</ele>
        <time>2020-09-12T20:08:22Z</time>
      </trkpt>
      <trkpt lat="43.15191" lon="-0.00704">
        <ele>396.4</ele>
        <time>2020-09-12T20:08:23Z</time>
      </trkpt>
      <trkpt lat="43.15189" lon="-0.00708">
        <ele>396.7</ele>
        <time>2020-09-12T20:08:24Z</time>
      </trkpt>
      <trkpt lat="43.15186" lon="-0.00713">
        <ele>397</ele>
        <time>2020-09-12T20:08:25Z</time>
      </trkpt>
      <trkpt lat="43.15181" lon="-0.00717">
        <ele>397.5</ele>
        <time>2020-09-12T20:08:26Z</time>
      </trkpt>
      <trkpt lat="43.15178" lon="-0.0072">
        <ele>397.8</ele>
        <time>2020-09-12T20:08:27Z</time>
      </trkpt>
      <trkpt lat="43.15175" lon="-0.00722">
        <ele>398</ele>
        <time>2020-09-12T20:08:28Z</time>
      </trkpt>
      <trkpt lat="43.15172" lon="-0.00724">
        <ele>398.2</ele>
        <time>2020-09-12T20:08:29Z</time>
      </trkpt>
      <trkpt lat="43.1517" lon="-0.00726">
        <ele>398.5</ele>
        <time>2020-09-12T20:08:30Z</time>
      </trkpt>
      <trkpt lat="43.15166" lon="-0.00729">
        <ele>398.8</ele>
        <time>2020-09-12T20:08:31Z</time>
      </trkpt>
      <trkpt lat="43.15163" lon="-0.00732">
        <ele>399.1</ele>
        <time>2020-09-12T20:08:32Z</time>
      </trkpt>
      <trkpt lat="43.15158" lon="-0.00735">
        <ele>399.4</ele>
        <time>2020-09-12T20:08:33Z</time>
      </trkpt>
      <trkpt lat="43.15154" lon="-0.00737">
        <ele>399.7</ele>
        <time>2020-09-12T20:08:34Z</time>
      </trkpt>
      <trkpt lat="43.15149" lon="-0.00739">
        <ele>399.9</ele>
        <time>2020-09-12T20:08:35Z</time>
      </trkpt>
      <trkpt lat="43.15145" lon="-0.00741">
        <ele>400.2</ele>
        <time>2020-09-12T20:08:36Z</time>
      </trkpt>
      <trkpt lat="43.1514" lon="-0.00744">
        <ele>400.4</ele>
        <time>2020-09-12T20:08:37Z</time>
      </trkpt>
      <trkpt lat="43.15135" lon="-0.00746">
        <ele>400.6</ele>
        <time>2020-09-12T20:08:38Z</time>
      </trkpt>
      <trkpt lat="43.1513" lon="-0.00748">
        <ele>400.9</ele>
        <time>2020-09-12T20:08:39Z</time>
      </trkpt>
      <trkpt lat="43.15126" lon="-0.0075">
        <ele>401.1</ele>
        <time>2020-09-12T20:08:40Z</time>
      </trkpt>
      <trkpt lat="43.15121" lon="-0.00752">
        <ele>401.2</ele>
        <time>2020-09-12T20:08:41Z</time>
      </trkpt>
      <trkpt lat="43.15117" lon="-0.00753">
        <ele>401.2</ele>
        <time>2020-09-12T20:08:42Z</time>
      </trkpt>
      <trkpt lat="43.15113" lon="-0.00756">
        <ele>401.3</ele>
        <time>2020-09-12T20:08:44Z</time>
      </trkpt>
      <trkpt lat="43.15111" lon="-0.00759">
        <ele>401.4</ele>
        <time>2020-09-12T20:08:46Z</time>
      </trkpt>
      <trkpt lat="43.15108" lon="-0.00763">
        <ele>401.4</ele>
        <time>2020-09-12T20:08:48Z</time>
      </trkpt>
      <trkpt lat="43.15107" lon="-0.00767">
        <ele>401.3</ele>
        <time>2020-09-12T20:08:51Z</time>
      </trkpt>
      <trkpt lat="43.15107" lon="-0.00771">
        <ele>401.2</ele>
        <time>2020-09-12T20:08:53Z</time>
      </trkpt>
      <trkpt lat="43.15104" lon="-0.00772">
        <ele>401.2</ele>
        <time>2020-09-12T20:08:56Z</time>
      </trkpt>
      <trkpt lat="43.151" lon="-0.00773">
        <ele>401.2</ele>
        <time>2020-09-12T20:08:59Z</time>
      </trkpt>
      <trkpt lat="43.15098" lon="-0.00774">
        <ele>401</ele>
        <time>2020-09-12T20:09:01Z</time>
      </trkpt>
      <trkpt lat="43.15096" lon="-0.00779">
        <ele>400.5</ele>
        <time>2020-09-12T20:09:05Z</time>
      </trkpt>
      <trkpt lat="43.15095" lon="-0.00785">
        <ele>399.9</ele>
        <time>2020-09-12T20:09:07Z</time>
      </trkpt>
      <trkpt lat="43.15093" lon="-0.00789">
        <ele>399.5</ele>
        <time>2020-09-12T20:09:09Z</time>
      </trkpt>
      <trkpt lat="43.1509" lon="-0.00792">
        <ele>399.1</ele>
        <time>2020-09-12T20:09:11Z</time>
      </trkpt>
      <trkpt lat="43.15086" lon="-0.00794">
        <ele>398.5</ele>
        <time>2020-09-12T20:09:13Z</time>
      </trkpt>
      <trkpt lat="43.15081" lon="-0.00796">
        <ele>398</ele>
        <time>2020-09-12T20:09:15Z</time>
      </trkpt>
      <trkpt lat="43.15079" lon="-0.00797">
        <ele>397.7</ele>
        <time>2020-09-12T20:09:16Z</time>
      </trkpt>
      <trkpt lat="43.15074" lon="-0.00799">
        <ele>397.1</ele>
        <time>2020-09-12T20:09:18Z</time>
      </trkpt>
      <trkpt lat="43.1507" lon="-0.00803">
        <ele>396.7</ele>
        <time>2020-09-12T20:09:20Z</time>
      </trkpt>
      <trkpt lat="43.15067" lon="-0.00805">
        <ele>396.4</ele>
        <time>2020-09-12T20:09:21Z</time>
      </trkpt>
      <trkpt lat="43.15064" lon="-0.00805">
        <ele>396.1</ele>
        <time>2020-09-12T20:09:22Z</time>
      </trkpt>
      <trkpt lat="43.1506" lon="-0.00805">
        <ele>395.8</ele>
        <time>2020-09-12T20:09:23Z</time>
      </trkpt>
      <trkpt lat="43.15057" lon="-0.00805">
        <ele>395.5</ele>
        <time>2020-09-12T20:09:24Z</time>
      </trkpt>
      <trkpt lat="43.15054" lon="-0.00805">
        <ele>395.3</ele>
        <time>2020-09-12T20:09:25Z</time>
      </trkpt>
      <trkpt lat="43.1505" lon="-0.00805">
        <ele>394.9</ele>
        <time>2020-09-12T20:09:27Z</time>
      </trkpt>
      <trkpt lat="43.15047" lon="-0.00806">
        <ele>394.6</ele>
        <time>2020-09-12T20:09:29Z</time>
      </trkpt>
      <trkpt lat="43.15046" lon="-0.00809">
        <ele>394.4</ele>
        <time>2020-09-12T20:09:31Z</time>
      </trkpt>
      <trkpt lat="43.15045" lon="-0.00813">
        <ele>394.1</ele>
        <time>2020-09-12T20:09:33Z</time>
      </trkpt>
      <trkpt lat="43.15045" lon="-0.00819">
        <ele>393.7</ele>
        <time>2020-09-12T20:09:35Z</time>
      </trkpt>
      <trkpt lat="43.15045" lon="-0.00825">
        <ele>393.2</ele>
        <time>2020-09-12T20:09:37Z</time>
      </trkpt>
      <trkpt lat="43.15042" lon="-0.0083">
        <ele>392.8</ele>
        <time>2020-09-12T20:09:39Z</time>
      </trkpt>
      <trkpt lat="43.15039" lon="-0.00834">
        <ele>392.7</ele>
        <time>2020-09-12T20:09:40Z</time>
      </trkpt>
      <trkpt lat="43.15036" lon="-0.00837">
        <ele>392.8</ele>
        <time>2020-09-12T20:09:41Z</time>
      </trkpt>
      <trkpt lat="43.15034" lon="-0.00839">
        <ele>392.8</ele>
        <time>2020-09-12T20:09:42Z</time>
      </trkpt>
      <trkpt lat="43.15032" lon="-0.00843">
        <ele>392.8</ele>
        <time>2020-09-12T20:09:43Z</time>
      </trkpt>
      <trkpt lat="43.15029" lon="-0.00845">
        <ele>392.9</ele>
        <time>2020-09-12T20:09:44Z</time>
      </trkpt>
      <trkpt lat="43.15026" lon="-0.00847">
        <ele>392.9</ele>
        <time>2020-09-12T20:09:45Z</time>
      </trkpt>
      <trkpt lat="43.15023" lon="-0.00849">
        <ele>393</ele>
        <time>2020-09-12T20:09:46Z</time>
      </trkpt>
      <trkpt lat="43.1502" lon="-0.0085">
        <ele>393</ele>
        <time>2020-09-12T20:09:47Z</time>
      </trkpt>
      <trkpt lat="43.15017" lon="-0.00851">
        <ele>393</ele>
        <time>2020-09-12T20:09:48Z</time>
      </trkpt>
      <trkpt lat="43.15014" lon="-0.00851">
        <ele>393.1</ele>
        <time>2020-09-12T20:09:49Z</time>
      </trkpt>
      <trkpt lat="43.15012" lon="-0.00851">
        <ele>393.1</ele>
        <time>2020-09-12T20:09:50Z</time>
      </trkpt>
      <trkpt lat="43.15005" lon="-0.00852">
        <ele>393.2</ele>
        <time>2020-09-12T20:09:52Z</time>
      </trkpt>
      <trkpt lat="43.15002" lon="-0.00855">
        <ele>393.3</ele>
        <time>2020-09-12T20:09:53Z</time>
      </trkpt>
      <trkpt lat="43.14998" lon="-0.00858">
        <ele>393.4</ele>
        <time>2020-09-12T20:09:54Z</time>
      </trkpt>
      <trkpt lat="43.14995" lon="-0.00861">
        <ele>393.5</ele>
        <time>2020-09-12T20:09:55Z</time>
      </trkpt>
      <trkpt lat="43.14992" lon="-0.00863">
        <ele>393.6</ele>
        <time>2020-09-12T20:09:56Z</time>
      </trkpt>
      <trkpt lat="43.14989" lon="-0.00865">
        <ele>393.6</ele>
        <time>2020-09-12T20:09:57Z</time>
      </trkpt>
      <trkpt lat="43.14987" lon="-0.00866">
        <ele>393.7</ele>
        <time>2020-09-12T20:09:58Z</time>
      </trkpt>
      <trkpt lat="43.14984" lon="-0.00868">
        <ele>393.8</ele>
        <time>2020-09-12T20:09:59Z</time>
      </trkpt>
      <trkpt lat="43.14981" lon="-0.00869">
        <ele>393.9</ele>
        <time>2020-09-12T20:10:00Z</time>
      </trkpt>
      <trkpt lat="43.14976" lon="-0.00874">
        <ele>394</ele>
        <time>2020-09-12T20:10:01Z</time>
      </trkpt>
      <trkpt lat="43.14973" lon="-0.00877">
        <ele>394.2</ele>
        <time>2020-09-12T20:10:02Z</time>
      </trkpt>
      <trkpt lat="43.1497" lon="-0.00881">
        <ele>394.3</ele>
        <time>2020-09-12T20:10:03Z</time>
      </trkpt>
      <trkpt lat="43.14967" lon="-0.00884">
        <ele>394.5</ele>
        <time>2020-09-12T20:10:04Z</time>
      </trkpt>
      <trkpt lat="43.14965" lon="-0.00887">
        <ele>394.7</ele>
        <time>2020-09-12T20:10:05Z</time>
      </trkpt>
      <trkpt lat="43.14963" lon="-0.0089">
        <ele>394.8</ele>
        <time>2020-09-12T20:10:06Z</time>
      </trkpt>
      <trkpt lat="43.1496" lon="-0.00893">
        <ele>394.9</ele>
        <time>2020-09-12T20:10:07Z</time>
      </trkpt>
      <trkpt lat="43.14959" lon="-0.00896">
        <ele>395.1</ele>
        <time>2020-09-12T20:10:08Z</time>
      </trkpt>
      <trkpt lat="43.14955" lon="-0.00901">
        <ele>395.3</ele>
        <time>2020-09-12T20:10:10Z</time>
      </trkpt>
      <trkpt lat="43.14953" lon="-0.00904">
        <ele>395.5</ele>
        <time>2020-09-12T20:10:11Z</time>
      </trkpt>
      <trkpt lat="43.14949" lon="-0.00909">
        <ele>395.7</ele>
        <time>2020-09-12T20:10:13Z</time>
      </trkpt>
      <trkpt lat="43.14947" lon="-0.00914">
        <ele>395.9</ele>
        <time>2020-09-12T20:10:15Z</time>
      </trkpt>
      <trkpt lat="43.14948" lon="-0.00922">
        <ele>396.2</ele>
        <time>2020-09-12T20:10:17Z</time>
      </trkpt>
      <trkpt lat="43.14947" lon="-0.00929">
        <ele>396.5</ele>
        <time>2020-09-12T20:10:18Z</time>
      </trkpt>
      <trkpt lat="43.14947" lon="-0.00935">
        <ele>396.8</ele>
        <time>2020-09-12T20:10:19Z</time>
      </trkpt>
      <trkpt lat="43.14947" lon="-0.00939">
        <ele>397</ele>
        <time>2020-09-12T20:10:20Z</time>
      </trkpt>
      <trkpt lat="43.14947" lon="-0.00944">
        <ele>397.2</ele>
        <time>2020-09-12T20:10:21Z</time>
      </trkpt>
      <trkpt lat="43.14946" lon="-0.00948">
        <ele>397.4</ele>
        <time>2020-09-12T20:10:22Z</time>
      </trkpt>
      <trkpt lat="43.14947" lon="-0.00954">
        <ele>397.6</ele>
        <time>2020-09-12T20:10:23Z</time>
      </trkpt>
      <trkpt lat="43.14947" lon="-0.00962">
        <ele>397.9</ele>
        <time>2020-09-12T20:10:25Z</time>
      </trkpt>
      <trkpt lat="43.14947" lon="-0.00966">
        <ele>398.2</ele>
        <time>2020-09-12T20:10:26Z</time>
      </trkpt>
      <trkpt lat="43.14947" lon="-0.0097">
        <ele>398.4</ele>
        <time>2020-09-12T20:10:27Z</time>
      </trkpt>
      <trkpt lat="43.14947" lon="-0.00974">
        <ele>398.7</ele>
        <time>2020-09-12T20:10:28Z</time>
      </trkpt>
      <trkpt lat="43.14946" lon="-0.00979">
        <ele>398.9</ele>
        <time>2020-09-12T20:10:29Z</time>
      </trkpt>
      <trkpt lat="43.14946" lon="-0.00983">
        <ele>399.1</ele>
        <time>2020-09-12T20:10:30Z</time>
      </trkpt>
      <trkpt lat="43.14947" lon="-0.00987">
        <ele>399.3</ele>
        <time>2020-09-12T20:10:31Z</time>
      </trkpt>
      <trkpt lat="43.14947" lon="-0.00991">
        <ele>399.4</ele>
        <time>2020-09-12T20:10:32Z</time>
      </trkpt>
      <trkpt lat="43.14948" lon="-0.00996">
        <ele>399.6</ele>
        <time>2020-09-12T20:10:33Z</time>
      </trkpt>
      <trkpt lat="43.14948" lon="-0.01">
        <ele>399.8</ele>
        <time>2020-09-12T20:10:34Z</time>
      </trkpt>
      <trkpt lat="43.14949" lon="-0.01003">
        <ele>400.1</ele>
        <time>2020-09-12T20:10:35Z</time>
      </trkpt>
      <trkpt lat="43.1495" lon="-0.01011">
        <ele>401.1</ele>
        <time>2020-09-12T20:10:37Z</time>
      </trkpt>
      <trkpt lat="43.1495" lon="-0.01015">
        <ele>401.6</ele>
        <time>2020-09-12T20:10:38Z</time>
      </trkpt>
      <trkpt lat="43.14951" lon="-0.01024">
        <ele>402.2</ele>
        <time>2020-09-12T20:10:40Z</time>
      </trkpt>
      <trkpt lat="43.14951" lon="-0.01028">
        <ele>402.6</ele>
        <time>2020-09-12T20:10:41Z</time>
      </trkpt>
      <trkpt lat="43.14951" lon="-0.01033">
        <ele>403</ele>
        <time>2020-09-12T20:10:42Z</time>
      </trkpt>
      <trkpt lat="43.14952" lon="-0.01038">
        <ele>403.4</ele>
        <time>2020-09-12T20:10:43Z</time>
      </trkpt>
      <trkpt lat="43.14952" lon="-0.01043">
        <ele>403.9</ele>
        <time>2020-09-12T20:10:44Z</time>
      </trkpt>
      <trkpt lat="43.14953" lon="-0.01047">
        <ele>404.4</ele>
        <time>2020-09-12T20:10:45Z</time>
      </trkpt>
      <trkpt lat="43.14953" lon="-0.01051">
        <ele>404.7</ele>
        <time>2020-09-12T20:10:46Z</time>
      </trkpt>
      <trkpt lat="43.14953" lon="-0.01055">
        <ele>405.2</ele>
        <time>2020-09-12T20:10:47Z</time>
      </trkpt>
      <trkpt lat="43.14954" lon="-0.01058">
        <ele>405.7</ele>
        <time>2020-09-12T20:10:48Z</time>
      </trkpt>
      <trkpt lat="43.14952" lon="-0.01064">
        <ele>406.3</ele>
        <time>2020-09-12T20:10:50Z</time>
      </trkpt>
      <trkpt lat="43.1495" lon="-0.01069">
        <ele>406.8</ele>
        <time>2020-09-12T20:10:52Z</time>
      </trkpt>
      <trkpt lat="43.14947" lon="-0.01072">
        <ele>407.2</ele>
        <time>2020-09-12T20:10:54Z</time>
      </trkpt>
      <trkpt lat="43.14945" lon="-0.01077">
        <ele>407.7</ele>
        <time>2020-09-12T20:10:56Z</time>
      </trkpt>
      <trkpt lat="43.14943" lon="-0.01083">
        <ele>408.4</ele>
        <time>2020-09-12T20:10:58Z</time>
      </trkpt>
      <trkpt lat="43.14942" lon="-0.01088">
        <ele>409</ele>
        <time>2020-09-12T20:11:00Z</time>
      </trkpt>
      <trkpt lat="43.14942" lon="-0.01095">
        <ele>409.8</ele>
        <time>2020-09-12T20:11:02Z</time>
      </trkpt>
      <trkpt lat="43.14938" lon="-0.011">
        <ele>410.6</ele>
        <time>2020-09-12T20:11:04Z</time>
      </trkpt>
      <trkpt lat="43.14935" lon="-0.01102">
        <ele>411.3</ele>
        <time>2020-09-12T20:11:06Z</time>
      </trkpt>
      <trkpt lat="43.1493" lon="-0.01101">
        <ele>415.5</ele>
        <time>2020-09-12T20:11:08Z</time>
      </trkpt>
      <trkpt lat="43.14926" lon="-0.01101">
        <ele>415.5</ele>
        <time>2020-09-12T20:11:10Z</time>
      </trkpt>
      <trkpt lat="43.14923" lon="-0.01101">
        <ele>415.5</ele>
        <time>2020-09-12T20:11:11Z</time>
      </trkpt>
      <trkpt lat="43.14919" lon="-0.01101">
        <ele>415.4</ele>
        <time>2020-09-12T20:11:12Z</time>
      </trkpt>
      <trkpt lat="43.14916" lon="-0.01101">
        <ele>415.4</ele>
        <time>2020-09-12T20:11:13Z</time>
      </trkpt>
      <trkpt lat="43.14913" lon="-0.01101">
        <ele>415.3</ele>
        <time>2020-09-12T20:11:14Z</time>
      </trkpt>
      <trkpt lat="43.14908" lon="-0.01104">
        <ele>415.2</ele>
        <time>2020-09-12T20:11:15Z</time>
      </trkpt>
      <trkpt lat="43.14904" lon="-0.01107">
        <ele>415.2</ele>
        <time>2020-09-12T20:11:16Z</time>
      </trkpt>
      <trkpt lat="43.14899" lon="-0.01111">
        <ele>415.1</ele>
        <time>2020-09-12T20:11:17Z</time>
      </trkpt>
      <trkpt lat="43.14894" lon="-0.01114">
        <ele>415</ele>
        <time>2020-09-12T20:11:18Z</time>
      </trkpt>
      <trkpt lat="43.14889" lon="-0.01117">
        <ele>414.9</ele>
        <time>2020-09-12T20:11:19Z</time>
      </trkpt>
      <trkpt lat="43.14882" lon="-0.01118">
        <ele>414.8</ele>
        <time>2020-09-12T20:11:20Z</time>
      </trkpt>
      <trkpt lat="43.14875" lon="-0.01121">
        <ele>414.7</ele>
        <time>2020-09-12T20:11:21Z</time>
      </trkpt>
      <trkpt lat="43.1487" lon="-0.01121">
        <ele>414.7</ele>
        <time>2020-09-12T20:11:22Z</time>
      </trkpt>
      <trkpt lat="43.14865" lon="-0.01121">
        <ele>414.6</ele>
        <time>2020-09-12T20:11:23Z</time>
      </trkpt>
      <trkpt lat="43.14859" lon="-0.0112">
        <ele>414.5</ele>
        <time>2020-09-12T20:11:24Z</time>
      </trkpt>
      <trkpt lat="43.14855" lon="-0.01119">
        <ele>414.4</ele>
        <time>2020-09-12T20:11:25Z</time>
      </trkpt>
      <trkpt lat="43.1485" lon="-0.01118">
        <ele>414.3</ele>
        <time>2020-09-12T20:11:26Z</time>
      </trkpt>
      <trkpt lat="43.14844" lon="-0.01116">
        <ele>414.2</ele>
        <time>2020-09-12T20:11:27Z</time>
      </trkpt>
      <trkpt lat="43.14839" lon="-0.01115">
        <ele>414.2</ele>
        <time>2020-09-12T20:11:28Z</time>
      </trkpt>
      <trkpt lat="43.14834" lon="-0.01114">
        <ele>414.1</ele>
        <time>2020-09-12T20:11:29Z</time>
      </trkpt>
      <trkpt lat="43.14829" lon="-0.01111">
        <ele>414</ele>
        <time>2020-09-12T20:11:30Z</time>
      </trkpt>
      <trkpt lat="43.14824" lon="-0.01109">
        <ele>413.9</ele>
        <time>2020-09-12T20:11:31Z</time>
      </trkpt>
      <trkpt lat="43.1482" lon="-0.01106">
        <ele>413.8</ele>
        <time>2020-09-12T20:11:32Z</time>
      </trkpt>
      <trkpt lat="43.14815" lon="-0.01103">
        <ele>413.7</ele>
        <time>2020-09-12T20:11:33Z</time>
      </trkpt>
      <trkpt lat="43.1481" lon="-0.011">
        <ele>413.7</ele>
        <time>2020-09-12T20:11:34Z</time>
      </trkpt>
      <trkpt lat="43.14806" lon="-0.01098">
        <ele>413.6</ele>
        <time>2020-09-12T20:11:35Z</time>
      </trkpt>
      <trkpt lat="43.14801" lon="-0.01097">
        <ele>413.5</ele>
        <time>2020-09-12T20:11:36Z</time>
      </trkpt>
      <trkpt lat="43.14797" lon="-0.01095">
        <ele>413.5</ele>
        <time>2020-09-12T20:11:37Z</time>
      </trkpt>
      <trkpt lat="43.14791" lon="-0.01095">
        <ele>413.4</ele>
        <time>2020-09-12T20:11:38Z</time>
      </trkpt>
      <trkpt lat="43.14786" lon="-0.01095">
        <ele>413.3</ele>
        <time>2020-09-12T20:11:39Z</time>
      </trkpt>
      <trkpt lat="43.14782" lon="-0.01097">
        <ele>413.2</ele>
        <time>2020-09-12T20:11:40Z</time>
      </trkpt>
      <trkpt lat="43.14777" lon="-0.01097">
        <ele>413.2</ele>
        <time>2020-09-12T20:11:41Z</time>
      </trkpt>
      <trkpt lat="43.14771" lon="-0.01097">
        <ele>413.1</ele>
        <time>2020-09-12T20:11:42Z</time>
      </trkpt>
      <trkpt lat="43.14767" lon="-0.01098">
        <ele>413</ele>
        <time>2020-09-12T20:11:43Z</time>
      </trkpt>
      <trkpt lat="43.14763" lon="-0.01099">
        <ele>413</ele>
        <time>2020-09-12T20:11:44Z</time>
      </trkpt>
      <trkpt lat="43.14758" lon="-0.011">
        <ele>412.9</ele>
        <time>2020-09-12T20:11:45Z</time>
      </trkpt>
      <trkpt lat="43.14752" lon="-0.01101">
        <ele>412.8</ele>
        <time>2020-09-12T20:11:46Z</time>
      </trkpt>
      <trkpt lat="43.14748" lon="-0.01103">
        <ele>412.7</ele>
        <time>2020-09-12T20:11:47Z</time>
      </trkpt>
      <trkpt lat="43.14743" lon="-0.01107">
        <ele>412.6</ele>
        <time>2020-09-12T20:11:48Z</time>
      </trkpt>
      <trkpt lat="43.14739" lon="-0.0111">
        <ele>412.5</ele>
        <time>2020-09-12T20:11:49Z</time>
      </trkpt>
      <trkpt lat="43.14733" lon="-0.01116">
        <ele>412.4</ele>
        <time>2020-09-12T20:11:50Z</time>
      </trkpt>
      <trkpt lat="43.14727" lon="-0.01122">
        <ele>412.3</ele>
        <time>2020-09-12T20:11:51Z</time>
      </trkpt>
      <trkpt lat="43.14724" lon="-0.01124">
        <ele>412.2</ele>
        <time>2020-09-12T20:11:52Z</time>
      </trkpt>
      <trkpt lat="43.1472" lon="-0.01128">
        <ele>412.2</ele>
        <time>2020-09-12T20:11:53Z</time>
      </trkpt>
      <trkpt lat="43.14717" lon="-0.01131">
        <ele>412.1</ele>
        <time>2020-09-12T20:11:54Z</time>
      </trkpt>
      <trkpt lat="43.14713" lon="-0.01134">
        <ele>412</ele>
        <time>2020-09-12T20:11:55Z</time>
      </trkpt>
      <trkpt lat="43.14709" lon="-0.01136">
        <ele>411.9</ele>
        <time>2020-09-12T20:11:56Z</time>
      </trkpt>
      <trkpt lat="43.14705" lon="-0.01138">
        <ele>411.8</ele>
        <time>2020-09-12T20:11:57Z</time>
      </trkpt>
      <trkpt lat="43.147" lon="-0.01141">
        <ele>411.8</ele>
        <time>2020-09-12T20:11:58Z</time>
      </trkpt>
      <trkpt lat="43.14697" lon="-0.01143">
        <ele>411.7</ele>
        <time>2020-09-12T20:11:59Z</time>
      </trkpt>
      <trkpt lat="43.14693" lon="-0.01146">
        <ele>411.6</ele>
        <time>2020-09-12T20:12:00Z</time>
      </trkpt>
      <trkpt lat="43.14689" lon="-0.01147">
        <ele>411.5</ele>
        <time>2020-09-12T20:12:01Z</time>
      </trkpt>
      <trkpt lat="43.14685" lon="-0.01149">
        <ele>411.4</ele>
        <time>2020-09-12T20:12:02Z</time>
      </trkpt>
      <trkpt lat="43.1468" lon="-0.01152">
        <ele>411.3</ele>
        <time>2020-09-12T20:12:03Z</time>
      </trkpt>
      <trkpt lat="43.14676" lon="-0.01154">
        <ele>411.2</ele>
        <time>2020-09-12T20:12:04Z</time>
      </trkpt>
      <trkpt lat="43.14672" lon="-0.01157">
        <ele>411.1</ele>
        <time>2020-09-12T20:12:05Z</time>
      </trkpt>
      <trkpt lat="43.14667" lon="-0.01162">
        <ele>411</ele>
        <time>2020-09-12T20:12:06Z</time>
      </trkpt>
      <trkpt lat="43.14663" lon="-0.01165">
        <ele>410.9</ele>
        <time>2020-09-12T20:12:07Z</time>
      </trkpt>
      <trkpt lat="43.14659" lon="-0.01167">
        <ele>410.8</ele>
        <time>2020-09-12T20:12:08Z</time>
      </trkpt>
      <trkpt lat="43.14654" lon="-0.01168">
        <ele>410.7</ele>
        <time>2020-09-12T20:12:09Z</time>
      </trkpt>
      <trkpt lat="43.1465" lon="-0.0117">
        <ele>410.7</ele>
        <time>2020-09-12T20:12:10Z</time>
      </trkpt>
      <trkpt lat="43.14646" lon="-0.01172">
        <ele>410.6</ele>
        <time>2020-09-12T20:12:11Z</time>
      </trkpt>
      <trkpt lat="43.14642" lon="-0.01174">
        <ele>410.5</ele>
        <time>2020-09-12T20:12:12Z</time>
      </trkpt>
      <trkpt lat="43.14638" lon="-0.01178">
        <ele>410.5</ele>
        <time>2020-09-12T20:12:13Z</time>
      </trkpt>
      <trkpt lat="43.14635" lon="-0.0118">
        <ele>410.5</ele>
        <time>2020-09-12T20:12:14Z</time>
      </trkpt>
      <trkpt lat="43.14632" lon="-0.01182">
        <ele>410.5</ele>
        <time>2020-09-12T20:12:15Z</time>
      </trkpt>
      <trkpt lat="43.14631" lon="-0.01185">
        <ele>410.5</ele>
        <time>2020-09-12T20:12:16Z</time>
      </trkpt>
      <trkpt lat="43.1463" lon="-0.0119">
        <ele>412.7</ele>
        <time>2020-09-12T20:12:18Z</time>
      </trkpt>
      <trkpt lat="43.1463" lon="-0.01197">
        <ele>412.7</ele>
        <time>2020-09-12T20:12:20Z</time>
      </trkpt>
      <trkpt lat="43.14631" lon="-0.01202">
        <ele>414.6</ele>
        <time>2020-09-12T20:12:22Z</time>
      </trkpt>
      <trkpt lat="43.14629" lon="-0.01207">
        <ele>414.6</ele>
        <time>2020-09-12T20:12:24Z</time>
      </trkpt>
      <trkpt lat="43.14626" lon="-0.01211">
        <ele>414.6</ele>
        <time>2020-09-12T20:12:26Z</time>
      </trkpt>
      <trkpt lat="43.14623" lon="-0.01212">
        <ele>414.7</ele>
        <time>2020-09-12T20:12:27Z</time>
      </trkpt>
      <trkpt lat="43.14618" lon="-0.01215">
        <ele>414.9</ele>
        <time>2020-09-12T20:12:29Z</time>
      </trkpt>
      <trkpt lat="43.14615" lon="-0.01217">
        <ele>415</ele>
        <time>2020-09-12T20:12:30Z</time>
      </trkpt>
      <trkpt lat="43.14611" lon="-0.0122">
        <ele>415.2</ele>
        <time>2020-09-12T20:12:31Z</time>
      </trkpt>
      <trkpt lat="43.14607" lon="-0.01224">
        <ele>415.3</ele>
        <time>2020-09-12T20:12:32Z</time>
      </trkpt>
      <trkpt lat="43.14603" lon="-0.01226">
        <ele>415.5</ele>
        <time>2020-09-12T20:12:33Z</time>
      </trkpt>
      <trkpt lat="43.14599" lon="-0.01228">
        <ele>415.6</ele>
        <time>2020-09-12T20:12:34Z</time>
      </trkpt>
      <trkpt lat="43.14595" lon="-0.0123">
        <ele>415.7</ele>
        <time>2020-09-12T20:12:35Z</time>
      </trkpt>
      <trkpt lat="43.14591" lon="-0.01232">
        <ele>415.9</ele>
        <time>2020-09-12T20:12:36Z</time>
      </trkpt>
      <trkpt lat="43.14587" lon="-0.01234">
        <ele>416</ele>
        <time>2020-09-12T20:12:37Z</time>
      </trkpt>
      <trkpt lat="43.14583" lon="-0.01236">
        <ele>416.2</ele>
        <time>2020-09-12T20:12:38Z</time>
      </trkpt>
      <trkpt lat="43.14579" lon="-0.01238">
        <ele>416.3</ele>
        <time>2020-09-12T20:12:39Z</time>
      </trkpt>
      <trkpt lat="43.14575" lon="-0.01239">
        <ele>416.4</ele>
        <time>2020-09-12T20:12:40Z</time>
      </trkpt>
      <trkpt lat="43.14571" lon="-0.01241">
        <ele>416.6</ele>
        <time>2020-09-12T20:12:41Z</time>
      </trkpt>
      <trkpt lat="43.14566" lon="-0.01243">
        <ele>416.7</ele>
        <time>2020-09-12T20:12:42Z</time>
      </trkpt>
      <trkpt lat="43.14562" lon="-0.01246">
        <ele>416.9</ele>
        <time>2020-09-12T20:12:43Z</time>
      </trkpt>
      <trkpt lat="43.14557" lon="-0.01251">
        <ele>417.1</ele>
        <time>2020-09-12T20:12:44Z</time>
      </trkpt>
      <trkpt lat="43.14553" lon="-0.01253">
        <ele>417.2</ele>
        <time>2020-09-12T20:12:45Z</time>
      </trkpt>
      <trkpt lat="43.14548" lon="-0.01256">
        <ele>417.4</ele>
        <time>2020-09-12T20:12:46Z</time>
      </trkpt>
      <trkpt lat="43.14543" lon="-0.01259">
        <ele>417.6</ele>
        <time>2020-09-12T20:12:47Z</time>
      </trkpt>
      <trkpt lat="43.14537" lon="-0.01264">
        <ele>417.8</ele>
        <time>2020-09-12T20:12:48Z</time>
      </trkpt>
      <trkpt lat="43.14532" lon="-0.01267">
        <ele>418</ele>
        <time>2020-09-12T20:12:49Z</time>
      </trkpt>
      <trkpt lat="43.14526" lon="-0.0127">
        <ele>418.2</ele>
        <time>2020-09-12T20:12:50Z</time>
      </trkpt>
      <trkpt lat="43.14521" lon="-0.01273">
        <ele>418.4</ele>
        <time>2020-09-12T20:12:51Z</time>
      </trkpt>
      <trkpt lat="43.14517" lon="-0.01276">
        <ele>418.6</ele>
        <time>2020-09-12T20:12:52Z</time>
      </trkpt>
      <trkpt lat="43.14513" lon="-0.01278">
        <ele>418.7</ele>
        <time>2020-09-12T20:12:53Z</time>
      </trkpt>
      <trkpt lat="43.14509" lon="-0.01281">
        <ele>418.8</ele>
        <time>2020-09-12T20:12:54Z</time>
      </trkpt>
      <trkpt lat="43.14504" lon="-0.01283">
        <ele>419</ele>
        <time>2020-09-12T20:12:55Z</time>
      </trkpt>
      <trkpt lat="43.145" lon="-0.01284">
        <ele>419.1</ele>
        <time>2020-09-12T20:12:56Z</time>
      </trkpt>
      <trkpt lat="43.14496" lon="-0.01286">
        <ele>419.3</ele>
        <time>2020-09-12T20:12:57Z</time>
      </trkpt>
      <trkpt lat="43.14492" lon="-0.01289">
        <ele>419.4</ele>
        <time>2020-09-12T20:12:58Z</time>
      </trkpt>
      <trkpt lat="43.14488" lon="-0.01292">
        <ele>419.6</ele>
        <time>2020-09-12T20:12:59Z</time>
      </trkpt>
      <trkpt lat="43.14483" lon="-0.01294">
        <ele>419.7</ele>
        <time>2020-09-12T20:13:00Z</time>
      </trkpt>
      <trkpt lat="43.14478" lon="-0.01296">
        <ele>419.9</ele>
        <time>2020-09-12T20:13:01Z</time>
      </trkpt>
      <trkpt lat="43.14474" lon="-0.01299">
        <ele>420.1</ele>
        <time>2020-09-12T20:13:02Z</time>
      </trkpt>
      <trkpt lat="43.1447" lon="-0.013">
        <ele>420.2</ele>
        <time>2020-09-12T20:13:03Z</time>
      </trkpt>
      <trkpt lat="43.14466" lon="-0.01301">
        <ele>420.4</ele>
        <time>2020-09-12T20:13:04Z</time>
      </trkpt>
      <trkpt lat="43.14462" lon="-0.01302">
        <ele>420.5</ele>
        <time>2020-09-12T20:13:05Z</time>
      </trkpt>
      <trkpt lat="43.14459" lon="-0.01302">
        <ele>420.6</ele>
        <time>2020-09-12T20:13:06Z</time>
      </trkpt>
      <trkpt lat="43.14455" lon="-0.01302">
        <ele>420.8</ele>
        <time>2020-09-12T20:13:07Z</time>
      </trkpt>
      <trkpt lat="43.14451" lon="-0.01302">
        <ele>420.9</ele>
        <time>2020-09-12T20:13:08Z</time>
      </trkpt>
      <trkpt lat="43.14446" lon="-0.01301">
        <ele>421.1</ele>
        <time>2020-09-12T20:13:09Z</time>
      </trkpt>
      <trkpt lat="43.14441" lon="-0.013">
        <ele>421.3</ele>
        <time>2020-09-12T20:13:10Z</time>
      </trkpt>
      <trkpt lat="43.14437" lon="-0.01298">
        <ele>421.4</ele>
        <time>2020-09-12T20:13:11Z</time>
      </trkpt>
      <trkpt lat="43.14432" lon="-0.01298">
        <ele>421.6</ele>
        <time>2020-09-12T20:13:12Z</time>
      </trkpt>
      <trkpt lat="43.14427" lon="-0.01298">
        <ele>421.8</ele>
        <time>2020-09-12T20:13:13Z</time>
      </trkpt>
      <trkpt lat="43.14422" lon="-0.01299">
        <ele>422</ele>
        <time>2020-09-12T20:13:14Z</time>
      </trkpt>
      <trkpt lat="43.14417" lon="-0.01301">
        <ele>422.1</ele>
        <time>2020-09-12T20:13:15Z</time>
      </trkpt>
      <trkpt lat="43.14411" lon="-0.01303">
        <ele>422.3</ele>
        <time>2020-09-12T20:13:16Z</time>
      </trkpt>
      <trkpt lat="43.14405" lon="-0.01305">
        <ele>422.6</ele>
        <time>2020-09-12T20:13:17Z</time>
      </trkpt>
      <trkpt lat="43.14399" lon="-0.01309">
        <ele>422.8</ele>
        <time>2020-09-12T20:13:18Z</time>
      </trkpt>
      <trkpt lat="43.14392" lon="-0.01314">
        <ele>423.1</ele>
        <time>2020-09-12T20:13:19Z</time>
      </trkpt>
      <trkpt lat="43.14386" lon="-0.01318">
        <ele>423.4</ele>
        <time>2020-09-12T20:13:20Z</time>
      </trkpt>
      <trkpt lat="43.1438" lon="-0.01321">
        <ele>423.6</ele>
        <time>2020-09-12T20:13:21Z</time>
      </trkpt>
      <trkpt lat="43.14375" lon="-0.01324">
        <ele>423.8</ele>
        <time>2020-09-12T20:13:22Z</time>
      </trkpt>
      <trkpt lat="43.1437" lon="-0.01327">
        <ele>424</ele>
        <time>2020-09-12T20:13:23Z</time>
      </trkpt>
      <trkpt lat="43.14365" lon="-0.01328">
        <ele>424.2</ele>
        <time>2020-09-12T20:13:24Z</time>
      </trkpt>
      <trkpt lat="43.1436" lon="-0.0133">
        <ele>424.4</ele>
        <time>2020-09-12T20:13:25Z</time>
      </trkpt>
      <trkpt lat="43.14355" lon="-0.01332">
        <ele>424.6</ele>
        <time>2020-09-12T20:13:26Z</time>
      </trkpt>
      <trkpt lat="43.14351" lon="-0.01334">
        <ele>424.8</ele>
        <time>2020-09-12T20:13:27Z</time>
      </trkpt>
      <trkpt lat="43.14347" lon="-0.01337">
        <ele>424.9</ele>
        <time>2020-09-12T20:13:28Z</time>
      </trkpt>
      <trkpt lat="43.14342" lon="-0.0134">
        <ele>425.1</ele>
        <time>2020-09-12T20:13:29Z</time>
      </trkpt>
      <trkpt lat="43.14338" lon="-0.01343">
        <ele>425.3</ele>
        <time>2020-09-12T20:13:30Z</time>
      </trkpt>
      <trkpt lat="43.14334" lon="-0.01344">
        <ele>425.4</ele>
        <time>2020-09-12T20:13:31Z</time>
      </trkpt>
      <trkpt lat="43.14332" lon="-0.01347">
        <ele>425.5</ele>
        <time>2020-09-12T20:13:32Z</time>
      </trkpt>
      <trkpt lat="43.14328" lon="-0.01349">
        <ele>425.7</ele>
        <time>2020-09-12T20:13:33Z</time>
      </trkpt>
      <trkpt lat="43.14326" lon="-0.01351">
        <ele>425.8</ele>
        <time>2020-09-12T20:13:34Z</time>
      </trkpt>
      <trkpt lat="43.14323" lon="-0.01354">
        <ele>425.9</ele>
        <time>2020-09-12T20:13:35Z</time>
      </trkpt>
      <trkpt lat="43.1432" lon="-0.01358">
        <ele>426</ele>
        <time>2020-09-12T20:13:36Z</time>
      </trkpt>
      <trkpt lat="43.14319" lon="-0.01362">
        <ele>426.1</ele>
        <time>2020-09-12T20:13:37Z</time>
      </trkpt>
      <trkpt lat="43.14317" lon="-0.01367">
        <ele>426.3</ele>
        <time>2020-09-12T20:13:38Z</time>
      </trkpt>
      <trkpt lat="43.14316" lon="-0.01371">
        <ele>426.4</ele>
        <time>2020-09-12T20:13:39Z</time>
      </trkpt>
      <trkpt lat="43.14315" lon="-0.01379">
        <ele>426.6</ele>
        <time>2020-09-12T20:13:41Z</time>
      </trkpt>
      <trkpt lat="43.14315" lon="-0.01383">
        <ele>426.3</ele>
        <time>2020-09-12T20:13:42Z</time>
      </trkpt>
      <trkpt lat="43.14314" lon="-0.01387">
        <ele>426.4</ele>
        <time>2020-09-12T20:13:43Z</time>
      </trkpt>
      <trkpt lat="43.14313" lon="-0.01394">
        <ele>426.3</ele>
        <time>2020-09-12T20:13:45Z</time>
      </trkpt>
      <trkpt lat="43.14312" lon="-0.01401">
        <ele>426.2</ele>
        <time>2020-09-12T20:13:47Z</time>
      </trkpt>
      <trkpt lat="43.1431" lon="-0.01407">
        <ele>426.8</ele>
        <time>2020-09-12T20:13:49Z</time>
      </trkpt>
      <trkpt lat="43.14308" lon="-0.01411">
        <ele>427.4</ele>
        <time>2020-09-12T20:13:50Z</time>
      </trkpt>
      <trkpt lat="43.14307" lon="-0.01415">
        <ele>427.3</ele>
        <time>2020-09-12T20:13:51Z</time>
      </trkpt>
      <trkpt lat="43.14305" lon="-0.01419">
        <ele>427.5</ele>
        <time>2020-09-12T20:13:52Z</time>
      </trkpt>
      <trkpt lat="43.14303" lon="-0.01427">
        <ele>428.9</ele>
        <time>2020-09-12T20:13:54Z</time>
      </trkpt>
      <trkpt lat="43.14301" lon="-0.0143">
        <ele>429</ele>
        <time>2020-09-12T20:13:55Z</time>
      </trkpt>
      <trkpt lat="43.14299" lon="-0.01434">
        <ele>428.9</ele>
        <time>2020-09-12T20:13:57Z</time>
      </trkpt>
      <trkpt lat="43.14297" lon="-0.01437">
        <ele>428.8</ele>
        <time>2020-09-12T20:13:59Z</time>
      </trkpt>
      <trkpt lat="43.14293" lon="-0.01443">
        <ele>429.9</ele>
        <time>2020-09-12T20:14:02Z</time>
      </trkpt>
      <trkpt lat="43.14292" lon="-0.01446">
        <ele>430.1</ele>
        <time>2020-09-12T20:14:03Z</time>
      </trkpt>
      <trkpt lat="43.14289" lon="-0.0145">
        <ele>430.3</ele>
        <time>2020-09-12T20:14:05Z</time>
      </trkpt>
      <trkpt lat="43.14287" lon="-0.01453">
        <ele>431.7</ele>
        <time>2020-09-12T20:14:07Z</time>
      </trkpt>
      <trkpt lat="43.14284" lon="-0.01458">
        <ele>432.8</ele>
        <time>2020-09-12T20:14:09Z</time>
      </trkpt>
      <trkpt lat="43.14281" lon="-0.01463">
        <ele>432.9</ele>
        <time>2020-09-12T20:14:11Z</time>
      </trkpt>
      <trkpt lat="43.14278" lon="-0.01469">
        <ele>433.1</ele>
        <time>2020-09-12T20:14:13Z</time>
      </trkpt>
      <trkpt lat="43.14279" lon="-0.01474">
        <ele>433.8</ele>
        <time>2020-09-12T20:14:17Z</time>
      </trkpt>
      <trkpt lat="43.14279" lon="-0.01477">
        <ele>434.1</ele>
        <time>2020-09-12T20:14:20Z</time>
      </trkpt>
      <trkpt lat="43.14277" lon="-0.01482">
        <ele>434.2</ele>
        <time>2020-09-12T20:14:23Z</time>
      </trkpt>
      <trkpt lat="43.14276" lon="-0.01486">
        <ele>434.2</ele>
        <time>2020-09-12T20:14:25Z</time>
      </trkpt>
      <trkpt lat="43.14275" lon="-0.0149">
        <ele>434.6</ele>
        <time>2020-09-12T20:14:26Z</time>
      </trkpt>
      <trkpt lat="43.14275" lon="-0.01496">
        <ele>435.3</ele>
        <time>2020-09-12T20:14:28Z</time>
      </trkpt>
      <trkpt lat="43.14277" lon="-0.01499">
        <ele>435.9</ele>
        <time>2020-09-12T20:14:30Z</time>
      </trkpt>
      <trkpt lat="43.14275" lon="-0.01507">
        <ele>436.6</ele>
        <time>2020-09-12T20:14:32Z</time>
      </trkpt>
      <trkpt lat="43.14274" lon="-0.0151">
        <ele>437.1</ele>
        <time>2020-09-12T20:14:33Z</time>
      </trkpt>
      <trkpt lat="43.14273" lon="-0.01514">
        <ele>437.5</ele>
        <time>2020-09-12T20:14:34Z</time>
      </trkpt>
      <trkpt lat="43.14272" lon="-0.01518">
        <ele>437.8</ele>
        <time>2020-09-12T20:14:35Z</time>
      </trkpt>
      <trkpt lat="43.14271" lon="-0.01525">
        <ele>438.2</ele>
        <time>2020-09-12T20:14:37Z</time>
      </trkpt>
      <trkpt lat="43.14273" lon="-0.01531">
        <ele>438.5</ele>
        <time>2020-09-12T20:14:39Z</time>
      </trkpt>
      <trkpt lat="43.14273" lon="-0.01535">
        <ele>439</ele>
        <time>2020-09-12T20:14:41Z</time>
      </trkpt>
      <trkpt lat="43.14273" lon="-0.01541">
        <ele>440.3</ele>
        <time>2020-09-12T20:14:44Z</time>
      </trkpt>
      <trkpt lat="43.14275" lon="-0.01543">
        <ele>441.2</ele>
        <time>2020-09-12T20:14:47Z</time>
      </trkpt>
      <trkpt lat="43.14276" lon="-0.01549">
        <ele>442</ele>
        <time>2020-09-12T20:14:49Z</time>
      </trkpt>
      <trkpt lat="43.14278" lon="-0.01553">
        <ele>442.4</ele>
        <time>2020-09-12T20:14:51Z</time>
      </trkpt>
      <trkpt lat="43.14281" lon="-0.01556">
        <ele>442.7</ele>
        <time>2020-09-12T20:14:53Z</time>
      </trkpt>
      <trkpt lat="43.14284" lon="-0.01558">
        <ele>442.7</ele>
        <time>2020-09-12T20:14:56Z</time>
      </trkpt>
      <trkpt lat="43.14288" lon="-0.01561">
        <ele>443</ele>
        <time>2020-09-12T20:14:58Z</time>
      </trkpt>
      <trkpt lat="43.14287" lon="-0.01567">
        <ele>443.9</ele>
        <time>2020-09-12T20:15:01Z</time>
      </trkpt>
      <trkpt lat="43.14289" lon="-0.0157">
        <ele>444.2</ele>
        <time>2020-09-12T20:15:04Z</time>
      </trkpt>
      <trkpt lat="43.1429" lon="-0.01574">
        <ele>444.3</ele>
        <time>2020-09-12T20:15:06Z</time>
      </trkpt>
      <trkpt lat="43.14293" lon="-0.01579">
        <ele>444.3</ele>
        <time>2020-09-12T20:15:08Z</time>
      </trkpt>
      <trkpt lat="43.14296" lon="-0.01585">
        <ele>443.7</ele>
        <time>2020-09-12T20:15:10Z</time>
      </trkpt>
      <trkpt lat="43.14296" lon="-0.01589">
        <ele>443.7</ele>
        <time>2020-09-12T20:15:11Z</time>
      </trkpt>
      <trkpt lat="43.14296" lon="-0.01594">
        <ele>444.6</ele>
        <time>2020-09-12T20:15:13Z</time>
      </trkpt>
      <trkpt lat="43.14297" lon="-0.01598">
        <ele>445</ele>
        <time>2020-09-12T20:15:15Z</time>
      </trkpt>
      <trkpt lat="43.14297" lon="-0.01603">
        <ele>445.3</ele>
        <time>2020-09-12T20:15:17Z</time>
      </trkpt>
      <trkpt lat="43.14297" lon="-0.01607">
        <ele>445.9</ele>
        <time>2020-09-12T20:15:20Z</time>
      </trkpt>
      <trkpt lat="43.14297" lon="-0.01611">
        <ele>446.7</ele>
        <time>2020-09-12T20:15:22Z</time>
      </trkpt>
      <trkpt lat="43.143" lon="-0.01612">
        <ele>447.1</ele>
        <time>2020-09-12T20:15:24Z</time>
      </trkpt>
      <trkpt lat="43.14302" lon="-0.01617">
        <ele>447.7</ele>
        <time>2020-09-12T20:15:27Z</time>
      </trkpt>
      <trkpt lat="43.14302" lon="-0.01622">
        <ele>448</ele>
        <time>2020-09-12T20:15:29Z</time>
      </trkpt>
      <trkpt lat="43.14301" lon="-0.01627">
        <ele>449</ele>
        <time>2020-09-12T20:15:31Z</time>
      </trkpt>
      <trkpt lat="43.14299" lon="-0.0163">
        <ele>449.1</ele>
        <time>2020-09-12T20:15:33Z</time>
      </trkpt>
      <trkpt lat="43.14295" lon="-0.0163">
        <ele>449.5</ele>
        <time>2020-09-12T20:15:35Z</time>
      </trkpt>
      <trkpt lat="43.14292" lon="-0.0163">
        <ele>450.1</ele>
        <time>2020-09-12T20:15:37Z</time>
      </trkpt>
      <trkpt lat="43.14288" lon="-0.0163">
        <ele>450.3</ele>
        <time>2020-09-12T20:15:40Z</time>
      </trkpt>
      <trkpt lat="43.14286" lon="-0.01634">
        <ele>450.2</ele>
        <time>2020-09-12T20:15:45Z</time>
      </trkpt>
      <trkpt lat="43.14283" lon="-0.01632">
        <ele>450.6</ele>
        <time>2020-09-12T20:15:48Z</time>
      </trkpt>
      <trkpt lat="43.1428" lon="-0.0163">
        <ele>451</ele>
        <time>2020-09-12T20:15:51Z</time>
      </trkpt>
      <trkpt lat="43.14277" lon="-0.01629">
        <ele>451.8</ele>
        <time>2020-09-12T20:15:53Z</time>
      </trkpt>
      <trkpt lat="43.14274" lon="-0.0163">
        <ele>452</ele>
        <time>2020-09-12T20:15:55Z</time>
      </trkpt>
      <trkpt lat="43.14271" lon="-0.0163">
        <ele>452.4</ele>
        <time>2020-09-12T20:15:57Z</time>
      </trkpt>
      <trkpt lat="43.14268" lon="-0.0163">
        <ele>453</ele>
        <time>2020-09-12T20:15:59Z</time>
      </trkpt>
      <trkpt lat="43.14265" lon="-0.0163">
        <ele>454</ele>
        <time>2020-09-12T20:16:01Z</time>
      </trkpt>
      <trkpt lat="43.14261" lon="-0.01631">
        <ele>454.4</ele>
        <time>2020-09-12T20:16:03Z</time>
      </trkpt>
      <trkpt lat="43.14257" lon="-0.01631">
        <ele>455.1</ele>
        <time>2020-09-12T20:16:05Z</time>
      </trkpt>
      <trkpt lat="43.14254" lon="-0.01631">
        <ele>455.9</ele>
        <time>2020-09-12T20:16:07Z</time>
      </trkpt>
      <trkpt lat="43.1425" lon="-0.01631">
        <ele>456.2</ele>
        <time>2020-09-12T20:16:10Z</time>
      </trkpt>
      <trkpt lat="43.14246" lon="-0.0163">
        <ele>456.7</ele>
        <time>2020-09-12T20:16:12Z</time>
      </trkpt>
      <trkpt lat="43.14242" lon="-0.01627">
        <ele>457.2</ele>
        <time>2020-09-12T20:16:14Z</time>
      </trkpt>
      <trkpt lat="43.14238" lon="-0.01626">
        <ele>457.7</ele>
        <time>2020-09-12T20:16:16Z</time>
      </trkpt>
      <trkpt lat="43.14235" lon="-0.01624">
        <ele>457.8</ele>
        <time>2020-09-12T20:16:18Z</time>
      </trkpt>
      <trkpt lat="43.14233" lon="-0.01621">
        <ele>458.1</ele>
        <time>2020-09-12T20:16:20Z</time>
      </trkpt>
      <trkpt lat="43.14232" lon="-0.01618">
        <ele>458.6</ele>
        <time>2020-09-12T20:16:22Z</time>
      </trkpt>
      <trkpt lat="43.14229" lon="-0.01618">
        <ele>459.1</ele>
        <time>2020-09-12T20:16:24Z</time>
      </trkpt>
      <trkpt lat="43.14227" lon="-0.01615">
        <ele>459.3</ele>
        <time>2020-09-12T20:16:26Z</time>
      </trkpt>
      <trkpt lat="43.14223" lon="-0.01614">
        <ele>459.8</ele>
        <time>2020-09-12T20:16:29Z</time>
      </trkpt>
      <trkpt lat="43.14219" lon="-0.01611">
        <ele>460.8</ele>
        <time>2020-09-12T20:16:32Z</time>
      </trkpt>
      <trkpt lat="43.14217" lon="-0.01608">
        <ele>462.5</ele>
        <time>2020-09-12T20:16:35Z</time>
      </trkpt>
      <trkpt lat="43.14214" lon="-0.01606">
        <ele>463.2</ele>
        <time>2020-09-12T20:16:39Z</time>
      </trkpt>
      <trkpt lat="43.1421" lon="-0.01607">
        <ele>463.6</ele>
        <time>2020-09-12T20:16:41Z</time>
      </trkpt>
      <trkpt lat="43.14207" lon="-0.01608">
        <ele>464.2</ele>
        <time>2020-09-12T20:16:43Z</time>
      </trkpt>
      <trkpt lat="43.14203" lon="-0.01611">
        <ele>465.3</ele>
        <time>2020-09-12T20:16:46Z</time>
      </trkpt>
      <trkpt lat="43.14201" lon="-0.01614">
        <ele>465.7</ele>
        <time>2020-09-12T20:16:48Z</time>
      </trkpt>
      <trkpt lat="43.14198" lon="-0.01617">
        <ele>466.6</ele>
        <time>2020-09-12T20:16:52Z</time>
      </trkpt>
      <trkpt lat="43.14196" lon="-0.01621">
        <ele>466.6</ele>
        <time>2020-09-12T20:16:55Z</time>
      </trkpt>
      <trkpt lat="43.14195" lon="-0.01625">
        <ele>466.2</ele>
        <time>2020-09-12T20:16:57Z</time>
      </trkpt>
      <trkpt lat="43.14193" lon="-0.01628">
        <ele>466.6</ele>
        <time>2020-09-12T20:17:00Z</time>
      </trkpt>
      <trkpt lat="43.14192" lon="-0.01633">
        <ele>467.4</ele>
        <time>2020-09-12T20:17:03Z</time>
      </trkpt>
      <trkpt lat="43.14191" lon="-0.01638">
        <ele>467.5</ele>
        <time>2020-09-12T20:17:05Z</time>
      </trkpt>
      <trkpt lat="43.1419" lon="-0.01643">
        <ele>468</ele>
        <time>2020-09-12T20:17:07Z</time>
      </trkpt>
      <trkpt lat="43.1419" lon="-0.01648">
        <ele>468.3</ele>
        <time>2020-09-12T20:17:09Z</time>
      </trkpt>
      <trkpt lat="43.1419" lon="-0.01652">
        <ele>468.7</ele>
        <time>2020-09-12T20:17:11Z</time>
      </trkpt>
      <trkpt lat="43.14189" lon="-0.01657">
        <ele>468.4</ele>
        <time>2020-09-12T20:17:13Z</time>
      </trkpt>
      <trkpt lat="43.14188" lon="-0.01661">
        <ele>468.3</ele>
        <time>2020-09-12T20:17:15Z</time>
      </trkpt>
      <trkpt lat="43.14186" lon="-0.01667">
        <ele>468.3</ele>
        <time>2020-09-12T20:17:17Z</time>
      </trkpt>
      <trkpt lat="43.14184" lon="-0.01675">
        <ele>468.3</ele>
        <time>2020-09-12T20:17:19Z</time>
      </trkpt>
      <trkpt lat="43.14183" lon="-0.0168">
        <ele>468</ele>
        <time>2020-09-12T20:17:20Z</time>
      </trkpt>
      <trkpt lat="43.14182" lon="-0.01685">
        <ele>468.3</ele>
        <time>2020-09-12T20:17:21Z</time>
      </trkpt>
      <trkpt lat="43.14181" lon="-0.01691">
        <ele>467.6</ele>
        <time>2020-09-12T20:17:22Z</time>
      </trkpt>
      <trkpt lat="43.14179" lon="-0.01697">
        <ele>467.9</ele>
        <time>2020-09-12T20:17:23Z</time>
      </trkpt>
      <trkpt lat="43.14176" lon="-0.01703">
        <ele>467.7</ele>
        <time>2020-09-12T20:17:24Z</time>
      </trkpt>
      <trkpt lat="43.14172" lon="-0.01713">
        <ele>468.2</ele>
        <time>2020-09-12T20:17:25Z</time>
      </trkpt>
      <trkpt lat="43.14168" lon="-0.01718">
        <ele>469.1</ele>
        <time>2020-09-12T20:17:26Z</time>
      </trkpt>
      <trkpt lat="43.14165" lon="-0.01723">
        <ele>467.7</ele>
        <time>2020-09-12T20:17:27Z</time>
      </trkpt>
      <trkpt lat="43.14162" lon="-0.01725">
        <ele>466.9</ele>
        <time>2020-09-12T20:17:28Z</time>
      </trkpt>
      <trkpt lat="43.14157" lon="-0.01726">
        <ele>466</ele>
        <time>2020-09-12T20:17:30Z</time>
      </trkpt>
      <trkpt lat="43.14152" lon="-0.01722">
        <ele>466.2</ele>
        <time>2020-09-12T20:17:32Z</time>
      </trkpt>
      <trkpt lat="43.14148" lon="-0.0172">
        <ele>466.1</ele>
        <time>2020-09-12T20:17:33Z</time>
      </trkpt>
      <trkpt lat="43.14145" lon="-0.01716">
        <ele>466</ele>
        <time>2020-09-12T20:17:34Z</time>
      </trkpt>
      <trkpt lat="43.14143" lon="-0.01711">
        <ele>465.8</ele>
        <time>2020-09-12T20:17:35Z</time>
      </trkpt>
      <trkpt lat="43.14141" lon="-0.01706">
        <ele>465.6</ele>
        <time>2020-09-12T20:17:36Z</time>
      </trkpt>
      <trkpt lat="43.1414" lon="-0.01701">
        <ele>465.5</ele>
        <time>2020-09-12T20:17:37Z</time>
      </trkpt>
      <trkpt lat="43.14138" lon="-0.01697">
        <ele>465.3</ele>
        <time>2020-09-12T20:17:38Z</time>
      </trkpt>
      <trkpt lat="43.14136" lon="-0.01691">
        <ele>465.1</ele>
        <time>2020-09-12T20:17:39Z</time>
      </trkpt>
      <trkpt lat="43.14134" lon="-0.01686">
        <ele>465</ele>
        <time>2020-09-12T20:17:40Z</time>
      </trkpt>
      <trkpt lat="43.14129" lon="-0.01682">
        <ele>464.7</ele>
        <time>2020-09-12T20:17:42Z</time>
      </trkpt>
      <trkpt lat="43.14125" lon="-0.01677">
        <ele>464.5</ele>
        <time>2020-09-12T20:17:44Z</time>
      </trkpt>
      <trkpt lat="43.14123" lon="-0.01673">
        <ele>464.3</ele>
        <time>2020-09-12T20:17:45Z</time>
      </trkpt>
      <trkpt lat="43.14121" lon="-0.01669">
        <ele>464.2</ele>
        <time>2020-09-12T20:17:46Z</time>
      </trkpt>
      <trkpt lat="43.14119" lon="-0.01663">
        <ele>464</ele>
        <time>2020-09-12T20:17:47Z</time>
      </trkpt>
      <trkpt lat="43.14116" lon="-0.01658">
        <ele>463.8</ele>
        <time>2020-09-12T20:17:48Z</time>
      </trkpt>
      <trkpt lat="43.14114" lon="-0.01653">
        <ele>463.6</ele>
        <time>2020-09-12T20:17:49Z</time>
      </trkpt>
      <trkpt lat="43.14111" lon="-0.01646">
        <ele>463.4</ele>
        <time>2020-09-12T20:17:50Z</time>
      </trkpt>
      <trkpt lat="43.1411" lon="-0.01641">
        <ele>463.2</ele>
        <time>2020-09-12T20:17:51Z</time>
      </trkpt>
      <trkpt lat="43.14108" lon="-0.01636">
        <ele>463</ele>
        <time>2020-09-12T20:17:52Z</time>
      </trkpt>
      <trkpt lat="43.14106" lon="-0.01631">
        <ele>462.9</ele>
        <time>2020-09-12T20:17:53Z</time>
      </trkpt>
      <trkpt lat="43.14104" lon="-0.01627">
        <ele>462.7</ele>
        <time>2020-09-12T20:17:54Z</time>
      </trkpt>
      <trkpt lat="43.14102" lon="-0.01623">
        <ele>462.6</ele>
        <time>2020-09-12T20:17:55Z</time>
      </trkpt>
      <trkpt lat="43.14098" lon="-0.01618">
        <ele>462.4</ele>
        <time>2020-09-12T20:17:56Z</time>
      </trkpt>
      <trkpt lat="43.14095" lon="-0.01614">
        <ele>462.1</ele>
        <time>2020-09-12T20:17:57Z</time>
      </trkpt>
      <trkpt lat="43.1409" lon="-0.0161">
        <ele>461.9</ele>
        <time>2020-09-12T20:17:58Z</time>
      </trkpt>
      <trkpt lat="43.14086" lon="-0.01609">
        <ele>461.6</ele>
        <time>2020-09-12T20:17:59Z</time>
      </trkpt>
      <trkpt lat="43.14083" lon="-0.01609">
        <ele>461.4</ele>
        <time>2020-09-12T20:18:00Z</time>
      </trkpt>
      <trkpt lat="43.1408" lon="-0.01608">
        <ele>461.3</ele>
        <time>2020-09-12T20:18:01Z</time>
      </trkpt>
      <trkpt lat="43.14077" lon="-0.01608">
        <ele>461.1</ele>
        <time>2020-09-12T20:18:02Z</time>
      </trkpt>
      <trkpt lat="43.14072" lon="-0.01609">
        <ele>460.9</ele>
        <time>2020-09-12T20:18:04Z</time>
      </trkpt>
      <trkpt lat="43.14067" lon="-0.01613">
        <ele>460.6</ele>
        <time>2020-09-12T20:18:05Z</time>
      </trkpt>
      <trkpt lat="43.14064" lon="-0.01616">
        <ele>460.4</ele>
        <time>2020-09-12T20:18:06Z</time>
      </trkpt>
      <trkpt lat="43.14061" lon="-0.01621">
        <ele>460.2</ele>
        <time>2020-09-12T20:18:07Z</time>
      </trkpt>
      <trkpt lat="43.14059" lon="-0.01629">
        <ele>459.9</ele>
        <time>2020-09-12T20:18:08Z</time>
      </trkpt>
      <trkpt lat="43.14058" lon="-0.01635">
        <ele>459.8</ele>
        <time>2020-09-12T20:18:09Z</time>
      </trkpt>
      <trkpt lat="43.14056" lon="-0.01639">
        <ele>459.6</ele>
        <time>2020-09-12T20:18:10Z</time>
      </trkpt>
      <trkpt lat="43.14052" lon="-0.01642">
        <ele>459.4</ele>
        <time>2020-09-12T20:18:11Z</time>
      </trkpt>
      <trkpt lat="43.14048" lon="-0.01642">
        <ele>459.2</ele>
        <time>2020-09-12T20:18:13Z</time>
      </trkpt>
      <trkpt lat="43.14044" lon="-0.01641">
        <ele>458.9</ele>
        <time>2020-09-12T20:18:15Z</time>
      </trkpt>
      <trkpt lat="43.1404" lon="-0.01639">
        <ele>458.7</ele>
        <time>2020-09-12T20:18:16Z</time>
      </trkpt>
      <trkpt lat="43.14037" lon="-0.01637">
        <ele>458.5</ele>
        <time>2020-09-12T20:18:17Z</time>
      </trkpt>
      <trkpt lat="43.14033" lon="-0.01636">
        <ele>458.2</ele>
        <time>2020-09-12T20:18:18Z</time>
      </trkpt>
      <trkpt lat="43.1403" lon="-0.01633">
        <ele>458</ele>
        <time>2020-09-12T20:18:19Z</time>
      </trkpt>
      <trkpt lat="43.14026" lon="-0.01631">
        <ele>457.8</ele>
        <time>2020-09-12T20:18:20Z</time>
      </trkpt>
      <trkpt lat="43.14022" lon="-0.01627">
        <ele>457.6</ele>
        <time>2020-09-12T20:18:21Z</time>
      </trkpt>
      <trkpt lat="43.14019" lon="-0.01619">
        <ele>457.3</ele>
        <time>2020-09-12T20:18:22Z</time>
      </trkpt>
      <trkpt lat="43.14015" lon="-0.01611">
        <ele>457</ele>
        <time>2020-09-12T20:18:23Z</time>
      </trkpt>
      <trkpt lat="43.14011" lon="-0.01604">
        <ele>456.7</ele>
        <time>2020-09-12T20:18:24Z</time>
      </trkpt>
      <trkpt lat="43.14006" lon="-0.01596">
        <ele>456.4</ele>
        <time>2020-09-12T20:18:25Z</time>
      </trkpt>
      <trkpt lat="43.14002" lon="-0.0159">
        <ele>456.1</ele>
        <time>2020-09-12T20:18:26Z</time>
      </trkpt>
      <trkpt lat="43.13995" lon="-0.01583">
        <ele>455.7</ele>
        <time>2020-09-12T20:18:27Z</time>
      </trkpt>
      <trkpt lat="43.13989" lon="-0.01577">
        <ele>455.4</ele>
        <time>2020-09-12T20:18:28Z</time>
      </trkpt>
      <trkpt lat="43.13984" lon="-0.01574">
        <ele>455.1</ele>
        <time>2020-09-12T20:18:29Z</time>
      </trkpt>
      <trkpt lat="43.1398" lon="-0.01571">
        <ele>454.9</ele>
        <time>2020-09-12T20:18:30Z</time>
      </trkpt>
      <trkpt lat="43.13975" lon="-0.01569">
        <ele>454.6</ele>
        <time>2020-09-12T20:18:31Z</time>
      </trkpt>
      <trkpt lat="43.13971" lon="-0.0157">
        <ele>454.4</ele>
        <time>2020-09-12T20:18:32Z</time>
      </trkpt>
      <trkpt lat="43.13967" lon="-0.01571">
        <ele>454.2</ele>
        <time>2020-09-12T20:18:33Z</time>
      </trkpt>
      <trkpt lat="43.13963" lon="-0.01572">
        <ele>454</ele>
        <time>2020-09-12T20:18:34Z</time>
      </trkpt>
      <trkpt lat="43.13959" lon="-0.01573">
        <ele>453.9</ele>
        <time>2020-09-12T20:18:35Z</time>
      </trkpt>
      <trkpt lat="43.13956" lon="-0.01574">
        <ele>453.7</ele>
        <time>2020-09-12T20:18:36Z</time>
      </trkpt>
      <trkpt lat="43.13953" lon="-0.01577">
        <ele>453.6</ele>
        <time>2020-09-12T20:18:37Z</time>
      </trkpt>
      <trkpt lat="43.13949" lon="-0.01578">
        <ele>453.4</ele>
        <time>2020-09-12T20:18:38Z</time>
      </trkpt>
      <trkpt lat="43.13944" lon="-0.01578">
        <ele>453.2</ele>
        <time>2020-09-12T20:18:39Z</time>
      </trkpt>
      <trkpt lat="43.1394" lon="-0.01578">
        <ele>453</ele>
        <time>2020-09-12T20:18:40Z</time>
      </trkpt>
      <trkpt lat="43.13935" lon="-0.01577">
        <ele>452.7</ele>
        <time>2020-09-12T20:18:41Z</time>
      </trkpt>
      <trkpt lat="43.13929" lon="-0.01575">
        <ele>452.5</ele>
        <time>2020-09-12T20:18:42Z</time>
      </trkpt>
      <trkpt lat="43.13923" lon="-0.01574">
        <ele>452.1</ele>
        <time>2020-09-12T20:18:43Z</time>
      </trkpt>
      <trkpt lat="43.13916" lon="-0.01572">
        <ele>451.8</ele>
        <time>2020-09-12T20:18:44Z</time>
      </trkpt>
      <trkpt lat="43.1391" lon="-0.01571">
        <ele>451.5</ele>
        <time>2020-09-12T20:18:45Z</time>
      </trkpt>
      <trkpt lat="43.13904" lon="-0.01571">
        <ele>451.2</ele>
        <time>2020-09-12T20:18:46Z</time>
      </trkpt>
      <trkpt lat="43.13898" lon="-0.01572">
        <ele>450.8</ele>
        <time>2020-09-12T20:18:47Z</time>
      </trkpt>
      <trkpt lat="43.13893" lon="-0.01572">
        <ele>450.5</ele>
        <time>2020-09-12T20:18:48Z</time>
      </trkpt>
      <trkpt lat="43.13889" lon="-0.01574">
        <ele>450.3</ele>
        <time>2020-09-12T20:18:49Z</time>
      </trkpt>
      <trkpt lat="43.13885" lon="-0.01576">
        <ele>450.1</ele>
        <time>2020-09-12T20:18:50Z</time>
      </trkpt>
      <trkpt lat="43.13881" lon="-0.01579">
        <ele>449.9</ele>
        <time>2020-09-12T20:18:51Z</time>
      </trkpt>
      <trkpt lat="43.13876" lon="-0.01584">
        <ele>448.8</ele>
        <time>2020-09-12T20:18:52Z</time>
      </trkpt>
      <trkpt lat="43.1387" lon="-0.01591">
        <ele>448.1</ele>
        <time>2020-09-12T20:18:53Z</time>
      </trkpt>
      <trkpt lat="43.13866" lon="-0.01594">
        <ele>447</ele>
        <time>2020-09-12T20:18:54Z</time>
      </trkpt>
      <trkpt lat="43.13862" lon="-0.01594">
        <ele>446.2</ele>
        <time>2020-09-12T20:18:55Z</time>
      </trkpt>
      <trkpt lat="43.13859" lon="-0.01594">
        <ele>445.7</ele>
        <time>2020-09-12T20:18:56Z</time>
      </trkpt>
      <trkpt lat="43.13854" lon="-0.01594">
        <ele>445.1</ele>
        <time>2020-09-12T20:18:58Z</time>
      </trkpt>
      <trkpt lat="43.13851" lon="-0.01596">
        <ele>445</ele>
        <time>2020-09-12T20:19:00Z</time>
      </trkpt>
      <trkpt lat="43.13849" lon="-0.01601">
        <ele>444.7</ele>
        <time>2020-09-12T20:19:02Z</time>
      </trkpt>
      <trkpt lat="43.13846" lon="-0.01605">
        <ele>444.7</ele>
        <time>2020-09-12T20:19:04Z</time>
      </trkpt>
      <trkpt lat="43.13843" lon="-0.0161">
        <ele>444.7</ele>
        <time>2020-09-12T20:19:06Z</time>
      </trkpt>
      <trkpt lat="43.13841" lon="-0.01612">
        <ele>444.6</ele>
        <time>2020-09-12T20:19:10Z</time>
      </trkpt>
      <trkpt lat="43.13838" lon="-0.01611">
        <ele>445</ele>
        <time>2020-09-12T20:19:14Z</time>
      </trkpt>
      <trkpt lat="43.13834" lon="-0.01614">
        <ele>445.4</ele>
        <time>2020-09-12T20:19:18Z</time>
      </trkpt>
      <trkpt lat="43.1383" lon="-0.01619">
        <ele>445.6</ele>
        <time>2020-09-12T20:19:21Z</time>
      </trkpt>
      <trkpt lat="43.1383" lon="-0.01622">
        <ele>445.7</ele>
        <time>2020-09-12T20:19:22Z</time>
      </trkpt>
      <trkpt lat="43.13831" lon="-0.01627">
        <ele>446</ele>
        <time>2020-09-12T20:19:24Z</time>
      </trkpt>
      <trkpt lat="43.1383" lon="-0.01631">
        <ele>446.2</ele>
        <time>2020-09-12T20:19:26Z</time>
      </trkpt>
      <trkpt lat="43.1383" lon="-0.01636">
        <ele>446.8</ele>
        <time>2020-09-12T20:19:28Z</time>
      </trkpt>
      <trkpt lat="43.13827" lon="-0.01639">
        <ele>447.4</ele>
        <time>2020-09-12T20:19:33Z</time>
      </trkpt>
      <trkpt lat="43.13823" lon="-0.01644">
        <ele>448</ele>
        <time>2020-09-12T20:19:35Z</time>
      </trkpt>
      <trkpt lat="43.1382" lon="-0.01648">
        <ele>448.5</ele>
        <time>2020-09-12T20:19:37Z</time>
      </trkpt>
      <trkpt lat="43.13818" lon="-0.01651">
        <ele>449.7</ele>
        <time>2020-09-12T20:19:44Z</time>
      </trkpt>
      <trkpt lat="43.13816" lon="-0.01655">
        <ele>450.2</ele>
        <time>2020-09-12T20:19:46Z</time>
      </trkpt>
      <trkpt lat="43.13816" lon="-0.01659">
        <ele>450.9</ele>
        <time>2020-09-12T20:19:49Z</time>
      </trkpt>
      <trkpt lat="43.13814" lon="-0.01665">
        <ele>451.7</ele>
        <time>2020-09-12T20:19:51Z</time>
      </trkpt>
      <trkpt lat="43.13813" lon="-0.01672">
        <ele>451.9</ele>
        <time>2020-09-12T20:19:53Z</time>
      </trkpt>
      <trkpt lat="43.13814" lon="-0.01676">
        <ele>452.7</ele>
        <time>2020-09-12T20:19:57Z</time>
      </trkpt>
      <trkpt lat="43.13813" lon="-0.0168">
        <ele>452.8</ele>
        <time>2020-09-12T20:19:59Z</time>
      </trkpt>
      <trkpt lat="43.13812" lon="-0.01684">
        <ele>453.4</ele>
        <time>2020-09-12T20:20:01Z</time>
      </trkpt>
      <trkpt lat="43.13812" lon="-0.01688">
        <ele>453.6</ele>
        <time>2020-09-12T20:20:04Z</time>
      </trkpt>
      <trkpt lat="43.13812" lon="-0.01692">
        <ele>453.3</ele>
        <time>2020-09-12T20:20:06Z</time>
      </trkpt>
      <trkpt lat="43.13811" lon="-0.01697">
        <ele>454</ele>
        <time>2020-09-12T20:20:08Z</time>
      </trkpt>
      <trkpt lat="43.13809" lon="-0.017">
        <ele>454.2</ele>
        <time>2020-09-12T20:20:10Z</time>
      </trkpt>
      <trkpt lat="43.13807" lon="-0.01704">
        <ele>454.3</ele>
        <time>2020-09-12T20:20:12Z</time>
      </trkpt>
      <trkpt lat="43.13806" lon="-0.01707">
        <ele>455.2</ele>
        <time>2020-09-12T20:20:14Z</time>
      </trkpt>
      <trkpt lat="43.13804" lon="-0.01713">
        <ele>455.5</ele>
        <time>2020-09-12T20:20:16Z</time>
      </trkpt>
      <trkpt lat="43.13802" lon="-0.01717">
        <ele>456.1</ele>
        <time>2020-09-12T20:20:17Z</time>
      </trkpt>
      <trkpt lat="43.13799" lon="-0.01722">
        <ele>457</ele>
        <time>2020-09-12T20:20:19Z</time>
      </trkpt>
      <trkpt lat="43.138" lon="-0.01725">
        <ele>457.3</ele>
        <time>2020-09-12T20:20:21Z</time>
      </trkpt>
      <trkpt lat="43.138" lon="-0.0173">
        <ele>458.2</ele>
        <time>2020-09-12T20:20:25Z</time>
      </trkpt>
      <trkpt lat="43.13798" lon="-0.01735">
        <ele>459</ele>
        <time>2020-09-12T20:20:29Z</time>
      </trkpt>
      <trkpt lat="43.13797" lon="-0.01739">
        <ele>459.4</ele>
        <time>2020-09-12T20:20:32Z</time>
      </trkpt>
      <trkpt lat="43.13796" lon="-0.01743">
        <ele>460.3</ele>
        <time>2020-09-12T20:20:36Z</time>
      </trkpt>
      <trkpt lat="43.13793" lon="-0.01747">
        <ele>460.6</ele>
        <time>2020-09-12T20:20:38Z</time>
      </trkpt>
      <trkpt lat="43.13792" lon="-0.01751">
        <ele>460.8</ele>
        <time>2020-09-12T20:20:39Z</time>
      </trkpt>
      <trkpt lat="43.1379" lon="-0.01755">
        <ele>461.2</ele>
        <time>2020-09-12T20:20:41Z</time>
      </trkpt>
      <trkpt lat="43.13788" lon="-0.01759">
        <ele>462.7</ele>
        <time>2020-09-12T20:20:49Z</time>
      </trkpt>
      <trkpt lat="43.13786" lon="-0.01763">
        <ele>464.4</ele>
        <time>2020-09-12T20:20:53Z</time>
      </trkpt>
      <trkpt lat="43.13784" lon="-0.01766">
        <ele>465</ele>
        <time>2020-09-12T20:20:55Z</time>
      </trkpt>
      <trkpt lat="43.13782" lon="-0.01769">
        <ele>465.1</ele>
        <time>2020-09-12T20:20:57Z</time>
      </trkpt>
      <trkpt lat="43.13781" lon="-0.01773">
        <ele>465.2</ele>
        <time>2020-09-12T20:20:59Z</time>
      </trkpt>
      <trkpt lat="43.13778" lon="-0.01779">
        <ele>465.7</ele>
        <time>2020-09-12T20:21:01Z</time>
      </trkpt>
      <trkpt lat="43.13777" lon="-0.01783">
        <ele>466</ele>
        <time>2020-09-12T20:21:02Z</time>
      </trkpt>
      <trkpt lat="43.13775" lon="-0.01787">
        <ele>466.2</ele>
        <time>2020-09-12T20:21:05Z</time>
      </trkpt>
      <trkpt lat="43.13774" lon="-0.0179">
        <ele>466</ele>
        <time>2020-09-12T20:21:09Z</time>
      </trkpt>
      <trkpt lat="43.13772" lon="-0.01794">
        <ele>466.2</ele>
        <time>2020-09-12T20:21:10Z</time>
      </trkpt>
      <trkpt lat="43.1377" lon="-0.01797">
        <ele>466.2</ele>
        <time>2020-09-12T20:21:11Z</time>
      </trkpt>
      <trkpt lat="43.13766" lon="-0.01799">
        <ele>466.7</ele>
        <time>2020-09-12T20:21:13Z</time>
      </trkpt>
      <trkpt lat="43.13764" lon="-0.01801">
        <ele>467.5</ele>
        <time>2020-09-12T20:21:18Z</time>
      </trkpt>
      <trkpt lat="43.1376" lon="-0.01803">
        <ele>468.1</ele>
        <time>2020-09-12T20:21:21Z</time>
      </trkpt>
      <trkpt lat="43.13759" lon="-0.01808">
        <ele>468.2</ele>
        <time>2020-09-12T20:21:24Z</time>
      </trkpt>
      <trkpt lat="43.13758" lon="-0.01812">
        <ele>468.3</ele>
        <time>2020-09-12T20:21:28Z</time>
      </trkpt>
      <trkpt lat="43.13755" lon="-0.01813">
        <ele>468.7</ele>
        <time>2020-09-12T20:21:30Z</time>
      </trkpt>
      <trkpt lat="43.13753" lon="-0.01817">
        <ele>469.4</ele>
        <time>2020-09-12T20:21:32Z</time>
      </trkpt>
      <trkpt lat="43.13752" lon="-0.0182">
        <ele>469.7</ele>
        <time>2020-09-12T20:21:34Z</time>
      </trkpt>
      <trkpt lat="43.13749" lon="-0.01825">
        <ele>470.2</ele>
        <time>2020-09-12T20:21:36Z</time>
      </trkpt>
      <trkpt lat="43.13746" lon="-0.01828">
        <ele>471.2</ele>
        <time>2020-09-12T20:21:40Z</time>
      </trkpt>
      <trkpt lat="43.13744" lon="-0.01831">
        <ele>471.9</ele>
        <time>2020-09-12T20:21:42Z</time>
      </trkpt>
      <trkpt lat="43.13742" lon="-0.01834">
        <ele>472.6</ele>
        <time>2020-09-12T20:21:45Z</time>
      </trkpt>
      <trkpt lat="43.1374" lon="-0.01838">
        <ele>473.3</ele>
        <time>2020-09-12T20:21:48Z</time>
      </trkpt>
      <trkpt lat="43.13739" lon="-0.01841">
        <ele>474</ele>
        <time>2020-09-12T20:21:52Z</time>
      </trkpt>
      <trkpt lat="43.13736" lon="-0.01845">
        <ele>474.2</ele>
        <time>2020-09-12T20:21:55Z</time>
      </trkpt>
      <trkpt lat="43.13733" lon="-0.01849">
        <ele>474</ele>
        <time>2020-09-12T20:21:57Z</time>
      </trkpt>
      <trkpt lat="43.13732" lon="-0.01853">
        <ele>474.2</ele>
        <time>2020-09-12T20:21:59Z</time>
      </trkpt>
      <trkpt lat="43.13729" lon="-0.01856">
        <ele>474.6</ele>
        <time>2020-09-12T20:22:03Z</time>
      </trkpt>
      <trkpt lat="43.13726" lon="-0.0186">
        <ele>474.7</ele>
        <time>2020-09-12T20:22:05Z</time>
      </trkpt>
      <trkpt lat="43.13724" lon="-0.01862">
        <ele>475.1</ele>
        <time>2020-09-12T20:22:07Z</time>
      </trkpt>
      <trkpt lat="43.1372" lon="-0.01865">
        <ele>475.8</ele>
        <time>2020-09-12T20:22:10Z</time>
      </trkpt>
      <trkpt lat="43.13719" lon="-0.01868">
        <ele>476.6</ele>
        <time>2020-09-12T20:22:13Z</time>
      </trkpt>
      <trkpt lat="43.13717" lon="-0.01872">
        <ele>477</ele>
        <time>2020-09-12T20:22:15Z</time>
      </trkpt>
      <trkpt lat="43.13715" lon="-0.01875">
        <ele>477.4</ele>
        <time>2020-09-12T20:22:17Z</time>
      </trkpt>
      <trkpt lat="43.13713" lon="-0.01879">
        <ele>477.8</ele>
        <time>2020-09-12T20:22:20Z</time>
      </trkpt>
      <trkpt lat="43.13712" lon="-0.01883">
        <ele>477.6</ele>
        <time>2020-09-12T20:22:22Z</time>
      </trkpt>
      <trkpt lat="43.13709" lon="-0.01888">
        <ele>478</ele>
        <time>2020-09-12T20:22:26Z</time>
      </trkpt>
      <trkpt lat="43.13708" lon="-0.01893">
        <ele>478.2</ele>
        <time>2020-09-12T20:22:28Z</time>
      </trkpt>
      <trkpt lat="43.13708" lon="-0.01897">
        <ele>478.5</ele>
        <time>2020-09-12T20:22:31Z</time>
      </trkpt>
      <trkpt lat="43.13705" lon="-0.01903">
        <ele>479</ele>
        <time>2020-09-12T20:22:33Z</time>
      </trkpt>
      <trkpt lat="43.13703" lon="-0.01906">
        <ele>479.2</ele>
        <time>2020-09-12T20:22:34Z</time>
      </trkpt>
      <trkpt lat="43.13701" lon="-0.0191">
        <ele>480.5</ele>
        <time>2020-09-12T20:22:39Z</time>
      </trkpt>
      <trkpt lat="43.13699" lon="-0.01914">
        <ele>481.6</ele>
        <time>2020-09-12T20:22:45Z</time>
      </trkpt>
      <trkpt lat="43.13697" lon="-0.01916">
        <ele>482.8</ele>
        <time>2020-09-12T20:22:48Z</time>
      </trkpt>
      <trkpt lat="43.13695" lon="-0.01919">
        <ele>483.8</ele>
        <time>2020-09-12T20:22:51Z</time>
      </trkpt>
      <trkpt lat="43.13692" lon="-0.01923">
        <ele>485.3</ele>
        <time>2020-09-12T20:22:54Z</time>
      </trkpt>
      <trkpt lat="43.13691" lon="-0.01927">
        <ele>485.8</ele>
        <time>2020-09-12T20:22:56Z</time>
      </trkpt>
      <trkpt lat="43.13692" lon="-0.01931">
        <ele>486.2</ele>
        <time>2020-09-12T20:22:59Z</time>
      </trkpt>
      <trkpt lat="43.1369" lon="-0.01936">
        <ele>486.6</ele>
        <time>2020-09-12T20:23:02Z</time>
      </trkpt>
      <trkpt lat="43.13688" lon="-0.01939">
        <ele>486.7</ele>
        <time>2020-09-12T20:23:03Z</time>
      </trkpt>
      <trkpt lat="43.13686" lon="-0.01944">
        <ele>487.7</ele>
        <time>2020-09-12T20:23:05Z</time>
      </trkpt>
      <trkpt lat="43.13685" lon="-0.01949">
        <ele>487.9</ele>
        <time>2020-09-12T20:23:08Z</time>
      </trkpt>
      <trkpt lat="43.13684" lon="-0.01953">
        <ele>487.9</ele>
        <time>2020-09-12T20:23:10Z</time>
      </trkpt>
      <trkpt lat="43.13682" lon="-0.01957">
        <ele>488.2</ele>
        <time>2020-09-12T20:23:14Z</time>
      </trkpt>
      <trkpt lat="43.13681" lon="-0.0196">
        <ele>488.7</ele>
        <time>2020-09-12T20:23:17Z</time>
      </trkpt>
      <trkpt lat="43.1368" lon="-0.01964">
        <ele>489.3</ele>
        <time>2020-09-12T20:23:19Z</time>
      </trkpt>
      <trkpt lat="43.1368" lon="-0.01968">
        <ele>489.3</ele>
        <time>2020-09-12T20:23:21Z</time>
      </trkpt>
      <trkpt lat="43.13678" lon="-0.0197">
        <ele>490.3</ele>
        <time>2020-09-12T20:23:31Z</time>
      </trkpt>
      <trkpt lat="43.13668" lon="-0.01985">
        <ele>494.1</ele>
        <time>2020-09-12T20:23:55Z</time>
      </trkpt>
      <trkpt lat="43.13666" lon="-0.01989">
        <ele>494.7</ele>
        <time>2020-09-12T20:23:58Z</time>
      </trkpt>
      <trkpt lat="43.13666" lon="-0.01992">
        <ele>495.2</ele>
        <time>2020-09-12T20:24:06Z</time>
      </trkpt>
      <trkpt lat="43.13667" lon="-0.01998">
        <ele>495.3</ele>
        <time>2020-09-12T20:24:08Z</time>
      </trkpt>
      <trkpt lat="43.13668" lon="-0.02002">
        <ele>495.3</ele>
        <time>2020-09-12T20:24:10Z</time>
      </trkpt>
      <trkpt lat="43.13672" lon="-0.02004">
        <ele>496</ele>
        <time>2020-09-12T20:24:13Z</time>
      </trkpt>
      <trkpt lat="43.13673" lon="-0.02009">
        <ele>496.8</ele>
        <time>2020-09-12T20:24:16Z</time>
      </trkpt>
      <trkpt lat="43.13671" lon="-0.02013">
        <ele>497</ele>
        <time>2020-09-12T20:24:18Z</time>
      </trkpt>
      <trkpt lat="43.13669" lon="-0.02017">
        <ele>497.1</ele>
        <time>2020-09-12T20:24:20Z</time>
      </trkpt>
      <trkpt lat="43.13666" lon="-0.02018">
        <ele>498.3</ele>
        <time>2020-09-12T20:24:29Z</time>
      </trkpt>
      <trkpt lat="43.13665" lon="-0.02022">
        <ele>498.7</ele>
        <time>2020-09-12T20:24:34Z</time>
      </trkpt>
      <trkpt lat="43.13668" lon="-0.02026">
        <ele>498.8</ele>
        <time>2020-09-12T20:24:36Z</time>
      </trkpt>
      <trkpt lat="43.1367" lon="-0.0203">
        <ele>499.5</ele>
        <time>2020-09-12T20:24:38Z</time>
      </trkpt>
      <trkpt lat="43.13672" lon="-0.02034">
        <ele>499.3</ele>
        <time>2020-09-12T20:24:40Z</time>
      </trkpt>
      <trkpt lat="43.13673" lon="-0.02038">
        <ele>499.7</ele>
        <time>2020-09-12T20:24:42Z</time>
      </trkpt>
      <trkpt lat="43.13674" lon="-0.02042">
        <ele>500.2</ele>
        <time>2020-09-12T20:24:44Z</time>
      </trkpt>
      <trkpt lat="43.13673" lon="-0.02048">
        <ele>500.5</ele>
        <time>2020-09-12T20:24:46Z</time>
      </trkpt>
      <trkpt lat="43.13671" lon="-0.02052">
        <ele>500.6</ele>
        <time>2020-09-12T20:24:48Z</time>
      </trkpt>
      <trkpt lat="43.13669" lon="-0.02056">
        <ele>500.7</ele>
        <time>2020-09-12T20:24:50Z</time>
      </trkpt>
      <trkpt lat="43.13667" lon="-0.02059">
        <ele>500.9</ele>
        <time>2020-09-12T20:24:52Z</time>
      </trkpt>
      <trkpt lat="43.13664" lon="-0.02061">
        <ele>501.1</ele>
        <time>2020-09-12T20:24:54Z</time>
      </trkpt>
      <trkpt lat="43.13662" lon="-0.02063">
        <ele>501.2</ele>
        <time>2020-09-12T20:24:56Z</time>
      </trkpt>
      <trkpt lat="43.1366" lon="-0.02067">
        <ele>501.2</ele>
        <time>2020-09-12T20:24:58Z</time>
      </trkpt>
      <trkpt lat="43.13658" lon="-0.0207">
        <ele>501.4</ele>
        <time>2020-09-12T20:25:01Z</time>
      </trkpt>
      <trkpt lat="43.13659" lon="-0.02065">
        <ele>502.3</ele>
        <time>2020-09-12T20:25:06Z</time>
      </trkpt>
      <trkpt lat="43.13654" lon="-0.02067">
        <ele>505.2</ele>
        <time>2020-09-12T20:26:45Z</time>
      </trkpt>
      <trkpt lat="43.13652" lon="-0.02069">
        <ele>505.1</ele>
        <time>2020-09-12T20:26:47Z</time>
      </trkpt>
      <trkpt lat="43.1365" lon="-0.02073">
        <ele>504.8</ele>
        <time>2020-09-12T20:26:49Z</time>
      </trkpt>
      <trkpt lat="43.13647" lon="-0.02074">
        <ele>504.6</ele>
        <time>2020-09-12T20:26:51Z</time>
      </trkpt>
      <trkpt lat="43.13643" lon="-0.02074">
        <ele>504.7</ele>
        <time>2020-09-12T20:26:53Z</time>
      </trkpt>
      <trkpt lat="43.13639" lon="-0.02074">
        <ele>504.5</ele>
        <time>2020-09-12T20:26:56Z</time>
      </trkpt>
      <trkpt lat="43.13637" lon="-0.02068">
        <ele>505.1</ele>
        <time>2020-09-12T20:26:59Z</time>
      </trkpt>
      <trkpt lat="43.13635" lon="-0.02063">
        <ele>505.3</ele>
        <time>2020-09-12T20:27:01Z</time>
      </trkpt>
      <trkpt lat="43.13634" lon="-0.02058">
        <ele>505.6</ele>
        <time>2020-09-12T20:27:03Z</time>
      </trkpt>
      <trkpt lat="43.13632" lon="-0.02052">
        <ele>506</ele>
        <time>2020-09-12T20:27:05Z</time>
      </trkpt>
      <trkpt lat="43.1363" lon="-0.02046">
        <ele>506.3</ele>
        <time>2020-09-12T20:27:07Z</time>
      </trkpt>
      <trkpt lat="43.13629" lon="-0.0204">
        <ele>506.6</ele>
        <time>2020-09-12T20:27:09Z</time>
      </trkpt>
      <trkpt lat="43.13628" lon="-0.02036">
        <ele>506.8</ele>
        <time>2020-09-12T20:27:10Z</time>
      </trkpt>
      <trkpt lat="43.13627" lon="-0.02032">
        <ele>507</ele>
        <time>2020-09-12T20:27:11Z</time>
      </trkpt>
      <trkpt lat="43.13626" lon="-0.02028">
        <ele>507.1</ele>
        <time>2020-09-12T20:27:12Z</time>
      </trkpt>
      <trkpt lat="43.13625" lon="-0.02025">
        <ele>507.3</ele>
        <time>2020-09-12T20:27:13Z</time>
      </trkpt>
      <trkpt lat="43.13624" lon="-0.02021">
        <ele>507.5</ele>
        <time>2020-09-12T20:27:14Z</time>
      </trkpt>
      <trkpt lat="43.13623" lon="-0.02017">
        <ele>507.6</ele>
        <time>2020-09-12T20:27:15Z</time>
      </trkpt>
      <trkpt lat="43.13622" lon="-0.02014">
        <ele>507.8</ele>
        <time>2020-09-12T20:27:16Z</time>
      </trkpt>
      <trkpt lat="43.13621" lon="-0.0201">
        <ele>507.9</ele>
        <time>2020-09-12T20:27:17Z</time>
      </trkpt>
      <trkpt lat="43.1362" lon="-0.02006">
        <ele>508.1</ele>
        <time>2020-09-12T20:27:18Z</time>
      </trkpt>
      <trkpt lat="43.1362" lon="-0.02002">
        <ele>508.3</ele>
        <time>2020-09-12T20:27:19Z</time>
      </trkpt>
      <trkpt lat="43.13619" lon="-0.01999">
        <ele>508.5</ele>
        <time>2020-09-12T20:27:20Z</time>
      </trkpt>
      <trkpt lat="43.13618" lon="-0.01995">
        <ele>508.6</ele>
        <time>2020-09-12T20:27:21Z</time>
      </trkpt>
      <trkpt lat="43.13617" lon="-0.01991">
        <ele>508.8</ele>
        <time>2020-09-12T20:27:22Z</time>
      </trkpt>
      <trkpt lat="43.13616" lon="-0.01987">
        <ele>509.1</ele>
        <time>2020-09-12T20:27:23Z</time>
      </trkpt>
      <trkpt lat="43.13615" lon="-0.01984">
        <ele>509.3</ele>
        <time>2020-09-12T20:27:24Z</time>
      </trkpt>
      <trkpt lat="43.13613" lon="-0.01977">
        <ele>509.7</ele>
        <time>2020-09-12T20:27:26Z</time>
      </trkpt>
      <trkpt lat="43.13611" lon="-0.01971">
        <ele>510</ele>
        <time>2020-09-12T20:27:28Z</time>
      </trkpt>
      <trkpt lat="43.1361" lon="-0.01967">
        <ele>510.1</ele>
        <time>2020-09-12T20:27:29Z</time>
      </trkpt>
      <trkpt lat="43.13609" lon="-0.01963">
        <ele>510.2</ele>
        <time>2020-09-12T20:27:30Z</time>
      </trkpt>
      <trkpt lat="43.13608" lon="-0.0196">
        <ele>510.4</ele>
        <time>2020-09-12T20:27:31Z</time>
      </trkpt>
      <trkpt lat="43.13607" lon="-0.01956">
        <ele>510.5</ele>
        <time>2020-09-12T20:27:32Z</time>
      </trkpt>
      <trkpt lat="43.13606" lon="-0.01952">
        <ele>510.6</ele>
        <time>2020-09-12T20:27:33Z</time>
      </trkpt>
      <trkpt lat="43.13605" lon="-0.01948">
        <ele>510.7</ele>
        <time>2020-09-12T20:27:34Z</time>
      </trkpt>
      <trkpt lat="43.13604" lon="-0.01944">
        <ele>510.8</ele>
        <time>2020-09-12T20:27:35Z</time>
      </trkpt>
      <trkpt lat="43.13603" lon="-0.0194">
        <ele>510.9</ele>
        <time>2020-09-12T20:27:36Z</time>
      </trkpt>
      <trkpt lat="43.13602" lon="-0.01936">
        <ele>511</ele>
        <time>2020-09-12T20:27:37Z</time>
      </trkpt>
      <trkpt lat="43.13601" lon="-0.01932">
        <ele>511.1</ele>
        <time>2020-09-12T20:27:38Z</time>
      </trkpt>
      <trkpt lat="43.136" lon="-0.01928">
        <ele>511.1</ele>
        <time>2020-09-12T20:27:39Z</time>
      </trkpt>
      <trkpt lat="43.13599" lon="-0.01924">
        <ele>511.2</ele>
        <time>2020-09-12T20:27:40Z</time>
      </trkpt>
      <trkpt lat="43.13597" lon="-0.01919">
        <ele>511.3</ele>
        <time>2020-09-12T20:27:41Z</time>
      </trkpt>
      <trkpt lat="43.13596" lon="-0.01914">
        <ele>511.4</ele>
        <time>2020-09-12T20:27:42Z</time>
      </trkpt>
      <trkpt lat="43.13595" lon="-0.0191">
        <ele>511.4</ele>
        <time>2020-09-12T20:27:43Z</time>
      </trkpt>
      <trkpt lat="43.13594" lon="-0.01905">
        <ele>511.5</ele>
        <time>2020-09-12T20:27:44Z</time>
      </trkpt>
      <trkpt lat="43.13593" lon="-0.019">
        <ele>511.6</ele>
        <time>2020-09-12T20:27:45Z</time>
      </trkpt>
      <trkpt lat="43.13592" lon="-0.01895">
        <ele>511.7</ele>
        <time>2020-09-12T20:27:46Z</time>
      </trkpt>
      <trkpt lat="43.13591" lon="-0.0189">
        <ele>511.8</ele>
        <time>2020-09-12T20:27:47Z</time>
      </trkpt>
      <trkpt lat="43.13589" lon="-0.01884">
        <ele>511.9</ele>
        <time>2020-09-12T20:27:48Z</time>
      </trkpt>
      <trkpt lat="43.13587" lon="-0.01879">
        <ele>512</ele>
        <time>2020-09-12T20:27:49Z</time>
      </trkpt>
      <trkpt lat="43.13585" lon="-0.01872">
        <ele>512.2</ele>
        <time>2020-09-12T20:27:50Z</time>
      </trkpt>
      <trkpt lat="43.13583" lon="-0.01866">
        <ele>512.3</ele>
        <time>2020-09-12T20:27:51Z</time>
      </trkpt>
      <trkpt lat="43.13581" lon="-0.01861">
        <ele>512.4</ele>
        <time>2020-09-12T20:27:52Z</time>
      </trkpt>
      <trkpt lat="43.13578" lon="-0.01857">
        <ele>512.6</ele>
        <time>2020-09-12T20:27:53Z</time>
      </trkpt>
      <trkpt lat="43.13574" lon="-0.01854">
        <ele>512.7</ele>
        <time>2020-09-12T20:27:54Z</time>
      </trkpt>
      <trkpt lat="43.1357" lon="-0.01853">
        <ele>512.9</ele>
        <time>2020-09-12T20:27:55Z</time>
      </trkpt>
      <trkpt lat="43.13566" lon="-0.01852">
        <ele>513</ele>
        <time>2020-09-12T20:27:56Z</time>
      </trkpt>
      <trkpt lat="43.13563" lon="-0.01851">
        <ele>513.1</ele>
        <time>2020-09-12T20:27:57Z</time>
      </trkpt>
      <trkpt lat="43.13559" lon="-0.01851">
        <ele>513.3</ele>
        <time>2020-09-12T20:27:58Z</time>
      </trkpt>
      <trkpt lat="43.13555" lon="-0.01852">
        <ele>513.4</ele>
        <time>2020-09-12T20:27:59Z</time>
      </trkpt>
      <trkpt lat="43.13551" lon="-0.01853">
        <ele>513.6</ele>
        <time>2020-09-12T20:28:00Z</time>
      </trkpt>
      <trkpt lat="43.13548" lon="-0.01854">
        <ele>513.7</ele>
        <time>2020-09-12T20:28:01Z</time>
      </trkpt>
      <trkpt lat="43.13545" lon="-0.01856">
        <ele>513.9</ele>
        <time>2020-09-12T20:28:02Z</time>
      </trkpt>
      <trkpt lat="43.13541" lon="-0.01857">
        <ele>514</ele>
        <time>2020-09-12T20:28:03Z</time>
      </trkpt>
      <trkpt lat="43.13537" lon="-0.01859">
        <ele>514.2</ele>
        <time>2020-09-12T20:28:04Z</time>
      </trkpt>
      <trkpt lat="43.13533" lon="-0.0186">
        <ele>514.5</ele>
        <time>2020-09-12T20:28:05Z</time>
      </trkpt>
      <trkpt lat="43.13529" lon="-0.01862">
        <ele>514.7</ele>
        <time>2020-09-12T20:28:06Z</time>
      </trkpt>
      <trkpt lat="43.13526" lon="-0.01864">
        <ele>514.9</ele>
        <time>2020-09-12T20:28:07Z</time>
      </trkpt>
      <trkpt lat="43.13522" lon="-0.01865">
        <ele>515.2</ele>
        <time>2020-09-12T20:28:08Z</time>
      </trkpt>
      <trkpt lat="43.13519" lon="-0.01867">
        <ele>515.4</ele>
        <time>2020-09-12T20:28:09Z</time>
      </trkpt>
      <trkpt lat="43.13515" lon="-0.01868">
        <ele>515.7</ele>
        <time>2020-09-12T20:28:10Z</time>
      </trkpt>
      <trkpt lat="43.13512" lon="-0.01869">
        <ele>515.8</ele>
        <time>2020-09-12T20:28:11Z</time>
      </trkpt>
      <trkpt lat="43.13508" lon="-0.01871">
        <ele>516</ele>
        <time>2020-09-12T20:28:12Z</time>
      </trkpt>
      <trkpt lat="43.13505" lon="-0.01872">
        <ele>516.2</ele>
        <time>2020-09-12T20:28:13Z</time>
      </trkpt>
      <trkpt lat="43.13501" lon="-0.01874">
        <ele>516.3</ele>
        <time>2020-09-12T20:28:14Z</time>
      </trkpt>
      <trkpt lat="43.13498" lon="-0.01875">
        <ele>516.5</ele>
        <time>2020-09-12T20:28:15Z</time>
      </trkpt>
      <trkpt lat="43.13493" lon="-0.01878">
        <ele>516.7</ele>
        <time>2020-09-12T20:28:17Z</time>
      </trkpt>
      <trkpt lat="43.1349" lon="-0.01879">
        <ele>516.9</ele>
        <time>2020-09-12T20:28:18Z</time>
      </trkpt>
      <trkpt lat="43.13486" lon="-0.0188">
        <ele>517.1</ele>
        <time>2020-09-12T20:28:19Z</time>
      </trkpt>
      <trkpt lat="43.13483" lon="-0.01882">
        <ele>517.2</ele>
        <time>2020-09-12T20:28:20Z</time>
      </trkpt>
      <trkpt lat="43.13479" lon="-0.01884">
        <ele>517.4</ele>
        <time>2020-09-12T20:28:21Z</time>
      </trkpt>
      <trkpt lat="43.13475" lon="-0.01886">
        <ele>517.6</ele>
        <time>2020-09-12T20:28:22Z</time>
      </trkpt>
      <trkpt lat="43.13472" lon="-0.01887">
        <ele>517.8</ele>
        <time>2020-09-12T20:28:23Z</time>
      </trkpt>
      <trkpt lat="43.13468" lon="-0.01889">
        <ele>518</ele>
        <time>2020-09-12T20:28:24Z</time>
      </trkpt>
      <trkpt lat="43.13464" lon="-0.0189">
        <ele>518.2</ele>
        <time>2020-09-12T20:28:25Z</time>
      </trkpt>
      <trkpt lat="43.13461" lon="-0.01892">
        <ele>518.4</ele>
        <time>2020-09-12T20:28:26Z</time>
      </trkpt>
      <trkpt lat="43.13456" lon="-0.01894">
        <ele>518.7</ele>
        <time>2020-09-12T20:28:28Z</time>
      </trkpt>
      <trkpt lat="43.13453" lon="-0.01895">
        <ele>518.9</ele>
        <time>2020-09-12T20:28:29Z</time>
      </trkpt>
      <trkpt lat="43.13451" lon="-0.01896">
        <ele>519</ele>
        <time>2020-09-12T20:28:30Z</time>
      </trkpt>
      <trkpt lat="43.13447" lon="-0.01897">
        <ele>519.3</ele>
        <time>2020-09-12T20:28:31Z</time>
      </trkpt>
      <trkpt lat="43.13443" lon="-0.01899">
        <ele>519.7</ele>
        <time>2020-09-12T20:28:33Z</time>
      </trkpt>
      <trkpt lat="43.13438" lon="-0.01901">
        <ele>520.2</ele>
        <time>2020-09-12T20:28:35Z</time>
      </trkpt>
      <trkpt lat="43.13435" lon="-0.01902">
        <ele>520.6</ele>
        <time>2020-09-12T20:28:37Z</time>
      </trkpt>
      <trkpt lat="43.13431" lon="-0.01902">
        <ele>521</ele>
        <time>2020-09-12T20:28:39Z</time>
      </trkpt>
      <trkpt lat="43.13426" lon="-0.01903">
        <ele>521.6</ele>
        <time>2020-09-12T20:28:41Z</time>
      </trkpt>
      <trkpt lat="43.13423" lon="-0.01905">
        <ele>522.1</ele>
        <time>2020-09-12T20:28:43Z</time>
      </trkpt>
      <trkpt lat="43.13418" lon="-0.01905">
        <ele>522.6</ele>
        <time>2020-09-12T20:28:45Z</time>
      </trkpt>
      <trkpt lat="43.13415" lon="-0.01907">
        <ele>523.1</ele>
        <time>2020-09-12T20:28:47Z</time>
      </trkpt>
      <trkpt lat="43.13412" lon="-0.0191">
        <ele>523.5</ele>
        <time>2020-09-12T20:28:49Z</time>
      </trkpt>
      <trkpt lat="43.13411" lon="-0.01914">
        <ele>523.9</ele>
        <time>2020-09-12T20:28:51Z</time>
      </trkpt>
      <trkpt lat="43.13413" lon="-0.01919">
        <ele>524.3</ele>
        <time>2020-09-12T20:28:53Z</time>
      </trkpt>
      <trkpt lat="43.13416" lon="-0.01925">
        <ele>525.5</ele>
        <time>2020-09-12T20:28:55Z</time>
      </trkpt>
      <trkpt lat="43.13417" lon="-0.01929">
        <ele>525.1</ele>
        <time>2020-09-12T20:28:56Z</time>
      </trkpt>
      <trkpt lat="43.13419" lon="-0.01933">
        <ele>524.7</ele>
        <time>2020-09-12T20:28:57Z</time>
      </trkpt>
      <trkpt lat="43.13421" lon="-0.01938">
        <ele>524.2</ele>
        <time>2020-09-12T20:28:58Z</time>
      </trkpt>
      <trkpt lat="43.13423" lon="-0.01942">
        <ele>523.7</ele>
        <time>2020-09-12T20:28:59Z</time>
      </trkpt>
      <trkpt lat="43.13424" lon="-0.01947">
        <ele>523.2</ele>
        <time>2020-09-12T20:29:00Z</time>
      </trkpt>
      <trkpt lat="43.13426" lon="-0.01952">
        <ele>522.8</ele>
        <time>2020-09-12T20:29:01Z</time>
      </trkpt>
      <trkpt lat="43.13428" lon="-0.01958">
        <ele>522.3</ele>
        <time>2020-09-12T20:29:02Z</time>
      </trkpt>
      <trkpt lat="43.1343" lon="-0.01964">
        <ele>521.8</ele>
        <time>2020-09-12T20:29:03Z</time>
      </trkpt>
      <trkpt lat="43.13432" lon="-0.0197">
        <ele>521.2</ele>
        <time>2020-09-12T20:29:04Z</time>
      </trkpt>
      <trkpt lat="43.13434" lon="-0.01976">
        <ele>520.6</ele>
        <time>2020-09-12T20:29:05Z</time>
      </trkpt>
      <trkpt lat="43.13437" lon="-0.01983">
        <ele>519.8</ele>
        <time>2020-09-12T20:29:06Z</time>
      </trkpt>
      <trkpt lat="43.13439" lon="-0.0199">
        <ele>519.1</ele>
        <time>2020-09-12T20:29:07Z</time>
      </trkpt>
      <trkpt lat="43.13442" lon="-0.01997">
        <ele>518.4</ele>
        <time>2020-09-12T20:29:08Z</time>
      </trkpt>
      <trkpt lat="43.13442" lon="-0.02003">
        <ele>517.4</ele>
        <time>2020-09-12T20:29:09Z</time>
      </trkpt>
      <trkpt lat="43.13441" lon="-0.02009">
        <ele>516.4</ele>
        <time>2020-09-12T20:29:10Z</time>
      </trkpt>
      <trkpt lat="43.13438" lon="-0.02015">
        <ele>513</ele>
        <time>2020-09-12T20:29:11Z</time>
      </trkpt>
      <trkpt lat="43.13435" lon="-0.02019">
        <ele>513.4</ele>
        <time>2020-09-12T20:29:12Z</time>
      </trkpt>
      <trkpt lat="43.13432" lon="-0.02022">
        <ele>513.7</ele>
        <time>2020-09-12T20:29:13Z</time>
      </trkpt>
      <trkpt lat="43.13429" lon="-0.02024">
        <ele>514</ele>
        <time>2020-09-12T20:29:14Z</time>
      </trkpt>
      <trkpt lat="43.13427" lon="-0.02026">
        <ele>514.3</ele>
        <time>2020-09-12T20:29:15Z</time>
      </trkpt>
      <trkpt lat="43.13423" lon="-0.02029">
        <ele>514.7</ele>
        <time>2020-09-12T20:29:17Z</time>
      </trkpt>
      <trkpt lat="43.13419" lon="-0.02032">
        <ele>515.1</ele>
        <time>2020-09-12T20:29:19Z</time>
      </trkpt>
      <trkpt lat="43.13414" lon="-0.02036">
        <ele>515.6</ele>
        <time>2020-09-12T20:29:21Z</time>
      </trkpt>
      <trkpt lat="43.13412" lon="-0.02039">
        <ele>515.9</ele>
        <time>2020-09-12T20:29:22Z</time>
      </trkpt>
      <trkpt lat="43.13408" lon="-0.02042">
        <ele>516.3</ele>
        <time>2020-09-12T20:29:24Z</time>
      </trkpt>
      <trkpt lat="43.13405" lon="-0.02046">
        <ele>516.7</ele>
        <time>2020-09-12T20:29:26Z</time>
      </trkpt>
      <trkpt lat="43.13402" lon="-0.02049">
        <ele>517</ele>
        <time>2020-09-12T20:29:28Z</time>
      </trkpt>
      <trkpt lat="43.13399" lon="-0.02052">
        <ele>517.3</ele>
        <time>2020-09-12T20:29:30Z</time>
      </trkpt>
      <trkpt lat="43.13396" lon="-0.02054">
        <ele>517.6</ele>
        <time>2020-09-12T20:29:32Z</time>
      </trkpt>
      <trkpt lat="43.13393" lon="-0.02057">
        <ele>518</ele>
        <time>2020-09-12T20:29:34Z</time>
      </trkpt>
      <trkpt lat="43.1339" lon="-0.02061">
        <ele>518.4</ele>
        <time>2020-09-12T20:29:36Z</time>
      </trkpt>
      <trkpt lat="43.13388" lon="-0.02064">
        <ele>518.7</ele>
        <time>2020-09-12T20:29:38Z</time>
      </trkpt>
      <trkpt lat="43.13386" lon="-0.02068">
        <ele>519.1</ele>
        <time>2020-09-12T20:29:40Z</time>
      </trkpt>
      <trkpt lat="43.13383" lon="-0.02071">
        <ele>519.5</ele>
        <time>2020-09-12T20:29:42Z</time>
      </trkpt>
      <trkpt lat="43.13381" lon="-0.02074">
        <ele>519.8</ele>
        <time>2020-09-12T20:29:44Z</time>
      </trkpt>
      <trkpt lat="43.13379" lon="-0.02077">
        <ele>520.1</ele>
        <time>2020-09-12T20:29:46Z</time>
      </trkpt>
      <trkpt lat="43.13376" lon="-0.0208">
        <ele>520.4</ele>
        <time>2020-09-12T20:29:48Z</time>
      </trkpt>
      <trkpt lat="43.13375" lon="-0.02083">
        <ele>520.8</ele>
        <time>2020-09-12T20:29:50Z</time>
      </trkpt>
      <trkpt lat="43.13373" lon="-0.02087">
        <ele>521.2</ele>
        <time>2020-09-12T20:29:52Z</time>
      </trkpt>
      <trkpt lat="43.13371" lon="-0.02091">
        <ele>521.7</ele>
        <time>2020-09-12T20:29:54Z</time>
      </trkpt>
      <trkpt lat="43.13369" lon="-0.02094">
        <ele>522.1</ele>
        <time>2020-09-12T20:29:56Z</time>
      </trkpt>
      <trkpt lat="43.13367" lon="-0.02098">
        <ele>522.7</ele>
        <time>2020-09-12T20:29:57Z</time>
      </trkpt>
      <trkpt lat="43.13364" lon="-0.02104">
        <ele>523.6</ele>
        <time>2020-09-12T20:29:59Z</time>
      </trkpt>
      <trkpt lat="43.13361" lon="-0.02106">
        <ele>524</ele>
        <time>2020-09-12T20:30:01Z</time>
      </trkpt>
      <trkpt lat="43.13359" lon="-0.02109">
        <ele>524.3</ele>
        <time>2020-09-12T20:30:03Z</time>
      </trkpt>
      <trkpt lat="43.13357" lon="-0.02112">
        <ele>524.7</ele>
        <time>2020-09-12T20:30:05Z</time>
      </trkpt>
      <trkpt lat="43.13355" lon="-0.02115">
        <ele>525.2</ele>
        <time>2020-09-12T20:30:07Z</time>
      </trkpt>
      <trkpt lat="43.13353" lon="-0.02118">
        <ele>525.5</ele>
        <time>2020-09-12T20:30:09Z</time>
      </trkpt>
      <trkpt lat="43.13353" lon="-0.02124">
        <ele>526</ele>
        <time>2020-09-12T20:30:11Z</time>
      </trkpt>
      <trkpt lat="43.13354" lon="-0.02128">
        <ele>527.9</ele>
        <time>2020-09-12T20:30:12Z</time>
      </trkpt>
      <trkpt lat="43.13357" lon="-0.0213">
        <ele>527.8</ele>
        <time>2020-09-12T20:30:13Z</time>
      </trkpt>
      <trkpt lat="43.1336" lon="-0.02132">
        <ele>527.6</ele>
        <time>2020-09-12T20:30:14Z</time>
      </trkpt>
      <trkpt lat="43.13363" lon="-0.02134">
        <ele>527.4</ele>
        <time>2020-09-12T20:30:19Z</time>
      </trkpt>
      <trkpt lat="43.13366" lon="-0.02134">
        <ele>527.3</ele>
        <time>2020-09-12T20:30:22Z</time>
      </trkpt>
      <trkpt lat="43.13369" lon="-0.0213">
        <ele>527.1</ele>
        <time>2020-09-12T20:30:25Z</time>
      </trkpt>
      <trkpt lat="43.13371" lon="-0.02125">
        <ele>526.8</ele>
        <time>2020-09-12T20:30:28Z</time>
      </trkpt>
      <trkpt lat="43.13374" lon="-0.0212">
        <ele>526.6</ele>
        <time>2020-09-12T20:30:30Z</time>
      </trkpt>
      <trkpt lat="43.13377" lon="-0.02118">
        <ele>526.4</ele>
        <time>2020-09-12T20:30:32Z</time>
      </trkpt>
      <trkpt lat="43.1338" lon="-0.02118">
        <ele>526.3</ele>
        <time>2020-09-12T20:30:34Z</time>
      </trkpt>
      <trkpt lat="43.13384" lon="-0.02123">
        <ele>526</ele>
        <time>2020-09-12T20:30:36Z</time>
      </trkpt>
      <trkpt lat="43.13386" lon="-0.02127">
        <ele>525.9</ele>
        <time>2020-09-12T20:30:38Z</time>
      </trkpt>
      <trkpt lat="43.1339" lon="-0.0213">
        <ele>525.6</ele>
        <time>2020-09-12T20:30:40Z</time>
      </trkpt>
      <trkpt lat="43.1339" lon="-0.02134">
        <ele>525.5</ele>
        <time>2020-09-12T20:30:42Z</time>
      </trkpt>
      <trkpt lat="43.1339" lon="-0.0214">
        <ele>525.3</ele>
        <time>2020-09-12T20:30:44Z</time>
      </trkpt>
      <trkpt lat="43.13391" lon="-0.02145">
        <ele>524.8</ele>
        <time>2020-09-12T20:30:47Z</time>
      </trkpt>
      <trkpt lat="43.13393" lon="-0.02147">
        <ele>524.5</ele>
        <time>2020-09-12T20:30:49Z</time>
      </trkpt>
      <trkpt lat="43.13394" lon="-0.02153">
        <ele>523.9</ele>
        <time>2020-09-12T20:30:51Z</time>
      </trkpt>
      <trkpt lat="43.13398" lon="-0.02156">
        <ele>523.4</ele>
        <time>2020-09-12T20:30:53Z</time>
      </trkpt>
      <trkpt lat="43.13398" lon="-0.0216">
        <ele>522.9</ele>
        <time>2020-09-12T20:30:56Z</time>
      </trkpt>
      <trkpt lat="43.134" lon="-0.02166">
        <ele>522.4</ele>
        <time>2020-09-12T20:30:59Z</time>
      </trkpt>
      <trkpt lat="43.13401" lon="-0.02171">
        <ele>521.9</ele>
        <time>2020-09-12T20:31:01Z</time>
      </trkpt>
      <trkpt lat="43.13403" lon="-0.02179">
        <ele>521.3</ele>
        <time>2020-09-12T20:31:03Z</time>
      </trkpt>
      <trkpt lat="43.13405" lon="-0.02183">
        <ele>520.7</ele>
        <time>2020-09-12T20:31:04Z</time>
      </trkpt>
      <trkpt lat="43.13407" lon="-0.02186">
        <ele>520.3</ele>
        <time>2020-09-12T20:31:05Z</time>
      </trkpt>
      <trkpt lat="43.13411" lon="-0.02188">
        <ele>519.7</ele>
        <time>2020-09-12T20:31:06Z</time>
      </trkpt>
      <trkpt lat="43.13414" lon="-0.02195">
        <ele>518.6</ele>
        <time>2020-09-12T20:31:08Z</time>
      </trkpt>
      <trkpt lat="43.13415" lon="-0.022">
        <ele>517.9</ele>
        <time>2020-09-12T20:31:09Z</time>
      </trkpt>
      <trkpt lat="43.13418" lon="-0.02205">
        <ele>516.9</ele>
        <time>2020-09-12T20:31:10Z</time>
      </trkpt>
      <trkpt lat="43.13421" lon="-0.02208">
        <ele>516.1</ele>
        <time>2020-09-12T20:31:11Z</time>
      </trkpt>
      <trkpt lat="43.13424" lon="-0.02212">
        <ele>515.3</ele>
        <time>2020-09-12T20:31:12Z</time>
      </trkpt>
      <trkpt lat="43.13427" lon="-0.0222">
        <ele>513.9</ele>
        <time>2020-09-12T20:31:13Z</time>
      </trkpt>
      <trkpt lat="43.1343" lon="-0.02227">
        <ele>511.9</ele>
        <time>2020-09-12T20:31:14Z</time>
      </trkpt>
      <trkpt lat="43.13433" lon="-0.02231">
        <ele>511.3</ele>
        <time>2020-09-12T20:31:15Z</time>
      </trkpt>
      <trkpt lat="43.13435" lon="-0.02234">
        <ele>510.9</ele>
        <time>2020-09-12T20:31:16Z</time>
      </trkpt>
      <trkpt lat="43.13437" lon="-0.02237">
        <ele>510.6</ele>
        <time>2020-09-12T20:31:17Z</time>
      </trkpt>
      <trkpt lat="43.13439" lon="-0.02239">
        <ele>510.2</ele>
        <time>2020-09-12T20:31:18Z</time>
      </trkpt>
      <trkpt lat="43.13444" lon="-0.02243">
        <ele>509.5</ele>
        <time>2020-09-12T20:31:20Z</time>
      </trkpt>
      <trkpt lat="43.13446" lon="-0.02247">
        <ele>509</ele>
        <time>2020-09-12T20:31:21Z</time>
      </trkpt>
      <trkpt lat="43.13448" lon="-0.0225">
        <ele>507.7</ele>
        <time>2020-09-12T20:31:22Z</time>
      </trkpt>
      <trkpt lat="43.13451" lon="-0.02254">
        <ele>507</ele>
        <time>2020-09-12T20:31:23Z</time>
      </trkpt>
      <trkpt lat="43.13454" lon="-0.02259">
        <ele>506.3</ele>
        <time>2020-09-12T20:31:24Z</time>
      </trkpt>
      <trkpt lat="43.13456" lon="-0.02264">
        <ele>505.7</ele>
        <time>2020-09-12T20:31:25Z</time>
      </trkpt>
      <trkpt lat="43.13459" lon="-0.02269">
        <ele>505.1</ele>
        <time>2020-09-12T20:31:26Z</time>
      </trkpt>
      <trkpt lat="43.13462" lon="-0.02275">
        <ele>504.3</ele>
        <time>2020-09-12T20:31:27Z</time>
      </trkpt>
      <trkpt lat="43.13465" lon="-0.0228">
        <ele>503.3</ele>
        <time>2020-09-12T20:31:28Z</time>
      </trkpt>
      <trkpt lat="43.13469" lon="-0.02284">
        <ele>502.5</ele>
        <time>2020-09-12T20:31:29Z</time>
      </trkpt>
      <trkpt lat="43.13473" lon="-0.02287">
        <ele>501.8</ele>
        <time>2020-09-12T20:31:30Z</time>
      </trkpt>
      <trkpt lat="43.13476" lon="-0.02291">
        <ele>501.1</ele>
        <time>2020-09-12T20:31:31Z</time>
      </trkpt>
      <trkpt lat="43.13479" lon="-0.02293">
        <ele>500.6</ele>
        <time>2020-09-12T20:31:32Z</time>
      </trkpt>
      <trkpt lat="43.13482" lon="-0.02297">
        <ele>500</ele>
        <time>2020-09-12T20:31:33Z</time>
      </trkpt>
      <trkpt lat="43.13484" lon="-0.02301">
        <ele>499.5</ele>
        <time>2020-09-12T20:31:34Z</time>
      </trkpt>
      <trkpt lat="43.13486" lon="-0.02304">
        <ele>499.1</ele>
        <time>2020-09-12T20:31:35Z</time>
      </trkpt>
      <trkpt lat="43.13489" lon="-0.02306">
        <ele>498.7</ele>
        <time>2020-09-12T20:31:36Z</time>
      </trkpt>
      <trkpt lat="43.13492" lon="-0.02312">
        <ele>497.8</ele>
        <time>2020-09-12T20:31:38Z</time>
      </trkpt>
      <trkpt lat="43.13494" lon="-0.02317">
        <ele>496.8</ele>
        <time>2020-09-12T20:31:40Z</time>
      </trkpt>
      <trkpt lat="43.13497" lon="-0.0232">
        <ele>494.3</ele>
        <time>2020-09-12T20:31:41Z</time>
      </trkpt>
      <trkpt lat="43.13501" lon="-0.02326">
        <ele>493.2</ele>
        <time>2020-09-12T20:31:43Z</time>
      </trkpt>
      <trkpt lat="43.13504" lon="-0.02329">
        <ele>492.5</ele>
        <time>2020-09-12T20:31:44Z</time>
      </trkpt>
      <trkpt lat="43.13507" lon="-0.02333">
        <ele>492.1</ele>
        <time>2020-09-12T20:31:45Z</time>
      </trkpt>
      <trkpt lat="43.1351" lon="-0.02334">
        <ele>491.8</ele>
        <time>2020-09-12T20:31:46Z</time>
      </trkpt>
      <trkpt lat="43.13512" lon="-0.02337">
        <ele>491.6</ele>
        <time>2020-09-12T20:31:47Z</time>
      </trkpt>
      <trkpt lat="43.13514" lon="-0.0234">
        <ele>491.2</ele>
        <time>2020-09-12T20:31:48Z</time>
      </trkpt>
      <trkpt lat="43.13516" lon="-0.02343">
        <ele>490.8</ele>
        <time>2020-09-12T20:31:49Z</time>
      </trkpt>
      <trkpt lat="43.13519" lon="-0.02347">
        <ele>490.2</ele>
        <time>2020-09-12T20:31:51Z</time>
      </trkpt>
      <trkpt lat="43.13522" lon="-0.02352">
        <ele>489.5</ele>
        <time>2020-09-12T20:31:53Z</time>
      </trkpt>
      <trkpt lat="43.13525" lon="-0.02355">
        <ele>488.9</ele>
        <time>2020-09-12T20:31:54Z</time>
      </trkpt>
      <trkpt lat="43.13527" lon="-0.02358">
        <ele>488.4</ele>
        <time>2020-09-12T20:31:55Z</time>
      </trkpt>
      <trkpt lat="43.13531" lon="-0.02362">
        <ele>487.7</ele>
        <time>2020-09-12T20:31:56Z</time>
      </trkpt>
      <trkpt lat="43.13534" lon="-0.02367">
        <ele>487.2</ele>
        <time>2020-09-12T20:31:57Z</time>
      </trkpt>
      <trkpt lat="43.13537" lon="-0.0237">
        <ele>486.6</ele>
        <time>2020-09-12T20:31:58Z</time>
      </trkpt>
      <trkpt lat="43.13541" lon="-0.02373">
        <ele>486.1</ele>
        <time>2020-09-12T20:31:59Z</time>
      </trkpt>
      <trkpt lat="43.13545" lon="-0.02374">
        <ele>485.6</ele>
        <time>2020-09-12T20:32:00Z</time>
      </trkpt>
      <trkpt lat="43.13548" lon="-0.02376">
        <ele>485.1</ele>
        <time>2020-09-12T20:32:01Z</time>
      </trkpt>
      <trkpt lat="43.13551" lon="-0.02379">
        <ele>484.7</ele>
        <time>2020-09-12T20:32:02Z</time>
      </trkpt>
      <trkpt lat="43.13553" lon="-0.02383">
        <ele>484.2</ele>
        <time>2020-09-12T20:32:03Z</time>
      </trkpt>
      <trkpt lat="43.13556" lon="-0.02386">
        <ele>483.7</ele>
        <time>2020-09-12T20:32:04Z</time>
      </trkpt>
      <trkpt lat="43.1356" lon="-0.02388">
        <ele>483.1</ele>
        <time>2020-09-12T20:32:05Z</time>
      </trkpt>
      <trkpt lat="43.13564" lon="-0.02391">
        <ele>482.6</ele>
        <time>2020-09-12T20:32:07Z</time>
      </trkpt>
      <trkpt lat="43.13567" lon="-0.02393">
        <ele>482.3</ele>
        <time>2020-09-12T20:32:08Z</time>
      </trkpt>
      <trkpt lat="43.13569" lon="-0.02396">
        <ele>481.6</ele>
        <time>2020-09-12T20:32:09Z</time>
      </trkpt>
      <trkpt lat="43.13574" lon="-0.02398">
        <ele>480.9</ele>
        <time>2020-09-12T20:32:10Z</time>
      </trkpt>
      <trkpt lat="43.13577" lon="-0.02401">
        <ele>480.3</ele>
        <time>2020-09-12T20:32:11Z</time>
      </trkpt>
      <trkpt lat="43.13581" lon="-0.02403">
        <ele>479.9</ele>
        <time>2020-09-12T20:32:12Z</time>
      </trkpt>
      <trkpt lat="43.13584" lon="-0.02405">
        <ele>479.5</ele>
        <time>2020-09-12T20:32:13Z</time>
      </trkpt>
      <trkpt lat="43.13588" lon="-0.02408">
        <ele>479.1</ele>
        <time>2020-09-12T20:32:14Z</time>
      </trkpt>
      <trkpt lat="43.13591" lon="-0.0241">
        <ele>478.7</ele>
        <time>2020-09-12T20:32:15Z</time>
      </trkpt>
      <trkpt lat="43.13594" lon="-0.02415">
        <ele>478.2</ele>
        <time>2020-09-12T20:32:16Z</time>
      </trkpt>
      <trkpt lat="43.13597" lon="-0.0242">
        <ele>477.7</ele>
        <time>2020-09-12T20:32:17Z</time>
      </trkpt>
      <trkpt lat="43.13601" lon="-0.02428">
        <ele>476.8</ele>
        <time>2020-09-12T20:32:18Z</time>
      </trkpt>
      <trkpt lat="43.13603" lon="-0.02435">
        <ele>476.3</ele>
        <time>2020-09-12T20:32:19Z</time>
      </trkpt>
      <trkpt lat="43.13606" lon="-0.02441">
        <ele>475.7</ele>
        <time>2020-09-12T20:32:20Z</time>
      </trkpt>
      <trkpt lat="43.13609" lon="-0.02447">
        <ele>475.1</ele>
        <time>2020-09-12T20:32:21Z</time>
      </trkpt>
      <trkpt lat="43.13611" lon="-0.02452">
        <ele>474.6</ele>
        <time>2020-09-12T20:32:22Z</time>
      </trkpt>
      <trkpt lat="43.13614" lon="-0.02457">
        <ele>474</ele>
        <time>2020-09-12T20:32:24Z</time>
      </trkpt>
      <trkpt lat="43.13619" lon="-0.02458">
        <ele>474</ele>
        <time>2020-09-12T20:32:27Z</time>
      </trkpt>
      <trkpt lat="43.13621" lon="-0.02462">
        <ele>474</ele>
        <time>2020-09-12T20:32:28Z</time>
      </trkpt>
      <trkpt lat="43.13622" lon="-0.02466">
        <ele>474</ele>
        <time>2020-09-12T20:32:29Z</time>
      </trkpt>
      <trkpt lat="43.13622" lon="-0.0247">
        <ele>473.7</ele>
        <time>2020-09-12T20:32:30Z</time>
      </trkpt>
      <trkpt lat="43.13623" lon="-0.02475">
        <ele>473.1</ele>
        <time>2020-09-12T20:32:31Z</time>
      </trkpt>
      <trkpt lat="43.13623" lon="-0.02479">
        <ele>472.7</ele>
        <time>2020-09-12T20:32:32Z</time>
      </trkpt>
      <trkpt lat="43.13623" lon="-0.02483">
        <ele>472.3</ele>
        <time>2020-09-12T20:32:33Z</time>
      </trkpt>
      <trkpt lat="43.13621" lon="-0.02487">
        <ele>471.8</ele>
        <time>2020-09-12T20:32:35Z</time>
      </trkpt>
      <trkpt lat="43.13618" lon="-0.02489">
        <ele>471.3</ele>
        <time>2020-09-12T20:32:37Z</time>
      </trkpt>
      <trkpt lat="43.13612" lon="-0.02489">
        <ele>470.3</ele>
        <time>2020-09-12T20:32:39Z</time>
      </trkpt>
      <trkpt lat="43.13609" lon="-0.0249">
        <ele>469.7</ele>
        <time>2020-09-12T20:32:40Z</time>
      </trkpt>
      <trkpt lat="43.13604" lon="-0.02489">
        <ele>469.1</ele>
        <time>2020-09-12T20:32:41Z</time>
      </trkpt>
      <trkpt lat="43.136" lon="-0.02489">
        <ele>469.4</ele>
        <time>2020-09-12T20:32:42Z</time>
      </trkpt>
      <trkpt lat="43.13597" lon="-0.02488">
        <ele>469.6</ele>
        <time>2020-09-12T20:32:43Z</time>
      </trkpt>
      <trkpt lat="43.13594" lon="-0.02488">
        <ele>469.8</ele>
        <time>2020-09-12T20:32:44Z</time>
      </trkpt>
      <trkpt lat="43.1359" lon="-0.02488">
        <ele>470</ele>
        <time>2020-09-12T20:32:45Z</time>
      </trkpt>
      <trkpt lat="43.13587" lon="-0.02488">
        <ele>470.1</ele>
        <time>2020-09-12T20:32:46Z</time>
      </trkpt>
      <trkpt lat="43.13584" lon="-0.02489">
        <ele>470.3</ele>
        <time>2020-09-12T20:32:47Z</time>
      </trkpt>
      <trkpt lat="43.13579" lon="-0.02491">
        <ele>470.4</ele>
        <time>2020-09-12T20:32:48Z</time>
      </trkpt>
      <trkpt lat="43.13575" lon="-0.02493">
        <ele>470.5</ele>
        <time>2020-09-12T20:32:49Z</time>
      </trkpt>
      <trkpt lat="43.1357" lon="-0.02494">
        <ele>470</ele>
        <time>2020-09-12T20:32:50Z</time>
      </trkpt>
      <trkpt lat="43.13565" lon="-0.02496">
        <ele>469.8</ele>
        <time>2020-09-12T20:32:51Z</time>
      </trkpt>
      <trkpt lat="43.1356" lon="-0.02498">
        <ele>469.9</ele>
        <time>2020-09-12T20:32:52Z</time>
      </trkpt>
      <trkpt lat="43.13557" lon="-0.025">
        <ele>469.5</ele>
        <time>2020-09-12T20:32:53Z</time>
      </trkpt>
      <trkpt lat="43.13553" lon="-0.025">
        <ele>469.1</ele>
        <time>2020-09-12T20:32:54Z</time>
      </trkpt>
      <trkpt lat="43.1355" lon="-0.02501">
        <ele>468.2</ele>
        <time>2020-09-12T20:32:55Z</time>
      </trkpt>
      <trkpt lat="43.13547" lon="-0.02503">
        <ele>467.3</ele>
        <time>2020-09-12T20:32:56Z</time>
      </trkpt>
      <trkpt lat="43.13543" lon="-0.02505">
        <ele>466.4</ele>
        <time>2020-09-12T20:32:57Z</time>
      </trkpt>
      <trkpt lat="43.1354" lon="-0.02507">
        <ele>465.8</ele>
        <time>2020-09-12T20:32:58Z</time>
      </trkpt>
      <trkpt lat="43.13537" lon="-0.02509">
        <ele>465.2</ele>
        <time>2020-09-12T20:32:59Z</time>
      </trkpt>
      <trkpt lat="43.13534" lon="-0.02511">
        <ele>464.6</ele>
        <time>2020-09-12T20:33:00Z</time>
      </trkpt>
      <trkpt lat="43.13531" lon="-0.02512">
        <ele>464.1</ele>
        <time>2020-09-12T20:33:01Z</time>
      </trkpt>
      <trkpt lat="43.13529" lon="-0.02513">
        <ele>463.7</ele>
        <time>2020-09-12T20:33:02Z</time>
      </trkpt>
      <trkpt lat="43.13525" lon="-0.02516">
        <ele>462.9</ele>
        <time>2020-09-12T20:33:03Z</time>
      </trkpt>
      <trkpt lat="43.13522" lon="-0.02517">
        <ele>462.3</ele>
        <time>2020-09-12T20:33:04Z</time>
      </trkpt>
      <trkpt lat="43.13519" lon="-0.0252">
        <ele>461.6</ele>
        <time>2020-09-12T20:33:05Z</time>
      </trkpt>
      <trkpt lat="43.13514" lon="-0.02524">
        <ele>460.6</ele>
        <time>2020-09-12T20:33:06Z</time>
      </trkpt>
      <trkpt lat="43.1351" lon="-0.02529">
        <ele>459.5</ele>
        <time>2020-09-12T20:33:07Z</time>
      </trkpt>
      <trkpt lat="43.13507" lon="-0.02532">
        <ele>458.6</ele>
        <time>2020-09-12T20:33:08Z</time>
      </trkpt>
      <trkpt lat="43.13504" lon="-0.02535">
        <ele>457.8</ele>
        <time>2020-09-12T20:33:10Z</time>
      </trkpt>
      <trkpt lat="43.13501" lon="-0.0254">
        <ele>456.9</ele>
        <time>2020-09-12T20:33:12Z</time>
      </trkpt>
      <trkpt lat="43.13498" lon="-0.02545">
        <ele>455.2</ele>
        <time>2020-09-12T20:33:14Z</time>
      </trkpt>
      <trkpt lat="43.13497" lon="-0.02551">
        <ele>453.6</ele>
        <time>2020-09-12T20:33:16Z</time>
      </trkpt>
      <trkpt lat="43.13496" lon="-0.02555">
        <ele>453</ele>
        <time>2020-09-12T20:33:19Z</time>
      </trkpt>
      <trkpt lat="43.13492" lon="-0.02553">
        <ele>452.3</ele>
        <time>2020-09-12T20:33:23Z</time>
      </trkpt>
      <trkpt lat="43.13487" lon="-0.02556">
        <ele>447</ele>
        <time>2020-09-12T20:33:25Z</time>
      </trkpt>
      <trkpt lat="43.13484" lon="-0.02557">
        <ele>445.5</ele>
        <time>2020-09-12T20:33:26Z</time>
      </trkpt>
      <trkpt lat="43.1348" lon="-0.02557">
        <ele>443.3</ele>
        <time>2020-09-12T20:33:28Z</time>
      </trkpt>
      <trkpt lat="43.13476" lon="-0.02556">
        <ele>443.7</ele>
        <time>2020-09-12T20:33:30Z</time>
      </trkpt>
      <trkpt lat="43.13473" lon="-0.02555">
        <ele>443.9</ele>
        <time>2020-09-12T20:33:32Z</time>
      </trkpt>
      <trkpt lat="43.1347" lon="-0.02554">
        <ele>444.1</ele>
        <time>2020-09-12T20:33:34Z</time>
      </trkpt>
      <trkpt lat="43.13467" lon="-0.02553">
        <ele>444.4</ele>
        <time>2020-09-12T20:33:36Z</time>
      </trkpt>
      <trkpt lat="43.13464" lon="-0.02551">
        <ele>444.7</ele>
        <time>2020-09-12T20:33:38Z</time>
      </trkpt>
      <trkpt lat="43.1346" lon="-0.02549">
        <ele>445</ele>
        <time>2020-09-12T20:33:40Z</time>
      </trkpt>
      <trkpt lat="43.13457" lon="-0.02547">
        <ele>445.3</ele>
        <time>2020-09-12T20:33:42Z</time>
      </trkpt>
      <trkpt lat="43.13454" lon="-0.02547">
        <ele>445.5</ele>
        <time>2020-09-12T20:33:44Z</time>
      </trkpt>
      <trkpt lat="43.13451" lon="-0.02548">
        <ele>445.7</ele>
        <time>2020-09-12T20:33:46Z</time>
      </trkpt>
      <trkpt lat="43.13448" lon="-0.02545">
        <ele>446</ele>
        <time>2020-09-12T20:33:48Z</time>
      </trkpt>
      <trkpt lat="43.13446" lon="-0.02542">
        <ele>446.2</ele>
        <time>2020-09-12T20:33:49Z</time>
      </trkpt>
      <trkpt lat="43.13442" lon="-0.02538">
        <ele>446.5</ele>
        <time>2020-09-12T20:33:51Z</time>
      </trkpt>
      <trkpt lat="43.13438" lon="-0.02535">
        <ele>446.7</ele>
        <time>2020-09-12T20:33:53Z</time>
      </trkpt>
      <trkpt lat="43.13435" lon="-0.02533">
        <ele>446.9</ele>
        <time>2020-09-12T20:33:55Z</time>
      </trkpt>
      <trkpt lat="43.13433" lon="-0.02529">
        <ele>447.1</ele>
        <time>2020-09-12T20:33:57Z</time>
      </trkpt>
      <trkpt lat="43.1343" lon="-0.02526">
        <ele>447.4</ele>
        <time>2020-09-12T20:33:59Z</time>
      </trkpt>
      <trkpt lat="43.13426" lon="-0.02522">
        <ele>447.7</ele>
        <time>2020-09-12T20:34:01Z</time>
      </trkpt>
      <trkpt lat="43.13423" lon="-0.0252">
        <ele>447.9</ele>
        <time>2020-09-12T20:34:03Z</time>
      </trkpt>
      <trkpt lat="43.13419" lon="-0.02518">
        <ele>448.2</ele>
        <time>2020-09-12T20:34:05Z</time>
      </trkpt>
      <trkpt lat="43.13415" lon="-0.02517">
        <ele>448.6</ele>
        <time>2020-09-12T20:34:07Z</time>
      </trkpt>
      <trkpt lat="43.13412" lon="-0.02515">
        <ele>448.8</ele>
        <time>2020-09-12T20:34:09Z</time>
      </trkpt>
      <trkpt lat="43.1341" lon="-0.02512">
        <ele>449.2</ele>
        <time>2020-09-12T20:34:11Z</time>
      </trkpt>
      <trkpt lat="43.13407" lon="-0.02509">
        <ele>449.6</ele>
        <time>2020-09-12T20:34:13Z</time>
      </trkpt>
      <trkpt lat="43.13405" lon="-0.02506">
        <ele>450.1</ele>
        <time>2020-09-12T20:34:15Z</time>
      </trkpt>
      <trkpt lat="43.13401" lon="-0.02503">
        <ele>450.7</ele>
        <time>2020-09-12T20:34:17Z</time>
      </trkpt>
      <trkpt lat="43.13399" lon="-0.02499">
        <ele>451.2</ele>
        <time>2020-09-12T20:34:19Z</time>
      </trkpt>
      <trkpt lat="43.13399" lon="-0.02494">
        <ele>451.7</ele>
        <time>2020-09-12T20:34:21Z</time>
      </trkpt>
      <trkpt lat="43.13398" lon="-0.02491">
        <ele>452.1</ele>
        <time>2020-09-12T20:34:23Z</time>
      </trkpt>
      <trkpt lat="43.13396" lon="-0.02487">
        <ele>452.5</ele>
        <time>2020-09-12T20:34:25Z</time>
      </trkpt>
      <trkpt lat="43.13396" lon="-0.02483">
        <ele>453</ele>
        <time>2020-09-12T20:34:28Z</time>
      </trkpt>
      <trkpt lat="43.13395" lon="-0.02479">
        <ele>453.5</ele>
        <time>2020-09-12T20:34:31Z</time>
      </trkpt>
      <trkpt lat="43.13395" lon="-0.02474">
        <ele>454</ele>
        <time>2020-09-12T20:34:34Z</time>
      </trkpt>
      <trkpt lat="43.13394" lon="-0.0247">
        <ele>454.4</ele>
        <time>2020-09-12T20:34:36Z</time>
      </trkpt>
      <trkpt lat="43.13394" lon="-0.02466">
        <ele>454.9</ele>
        <time>2020-09-12T20:34:38Z</time>
      </trkpt>
      <trkpt lat="43.13392" lon="-0.02463">
        <ele>455.5</ele>
        <time>2020-09-12T20:34:41Z</time>
      </trkpt>
      <trkpt lat="43.13392" lon="-0.02458">
        <ele>456.1</ele>
        <time>2020-09-12T20:34:45Z</time>
      </trkpt>
      <trkpt lat="43.13395" lon="-0.02454">
        <ele>457.1</ele>
        <time>2020-09-12T20:34:47Z</time>
      </trkpt>
      <trkpt lat="43.13398" lon="-0.02451">
        <ele>457.8</ele>
        <time>2020-09-12T20:34:49Z</time>
      </trkpt>
      <trkpt lat="43.13401" lon="-0.02449">
        <ele>458.5</ele>
        <time>2020-09-12T20:34:52Z</time>
      </trkpt>
      <trkpt lat="43.13411" lon="-0.02448">
        <ele>460</ele>
        <time>2020-09-12T20:35:10Z</time>
      </trkpt>
      <trkpt lat="43.13415" lon="-0.0245">
        <ele>460.5</ele>
        <time>2020-09-12T20:35:15Z</time>
      </trkpt>
      <trkpt lat="43.13418" lon="-0.02451">
        <ele>460.9</ele>
        <time>2020-09-12T20:35:17Z</time>
      </trkpt>
      <trkpt lat="43.1342" lon="-0.02454">
        <ele>461.2</ele>
        <time>2020-09-12T20:35:21Z</time>
      </trkpt>
      <trkpt lat="43.13423" lon="-0.02455">
        <ele>461.5</ele>
        <time>2020-09-12T20:35:23Z</time>
      </trkpt>
      <trkpt lat="43.13426" lon="-0.02456">
        <ele>461.9</ele>
        <time>2020-09-12T20:35:25Z</time>
      </trkpt>
      <trkpt lat="43.13429" lon="-0.02458">
        <ele>462.2</ele>
        <time>2020-09-12T20:35:28Z</time>
      </trkpt>
      <trkpt lat="43.13433" lon="-0.02455">
        <ele>462.7</ele>
        <time>2020-09-12T20:35:32Z</time>
      </trkpt>
      <trkpt lat="43.13437" lon="-0.02454">
        <ele>463</ele>
        <time>2020-09-12T20:35:34Z</time>
      </trkpt>
      <trkpt lat="43.13441" lon="-0.02455">
        <ele>463.3</ele>
        <time>2020-09-12T20:35:37Z</time>
      </trkpt>
      <trkpt lat="43.13445" lon="-0.02456">
        <ele>463.5</ele>
        <time>2020-09-12T20:35:40Z</time>
      </trkpt>
      <trkpt lat="43.13448" lon="-0.02459">
        <ele>463.7</ele>
        <time>2020-09-12T20:35:43Z</time>
      </trkpt>
      <trkpt lat="43.13451" lon="-0.02462">
        <ele>463.9</ele>
        <time>2020-09-12T20:35:45Z</time>
      </trkpt>
      <trkpt lat="43.13454" lon="-0.02467">
        <ele>464.2</ele>
        <time>2020-09-12T20:35:47Z</time>
      </trkpt>
      <trkpt lat="43.13457" lon="-0.02469">
        <ele>464.4</ele>
        <time>2020-09-12T20:35:49Z</time>
      </trkpt>
      <trkpt lat="43.13461" lon="-0.0247">
        <ele>464.7</ele>
        <time>2020-09-12T20:35:51Z</time>
      </trkpt>
      <trkpt lat="43.13463" lon="-0.02473">
        <ele>465</ele>
        <time>2020-09-12T20:35:55Z</time>
      </trkpt>
      <trkpt lat="43.13466" lon="-0.02476">
        <ele>465.3</ele>
        <time>2020-09-12T20:35:57Z</time>
      </trkpt>
      <trkpt lat="43.13469" lon="-0.02477">
        <ele>465.6</ele>
        <time>2020-09-12T20:35:59Z</time>
      </trkpt>
      <trkpt lat="43.13472" lon="-0.02476">
        <ele>465.8</ele>
        <time>2020-09-12T20:36:02Z</time>
      </trkpt>
      <trkpt lat="43.13475" lon="-0.02476">
        <ele>466.2</ele>
        <time>2020-09-12T20:36:05Z</time>
      </trkpt>
      <trkpt lat="43.13478" lon="-0.02477">
        <ele>466.5</ele>
        <time>2020-09-12T20:36:07Z</time>
      </trkpt>
      <trkpt lat="43.13481" lon="-0.02476">
        <ele>466.8</ele>
        <time>2020-09-12T20:36:09Z</time>
      </trkpt>
      <trkpt lat="43.13484" lon="-0.02476">
        <ele>467.2</ele>
        <time>2020-09-12T20:36:12Z</time>
      </trkpt>
      <trkpt lat="43.13487" lon="-0.02476">
        <ele>467.6</ele>
        <time>2020-09-12T20:36:14Z</time>
      </trkpt>
      <trkpt lat="43.13491" lon="-0.02477">
        <ele>468</ele>
        <time>2020-09-12T20:36:16Z</time>
      </trkpt>
      <trkpt lat="43.13495" lon="-0.02476">
        <ele>468.4</ele>
        <time>2020-09-12T20:36:19Z</time>
      </trkpt>
      <trkpt lat="43.13498" lon="-0.02475">
        <ele>468.7</ele>
        <time>2020-09-12T20:36:20Z</time>
      </trkpt>
      <trkpt lat="43.13501" lon="-0.02474">
        <ele>469.1</ele>
        <time>2020-09-12T20:36:21Z</time>
      </trkpt>
      <trkpt lat="43.13506" lon="-0.02475">
        <ele>469.7</ele>
        <time>2020-09-12T20:36:24Z</time>
      </trkpt>
      <trkpt lat="43.13509" lon="-0.02474">
        <ele>470.2</ele>
        <time>2020-09-12T20:36:26Z</time>
      </trkpt>
      <trkpt lat="43.13512" lon="-0.02472">
        <ele>470.5</ele>
        <time>2020-09-12T20:36:29Z</time>
      </trkpt>
      <trkpt lat="43.13516" lon="-0.02471">
        <ele>471</ele>
        <time>2020-09-12T20:36:31Z</time>
      </trkpt>
      <trkpt lat="43.13518" lon="-0.02469">
        <ele>471.3</ele>
        <time>2020-09-12T20:36:34Z</time>
      </trkpt>
      <trkpt lat="43.13523" lon="-0.02472">
        <ele>471.6</ele>
        <time>2020-09-12T20:36:37Z</time>
      </trkpt>
      <trkpt lat="43.13527" lon="-0.02471">
        <ele>471.8</ele>
        <time>2020-09-12T20:36:39Z</time>
      </trkpt>
      <trkpt lat="43.1353" lon="-0.02468">
        <ele>472.1</ele>
        <time>2020-09-12T20:36:42Z</time>
      </trkpt>
      <trkpt lat="43.13533" lon="-0.02467">
        <ele>472.4</ele>
        <time>2020-09-12T20:36:45Z</time>
      </trkpt>
      <trkpt lat="43.13538" lon="-0.02467">
        <ele>472.7</ele>
        <time>2020-09-12T20:36:47Z</time>
      </trkpt>
      <trkpt lat="43.13541" lon="-0.02468">
        <ele>473.1</ele>
        <time>2020-09-12T20:36:49Z</time>
      </trkpt>
      <trkpt lat="43.13545" lon="-0.02466">
        <ele>473.5</ele>
        <time>2020-09-12T20:36:51Z</time>
      </trkpt>
      <trkpt lat="43.13549" lon="-0.02462">
        <ele>473.8</ele>
        <time>2020-09-12T20:36:53Z</time>
      </trkpt>
      <trkpt lat="43.13552" lon="-0.02461">
        <ele>474</ele>
        <time>2020-09-12T20:36:55Z</time>
      </trkpt>
      <trkpt lat="43.13554" lon="-0.02459">
        <ele>474.2</ele>
        <time>2020-09-12T20:36:57Z</time>
      </trkpt>
      <trkpt lat="43.13557" lon="-0.02457">
        <ele>474.4</ele>
        <time>2020-09-12T20:36:59Z</time>
      </trkpt>
      <trkpt lat="43.1356" lon="-0.02456">
        <ele>474.5</ele>
        <time>2020-09-12T20:37:01Z</time>
      </trkpt>
      <trkpt lat="43.13563" lon="-0.02455">
        <ele>474.7</ele>
        <time>2020-09-12T20:37:03Z</time>
      </trkpt>
      <trkpt lat="43.13567" lon="-0.02453">
        <ele>474.9</ele>
        <time>2020-09-12T20:37:06Z</time>
      </trkpt>
      <trkpt lat="43.1357" lon="-0.02451">
        <ele>475.1</ele>
        <time>2020-09-12T20:37:08Z</time>
      </trkpt>
      <trkpt lat="43.13573" lon="-0.02449">
        <ele>479.3</ele>
        <time>2020-09-12T20:37:10Z</time>
      </trkpt>
      <trkpt lat="43.13576" lon="-0.02445">
        <ele>479.7</ele>
        <time>2020-09-12T20:37:12Z</time>
      </trkpt>
      <trkpt lat="43.13578" lon="-0.02442">
        <ele>479.9</ele>
        <time>2020-09-12T20:37:14Z</time>
      </trkpt>
      <trkpt lat="43.1358" lon="-0.02438">
        <ele>480.2</ele>
        <time>2020-09-12T20:37:17Z</time>
      </trkpt>
      <trkpt lat="43.13578" lon="-0.02435">
        <ele>480.4</ele>
        <time>2020-09-12T20:37:21Z</time>
      </trkpt>
      <trkpt lat="43.13575" lon="-0.02432">
        <ele>480.6</ele>
        <time>2020-09-12T20:37:24Z</time>
      </trkpt>
      <trkpt lat="43.13572" lon="-0.02431">
        <ele>480.9</ele>
        <time>2020-09-12T20:37:29Z</time>
      </trkpt>
      <trkpt lat="43.13568" lon="-0.02429">
        <ele>481.2</ele>
        <time>2020-09-12T20:37:31Z</time>
      </trkpt>
      <trkpt lat="43.13566" lon="-0.02428">
        <ele>481.5</ele>
        <time>2020-09-12T20:37:33Z</time>
      </trkpt>
      <trkpt lat="43.13563" lon="-0.02428">
        <ele>481.8</ele>
        <time>2020-09-12T20:37:35Z</time>
      </trkpt>
      <trkpt lat="43.1356" lon="-0.02427">
        <ele>482.2</ele>
        <time>2020-09-12T20:37:37Z</time>
      </trkpt>
      <trkpt lat="43.13556" lon="-0.02426">
        <ele>482.6</ele>
        <time>2020-09-12T20:37:39Z</time>
      </trkpt>
      <trkpt lat="43.13551" lon="-0.02427">
        <ele>483</ele>
        <time>2020-09-12T20:37:41Z</time>
      </trkpt>
      <trkpt lat="43.13546" lon="-0.02427">
        <ele>483.4</ele>
        <time>2020-09-12T20:37:43Z</time>
      </trkpt>
      <trkpt lat="43.13542" lon="-0.02427">
        <ele>483.8</ele>
        <time>2020-09-12T20:37:45Z</time>
      </trkpt>
      <trkpt lat="43.13538" lon="-0.02425">
        <ele>484.1</ele>
        <time>2020-09-12T20:37:47Z</time>
      </trkpt>
      <trkpt lat="43.13534" lon="-0.02424">
        <ele>484.3</ele>
        <time>2020-09-12T20:37:49Z</time>
      </trkpt>
      <trkpt lat="43.1353" lon="-0.02422">
        <ele>484.5</ele>
        <time>2020-09-12T20:37:51Z</time>
      </trkpt>
      <trkpt lat="43.13526" lon="-0.02421">
        <ele>484.8</ele>
        <time>2020-09-12T20:37:53Z</time>
      </trkpt>
      <trkpt lat="43.13522" lon="-0.02419">
        <ele>485</ele>
        <time>2020-09-12T20:37:55Z</time>
      </trkpt>
      <trkpt lat="43.13519" lon="-0.02416">
        <ele>485.2</ele>
        <time>2020-09-12T20:37:57Z</time>
      </trkpt>
      <trkpt lat="43.13515" lon="-0.02415">
        <ele>485.5</ele>
        <time>2020-09-12T20:37:59Z</time>
      </trkpt>
      <trkpt lat="43.13512" lon="-0.02413">
        <ele>485.6</ele>
        <time>2020-09-12T20:38:01Z</time>
      </trkpt>
      <trkpt lat="43.13509" lon="-0.02411">
        <ele>485.9</ele>
        <time>2020-09-12T20:38:03Z</time>
      </trkpt>
      <trkpt lat="43.13505" lon="-0.02408">
        <ele>486.3</ele>
        <time>2020-09-12T20:38:05Z</time>
      </trkpt>
      <trkpt lat="43.13502" lon="-0.02404">
        <ele>486.8</ele>
        <time>2020-09-12T20:38:07Z</time>
      </trkpt>
      <trkpt lat="43.13501" lon="-0.02399">
        <ele>487.3</ele>
        <time>2020-09-12T20:38:09Z</time>
      </trkpt>
      <trkpt lat="43.13499" lon="-0.02394">
        <ele>488</ele>
        <time>2020-09-12T20:38:11Z</time>
      </trkpt>
      <trkpt lat="43.13497" lon="-0.0239">
        <ele>488.6</ele>
        <time>2020-09-12T20:38:13Z</time>
      </trkpt>
      <trkpt lat="43.13494" lon="-0.02386">
        <ele>489.3</ele>
        <time>2020-09-12T20:38:15Z</time>
      </trkpt>
      <trkpt lat="43.13492" lon="-0.0238">
        <ele>490.1</ele>
        <time>2020-09-12T20:38:17Z</time>
      </trkpt>
      <trkpt lat="43.13491" lon="-0.02375">
        <ele>490.8</ele>
        <time>2020-09-12T20:38:19Z</time>
      </trkpt>
      <trkpt lat="43.13489" lon="-0.02371">
        <ele>491.4</ele>
        <time>2020-09-12T20:38:21Z</time>
      </trkpt>
      <trkpt lat="43.13487" lon="-0.02367">
        <ele>492</ele>
        <time>2020-09-12T20:38:23Z</time>
      </trkpt>
      <trkpt lat="43.13486" lon="-0.02363">
        <ele>492.9</ele>
        <time>2020-09-12T20:38:25Z</time>
      </trkpt>
      <trkpt lat="43.13484" lon="-0.02359">
        <ele>493.3</ele>
        <time>2020-09-12T20:38:27Z</time>
      </trkpt>
      <trkpt lat="43.13484" lon="-0.02355">
        <ele>493.8</ele>
        <time>2020-09-12T20:38:29Z</time>
      </trkpt>
      <trkpt lat="43.13481" lon="-0.02351">
        <ele>494.3</ele>
        <time>2020-09-12T20:38:32Z</time>
      </trkpt>
      <trkpt lat="43.1348" lon="-0.02347">
        <ele>494.7</ele>
        <time>2020-09-12T20:38:34Z</time>
      </trkpt>
      <trkpt lat="43.1348" lon="-0.02341">
        <ele>495.3</ele>
        <time>2020-09-12T20:38:37Z</time>
      </trkpt>
      <trkpt lat="43.13479" lon="-0.02337">
        <ele>495.8</ele>
        <time>2020-09-12T20:38:39Z</time>
      </trkpt>
      <trkpt lat="43.13478" lon="-0.02332">
        <ele>496.3</ele>
        <time>2020-09-12T20:38:41Z</time>
      </trkpt>
      <trkpt lat="43.13475" lon="-0.02329">
        <ele>496.8</ele>
        <time>2020-09-12T20:38:43Z</time>
      </trkpt>
      <trkpt lat="43.13473" lon="-0.02326">
        <ele>497.5</ele>
        <time>2020-09-12T20:38:45Z</time>
      </trkpt>
      <trkpt lat="43.13471" lon="-0.02322">
        <ele>498.3</ele>
        <time>2020-09-12T20:38:47Z</time>
      </trkpt>
      <trkpt lat="43.1347" lon="-0.02317">
        <ele>498.9</ele>
        <time>2020-09-12T20:38:49Z</time>
      </trkpt>
      <trkpt lat="43.13469" lon="-0.02313">
        <ele>499.3</ele>
        <time>2020-09-12T20:38:51Z</time>
      </trkpt>
      <trkpt lat="43.13465" lon="-0.0231">
        <ele>499.9</ele>
        <time>2020-09-12T20:38:54Z</time>
      </trkpt>
      <trkpt lat="43.13463" lon="-0.02307">
        <ele>500.4</ele>
        <time>2020-09-12T20:38:56Z</time>
      </trkpt>
      <trkpt lat="43.1346" lon="-0.02304">
        <ele>501</ele>
        <time>2020-09-12T20:38:58Z</time>
      </trkpt>
      <trkpt lat="43.13458" lon="-0.023">
        <ele>501.7</ele>
        <time>2020-09-12T20:39:00Z</time>
      </trkpt>
      <trkpt lat="43.13456" lon="-0.02295">
        <ele>502.3</ele>
        <time>2020-09-12T20:39:02Z</time>
      </trkpt>
      <trkpt lat="43.13453" lon="-0.02293">
        <ele>502.9</ele>
        <time>2020-09-12T20:39:04Z</time>
      </trkpt>
      <trkpt lat="43.13451" lon="-0.02289">
        <ele>503.6</ele>
        <time>2020-09-12T20:39:06Z</time>
      </trkpt>
      <trkpt lat="43.13448" lon="-0.02286">
        <ele>504.3</ele>
        <time>2020-09-12T20:39:08Z</time>
      </trkpt>
      <trkpt lat="43.13447" lon="-0.02282">
        <ele>504.9</ele>
        <time>2020-09-12T20:39:10Z</time>
      </trkpt>
      <trkpt lat="43.13446" lon="-0.02277">
        <ele>505.4</ele>
        <time>2020-09-12T20:39:12Z</time>
      </trkpt>
      <trkpt lat="43.13443" lon="-0.02275">
        <ele>505.9</ele>
        <time>2020-09-12T20:39:14Z</time>
      </trkpt>
      <trkpt lat="43.1344" lon="-0.02272">
        <ele>506.5</ele>
        <time>2020-09-12T20:39:16Z</time>
      </trkpt>
      <trkpt lat="43.13437" lon="-0.02269">
        <ele>507.2</ele>
        <time>2020-09-12T20:39:18Z</time>
      </trkpt>
      <trkpt lat="43.13435" lon="-0.02264">
        <ele>508</ele>
        <time>2020-09-12T20:39:20Z</time>
      </trkpt>
      <trkpt lat="43.13432" lon="-0.0226">
        <ele>509</ele>
        <time>2020-09-12T20:39:22Z</time>
      </trkpt>
      <trkpt lat="43.13429" lon="-0.02258">
        <ele>509.5</ele>
        <time>2020-09-12T20:39:24Z</time>
      </trkpt>
      <trkpt lat="43.13426" lon="-0.02254">
        <ele>510</ele>
        <time>2020-09-12T20:39:26Z</time>
      </trkpt>
      <trkpt lat="43.13424" lon="-0.02251">
        <ele>510.5</ele>
        <time>2020-09-12T20:39:28Z</time>
      </trkpt>
      <trkpt lat="43.13421" lon="-0.02247">
        <ele>511</ele>
        <time>2020-09-12T20:39:30Z</time>
      </trkpt>
      <trkpt lat="43.13419" lon="-0.02244">
        <ele>511.5</ele>
        <time>2020-09-12T20:39:32Z</time>
      </trkpt>
      <trkpt lat="43.13417" lon="-0.0224">
        <ele>511.9</ele>
        <time>2020-09-12T20:39:35Z</time>
      </trkpt>
      <trkpt lat="43.13417" lon="-0.02235">
        <ele>512.4</ele>
        <time>2020-09-12T20:39:38Z</time>
      </trkpt>
      <trkpt lat="43.13413" lon="-0.02236">
        <ele>513</ele>
        <time>2020-09-12T20:39:48Z</time>
      </trkpt>
      <trkpt lat="43.13411" lon="-0.0224">
        <ele>513.4</ele>
        <time>2020-09-12T20:39:49Z</time>
      </trkpt>
      <trkpt lat="43.13411" lon="-0.02245">
        <ele>513.8</ele>
        <time>2020-09-12T20:39:51Z</time>
      </trkpt>
      <trkpt lat="43.13409" lon="-0.0225">
        <ele>513.5</ele>
        <time>2020-09-12T20:39:53Z</time>
      </trkpt>
      <trkpt lat="43.13406" lon="-0.02255">
        <ele>513.3</ele>
        <time>2020-09-12T20:39:55Z</time>
      </trkpt>
      <trkpt lat="43.13404" lon="-0.02259">
        <ele>513.2</ele>
        <time>2020-09-12T20:39:56Z</time>
      </trkpt>
      <trkpt lat="43.13403" lon="-0.02263">
        <ele>513.1</ele>
        <time>2020-09-12T20:39:57Z</time>
      </trkpt>
      <trkpt lat="43.13402" lon="-0.02267">
        <ele>513</ele>
        <time>2020-09-12T20:39:58Z</time>
      </trkpt>
      <trkpt lat="43.134" lon="-0.0227">
        <ele>513.1</ele>
        <time>2020-09-12T20:39:59Z</time>
      </trkpt>
      <trkpt lat="43.13397" lon="-0.02272">
        <ele>513.4</ele>
        <time>2020-09-12T20:40:00Z</time>
      </trkpt>
      <trkpt lat="43.13394" lon="-0.02274">
        <ele>513.8</ele>
        <time>2020-09-12T20:40:01Z</time>
      </trkpt>
      <trkpt lat="43.13389" lon="-0.02276">
        <ele>514.2</ele>
        <time>2020-09-12T20:40:02Z</time>
      </trkpt>
      <trkpt lat="43.13385" lon="-0.02278">
        <ele>514.1</ele>
        <time>2020-09-12T20:40:03Z</time>
      </trkpt>
      <trkpt lat="43.13381" lon="-0.02281">
        <ele>513.9</ele>
        <time>2020-09-12T20:40:04Z</time>
      </trkpt>
      <trkpt lat="43.13378" lon="-0.02283">
        <ele>514.6</ele>
        <time>2020-09-12T20:40:05Z</time>
      </trkpt>
      <trkpt lat="43.13374" lon="-0.02284">
        <ele>515.3</ele>
        <time>2020-09-12T20:40:06Z</time>
      </trkpt>
      <trkpt lat="43.13369" lon="-0.02287">
        <ele>515.6</ele>
        <time>2020-09-12T20:40:07Z</time>
      </trkpt>
      <trkpt lat="43.13366" lon="-0.02289">
        <ele>515.9</ele>
        <time>2020-09-12T20:40:08Z</time>
      </trkpt>
      <trkpt lat="43.13363" lon="-0.02292">
        <ele>516.4</ele>
        <time>2020-09-12T20:40:09Z</time>
      </trkpt>
      <trkpt lat="43.13359" lon="-0.02295">
        <ele>516.9</ele>
        <time>2020-09-12T20:40:10Z</time>
      </trkpt>
      <trkpt lat="43.13356" lon="-0.02298">
        <ele>517.3</ele>
        <time>2020-09-12T20:40:11Z</time>
      </trkpt>
      <trkpt lat="43.13352" lon="-0.02301">
        <ele>517.5</ele>
        <time>2020-09-12T20:40:12Z</time>
      </trkpt>
      <trkpt lat="43.1335" lon="-0.02303">
        <ele>517.5</ele>
        <time>2020-09-12T20:40:13Z</time>
      </trkpt>
      <trkpt lat="43.13347" lon="-0.02304">
        <ele>517.6</ele>
        <time>2020-09-12T20:40:14Z</time>
      </trkpt>
      <trkpt lat="43.13344" lon="-0.02305">
        <ele>517.6</ele>
        <time>2020-09-12T20:40:15Z</time>
      </trkpt>
      <trkpt lat="43.13342" lon="-0.02307">
        <ele>517.6</ele>
        <time>2020-09-12T20:40:17Z</time>
      </trkpt>
      <trkpt lat="43.13338" lon="-0.02312">
        <ele>517.4</ele>
        <time>2020-09-12T20:40:19Z</time>
      </trkpt>
      <trkpt lat="43.13337" lon="-0.02316">
        <ele>517.1</ele>
        <time>2020-09-12T20:40:20Z</time>
      </trkpt>
      <trkpt lat="43.13336" lon="-0.0232">
        <ele>517</ele>
        <time>2020-09-12T20:40:21Z</time>
      </trkpt>
      <trkpt lat="43.13334" lon="-0.02323">
        <ele>516.9</ele>
        <time>2020-09-12T20:40:22Z</time>
      </trkpt>
      <trkpt lat="43.13332" lon="-0.02327">
        <ele>516.7</ele>
        <time>2020-09-12T20:40:23Z</time>
      </trkpt>
      <trkpt lat="43.13328" lon="-0.02332">
        <ele>516.1</ele>
        <time>2020-09-12T20:40:24Z</time>
      </trkpt>
      <trkpt lat="43.13324" lon="-0.02336">
        <ele>515.7</ele>
        <time>2020-09-12T20:40:26Z</time>
      </trkpt>
      <trkpt lat="43.1332" lon="-0.02339">
        <ele>515.4</ele>
        <time>2020-09-12T20:40:27Z</time>
      </trkpt>
      <trkpt lat="43.13317" lon="-0.02343">
        <ele>514.3</ele>
        <time>2020-09-12T20:40:28Z</time>
      </trkpt>
      <trkpt lat="43.13314" lon="-0.02345">
        <ele>513.5</ele>
        <time>2020-09-12T20:40:29Z</time>
      </trkpt>
      <trkpt lat="43.13312" lon="-0.02349">
        <ele>512.5</ele>
        <time>2020-09-12T20:40:30Z</time>
      </trkpt>
      <trkpt lat="43.13308" lon="-0.02353">
        <ele>511.5</ele>
        <time>2020-09-12T20:40:32Z</time>
      </trkpt>
      <trkpt lat="43.13304" lon="-0.02357">
        <ele>511</ele>
        <time>2020-09-12T20:40:34Z</time>
      </trkpt>
      <trkpt lat="43.13301" lon="-0.02359">
        <ele>510.3</ele>
        <time>2020-09-12T20:40:36Z</time>
      </trkpt>
      <trkpt lat="43.13297" lon="-0.02361">
        <ele>509.2</ele>
        <time>2020-09-12T20:40:38Z</time>
      </trkpt>
      <trkpt lat="43.13294" lon="-0.02364">
        <ele>508.6</ele>
        <time>2020-09-12T20:40:39Z</time>
      </trkpt>
      <trkpt lat="43.1329" lon="-0.02366">
        <ele>508</ele>
        <time>2020-09-12T20:40:40Z</time>
      </trkpt>
      <trkpt lat="43.13285" lon="-0.02368">
        <ele>506.9</ele>
        <time>2020-09-12T20:40:42Z</time>
      </trkpt>
      <trkpt lat="43.13281" lon="-0.02369">
        <ele>505.8</ele>
        <time>2020-09-12T20:40:44Z</time>
      </trkpt>
      <trkpt lat="43.13276" lon="-0.02372">
        <ele>505.2</ele>
        <time>2020-09-12T20:40:46Z</time>
      </trkpt>
      <trkpt lat="43.13271" lon="-0.02376">
        <ele>504.6</ele>
        <time>2020-09-12T20:40:48Z</time>
      </trkpt>
      <trkpt lat="43.13269" lon="-0.02378">
        <ele>504.2</ele>
        <time>2020-09-12T20:40:49Z</time>
      </trkpt>
      <trkpt lat="43.13265" lon="-0.02382">
        <ele>503.7</ele>
        <time>2020-09-12T20:40:50Z</time>
      </trkpt>
      <trkpt lat="43.13261" lon="-0.02387">
        <ele>502.9</ele>
        <time>2020-09-12T20:40:51Z</time>
      </trkpt>
      <trkpt lat="43.13258" lon="-0.02392">
        <ele>502.1</ele>
        <time>2020-09-12T20:40:52Z</time>
      </trkpt>
      <trkpt lat="43.13254" lon="-0.02396">
        <ele>501.3</ele>
        <time>2020-09-12T20:40:53Z</time>
      </trkpt>
      <trkpt lat="43.13252" lon="-0.024">
        <ele>500</ele>
        <time>2020-09-12T20:40:54Z</time>
      </trkpt>
      <trkpt lat="43.13249" lon="-0.02405">
        <ele>498.7</ele>
        <time>2020-09-12T20:40:55Z</time>
      </trkpt>
      <trkpt lat="43.13245" lon="-0.02409">
        <ele>497.5</ele>
        <time>2020-09-12T20:40:56Z</time>
      </trkpt>
      <trkpt lat="43.13243" lon="-0.02411">
        <ele>496.7</ele>
        <time>2020-09-12T20:40:57Z</time>
      </trkpt>
      <trkpt lat="43.13241" lon="-0.02415">
        <ele>495.9</ele>
        <time>2020-09-12T20:40:58Z</time>
      </trkpt>
      <trkpt lat="43.13239" lon="-0.02417">
        <ele>495.1</ele>
        <time>2020-09-12T20:40:59Z</time>
      </trkpt>
      <trkpt lat="43.13235" lon="-0.02419">
        <ele>494.4</ele>
        <time>2020-09-12T20:41:00Z</time>
      </trkpt>
      <trkpt lat="43.13233" lon="-0.02419">
        <ele>493.8</ele>
        <time>2020-09-12T20:41:01Z</time>
      </trkpt>
      <trkpt lat="43.13227" lon="-0.02419">
        <ele>492.8</ele>
        <time>2020-09-12T20:41:03Z</time>
      </trkpt>
      <trkpt lat="43.13224" lon="-0.02417">
        <ele>492.3</ele>
        <time>2020-09-12T20:41:04Z</time>
      </trkpt>
      <trkpt lat="43.13221" lon="-0.02414">
        <ele>491.9</ele>
        <time>2020-09-12T20:41:05Z</time>
      </trkpt>
      <trkpt lat="43.13218" lon="-0.02412">
        <ele>491.3</ele>
        <time>2020-09-12T20:41:06Z</time>
      </trkpt>
      <trkpt lat="43.13214" lon="-0.0241">
        <ele>490.5</ele>
        <time>2020-09-12T20:41:07Z</time>
      </trkpt>
      <trkpt lat="43.1321" lon="-0.02408">
        <ele>489.8</ele>
        <time>2020-09-12T20:41:08Z</time>
      </trkpt>
      <trkpt lat="43.13206" lon="-0.02406">
        <ele>489.1</ele>
        <time>2020-09-12T20:41:09Z</time>
      </trkpt>
      <trkpt lat="43.132" lon="-0.02405">
        <ele>488.1</ele>
        <time>2020-09-12T20:41:10Z</time>
      </trkpt>
      <trkpt lat="43.13195" lon="-0.02403">
        <ele>487.5</ele>
        <time>2020-09-12T20:41:11Z</time>
      </trkpt>
      <trkpt lat="43.13191" lon="-0.02401">
        <ele>486.7</ele>
        <time>2020-09-12T20:41:12Z</time>
      </trkpt>
      <trkpt lat="43.13188" lon="-0.02399">
        <ele>486</ele>
        <time>2020-09-12T20:41:13Z</time>
      </trkpt>
      <trkpt lat="43.13184" lon="-0.02398">
        <ele>485.6</ele>
        <time>2020-09-12T20:41:14Z</time>
      </trkpt>
      <trkpt lat="43.13181" lon="-0.02397">
        <ele>485.2</ele>
        <time>2020-09-12T20:41:15Z</time>
      </trkpt>
      <trkpt lat="43.13177" lon="-0.02396">
        <ele>484.6</ele>
        <time>2020-09-12T20:41:16Z</time>
      </trkpt>
      <trkpt lat="43.13174" lon="-0.02394">
        <ele>484.1</ele>
        <time>2020-09-12T20:41:17Z</time>
      </trkpt>
      <trkpt lat="43.13171" lon="-0.02392">
        <ele>483.5</ele>
        <time>2020-09-12T20:41:18Z</time>
      </trkpt>
      <trkpt lat="43.13167" lon="-0.02391">
        <ele>483</ele>
        <time>2020-09-12T20:41:19Z</time>
      </trkpt>
      <trkpt lat="43.13164" lon="-0.0239">
        <ele>483.1</ele>
        <time>2020-09-12T20:41:20Z</time>
      </trkpt>
      <trkpt lat="43.1316" lon="-0.02389">
        <ele>483.2</ele>
        <time>2020-09-12T20:41:22Z</time>
      </trkpt>
      <trkpt lat="43.13154" lon="-0.02387">
        <ele>483.4</ele>
        <time>2020-09-12T20:41:24Z</time>
      </trkpt>
      <trkpt lat="43.13151" lon="-0.02388">
        <ele>483.2</ele>
        <time>2020-09-12T20:41:25Z</time>
      </trkpt>
      <trkpt lat="43.13148" lon="-0.02387">
        <ele>483.1</ele>
        <time>2020-09-12T20:41:26Z</time>
      </trkpt>
      <trkpt lat="43.13145" lon="-0.02386">
        <ele>482.9</ele>
        <time>2020-09-12T20:41:27Z</time>
      </trkpt>
      <trkpt lat="43.13142" lon="-0.02386">
        <ele>482.9</ele>
        <time>2020-09-12T20:41:28Z</time>
      </trkpt>
      <trkpt lat="43.13139" lon="-0.02384">
        <ele>483.1</ele>
        <time>2020-09-12T20:41:29Z</time>
      </trkpt>
      <trkpt lat="43.13136" lon="-0.02382">
        <ele>484</ele>
        <time>2020-09-12T20:41:30Z</time>
      </trkpt>
      <trkpt lat="43.13133" lon="-0.0238">
        <ele>484.9</ele>
        <time>2020-09-12T20:41:31Z</time>
      </trkpt>
      <trkpt lat="43.13129" lon="-0.02377">
        <ele>484.7</ele>
        <time>2020-09-12T20:41:32Z</time>
      </trkpt>
      <trkpt lat="43.13126" lon="-0.02375">
        <ele>483.2</ele>
        <time>2020-09-12T20:41:33Z</time>
      </trkpt>
      <trkpt lat="43.13123" lon="-0.02372">
        <ele>482.9</ele>
        <time>2020-09-12T20:41:34Z</time>
      </trkpt>
      <trkpt lat="43.1312" lon="-0.0237">
        <ele>481.4</ele>
        <time>2020-09-12T20:41:35Z</time>
      </trkpt>
      <trkpt lat="43.13118" lon="-0.02367">
        <ele>481</ele>
        <time>2020-09-12T20:41:36Z</time>
      </trkpt>
      <trkpt lat="43.13115" lon="-0.02366">
        <ele>481.2</ele>
        <time>2020-09-12T20:41:37Z</time>
      </trkpt>
      <trkpt lat="43.13112" lon="-0.02368">
        <ele>480.8</ele>
        <time>2020-09-12T20:41:38Z</time>
      </trkpt>
      <trkpt lat="43.13109" lon="-0.02369">
        <ele>480.4</ele>
        <time>2020-09-12T20:41:39Z</time>
      </trkpt>
      <trkpt lat="43.13106" lon="-0.0237">
        <ele>480.1</ele>
        <time>2020-09-12T20:41:41Z</time>
      </trkpt>
      <trkpt lat="43.13103" lon="-0.0237">
        <ele>480.2</ele>
        <time>2020-09-12T20:41:43Z</time>
      </trkpt>
      <trkpt lat="43.131" lon="-0.02366">
        <ele>480.4</ele>
        <time>2020-09-12T20:41:44Z</time>
      </trkpt>
      <trkpt lat="43.13093" lon="-0.02365">
        <ele>481.3</ele>
        <time>2020-09-12T20:41:45Z</time>
      </trkpt>
      <trkpt lat="43.13089" lon="-0.02362">
        <ele>481.6</ele>
        <time>2020-09-12T20:41:46Z</time>
      </trkpt>
      <trkpt lat="43.13087" lon="-0.02357">
        <ele>481.6</ele>
        <time>2020-09-12T20:41:47Z</time>
      </trkpt>
      <trkpt lat="43.13084" lon="-0.02353">
        <ele>481.8</ele>
        <time>2020-09-12T20:41:48Z</time>
      </trkpt>
      <trkpt lat="43.13082" lon="-0.02348">
        <ele>482.2</ele>
        <time>2020-09-12T20:41:49Z</time>
      </trkpt>
      <trkpt lat="43.1308" lon="-0.02345">
        <ele>482.6</ele>
        <time>2020-09-12T20:41:50Z</time>
      </trkpt>
      <trkpt lat="43.13077" lon="-0.02341">
        <ele>483</ele>
        <time>2020-09-12T20:41:51Z</time>
      </trkpt>
      <trkpt lat="43.13073" lon="-0.02337">
        <ele>483.6</ele>
        <time>2020-09-12T20:41:52Z</time>
      </trkpt>
      <trkpt lat="43.1307" lon="-0.02333">
        <ele>483.7</ele>
        <time>2020-09-12T20:41:53Z</time>
      </trkpt>
      <trkpt lat="43.13068" lon="-0.02328">
        <ele>483.7</ele>
        <time>2020-09-12T20:41:54Z</time>
      </trkpt>
      <trkpt lat="43.13065" lon="-0.02324">
        <ele>484.3</ele>
        <time>2020-09-12T20:41:55Z</time>
      </trkpt>
      <trkpt lat="43.13062" lon="-0.02321">
        <ele>484.8</ele>
        <time>2020-09-12T20:41:56Z</time>
      </trkpt>
      <trkpt lat="43.13059" lon="-0.0232">
        <ele>484.9</ele>
        <time>2020-09-12T20:41:57Z</time>
      </trkpt>
      <trkpt lat="43.13057" lon="-0.02319">
        <ele>484.4</ele>
        <time>2020-09-12T20:41:58Z</time>
      </trkpt>
      <trkpt lat="43.13052" lon="-0.02315">
        <ele>484.7</ele>
        <time>2020-09-12T20:42:00Z</time>
      </trkpt>
      <trkpt lat="43.1305" lon="-0.02314">
        <ele>484.9</ele>
        <time>2020-09-12T20:42:01Z</time>
      </trkpt>
      <trkpt lat="43.13045" lon="-0.0231">
        <ele>485.1</ele>
        <time>2020-09-12T20:42:03Z</time>
      </trkpt>
      <trkpt lat="43.13041" lon="-0.02309">
        <ele>484.9</ele>
        <time>2020-09-12T20:42:05Z</time>
      </trkpt>
      <trkpt lat="43.13035" lon="-0.02307">
        <ele>484.6</ele>
        <time>2020-09-12T20:42:07Z</time>
      </trkpt>
      <trkpt lat="43.13032" lon="-0.02306">
        <ele>484.7</ele>
        <time>2020-09-12T20:42:08Z</time>
      </trkpt>
      <trkpt lat="43.13028" lon="-0.02304">
        <ele>484.8</ele>
        <time>2020-09-12T20:42:10Z</time>
      </trkpt>
      <trkpt lat="43.13024" lon="-0.02303">
        <ele>484.4</ele>
        <time>2020-09-12T20:42:12Z</time>
      </trkpt>
      <trkpt lat="43.13019" lon="-0.02301">
        <ele>483.9</ele>
        <time>2020-09-12T20:42:14Z</time>
      </trkpt>
      <trkpt lat="43.13016" lon="-0.02299">
        <ele>483.3</ele>
        <time>2020-09-12T20:42:16Z</time>
      </trkpt>
      <trkpt lat="43.13012" lon="-0.02297">
        <ele>482.6</ele>
        <time>2020-09-12T20:42:18Z</time>
      </trkpt>
      <trkpt lat="43.13009" lon="-0.02296">
        <ele>482.5</ele>
        <time>2020-09-12T20:42:19Z</time>
      </trkpt>
      <trkpt lat="43.13006" lon="-0.02297">
        <ele>482.4</ele>
        <time>2020-09-12T20:42:20Z</time>
      </trkpt>
      <trkpt lat="43.13004" lon="-0.02298">
        <ele>482.3</ele>
        <time>2020-09-12T20:42:21Z</time>
      </trkpt>
      <trkpt lat="43.13" lon="-0.023">
        <ele>482.1</ele>
        <time>2020-09-12T20:42:22Z</time>
      </trkpt>
      <trkpt lat="43.12997" lon="-0.02302">
        <ele>481.9</ele>
        <time>2020-09-12T20:42:24Z</time>
      </trkpt>
      <trkpt lat="43.12994" lon="-0.02301">
        <ele>481.5</ele>
        <time>2020-09-12T20:42:27Z</time>
      </trkpt>
      <trkpt lat="43.1299" lon="-0.023">
        <ele>481</ele>
        <time>2020-09-12T20:42:30Z</time>
      </trkpt>
      <trkpt lat="43.12986" lon="-0.023">
        <ele>480.6</ele>
        <time>2020-09-12T20:42:32Z</time>
      </trkpt>
      <trkpt lat="43.12982" lon="-0.023">
        <ele>480.2</ele>
        <time>2020-09-12T20:42:36Z</time>
      </trkpt>
      <trkpt lat="43.1298" lon="-0.02303">
        <ele>479.9</ele>
        <time>2020-09-12T20:42:37Z</time>
      </trkpt>
      <trkpt lat="43.12976" lon="-0.02304">
        <ele>480</ele>
        <time>2020-09-12T20:42:39Z</time>
      </trkpt>
      <trkpt lat="43.12971" lon="-0.02304">
        <ele>480</ele>
        <time>2020-09-12T20:42:41Z</time>
      </trkpt>
      <trkpt lat="43.12968" lon="-0.02305">
        <ele>479.8</ele>
        <time>2020-09-12T20:42:42Z</time>
      </trkpt>
      <trkpt lat="43.12965" lon="-0.02306">
        <ele>479.6</ele>
        <time>2020-09-12T20:42:43Z</time>
      </trkpt>
      <trkpt lat="43.12961" lon="-0.02307">
        <ele>479.5</ele>
        <time>2020-09-12T20:42:45Z</time>
      </trkpt>
      <trkpt lat="43.12956" lon="-0.02308">
        <ele>479.7</ele>
        <time>2020-09-12T20:42:47Z</time>
      </trkpt>
      <trkpt lat="43.12949" lon="-0.02312">
        <ele>479.8</ele>
        <time>2020-09-12T20:42:49Z</time>
      </trkpt>
      <trkpt lat="43.12946" lon="-0.02313">
        <ele>479.8</ele>
        <time>2020-09-12T20:42:50Z</time>
      </trkpt>
      <trkpt lat="43.12943" lon="-0.02315">
        <ele>479.8</ele>
        <time>2020-09-12T20:42:51Z</time>
      </trkpt>
      <trkpt lat="43.1294" lon="-0.02315">
        <ele>480.1</ele>
        <time>2020-09-12T20:42:52Z</time>
      </trkpt>
      <trkpt lat="43.12936" lon="-0.02318">
        <ele>480.4</ele>
        <time>2020-09-12T20:42:54Z</time>
      </trkpt>
      <trkpt lat="43.12933" lon="-0.02319">
        <ele>480.6</ele>
        <time>2020-09-12T20:42:56Z</time>
      </trkpt>
      <trkpt lat="43.1293" lon="-0.0232">
        <ele>480.8</ele>
        <time>2020-09-12T20:43:00Z</time>
      </trkpt>
      <trkpt lat="43.12927" lon="-0.02319">
        <ele>480.9</ele>
        <time>2020-09-12T20:43:04Z</time>
      </trkpt>
      <trkpt lat="43.12924" lon="-0.02319">
        <ele>481</ele>
        <time>2020-09-12T20:43:07Z</time>
      </trkpt>
      <trkpt lat="43.1292" lon="-0.02318">
        <ele>481</ele>
        <time>2020-09-12T20:43:10Z</time>
      </trkpt>
      <trkpt lat="43.12916" lon="-0.0232">
        <ele>481</ele>
        <time>2020-09-12T20:43:12Z</time>
      </trkpt>
      <trkpt lat="43.12912" lon="-0.02322">
        <ele>481</ele>
        <time>2020-09-12T20:43:14Z</time>
      </trkpt>
      <trkpt lat="43.12908" lon="-0.02326">
        <ele>481</ele>
        <time>2020-09-12T20:43:16Z</time>
      </trkpt>
      <trkpt lat="43.12906" lon="-0.02329">
        <ele>481</ele>
        <time>2020-09-12T20:43:17Z</time>
      </trkpt>
      <trkpt lat="43.12904" lon="-0.02335">
        <ele>481.1</ele>
        <time>2020-09-12T20:43:19Z</time>
      </trkpt>
      <trkpt lat="43.12899" lon="-0.02342">
        <ele>481.3</ele>
        <time>2020-09-12T20:43:21Z</time>
      </trkpt>
      <trkpt lat="43.12897" lon="-0.02344">
        <ele>480.9</ele>
        <time>2020-09-12T20:43:22Z</time>
      </trkpt>
      <trkpt lat="43.12893" lon="-0.02347">
        <ele>480.4</ele>
        <time>2020-09-12T20:43:24Z</time>
      </trkpt>
      <trkpt lat="43.12889" lon="-0.02348">
        <ele>480.1</ele>
        <time>2020-09-12T20:43:26Z</time>
      </trkpt>
      <trkpt lat="43.12886" lon="-0.02349">
        <ele>479.7</ele>
        <time>2020-09-12T20:43:28Z</time>
      </trkpt>
      <trkpt lat="43.12882" lon="-0.02351">
        <ele>479</ele>
        <time>2020-09-12T20:43:30Z</time>
      </trkpt>
      <trkpt lat="43.12879" lon="-0.02354">
        <ele>478.4</ele>
        <time>2020-09-12T20:43:31Z</time>
      </trkpt>
      <trkpt lat="43.12876" lon="-0.02357">
        <ele>477.8</ele>
        <time>2020-09-12T20:43:33Z</time>
      </trkpt>
      <trkpt lat="43.12874" lon="-0.02361">
        <ele>477.1</ele>
        <time>2020-09-12T20:43:36Z</time>
      </trkpt>
      <trkpt lat="43.12872" lon="-0.02365">
        <ele>476.5</ele>
        <time>2020-09-12T20:43:38Z</time>
      </trkpt>
      <trkpt lat="43.12871" lon="-0.0237">
        <ele>475.8</ele>
        <time>2020-09-12T20:43:40Z</time>
      </trkpt>
      <trkpt lat="43.12869" lon="-0.02376">
        <ele>474.8</ele>
        <time>2020-09-12T20:43:42Z</time>
      </trkpt>
      <trkpt lat="43.12868" lon="-0.02382">
        <ele>473.8</ele>
        <time>2020-09-12T20:43:44Z</time>
      </trkpt>
      <trkpt lat="43.12868" lon="-0.02387">
        <ele>472.6</ele>
        <time>2020-09-12T20:43:46Z</time>
      </trkpt>
      <trkpt lat="43.12871" lon="-0.02391">
        <ele>471.2</ele>
        <time>2020-09-12T20:43:48Z</time>
      </trkpt>
      <trkpt lat="43.12873" lon="-0.02395">
        <ele>469.8</ele>
        <time>2020-09-12T20:43:52Z</time>
      </trkpt>
      <trkpt lat="43.12874" lon="-0.024">
        <ele>468.9</ele>
        <time>2020-09-12T20:43:54Z</time>
      </trkpt>
      <trkpt lat="43.12874" lon="-0.02405">
        <ele>467.7</ele>
        <time>2020-09-12T20:43:55Z</time>
      </trkpt>
      <trkpt lat="43.12874" lon="-0.02409">
        <ele>467</ele>
        <time>2020-09-12T20:43:56Z</time>
      </trkpt>
      <trkpt lat="43.12873" lon="-0.02414">
        <ele>466</ele>
        <time>2020-09-12T20:43:57Z</time>
      </trkpt>
      <trkpt lat="43.12873" lon="-0.02419">
        <ele>465.1</ele>
        <time>2020-09-12T20:43:58Z</time>
      </trkpt>
      <trkpt lat="43.12873" lon="-0.02427">
        <ele>463.9</ele>
        <time>2020-09-12T20:44:00Z</time>
      </trkpt>
      <trkpt lat="43.12873" lon="-0.02433">
        <ele>462.8</ele>
        <time>2020-09-12T20:44:01Z</time>
      </trkpt>
      <trkpt lat="43.12873" lon="-0.02437">
        <ele>462</ele>
        <time>2020-09-12T20:44:02Z</time>
      </trkpt>
      <trkpt lat="43.12872" lon="-0.02444">
        <ele>460.9</ele>
        <time>2020-09-12T20:44:03Z</time>
      </trkpt>
      <trkpt lat="43.12872" lon="-0.02452">
        <ele>460</ele>
        <time>2020-09-12T20:44:04Z</time>
      </trkpt>
      <trkpt lat="43.12871" lon="-0.02457">
        <ele>459.4</ele>
        <time>2020-09-12T20:44:05Z</time>
      </trkpt>
      <trkpt lat="43.12871" lon="-0.02464">
        <ele>458.7</ele>
        <time>2020-09-12T20:44:06Z</time>
      </trkpt>
      <trkpt lat="43.12871" lon="-0.02471">
        <ele>458.2</ele>
        <time>2020-09-12T20:44:07Z</time>
      </trkpt>
      <trkpt lat="43.12872" lon="-0.02477">
        <ele>457.6</ele>
        <time>2020-09-12T20:44:08Z</time>
      </trkpt>
      <trkpt lat="43.12872" lon="-0.02483">
        <ele>457</ele>
        <time>2020-09-12T20:44:09Z</time>
      </trkpt>
      <trkpt lat="43.1287" lon="-0.02489">
        <ele>456.4</ele>
        <time>2020-09-12T20:44:11Z</time>
      </trkpt>
      <trkpt lat="43.12868" lon="-0.02492">
        <ele>456.1</ele>
        <time>2020-09-12T20:44:12Z</time>
      </trkpt>
      <trkpt lat="43.12865" lon="-0.02495">
        <ele>455.7</ele>
        <time>2020-09-12T20:44:13Z</time>
      </trkpt>
      <trkpt lat="43.12862" lon="-0.02499">
        <ele>455.3</ele>
        <time>2020-09-12T20:44:14Z</time>
      </trkpt>
      <trkpt lat="43.1286" lon="-0.02501">
        <ele>455.1</ele>
        <time>2020-09-12T20:44:15Z</time>
      </trkpt>
      <trkpt lat="43.12858" lon="-0.02506">
        <ele>454.8</ele>
        <time>2020-09-12T20:44:17Z</time>
      </trkpt>
      <trkpt lat="43.1286" lon="-0.02509">
        <ele>454.6</ele>
        <time>2020-09-12T20:44:19Z</time>
      </trkpt>
      <trkpt lat="43.12861" lon="-0.02513">
        <ele>454.4</ele>
        <time>2020-09-12T20:44:20Z</time>
      </trkpt>
      <trkpt lat="43.12863" lon="-0.02516">
        <ele>454.2</ele>
        <time>2020-09-12T20:44:21Z</time>
      </trkpt>
      <trkpt lat="43.12866" lon="-0.02519">
        <ele>453.7</ele>
        <time>2020-09-12T20:44:22Z</time>
      </trkpt>
      <trkpt lat="43.12869" lon="-0.02522">
        <ele>453</ele>
        <time>2020-09-12T20:44:23Z</time>
      </trkpt>
      <trkpt lat="43.12872" lon="-0.02525">
        <ele>452.5</ele>
        <time>2020-09-12T20:44:24Z</time>
      </trkpt>
      <trkpt lat="43.12876" lon="-0.02527">
        <ele>451.6</ele>
        <time>2020-09-12T20:44:25Z</time>
      </trkpt>
      <trkpt lat="43.12881" lon="-0.0253">
        <ele>450.8</ele>
        <time>2020-09-12T20:44:26Z</time>
      </trkpt>
      <trkpt lat="43.12885" lon="-0.02533">
        <ele>450.1</ele>
        <time>2020-09-12T20:44:27Z</time>
      </trkpt>
      <trkpt lat="43.12891" lon="-0.02536">
        <ele>449.4</ele>
        <time>2020-09-12T20:44:28Z</time>
      </trkpt>
      <trkpt lat="43.12898" lon="-0.02539">
        <ele>448.7</ele>
        <time>2020-09-12T20:44:29Z</time>
      </trkpt>
      <trkpt lat="43.12905" lon="-0.02543">
        <ele>448</ele>
        <time>2020-09-12T20:44:30Z</time>
      </trkpt>
      <trkpt lat="43.12912" lon="-0.02547">
        <ele>447.5</ele>
        <time>2020-09-12T20:44:31Z</time>
      </trkpt>
      <trkpt lat="43.12919" lon="-0.02551">
        <ele>447</ele>
        <time>2020-09-12T20:44:32Z</time>
      </trkpt>
      <trkpt lat="43.12926" lon="-0.02554">
        <ele>446.6</ele>
        <time>2020-09-12T20:44:33Z</time>
      </trkpt>
      <trkpt lat="43.12933" lon="-0.02558">
        <ele>446.3</ele>
        <time>2020-09-12T20:44:34Z</time>
      </trkpt>
      <trkpt lat="43.1294" lon="-0.02562">
        <ele>445.9</ele>
        <time>2020-09-12T20:44:35Z</time>
      </trkpt>
      <trkpt lat="43.12948" lon="-0.02567">
        <ele>445.3</ele>
        <time>2020-09-12T20:44:36Z</time>
      </trkpt>
      <trkpt lat="43.12955" lon="-0.0257">
        <ele>444.5</ele>
        <time>2020-09-12T20:44:37Z</time>
      </trkpt>
      <trkpt lat="43.12962" lon="-0.02572">
        <ele>443</ele>
        <time>2020-09-12T20:44:38Z</time>
      </trkpt>
      <trkpt lat="43.1297" lon="-0.02573">
        <ele>442.5</ele>
        <time>2020-09-12T20:44:39Z</time>
      </trkpt>
      <trkpt lat="43.12978" lon="-0.02573">
        <ele>441.9</ele>
        <time>2020-09-12T20:44:40Z</time>
      </trkpt>
      <trkpt lat="43.12986" lon="-0.02573">
        <ele>441.4</ele>
        <time>2020-09-12T20:44:41Z</time>
      </trkpt>
      <trkpt lat="43.12993" lon="-0.02574">
        <ele>441</ele>
        <time>2020-09-12T20:44:42Z</time>
      </trkpt>
      <trkpt lat="43.13" lon="-0.02574">
        <ele>440.5</ele>
        <time>2020-09-12T20:44:43Z</time>
      </trkpt>
      <trkpt lat="43.13007" lon="-0.02573">
        <ele>439.9</ele>
        <time>2020-09-12T20:44:44Z</time>
      </trkpt>
      <trkpt lat="43.13015" lon="-0.02573">
        <ele>439.8</ele>
        <time>2020-09-12T20:44:45Z</time>
      </trkpt>
      <trkpt lat="43.13022" lon="-0.02575">
        <ele>439.8</ele>
        <time>2020-09-12T20:44:46Z</time>
      </trkpt>
      <trkpt lat="43.13029" lon="-0.02576">
        <ele>439.8</ele>
        <time>2020-09-12T20:44:47Z</time>
      </trkpt>
      <trkpt lat="43.13036" lon="-0.02577">
        <ele>439.8</ele>
        <time>2020-09-12T20:44:48Z</time>
      </trkpt>
      <trkpt lat="43.13043" lon="-0.0258">
        <ele>439.8</ele>
        <time>2020-09-12T20:44:49Z</time>
      </trkpt>
      <trkpt lat="43.13051" lon="-0.02582">
        <ele>439.8</ele>
        <time>2020-09-12T20:44:50Z</time>
      </trkpt>
      <trkpt lat="43.13058" lon="-0.02584">
        <ele>439.8</ele>
        <time>2020-09-12T20:44:51Z</time>
      </trkpt>
      <trkpt lat="43.13065" lon="-0.02586">
        <ele>439.8</ele>
        <time>2020-09-12T20:44:52Z</time>
      </trkpt>
      <trkpt lat="43.13072" lon="-0.02588">
        <ele>439.9</ele>
        <time>2020-09-12T20:44:53Z</time>
      </trkpt>
      <trkpt lat="43.13079" lon="-0.0259">
        <ele>439.9</ele>
        <time>2020-09-12T20:44:54Z</time>
      </trkpt>
      <trkpt lat="43.13086" lon="-0.02592">
        <ele>439.9</ele>
        <time>2020-09-12T20:44:55Z</time>
      </trkpt>
      <trkpt lat="43.13093" lon="-0.02594">
        <ele>439.9</ele>
        <time>2020-09-12T20:44:56Z</time>
      </trkpt>
      <trkpt lat="43.131" lon="-0.02595">
        <ele>439.9</ele>
        <time>2020-09-12T20:44:57Z</time>
      </trkpt>
      <trkpt lat="43.13107" lon="-0.02596">
        <ele>439.9</ele>
        <time>2020-09-12T20:44:58Z</time>
      </trkpt>
      <trkpt lat="43.13114" lon="-0.02598">
        <ele>439.8</ele>
        <time>2020-09-12T20:44:59Z</time>
      </trkpt>
      <trkpt lat="43.1312" lon="-0.02599">
        <ele>439.8</ele>
        <time>2020-09-12T20:45:00Z</time>
      </trkpt>
      <trkpt lat="43.13126" lon="-0.02601">
        <ele>439.7</ele>
        <time>2020-09-12T20:45:01Z</time>
      </trkpt>
      <trkpt lat="43.13133" lon="-0.02604">
        <ele>439.6</ele>
        <time>2020-09-12T20:45:02Z</time>
      </trkpt>
      <trkpt lat="43.13139" lon="-0.02608">
        <ele>439.6</ele>
        <time>2020-09-12T20:45:03Z</time>
      </trkpt>
      <trkpt lat="43.13146" lon="-0.02611">
        <ele>439.5</ele>
        <time>2020-09-12T20:45:04Z</time>
      </trkpt>
      <trkpt lat="43.13152" lon="-0.02615">
        <ele>439.4</ele>
        <time>2020-09-12T20:45:05Z</time>
      </trkpt>
      <trkpt lat="43.13159" lon="-0.02618">
        <ele>439.4</ele>
        <time>2020-09-12T20:45:06Z</time>
      </trkpt>
      <trkpt lat="43.13165" lon="-0.02623">
        <ele>439.3</ele>
        <time>2020-09-12T20:45:07Z</time>
      </trkpt>
      <trkpt lat="43.13172" lon="-0.02627">
        <ele>439.3</ele>
        <time>2020-09-12T20:45:08Z</time>
      </trkpt>
      <trkpt lat="43.13178" lon="-0.02631">
        <ele>439.3</ele>
        <time>2020-09-12T20:45:09Z</time>
      </trkpt>
      <trkpt lat="43.13185" lon="-0.02634">
        <ele>439.2</ele>
        <time>2020-09-12T20:45:10Z</time>
      </trkpt>
      <trkpt lat="43.13192" lon="-0.02637">
        <ele>439.2</ele>
        <time>2020-09-12T20:45:11Z</time>
      </trkpt>
      <trkpt lat="43.13199" lon="-0.0264">
        <ele>439.2</ele>
        <time>2020-09-12T20:45:12Z</time>
      </trkpt>
      <trkpt lat="43.13206" lon="-0.02644">
        <ele>439.2</ele>
        <time>2020-09-12T20:45:13Z</time>
      </trkpt>
      <trkpt lat="43.13213" lon="-0.02647">
        <ele>439.1</ele>
        <time>2020-09-12T20:45:14Z</time>
      </trkpt>
      <trkpt lat="43.13219" lon="-0.02651">
        <ele>438.3</ele>
        <time>2020-09-12T20:45:15Z</time>
      </trkpt>
      <trkpt lat="43.13226" lon="-0.02653">
        <ele>437.6</ele>
        <time>2020-09-12T20:45:16Z</time>
      </trkpt>
      <trkpt lat="43.13232" lon="-0.02656">
        <ele>437.1</ele>
        <time>2020-09-12T20:45:17Z</time>
      </trkpt>
      <trkpt lat="43.13238" lon="-0.0266">
        <ele>436.6</ele>
        <time>2020-09-12T20:45:18Z</time>
      </trkpt>
      <trkpt lat="43.13244" lon="-0.02664">
        <ele>436.2</ele>
        <time>2020-09-12T20:45:19Z</time>
      </trkpt>
      <trkpt lat="43.13249" lon="-0.02669">
        <ele>435.8</ele>
        <time>2020-09-12T20:45:20Z</time>
      </trkpt>
      <trkpt lat="43.13254" lon="-0.02673">
        <ele>435.5</ele>
        <time>2020-09-12T20:45:21Z</time>
      </trkpt>
      <trkpt lat="43.13258" lon="-0.02675">
        <ele>435.3</ele>
        <time>2020-09-12T20:45:22Z</time>
      </trkpt>
      <trkpt lat="43.13263" lon="-0.02675">
        <ele>434.4</ele>
        <time>2020-09-12T20:45:23Z</time>
      </trkpt>
      <trkpt lat="43.13268" lon="-0.02673">
        <ele>434.3</ele>
        <time>2020-09-12T20:45:24Z</time>
      </trkpt>
      <trkpt lat="43.13272" lon="-0.02671">
        <ele>434.2</ele>
        <time>2020-09-12T20:45:25Z</time>
      </trkpt>
      <trkpt lat="43.13277" lon="-0.02669">
        <ele>434</ele>
        <time>2020-09-12T20:45:26Z</time>
      </trkpt>
      <trkpt lat="43.13282" lon="-0.02666">
        <ele>433.9</ele>
        <time>2020-09-12T20:45:27Z</time>
      </trkpt>
      <trkpt lat="43.13288" lon="-0.02664">
        <ele>433.8</ele>
        <time>2020-09-12T20:45:28Z</time>
      </trkpt>
      <trkpt lat="43.13293" lon="-0.02662">
        <ele>433.6</ele>
        <time>2020-09-12T20:45:29Z</time>
      </trkpt>
      <trkpt lat="43.13299" lon="-0.0266">
        <ele>433.4</ele>
        <time>2020-09-12T20:45:30Z</time>
      </trkpt>
      <trkpt lat="43.13305" lon="-0.02658">
        <ele>433.3</ele>
        <time>2020-09-12T20:45:31Z</time>
      </trkpt>
      <trkpt lat="43.1331" lon="-0.02657">
        <ele>433.1</ele>
        <time>2020-09-12T20:45:32Z</time>
      </trkpt>
      <trkpt lat="43.13317" lon="-0.02655">
        <ele>432.9</ele>
        <time>2020-09-12T20:45:33Z</time>
      </trkpt>
      <trkpt lat="43.13323" lon="-0.02654">
        <ele>432.7</ele>
        <time>2020-09-12T20:45:34Z</time>
      </trkpt>
      <trkpt lat="43.13329" lon="-0.02653">
        <ele>432.5</ele>
        <time>2020-09-12T20:45:35Z</time>
      </trkpt>
      <trkpt lat="43.13335" lon="-0.02652">
        <ele>432.2</ele>
        <time>2020-09-12T20:45:36Z</time>
      </trkpt>
      <trkpt lat="43.13342" lon="-0.02651">
        <ele>432</ele>
        <time>2020-09-12T20:45:37Z</time>
      </trkpt>
      <trkpt lat="43.13348" lon="-0.02651">
        <ele>431.7</ele>
        <time>2020-09-12T20:45:38Z</time>
      </trkpt>
      <trkpt lat="43.13355" lon="-0.02651">
        <ele>431.5</ele>
        <time>2020-09-12T20:45:39Z</time>
      </trkpt>
      <trkpt lat="43.13362" lon="-0.02651">
        <ele>431.2</ele>
        <time>2020-09-12T20:45:40Z</time>
      </trkpt>
      <trkpt lat="43.13368" lon="-0.02651">
        <ele>431</ele>
        <time>2020-09-12T20:45:41Z</time>
      </trkpt>
      <trkpt lat="43.13375" lon="-0.02652">
        <ele>430.8</ele>
        <time>2020-09-12T20:45:42Z</time>
      </trkpt>
      <trkpt lat="43.13382" lon="-0.02653">
        <ele>430.6</ele>
        <time>2020-09-12T20:45:43Z</time>
      </trkpt>
      <trkpt lat="43.13389" lon="-0.02655">
        <ele>430.4</ele>
        <time>2020-09-12T20:45:44Z</time>
      </trkpt>
      <trkpt lat="43.13395" lon="-0.02656">
        <ele>430.3</ele>
        <time>2020-09-12T20:45:45Z</time>
      </trkpt>
      <trkpt lat="43.13402" lon="-0.02658">
        <ele>430.1</ele>
        <time>2020-09-12T20:45:46Z</time>
      </trkpt>
      <trkpt lat="43.13409" lon="-0.02659">
        <ele>430.1</ele>
        <time>2020-09-12T20:45:47Z</time>
      </trkpt>
      <trkpt lat="43.13416" lon="-0.02661">
        <ele>430.1</ele>
        <time>2020-09-12T20:45:48Z</time>
      </trkpt>
      <trkpt lat="43.13423" lon="-0.02662">
        <ele>430.1</ele>
        <time>2020-09-12T20:45:49Z</time>
      </trkpt>
      <trkpt lat="43.1343" lon="-0.02664">
        <ele>430.1</ele>
        <time>2020-09-12T20:45:50Z</time>
      </trkpt>
      <trkpt lat="43.13436" lon="-0.02665">
        <ele>430.1</ele>
        <time>2020-09-12T20:45:51Z</time>
      </trkpt>
      <trkpt lat="43.13442" lon="-0.02666">
        <ele>430.1</ele>
        <time>2020-09-12T20:45:52Z</time>
      </trkpt>
      <trkpt lat="43.13448" lon="-0.02667">
        <ele>430.1</ele>
        <time>2020-09-12T20:45:53Z</time>
      </trkpt>
      <trkpt lat="43.13454" lon="-0.02668">
        <ele>430.1</ele>
        <time>2020-09-12T20:45:54Z</time>
      </trkpt>
      <trkpt lat="43.13459" lon="-0.0267">
        <ele>430.1</ele>
        <time>2020-09-12T20:45:55Z</time>
      </trkpt>
      <trkpt lat="43.13464" lon="-0.02671">
        <ele>430.1</ele>
        <time>2020-09-12T20:45:56Z</time>
      </trkpt>
      <trkpt lat="43.13466" lon="-0.02674">
        <ele>430.1</ele>
        <time>2020-09-12T20:45:57Z</time>
      </trkpt>
      <trkpt lat="43.13468" lon="-0.02677">
        <ele>430.1</ele>
        <time>2020-09-12T20:45:58Z</time>
      </trkpt>
      <trkpt lat="43.13468" lon="-0.02682">
        <ele>430.2</ele>
        <time>2020-09-12T20:45:59Z</time>
      </trkpt>
      <trkpt lat="43.13471" lon="-0.02686">
        <ele>430.2</ele>
        <time>2020-09-12T20:46:00Z</time>
      </trkpt>
      <trkpt lat="43.13474" lon="-0.0269">
        <ele>430.3</ele>
        <time>2020-09-12T20:46:01Z</time>
      </trkpt>
      <trkpt lat="43.13475" lon="-0.02696">
        <ele>430.3</ele>
        <time>2020-09-12T20:46:02Z</time>
      </trkpt>
      <trkpt lat="43.13474" lon="-0.02701">
        <ele>430.3</ele>
        <time>2020-09-12T20:46:03Z</time>
      </trkpt>
      <trkpt lat="43.13472" lon="-0.02707">
        <ele>429.8</ele>
        <time>2020-09-12T20:46:04Z</time>
      </trkpt>
      <trkpt lat="43.13471" lon="-0.02714">
        <ele>429.5</ele>
        <time>2020-09-12T20:46:05Z</time>
      </trkpt>
      <trkpt lat="43.13471" lon="-0.02721">
        <ele>429.5</ele>
        <time>2020-09-12T20:46:06Z</time>
      </trkpt>
      <trkpt lat="43.13471" lon="-0.02728">
        <ele>429.4</ele>
        <time>2020-09-12T20:46:07Z</time>
      </trkpt>
      <trkpt lat="43.13471" lon="-0.02736">
        <ele>429.4</ele>
        <time>2020-09-12T20:46:08Z</time>
      </trkpt>
      <trkpt lat="43.1347" lon="-0.02743">
        <ele>429.4</ele>
        <time>2020-09-12T20:46:09Z</time>
      </trkpt>
      <trkpt lat="43.13469" lon="-0.0275">
        <ele>429.4</ele>
        <time>2020-09-12T20:46:10Z</time>
      </trkpt>
      <trkpt lat="43.13468" lon="-0.02757">
        <ele>429.3</ele>
        <time>2020-09-12T20:46:11Z</time>
      </trkpt>
      <trkpt lat="43.13467" lon="-0.02764">
        <ele>429.3</ele>
        <time>2020-09-12T20:46:12Z</time>
      </trkpt>
      <trkpt lat="43.13467" lon="-0.0277">
        <ele>429.3</ele>
        <time>2020-09-12T20:46:13Z</time>
      </trkpt>
      <trkpt lat="43.13468" lon="-0.02776">
        <ele>429.4</ele>
        <time>2020-09-12T20:46:14Z</time>
      </trkpt>
      <trkpt lat="43.13468" lon="-0.02783">
        <ele>429.4</ele>
        <time>2020-09-12T20:46:15Z</time>
      </trkpt>
      <trkpt lat="43.13467" lon="-0.0279">
        <ele>429.4</ele>
        <time>2020-09-12T20:46:16Z</time>
      </trkpt>
      <trkpt lat="43.13467" lon="-0.02796">
        <ele>429.4</ele>
        <time>2020-09-12T20:46:17Z</time>
      </trkpt>
      <trkpt lat="43.13466" lon="-0.02803">
        <ele>429.5</ele>
        <time>2020-09-12T20:46:18Z</time>
      </trkpt>
      <trkpt lat="43.13465" lon="-0.02809">
        <ele>429.5</ele>
        <time>2020-09-12T20:46:19Z</time>
      </trkpt>
      <trkpt lat="43.13464" lon="-0.02815">
        <ele>429.7</ele>
        <time>2020-09-12T20:46:20Z</time>
      </trkpt>
      <trkpt lat="43.13464" lon="-0.02821">
        <ele>429.8</ele>
        <time>2020-09-12T20:46:21Z</time>
      </trkpt>
      <trkpt lat="43.13464" lon="-0.02827">
        <ele>429.8</ele>
        <time>2020-09-12T20:46:22Z</time>
      </trkpt>
      <trkpt lat="43.13464" lon="-0.02833">
        <ele>429.8</ele>
        <time>2020-09-12T20:46:23Z</time>
      </trkpt>
      <trkpt lat="43.13464" lon="-0.02838">
        <ele>429.8</ele>
        <time>2020-09-12T20:46:24Z</time>
      </trkpt>
      <trkpt lat="43.13464" lon="-0.02843">
        <ele>429.9</ele>
        <time>2020-09-12T20:46:25Z</time>
      </trkpt>
      <trkpt lat="43.13464" lon="-0.02848">
        <ele>429.9</ele>
        <time>2020-09-12T20:46:26Z</time>
      </trkpt>
      <trkpt lat="43.13464" lon="-0.02853">
        <ele>429.9</ele>
        <time>2020-09-12T20:46:27Z</time>
      </trkpt>
      <trkpt lat="43.13463" lon="-0.02858">
        <ele>429.9</ele>
        <time>2020-09-12T20:46:29Z</time>
      </trkpt>
      <trkpt lat="43.1346" lon="-0.02861">
        <ele>430.3</ele>
        <time>2020-09-12T20:46:30Z</time>
      </trkpt>
      <trkpt lat="43.13457" lon="-0.02864">
        <ele>430.4</ele>
        <time>2020-09-12T20:46:31Z</time>
      </trkpt>
      <trkpt lat="43.13453" lon="-0.02865">
        <ele>430.6</ele>
        <time>2020-09-12T20:46:32Z</time>
      </trkpt>
      <trkpt lat="43.13449" lon="-0.02866">
        <ele>430.7</ele>
        <time>2020-09-12T20:46:33Z</time>
      </trkpt>
      <trkpt lat="43.13445" lon="-0.02866">
        <ele>430.8</ele>
        <time>2020-09-12T20:46:34Z</time>
      </trkpt>
      <trkpt lat="43.13441" lon="-0.02866">
        <ele>431</ele>
        <time>2020-09-12T20:46:35Z</time>
      </trkpt>
      <trkpt lat="43.13436" lon="-0.02866">
        <ele>431.1</ele>
        <time>2020-09-12T20:46:36Z</time>
      </trkpt>
      <trkpt lat="43.13432" lon="-0.02865">
        <ele>431.3</ele>
        <time>2020-09-12T20:46:37Z</time>
      </trkpt>
      <trkpt lat="43.13428" lon="-0.02865">
        <ele>431.4</ele>
        <time>2020-09-12T20:46:38Z</time>
      </trkpt>
      <trkpt lat="43.13424" lon="-0.02867">
        <ele>431.6</ele>
        <time>2020-09-12T20:46:39Z</time>
      </trkpt>
      <trkpt lat="43.13421" lon="-0.0287">
        <ele>431.7</ele>
        <time>2020-09-12T20:46:40Z</time>
      </trkpt>
      <trkpt lat="43.13419" lon="-0.02875">
        <ele>431.7</ele>
        <time>2020-09-12T20:46:41Z</time>
      </trkpt>
      <trkpt lat="43.13417" lon="-0.02879">
        <ele>431.7</ele>
        <time>2020-09-12T20:46:42Z</time>
      </trkpt>
      <trkpt lat="43.13416" lon="-0.02886">
        <ele>431.7</ele>
        <time>2020-09-12T20:46:43Z</time>
      </trkpt>
      <trkpt lat="43.13415" lon="-0.02893">
        <ele>431.5</ele>
        <time>2020-09-12T20:46:44Z</time>
      </trkpt>
      <trkpt lat="43.13414" lon="-0.02901">
        <ele>431.4</ele>
        <time>2020-09-12T20:46:45Z</time>
      </trkpt>
      <trkpt lat="43.13413" lon="-0.0291">
        <ele>431.2</ele>
        <time>2020-09-12T20:46:46Z</time>
      </trkpt>
      <trkpt lat="43.13413" lon="-0.02921">
        <ele>431.1</ele>
        <time>2020-09-12T20:46:47Z</time>
      </trkpt>
      <trkpt lat="43.13414" lon="-0.02931">
        <ele>430.9</ele>
        <time>2020-09-12T20:46:48Z</time>
      </trkpt>
      <trkpt lat="43.13415" lon="-0.02941">
        <ele>430.6</ele>
        <time>2020-09-12T20:46:49Z</time>
      </trkpt>
      <trkpt lat="43.13419" lon="-0.02948">
        <ele>430.5</ele>
        <time>2020-09-12T20:46:50Z</time>
      </trkpt>
      <trkpt lat="43.13423" lon="-0.02959">
        <ele>430.4</ele>
        <time>2020-09-12T20:46:51Z</time>
      </trkpt>
      <trkpt lat="43.13428" lon="-0.02968">
        <ele>430.2</ele>
        <time>2020-09-12T20:46:52Z</time>
      </trkpt>
      <trkpt lat="43.13431" lon="-0.02976">
        <ele>430</ele>
        <time>2020-09-12T20:46:53Z</time>
      </trkpt>
      <trkpt lat="43.13434" lon="-0.02985">
        <ele>429.8</ele>
        <time>2020-09-12T20:46:54Z</time>
      </trkpt>
      <trkpt lat="43.13436" lon="-0.02992">
        <ele>429.6</ele>
        <time>2020-09-12T20:46:55Z</time>
      </trkpt>
      <trkpt lat="43.13439" lon="-0.03001">
        <ele>429.4</ele>
        <time>2020-09-12T20:46:56Z</time>
      </trkpt>
      <trkpt lat="43.13443" lon="-0.03008">
        <ele>429.2</ele>
        <time>2020-09-12T20:46:57Z</time>
      </trkpt>
      <trkpt lat="43.13445" lon="-0.03014">
        <ele>429</ele>
        <time>2020-09-12T20:46:58Z</time>
      </trkpt>
      <trkpt lat="43.13447" lon="-0.03021">
        <ele>428.9</ele>
        <time>2020-09-12T20:46:59Z</time>
      </trkpt>
      <trkpt lat="43.1345" lon="-0.03028">
        <ele>428.8</ele>
        <time>2020-09-12T20:47:00Z</time>
      </trkpt>
      <trkpt lat="43.13451" lon="-0.03034">
        <ele>428.7</ele>
        <time>2020-09-12T20:47:01Z</time>
      </trkpt>
      <trkpt lat="43.13452" lon="-0.0304">
        <ele>428.6</ele>
        <time>2020-09-12T20:47:02Z</time>
      </trkpt>
      <trkpt lat="43.13454" lon="-0.03046">
        <ele>428.6</ele>
        <time>2020-09-12T20:47:03Z</time>
      </trkpt>
      <trkpt lat="43.13456" lon="-0.03052">
        <ele>428.6</ele>
        <time>2020-09-12T20:47:04Z</time>
      </trkpt>
      <trkpt lat="43.13458" lon="-0.03057">
        <ele>428.6</ele>
        <time>2020-09-12T20:47:05Z</time>
      </trkpt>
      <trkpt lat="43.13462" lon="-0.03061">
        <ele>428.5</ele>
        <time>2020-09-12T20:47:06Z</time>
      </trkpt>
      <trkpt lat="43.13467" lon="-0.03064">
        <ele>428.4</ele>
        <time>2020-09-12T20:47:07Z</time>
      </trkpt>
      <trkpt lat="43.13473" lon="-0.03067">
        <ele>428.1</ele>
        <time>2020-09-12T20:47:08Z</time>
      </trkpt>
      <trkpt lat="43.1348" lon="-0.03069">
        <ele>427.8</ele>
        <time>2020-09-12T20:47:09Z</time>
      </trkpt>
      <trkpt lat="43.13488" lon="-0.03071">
        <ele>427.4</ele>
        <time>2020-09-12T20:47:10Z</time>
      </trkpt>
      <trkpt lat="43.13495" lon="-0.03073">
        <ele>427.1</ele>
        <time>2020-09-12T20:47:11Z</time>
      </trkpt>
      <trkpt lat="43.13503" lon="-0.03075">
        <ele>426.8</ele>
        <time>2020-09-12T20:47:12Z</time>
      </trkpt>
      <trkpt lat="43.13511" lon="-0.03078">
        <ele>426.6</ele>
        <time>2020-09-12T20:47:13Z</time>
      </trkpt>
      <trkpt lat="43.1352" lon="-0.0308">
        <ele>426.4</ele>
        <time>2020-09-12T20:47:14Z</time>
      </trkpt>
      <trkpt lat="43.13528" lon="-0.03082">
        <ele>426.3</ele>
        <time>2020-09-12T20:47:15Z</time>
      </trkpt>
      <trkpt lat="43.13537" lon="-0.03085">
        <ele>426</ele>
        <time>2020-09-12T20:47:16Z</time>
      </trkpt>
      <trkpt lat="43.13545" lon="-0.03087">
        <ele>425.6</ele>
        <time>2020-09-12T20:47:17Z</time>
      </trkpt>
      <trkpt lat="43.13554" lon="-0.0309">
        <ele>425.2</ele>
        <time>2020-09-12T20:47:18Z</time>
      </trkpt>
      <trkpt lat="43.13563" lon="-0.03093">
        <ele>424.8</ele>
        <time>2020-09-12T20:47:19Z</time>
      </trkpt>
      <trkpt lat="43.13572" lon="-0.03095">
        <ele>424.5</ele>
        <time>2020-09-12T20:47:20Z</time>
      </trkpt>
      <trkpt lat="43.13581" lon="-0.03097">
        <ele>424.3</ele>
        <time>2020-09-12T20:47:21Z</time>
      </trkpt>
      <trkpt lat="43.13589" lon="-0.03099">
        <ele>424.2</ele>
        <time>2020-09-12T20:47:22Z</time>
      </trkpt>
      <trkpt lat="43.13597" lon="-0.03101">
        <ele>424.1</ele>
        <time>2020-09-12T20:47:23Z</time>
      </trkpt>
      <trkpt lat="43.13606" lon="-0.03104">
        <ele>423.9</ele>
        <time>2020-09-12T20:47:24Z</time>
      </trkpt>
      <trkpt lat="43.13614" lon="-0.03106">
        <ele>423.5</ele>
        <time>2020-09-12T20:47:25Z</time>
      </trkpt>
      <trkpt lat="43.13622" lon="-0.03108">
        <ele>422.9</ele>
        <time>2020-09-12T20:47:26Z</time>
      </trkpt>
      <trkpt lat="43.1363" lon="-0.0311">
        <ele>422</ele>
        <time>2020-09-12T20:47:27Z</time>
      </trkpt>
      <trkpt lat="43.13639" lon="-0.03112">
        <ele>421.8</ele>
        <time>2020-09-12T20:47:28Z</time>
      </trkpt>
      <trkpt lat="43.13647" lon="-0.03114">
        <ele>421.5</ele>
        <time>2020-09-12T20:47:29Z</time>
      </trkpt>
      <trkpt lat="43.13655" lon="-0.03116">
        <ele>421.3</ele>
        <time>2020-09-12T20:47:30Z</time>
      </trkpt>
      <trkpt lat="43.13664" lon="-0.03117">
        <ele>421</ele>
        <time>2020-09-12T20:47:31Z</time>
      </trkpt>
      <trkpt lat="43.13673" lon="-0.03114">
        <ele>420.6</ele>
        <time>2020-09-12T20:47:32Z</time>
      </trkpt>
      <trkpt lat="43.13681" lon="-0.03111">
        <ele>420.3</ele>
        <time>2020-09-12T20:47:33Z</time>
      </trkpt>
      <trkpt lat="43.1369" lon="-0.03106">
        <ele>420</ele>
        <time>2020-09-12T20:47:34Z</time>
      </trkpt>
      <trkpt lat="43.13697" lon="-0.03101">
        <ele>419.8</ele>
        <time>2020-09-12T20:47:35Z</time>
      </trkpt>
      <trkpt lat="43.13704" lon="-0.03096">
        <ele>419.6</ele>
        <time>2020-09-12T20:47:36Z</time>
      </trkpt>
      <trkpt lat="43.13711" lon="-0.03093">
        <ele>419.4</ele>
        <time>2020-09-12T20:47:37Z</time>
      </trkpt>
      <trkpt lat="43.13718" lon="-0.03091">
        <ele>419</ele>
        <time>2020-09-12T20:47:38Z</time>
      </trkpt>
      <trkpt lat="43.13725" lon="-0.03091">
        <ele>418.6</ele>
        <time>2020-09-12T20:47:39Z</time>
      </trkpt>
      <trkpt lat="43.13732" lon="-0.03092">
        <ele>418.1</ele>
        <time>2020-09-12T20:47:40Z</time>
      </trkpt>
      <trkpt lat="43.13739" lon="-0.03093">
        <ele>417.7</ele>
        <time>2020-09-12T20:47:41Z</time>
      </trkpt>
      <trkpt lat="43.13746" lon="-0.03094">
        <ele>417.4</ele>
        <time>2020-09-12T20:47:42Z</time>
      </trkpt>
      <trkpt lat="43.13753" lon="-0.03094">
        <ele>417</ele>
        <time>2020-09-12T20:47:43Z</time>
      </trkpt>
      <trkpt lat="43.1376" lon="-0.03094">
        <ele>416.6</ele>
        <time>2020-09-12T20:47:44Z</time>
      </trkpt>
      <trkpt lat="43.13766" lon="-0.03093">
        <ele>416.4</ele>
        <time>2020-09-12T20:47:45Z</time>
      </trkpt>
      <trkpt lat="43.13772" lon="-0.03091">
        <ele>416.2</ele>
        <time>2020-09-12T20:47:46Z</time>
      </trkpt>
      <trkpt lat="43.13776" lon="-0.0309">
        <ele>415.8</ele>
        <time>2020-09-12T20:47:47Z</time>
      </trkpt>
      <trkpt lat="43.13781" lon="-0.0309">
        <ele>415.8</ele>
        <time>2020-09-12T20:47:48Z</time>
      </trkpt>
      <trkpt lat="43.13787" lon="-0.03091">
        <ele>415.8</ele>
        <time>2020-09-12T20:47:49Z</time>
      </trkpt>
      <trkpt lat="43.13793" lon="-0.03093">
        <ele>415.9</ele>
        <time>2020-09-12T20:47:50Z</time>
      </trkpt>
      <trkpt lat="43.138" lon="-0.03096">
        <ele>415.9</ele>
        <time>2020-09-12T20:47:51Z</time>
      </trkpt>
      <trkpt lat="43.13806" lon="-0.03099">
        <ele>415.9</ele>
        <time>2020-09-12T20:47:52Z</time>
      </trkpt>
      <trkpt lat="43.13813" lon="-0.03103">
        <ele>416</ele>
        <time>2020-09-12T20:47:53Z</time>
      </trkpt>
      <trkpt lat="43.1382" lon="-0.03106">
        <ele>416</ele>
        <time>2020-09-12T20:47:54Z</time>
      </trkpt>
      <trkpt lat="43.13826" lon="-0.03111">
        <ele>416</ele>
        <time>2020-09-12T20:47:55Z</time>
      </trkpt>
      <trkpt lat="43.13832" lon="-0.03116">
        <ele>416</ele>
        <time>2020-09-12T20:47:56Z</time>
      </trkpt>
      <trkpt lat="43.13839" lon="-0.03121">
        <ele>416.1</ele>
        <time>2020-09-12T20:47:57Z</time>
      </trkpt>
      <trkpt lat="43.13845" lon="-0.03125">
        <ele>416.1</ele>
        <time>2020-09-12T20:47:58Z</time>
      </trkpt>
      <trkpt lat="43.13851" lon="-0.0313">
        <ele>416.1</ele>
        <time>2020-09-12T20:47:59Z</time>
      </trkpt>
      <trkpt lat="43.13858" lon="-0.03135">
        <ele>416.2</ele>
        <time>2020-09-12T20:48:00Z</time>
      </trkpt>
      <trkpt lat="43.13864" lon="-0.0314">
        <ele>416.2</ele>
        <time>2020-09-12T20:48:01Z</time>
      </trkpt>
      <trkpt lat="43.1387" lon="-0.03145">
        <ele>416.2</ele>
        <time>2020-09-12T20:48:02Z</time>
      </trkpt>
      <trkpt lat="43.13876" lon="-0.03149">
        <ele>416.3</ele>
        <time>2020-09-12T20:48:03Z</time>
      </trkpt>
      <trkpt lat="43.13882" lon="-0.03154">
        <ele>416.2</ele>
        <time>2020-09-12T20:48:04Z</time>
      </trkpt>
      <trkpt lat="43.13888" lon="-0.03159">
        <ele>416.2</ele>
        <time>2020-09-12T20:48:05Z</time>
      </trkpt>
      <trkpt lat="43.13892" lon="-0.03166">
        <ele>416.1</ele>
        <time>2020-09-12T20:48:06Z</time>
      </trkpt>
      <trkpt lat="43.13896" lon="-0.03174">
        <ele>415.9</ele>
        <time>2020-09-12T20:48:07Z</time>
      </trkpt>
      <trkpt lat="43.13897" lon="-0.03182">
        <ele>415.7</ele>
        <time>2020-09-12T20:48:08Z</time>
      </trkpt>
      <trkpt lat="43.13896" lon="-0.03191">
        <ele>415.6</ele>
        <time>2020-09-12T20:48:09Z</time>
      </trkpt>
      <trkpt lat="43.13894" lon="-0.03199">
        <ele>415.6</ele>
        <time>2020-09-12T20:48:10Z</time>
      </trkpt>
      <trkpt lat="43.13893" lon="-0.03207">
        <ele>415.7</ele>
        <time>2020-09-12T20:48:11Z</time>
      </trkpt>
      <trkpt lat="43.1389" lon="-0.03213">
        <ele>415.8</ele>
        <time>2020-09-12T20:48:12Z</time>
      </trkpt>
      <trkpt lat="43.13889" lon="-0.03219">
        <ele>415.9</ele>
        <time>2020-09-12T20:48:13Z</time>
      </trkpt>
      <trkpt lat="43.13894" lon="-0.03224">
        <ele>416.1</ele>
        <time>2020-09-12T20:48:14Z</time>
      </trkpt>
      <trkpt lat="43.139" lon="-0.03229">
        <ele>416.2</ele>
        <time>2020-09-12T20:48:15Z</time>
      </trkpt>
      <trkpt lat="43.13909" lon="-0.0323">
        <ele>416.2</ele>
        <time>2020-09-12T20:48:16Z</time>
      </trkpt>
      <trkpt lat="43.13916" lon="-0.03231">
        <ele>416.2</ele>
        <time>2020-09-12T20:48:17Z</time>
      </trkpt>
      <trkpt lat="43.13923" lon="-0.03232">
        <ele>416.1</ele>
        <time>2020-09-12T20:48:18Z</time>
      </trkpt>
      <trkpt lat="43.1393" lon="-0.03233">
        <ele>415.9</ele>
        <time>2020-09-12T20:48:19Z</time>
      </trkpt>
      <trkpt lat="43.13937" lon="-0.03235">
        <ele>415.7</ele>
        <time>2020-09-12T20:48:20Z</time>
      </trkpt>
      <trkpt lat="43.13944" lon="-0.03236">
        <ele>415.6</ele>
        <time>2020-09-12T20:48:21Z</time>
      </trkpt>
      <trkpt lat="43.13951" lon="-0.03236">
        <ele>415.6</ele>
        <time>2020-09-12T20:48:22Z</time>
      </trkpt>
      <trkpt lat="43.13958" lon="-0.03237">
        <ele>415.5</ele>
        <time>2020-09-12T20:48:23Z</time>
      </trkpt>
      <trkpt lat="43.13965" lon="-0.03238">
        <ele>415.5</ele>
        <time>2020-09-12T20:48:24Z</time>
      </trkpt>
      <trkpt lat="43.13972" lon="-0.03239">
        <ele>415.5</ele>
        <time>2020-09-12T20:48:25Z</time>
      </trkpt>
      <trkpt lat="43.13978" lon="-0.03239">
        <ele>415.5</ele>
        <time>2020-09-12T20:48:26Z</time>
      </trkpt>
      <trkpt lat="43.13985" lon="-0.0324">
        <ele>415.5</ele>
        <time>2020-09-12T20:48:27Z</time>
      </trkpt>
      <trkpt lat="43.13992" lon="-0.0324">
        <ele>415.5</ele>
        <time>2020-09-12T20:48:28Z</time>
      </trkpt>
      <trkpt lat="43.13999" lon="-0.0324">
        <ele>415.5</ele>
        <time>2020-09-12T20:48:29Z</time>
      </trkpt>
      <trkpt lat="43.14006" lon="-0.0324">
        <ele>415.5</ele>
        <time>2020-09-12T20:48:30Z</time>
      </trkpt>
      <trkpt lat="43.14013" lon="-0.03239">
        <ele>415.4</ele>
        <time>2020-09-12T20:48:31Z</time>
      </trkpt>
      <trkpt lat="43.1402" lon="-0.03239">
        <ele>415.2</ele>
        <time>2020-09-12T20:48:32Z</time>
      </trkpt>
      <trkpt lat="43.14027" lon="-0.03238">
        <ele>414.9</ele>
        <time>2020-09-12T20:48:33Z</time>
      </trkpt>
      <trkpt lat="43.14034" lon="-0.03237">
        <ele>414.7</ele>
        <time>2020-09-12T20:48:34Z</time>
      </trkpt>
      <trkpt lat="43.14041" lon="-0.03236">
        <ele>414.4</ele>
        <time>2020-09-12T20:48:35Z</time>
      </trkpt>
      <trkpt lat="43.14048" lon="-0.03235">
        <ele>414.2</ele>
        <time>2020-09-12T20:48:36Z</time>
      </trkpt>
      <trkpt lat="43.14054" lon="-0.03234">
        <ele>413.9</ele>
        <time>2020-09-12T20:48:37Z</time>
      </trkpt>
      <trkpt lat="43.14061" lon="-0.03232">
        <ele>413.8</ele>
        <time>2020-09-12T20:48:38Z</time>
      </trkpt>
      <trkpt lat="43.14067" lon="-0.03231">
        <ele>413.7</ele>
        <time>2020-09-12T20:48:39Z</time>
      </trkpt>
      <trkpt lat="43.14073" lon="-0.0323">
        <ele>413.6</ele>
        <time>2020-09-12T20:48:40Z</time>
      </trkpt>
      <trkpt lat="43.14079" lon="-0.03229">
        <ele>413.6</ele>
        <time>2020-09-12T20:48:41Z</time>
      </trkpt>
      <trkpt lat="43.14085" lon="-0.03227">
        <ele>413.6</ele>
        <time>2020-09-12T20:48:42Z</time>
      </trkpt>
      <trkpt lat="43.14091" lon="-0.03225">
        <ele>413.6</ele>
        <time>2020-09-12T20:48:43Z</time>
      </trkpt>
      <trkpt lat="43.14097" lon="-0.03223">
        <ele>413.5</ele>
        <time>2020-09-12T20:48:44Z</time>
      </trkpt>
      <trkpt lat="43.14103" lon="-0.03222">
        <ele>413.5</ele>
        <time>2020-09-12T20:48:45Z</time>
      </trkpt>
      <trkpt lat="43.14108" lon="-0.03223">
        <ele>413.5</ele>
        <time>2020-09-12T20:48:46Z</time>
      </trkpt>
      <trkpt lat="43.14114" lon="-0.03226">
        <ele>413.7</ele>
        <time>2020-09-12T20:48:47Z</time>
      </trkpt>
      <trkpt lat="43.14119" lon="-0.0323">
        <ele>414</ele>
        <time>2020-09-12T20:48:48Z</time>
      </trkpt>
      <trkpt lat="43.14125" lon="-0.03233">
        <ele>414.2</ele>
        <time>2020-09-12T20:48:49Z</time>
      </trkpt>
      <trkpt lat="43.14131" lon="-0.03236">
        <ele>414.4</ele>
        <time>2020-09-12T20:48:50Z</time>
      </trkpt>
      <trkpt lat="43.14136" lon="-0.0324">
        <ele>414.6</ele>
        <time>2020-09-12T20:48:51Z</time>
      </trkpt>
      <trkpt lat="43.14141" lon="-0.03244">
        <ele>414.8</ele>
        <time>2020-09-12T20:48:52Z</time>
      </trkpt>
      <trkpt lat="43.14146" lon="-0.03249">
        <ele>414.9</ele>
        <time>2020-09-12T20:48:53Z</time>
      </trkpt>
      <trkpt lat="43.14151" lon="-0.03253">
        <ele>415.1</ele>
        <time>2020-09-12T20:48:54Z</time>
      </trkpt>
      <trkpt lat="43.14155" lon="-0.03257">
        <ele>415.3</ele>
        <time>2020-09-12T20:48:55Z</time>
      </trkpt>
      <trkpt lat="43.14159" lon="-0.03262">
        <ele>415.5</ele>
        <time>2020-09-12T20:48:56Z</time>
      </trkpt>
      <trkpt lat="43.14161" lon="-0.03268">
        <ele>415.7</ele>
        <time>2020-09-12T20:48:57Z</time>
      </trkpt>
      <trkpt lat="43.14164" lon="-0.03273">
        <ele>415.8</ele>
        <time>2020-09-12T20:48:58Z</time>
      </trkpt>
      <trkpt lat="43.14166" lon="-0.03279">
        <ele>416</ele>
        <time>2020-09-12T20:48:59Z</time>
      </trkpt>
      <trkpt lat="43.14167" lon="-0.03284">
        <ele>416.1</ele>
        <time>2020-09-12T20:49:00Z</time>
      </trkpt>
      <trkpt lat="43.14168" lon="-0.03291">
        <ele>416.3</ele>
        <time>2020-09-12T20:49:01Z</time>
      </trkpt>
      <trkpt lat="43.1417" lon="-0.03297">
        <ele>416.5</ele>
        <time>2020-09-12T20:49:02Z</time>
      </trkpt>
      <trkpt lat="43.14171" lon="-0.03303">
        <ele>416.7</ele>
        <time>2020-09-12T20:49:03Z</time>
      </trkpt>
      <trkpt lat="43.14172" lon="-0.0331">
        <ele>416.8</ele>
        <time>2020-09-12T20:49:04Z</time>
      </trkpt>
      <trkpt lat="43.14173" lon="-0.03315">
        <ele>416.9</ele>
        <time>2020-09-12T20:49:05Z</time>
      </trkpt>
      <trkpt lat="43.14173" lon="-0.0332">
        <ele>417</ele>
        <time>2020-09-12T20:49:06Z</time>
      </trkpt>
      <trkpt lat="43.14174" lon="-0.03324">
        <ele>417.1</ele>
        <time>2020-09-12T20:49:07Z</time>
      </trkpt>
      <trkpt lat="43.14175" lon="-0.03329">
        <ele>417.3</ele>
        <time>2020-09-12T20:49:08Z</time>
      </trkpt>
      <trkpt lat="43.14174" lon="-0.03335">
        <ele>417.6</ele>
        <time>2020-09-12T20:49:10Z</time>
      </trkpt>
      <trkpt lat="43.14172" lon="-0.03338">
        <ele>417.6</ele>
        <time>2020-09-12T20:49:12Z</time>
      </trkpt>
      <trkpt lat="43.1417" lon="-0.03342">
        <ele>417.6</ele>
        <time>2020-09-12T20:49:14Z</time>
      </trkpt>
      <trkpt lat="43.14167" lon="-0.03345">
        <ele>417.7</ele>
        <time>2020-09-12T20:49:16Z</time>
      </trkpt>
      <trkpt lat="43.14166" lon="-0.03349">
        <ele>417.8</ele>
        <time>2020-09-12T20:49:18Z</time>
      </trkpt>
      <trkpt lat="43.14164" lon="-0.03354">
        <ele>417.8</ele>
        <time>2020-09-12T20:49:20Z</time>
      </trkpt>
      <trkpt lat="43.14162" lon="-0.03359">
        <ele>417.9</ele>
        <time>2020-09-12T20:49:22Z</time>
      </trkpt>
      <trkpt lat="43.1416" lon="-0.03365">
        <ele>418.1</ele>
        <time>2020-09-12T20:49:24Z</time>
      </trkpt>
      <trkpt lat="43.14159" lon="-0.03369">
        <ele>418.2</ele>
        <time>2020-09-12T20:49:25Z</time>
      </trkpt>
      <trkpt lat="43.14157" lon="-0.03373">
        <ele>418.3</ele>
        <time>2020-09-12T20:49:26Z</time>
      </trkpt>
      <trkpt lat="43.14156" lon="-0.03376">
        <ele>418.4</ele>
        <time>2020-09-12T20:49:27Z</time>
      </trkpt>
      <trkpt lat="43.14154" lon="-0.03381">
        <ele>418.5</ele>
        <time>2020-09-12T20:49:29Z</time>
      </trkpt>
      <trkpt lat="43.14151" lon="-0.03387">
        <ele>418.7</ele>
        <time>2020-09-12T20:49:31Z</time>
      </trkpt>
      <trkpt lat="43.14147" lon="-0.03393">
        <ele>418.9</ele>
        <time>2020-09-12T20:49:33Z</time>
      </trkpt>
      <trkpt lat="43.14145" lon="-0.03397">
        <ele>419</ele>
        <time>2020-09-12T20:49:34Z</time>
      </trkpt>
      <trkpt lat="43.14143" lon="-0.034">
        <ele>419.2</ele>
        <time>2020-09-12T20:49:35Z</time>
      </trkpt>
      <trkpt lat="43.14141" lon="-0.03403">
        <ele>419.4</ele>
        <time>2020-09-12T20:49:36Z</time>
      </trkpt>
      <trkpt lat="43.14137" lon="-0.03406">
        <ele>419.7</ele>
        <time>2020-09-12T20:49:38Z</time>
      </trkpt>
      <trkpt lat="43.14133" lon="-0.03408">
        <ele>420</ele>
        <time>2020-09-12T20:49:40Z</time>
      </trkpt>
      <trkpt lat="43.14129" lon="-0.0341">
        <ele>420.4</ele>
        <time>2020-09-12T20:49:42Z</time>
      </trkpt>
      <trkpt lat="43.14124" lon="-0.03411">
        <ele>421</ele>
        <time>2020-09-12T20:49:44Z</time>
      </trkpt>
      <trkpt lat="43.1412" lon="-0.03411">
        <ele>421.3</ele>
        <time>2020-09-12T20:49:46Z</time>
      </trkpt>
      <trkpt lat="43.14116" lon="-0.03412">
        <ele>421.7</ele>
        <time>2020-09-12T20:49:48Z</time>
      </trkpt>
      <trkpt lat="43.14112" lon="-0.03412">
        <ele>422.2</ele>
        <time>2020-09-12T20:49:50Z</time>
      </trkpt>
      <trkpt lat="43.14108" lon="-0.03413">
        <ele>422.7</ele>
        <time>2020-09-12T20:49:52Z</time>
      </trkpt>
      <trkpt lat="43.14103" lon="-0.03414">
        <ele>423.2</ele>
        <time>2020-09-12T20:49:54Z</time>
      </trkpt>
      <trkpt lat="43.141" lon="-0.03414">
        <ele>423.7</ele>
        <time>2020-09-12T20:49:56Z</time>
      </trkpt>
      <trkpt lat="43.14096" lon="-0.03415">
        <ele>424.1</ele>
        <time>2020-09-12T20:49:58Z</time>
      </trkpt>
      <trkpt lat="43.14092" lon="-0.03417">
        <ele>424.5</ele>
        <time>2020-09-12T20:50:00Z</time>
      </trkpt>
      <trkpt lat="43.14087" lon="-0.03418">
        <ele>425.1</ele>
        <time>2020-09-12T20:50:02Z</time>
      </trkpt>
      <trkpt lat="43.14083" lon="-0.0342">
        <ele>425.8</ele>
        <time>2020-09-12T20:50:04Z</time>
      </trkpt>
      <trkpt lat="43.14081" lon="-0.03423">
        <ele>426.3</ele>
        <time>2020-09-12T20:50:07Z</time>
      </trkpt>
      <trkpt lat="43.14078" lon="-0.03427">
        <ele>426.7</ele>
        <time>2020-09-12T20:50:09Z</time>
      </trkpt>
      <trkpt lat="43.14076" lon="-0.0343">
        <ele>427.1</ele>
        <time>2020-09-12T20:50:11Z</time>
      </trkpt>
      <trkpt lat="43.14074" lon="-0.03433">
        <ele>427.5</ele>
        <time>2020-09-12T20:50:13Z</time>
      </trkpt>
      <trkpt lat="43.14072" lon="-0.03436">
        <ele>428</ele>
        <time>2020-09-12T20:50:15Z</time>
      </trkpt>
      <trkpt lat="43.1407" lon="-0.0344">
        <ele>428.3</ele>
        <time>2020-09-12T20:50:17Z</time>
      </trkpt>
      <trkpt lat="43.14068" lon="-0.03443">
        <ele>428.6</ele>
        <time>2020-09-12T20:50:19Z</time>
      </trkpt>
      <trkpt lat="43.14066" lon="-0.03447">
        <ele>428.9</ele>
        <time>2020-09-12T20:50:22Z</time>
      </trkpt>
      <trkpt lat="43.14064" lon="-0.03451">
        <ele>429.2</ele>
        <time>2020-09-12T20:50:24Z</time>
      </trkpt>
      <trkpt lat="43.1406" lon="-0.03457">
        <ele>429.8</ele>
        <time>2020-09-12T20:50:26Z</time>
      </trkpt>
      <trkpt lat="43.14058" lon="-0.03462">
        <ele>430.3</ele>
        <time>2020-09-12T20:50:28Z</time>
      </trkpt>
      <trkpt lat="43.14057" lon="-0.03466">
        <ele>430.7</ele>
        <time>2020-09-12T20:50:32Z</time>
      </trkpt>
      <trkpt lat="43.14054" lon="-0.0347">
        <ele>431.2</ele>
        <time>2020-09-12T20:50:35Z</time>
      </trkpt>
      <trkpt lat="43.14052" lon="-0.03473">
        <ele>431.6</ele>
        <time>2020-09-12T20:50:41Z</time>
      </trkpt>
      <trkpt lat="43.14049" lon="-0.03476">
        <ele>431.9</ele>
        <time>2020-09-12T20:50:44Z</time>
      </trkpt>
      <trkpt lat="43.14047" lon="-0.03478">
        <ele>432.1</ele>
        <time>2020-09-12T20:50:46Z</time>
      </trkpt>
      <trkpt lat="43.14045" lon="-0.03482">
        <ele>432.3</ele>
        <time>2020-09-12T20:50:48Z</time>
      </trkpt>
      <trkpt lat="43.14042" lon="-0.03488">
        <ele>433</ele>
        <time>2020-09-12T20:50:51Z</time>
      </trkpt>
      <trkpt lat="43.14039" lon="-0.03492">
        <ele>433.5</ele>
        <time>2020-09-12T20:50:52Z</time>
      </trkpt>
      <trkpt lat="43.14037" lon="-0.03495">
        <ele>433.8</ele>
        <time>2020-09-12T20:50:53Z</time>
      </trkpt>
      <trkpt lat="43.14033" lon="-0.03499">
        <ele>434.1</ele>
        <time>2020-09-12T20:50:55Z</time>
      </trkpt>
      <trkpt lat="43.14031" lon="-0.03502">
        <ele>434.6</ele>
        <time>2020-09-12T20:50:57Z</time>
      </trkpt>
      <trkpt lat="43.1403" lon="-0.03506">
        <ele>434.9</ele>
        <time>2020-09-12T20:51:00Z</time>
      </trkpt>
      <trkpt lat="43.14029" lon="-0.03509">
        <ele>435.3</ele>
        <time>2020-09-12T20:51:03Z</time>
      </trkpt>
      <trkpt lat="43.14028" lon="-0.03513">
        <ele>435.6</ele>
        <time>2020-09-12T20:51:06Z</time>
      </trkpt>
      <trkpt lat="43.14027" lon="-0.03517">
        <ele>435.9</ele>
        <time>2020-09-12T20:51:09Z</time>
      </trkpt>
      <trkpt lat="43.14025" lon="-0.03521">
        <ele>436.2</ele>
        <time>2020-09-12T20:51:14Z</time>
      </trkpt>
      <trkpt lat="43.14021" lon="-0.03526">
        <ele>436.3</ele>
        <time>2020-09-12T20:51:17Z</time>
      </trkpt>
      <trkpt lat="43.14019" lon="-0.03529">
        <ele>436.5</ele>
        <time>2020-09-12T20:51:19Z</time>
      </trkpt>
      <trkpt lat="43.14017" lon="-0.03533">
        <ele>436.9</ele>
        <time>2020-09-12T20:51:22Z</time>
      </trkpt>
      <trkpt lat="43.14014" lon="-0.03539">
        <ele>437.3</ele>
        <time>2020-09-12T20:51:25Z</time>
      </trkpt>
      <trkpt lat="43.14012" lon="-0.03542">
        <ele>437.4</ele>
        <time>2020-09-12T20:51:26Z</time>
      </trkpt>
      <trkpt lat="43.1401" lon="-0.03544">
        <ele>437.5</ele>
        <time>2020-09-12T20:51:27Z</time>
      </trkpt>
      <trkpt lat="43.14007" lon="-0.03549">
        <ele>437.9</ele>
        <time>2020-09-12T20:51:29Z</time>
      </trkpt>
      <trkpt lat="43.14005" lon="-0.03552">
        <ele>438.3</ele>
        <time>2020-09-12T20:51:31Z</time>
      </trkpt>
      <trkpt lat="43.14002" lon="-0.03554">
        <ele>438.7</ele>
        <time>2020-09-12T20:51:33Z</time>
      </trkpt>
      <trkpt lat="43.13999" lon="-0.03559">
        <ele>439.2</ele>
        <time>2020-09-12T20:51:35Z</time>
      </trkpt>
      <trkpt lat="43.13996" lon="-0.03563">
        <ele>439.5</ele>
        <time>2020-09-12T20:51:37Z</time>
      </trkpt>
      <trkpt lat="43.13993" lon="-0.03566">
        <ele>439.7</ele>
        <time>2020-09-12T20:51:39Z</time>
      </trkpt>
      <trkpt lat="43.1399" lon="-0.0357">
        <ele>440.1</ele>
        <time>2020-09-12T20:51:41Z</time>
      </trkpt>
      <trkpt lat="43.13988" lon="-0.03573">
        <ele>440.5</ele>
        <time>2020-09-12T20:51:43Z</time>
      </trkpt>
      <trkpt lat="43.13985" lon="-0.03577">
        <ele>441.1</ele>
        <time>2020-09-12T20:51:46Z</time>
      </trkpt>
      <trkpt lat="43.13982" lon="-0.03579">
        <ele>441.6</ele>
        <time>2020-09-12T20:51:50Z</time>
      </trkpt>
      <trkpt lat="43.13979" lon="-0.0358">
        <ele>442</ele>
        <time>2020-09-12T20:51:54Z</time>
      </trkpt>
      <trkpt lat="43.13977" lon="-0.03583">
        <ele>442.5</ele>
        <time>2020-09-12T20:51:58Z</time>
      </trkpt>
      <trkpt lat="43.13975" lon="-0.03585">
        <ele>442.9</ele>
        <time>2020-09-12T20:52:00Z</time>
      </trkpt>
      <trkpt lat="43.13973" lon="-0.03589">
        <ele>443.4</ele>
        <time>2020-09-12T20:52:02Z</time>
      </trkpt>
      <trkpt lat="43.13971" lon="-0.03592">
        <ele>443.9</ele>
        <time>2020-09-12T20:52:05Z</time>
      </trkpt>
      <trkpt lat="43.13968" lon="-0.03594">
        <ele>444.4</ele>
        <time>2020-09-12T20:52:07Z</time>
      </trkpt>
      <trkpt lat="43.13966" lon="-0.03598">
        <ele>445.2</ele>
        <time>2020-09-12T20:52:10Z</time>
      </trkpt>
      <trkpt lat="43.13963" lon="-0.036">
        <ele>445.9</ele>
        <time>2020-09-12T20:52:12Z</time>
      </trkpt>
      <trkpt lat="43.13961" lon="-0.03603">
        <ele>446.7</ele>
        <time>2020-09-12T20:52:15Z</time>
      </trkpt>
      <trkpt lat="43.13957" lon="-0.03606">
        <ele>447.4</ele>
        <time>2020-09-12T20:52:18Z</time>
      </trkpt>
      <trkpt lat="43.13955" lon="-0.03608">
        <ele>448</ele>
        <time>2020-09-12T20:52:20Z</time>
      </trkpt>
      <trkpt lat="43.13952" lon="-0.03611">
        <ele>448.7</ele>
        <time>2020-09-12T20:52:22Z</time>
      </trkpt>
      <trkpt lat="43.13949" lon="-0.03612">
        <ele>449.3</ele>
        <time>2020-09-12T20:52:24Z</time>
      </trkpt>
      <trkpt lat="43.13946" lon="-0.03614">
        <ele>450</ele>
        <time>2020-09-12T20:52:27Z</time>
      </trkpt>
      <trkpt lat="43.13942" lon="-0.03617">
        <ele>451</ele>
        <time>2020-09-12T20:52:29Z</time>
      </trkpt>
      <trkpt lat="43.1394" lon="-0.03621">
        <ele>451.9</ele>
        <time>2020-09-12T20:52:33Z</time>
      </trkpt>
      <trkpt lat="43.13937" lon="-0.03623">
        <ele>452.7</ele>
        <time>2020-09-12T20:52:35Z</time>
      </trkpt>
      <trkpt lat="43.13931" lon="-0.0363">
        <ele>454.1</ele>
        <time>2020-09-12T20:52:37Z</time>
      </trkpt>
      <trkpt lat="43.13928" lon="-0.03632">
        <ele>455.2</ele>
        <time>2020-09-12T20:52:39Z</time>
      </trkpt>
      <trkpt lat="43.13925" lon="-0.03634">
        <ele>456.4</ele>
        <time>2020-09-12T20:52:41Z</time>
      </trkpt>
      <trkpt lat="43.1392" lon="-0.03637">
        <ele>457.5</ele>
        <time>2020-09-12T20:52:43Z</time>
      </trkpt>
      <trkpt lat="43.13916" lon="-0.0364">
        <ele>458.3</ele>
        <time>2020-09-12T20:52:45Z</time>
      </trkpt>
      <trkpt lat="43.13913" lon="-0.03642">
        <ele>458.8</ele>
        <time>2020-09-12T20:52:46Z</time>
      </trkpt>
      <trkpt lat="43.13909" lon="-0.03645">
        <ele>459.6</ele>
        <time>2020-09-12T20:52:48Z</time>
      </trkpt>
      <trkpt lat="43.13905" lon="-0.03649">
        <ele>460.6</ele>
        <time>2020-09-12T20:52:49Z</time>
      </trkpt>
      <trkpt lat="43.13902" lon="-0.03652">
        <ele>461.4</ele>
        <time>2020-09-12T20:52:51Z</time>
      </trkpt>
      <trkpt lat="43.13898" lon="-0.03654">
        <ele>462</ele>
        <time>2020-09-12T20:52:53Z</time>
      </trkpt>
      <trkpt lat="43.13895" lon="-0.03657">
        <ele>462.4</ele>
        <time>2020-09-12T20:52:55Z</time>
      </trkpt>
      <trkpt lat="43.13891" lon="-0.03659">
        <ele>462.9</ele>
        <time>2020-09-12T20:52:57Z</time>
      </trkpt>
      <trkpt lat="43.13889" lon="-0.03661">
        <ele>463.2</ele>
        <time>2020-09-12T20:52:58Z</time>
      </trkpt>
      <trkpt lat="43.13885" lon="-0.03664">
        <ele>463.6</ele>
        <time>2020-09-12T20:53:00Z</time>
      </trkpt>
      <trkpt lat="43.13879" lon="-0.0367">
        <ele>464</ele>
        <time>2020-09-12T20:53:02Z</time>
      </trkpt>
      <trkpt lat="43.13877" lon="-0.03671">
        <ele>464.2</ele>
        <time>2020-09-12T20:53:03Z</time>
      </trkpt>
      <trkpt lat="43.13873" lon="-0.03673">
        <ele>464.3</ele>
        <time>2020-09-12T20:53:04Z</time>
      </trkpt>
      <trkpt lat="43.13869" lon="-0.03677">
        <ele>464.4</ele>
        <time>2020-09-12T20:53:05Z</time>
      </trkpt>
      <trkpt lat="43.13867" lon="-0.03681">
        <ele>464.8</ele>
        <time>2020-09-12T20:53:06Z</time>
      </trkpt>
      <trkpt lat="43.13864" lon="-0.03684">
        <ele>465.1</ele>
        <time>2020-09-12T20:53:07Z</time>
      </trkpt>
      <trkpt lat="43.13862" lon="-0.03687">
        <ele>465.2</ele>
        <time>2020-09-12T20:53:08Z</time>
      </trkpt>
      <trkpt lat="43.13859" lon="-0.03689">
        <ele>465.2</ele>
        <time>2020-09-12T20:53:09Z</time>
      </trkpt>
      <trkpt lat="43.13856" lon="-0.03691">
        <ele>465.2</ele>
        <time>2020-09-12T20:53:10Z</time>
      </trkpt>
      <trkpt lat="43.13853" lon="-0.03693">
        <ele>465.3</ele>
        <time>2020-09-12T20:53:11Z</time>
      </trkpt>
      <trkpt lat="43.1385" lon="-0.03695">
        <ele>465.5</ele>
        <time>2020-09-12T20:53:12Z</time>
      </trkpt>
      <trkpt lat="43.13847" lon="-0.03697">
        <ele>465.6</ele>
        <time>2020-09-12T20:53:13Z</time>
      </trkpt>
      <trkpt lat="43.13844" lon="-0.037">
        <ele>465.5</ele>
        <time>2020-09-12T20:53:14Z</time>
      </trkpt>
      <trkpt lat="43.13841" lon="-0.03703">
        <ele>465.4</ele>
        <time>2020-09-12T20:53:15Z</time>
      </trkpt>
      <trkpt lat="43.13837" lon="-0.03704">
        <ele>465.5</ele>
        <time>2020-09-12T20:53:16Z</time>
      </trkpt>
      <trkpt lat="43.13834" lon="-0.03706">
        <ele>465.7</ele>
        <time>2020-09-12T20:53:17Z</time>
      </trkpt>
      <trkpt lat="43.13831" lon="-0.03708">
        <ele>465.7</ele>
        <time>2020-09-12T20:53:18Z</time>
      </trkpt>
      <trkpt lat="43.13828" lon="-0.0371">
        <ele>465.5</ele>
        <time>2020-09-12T20:53:19Z</time>
      </trkpt>
      <trkpt lat="43.13826" lon="-0.03712">
        <ele>465.4</ele>
        <time>2020-09-12T20:53:20Z</time>
      </trkpt>
      <trkpt lat="43.13822" lon="-0.03716">
        <ele>465.3</ele>
        <time>2020-09-12T20:53:21Z</time>
      </trkpt>
      <trkpt lat="43.13819" lon="-0.03719">
        <ele>465.3</ele>
        <time>2020-09-12T20:53:22Z</time>
      </trkpt>
      <trkpt lat="43.13815" lon="-0.03722">
        <ele>465.3</ele>
        <time>2020-09-12T20:53:23Z</time>
      </trkpt>
      <trkpt lat="43.13813" lon="-0.03725">
        <ele>465.3</ele>
        <time>2020-09-12T20:53:24Z</time>
      </trkpt>
      <trkpt lat="43.13809" lon="-0.03727">
        <ele>465.2</ele>
        <time>2020-09-12T20:53:26Z</time>
      </trkpt>
      <trkpt lat="43.13805" lon="-0.0373">
        <ele>465.2</ele>
        <time>2020-09-12T20:53:27Z</time>
      </trkpt>
      <trkpt lat="43.13802" lon="-0.03733">
        <ele>465.2</ele>
        <time>2020-09-12T20:53:28Z</time>
      </trkpt>
      <trkpt lat="43.13799" lon="-0.03736">
        <ele>465</ele>
        <time>2020-09-12T20:53:29Z</time>
      </trkpt>
      <trkpt lat="43.13797" lon="-0.03738">
        <ele>464.9</ele>
        <time>2020-09-12T20:53:30Z</time>
      </trkpt>
      <trkpt lat="43.13793" lon="-0.03741">
        <ele>464.7</ele>
        <time>2020-09-12T20:53:32Z</time>
      </trkpt>
      <trkpt lat="43.13789" lon="-0.03745">
        <ele>464.6</ele>
        <time>2020-09-12T20:53:34Z</time>
      </trkpt>
      <trkpt lat="43.13784" lon="-0.03749">
        <ele>464.4</ele>
        <time>2020-09-12T20:53:36Z</time>
      </trkpt>
      <trkpt lat="43.13781" lon="-0.03751">
        <ele>464.2</ele>
        <time>2020-09-12T20:53:37Z</time>
      </trkpt>
      <trkpt lat="43.13777" lon="-0.03756">
        <ele>464.1</ele>
        <time>2020-09-12T20:53:38Z</time>
      </trkpt>
      <trkpt lat="43.13774" lon="-0.03759">
        <ele>464.1</ele>
        <time>2020-09-12T20:53:39Z</time>
      </trkpt>
      <trkpt lat="43.1377" lon="-0.03762">
        <ele>464</ele>
        <time>2020-09-12T20:53:40Z</time>
      </trkpt>
      <trkpt lat="43.13766" lon="-0.03766">
        <ele>463.7</ele>
        <time>2020-09-12T20:53:42Z</time>
      </trkpt>
      <trkpt lat="43.13762" lon="-0.03771">
        <ele>464</ele>
        <time>2020-09-12T20:53:44Z</time>
      </trkpt>
      <trkpt lat="43.13757" lon="-0.03774">
        <ele>464.4</ele>
        <time>2020-09-12T20:53:45Z</time>
      </trkpt>
      <trkpt lat="43.13754" lon="-0.03777">
        <ele>464.3</ele>
        <time>2020-09-12T20:53:46Z</time>
      </trkpt>
      <trkpt lat="43.1375" lon="-0.0378">
        <ele>464.2</ele>
        <time>2020-09-12T20:53:47Z</time>
      </trkpt>
      <trkpt lat="43.13745" lon="-0.03784">
        <ele>464.5</ele>
        <time>2020-09-12T20:53:48Z</time>
      </trkpt>
      <trkpt lat="43.13742" lon="-0.03787">
        <ele>464.6</ele>
        <time>2020-09-12T20:53:49Z</time>
      </trkpt>
      <trkpt lat="43.13739" lon="-0.03789">
        <ele>464.5</ele>
        <time>2020-09-12T20:53:50Z</time>
      </trkpt>
      <trkpt lat="43.13736" lon="-0.03791">
        <ele>464.3</ele>
        <time>2020-09-12T20:53:51Z</time>
      </trkpt>
      <trkpt lat="43.13733" lon="-0.03793">
        <ele>464.3</ele>
        <time>2020-09-12T20:53:52Z</time>
      </trkpt>
      <trkpt lat="43.1373" lon="-0.03795">
        <ele>464.4</ele>
        <time>2020-09-12T20:53:53Z</time>
      </trkpt>
      <trkpt lat="43.13728" lon="-0.03797">
        <ele>464.5</ele>
        <time>2020-09-12T20:53:54Z</time>
      </trkpt>
      <trkpt lat="43.13725" lon="-0.03801">
        <ele>464.5</ele>
        <time>2020-09-12T20:53:55Z</time>
      </trkpt>
      <trkpt lat="43.13722" lon="-0.03804">
        <ele>464.4</ele>
        <time>2020-09-12T20:53:56Z</time>
      </trkpt>
      <trkpt lat="43.13718" lon="-0.03808">
        <ele>464.3</ele>
        <time>2020-09-12T20:53:57Z</time>
      </trkpt>
      <trkpt lat="43.13714" lon="-0.03811">
        <ele>464.4</ele>
        <time>2020-09-12T20:53:58Z</time>
      </trkpt>
      <trkpt lat="43.13709" lon="-0.03813">
        <ele>464.6</ele>
        <time>2020-09-12T20:53:59Z</time>
      </trkpt>
      <trkpt lat="43.13704" lon="-0.03815">
        <ele>464.7</ele>
        <time>2020-09-12T20:54:00Z</time>
      </trkpt>
      <trkpt lat="43.13699" lon="-0.03818">
        <ele>464.9</ele>
        <time>2020-09-12T20:54:01Z</time>
      </trkpt>
      <trkpt lat="43.13692" lon="-0.03822">
        <ele>465.1</ele>
        <time>2020-09-12T20:54:02Z</time>
      </trkpt>
      <trkpt lat="43.13686" lon="-0.03827">
        <ele>465.1</ele>
        <time>2020-09-12T20:54:03Z</time>
      </trkpt>
      <trkpt lat="43.1368" lon="-0.03831">
        <ele>464.9</ele>
        <time>2020-09-12T20:54:04Z</time>
      </trkpt>
      <trkpt lat="43.13673" lon="-0.03835">
        <ele>464.8</ele>
        <time>2020-09-12T20:54:05Z</time>
      </trkpt>
      <trkpt lat="43.13666" lon="-0.03839">
        <ele>464.6</ele>
        <time>2020-09-12T20:54:06Z</time>
      </trkpt>
      <trkpt lat="43.13659" lon="-0.03842">
        <ele>464.5</ele>
        <time>2020-09-12T20:54:07Z</time>
      </trkpt>
      <trkpt lat="43.13652" lon="-0.03844">
        <ele>464.7</ele>
        <time>2020-09-12T20:54:08Z</time>
      </trkpt>
      <trkpt lat="43.13645" lon="-0.03848">
        <ele>465</ele>
        <time>2020-09-12T20:54:09Z</time>
      </trkpt>
      <trkpt lat="43.13642" lon="-0.0385">
        <ele>465.2</ele>
        <time>2020-09-12T20:54:10Z</time>
      </trkpt>
      <trkpt lat="43.13635" lon="-0.03853">
        <ele>465.7</ele>
        <time>2020-09-12T20:54:12Z</time>
      </trkpt>
      <trkpt lat="43.13632" lon="-0.03854">
        <ele>466</ele>
        <time>2020-09-12T20:54:13Z</time>
      </trkpt>
      <trkpt lat="43.13628" lon="-0.03852">
        <ele>466.2</ele>
        <time>2020-09-12T20:54:15Z</time>
      </trkpt>
      <trkpt lat="43.13625" lon="-0.03854">
        <ele>466.5</ele>
        <time>2020-09-12T20:54:16Z</time>
      </trkpt>
      <trkpt lat="43.13622" lon="-0.03856">
        <ele>467</ele>
        <time>2020-09-12T20:54:18Z</time>
      </trkpt>
      <trkpt lat="43.13616" lon="-0.03861">
        <ele>467.6</ele>
        <time>2020-09-12T20:54:20Z</time>
      </trkpt>
      <trkpt lat="43.13615" lon="-0.03864">
        <ele>467.8</ele>
        <time>2020-09-12T20:54:21Z</time>
      </trkpt>
      <trkpt lat="43.13612" lon="-0.03869">
        <ele>468.1</ele>
        <time>2020-09-12T20:54:22Z</time>
      </trkpt>
      <trkpt lat="43.13611" lon="-0.03872">
        <ele>468.3</ele>
        <time>2020-09-12T20:54:23Z</time>
      </trkpt>
      <trkpt lat="43.1361" lon="-0.03876">
        <ele>468.6</ele>
        <time>2020-09-12T20:54:24Z</time>
      </trkpt>
      <trkpt lat="43.13608" lon="-0.03882">
        <ele>468.2</ele>
        <time>2020-09-12T20:54:26Z</time>
      </trkpt>
      <trkpt lat="43.13607" lon="-0.03889">
        <ele>468.2</ele>
        <time>2020-09-12T20:54:28Z</time>
      </trkpt>
      <trkpt lat="43.13606" lon="-0.03893">
        <ele>468.3</ele>
        <time>2020-09-12T20:54:29Z</time>
      </trkpt>
      <trkpt lat="43.13606" lon="-0.03897">
        <ele>468.1</ele>
        <time>2020-09-12T20:54:30Z</time>
      </trkpt>
      <trkpt lat="43.13605" lon="-0.03905">
        <ele>467.7</ele>
        <time>2020-09-12T20:54:32Z</time>
      </trkpt>
      <trkpt lat="43.13604" lon="-0.03909">
        <ele>467.5</ele>
        <time>2020-09-12T20:54:33Z</time>
      </trkpt>
      <trkpt lat="43.13603" lon="-0.03912">
        <ele>467.3</ele>
        <time>2020-09-12T20:54:34Z</time>
      </trkpt>
      <trkpt lat="43.13601" lon="-0.03915">
        <ele>467.2</ele>
        <time>2020-09-12T20:54:35Z</time>
      </trkpt>
      <trkpt lat="43.13598" lon="-0.03917">
        <ele>467</ele>
        <time>2020-09-12T20:54:36Z</time>
      </trkpt>
      <trkpt lat="43.13596" lon="-0.0392">
        <ele>466.8</ele>
        <time>2020-09-12T20:54:37Z</time>
      </trkpt>
      <trkpt lat="43.13593" lon="-0.03924">
        <ele>465.9</ele>
        <time>2020-09-12T20:54:39Z</time>
      </trkpt>
      <trkpt lat="43.13589" lon="-0.03929">
        <ele>465.4</ele>
        <time>2020-09-12T20:54:41Z</time>
      </trkpt>
      <trkpt lat="43.13588" lon="-0.03933">
        <ele>465.2</ele>
        <time>2020-09-12T20:54:42Z</time>
      </trkpt>
      <trkpt lat="43.13586" lon="-0.03936">
        <ele>464.8</ele>
        <time>2020-09-12T20:54:43Z</time>
      </trkpt>
      <trkpt lat="43.13583" lon="-0.03939">
        <ele>464.2</ele>
        <time>2020-09-12T20:54:44Z</time>
      </trkpt>
      <trkpt lat="43.13581" lon="-0.03942">
        <ele>463.6</ele>
        <time>2020-09-12T20:54:45Z</time>
      </trkpt>
      <trkpt lat="43.13578" lon="-0.03946">
        <ele>463.3</ele>
        <time>2020-09-12T20:54:46Z</time>
      </trkpt>
      <trkpt lat="43.13573" lon="-0.03951">
        <ele>462.7</ele>
        <time>2020-09-12T20:54:48Z</time>
      </trkpt>
      <trkpt lat="43.13571" lon="-0.03953">
        <ele>462.5</ele>
        <time>2020-09-12T20:54:49Z</time>
      </trkpt>
      <trkpt lat="43.13568" lon="-0.03956">
        <ele>462.2</ele>
        <time>2020-09-12T20:54:50Z</time>
      </trkpt>
      <trkpt lat="43.13566" lon="-0.03958">
        <ele>462</ele>
        <time>2020-09-12T20:54:51Z</time>
      </trkpt>
      <trkpt lat="43.13563" lon="-0.0396">
        <ele>461.7</ele>
        <time>2020-09-12T20:54:52Z</time>
      </trkpt>
      <trkpt lat="43.13561" lon="-0.03962">
        <ele>461.4</ele>
        <time>2020-09-12T20:54:53Z</time>
      </trkpt>
      <trkpt lat="43.13558" lon="-0.03964">
        <ele>461.4</ele>
        <time>2020-09-12T20:54:54Z</time>
      </trkpt>
      <trkpt lat="43.13555" lon="-0.03967">
        <ele>461.2</ele>
        <time>2020-09-12T20:54:55Z</time>
      </trkpt>
      <trkpt lat="43.13552" lon="-0.03968">
        <ele>461.2</ele>
        <time>2020-09-12T20:54:56Z</time>
      </trkpt>
      <trkpt lat="43.13549" lon="-0.03969">
        <ele>461.2</ele>
        <time>2020-09-12T20:54:57Z</time>
      </trkpt>
      <trkpt lat="43.13546" lon="-0.03971">
        <ele>461.2</ele>
        <time>2020-09-12T20:54:59Z</time>
      </trkpt>
      <trkpt lat="43.13543" lon="-0.03972">
        <ele>461.1</ele>
        <time>2020-09-12T20:55:02Z</time>
      </trkpt>
      <trkpt lat="43.1354" lon="-0.03974">
        <ele>461.1</ele>
        <time>2020-09-12T20:55:04Z</time>
      </trkpt>
      <trkpt lat="43.13535" lon="-0.03976">
        <ele>461.7</ele>
        <time>2020-09-12T20:55:06Z</time>
      </trkpt>
      <trkpt lat="43.1353" lon="-0.03977">
        <ele>462.4</ele>
        <time>2020-09-12T20:55:08Z</time>
      </trkpt>
      <trkpt lat="43.13527" lon="-0.03978">
        <ele>462.4</ele>
        <time>2020-09-12T20:55:09Z</time>
      </trkpt>
      <trkpt lat="43.13523" lon="-0.03979">
        <ele>462.4</ele>
        <time>2020-09-12T20:55:11Z</time>
      </trkpt>
      <trkpt lat="43.13519" lon="-0.03978">
        <ele>462.4</ele>
        <time>2020-09-12T20:55:13Z</time>
      </trkpt>
      <trkpt lat="43.13515" lon="-0.03978">
        <ele>462.5</ele>
        <time>2020-09-12T20:55:15Z</time>
      </trkpt>
      <trkpt lat="43.13511" lon="-0.03977">
        <ele>462.8</ele>
        <time>2020-09-12T20:55:17Z</time>
      </trkpt>
      <trkpt lat="43.13508" lon="-0.03978">
        <ele>463.1</ele>
        <time>2020-09-12T20:55:20Z</time>
      </trkpt>
      <trkpt lat="43.13503" lon="-0.03979">
        <ele>463.3</ele>
        <time>2020-09-12T20:55:22Z</time>
      </trkpt>
      <trkpt lat="43.13498" lon="-0.03983">
        <ele>463.5</ele>
        <time>2020-09-12T20:55:24Z</time>
      </trkpt>
      <trkpt lat="43.13496" lon="-0.03986">
        <ele>463.7</ele>
        <time>2020-09-12T20:55:25Z</time>
      </trkpt>
      <trkpt lat="43.13493" lon="-0.03989">
        <ele>464</ele>
        <time>2020-09-12T20:55:26Z</time>
      </trkpt>
      <trkpt lat="43.13491" lon="-0.03993">
        <ele>464.5</ele>
        <time>2020-09-12T20:55:27Z</time>
      </trkpt>
      <trkpt lat="43.13489" lon="-0.03996">
        <ele>465.1</ele>
        <time>2020-09-12T20:55:28Z</time>
      </trkpt>
      <trkpt lat="43.13486" lon="-0.04001">
        <ele>465.9</ele>
        <time>2020-09-12T20:55:29Z</time>
      </trkpt>
      <trkpt lat="43.13479" lon="-0.0401">
        <ele>466.4</ele>
        <time>2020-09-12T20:55:31Z</time>
      </trkpt>
      <trkpt lat="43.13475" lon="-0.04014">
        <ele>466.4</ele>
        <time>2020-09-12T20:55:32Z</time>
      </trkpt>
      <trkpt lat="43.13471" lon="-0.04018">
        <ele>466.5</ele>
        <time>2020-09-12T20:55:33Z</time>
      </trkpt>
      <trkpt lat="43.13467" lon="-0.04022">
        <ele>466.7</ele>
        <time>2020-09-12T20:55:34Z</time>
      </trkpt>
      <trkpt lat="43.13464" lon="-0.04023">
        <ele>466.6</ele>
        <time>2020-09-12T20:55:35Z</time>
      </trkpt>
      <trkpt lat="43.1346" lon="-0.04025">
        <ele>466.5</ele>
        <time>2020-09-12T20:55:37Z</time>
      </trkpt>
      <trkpt lat="43.13457" lon="-0.04025">
        <ele>465.6</ele>
        <time>2020-09-12T20:55:39Z</time>
      </trkpt>
      <trkpt lat="43.13453" lon="-0.04027">
        <ele>464.6</ele>
        <time>2020-09-12T20:55:41Z</time>
      </trkpt>
      <trkpt lat="43.1345" lon="-0.04028">
        <ele>464.4</ele>
        <time>2020-09-12T20:55:43Z</time>
      </trkpt>
      <trkpt lat="43.13446" lon="-0.04028">
        <ele>464.2</ele>
        <time>2020-09-12T20:55:45Z</time>
      </trkpt>
      <trkpt lat="43.13443" lon="-0.04027">
        <ele>464.1</ele>
        <time>2020-09-12T20:55:46Z</time>
      </trkpt>
      <trkpt lat="43.13439" lon="-0.04026">
        <ele>463.8</ele>
        <time>2020-09-12T20:55:48Z</time>
      </trkpt>
      <trkpt lat="43.13434" lon="-0.04028">
        <ele>463.9</ele>
        <time>2020-09-12T20:55:50Z</time>
      </trkpt>
      <trkpt lat="43.1343" lon="-0.04031">
        <ele>464.1</ele>
        <time>2020-09-12T20:55:52Z</time>
      </trkpt>
      <trkpt lat="43.13425" lon="-0.04031">
        <ele>464.6</ele>
        <time>2020-09-12T20:55:54Z</time>
      </trkpt>
      <trkpt lat="43.13422" lon="-0.0403">
        <ele>465</ele>
        <time>2020-09-12T20:55:55Z</time>
      </trkpt>
      <trkpt lat="43.13419" lon="-0.04028">
        <ele>465.3</ele>
        <time>2020-09-12T20:55:57Z</time>
      </trkpt>
      <trkpt lat="43.13415" lon="-0.04029">
        <ele>465.7</ele>
        <time>2020-09-12T20:55:59Z</time>
      </trkpt>
      <trkpt lat="43.13412" lon="-0.04028">
        <ele>466.1</ele>
        <time>2020-09-12T20:56:01Z</time>
      </trkpt>
      <trkpt lat="43.1341" lon="-0.04033">
        <ele>466.5</ele>
        <time>2020-09-12T20:56:04Z</time>
      </trkpt>
      <trkpt lat="43.13409" lon="-0.04038">
        <ele>466.4</ele>
        <time>2020-09-12T20:56:05Z</time>
      </trkpt>
      <trkpt lat="43.13404" lon="-0.04044">
        <ele>466.7</ele>
        <time>2020-09-12T20:56:07Z</time>
      </trkpt>
      <trkpt lat="43.13402" lon="-0.04047">
        <ele>467.1</ele>
        <time>2020-09-12T20:56:08Z</time>
      </trkpt>
      <trkpt lat="43.13399" lon="-0.04049">
        <ele>467</ele>
        <time>2020-09-12T20:56:09Z</time>
      </trkpt>
      <trkpt lat="43.13394" lon="-0.04052">
        <ele>466.5</ele>
        <time>2020-09-12T20:56:11Z</time>
      </trkpt>
      <trkpt lat="43.13391" lon="-0.04054">
        <ele>465.8</ele>
        <time>2020-09-12T20:56:13Z</time>
      </trkpt>
      <trkpt lat="43.13386" lon="-0.04055">
        <ele>464.7</ele>
        <time>2020-09-12T20:56:14Z</time>
      </trkpt>
      <trkpt lat="43.13382" lon="-0.04056">
        <ele>464</ele>
        <time>2020-09-12T20:56:15Z</time>
      </trkpt>
      <trkpt lat="43.13377" lon="-0.04057">
        <ele>463.6</ele>
        <time>2020-09-12T20:56:16Z</time>
      </trkpt>
      <trkpt lat="43.13373" lon="-0.04058">
        <ele>463.8</ele>
        <time>2020-09-12T20:56:17Z</time>
      </trkpt>
      <trkpt lat="43.13369" lon="-0.04058">
        <ele>463.6</ele>
        <time>2020-09-12T20:56:18Z</time>
      </trkpt>
      <trkpt lat="43.13365" lon="-0.04058">
        <ele>463</ele>
        <time>2020-09-12T20:56:19Z</time>
      </trkpt>
      <trkpt lat="43.1336" lon="-0.04058">
        <ele>462.4</ele>
        <time>2020-09-12T20:56:20Z</time>
      </trkpt>
      <trkpt lat="43.13357" lon="-0.04057">
        <ele>461.9</ele>
        <time>2020-09-12T20:56:21Z</time>
      </trkpt>
      <trkpt lat="43.13354" lon="-0.04057">
        <ele>461.8</ele>
        <time>2020-09-12T20:56:22Z</time>
      </trkpt>
      <trkpt lat="43.13349" lon="-0.04057">
        <ele>461.9</ele>
        <time>2020-09-12T20:56:24Z</time>
      </trkpt>
      <trkpt lat="43.13345" lon="-0.04058">
        <ele>462.4</ele>
        <time>2020-09-12T20:56:25Z</time>
      </trkpt>
      <trkpt lat="43.13342" lon="-0.04058">
        <ele>462.8</ele>
        <time>2020-09-12T20:56:26Z</time>
      </trkpt>
      <trkpt lat="43.13339" lon="-0.04058">
        <ele>463.1</ele>
        <time>2020-09-12T20:56:27Z</time>
      </trkpt>
      <trkpt lat="43.13334" lon="-0.04057">
        <ele>462.9</ele>
        <time>2020-09-12T20:56:29Z</time>
      </trkpt>
      <trkpt lat="43.13331" lon="-0.04055">
        <ele>462.7</ele>
        <time>2020-09-12T20:56:30Z</time>
      </trkpt>
      <trkpt lat="43.13326" lon="-0.04052">
        <ele>462.3</ele>
        <time>2020-09-12T20:56:32Z</time>
      </trkpt>
      <trkpt lat="43.13322" lon="-0.04053">
        <ele>462.4</ele>
        <time>2020-09-12T20:56:33Z</time>
      </trkpt>
      <trkpt lat="43.13319" lon="-0.04052">
        <ele>462.7</ele>
        <time>2020-09-12T20:56:34Z</time>
      </trkpt>
      <trkpt lat="43.13315" lon="-0.04052">
        <ele>462.8</ele>
        <time>2020-09-12T20:56:35Z</time>
      </trkpt>
      <trkpt lat="43.13311" lon="-0.0405">
        <ele>462.4</ele>
        <time>2020-09-12T20:56:36Z</time>
      </trkpt>
      <trkpt lat="43.13305" lon="-0.0405">
        <ele>462</ele>
        <time>2020-09-12T20:56:37Z</time>
      </trkpt>
      <trkpt lat="43.133" lon="-0.0405">
        <ele>461.7</ele>
        <time>2020-09-12T20:56:38Z</time>
      </trkpt>
      <trkpt lat="43.13295" lon="-0.04049">
        <ele>461.9</ele>
        <time>2020-09-12T20:56:39Z</time>
      </trkpt>
      <trkpt lat="43.13292" lon="-0.04049">
        <ele>461.9</ele>
        <time>2020-09-12T20:56:40Z</time>
      </trkpt>
      <trkpt lat="43.13288" lon="-0.04048">
        <ele>461.4</ele>
        <time>2020-09-12T20:56:41Z</time>
      </trkpt>
      <trkpt lat="43.13284" lon="-0.04048">
        <ele>461</ele>
        <time>2020-09-12T20:56:42Z</time>
      </trkpt>
      <trkpt lat="43.13281" lon="-0.04048">
        <ele>461.2</ele>
        <time>2020-09-12T20:56:43Z</time>
      </trkpt>
      <trkpt lat="43.13278" lon="-0.04048">
        <ele>461.4</ele>
        <time>2020-09-12T20:56:44Z</time>
      </trkpt>
      <trkpt lat="43.13272" lon="-0.04048">
        <ele>460.7</ele>
        <time>2020-09-12T20:56:46Z</time>
      </trkpt>
      <trkpt lat="43.13269" lon="-0.04048">
        <ele>460.2</ele>
        <time>2020-09-12T20:56:47Z</time>
      </trkpt>
      <trkpt lat="43.13266" lon="-0.04049">
        <ele>459.8</ele>
        <time>2020-09-12T20:56:48Z</time>
      </trkpt>
      <trkpt lat="43.13262" lon="-0.04051">
        <ele>459.2</ele>
        <time>2020-09-12T20:56:49Z</time>
      </trkpt>
      <trkpt lat="43.13257" lon="-0.04052">
        <ele>458.5</ele>
        <time>2020-09-12T20:56:50Z</time>
      </trkpt>
      <trkpt lat="43.13251" lon="-0.04055">
        <ele>457.3</ele>
        <time>2020-09-12T20:56:51Z</time>
      </trkpt>
      <trkpt lat="43.13248" lon="-0.04057">
        <ele>456.4</ele>
        <time>2020-09-12T20:56:52Z</time>
      </trkpt>
      <trkpt lat="43.13246" lon="-0.0406">
        <ele>455.5</ele>
        <time>2020-09-12T20:56:53Z</time>
      </trkpt>
      <trkpt lat="43.13247" lon="-0.04067">
        <ele>454.8</ele>
        <time>2020-09-12T20:56:55Z</time>
      </trkpt>
      <trkpt lat="43.13249" lon="-0.0407">
        <ele>448.7</ele>
        <time>2020-09-12T20:56:56Z</time>
      </trkpt>
      <trkpt lat="43.13251" lon="-0.04073">
        <ele>448.5</ele>
        <time>2020-09-12T20:56:57Z</time>
      </trkpt>
      <trkpt lat="43.13253" lon="-0.04079">
        <ele>448.2</ele>
        <time>2020-09-12T20:56:58Z</time>
      </trkpt>
      <trkpt lat="43.13256" lon="-0.04083">
        <ele>447.9</ele>
        <time>2020-09-12T20:56:59Z</time>
      </trkpt>
      <trkpt lat="43.13259" lon="-0.04088">
        <ele>447.5</ele>
        <time>2020-09-12T20:57:00Z</time>
      </trkpt>
      <trkpt lat="43.13262" lon="-0.04092">
        <ele>447.1</ele>
        <time>2020-09-12T20:57:01Z</time>
      </trkpt>
      <trkpt lat="43.13266" lon="-0.04096">
        <ele>446.6</ele>
        <time>2020-09-12T20:57:02Z</time>
      </trkpt>
      <trkpt lat="43.13269" lon="-0.04101">
        <ele>446.1</ele>
        <time>2020-09-12T20:57:03Z</time>
      </trkpt>
      <trkpt lat="43.13273" lon="-0.04105">
        <ele>445.6</ele>
        <time>2020-09-12T20:57:04Z</time>
      </trkpt>
      <trkpt lat="43.13278" lon="-0.0411">
        <ele>445</ele>
        <time>2020-09-12T20:57:05Z</time>
      </trkpt>
      <trkpt lat="43.13281" lon="-0.04115">
        <ele>444.5</ele>
        <time>2020-09-12T20:57:06Z</time>
      </trkpt>
      <trkpt lat="43.13286" lon="-0.04122">
        <ele>443.9</ele>
        <time>2020-09-12T20:57:07Z</time>
      </trkpt>
      <trkpt lat="43.13289" lon="-0.04128">
        <ele>443.4</ele>
        <time>2020-09-12T20:57:08Z</time>
      </trkpt>
      <trkpt lat="43.13292" lon="-0.04133">
        <ele>443.1</ele>
        <time>2020-09-12T20:57:09Z</time>
      </trkpt>
      <trkpt lat="43.13295" lon="-0.04139">
        <ele>442.7</ele>
        <time>2020-09-12T20:57:11Z</time>
      </trkpt>
      <trkpt lat="43.13296" lon="-0.04144">
        <ele>442.5</ele>
        <time>2020-09-12T20:57:12Z</time>
      </trkpt>
      <trkpt lat="43.13297" lon="-0.04149">
        <ele>442.3</ele>
        <time>2020-09-12T20:57:14Z</time>
      </trkpt>
      <trkpt lat="43.13299" lon="-0.04153">
        <ele>442.2</ele>
        <time>2020-09-12T20:57:15Z</time>
      </trkpt>
      <trkpt lat="43.133" lon="-0.04158">
        <ele>442</ele>
        <time>2020-09-12T20:57:16Z</time>
      </trkpt>
      <trkpt lat="43.133" lon="-0.04163">
        <ele>441.8</ele>
        <time>2020-09-12T20:57:17Z</time>
      </trkpt>
      <trkpt lat="43.13301" lon="-0.0417">
        <ele>441.5</ele>
        <time>2020-09-12T20:57:19Z</time>
      </trkpt>
      <trkpt lat="43.13302" lon="-0.04174">
        <ele>441.4</ele>
        <time>2020-09-12T20:57:20Z</time>
      </trkpt>
      <trkpt lat="43.13302" lon="-0.04181">
        <ele>441.1</ele>
        <time>2020-09-12T20:57:22Z</time>
      </trkpt>
      <trkpt lat="43.13301" lon="-0.04185">
        <ele>440.9</ele>
        <time>2020-09-12T20:57:24Z</time>
      </trkpt>
      <trkpt lat="43.133" lon="-0.0419">
        <ele>440.7</ele>
        <time>2020-09-12T20:57:26Z</time>
      </trkpt>
      <trkpt lat="43.13302" lon="-0.04194">
        <ele>440.6</ele>
        <time>2020-09-12T20:57:28Z</time>
      </trkpt>
      <trkpt lat="43.13306" lon="-0.04196">
        <ele>440.3</ele>
        <time>2020-09-12T20:57:30Z</time>
      </trkpt>
      <trkpt lat="43.13309" lon="-0.04198">
        <ele>440.1</ele>
        <time>2020-09-12T20:57:31Z</time>
      </trkpt>
      <trkpt lat="43.13313" lon="-0.04201">
        <ele>439.9</ele>
        <time>2020-09-12T20:57:33Z</time>
      </trkpt>
      <trkpt lat="43.13318" lon="-0.04204">
        <ele>439.5</ele>
        <time>2020-09-12T20:57:35Z</time>
      </trkpt>
      <trkpt lat="43.13322" lon="-0.04207">
        <ele>439.6</ele>
        <time>2020-09-12T20:57:37Z</time>
      </trkpt>
      <trkpt lat="43.13325" lon="-0.0421">
        <ele>439.9</ele>
        <time>2020-09-12T20:57:39Z</time>
      </trkpt>
      <trkpt lat="43.13327" lon="-0.04215">
        <ele>440.2</ele>
        <time>2020-09-12T20:57:41Z</time>
      </trkpt>
      <trkpt lat="43.1333" lon="-0.04217">
        <ele>440.6</ele>
        <time>2020-09-12T20:57:43Z</time>
      </trkpt>
      <trkpt lat="43.13332" lon="-0.04219">
        <ele>440.9</ele>
        <time>2020-09-12T20:57:44Z</time>
      </trkpt>
      <trkpt lat="43.13338" lon="-0.04225">
        <ele>441.8</ele>
        <time>2020-09-12T20:57:46Z</time>
      </trkpt>
      <trkpt lat="43.13343" lon="-0.0423">
        <ele>442.5</ele>
        <time>2020-09-12T20:57:47Z</time>
      </trkpt>
      <trkpt lat="43.13347" lon="-0.04235">
        <ele>443</ele>
        <time>2020-09-12T20:57:48Z</time>
      </trkpt>
      <trkpt lat="43.13351" lon="-0.0424">
        <ele>443.6</ele>
        <time>2020-09-12T20:57:49Z</time>
      </trkpt>
      <trkpt lat="43.13355" lon="-0.04244">
        <ele>444.2</ele>
        <time>2020-09-12T20:57:50Z</time>
      </trkpt>
      <trkpt lat="43.13359" lon="-0.04248">
        <ele>444.7</ele>
        <time>2020-09-12T20:57:51Z</time>
      </trkpt>
      <trkpt lat="43.13362" lon="-0.04251">
        <ele>445.3</ele>
        <time>2020-09-12T20:57:52Z</time>
      </trkpt>
      <trkpt lat="43.1337" lon="-0.04251">
        <ele>446.3</ele>
        <time>2020-09-12T20:57:53Z</time>
      </trkpt>
      <trkpt lat="43.13376" lon="-0.04253">
        <ele>446.9</ele>
        <time>2020-09-12T20:57:55Z</time>
      </trkpt>
      <trkpt lat="43.13379" lon="-0.04253">
        <ele>447.1</ele>
        <time>2020-09-12T20:57:57Z</time>
      </trkpt>
      <trkpt lat="43.13383" lon="-0.04255">
        <ele>447.4</ele>
        <time>2020-09-12T20:58:01Z</time>
      </trkpt>
      <trkpt lat="43.13385" lon="-0.04258">
        <ele>447.7</ele>
        <time>2020-09-12T20:58:03Z</time>
      </trkpt>
      <trkpt lat="43.13388" lon="-0.04261">
        <ele>448.1</ele>
        <time>2020-09-12T20:58:05Z</time>
      </trkpt>
      <trkpt lat="43.13389" lon="-0.04264">
        <ele>448.4</ele>
        <time>2020-09-12T20:58:08Z</time>
      </trkpt>
      <trkpt lat="43.13391" lon="-0.04268">
        <ele>448.7</ele>
        <time>2020-09-12T20:58:10Z</time>
      </trkpt>
      <trkpt lat="43.13394" lon="-0.04272">
        <ele>449.1</ele>
        <time>2020-09-12T20:58:12Z</time>
      </trkpt>
      <trkpt lat="43.13397" lon="-0.04273">
        <ele>449.3</ele>
        <time>2020-09-12T20:58:14Z</time>
      </trkpt>
      <trkpt lat="43.134" lon="-0.04275">
        <ele>449.4</ele>
        <time>2020-09-12T20:58:15Z</time>
      </trkpt>
      <trkpt lat="43.13405" lon="-0.04277">
        <ele>449.9</ele>
        <time>2020-09-12T20:58:16Z</time>
      </trkpt>
      <trkpt lat="43.1341" lon="-0.04281">
        <ele>450.4</ele>
        <time>2020-09-12T20:58:17Z</time>
      </trkpt>
      <trkpt lat="43.13413" lon="-0.04284">
        <ele>450.7</ele>
        <time>2020-09-12T20:58:18Z</time>
      </trkpt>
      <trkpt lat="43.13416" lon="-0.04287">
        <ele>450.9</ele>
        <time>2020-09-12T20:58:19Z</time>
      </trkpt>
      <trkpt lat="43.13419" lon="-0.0429">
        <ele>451</ele>
        <time>2020-09-12T20:58:20Z</time>
      </trkpt>
      <trkpt lat="43.13422" lon="-0.04293">
        <ele>451.2</ele>
        <time>2020-09-12T20:58:21Z</time>
      </trkpt>
      <trkpt lat="43.13424" lon="-0.04296">
        <ele>451.4</ele>
        <time>2020-09-12T20:58:22Z</time>
      </trkpt>
      <trkpt lat="43.13426" lon="-0.043">
        <ele>451.6</ele>
        <time>2020-09-12T20:58:23Z</time>
      </trkpt>
      <trkpt lat="43.13428" lon="-0.04304">
        <ele>451.7</ele>
        <time>2020-09-12T20:58:24Z</time>
      </trkpt>
      <trkpt lat="43.13429" lon="-0.04311">
        <ele>451.9</ele>
        <time>2020-09-12T20:58:26Z</time>
      </trkpt>
      <trkpt lat="43.1343" lon="-0.04315">
        <ele>452.1</ele>
        <time>2020-09-12T20:58:28Z</time>
      </trkpt>
      <trkpt lat="43.13431" lon="-0.0432">
        <ele>452.2</ele>
        <time>2020-09-12T20:58:30Z</time>
      </trkpt>
      <trkpt lat="43.13434" lon="-0.04323">
        <ele>452.4</ele>
        <time>2020-09-12T20:58:31Z</time>
      </trkpt>
      <trkpt lat="43.13436" lon="-0.04325">
        <ele>452.5</ele>
        <time>2020-09-12T20:58:32Z</time>
      </trkpt>
      <trkpt lat="43.13438" lon="-0.04328">
        <ele>452.6</ele>
        <time>2020-09-12T20:58:33Z</time>
      </trkpt>
      <trkpt lat="43.13441" lon="-0.04333">
        <ele>452.8</ele>
        <time>2020-09-12T20:58:35Z</time>
      </trkpt>
      <trkpt lat="43.13445" lon="-0.04336">
        <ele>453</ele>
        <time>2020-09-12T20:58:37Z</time>
      </trkpt>
      <trkpt lat="43.13448" lon="-0.0434">
        <ele>453.2</ele>
        <time>2020-09-12T20:58:39Z</time>
      </trkpt>
      <trkpt lat="43.13451" lon="-0.04342">
        <ele>453.4</ele>
        <time>2020-09-12T20:58:41Z</time>
      </trkpt>
      <trkpt lat="43.13453" lon="-0.04346">
        <ele>453.7</ele>
        <time>2020-09-12T20:58:43Z</time>
      </trkpt>
      <trkpt lat="43.13457" lon="-0.04349">
        <ele>453.9</ele>
        <time>2020-09-12T20:58:45Z</time>
      </trkpt>
      <trkpt lat="43.1346" lon="-0.04352">
        <ele>454.2</ele>
        <time>2020-09-12T20:58:47Z</time>
      </trkpt>
      <trkpt lat="43.13462" lon="-0.04355">
        <ele>454.5</ele>
        <time>2020-09-12T20:58:50Z</time>
      </trkpt>
      <trkpt lat="43.13466" lon="-0.04356">
        <ele>454.8</ele>
        <time>2020-09-12T20:58:52Z</time>
      </trkpt>
      <trkpt lat="43.1347" lon="-0.04358">
        <ele>455.3</ele>
        <time>2020-09-12T20:58:54Z</time>
      </trkpt>
      <trkpt lat="43.13473" lon="-0.04363">
        <ele>455.8</ele>
        <time>2020-09-12T20:58:59Z</time>
      </trkpt>
      <trkpt lat="43.13476" lon="-0.04366">
        <ele>456.4</ele>
        <time>2020-09-12T20:59:01Z</time>
      </trkpt>
      <trkpt lat="43.13479" lon="-0.04371">
        <ele>457.1</ele>
        <time>2020-09-12T20:59:03Z</time>
      </trkpt>
      <trkpt lat="43.13481" lon="-0.04374">
        <ele>457.6</ele>
        <time>2020-09-12T20:59:04Z</time>
      </trkpt>
      <trkpt lat="43.13484" lon="-0.04383">
        <ele>458.9</ele>
        <time>2020-09-12T20:59:06Z</time>
      </trkpt>
      <trkpt lat="43.13485" lon="-0.04387">
        <ele>459.5</ele>
        <time>2020-09-12T20:59:07Z</time>
      </trkpt>
      <trkpt lat="43.13485" lon="-0.04391">
        <ele>460</ele>
        <time>2020-09-12T20:59:08Z</time>
      </trkpt>
      <trkpt lat="43.13486" lon="-0.04396">
        <ele>460.6</ele>
        <time>2020-09-12T20:59:10Z</time>
      </trkpt>
      <trkpt lat="43.13485" lon="-0.04402">
        <ele>461.5</ele>
        <time>2020-09-12T20:59:13Z</time>
      </trkpt>
      <trkpt lat="43.13485" lon="-0.04406">
        <ele>462</ele>
        <time>2020-09-12T20:59:15Z</time>
      </trkpt>
      <trkpt lat="43.13486" lon="-0.04411">
        <ele>462.6</ele>
        <time>2020-09-12T20:59:18Z</time>
      </trkpt>
      <trkpt lat="43.13487" lon="-0.04417">
        <ele>463.2</ele>
        <time>2020-09-12T20:59:21Z</time>
      </trkpt>
      <trkpt lat="43.13487" lon="-0.04421">
        <ele>463.7</ele>
        <time>2020-09-12T20:59:24Z</time>
      </trkpt>
      <trkpt lat="43.13487" lon="-0.04429">
        <ele>464.7</ele>
        <time>2020-09-12T20:59:28Z</time>
      </trkpt>
      <trkpt lat="43.13486" lon="-0.04435">
        <ele>465.4</ele>
        <time>2020-09-12T20:59:30Z</time>
      </trkpt>
      <trkpt lat="43.13487" lon="-0.04438">
        <ele>465.8</ele>
        <time>2020-09-12T20:59:32Z</time>
      </trkpt>
      <trkpt lat="43.13488" lon="-0.04441">
        <ele>466.2</ele>
        <time>2020-09-12T20:59:34Z</time>
      </trkpt>
      <trkpt lat="43.1349" lon="-0.04444">
        <ele>466.8</ele>
        <time>2020-09-12T20:59:36Z</time>
      </trkpt>
      <trkpt lat="43.13493" lon="-0.04447">
        <ele>467.3</ele>
        <time>2020-09-12T20:59:39Z</time>
      </trkpt>
      <trkpt lat="43.13496" lon="-0.04447">
        <ele>467.9</ele>
        <time>2020-09-12T20:59:44Z</time>
      </trkpt>
      <trkpt lat="43.135" lon="-0.04449">
        <ele>468.4</ele>
        <time>2020-09-12T20:59:47Z</time>
      </trkpt>
      <trkpt lat="43.13503" lon="-0.04449">
        <ele>468.8</ele>
        <time>2020-09-12T20:59:50Z</time>
      </trkpt>
      <trkpt lat="43.13506" lon="-0.04448">
        <ele>469.2</ele>
        <time>2020-09-12T20:59:53Z</time>
      </trkpt>
      <trkpt lat="43.13509" lon="-0.04447">
        <ele>469.8</ele>
        <time>2020-09-12T20:59:56Z</time>
      </trkpt>
      <trkpt lat="43.13512" lon="-0.04448">
        <ele>470.5</ele>
        <time>2020-09-12T20:59:59Z</time>
      </trkpt>
      <trkpt lat="43.13516" lon="-0.0445">
        <ele>471.3</ele>
        <time>2020-09-12T21:00:02Z</time>
      </trkpt>
      <trkpt lat="43.13519" lon="-0.04451">
        <ele>472.1</ele>
        <time>2020-09-12T21:00:05Z</time>
      </trkpt>
      <trkpt lat="43.13522" lon="-0.04452">
        <ele>472.7</ele>
        <time>2020-09-12T21:00:10Z</time>
      </trkpt>
      <trkpt lat="43.13526" lon="-0.04453">
        <ele>473.4</ele>
        <time>2020-09-12T21:00:13Z</time>
      </trkpt>
      <trkpt lat="43.13529" lon="-0.04453">
        <ele>474.1</ele>
        <time>2020-09-12T21:00:15Z</time>
      </trkpt>
      <trkpt lat="43.13533" lon="-0.04452">
        <ele>474.8</ele>
        <time>2020-09-12T21:00:17Z</time>
      </trkpt>
      <trkpt lat="43.13536" lon="-0.04453">
        <ele>475.3</ele>
        <time>2020-09-12T21:00:19Z</time>
      </trkpt>
      <trkpt lat="43.13538" lon="-0.04454">
        <ele>475.9</ele>
        <time>2020-09-12T21:00:21Z</time>
      </trkpt>
      <trkpt lat="43.13541" lon="-0.04456">
        <ele>476.5</ele>
        <time>2020-09-12T21:00:25Z</time>
      </trkpt>
      <trkpt lat="43.13544" lon="-0.04459">
        <ele>477.4</ele>
        <time>2020-09-12T21:00:28Z</time>
      </trkpt>
      <trkpt lat="43.13547" lon="-0.0446">
        <ele>478</ele>
        <time>2020-09-12T21:00:30Z</time>
      </trkpt>
      <trkpt lat="43.13549" lon="-0.04457">
        <ele>478.6</ele>
        <time>2020-09-12T21:00:34Z</time>
      </trkpt>
      <trkpt lat="43.13551" lon="-0.04455">
        <ele>479.1</ele>
        <time>2020-09-12T21:00:37Z</time>
      </trkpt>
      <trkpt lat="43.13554" lon="-0.04456">
        <ele>479.6</ele>
        <time>2020-09-12T21:00:41Z</time>
      </trkpt>
      <trkpt lat="43.13558" lon="-0.04456">
        <ele>480.2</ele>
        <time>2020-09-12T21:00:43Z</time>
      </trkpt>
      <trkpt lat="43.13561" lon="-0.04457">
        <ele>480.6</ele>
        <time>2020-09-12T21:00:45Z</time>
      </trkpt>
      <trkpt lat="43.13563" lon="-0.04457">
        <ele>481.1</ele>
        <time>2020-09-12T21:00:47Z</time>
      </trkpt>
      <trkpt lat="43.13567" lon="-0.04458">
        <ele>481.7</ele>
        <time>2020-09-12T21:00:50Z</time>
      </trkpt>
      <trkpt lat="43.1357" lon="-0.04459">
        <ele>482.2</ele>
        <time>2020-09-12T21:00:53Z</time>
      </trkpt>
      <trkpt lat="43.13572" lon="-0.04462">
        <ele>482.6</ele>
        <time>2020-09-12T21:00:58Z</time>
      </trkpt>
      <trkpt lat="43.13576" lon="-0.04465">
        <ele>483.3</ele>
        <time>2020-09-12T21:01:01Z</time>
      </trkpt>
      <trkpt lat="43.13579" lon="-0.04468">
        <ele>483.8</ele>
        <time>2020-09-12T21:01:03Z</time>
      </trkpt>
      <trkpt lat="43.13581" lon="-0.04472">
        <ele>484.4</ele>
        <time>2020-09-12T21:01:07Z</time>
      </trkpt>
      <trkpt lat="43.13583" lon="-0.04475">
        <ele>484.9</ele>
        <time>2020-09-12T21:01:10Z</time>
      </trkpt>
      <trkpt lat="43.13585" lon="-0.04478">
        <ele>485.3</ele>
        <time>2020-09-12T21:01:13Z</time>
      </trkpt>
      <trkpt lat="43.13589" lon="-0.0448">
        <ele>485.8</ele>
        <time>2020-09-12T21:01:15Z</time>
      </trkpt>
      <trkpt lat="43.13591" lon="-0.04484">
        <ele>486.2</ele>
        <time>2020-09-12T21:01:18Z</time>
      </trkpt>
      <trkpt lat="43.13595" lon="-0.04486">
        <ele>486.7</ele>
        <time>2020-09-12T21:01:20Z</time>
      </trkpt>
      <trkpt lat="43.13598" lon="-0.04489">
        <ele>487.3</ele>
        <time>2020-09-12T21:01:22Z</time>
      </trkpt>
      <trkpt lat="43.13601" lon="-0.04492">
        <ele>487.8</ele>
        <time>2020-09-12T21:01:24Z</time>
      </trkpt>
      <trkpt lat="43.13604" lon="-0.04494">
        <ele>488.3</ele>
        <time>2020-09-12T21:01:27Z</time>
      </trkpt>
      <trkpt lat="43.13606" lon="-0.04498">
        <ele>488.8</ele>
        <time>2020-09-12T21:01:29Z</time>
      </trkpt>
      <trkpt lat="43.13608" lon="-0.04501">
        <ele>489.3</ele>
        <time>2020-09-12T21:01:31Z</time>
      </trkpt>
      <trkpt lat="43.1361" lon="-0.04504">
        <ele>489.8</ele>
        <time>2020-09-12T21:01:33Z</time>
      </trkpt>
      <trkpt lat="43.13612" lon="-0.04506">
        <ele>490.3</ele>
        <time>2020-09-12T21:01:37Z</time>
      </trkpt>
      <trkpt lat="43.13614" lon="-0.0451">
        <ele>490.8</ele>
        <time>2020-09-12T21:01:40Z</time>
      </trkpt>
      <trkpt lat="43.13617" lon="-0.04512">
        <ele>491.2</ele>
        <time>2020-09-12T21:01:42Z</time>
      </trkpt>
      <trkpt lat="43.13619" lon="-0.04515">
        <ele>491.7</ele>
        <time>2020-09-12T21:01:45Z</time>
      </trkpt>
      <trkpt lat="43.13621" lon="-0.04519">
        <ele>492.2</ele>
        <time>2020-09-12T21:01:48Z</time>
      </trkpt>
      <trkpt lat="43.13623" lon="-0.04523">
        <ele>492.7</ele>
        <time>2020-09-12T21:01:50Z</time>
      </trkpt>
      <trkpt lat="43.13626" lon="-0.04526">
        <ele>493.3</ele>
        <time>2020-09-12T21:01:53Z</time>
      </trkpt>
      <trkpt lat="43.13628" lon="-0.04529">
        <ele>493.7</ele>
        <time>2020-09-12T21:01:55Z</time>
      </trkpt>
      <trkpt lat="43.13631" lon="-0.04529">
        <ele>494.2</ele>
        <time>2020-09-12T21:01:58Z</time>
      </trkpt>
      <trkpt lat="43.13633" lon="-0.04532">
        <ele>494.7</ele>
        <time>2020-09-12T21:02:01Z</time>
      </trkpt>
      <trkpt lat="43.13637" lon="-0.04534">
        <ele>495.5</ele>
        <time>2020-09-12T21:02:03Z</time>
      </trkpt>
      <trkpt lat="43.1364" lon="-0.04536">
        <ele>496</ele>
        <time>2020-09-12T21:02:05Z</time>
      </trkpt>
      <trkpt lat="43.13643" lon="-0.04538">
        <ele>496.5</ele>
        <time>2020-09-12T21:02:07Z</time>
      </trkpt>
      <trkpt lat="43.13646" lon="-0.0454">
        <ele>497</ele>
        <time>2020-09-12T21:02:09Z</time>
      </trkpt>
      <trkpt lat="43.13646" lon="-0.04544">
        <ele>497.4</ele>
        <time>2020-09-12T21:02:11Z</time>
      </trkpt>
      <trkpt lat="43.13649" lon="-0.04546">
        <ele>497.8</ele>
        <time>2020-09-12T21:02:16Z</time>
      </trkpt>
      <trkpt lat="43.13651" lon="-0.04549">
        <ele>498.2</ele>
        <time>2020-09-12T21:02:19Z</time>
      </trkpt>
      <trkpt lat="43.13653" lon="-0.04553">
        <ele>498.6</ele>
        <time>2020-09-12T21:02:22Z</time>
      </trkpt>
      <trkpt lat="43.13656" lon="-0.04557">
        <ele>499</ele>
        <time>2020-09-12T21:02:25Z</time>
      </trkpt>
      <trkpt lat="43.13657" lon="-0.04561">
        <ele>499.3</ele>
        <time>2020-09-12T21:02:27Z</time>
      </trkpt>
      <trkpt lat="43.1366" lon="-0.04564">
        <ele>499.7</ele>
        <time>2020-09-12T21:02:30Z</time>
      </trkpt>
      <trkpt lat="43.13663" lon="-0.04566">
        <ele>500</ele>
        <time>2020-09-12T21:02:33Z</time>
      </trkpt>
      <trkpt lat="43.13665" lon="-0.04569">
        <ele>500.3</ele>
        <time>2020-09-12T21:02:35Z</time>
      </trkpt>
      <trkpt lat="43.13669" lon="-0.04571">
        <ele>500.7</ele>
        <time>2020-09-12T21:02:37Z</time>
      </trkpt>
      <trkpt lat="43.13672" lon="-0.04574">
        <ele>501.1</ele>
        <time>2020-09-12T21:02:39Z</time>
      </trkpt>
      <trkpt lat="43.13675" lon="-0.04576">
        <ele>501.3</ele>
        <time>2020-09-12T21:02:41Z</time>
      </trkpt>
      <trkpt lat="43.13678" lon="-0.04578">
        <ele>501.6</ele>
        <time>2020-09-12T21:02:43Z</time>
      </trkpt>
      <trkpt lat="43.1368" lon="-0.04581">
        <ele>501.9</ele>
        <time>2020-09-12T21:02:45Z</time>
      </trkpt>
      <trkpt lat="43.13681" lon="-0.04585">
        <ele>502.2</ele>
        <time>2020-09-12T21:02:47Z</time>
      </trkpt>
      <trkpt lat="43.13684" lon="-0.04587">
        <ele>502.6</ele>
        <time>2020-09-12T21:02:49Z</time>
      </trkpt>
      <trkpt lat="43.13687" lon="-0.04588">
        <ele>503</ele>
        <time>2020-09-12T21:02:52Z</time>
      </trkpt>
      <trkpt lat="43.1369" lon="-0.04591">
        <ele>503.5</ele>
        <time>2020-09-12T21:02:55Z</time>
      </trkpt>
      <trkpt lat="43.13693" lon="-0.04593">
        <ele>503.8</ele>
        <time>2020-09-12T21:02:57Z</time>
      </trkpt>
      <trkpt lat="43.13696" lon="-0.04593">
        <ele>504.3</ele>
        <time>2020-09-12T21:02:59Z</time>
      </trkpt>
      <trkpt lat="43.13698" lon="-0.04596">
        <ele>504.6</ele>
        <time>2020-09-12T21:03:01Z</time>
      </trkpt>
      <trkpt lat="43.13699" lon="-0.04601">
        <ele>505.2</ele>
        <time>2020-09-12T21:03:03Z</time>
      </trkpt>
      <trkpt lat="43.13702" lon="-0.04605">
        <ele>505.9</ele>
        <time>2020-09-12T21:03:06Z</time>
      </trkpt>
      <trkpt lat="43.13705" lon="-0.04607">
        <ele>506.3</ele>
        <time>2020-09-12T21:03:09Z</time>
      </trkpt>
      <trkpt lat="43.13708" lon="-0.04611">
        <ele>506.9</ele>
        <time>2020-09-12T21:03:12Z</time>
      </trkpt>
      <trkpt lat="43.13712" lon="-0.04614">
        <ele>507.5</ele>
        <time>2020-09-12T21:03:15Z</time>
      </trkpt>
      <trkpt lat="43.13714" lon="-0.04617">
        <ele>507.9</ele>
        <time>2020-09-12T21:03:17Z</time>
      </trkpt>
      <trkpt lat="43.13716" lon="-0.0462">
        <ele>508.3</ele>
        <time>2020-09-12T21:03:19Z</time>
      </trkpt>
      <trkpt lat="43.13718" lon="-0.04623">
        <ele>508.6</ele>
        <time>2020-09-12T21:03:21Z</time>
      </trkpt>
      <trkpt lat="43.13721" lon="-0.04625">
        <ele>509</ele>
        <time>2020-09-12T21:03:23Z</time>
      </trkpt>
      <trkpt lat="43.13724" lon="-0.04629">
        <ele>509.3</ele>
        <time>2020-09-12T21:03:25Z</time>
      </trkpt>
      <trkpt lat="43.13727" lon="-0.04631">
        <ele>509.7</ele>
        <time>2020-09-12T21:03:27Z</time>
      </trkpt>
      <trkpt lat="43.1373" lon="-0.04634">
        <ele>510</ele>
        <time>2020-09-12T21:03:29Z</time>
      </trkpt>
      <trkpt lat="43.13733" lon="-0.04636">
        <ele>510.2</ele>
        <time>2020-09-12T21:03:31Z</time>
      </trkpt>
      <trkpt lat="43.13735" lon="-0.04639">
        <ele>510.5</ele>
        <time>2020-09-12T21:03:33Z</time>
      </trkpt>
      <trkpt lat="43.13737" lon="-0.04644">
        <ele>510.8</ele>
        <time>2020-09-12T21:03:35Z</time>
      </trkpt>
      <trkpt lat="43.13739" lon="-0.04649">
        <ele>511</ele>
        <time>2020-09-12T21:03:37Z</time>
      </trkpt>
      <trkpt lat="43.13743" lon="-0.04654">
        <ele>511.4</ele>
        <time>2020-09-12T21:03:39Z</time>
      </trkpt>
      <trkpt lat="43.13747" lon="-0.04657">
        <ele>511.7</ele>
        <time>2020-09-12T21:03:41Z</time>
      </trkpt>
      <trkpt lat="43.13749" lon="-0.04661">
        <ele>512</ele>
        <time>2020-09-12T21:03:43Z</time>
      </trkpt>
      <trkpt lat="43.13753" lon="-0.04664">
        <ele>512.2</ele>
        <time>2020-09-12T21:03:45Z</time>
      </trkpt>
      <trkpt lat="43.13756" lon="-0.04666">
        <ele>512.3</ele>
        <time>2020-09-12T21:03:46Z</time>
      </trkpt>
      <trkpt lat="43.13758" lon="-0.04668">
        <ele>512.5</ele>
        <time>2020-09-12T21:03:47Z</time>
      </trkpt>
      <trkpt lat="43.13762" lon="-0.04673">
        <ele>512.7</ele>
        <time>2020-09-12T21:03:49Z</time>
      </trkpt>
      <trkpt lat="43.13765" lon="-0.04675">
        <ele>512.8</ele>
        <time>2020-09-12T21:03:50Z</time>
      </trkpt>
      <trkpt lat="43.13768" lon="-0.04678">
        <ele>512.9</ele>
        <time>2020-09-12T21:03:51Z</time>
      </trkpt>
      <trkpt lat="43.13774" lon="-0.04681">
        <ele>513</ele>
        <time>2020-09-12T21:03:53Z</time>
      </trkpt>
      <trkpt lat="43.13776" lon="-0.04682">
        <ele>513.1</ele>
        <time>2020-09-12T21:03:54Z</time>
      </trkpt>
      <trkpt lat="43.1378" lon="-0.04685">
        <ele>513.2</ele>
        <time>2020-09-12T21:03:55Z</time>
      </trkpt>
      <trkpt lat="43.13785" lon="-0.04688">
        <ele>513.3</ele>
        <time>2020-09-12T21:03:56Z</time>
      </trkpt>
      <trkpt lat="43.13789" lon="-0.04691">
        <ele>513.4</ele>
        <time>2020-09-12T21:03:57Z</time>
      </trkpt>
      <trkpt lat="43.13792" lon="-0.04697">
        <ele>513.4</ele>
        <time>2020-09-12T21:03:58Z</time>
      </trkpt>
      <trkpt lat="43.13795" lon="-0.047">
        <ele>513.5</ele>
        <time>2020-09-12T21:03:59Z</time>
      </trkpt>
      <trkpt lat="43.13797" lon="-0.04704">
        <ele>513.5</ele>
        <time>2020-09-12T21:04:00Z</time>
      </trkpt>
      <trkpt lat="43.13799" lon="-0.04708">
        <ele>513.6</ele>
        <time>2020-09-12T21:04:01Z</time>
      </trkpt>
      <trkpt lat="43.13801" lon="-0.04712">
        <ele>513.6</ele>
        <time>2020-09-12T21:04:02Z</time>
      </trkpt>
      <trkpt lat="43.13804" lon="-0.04717">
        <ele>513.7</ele>
        <time>2020-09-12T21:04:03Z</time>
      </trkpt>
      <trkpt lat="43.13806" lon="-0.04722">
        <ele>513.8</ele>
        <time>2020-09-12T21:04:04Z</time>
      </trkpt>
      <trkpt lat="43.13807" lon="-0.04725">
        <ele>513.9</ele>
        <time>2020-09-12T21:04:05Z</time>
      </trkpt>
      <trkpt lat="43.13809" lon="-0.04728">
        <ele>514</ele>
        <time>2020-09-12T21:04:06Z</time>
      </trkpt>
      <trkpt lat="43.13812" lon="-0.04732">
        <ele>514.1</ele>
        <time>2020-09-12T21:04:08Z</time>
      </trkpt>
      <trkpt lat="43.13815" lon="-0.04737">
        <ele>514.3</ele>
        <time>2020-09-12T21:04:10Z</time>
      </trkpt>
      <trkpt lat="43.13819" lon="-0.0474">
        <ele>514.6</ele>
        <time>2020-09-12T21:04:12Z</time>
      </trkpt>
      <trkpt lat="43.13821" lon="-0.04744">
        <ele>514.9</ele>
        <time>2020-09-12T21:04:14Z</time>
      </trkpt>
      <trkpt lat="43.13824" lon="-0.04748">
        <ele>515.3</ele>
        <time>2020-09-12T21:04:17Z</time>
      </trkpt>
      <trkpt lat="43.13829" lon="-0.0475">
        <ele>515.6</ele>
        <time>2020-09-12T21:04:19Z</time>
      </trkpt>
      <trkpt lat="43.13831" lon="-0.04752">
        <ele>515.8</ele>
        <time>2020-09-12T21:04:20Z</time>
      </trkpt>
      <trkpt lat="43.13836" lon="-0.04754">
        <ele>516.1</ele>
        <time>2020-09-12T21:04:22Z</time>
      </trkpt>
      <trkpt lat="43.13839" lon="-0.04758">
        <ele>516.4</ele>
        <time>2020-09-12T21:04:24Z</time>
      </trkpt>
      <trkpt lat="43.13842" lon="-0.04762">
        <ele>516.7</ele>
        <time>2020-09-12T21:04:26Z</time>
      </trkpt>
      <trkpt lat="43.13845" lon="-0.04768">
        <ele>517.1</ele>
        <time>2020-09-12T21:04:28Z</time>
      </trkpt>
      <trkpt lat="43.1385" lon="-0.04771">
        <ele>517.5</ele>
        <time>2020-09-12T21:04:30Z</time>
      </trkpt>
      <trkpt lat="43.13852" lon="-0.04773">
        <ele>517.7</ele>
        <time>2020-09-12T21:04:31Z</time>
      </trkpt>
      <trkpt lat="43.13855" lon="-0.04776">
        <ele>518</ele>
        <time>2020-09-12T21:04:33Z</time>
      </trkpt>
      <trkpt lat="43.13856" lon="-0.04781">
        <ele>518.3</ele>
        <time>2020-09-12T21:04:35Z</time>
      </trkpt>
      <trkpt lat="43.13856" lon="-0.04786">
        <ele>518.7</ele>
        <time>2020-09-12T21:04:37Z</time>
      </trkpt>
      <trkpt lat="43.13853" lon="-0.04792">
        <ele>519.3</ele>
        <time>2020-09-12T21:04:40Z</time>
      </trkpt>
      <trkpt lat="43.13851" lon="-0.04793">
        <ele>519.7</ele>
        <time>2020-09-12T21:04:43Z</time>
      </trkpt>
      <trkpt lat="43.13848" lon="-0.04796">
        <ele>520.2</ele>
        <time>2020-09-12T21:04:45Z</time>
      </trkpt>
      <trkpt lat="43.13846" lon="-0.04798">
        <ele>520.5</ele>
        <time>2020-09-12T21:04:46Z</time>
      </trkpt>
      <trkpt lat="43.13843" lon="-0.04801">
        <ele>520.8</ele>
        <time>2020-09-12T21:04:47Z</time>
      </trkpt>
      <trkpt lat="43.13839" lon="-0.04804">
        <ele>521.3</ele>
        <time>2020-09-12T21:04:49Z</time>
      </trkpt>
      <trkpt lat="43.13835" lon="-0.04806">
        <ele>521.7</ele>
        <time>2020-09-12T21:04:51Z</time>
      </trkpt>
      <trkpt lat="43.13833" lon="-0.04809">
        <ele>522</ele>
        <time>2020-09-12T21:04:54Z</time>
      </trkpt>
      <trkpt lat="43.13831" lon="-0.04811">
        <ele>522.3</ele>
        <time>2020-09-12T21:04:56Z</time>
      </trkpt>
      <trkpt lat="43.13827" lon="-0.04814">
        <ele>523</ele>
        <time>2020-09-12T21:04:59Z</time>
      </trkpt>
      <trkpt lat="43.13824" lon="-0.04815">
        <ele>523.4</ele>
        <time>2020-09-12T21:05:01Z</time>
      </trkpt>
      <trkpt lat="43.13821" lon="-0.04817">
        <ele>523.9</ele>
        <time>2020-09-12T21:05:03Z</time>
      </trkpt>
      <trkpt lat="43.13817" lon="-0.04821">
        <ele>524.4</ele>
        <time>2020-09-12T21:05:05Z</time>
      </trkpt>
      <trkpt lat="43.13814" lon="-0.04825">
        <ele>524.9</ele>
        <time>2020-09-12T21:05:07Z</time>
      </trkpt>
      <trkpt lat="43.13811" lon="-0.0483">
        <ele>525.5</ele>
        <time>2020-09-12T21:05:09Z</time>
      </trkpt>
      <trkpt lat="43.13809" lon="-0.04833">
        <ele>525.8</ele>
        <time>2020-09-12T21:05:11Z</time>
      </trkpt>
      <trkpt lat="43.13808" lon="-0.04837">
        <ele>526.1</ele>
        <time>2020-09-12T21:05:13Z</time>
      </trkpt>
      <trkpt lat="43.13808" lon="-0.04842">
        <ele>526.3</ele>
        <time>2020-09-12T21:05:15Z</time>
      </trkpt>
      <trkpt lat="43.13809" lon="-0.04847">
        <ele>526.5</ele>
        <time>2020-09-12T21:05:17Z</time>
      </trkpt>
      <trkpt lat="43.13812" lon="-0.04851">
        <ele>526.8</ele>
        <time>2020-09-12T21:05:19Z</time>
      </trkpt>
      <trkpt lat="43.13814" lon="-0.04857">
        <ele>527</ele>
        <time>2020-09-12T21:05:21Z</time>
      </trkpt>
      <trkpt lat="43.13816" lon="-0.0486">
        <ele>527.3</ele>
        <time>2020-09-12T21:05:23Z</time>
      </trkpt>
      <trkpt lat="43.13819" lon="-0.04866">
        <ele>527.5</ele>
        <time>2020-09-12T21:05:25Z</time>
      </trkpt>
      <trkpt lat="43.13821" lon="-0.04871">
        <ele>527.7</ele>
        <time>2020-09-12T21:05:27Z</time>
      </trkpt>
      <trkpt lat="43.13824" lon="-0.04875">
        <ele>527.8</ele>
        <time>2020-09-12T21:05:29Z</time>
      </trkpt>
      <trkpt lat="43.13827" lon="-0.04879">
        <ele>528</ele>
        <time>2020-09-12T21:05:31Z</time>
      </trkpt>
      <trkpt lat="43.13829" lon="-0.04882">
        <ele>528.1</ele>
        <time>2020-09-12T21:05:33Z</time>
      </trkpt>
      <trkpt lat="43.13832" lon="-0.04883">
        <ele>528.2</ele>
        <time>2020-09-12T21:05:35Z</time>
      </trkpt>
      <trkpt lat="43.13834" lon="-0.04886">
        <ele>528.4</ele>
        <time>2020-09-12T21:05:37Z</time>
      </trkpt>
      <trkpt lat="43.13837" lon="-0.04888">
        <ele>528.6</ele>
        <time>2020-09-12T21:05:39Z</time>
      </trkpt>
      <trkpt lat="43.1384" lon="-0.04888">
        <ele>528.7</ele>
        <time>2020-09-12T21:05:44Z</time>
      </trkpt>
      <trkpt lat="43.13845" lon="-0.04886">
        <ele>529</ele>
        <time>2020-09-12T21:05:48Z</time>
      </trkpt>
      <trkpt lat="43.13848" lon="-0.04885">
        <ele>529.3</ele>
        <time>2020-09-12T21:05:49Z</time>
      </trkpt>
      <trkpt lat="43.13852" lon="-0.04882">
        <ele>529.6</ele>
        <time>2020-09-12T21:05:51Z</time>
      </trkpt>
      <trkpt lat="43.13855" lon="-0.04881">
        <ele>530</ele>
        <time>2020-09-12T21:05:53Z</time>
      </trkpt>
      <trkpt lat="43.13858" lon="-0.04881">
        <ele>530.3</ele>
        <time>2020-09-12T21:05:56Z</time>
      </trkpt>
      <trkpt lat="43.13861" lon="-0.0488">
        <ele>530.6</ele>
        <time>2020-09-12T21:06:01Z</time>
      </trkpt>
      <trkpt lat="43.13864" lon="-0.04879">
        <ele>531</ele>
        <time>2020-09-12T21:06:04Z</time>
      </trkpt>
      <trkpt lat="43.13867" lon="-0.04878">
        <ele>531.3</ele>
        <time>2020-09-12T21:06:07Z</time>
      </trkpt>
      <trkpt lat="43.1387" lon="-0.04876">
        <ele>531.7</ele>
        <time>2020-09-12T21:06:13Z</time>
      </trkpt>
      <trkpt lat="43.13873" lon="-0.04875">
        <ele>532</ele>
        <time>2020-09-12T21:06:15Z</time>
      </trkpt>
      <trkpt lat="43.13877" lon="-0.04873">
        <ele>532.7</ele>
        <time>2020-09-12T21:06:17Z</time>
      </trkpt>
      <trkpt lat="43.13881" lon="-0.04869">
        <ele>533.5</ele>
        <time>2020-09-12T21:06:19Z</time>
      </trkpt>
      <trkpt lat="43.13883" lon="-0.04867">
        <ele>533.9</ele>
        <time>2020-09-12T21:06:20Z</time>
      </trkpt>
      <trkpt lat="43.13886" lon="-0.04865">
        <ele>534.4</ele>
        <time>2020-09-12T21:06:22Z</time>
      </trkpt>
      <trkpt lat="43.1389" lon="-0.04864">
        <ele>534.9</ele>
        <time>2020-09-12T21:06:24Z</time>
      </trkpt>
      <trkpt lat="43.13893" lon="-0.04862">
        <ele>535.4</ele>
        <time>2020-09-12T21:06:26Z</time>
      </trkpt>
      <trkpt lat="43.13896" lon="-0.0486">
        <ele>535.9</ele>
        <time>2020-09-12T21:06:28Z</time>
      </trkpt>
      <trkpt lat="43.139" lon="-0.04857">
        <ele>536.4</ele>
        <time>2020-09-12T21:06:31Z</time>
      </trkpt>
      <trkpt lat="43.13902" lon="-0.04854">
        <ele>536.7</ele>
        <time>2020-09-12T21:06:33Z</time>
      </trkpt>
      <trkpt lat="43.13905" lon="-0.04853">
        <ele>537</ele>
        <time>2020-09-12T21:06:35Z</time>
      </trkpt>
      <trkpt lat="43.13908" lon="-0.04851">
        <ele>537.3</ele>
        <time>2020-09-12T21:06:37Z</time>
      </trkpt>
      <trkpt lat="43.13911" lon="-0.04851">
        <ele>537.6</ele>
        <time>2020-09-12T21:06:39Z</time>
      </trkpt>
      <trkpt lat="43.13914" lon="-0.04852">
        <ele>537.8</ele>
        <time>2020-09-12T21:06:41Z</time>
      </trkpt>
      <trkpt lat="43.13917" lon="-0.04852">
        <ele>538.1</ele>
        <time>2020-09-12T21:06:43Z</time>
      </trkpt>
      <trkpt lat="43.1392" lon="-0.04855">
        <ele>538.3</ele>
        <time>2020-09-12T21:06:45Z</time>
      </trkpt>
      <trkpt lat="43.13922" lon="-0.04858">
        <ele>538.5</ele>
        <time>2020-09-12T21:06:47Z</time>
      </trkpt>
      <trkpt lat="43.13924" lon="-0.04861">
        <ele>538.6</ele>
        <time>2020-09-12T21:06:49Z</time>
      </trkpt>
      <trkpt lat="43.13926" lon="-0.04864">
        <ele>538.8</ele>
        <time>2020-09-12T21:06:51Z</time>
      </trkpt>
      <trkpt lat="43.13928" lon="-0.04868">
        <ele>539</ele>
        <time>2020-09-12T21:06:54Z</time>
      </trkpt>
      <trkpt lat="43.13933" lon="-0.0487">
        <ele>539.3</ele>
        <time>2020-09-12T21:06:57Z</time>
      </trkpt>
      <trkpt lat="43.13937" lon="-0.04871">
        <ele>539.6</ele>
        <time>2020-09-12T21:06:59Z</time>
      </trkpt>
      <trkpt lat="43.13941" lon="-0.04871">
        <ele>539.9</ele>
        <time>2020-09-12T21:07:01Z</time>
      </trkpt>
      <trkpt lat="43.13943" lon="-0.04873">
        <ele>540.1</ele>
        <time>2020-09-12T21:07:03Z</time>
      </trkpt>
      <trkpt lat="43.13946" lon="-0.04876">
        <ele>540.4</ele>
        <time>2020-09-12T21:07:05Z</time>
      </trkpt>
      <trkpt lat="43.13948" lon="-0.04879">
        <ele>540.7</ele>
        <time>2020-09-12T21:07:06Z</time>
      </trkpt>
      <trkpt lat="43.13951" lon="-0.04881">
        <ele>541</ele>
        <time>2020-09-12T21:07:07Z</time>
      </trkpt>
      <trkpt lat="43.13954" lon="-0.04884">
        <ele>541.3</ele>
        <time>2020-09-12T21:07:08Z</time>
      </trkpt>
      <trkpt lat="43.13955" lon="-0.04887">
        <ele>541.5</ele>
        <time>2020-09-12T21:07:09Z</time>
      </trkpt>
      <trkpt lat="43.13958" lon="-0.04891">
        <ele>541.8</ele>
        <time>2020-09-12T21:07:11Z</time>
      </trkpt>
      <trkpt lat="43.1396" lon="-0.04893">
        <ele>542</ele>
        <time>2020-09-12T21:07:12Z</time>
      </trkpt>
      <trkpt lat="43.13963" lon="-0.04895">
        <ele>542.2</ele>
        <time>2020-09-12T21:07:13Z</time>
      </trkpt>
      <trkpt lat="43.13964" lon="-0.04898">
        <ele>542.4</ele>
        <time>2020-09-12T21:07:14Z</time>
      </trkpt>
      <trkpt lat="43.13967" lon="-0.04901">
        <ele>542.6</ele>
        <time>2020-09-12T21:07:16Z</time>
      </trkpt>
      <trkpt lat="43.13972" lon="-0.04904">
        <ele>542.8</ele>
        <time>2020-09-12T21:07:18Z</time>
      </trkpt>
      <trkpt lat="43.13975" lon="-0.04907">
        <ele>542.9</ele>
        <time>2020-09-12T21:07:19Z</time>
      </trkpt>
      <trkpt lat="43.13978" lon="-0.04909">
        <ele>542.9</ele>
        <time>2020-09-12T21:07:20Z</time>
      </trkpt>
      <trkpt lat="43.13981" lon="-0.04911">
        <ele>543</ele>
        <time>2020-09-12T21:07:21Z</time>
      </trkpt>
      <trkpt lat="43.13984" lon="-0.04914">
        <ele>543</ele>
        <time>2020-09-12T21:07:22Z</time>
      </trkpt>
      <trkpt lat="43.13988" lon="-0.04916">
        <ele>543</ele>
        <time>2020-09-12T21:07:24Z</time>
      </trkpt>
      <trkpt lat="43.1399" lon="-0.04919">
        <ele>543</ele>
        <time>2020-09-12T21:07:25Z</time>
      </trkpt>
      <trkpt lat="43.13993" lon="-0.04921">
        <ele>542.9</ele>
        <time>2020-09-12T21:07:26Z</time>
      </trkpt>
      <trkpt lat="43.13998" lon="-0.04924">
        <ele>542.8</ele>
        <time>2020-09-12T21:07:27Z</time>
      </trkpt>
      <trkpt lat="43.14002" lon="-0.04927">
        <ele>542.5</ele>
        <time>2020-09-12T21:07:28Z</time>
      </trkpt>
      <trkpt lat="43.14005" lon="-0.04929">
        <ele>542.4</ele>
        <time>2020-09-12T21:07:29Z</time>
      </trkpt>
      <trkpt lat="43.14009" lon="-0.0493">
        <ele>542.2</ele>
        <time>2020-09-12T21:07:30Z</time>
      </trkpt>
      <trkpt lat="43.14012" lon="-0.04931">
        <ele>540.7</ele>
        <time>2020-09-12T21:07:31Z</time>
      </trkpt>
      <trkpt lat="43.14015" lon="-0.04927">
        <ele>540.6</ele>
        <time>2020-09-12T21:07:33Z</time>
      </trkpt>
      <trkpt lat="43.14017" lon="-0.04923">
        <ele>540.6</ele>
        <time>2020-09-12T21:07:35Z</time>
      </trkpt>
      <trkpt lat="43.14018" lon="-0.04919">
        <ele>540.5</ele>
        <time>2020-09-12T21:07:36Z</time>
      </trkpt>
      <trkpt lat="43.14019" lon="-0.04916">
        <ele>540.4</ele>
        <time>2020-09-12T21:07:37Z</time>
      </trkpt>
      <trkpt lat="43.14022" lon="-0.04911">
        <ele>540.3</ele>
        <time>2020-09-12T21:07:38Z</time>
      </trkpt>
      <trkpt lat="43.14024" lon="-0.04905">
        <ele>540.2</ele>
        <time>2020-09-12T21:07:39Z</time>
      </trkpt>
      <trkpt lat="43.14026" lon="-0.04899">
        <ele>540.2</ele>
        <time>2020-09-12T21:07:40Z</time>
      </trkpt>
      <trkpt lat="43.14028" lon="-0.04894">
        <ele>540.1</ele>
        <time>2020-09-12T21:07:41Z</time>
      </trkpt>
      <trkpt lat="43.14029" lon="-0.04889">
        <ele>540.1</ele>
        <time>2020-09-12T21:07:42Z</time>
      </trkpt>
      <trkpt lat="43.1403" lon="-0.04882">
        <ele>540.1</ele>
        <time>2020-09-12T21:07:43Z</time>
      </trkpt>
      <trkpt lat="43.14031" lon="-0.04878">
        <ele>540.1</ele>
        <time>2020-09-12T21:07:44Z</time>
      </trkpt>
      <trkpt lat="43.14032" lon="-0.04872">
        <ele>540</ele>
        <time>2020-09-12T21:07:45Z</time>
      </trkpt>
      <trkpt lat="43.14033" lon="-0.04866">
        <ele>540</ele>
        <time>2020-09-12T21:07:46Z</time>
      </trkpt>
      <trkpt lat="43.14034" lon="-0.04861">
        <ele>539.9</ele>
        <time>2020-09-12T21:07:47Z</time>
      </trkpt>
      <trkpt lat="43.14034" lon="-0.04854">
        <ele>539.9</ele>
        <time>2020-09-12T21:07:48Z</time>
      </trkpt>
      <trkpt lat="43.14035" lon="-0.04848">
        <ele>539.8</ele>
        <time>2020-09-12T21:07:49Z</time>
      </trkpt>
      <trkpt lat="43.14035" lon="-0.04842">
        <ele>539.7</ele>
        <time>2020-09-12T21:07:50Z</time>
      </trkpt>
      <trkpt lat="43.14036" lon="-0.04836">
        <ele>539.6</ele>
        <time>2020-09-12T21:07:51Z</time>
      </trkpt>
      <trkpt lat="43.14036" lon="-0.04829">
        <ele>539.5</ele>
        <time>2020-09-12T21:07:52Z</time>
      </trkpt>
      <trkpt lat="43.14036" lon="-0.04823">
        <ele>539.4</ele>
        <time>2020-09-12T21:07:53Z</time>
      </trkpt>
      <trkpt lat="43.14037" lon="-0.04817">
        <ele>539.3</ele>
        <time>2020-09-12T21:07:54Z</time>
      </trkpt>
      <trkpt lat="43.14037" lon="-0.0481">
        <ele>539.1</ele>
        <time>2020-09-12T21:07:55Z</time>
      </trkpt>
      <trkpt lat="43.14037" lon="-0.04804">
        <ele>538.9</ele>
        <time>2020-09-12T21:07:56Z</time>
      </trkpt>
      <trkpt lat="43.14035" lon="-0.04801">
        <ele>538.8</ele>
        <time>2020-09-12T21:07:57Z</time>
      </trkpt>
      <trkpt lat="43.14033" lon="-0.04797">
        <ele>538.7</ele>
        <time>2020-09-12T21:07:58Z</time>
      </trkpt>
      <trkpt lat="43.14033" lon="-0.04791">
        <ele>538.5</ele>
        <time>2020-09-12T21:07:59Z</time>
      </trkpt>
      <trkpt lat="43.14033" lon="-0.04784">
        <ele>538.2</ele>
        <time>2020-09-12T21:08:00Z</time>
      </trkpt>
      <trkpt lat="43.14032" lon="-0.04777">
        <ele>538</ele>
        <time>2020-09-12T21:08:01Z</time>
      </trkpt>
      <trkpt lat="43.14032" lon="-0.04769">
        <ele>537.7</ele>
        <time>2020-09-12T21:08:02Z</time>
      </trkpt>
      <trkpt lat="43.14032" lon="-0.04761">
        <ele>537.4</ele>
        <time>2020-09-12T21:08:03Z</time>
      </trkpt>
      <trkpt lat="43.14032" lon="-0.04753">
        <ele>537.1</ele>
        <time>2020-09-12T21:08:04Z</time>
      </trkpt>
      <trkpt lat="43.14032" lon="-0.04744">
        <ele>536.7</ele>
        <time>2020-09-12T21:08:05Z</time>
      </trkpt>
      <trkpt lat="43.14032" lon="-0.04735">
        <ele>536.3</ele>
        <time>2020-09-12T21:08:06Z</time>
      </trkpt>
      <trkpt lat="43.14033" lon="-0.04726">
        <ele>535.9</ele>
        <time>2020-09-12T21:08:07Z</time>
      </trkpt>
      <trkpt lat="43.14033" lon="-0.04716">
        <ele>535.5</ele>
        <time>2020-09-12T21:08:08Z</time>
      </trkpt>
      <trkpt lat="43.14033" lon="-0.04706">
        <ele>535</ele>
        <time>2020-09-12T21:08:09Z</time>
      </trkpt>
      <trkpt lat="43.14034" lon="-0.04697">
        <ele>534.6</ele>
        <time>2020-09-12T21:08:10Z</time>
      </trkpt>
      <trkpt lat="43.14034" lon="-0.04688">
        <ele>534.3</ele>
        <time>2020-09-12T21:08:11Z</time>
      </trkpt>
      <trkpt lat="43.14034" lon="-0.04678">
        <ele>533.9</ele>
        <time>2020-09-12T21:08:12Z</time>
      </trkpt>
      <trkpt lat="43.14034" lon="-0.04668">
        <ele>533.6</ele>
        <time>2020-09-12T21:08:13Z</time>
      </trkpt>
      <trkpt lat="43.14034" lon="-0.04658">
        <ele>533.3</ele>
        <time>2020-09-12T21:08:14Z</time>
      </trkpt>
      <trkpt lat="43.14034" lon="-0.04647">
        <ele>533</ele>
        <time>2020-09-12T21:08:15Z</time>
      </trkpt>
      <trkpt lat="43.14035" lon="-0.04636">
        <ele>532.7</ele>
        <time>2020-09-12T21:08:16Z</time>
      </trkpt>
      <trkpt lat="43.14036" lon="-0.04626">
        <ele>532.4</ele>
        <time>2020-09-12T21:08:17Z</time>
      </trkpt>
      <trkpt lat="43.14038" lon="-0.04615">
        <ele>532.2</ele>
        <time>2020-09-12T21:08:18Z</time>
      </trkpt>
      <trkpt lat="43.14039" lon="-0.04604">
        <ele>531.9</ele>
        <time>2020-09-12T21:08:19Z</time>
      </trkpt>
      <trkpt lat="43.14041" lon="-0.04593">
        <ele>531.6</ele>
        <time>2020-09-12T21:08:20Z</time>
      </trkpt>
      <trkpt lat="43.14043" lon="-0.04581">
        <ele>531.3</ele>
        <time>2020-09-12T21:08:21Z</time>
      </trkpt>
      <trkpt lat="43.14045" lon="-0.0457">
        <ele>530.9</ele>
        <time>2020-09-12T21:08:22Z</time>
      </trkpt>
      <trkpt lat="43.14046" lon="-0.04559">
        <ele>530.5</ele>
        <time>2020-09-12T21:08:23Z</time>
      </trkpt>
      <trkpt lat="43.14046" lon="-0.04548">
        <ele>529.9</ele>
        <time>2020-09-12T21:08:24Z</time>
      </trkpt>
      <trkpt lat="43.14046" lon="-0.04537">
        <ele>529.3</ele>
        <time>2020-09-12T21:08:25Z</time>
      </trkpt>
      <trkpt lat="43.14044" lon="-0.04525">
        <ele>528.4</ele>
        <time>2020-09-12T21:08:26Z</time>
      </trkpt>
      <trkpt lat="43.1404" lon="-0.04513">
        <ele>527.5</ele>
        <time>2020-09-12T21:08:27Z</time>
      </trkpt>
      <trkpt lat="43.14035" lon="-0.04502">
        <ele>526.6</ele>
        <time>2020-09-12T21:08:28Z</time>
      </trkpt>
      <trkpt lat="43.1403" lon="-0.04492">
        <ele>525.8</ele>
        <time>2020-09-12T21:08:29Z</time>
      </trkpt>
      <trkpt lat="43.14027" lon="-0.04481">
        <ele>525</ele>
        <time>2020-09-12T21:08:30Z</time>
      </trkpt>
      <trkpt lat="43.14027" lon="-0.04468">
        <ele>524.2</ele>
        <time>2020-09-12T21:08:31Z</time>
      </trkpt>
      <trkpt lat="43.14028" lon="-0.04455">
        <ele>523.3</ele>
        <time>2020-09-12T21:08:32Z</time>
      </trkpt>
      <trkpt lat="43.14031" lon="-0.04443">
        <ele>522.5</ele>
        <time>2020-09-12T21:08:33Z</time>
      </trkpt>
      <trkpt lat="43.14034" lon="-0.0443">
        <ele>521.8</ele>
        <time>2020-09-12T21:08:34Z</time>
      </trkpt>
      <trkpt lat="43.14039" lon="-0.04418">
        <ele>521.1</ele>
        <time>2020-09-12T21:08:35Z</time>
      </trkpt>
      <trkpt lat="43.14045" lon="-0.04406">
        <ele>520.3</ele>
        <time>2020-09-12T21:08:36Z</time>
      </trkpt>
      <trkpt lat="43.14051" lon="-0.04395">
        <ele>519.7</ele>
        <time>2020-09-12T21:08:37Z</time>
      </trkpt>
      <trkpt lat="43.14057" lon="-0.04383">
        <ele>519.1</ele>
        <time>2020-09-12T21:08:38Z</time>
      </trkpt>
      <trkpt lat="43.14062" lon="-0.04371">
        <ele>518.4</ele>
        <time>2020-09-12T21:08:39Z</time>
      </trkpt>
      <trkpt lat="43.14068" lon="-0.0436">
        <ele>517.7</ele>
        <time>2020-09-12T21:08:40Z</time>
      </trkpt>
      <trkpt lat="43.14074" lon="-0.04348">
        <ele>516.9</ele>
        <time>2020-09-12T21:08:41Z</time>
      </trkpt>
      <trkpt lat="43.14079" lon="-0.04336">
        <ele>516</ele>
        <time>2020-09-12T21:08:42Z</time>
      </trkpt>
      <trkpt lat="43.14086" lon="-0.04326">
        <ele>515.2</ele>
        <time>2020-09-12T21:08:43Z</time>
      </trkpt>
      <trkpt lat="43.14092" lon="-0.04315">
        <ele>514.5</ele>
        <time>2020-09-12T21:08:44Z</time>
      </trkpt>
      <trkpt lat="43.14096" lon="-0.04303">
        <ele>513.8</ele>
        <time>2020-09-12T21:08:45Z</time>
      </trkpt>
      <trkpt lat="43.14102" lon="-0.04293">
        <ele>513.4</ele>
        <time>2020-09-12T21:08:46Z</time>
      </trkpt>
      <trkpt lat="43.1411" lon="-0.04284">
        <ele>512.9</ele>
        <time>2020-09-12T21:08:47Z</time>
      </trkpt>
      <trkpt lat="43.14118" lon="-0.04276">
        <ele>512.4</ele>
        <time>2020-09-12T21:08:48Z</time>
      </trkpt>
      <trkpt lat="43.14128" lon="-0.04268">
        <ele>511.9</ele>
        <time>2020-09-12T21:08:49Z</time>
      </trkpt>
      <trkpt lat="43.14136" lon="-0.04261">
        <ele>511.5</ele>
        <time>2020-09-12T21:08:50Z</time>
      </trkpt>
      <trkpt lat="43.14145" lon="-0.04253">
        <ele>511.1</ele>
        <time>2020-09-12T21:08:51Z</time>
      </trkpt>
      <trkpt lat="43.14154" lon="-0.04247">
        <ele>510.9</ele>
        <time>2020-09-12T21:08:52Z</time>
      </trkpt>
      <trkpt lat="43.14162" lon="-0.04241">
        <ele>510.6</ele>
        <time>2020-09-12T21:08:53Z</time>
      </trkpt>
      <trkpt lat="43.1417" lon="-0.04234">
        <ele>510.4</ele>
        <time>2020-09-12T21:08:54Z</time>
      </trkpt>
      <trkpt lat="43.14178" lon="-0.04227">
        <ele>510.2</ele>
        <time>2020-09-12T21:08:55Z</time>
      </trkpt>
      <trkpt lat="43.14184" lon="-0.04219">
        <ele>510.1</ele>
        <time>2020-09-12T21:08:56Z</time>
      </trkpt>
      <trkpt lat="43.14191" lon="-0.04211">
        <ele>509.9</ele>
        <time>2020-09-12T21:08:57Z</time>
      </trkpt>
      <trkpt lat="43.14197" lon="-0.04204">
        <ele>509.8</ele>
        <time>2020-09-12T21:08:58Z</time>
      </trkpt>
      <trkpt lat="43.14202" lon="-0.04196">
        <ele>509.8</ele>
        <time>2020-09-12T21:08:59Z</time>
      </trkpt>
      <trkpt lat="43.14208" lon="-0.04189">
        <ele>509.7</ele>
        <time>2020-09-12T21:09:00Z</time>
      </trkpt>
      <trkpt lat="43.14213" lon="-0.04182">
        <ele>509.6</ele>
        <time>2020-09-12T21:09:01Z</time>
      </trkpt>
      <trkpt lat="43.14218" lon="-0.04175">
        <ele>509.6</ele>
        <time>2020-09-12T21:09:02Z</time>
      </trkpt>
      <trkpt lat="43.14223" lon="-0.04168">
        <ele>509.6</ele>
        <time>2020-09-12T21:09:03Z</time>
      </trkpt>
      <trkpt lat="43.14228" lon="-0.04161">
        <ele>509.6</ele>
        <time>2020-09-12T21:09:04Z</time>
      </trkpt>
      <trkpt lat="43.14233" lon="-0.04155">
        <ele>509.5</ele>
        <time>2020-09-12T21:09:05Z</time>
      </trkpt>
      <trkpt lat="43.14238" lon="-0.0415">
        <ele>509.5</ele>
        <time>2020-09-12T21:09:06Z</time>
      </trkpt>
      <trkpt lat="43.14242" lon="-0.04144">
        <ele>509.5</ele>
        <time>2020-09-12T21:09:07Z</time>
      </trkpt>
      <trkpt lat="43.14247" lon="-0.04139">
        <ele>509.5</ele>
        <time>2020-09-12T21:09:08Z</time>
      </trkpt>
      <trkpt lat="43.14252" lon="-0.04133">
        <ele>509.5</ele>
        <time>2020-09-12T21:09:09Z</time>
      </trkpt>
      <trkpt lat="43.14257" lon="-0.04127">
        <ele>509.5</ele>
        <time>2020-09-12T21:09:10Z</time>
      </trkpt>
      <trkpt lat="43.14262" lon="-0.0412">
        <ele>509.5</ele>
        <time>2020-09-12T21:09:11Z</time>
      </trkpt>
      <trkpt lat="43.14266" lon="-0.04114">
        <ele>509.5</ele>
        <time>2020-09-12T21:09:12Z</time>
      </trkpt>
      <trkpt lat="43.14271" lon="-0.04108">
        <ele>509.5</ele>
        <time>2020-09-12T21:09:13Z</time>
      </trkpt>
      <trkpt lat="43.14274" lon="-0.04102">
        <ele>509.5</ele>
        <time>2020-09-12T21:09:14Z</time>
      </trkpt>
      <trkpt lat="43.14278" lon="-0.04095">
        <ele>509.5</ele>
        <time>2020-09-12T21:09:15Z</time>
      </trkpt>
      <trkpt lat="43.1428" lon="-0.04088">
        <ele>509.5</ele>
        <time>2020-09-12T21:09:16Z</time>
      </trkpt>
      <trkpt lat="43.14283" lon="-0.0408">
        <ele>509.5</ele>
        <time>2020-09-12T21:09:17Z</time>
      </trkpt>
      <trkpt lat="43.14285" lon="-0.04073">
        <ele>509.5</ele>
        <time>2020-09-12T21:09:18Z</time>
      </trkpt>
      <trkpt lat="43.14287" lon="-0.04065">
        <ele>509.5</ele>
        <time>2020-09-12T21:09:19Z</time>
      </trkpt>
      <trkpt lat="43.1429" lon="-0.04056">
        <ele>509.5</ele>
        <time>2020-09-12T21:09:20Z</time>
      </trkpt>
      <trkpt lat="43.14292" lon="-0.04048">
        <ele>509.5</ele>
        <time>2020-09-12T21:09:21Z</time>
      </trkpt>
      <trkpt lat="43.14294" lon="-0.04041">
        <ele>509.5</ele>
        <time>2020-09-12T21:09:22Z</time>
      </trkpt>
      <trkpt lat="43.14298" lon="-0.04033">
        <ele>509.4</ele>
        <time>2020-09-12T21:09:23Z</time>
      </trkpt>
      <trkpt lat="43.14301" lon="-0.04025">
        <ele>509.4</ele>
        <time>2020-09-12T21:09:24Z</time>
      </trkpt>
      <trkpt lat="43.14304" lon="-0.04018">
        <ele>509.4</ele>
        <time>2020-09-12T21:09:25Z</time>
      </trkpt>
      <trkpt lat="43.14308" lon="-0.0401">
        <ele>509.4</ele>
        <time>2020-09-12T21:09:26Z</time>
      </trkpt>
      <trkpt lat="43.14311" lon="-0.04002">
        <ele>509.3</ele>
        <time>2020-09-12T21:09:27Z</time>
      </trkpt>
      <trkpt lat="43.14313" lon="-0.03993">
        <ele>509.3</ele>
        <time>2020-09-12T21:09:28Z</time>
      </trkpt>
      <trkpt lat="43.14316" lon="-0.03986">
        <ele>509.3</ele>
        <time>2020-09-12T21:09:29Z</time>
      </trkpt>
      <trkpt lat="43.14318" lon="-0.03977">
        <ele>508.7</ele>
        <time>2020-09-12T21:09:30Z</time>
      </trkpt>
      <trkpt lat="43.1432" lon="-0.03969">
        <ele>508.3</ele>
        <time>2020-09-12T21:09:31Z</time>
      </trkpt>
      <trkpt lat="43.14322" lon="-0.0396">
        <ele>507.8</ele>
        <time>2020-09-12T21:09:32Z</time>
      </trkpt>
      <trkpt lat="43.14324" lon="-0.03951">
        <ele>507.4</ele>
        <time>2020-09-12T21:09:33Z</time>
      </trkpt>
      <trkpt lat="43.14326" lon="-0.03942">
        <ele>508.2</ele>
        <time>2020-09-12T21:09:34Z</time>
      </trkpt>
      <trkpt lat="43.14328" lon="-0.03933">
        <ele>509</ele>
        <time>2020-09-12T21:09:35Z</time>
      </trkpt>
      <trkpt lat="43.1433" lon="-0.03924">
        <ele>509.6</ele>
        <time>2020-09-12T21:09:36Z</time>
      </trkpt>
      <trkpt lat="43.14332" lon="-0.03916">
        <ele>510.1</ele>
        <time>2020-09-12T21:09:37Z</time>
      </trkpt>
      <trkpt lat="43.14335" lon="-0.03908">
        <ele>510.6</ele>
        <time>2020-09-12T21:09:38Z</time>
      </trkpt>
      <trkpt lat="43.14338" lon="-0.03901">
        <ele>510.9</ele>
        <time>2020-09-12T21:09:39Z</time>
      </trkpt>
      <trkpt lat="43.14341" lon="-0.03894">
        <ele>511.2</ele>
        <time>2020-09-12T21:09:40Z</time>
      </trkpt>
      <trkpt lat="43.14345" lon="-0.0389">
        <ele>511.5</ele>
        <time>2020-09-12T21:09:41Z</time>
      </trkpt>
      <trkpt lat="43.1435" lon="-0.03885">
        <ele>511.8</ele>
        <time>2020-09-12T21:09:42Z</time>
      </trkpt>
      <trkpt lat="43.14354" lon="-0.0388">
        <ele>511.9</ele>
        <time>2020-09-12T21:09:43Z</time>
      </trkpt>
      <trkpt lat="43.14358" lon="-0.03876">
        <ele>512.1</ele>
        <time>2020-09-12T21:09:44Z</time>
      </trkpt>
      <trkpt lat="43.14362" lon="-0.0387">
        <ele>512.2</ele>
        <time>2020-09-12T21:09:45Z</time>
      </trkpt>
      <trkpt lat="43.14366" lon="-0.03865">
        <ele>512.4</ele>
        <time>2020-09-12T21:09:46Z</time>
      </trkpt>
      <trkpt lat="43.14369" lon="-0.03861">
        <ele>512.5</ele>
        <time>2020-09-12T21:09:47Z</time>
      </trkpt>
      <trkpt lat="43.14372" lon="-0.03856">
        <ele>512.7</ele>
        <time>2020-09-12T21:09:48Z</time>
      </trkpt>
      <trkpt lat="43.14375" lon="-0.03851">
        <ele>512.9</ele>
        <time>2020-09-12T21:09:49Z</time>
      </trkpt>
      <trkpt lat="43.14378" lon="-0.03847">
        <ele>513.1</ele>
        <time>2020-09-12T21:09:50Z</time>
      </trkpt>
      <trkpt lat="43.1438" lon="-0.03842">
        <ele>513.3</ele>
        <time>2020-09-12T21:09:51Z</time>
      </trkpt>
      <trkpt lat="43.14383" lon="-0.03838">
        <ele>513.5</ele>
        <time>2020-09-12T21:09:52Z</time>
      </trkpt>
      <trkpt lat="43.14385" lon="-0.03834">
        <ele>513.7</ele>
        <time>2020-09-12T21:09:53Z</time>
      </trkpt>
      <trkpt lat="43.14388" lon="-0.03829">
        <ele>513.9</ele>
        <time>2020-09-12T21:09:54Z</time>
      </trkpt>
      <trkpt lat="43.14391" lon="-0.03825">
        <ele>514.1</ele>
        <time>2020-09-12T21:09:55Z</time>
      </trkpt>
      <trkpt lat="43.14394" lon="-0.03822">
        <ele>514.3</ele>
        <time>2020-09-12T21:09:56Z</time>
      </trkpt>
      <trkpt lat="43.14397" lon="-0.03819">
        <ele>514.5</ele>
        <time>2020-09-12T21:09:57Z</time>
      </trkpt>
      <trkpt lat="43.144" lon="-0.03815">
        <ele>514.7</ele>
        <time>2020-09-12T21:09:58Z</time>
      </trkpt>
      <trkpt lat="43.14403" lon="-0.03812">
        <ele>514.9</ele>
        <time>2020-09-12T21:09:59Z</time>
      </trkpt>
      <trkpt lat="43.14405" lon="-0.03809">
        <ele>515.1</ele>
        <time>2020-09-12T21:10:00Z</time>
      </trkpt>
      <trkpt lat="43.14408" lon="-0.03806">
        <ele>515.3</ele>
        <time>2020-09-12T21:10:01Z</time>
      </trkpt>
      <trkpt lat="43.14411" lon="-0.03803">
        <ele>515.5</ele>
        <time>2020-09-12T21:10:02Z</time>
      </trkpt>
      <trkpt lat="43.14414" lon="-0.038">
        <ele>515.8</ele>
        <time>2020-09-12T21:10:03Z</time>
      </trkpt>
      <trkpt lat="43.14416" lon="-0.03797">
        <ele>516</ele>
        <time>2020-09-12T21:10:04Z</time>
      </trkpt>
      <trkpt lat="43.14419" lon="-0.03795">
        <ele>516.3</ele>
        <time>2020-09-12T21:10:05Z</time>
      </trkpt>
      <trkpt lat="43.14422" lon="-0.03792">
        <ele>516.5</ele>
        <time>2020-09-12T21:10:06Z</time>
      </trkpt>
      <trkpt lat="43.14425" lon="-0.03786">
        <ele>516.9</ele>
        <time>2020-09-12T21:10:08Z</time>
      </trkpt>
      <trkpt lat="43.14427" lon="-0.03784">
        <ele>517.1</ele>
        <time>2020-09-12T21:10:09Z</time>
      </trkpt>
      <trkpt lat="43.1443" lon="-0.03781">
        <ele>517.3</ele>
        <time>2020-09-12T21:10:10Z</time>
      </trkpt>
      <trkpt lat="43.14432" lon="-0.03777">
        <ele>517.5</ele>
        <time>2020-09-12T21:10:11Z</time>
      </trkpt>
      <trkpt lat="43.14435" lon="-0.03773">
        <ele>517.8</ele>
        <time>2020-09-12T21:10:12Z</time>
      </trkpt>
      <trkpt lat="43.14438" lon="-0.0377">
        <ele>518.2</ele>
        <time>2020-09-12T21:10:13Z</time>
      </trkpt>
      <trkpt lat="43.14441" lon="-0.03768">
        <ele>518.5</ele>
        <time>2020-09-12T21:10:14Z</time>
      </trkpt>
      <trkpt lat="43.14444" lon="-0.03767">
        <ele>518.8</ele>
        <time>2020-09-12T21:10:15Z</time>
      </trkpt>
      <trkpt lat="43.14449" lon="-0.03768">
        <ele>519.4</ele>
        <time>2020-09-12T21:10:17Z</time>
      </trkpt>
      <trkpt lat="43.14454" lon="-0.03766">
        <ele>520</ele>
        <time>2020-09-12T21:10:19Z</time>
      </trkpt>
      <trkpt lat="43.14458" lon="-0.03765">
        <ele>520.5</ele>
        <time>2020-09-12T21:10:21Z</time>
      </trkpt>
      <trkpt lat="43.14461" lon="-0.03765">
        <ele>521.1</ele>
        <time>2020-09-12T21:10:23Z</time>
      </trkpt>
      <trkpt lat="43.14464" lon="-0.03764">
        <ele>521.6</ele>
        <time>2020-09-12T21:10:25Z</time>
      </trkpt>
      <trkpt lat="43.14467" lon="-0.03763">
        <ele>522</ele>
        <time>2020-09-12T21:10:27Z</time>
      </trkpt>
      <trkpt lat="43.1447" lon="-0.03763">
        <ele>522.5</ele>
        <time>2020-09-12T21:10:29Z</time>
      </trkpt>
      <trkpt lat="43.14475" lon="-0.03762">
        <ele>523</ele>
        <time>2020-09-12T21:10:31Z</time>
      </trkpt>
      <trkpt lat="43.14478" lon="-0.0376">
        <ele>523.4</ele>
        <time>2020-09-12T21:10:33Z</time>
      </trkpt>
      <trkpt lat="43.14482" lon="-0.03759">
        <ele>523.8</ele>
        <time>2020-09-12T21:10:35Z</time>
      </trkpt>
      <trkpt lat="43.14486" lon="-0.03758">
        <ele>524.2</ele>
        <time>2020-09-12T21:10:37Z</time>
      </trkpt>
      <trkpt lat="43.14489" lon="-0.03759">
        <ele>524.5</ele>
        <time>2020-09-12T21:10:39Z</time>
      </trkpt>
      <trkpt lat="43.14494" lon="-0.0376">
        <ele>524.9</ele>
        <time>2020-09-12T21:10:41Z</time>
      </trkpt>
      <trkpt lat="43.14498" lon="-0.03761">
        <ele>525.4</ele>
        <time>2020-09-12T21:10:43Z</time>
      </trkpt>
      <trkpt lat="43.14502" lon="-0.0376">
        <ele>525.8</ele>
        <time>2020-09-12T21:10:45Z</time>
      </trkpt>
      <trkpt lat="43.14507" lon="-0.03759">
        <ele>526.4</ele>
        <time>2020-09-12T21:10:47Z</time>
      </trkpt>
      <trkpt lat="43.14511" lon="-0.03759">
        <ele>526.8</ele>
        <time>2020-09-12T21:10:49Z</time>
      </trkpt>
      <trkpt lat="43.14514" lon="-0.03757">
        <ele>527.1</ele>
        <time>2020-09-12T21:10:50Z</time>
      </trkpt>
      <trkpt lat="43.14518" lon="-0.03755">
        <ele>527.7</ele>
        <time>2020-09-12T21:10:52Z</time>
      </trkpt>
      <trkpt lat="43.14523" lon="-0.03753">
        <ele>528.4</ele>
        <time>2020-09-12T21:10:54Z</time>
      </trkpt>
      <trkpt lat="43.14526" lon="-0.03753">
        <ele>528.9</ele>
        <time>2020-09-12T21:10:56Z</time>
      </trkpt>
      <trkpt lat="43.1453" lon="-0.03752">
        <ele>529.5</ele>
        <time>2020-09-12T21:10:58Z</time>
      </trkpt>
      <trkpt lat="43.14534" lon="-0.03749">
        <ele>530</ele>
        <time>2020-09-12T21:11:00Z</time>
      </trkpt>
      <trkpt lat="43.14537" lon="-0.03747">
        <ele>530.4</ele>
        <time>2020-09-12T21:11:02Z</time>
      </trkpt>
      <trkpt lat="43.1454" lon="-0.03745">
        <ele>530.8</ele>
        <time>2020-09-12T21:11:04Z</time>
      </trkpt>
      <trkpt lat="43.14544" lon="-0.03741">
        <ele>531.2</ele>
        <time>2020-09-12T21:11:06Z</time>
      </trkpt>
      <trkpt lat="43.14547" lon="-0.03737">
        <ele>531.5</ele>
        <time>2020-09-12T21:11:08Z</time>
      </trkpt>
      <trkpt lat="43.14549" lon="-0.03734">
        <ele>531.7</ele>
        <time>2020-09-12T21:11:10Z</time>
      </trkpt>
      <trkpt lat="43.14551" lon="-0.0373">
        <ele>532</ele>
        <time>2020-09-12T21:11:12Z</time>
      </trkpt>
      <trkpt lat="43.14554" lon="-0.03725">
        <ele>532.3</ele>
        <time>2020-09-12T21:11:14Z</time>
      </trkpt>
      <trkpt lat="43.14556" lon="-0.0372">
        <ele>532.7</ele>
        <time>2020-09-12T21:11:16Z</time>
      </trkpt>
      <trkpt lat="43.14558" lon="-0.03714">
        <ele>533.3</ele>
        <time>2020-09-12T21:11:18Z</time>
      </trkpt>
      <trkpt lat="43.1456" lon="-0.03708">
        <ele>533.9</ele>
        <time>2020-09-12T21:11:20Z</time>
      </trkpt>
      <trkpt lat="43.14562" lon="-0.03704">
        <ele>534.4</ele>
        <time>2020-09-12T21:11:21Z</time>
      </trkpt>
      <trkpt lat="43.14565" lon="-0.03698">
        <ele>535.1</ele>
        <time>2020-09-12T21:11:23Z</time>
      </trkpt>
      <trkpt lat="43.14567" lon="-0.03695">
        <ele>535.5</ele>
        <time>2020-09-12T21:11:24Z</time>
      </trkpt>
      <trkpt lat="43.14568" lon="-0.03691">
        <ele>535.8</ele>
        <time>2020-09-12T21:11:25Z</time>
      </trkpt>
      <trkpt lat="43.1457" lon="-0.03684">
        <ele>536.3</ele>
        <time>2020-09-12T21:11:27Z</time>
      </trkpt>
      <trkpt lat="43.14572" lon="-0.03677">
        <ele>536.7</ele>
        <time>2020-09-12T21:11:29Z</time>
      </trkpt>
      <trkpt lat="43.14573" lon="-0.03673">
        <ele>536.8</ele>
        <time>2020-09-12T21:11:30Z</time>
      </trkpt>
      <trkpt lat="43.14574" lon="-0.03669">
        <ele>536.9</ele>
        <time>2020-09-12T21:11:31Z</time>
      </trkpt>
      <trkpt lat="43.14576" lon="-0.03666">
        <ele>537.1</ele>
        <time>2020-09-12T21:11:32Z</time>
      </trkpt>
      <trkpt lat="43.14577" lon="-0.03662">
        <ele>537.2</ele>
        <time>2020-09-12T21:11:33Z</time>
      </trkpt>
      <trkpt lat="43.14579" lon="-0.03655">
        <ele>537.3</ele>
        <time>2020-09-12T21:11:35Z</time>
      </trkpt>
      <trkpt lat="43.1458" lon="-0.03651">
        <ele>537.4</ele>
        <time>2020-09-12T21:11:36Z</time>
      </trkpt>
      <trkpt lat="43.14582" lon="-0.03645">
        <ele>537.5</ele>
        <time>2020-09-12T21:11:38Z</time>
      </trkpt>
      <trkpt lat="43.14583" lon="-0.03641">
        <ele>537.6</ele>
        <time>2020-09-12T21:11:39Z</time>
      </trkpt>
      <trkpt lat="43.14584" lon="-0.03637">
        <ele>537.7</ele>
        <time>2020-09-12T21:11:40Z</time>
      </trkpt>
      <trkpt lat="43.14585" lon="-0.03634">
        <ele>537.8</ele>
        <time>2020-09-12T21:11:41Z</time>
      </trkpt>
      <trkpt lat="43.14587" lon="-0.0363">
        <ele>537.9</ele>
        <time>2020-09-12T21:11:42Z</time>
      </trkpt>
      <trkpt lat="43.1459" lon="-0.03624">
        <ele>538.1</ele>
        <time>2020-09-12T21:11:44Z</time>
      </trkpt>
      <trkpt lat="43.14591" lon="-0.0362">
        <ele>538.3</ele>
        <time>2020-09-12T21:11:45Z</time>
      </trkpt>
      <trkpt lat="43.14593" lon="-0.03616">
        <ele>538.4</ele>
        <time>2020-09-12T21:11:46Z</time>
      </trkpt>
      <trkpt lat="43.14595" lon="-0.03611">
        <ele>538.7</ele>
        <time>2020-09-12T21:11:48Z</time>
      </trkpt>
      <trkpt lat="43.14598" lon="-0.03605">
        <ele>538.9</ele>
        <time>2020-09-12T21:11:50Z</time>
      </trkpt>
      <trkpt lat="43.14602" lon="-0.03599">
        <ele>539.2</ele>
        <time>2020-09-12T21:11:52Z</time>
      </trkpt>
      <trkpt lat="43.14604" lon="-0.03595">
        <ele>539.4</ele>
        <time>2020-09-12T21:11:53Z</time>
      </trkpt>
      <trkpt lat="43.14605" lon="-0.03591">
        <ele>539.6</ele>
        <time>2020-09-12T21:11:54Z</time>
      </trkpt>
      <trkpt lat="43.14607" lon="-0.03587">
        <ele>539.7</ele>
        <time>2020-09-12T21:11:55Z</time>
      </trkpt>
      <trkpt lat="43.14608" lon="-0.03584">
        <ele>539.9</ele>
        <time>2020-09-12T21:11:56Z</time>
      </trkpt>
      <trkpt lat="43.1461" lon="-0.0358">
        <ele>540</ele>
        <time>2020-09-12T21:11:57Z</time>
      </trkpt>
      <trkpt lat="43.14611" lon="-0.03575">
        <ele>540.2</ele>
        <time>2020-09-12T21:11:58Z</time>
      </trkpt>
      <trkpt lat="43.14612" lon="-0.03569">
        <ele>540.4</ele>
        <time>2020-09-12T21:11:59Z</time>
      </trkpt>
      <trkpt lat="43.14614" lon="-0.03564">
        <ele>540.6</ele>
        <time>2020-09-12T21:12:00Z</time>
      </trkpt>
      <trkpt lat="43.14615" lon="-0.03557">
        <ele>540.7</ele>
        <time>2020-09-12T21:12:01Z</time>
      </trkpt>
      <trkpt lat="43.14615" lon="-0.03551">
        <ele>540.8</ele>
        <time>2020-09-12T21:12:02Z</time>
      </trkpt>
      <trkpt lat="43.14615" lon="-0.03544">
        <ele>540.9</ele>
        <time>2020-09-12T21:12:03Z</time>
      </trkpt>
      <trkpt lat="43.14615" lon="-0.03537">
        <ele>540.9</ele>
        <time>2020-09-12T21:12:04Z</time>
      </trkpt>
      <trkpt lat="43.14616" lon="-0.0353">
        <ele>540.8</ele>
        <time>2020-09-12T21:12:05Z</time>
      </trkpt>
      <trkpt lat="43.14617" lon="-0.03525">
        <ele>540.8</ele>
        <time>2020-09-12T21:12:06Z</time>
      </trkpt>
      <trkpt lat="43.14619" lon="-0.0352">
        <ele>540.7</ele>
        <time>2020-09-12T21:12:07Z</time>
      </trkpt>
      <trkpt lat="43.14621" lon="-0.03516">
        <ele>540.7</ele>
        <time>2020-09-12T21:12:08Z</time>
      </trkpt>
      <trkpt lat="43.14623" lon="-0.03513">
        <ele>540.7</ele>
        <time>2020-09-12T21:12:09Z</time>
      </trkpt>
      <trkpt lat="43.14627" lon="-0.03509">
        <ele>540.7</ele>
        <time>2020-09-12T21:12:10Z</time>
      </trkpt>
      <trkpt lat="43.14632" lon="-0.03506">
        <ele>540.7</ele>
        <time>2020-09-12T21:12:11Z</time>
      </trkpt>
      <trkpt lat="43.14638" lon="-0.03503">
        <ele>540.7</ele>
        <time>2020-09-12T21:12:12Z</time>
      </trkpt>
      <trkpt lat="43.14643" lon="-0.03503">
        <ele>540.8</ele>
        <time>2020-09-12T21:12:13Z</time>
      </trkpt>
      <trkpt lat="43.14649" lon="-0.03503">
        <ele>540.8</ele>
        <time>2020-09-12T21:12:14Z</time>
      </trkpt>
      <trkpt lat="43.14654" lon="-0.03502">
        <ele>540.9</ele>
        <time>2020-09-12T21:12:15Z</time>
      </trkpt>
      <trkpt lat="43.1466" lon="-0.03501">
        <ele>540.9</ele>
        <time>2020-09-12T21:12:16Z</time>
      </trkpt>
      <trkpt lat="43.14666" lon="-0.035">
        <ele>540.9</ele>
        <time>2020-09-12T21:12:17Z</time>
      </trkpt>
      <trkpt lat="43.14673" lon="-0.035">
        <ele>540.8</ele>
        <time>2020-09-12T21:12:18Z</time>
      </trkpt>
      <trkpt lat="43.14679" lon="-0.03499">
        <ele>540.7</ele>
        <time>2020-09-12T21:12:19Z</time>
      </trkpt>
      <trkpt lat="43.14685" lon="-0.03498">
        <ele>540.5</ele>
        <time>2020-09-12T21:12:20Z</time>
      </trkpt>
      <trkpt lat="43.14691" lon="-0.03497">
        <ele>540.4</ele>
        <time>2020-09-12T21:12:21Z</time>
      </trkpt>
      <trkpt lat="43.14698" lon="-0.03496">
        <ele>540.2</ele>
        <time>2020-09-12T21:12:22Z</time>
      </trkpt>
      <trkpt lat="43.14704" lon="-0.03494">
        <ele>540.1</ele>
        <time>2020-09-12T21:12:23Z</time>
      </trkpt>
      <trkpt lat="43.14711" lon="-0.03494">
        <ele>539.9</ele>
        <time>2020-09-12T21:12:24Z</time>
      </trkpt>
      <trkpt lat="43.14717" lon="-0.03494">
        <ele>539.7</ele>
        <time>2020-09-12T21:12:25Z</time>
      </trkpt>
      <trkpt lat="43.14724" lon="-0.03493">
        <ele>539.6</ele>
        <time>2020-09-12T21:12:26Z</time>
      </trkpt>
      <trkpt lat="43.14729" lon="-0.03492">
        <ele>539.6</ele>
        <time>2020-09-12T21:12:27Z</time>
      </trkpt>
      <trkpt lat="43.14735" lon="-0.03493">
        <ele>539.6</ele>
        <time>2020-09-12T21:12:28Z</time>
      </trkpt>
      <trkpt lat="43.1474" lon="-0.03494">
        <ele>539.5</ele>
        <time>2020-09-12T21:12:29Z</time>
      </trkpt>
      <trkpt lat="43.14745" lon="-0.03496">
        <ele>539.5</ele>
        <time>2020-09-12T21:12:30Z</time>
      </trkpt>
      <trkpt lat="43.14751" lon="-0.03496">
        <ele>539.4</ele>
        <time>2020-09-12T21:12:31Z</time>
      </trkpt>
      <trkpt lat="43.14756" lon="-0.03496">
        <ele>539.4</ele>
        <time>2020-09-12T21:12:32Z</time>
      </trkpt>
      <trkpt lat="43.14762" lon="-0.03497">
        <ele>539.3</ele>
        <time>2020-09-12T21:12:33Z</time>
      </trkpt>
      <trkpt lat="43.14767" lon="-0.03498">
        <ele>539.3</ele>
        <time>2020-09-12T21:12:34Z</time>
      </trkpt>
      <trkpt lat="43.14773" lon="-0.03499">
        <ele>539.2</ele>
        <time>2020-09-12T21:12:35Z</time>
      </trkpt>
      <trkpt lat="43.14779" lon="-0.035">
        <ele>539.2</ele>
        <time>2020-09-12T21:12:36Z</time>
      </trkpt>
      <trkpt lat="43.14784" lon="-0.03501">
        <ele>539.1</ele>
        <time>2020-09-12T21:12:37Z</time>
      </trkpt>
      <trkpt lat="43.14791" lon="-0.03503">
        <ele>539.1</ele>
        <time>2020-09-12T21:12:38Z</time>
      </trkpt>
      <trkpt lat="43.14797" lon="-0.03506">
        <ele>539</ele>
        <time>2020-09-12T21:12:39Z</time>
      </trkpt>
      <trkpt lat="43.14803" lon="-0.03509">
        <ele>538.9</ele>
        <time>2020-09-12T21:12:40Z</time>
      </trkpt>
      <trkpt lat="43.14811" lon="-0.03512">
        <ele>538.8</ele>
        <time>2020-09-12T21:12:41Z</time>
      </trkpt>
      <trkpt lat="43.14819" lon="-0.03517">
        <ele>538.5</ele>
        <time>2020-09-12T21:12:42Z</time>
      </trkpt>
      <trkpt lat="43.14826" lon="-0.03522">
        <ele>538.2</ele>
        <time>2020-09-12T21:12:43Z</time>
      </trkpt>
      <trkpt lat="43.14831" lon="-0.03526">
        <ele>538</ele>
        <time>2020-09-12T21:12:44Z</time>
      </trkpt>
      <trkpt lat="43.14833" lon="-0.0353">
        <ele>537.8</ele>
        <time>2020-09-12T21:12:45Z</time>
      </trkpt>
      <trkpt lat="43.14834" lon="-0.03534">
        <ele>537.7</ele>
        <time>2020-09-12T21:12:46Z</time>
      </trkpt>
      <trkpt lat="43.14832" lon="-0.0354">
        <ele>537.1</ele>
        <time>2020-09-12T21:12:48Z</time>
      </trkpt>
      <trkpt lat="43.14829" lon="-0.03546">
        <ele>537.3</ele>
        <time>2020-09-12T21:12:50Z</time>
      </trkpt>
      <trkpt lat="43.14826" lon="-0.03551">
        <ele>537.5</ele>
        <time>2020-09-12T21:12:52Z</time>
      </trkpt>
      <trkpt lat="43.14824" lon="-0.03556">
        <ele>537.6</ele>
        <time>2020-09-12T21:12:54Z</time>
      </trkpt>
      <trkpt lat="43.14821" lon="-0.03562">
        <ele>537.7</ele>
        <time>2020-09-12T21:12:56Z</time>
      </trkpt>
      <trkpt lat="43.14818" lon="-0.03566">
        <ele>537.8</ele>
        <time>2020-09-12T21:12:58Z</time>
      </trkpt>
      <trkpt lat="43.14814" lon="-0.03569">
        <ele>537.9</ele>
        <time>2020-09-12T21:13:00Z</time>
      </trkpt>
      <trkpt lat="43.1481" lon="-0.03571">
        <ele>538</ele>
        <time>2020-09-12T21:13:01Z</time>
      </trkpt>
      <trkpt lat="43.14808" lon="-0.03573">
        <ele>538.1</ele>
        <time>2020-09-12T21:13:02Z</time>
      </trkpt>
      <trkpt lat="43.14805" lon="-0.03575">
        <ele>538.2</ele>
        <time>2020-09-12T21:13:03Z</time>
      </trkpt>
      <trkpt lat="43.14803" lon="-0.03577">
        <ele>538.3</ele>
        <time>2020-09-12T21:13:04Z</time>
      </trkpt>
      <trkpt lat="43.148" lon="-0.03579">
        <ele>538.5</ele>
        <time>2020-09-12T21:13:05Z</time>
      </trkpt>
      <trkpt lat="43.14798" lon="-0.03581">
        <ele>538.6</ele>
        <time>2020-09-12T21:13:06Z</time>
      </trkpt>
      <trkpt lat="43.14794" lon="-0.03583">
        <ele>538.9</ele>
        <time>2020-09-12T21:13:09Z</time>
      </trkpt>
      <trkpt lat="43.14791" lon="-0.03584">
        <ele>539.1</ele>
        <time>2020-09-12T21:13:12Z</time>
      </trkpt>
      <trkpt lat="43.14789" lon="-0.03587">
        <ele>539.4</ele>
        <time>2020-09-12T21:13:14Z</time>
      </trkpt>
      <trkpt lat="43.14786" lon="-0.03591">
        <ele>539.8</ele>
        <time>2020-09-12T21:13:16Z</time>
      </trkpt>
      <trkpt lat="43.14783" lon="-0.03596">
        <ele>540.3</ele>
        <time>2020-09-12T21:13:18Z</time>
      </trkpt>
      <trkpt lat="43.1478" lon="-0.03598">
        <ele>540.6</ele>
        <time>2020-09-12T21:13:19Z</time>
      </trkpt>
      <trkpt lat="43.14777" lon="-0.036">
        <ele>541</ele>
        <time>2020-09-12T21:13:21Z</time>
      </trkpt>
      <trkpt lat="43.14774" lon="-0.03603">
        <ele>541.4</ele>
        <time>2020-09-12T21:13:23Z</time>
      </trkpt>
      <trkpt lat="43.1477" lon="-0.03607">
        <ele>541.9</ele>
        <time>2020-09-12T21:13:25Z</time>
      </trkpt>
      <trkpt lat="43.14766" lon="-0.03611">
        <ele>542.3</ele>
        <time>2020-09-12T21:13:27Z</time>
      </trkpt>
      <trkpt lat="43.14761" lon="-0.03614">
        <ele>542.7</ele>
        <time>2020-09-12T21:13:29Z</time>
      </trkpt>
      <trkpt lat="43.14759" lon="-0.03616">
        <ele>542.9</ele>
        <time>2020-09-12T21:13:30Z</time>
      </trkpt>
      <trkpt lat="43.14754" lon="-0.0362">
        <ele>543.2</ele>
        <time>2020-09-12T21:13:32Z</time>
      </trkpt>
      <trkpt lat="43.14751" lon="-0.03623">
        <ele>543.4</ele>
        <time>2020-09-12T21:13:33Z</time>
      </trkpt>
      <trkpt lat="43.14748" lon="-0.03627">
        <ele>543.7</ele>
        <time>2020-09-12T21:13:35Z</time>
      </trkpt>
      <trkpt lat="43.14745" lon="-0.03631">
        <ele>544</ele>
        <time>2020-09-12T21:13:37Z</time>
      </trkpt>
      <trkpt lat="43.14742" lon="-0.03636">
        <ele>544.3</ele>
        <time>2020-09-12T21:13:39Z</time>
      </trkpt>
      <trkpt lat="43.1474" lon="-0.03639">
        <ele>544.5</ele>
        <time>2020-09-12T21:13:41Z</time>
      </trkpt>
      <trkpt lat="43.14736" lon="-0.03642">
        <ele>544.8</ele>
        <time>2020-09-12T21:13:43Z</time>
      </trkpt>
      <trkpt lat="43.14732" lon="-0.03645">
        <ele>545.1</ele>
        <time>2020-09-12T21:13:45Z</time>
      </trkpt>
      <trkpt lat="43.14728" lon="-0.03648">
        <ele>545.5</ele>
        <time>2020-09-12T21:13:47Z</time>
      </trkpt>
      <trkpt lat="43.14725" lon="-0.03651">
        <ele>545.9</ele>
        <time>2020-09-12T21:13:49Z</time>
      </trkpt>
      <trkpt lat="43.14721" lon="-0.03655">
        <ele>546.4</ele>
        <time>2020-09-12T21:13:51Z</time>
      </trkpt>
      <trkpt lat="43.14717" lon="-0.03659">
        <ele>546.9</ele>
        <time>2020-09-12T21:13:53Z</time>
      </trkpt>
      <trkpt lat="43.14714" lon="-0.03663">
        <ele>547.5</ele>
        <time>2020-09-12T21:13:55Z</time>
      </trkpt>
      <trkpt lat="43.14711" lon="-0.03667">
        <ele>548</ele>
        <time>2020-09-12T21:13:56Z</time>
      </trkpt>
      <trkpt lat="43.14706" lon="-0.03673">
        <ele>548.8</ele>
        <time>2020-09-12T21:13:58Z</time>
      </trkpt>
      <trkpt lat="43.14704" lon="-0.03676">
        <ele>549</ele>
        <time>2020-09-12T21:13:59Z</time>
      </trkpt>
      <trkpt lat="43.14701" lon="-0.03682">
        <ele>549.3</ele>
        <time>2020-09-12T21:14:01Z</time>
      </trkpt>
      <trkpt lat="43.14698" lon="-0.03685">
        <ele>549.4</ele>
        <time>2020-09-12T21:14:03Z</time>
      </trkpt>
      <trkpt lat="43.14696" lon="-0.03687">
        <ele>549.5</ele>
        <time>2020-09-12T21:14:04Z</time>
      </trkpt>
      <trkpt lat="43.14694" lon="-0.0369">
        <ele>549.5</ele>
        <time>2020-09-12T21:14:05Z</time>
      </trkpt>
      <trkpt lat="43.14691" lon="-0.03694">
        <ele>549.5</ele>
        <time>2020-09-12T21:14:06Z</time>
      </trkpt>
      <trkpt lat="43.14688" lon="-0.03697">
        <ele>549.5</ele>
        <time>2020-09-12T21:14:07Z</time>
      </trkpt>
      <trkpt lat="43.14685" lon="-0.037">
        <ele>549.5</ele>
        <time>2020-09-12T21:14:08Z</time>
      </trkpt>
      <trkpt lat="43.14683" lon="-0.03703">
        <ele>549.4</ele>
        <time>2020-09-12T21:14:09Z</time>
      </trkpt>
      <trkpt lat="43.14679" lon="-0.03708">
        <ele>549.4</ele>
        <time>2020-09-12T21:14:11Z</time>
      </trkpt>
      <trkpt lat="43.14676" lon="-0.0371">
        <ele>549.3</ele>
        <time>2020-09-12T21:14:13Z</time>
      </trkpt>
      <trkpt lat="43.14673" lon="-0.03716">
        <ele>549.2</ele>
        <time>2020-09-12T21:14:15Z</time>
      </trkpt>
      <trkpt lat="43.1467" lon="-0.03723">
        <ele>549.1</ele>
        <time>2020-09-12T21:14:17Z</time>
      </trkpt>
      <trkpt lat="43.14667" lon="-0.03725">
        <ele>549.1</ele>
        <time>2020-09-12T21:14:18Z</time>
      </trkpt>
      <trkpt lat="43.14665" lon="-0.03727">
        <ele>549</ele>
        <time>2020-09-12T21:14:19Z</time>
      </trkpt>
      <trkpt lat="43.14662" lon="-0.0373">
        <ele>548.9</ele>
        <time>2020-09-12T21:14:20Z</time>
      </trkpt>
      <trkpt lat="43.14659" lon="-0.03733">
        <ele>548.8</ele>
        <time>2020-09-12T21:14:21Z</time>
      </trkpt>
      <trkpt lat="43.14656" lon="-0.03736">
        <ele>548.7</ele>
        <time>2020-09-12T21:14:22Z</time>
      </trkpt>
      <trkpt lat="43.14654" lon="-0.03738">
        <ele>548.5</ele>
        <time>2020-09-12T21:14:23Z</time>
      </trkpt>
      <trkpt lat="43.14649" lon="-0.03744">
        <ele>548.1</ele>
        <time>2020-09-12T21:14:25Z</time>
      </trkpt>
      <trkpt lat="43.14647" lon="-0.03747">
        <ele>547.9</ele>
        <time>2020-09-12T21:14:26Z</time>
      </trkpt>
      <trkpt lat="43.14643" lon="-0.03751">
        <ele>547.5</ele>
        <time>2020-09-12T21:14:27Z</time>
      </trkpt>
      <trkpt lat="43.1464" lon="-0.03756">
        <ele>547.1</ele>
        <time>2020-09-12T21:14:28Z</time>
      </trkpt>
      <trkpt lat="43.14638" lon="-0.03761">
        <ele>546.7</ele>
        <time>2020-09-12T21:14:29Z</time>
      </trkpt>
      <trkpt lat="43.14635" lon="-0.03763">
        <ele>546.4</ele>
        <time>2020-09-12T21:14:30Z</time>
      </trkpt>
      <trkpt lat="43.14631" lon="-0.03766">
        <ele>545.6</ele>
        <time>2020-09-12T21:14:32Z</time>
      </trkpt>
      <trkpt lat="43.14627" lon="-0.0377">
        <ele>545.5</ele>
        <time>2020-09-12T21:14:34Z</time>
      </trkpt>
      <trkpt lat="43.14625" lon="-0.03773">
        <ele>545.4</ele>
        <time>2020-09-12T21:14:35Z</time>
      </trkpt>
      <trkpt lat="43.14623" lon="-0.03776">
        <ele>545.3</ele>
        <time>2020-09-12T21:14:36Z</time>
      </trkpt>
      <trkpt lat="43.14621" lon="-0.03778">
        <ele>545.2</ele>
        <time>2020-09-12T21:14:37Z</time>
      </trkpt>
      <trkpt lat="43.14618" lon="-0.03781">
        <ele>545</ele>
        <time>2020-09-12T21:14:38Z</time>
      </trkpt>
      <trkpt lat="43.14615" lon="-0.03784">
        <ele>544.8</ele>
        <time>2020-09-12T21:14:39Z</time>
      </trkpt>
      <trkpt lat="43.14609" lon="-0.0379">
        <ele>544.5</ele>
        <time>2020-09-12T21:14:40Z</time>
      </trkpt>
      <trkpt lat="43.14606" lon="-0.03795">
        <ele>544.2</ele>
        <time>2020-09-12T21:14:41Z</time>
      </trkpt>
      <trkpt lat="43.14603" lon="-0.03801">
        <ele>543.9</ele>
        <time>2020-09-12T21:14:42Z</time>
      </trkpt>
      <trkpt lat="43.146" lon="-0.03806">
        <ele>543.5</ele>
        <time>2020-09-12T21:14:43Z</time>
      </trkpt>
      <trkpt lat="43.14599" lon="-0.03809">
        <ele>543.3</ele>
        <time>2020-09-12T21:14:44Z</time>
      </trkpt>
      <trkpt lat="43.14597" lon="-0.03812">
        <ele>543</ele>
        <time>2020-09-12T21:14:45Z</time>
      </trkpt>
      <trkpt lat="43.14595" lon="-0.03817">
        <ele>542.7</ele>
        <time>2020-09-12T21:14:46Z</time>
      </trkpt>
      <trkpt lat="43.14593" lon="-0.03823">
        <ele>542.2</ele>
        <time>2020-09-12T21:14:47Z</time>
      </trkpt>
      <trkpt lat="43.14591" lon="-0.0383">
        <ele>541.7</ele>
        <time>2020-09-12T21:14:48Z</time>
      </trkpt>
      <trkpt lat="43.14591" lon="-0.03836">
        <ele>541.2</ele>
        <time>2020-09-12T21:14:49Z</time>
      </trkpt>
      <trkpt lat="43.1459" lon="-0.03841">
        <ele>540.8</ele>
        <time>2020-09-12T21:14:51Z</time>
      </trkpt>
      <trkpt lat="43.14589" lon="-0.03847">
        <ele>540.3</ele>
        <time>2020-09-12T21:14:53Z</time>
      </trkpt>
      <trkpt lat="43.14588" lon="-0.03852">
        <ele>539.9</ele>
        <time>2020-09-12T21:14:55Z</time>
      </trkpt>
      <trkpt lat="43.14587" lon="-0.03857">
        <ele>539.5</ele>
        <time>2020-09-12T21:14:57Z</time>
      </trkpt>
      <trkpt lat="43.14583" lon="-0.03864">
        <ele>539</ele>
        <time>2020-09-12T21:14:59Z</time>
      </trkpt>
      <trkpt lat="43.14584" lon="-0.03869">
        <ele>538.8</ele>
        <time>2020-09-12T21:15:00Z</time>
      </trkpt>
      <trkpt lat="43.14582" lon="-0.03872">
        <ele>538.6</ele>
        <time>2020-09-12T21:15:01Z</time>
      </trkpt>
      <trkpt lat="43.14581" lon="-0.03879">
        <ele>538.3</ele>
        <time>2020-09-12T21:15:03Z</time>
      </trkpt>
      <trkpt lat="43.14581" lon="-0.03885">
        <ele>538.1</ele>
        <time>2020-09-12T21:15:05Z</time>
      </trkpt>
      <trkpt lat="43.1458" lon="-0.03889">
        <ele>537.9</ele>
        <time>2020-09-12T21:15:07Z</time>
      </trkpt>
      <trkpt lat="43.14579" lon="-0.03896">
        <ele>537.6</ele>
        <time>2020-09-12T21:15:09Z</time>
      </trkpt>
      <trkpt lat="43.14578" lon="-0.03899">
        <ele>537.4</ele>
        <time>2020-09-12T21:15:10Z</time>
      </trkpt>
      <trkpt lat="43.14577" lon="-0.03904">
        <ele>537.2</ele>
        <time>2020-09-12T21:15:12Z</time>
      </trkpt>
      <trkpt lat="43.14576" lon="-0.03907">
        <ele>537</ele>
        <time>2020-09-12T21:15:15Z</time>
      </trkpt>
      <trkpt lat="43.14572" lon="-0.03912">
        <ele>536.7</ele>
        <time>2020-09-12T21:15:17Z</time>
      </trkpt>
      <trkpt lat="43.1457" lon="-0.03915">
        <ele>536.5</ele>
        <time>2020-09-12T21:15:18Z</time>
      </trkpt>
      <trkpt lat="43.14566" lon="-0.03918">
        <ele>536.1</ele>
        <time>2020-09-12T21:15:20Z</time>
      </trkpt>
      <trkpt lat="43.14562" lon="-0.0392">
        <ele>535.8</ele>
        <time>2020-09-12T21:15:21Z</time>
      </trkpt>
      <trkpt lat="43.14559" lon="-0.03923">
        <ele>535.6</ele>
        <time>2020-09-12T21:15:23Z</time>
      </trkpt>
      <trkpt lat="43.14555" lon="-0.03925">
        <ele>535.1</ele>
        <time>2020-09-12T21:15:25Z</time>
      </trkpt>
      <trkpt lat="43.14552" lon="-0.03926">
        <ele>534.7</ele>
        <time>2020-09-12T21:15:26Z</time>
      </trkpt>
      <trkpt lat="43.14549" lon="-0.03931">
        <ele>534</ele>
        <time>2020-09-12T21:15:28Z</time>
      </trkpt>
      <trkpt lat="43.14546" lon="-0.03937">
        <ele>533.3</ele>
        <time>2020-09-12T21:15:30Z</time>
      </trkpt>
      <trkpt lat="43.14545" lon="-0.03946">
        <ele>532.3</ele>
        <time>2020-09-12T21:15:32Z</time>
      </trkpt>
      <trkpt lat="43.14543" lon="-0.03952">
        <ele>531.6</ele>
        <time>2020-09-12T21:15:33Z</time>
      </trkpt>
      <trkpt lat="43.14541" lon="-0.03958">
        <ele>530.8</ele>
        <time>2020-09-12T21:15:34Z</time>
      </trkpt>
      <trkpt lat="43.1454" lon="-0.03963">
        <ele>530.2</ele>
        <time>2020-09-12T21:15:35Z</time>
      </trkpt>
      <trkpt lat="43.1454" lon="-0.03968">
        <ele>529.6</ele>
        <time>2020-09-12T21:15:36Z</time>
      </trkpt>
      <trkpt lat="43.14539" lon="-0.03975">
        <ele>528.5</ele>
        <time>2020-09-12T21:15:37Z</time>
      </trkpt>
      <trkpt lat="43.14539" lon="-0.0398">
        <ele>528</ele>
        <time>2020-09-12T21:15:38Z</time>
      </trkpt>
      <trkpt lat="43.14539" lon="-0.03988">
        <ele>527.1</ele>
        <time>2020-09-12T21:15:39Z</time>
      </trkpt>
      <trkpt lat="43.14537" lon="-0.03995">
        <ele>526.3</ele>
        <time>2020-09-12T21:15:40Z</time>
      </trkpt>
      <trkpt lat="43.14535" lon="-0.04">
        <ele>525.6</ele>
        <time>2020-09-12T21:15:41Z</time>
      </trkpt>
      <trkpt lat="43.1453" lon="-0.03998">
        <ele>524.8</ele>
        <time>2020-09-12T21:15:43Z</time>
      </trkpt>
      <trkpt lat="43.14525" lon="-0.03997">
        <ele>524</ele>
        <time>2020-09-12T21:15:45Z</time>
      </trkpt>
      <trkpt lat="43.14521" lon="-0.03996">
        <ele>523.4</ele>
        <time>2020-09-12T21:15:46Z</time>
      </trkpt>
      <trkpt lat="43.14518" lon="-0.03995">
        <ele>522.9</ele>
        <time>2020-09-12T21:15:47Z</time>
      </trkpt>
      <trkpt lat="43.14514" lon="-0.03995">
        <ele>522.3</ele>
        <time>2020-09-12T21:15:48Z</time>
      </trkpt>
      <trkpt lat="43.1451" lon="-0.03993">
        <ele>521.7</ele>
        <time>2020-09-12T21:15:49Z</time>
      </trkpt>
      <trkpt lat="43.14507" lon="-0.0399">
        <ele>521</ele>
        <time>2020-09-12T21:15:50Z</time>
      </trkpt>
      <trkpt lat="43.14502" lon="-0.03989">
        <ele>520.1</ele>
        <time>2020-09-12T21:15:51Z</time>
      </trkpt>
      <trkpt lat="43.14498" lon="-0.03987">
        <ele>519.3</ele>
        <time>2020-09-12T21:15:52Z</time>
      </trkpt>
      <trkpt lat="43.14495" lon="-0.03984">
        <ele>518.6</ele>
        <time>2020-09-12T21:15:53Z</time>
      </trkpt>
      <trkpt lat="43.14492" lon="-0.03984">
        <ele>518</ele>
        <time>2020-09-12T21:15:54Z</time>
      </trkpt>
      <trkpt lat="43.14486" lon="-0.03984">
        <ele>516.8</ele>
        <time>2020-09-12T21:15:56Z</time>
      </trkpt>
      <trkpt lat="43.14481" lon="-0.03985">
        <ele>516</ele>
        <time>2020-09-12T21:15:58Z</time>
      </trkpt>
      <trkpt lat="43.14478" lon="-0.03988">
        <ele>515.3</ele>
        <time>2020-09-12T21:16:00Z</time>
      </trkpt>
      <trkpt lat="43.14475" lon="-0.0399">
        <ele>514.8</ele>
        <time>2020-09-12T21:16:03Z</time>
      </trkpt>
      <trkpt lat="43.14474" lon="-0.03995">
        <ele>514.1</ele>
        <time>2020-09-12T21:16:05Z</time>
      </trkpt>
      <trkpt lat="43.14476" lon="-0.04001">
        <ele>513.2</ele>
        <time>2020-09-12T21:16:07Z</time>
      </trkpt>
      <trkpt lat="43.14475" lon="-0.04006">
        <ele>512.5</ele>
        <time>2020-09-12T21:16:09Z</time>
      </trkpt>
      <trkpt lat="43.14476" lon="-0.04013">
        <ele>511.4</ele>
        <time>2020-09-12T21:16:11Z</time>
      </trkpt>
      <trkpt lat="43.14477" lon="-0.04021">
        <ele>510</ele>
        <time>2020-09-12T21:16:13Z</time>
      </trkpt>
      <trkpt lat="43.14476" lon="-0.04025">
        <ele>509.3</ele>
        <time>2020-09-12T21:16:14Z</time>
      </trkpt>
      <trkpt lat="43.14476" lon="-0.04029">
        <ele>508.5</ele>
        <time>2020-09-12T21:16:15Z</time>
      </trkpt>
      <trkpt lat="43.14473" lon="-0.04033">
        <ele>507.4</ele>
        <time>2020-09-12T21:16:17Z</time>
      </trkpt>
      <trkpt lat="43.1447" lon="-0.04034">
        <ele>506.7</ele>
        <time>2020-09-12T21:16:19Z</time>
      </trkpt>
      <trkpt lat="43.14467" lon="-0.04033">
        <ele>505.9</ele>
        <time>2020-09-12T21:16:21Z</time>
      </trkpt>
      <trkpt lat="43.14463" lon="-0.0403">
        <ele>504.9</ele>
        <time>2020-09-12T21:16:23Z</time>
      </trkpt>
      <trkpt lat="43.1446" lon="-0.04027">
        <ele>504.2</ele>
        <time>2020-09-12T21:16:25Z</time>
      </trkpt>
      <trkpt lat="43.14457" lon="-0.04022">
        <ele>503.4</ele>
        <time>2020-09-12T21:16:27Z</time>
      </trkpt>
      <trkpt lat="43.14454" lon="-0.04017">
        <ele>502.9</ele>
        <time>2020-09-12T21:16:29Z</time>
      </trkpt>
      <trkpt lat="43.14451" lon="-0.04015">
        <ele>502.6</ele>
        <time>2020-09-12T21:16:30Z</time>
      </trkpt>
      <trkpt lat="43.14449" lon="-0.04013">
        <ele>502.2</ele>
        <time>2020-09-12T21:16:31Z</time>
      </trkpt>
      <trkpt lat="43.14446" lon="-0.0401">
        <ele>501.8</ele>
        <time>2020-09-12T21:16:32Z</time>
      </trkpt>
      <trkpt lat="43.14441" lon="-0.04013">
        <ele>501.2</ele>
        <time>2020-09-12T21:16:34Z</time>
      </trkpt>
      <trkpt lat="43.1444" lon="-0.04017">
        <ele>500.8</ele>
        <time>2020-09-12T21:16:37Z</time>
      </trkpt>
      <trkpt lat="43.14436" lon="-0.04019">
        <ele>500.4</ele>
        <time>2020-09-12T21:16:38Z</time>
      </trkpt>
      <trkpt lat="43.14431" lon="-0.04021">
        <ele>500.1</ele>
        <time>2020-09-12T21:16:39Z</time>
      </trkpt>
      <trkpt lat="43.14428" lon="-0.04023">
        <ele>499.9</ele>
        <time>2020-09-12T21:16:40Z</time>
      </trkpt>
      <trkpt lat="43.14425" lon="-0.04026">
        <ele>499.9</ele>
        <time>2020-09-12T21:16:41Z</time>
      </trkpt>
      <trkpt lat="43.14423" lon="-0.04029">
        <ele>500</ele>
        <time>2020-09-12T21:16:42Z</time>
      </trkpt>
      <trkpt lat="43.1442" lon="-0.04032">
        <ele>500</ele>
        <time>2020-09-12T21:16:43Z</time>
      </trkpt>
      <trkpt lat="43.14418" lon="-0.04037">
        <ele>500.1</ele>
        <time>2020-09-12T21:16:44Z</time>
      </trkpt>
      <trkpt lat="43.14416" lon="-0.0404">
        <ele>500.3</ele>
        <time>2020-09-12T21:16:45Z</time>
      </trkpt>
      <trkpt lat="43.14412" lon="-0.04044">
        <ele>500.5</ele>
        <time>2020-09-12T21:16:46Z</time>
      </trkpt>
      <trkpt lat="43.1441" lon="-0.04049">
        <ele>500.7</ele>
        <time>2020-09-12T21:16:47Z</time>
      </trkpt>
      <trkpt lat="43.14409" lon="-0.04055">
        <ele>500.7</ele>
        <time>2020-09-12T21:16:48Z</time>
      </trkpt>
      <trkpt lat="43.1441" lon="-0.04059">
        <ele>500.3</ele>
        <time>2020-09-12T21:16:49Z</time>
      </trkpt>
      <trkpt lat="43.14412" lon="-0.04063">
        <ele>499.8</ele>
        <time>2020-09-12T21:16:50Z</time>
      </trkpt>
      <trkpt lat="43.14413" lon="-0.04067">
        <ele>499.4</ele>
        <time>2020-09-12T21:16:51Z</time>
      </trkpt>
      <trkpt lat="43.14415" lon="-0.04071">
        <ele>499</ele>
        <time>2020-09-12T21:16:52Z</time>
      </trkpt>
      <trkpt lat="43.14418" lon="-0.04074">
        <ele>498.3</ele>
        <time>2020-09-12T21:16:53Z</time>
      </trkpt>
      <trkpt lat="43.14419" lon="-0.04079">
        <ele>497.8</ele>
        <time>2020-09-12T21:16:54Z</time>
      </trkpt>
      <trkpt lat="43.1442" lon="-0.04083">
        <ele>497.3</ele>
        <time>2020-09-12T21:16:55Z</time>
      </trkpt>
      <trkpt lat="43.14421" lon="-0.04088">
        <ele>496.8</ele>
        <time>2020-09-12T21:16:56Z</time>
      </trkpt>
      <trkpt lat="43.14422" lon="-0.04092">
        <ele>496.4</ele>
        <time>2020-09-12T21:16:57Z</time>
      </trkpt>
      <trkpt lat="43.14423" lon="-0.04097">
        <ele>496.1</ele>
        <time>2020-09-12T21:16:58Z</time>
      </trkpt>
      <trkpt lat="43.14423" lon="-0.041">
        <ele>495.9</ele>
        <time>2020-09-12T21:16:59Z</time>
      </trkpt>
      <trkpt lat="43.14423" lon="-0.04104">
        <ele>495.6</ele>
        <time>2020-09-12T21:17:01Z</time>
      </trkpt>
      <trkpt lat="43.1442" lon="-0.04109">
        <ele>495.3</ele>
        <time>2020-09-12T21:17:03Z</time>
      </trkpt>
      <trkpt lat="43.14419" lon="-0.04112">
        <ele>495.1</ele>
        <time>2020-09-12T21:17:05Z</time>
      </trkpt>
      <trkpt lat="43.14416" lon="-0.04116">
        <ele>494.8</ele>
        <time>2020-09-12T21:17:07Z</time>
      </trkpt>
      <trkpt lat="43.14414" lon="-0.0412">
        <ele>494.5</ele>
        <time>2020-09-12T21:17:09Z</time>
      </trkpt>
      <trkpt lat="43.14411" lon="-0.04124">
        <ele>494</ele>
        <time>2020-09-12T21:17:11Z</time>
      </trkpt>
      <trkpt lat="43.14407" lon="-0.04132">
        <ele>493.5</ele>
        <time>2020-09-12T21:17:13Z</time>
      </trkpt>
      <trkpt lat="43.14405" lon="-0.04137">
        <ele>493.2</ele>
        <time>2020-09-12T21:17:14Z</time>
      </trkpt>
      <trkpt lat="43.14404" lon="-0.04145">
        <ele>493</ele>
        <time>2020-09-12T21:17:15Z</time>
      </trkpt>
      <trkpt lat="43.14403" lon="-0.04152">
        <ele>492.8</ele>
        <time>2020-09-12T21:17:16Z</time>
      </trkpt>
      <trkpt lat="43.14403" lon="-0.04158">
        <ele>492.6</ele>
        <time>2020-09-12T21:17:17Z</time>
      </trkpt>
      <trkpt lat="43.14403" lon="-0.04165">
        <ele>492.4</ele>
        <time>2020-09-12T21:17:18Z</time>
      </trkpt>
      <trkpt lat="43.14403" lon="-0.04173">
        <ele>492.2</ele>
        <time>2020-09-12T21:17:19Z</time>
      </trkpt>
      <trkpt lat="43.14406" lon="-0.04183">
        <ele>491.6</ele>
        <time>2020-09-12T21:17:20Z</time>
      </trkpt>
      <trkpt lat="43.14409" lon="-0.04192">
        <ele>490.8</ele>
        <time>2020-09-12T21:17:21Z</time>
      </trkpt>
      <trkpt lat="43.14412" lon="-0.04205">
        <ele>489.9</ele>
        <time>2020-09-12T21:17:22Z</time>
      </trkpt>
      <trkpt lat="43.14414" lon="-0.04217">
        <ele>488.7</ele>
        <time>2020-09-12T21:17:23Z</time>
      </trkpt>
      <trkpt lat="43.14418" lon="-0.04228">
        <ele>487.6</ele>
        <time>2020-09-12T21:17:24Z</time>
      </trkpt>
      <trkpt lat="43.1442" lon="-0.04239">
        <ele>486.4</ele>
        <time>2020-09-12T21:17:25Z</time>
      </trkpt>
      <trkpt lat="43.14427" lon="-0.04249">
        <ele>484.4</ele>
        <time>2020-09-12T21:17:26Z</time>
      </trkpt>
      <trkpt lat="43.14432" lon="-0.04258">
        <ele>482.8</ele>
        <time>2020-09-12T21:17:27Z</time>
      </trkpt>
      <trkpt lat="43.14436" lon="-0.04269">
        <ele>481.3</ele>
        <time>2020-09-12T21:17:28Z</time>
      </trkpt>
      <trkpt lat="43.14439" lon="-0.04281">
        <ele>479.8</ele>
        <time>2020-09-12T21:17:29Z</time>
      </trkpt>
      <trkpt lat="43.14441" lon="-0.04294">
        <ele>478</ele>
        <time>2020-09-12T21:17:30Z</time>
      </trkpt>
      <trkpt lat="43.14445" lon="-0.04303">
        <ele>476.5</ele>
        <time>2020-09-12T21:17:31Z</time>
      </trkpt>
      <trkpt lat="43.14449" lon="-0.04318">
        <ele>474.6</ele>
        <time>2020-09-12T21:17:32Z</time>
      </trkpt>
      <trkpt lat="43.14455" lon="-0.04332">
        <ele>472.7</ele>
        <time>2020-09-12T21:17:33Z</time>
      </trkpt>
      <trkpt lat="43.14458" lon="-0.04346">
        <ele>471.6</ele>
        <time>2020-09-12T21:17:34Z</time>
      </trkpt>
      <trkpt lat="43.14462" lon="-0.04359">
        <ele>470.4</ele>
        <time>2020-09-12T21:17:35Z</time>
      </trkpt>
      <trkpt lat="43.14465" lon="-0.04367">
        <ele>469.9</ele>
        <time>2020-09-12T21:17:36Z</time>
      </trkpt>
      <trkpt lat="43.14466" lon="-0.04375">
        <ele>469.5</ele>
        <time>2020-09-12T21:17:38Z</time>
      </trkpt>
      <trkpt lat="43.14466" lon="-0.04379">
        <ele>469.5</ele>
        <time>2020-09-12T21:17:40Z</time>
      </trkpt>
      <trkpt lat="43.14466" lon="-0.04384">
        <ele>469.6</ele>
        <time>2020-09-12T21:17:43Z</time>
      </trkpt>
      <trkpt lat="43.14466" lon="-0.0439">
        <ele>469.9</ele>
        <time>2020-09-12T21:17:45Z</time>
      </trkpt>
      <trkpt lat="43.14465" lon="-0.04412">
        <ele>471.7</ele>
        <time>2020-09-12T21:18:06Z</time>
      </trkpt>
      <trkpt lat="43.14461" lon="-0.04415">
        <ele>471.8</ele>
        <time>2020-09-12T21:18:08Z</time>
      </trkpt>
      <trkpt lat="43.14457" lon="-0.04421">
        <ele>472.7</ele>
        <time>2020-09-12T21:18:10Z</time>
      </trkpt>
      <trkpt lat="43.14454" lon="-0.04425">
        <ele>473.2</ele>
        <time>2020-09-12T21:18:12Z</time>
      </trkpt>
      <trkpt lat="43.14452" lon="-0.04429">
        <ele>473.4</ele>
        <time>2020-09-12T21:18:13Z</time>
      </trkpt>
      <trkpt lat="43.14449" lon="-0.04431">
        <ele>474.1</ele>
        <time>2020-09-12T21:18:15Z</time>
      </trkpt>
      <trkpt lat="43.14445" lon="-0.04433">
        <ele>474.3</ele>
        <time>2020-09-12T21:18:17Z</time>
      </trkpt>
      <trkpt lat="43.14441" lon="-0.04435">
        <ele>475.2</ele>
        <time>2020-09-12T21:18:19Z</time>
      </trkpt>
      <trkpt lat="43.14438" lon="-0.04437">
        <ele>475.4</ele>
        <time>2020-09-12T21:18:22Z</time>
      </trkpt>
      <trkpt lat="43.14441" lon="-0.04438">
        <ele>475.6</ele>
        <time>2020-09-12T21:18:26Z</time>
      </trkpt>
      <trkpt lat="43.14444" lon="-0.04441">
        <ele>475.2</ele>
        <time>2020-09-12T21:18:29Z</time>
      </trkpt>
      <trkpt lat="43.14445" lon="-0.04444">
        <ele>475.8</ele>
        <time>2020-09-12T21:18:32Z</time>
      </trkpt>
      <trkpt lat="43.14448" lon="-0.04444">
        <ele>475.4</ele>
        <time>2020-09-12T21:18:34Z</time>
      </trkpt>
      <trkpt lat="43.14452" lon="-0.04443">
        <ele>475</ele>
        <time>2020-09-12T21:18:36Z</time>
      </trkpt>
      <trkpt lat="43.14455" lon="-0.04443">
        <ele>474.7</ele>
        <time>2020-09-12T21:18:38Z</time>
      </trkpt>
      <trkpt lat="43.14458" lon="-0.04442">
        <ele>473.7</ele>
        <time>2020-09-12T21:18:40Z</time>
      </trkpt>
      <trkpt lat="43.14461" lon="-0.04442">
        <ele>474.2</ele>
        <time>2020-09-12T21:18:42Z</time>
      </trkpt>
      <trkpt lat="43.14463" lon="-0.04444">
        <ele>473.9</ele>
        <time>2020-09-12T21:18:44Z</time>
      </trkpt>
      <trkpt lat="43.14465" lon="-0.04448">
        <ele>474.5</ele>
        <time>2020-09-12T21:18:46Z</time>
      </trkpt>
      <trkpt lat="43.14466" lon="-0.04452">
        <ele>475.2</ele>
        <time>2020-09-12T21:18:48Z</time>
      </trkpt>
      <trkpt lat="43.14469" lon="-0.04456">
        <ele>475.7</ele>
        <time>2020-09-12T21:18:50Z</time>
      </trkpt>
      <trkpt lat="43.14472" lon="-0.04461">
        <ele>476.2</ele>
        <time>2020-09-12T21:18:52Z</time>
      </trkpt>
      <trkpt lat="43.14475" lon="-0.04465">
        <ele>476.6</ele>
        <time>2020-09-12T21:18:54Z</time>
      </trkpt>
      <trkpt lat="43.14478" lon="-0.04468">
        <ele>477</ele>
        <time>2020-09-12T21:18:57Z</time>
      </trkpt>
      <trkpt lat="43.14479" lon="-0.04473">
        <ele>477.6</ele>
        <time>2020-09-12T21:18:59Z</time>
      </trkpt>
      <trkpt lat="43.14481" lon="-0.04477">
        <ele>477.9</ele>
        <time>2020-09-12T21:19:02Z</time>
      </trkpt>
      <trkpt lat="43.14482" lon="-0.04481">
        <ele>478.6</ele>
        <time>2020-09-12T21:19:04Z</time>
      </trkpt>
      <trkpt lat="43.14486" lon="-0.04484">
        <ele>478.1</ele>
        <time>2020-09-12T21:19:06Z</time>
      </trkpt>
      <trkpt lat="43.14491" lon="-0.04486">
        <ele>477.9</ele>
        <time>2020-09-12T21:19:08Z</time>
      </trkpt>
      <trkpt lat="43.14494" lon="-0.04487">
        <ele>477.3</ele>
        <time>2020-09-12T21:19:10Z</time>
      </trkpt>
      <trkpt lat="43.14497" lon="-0.0449">
        <ele>477.4</ele>
        <time>2020-09-12T21:19:12Z</time>
      </trkpt>
      <trkpt lat="43.14501" lon="-0.04492">
        <ele>476.8</ele>
        <time>2020-09-12T21:19:14Z</time>
      </trkpt>
      <trkpt lat="43.14504" lon="-0.04492">
        <ele>476.1</ele>
        <time>2020-09-12T21:19:15Z</time>
      </trkpt>
      <trkpt lat="43.14507" lon="-0.04492">
        <ele>475.5</ele>
        <time>2020-09-12T21:19:17Z</time>
      </trkpt>
      <trkpt lat="43.14511" lon="-0.04493">
        <ele>474.9</ele>
        <time>2020-09-12T21:19:19Z</time>
      </trkpt>
      <trkpt lat="43.14515" lon="-0.04495">
        <ele>474.4</ele>
        <time>2020-09-12T21:19:21Z</time>
      </trkpt>
      <trkpt lat="43.14519" lon="-0.04497">
        <ele>473.8</ele>
        <time>2020-09-12T21:19:23Z</time>
      </trkpt>
      <trkpt lat="43.14522" lon="-0.04499">
        <ele>473.7</ele>
        <time>2020-09-12T21:19:25Z</time>
      </trkpt>
      <trkpt lat="43.14525" lon="-0.04503">
        <ele>473.6</ele>
        <time>2020-09-12T21:19:28Z</time>
      </trkpt>
      <trkpt lat="43.14529" lon="-0.04506">
        <ele>474.9</ele>
        <time>2020-09-12T21:19:30Z</time>
      </trkpt>
      <trkpt lat="43.1453" lon="-0.0451">
        <ele>475</ele>
        <time>2020-09-12T21:19:32Z</time>
      </trkpt>
      <trkpt lat="43.14531" lon="-0.04514">
        <ele>474.6</ele>
        <time>2020-09-12T21:19:34Z</time>
      </trkpt>
      <trkpt lat="43.14534" lon="-0.04514">
        <ele>474.5</ele>
        <time>2020-09-12T21:19:35Z</time>
      </trkpt>
      <trkpt lat="43.14539" lon="-0.04514">
        <ele>474.6</ele>
        <time>2020-09-12T21:19:37Z</time>
      </trkpt>
      <trkpt lat="43.14542" lon="-0.04517">
        <ele>474.2</ele>
        <time>2020-09-12T21:19:39Z</time>
      </trkpt>
      <trkpt lat="43.14546" lon="-0.04519">
        <ele>473.7</ele>
        <time>2020-09-12T21:19:41Z</time>
      </trkpt>
      <trkpt lat="43.1455" lon="-0.0452">
        <ele>473.4</ele>
        <time>2020-09-12T21:19:43Z</time>
      </trkpt>
      <trkpt lat="43.14552" lon="-0.04523">
        <ele>473.2</ele>
        <time>2020-09-12T21:19:45Z</time>
      </trkpt>
      <trkpt lat="43.14554" lon="-0.04526">
        <ele>472.9</ele>
        <time>2020-09-12T21:19:48Z</time>
      </trkpt>
      <trkpt lat="43.14556" lon="-0.0453">
        <ele>472.5</ele>
        <time>2020-09-12T21:19:50Z</time>
      </trkpt>
      <trkpt lat="43.14558" lon="-0.04534">
        <ele>472</ele>
        <time>2020-09-12T21:19:52Z</time>
      </trkpt>
      <trkpt lat="43.14559" lon="-0.04539">
        <ele>471.6</ele>
        <time>2020-09-12T21:19:54Z</time>
      </trkpt>
      <trkpt lat="43.14559" lon="-0.04545">
        <ele>471.1</ele>
        <time>2020-09-12T21:19:56Z</time>
      </trkpt>
      <trkpt lat="43.14559" lon="-0.04549">
        <ele>470.5</ele>
        <time>2020-09-12T21:19:58Z</time>
      </trkpt>
      <trkpt lat="43.14559" lon="-0.04553">
        <ele>470</ele>
        <time>2020-09-12T21:19:59Z</time>
      </trkpt>
      <trkpt lat="43.14559" lon="-0.04559">
        <ele>469.6</ele>
        <time>2020-09-12T21:20:01Z</time>
      </trkpt>
      <trkpt lat="43.1456" lon="-0.04564">
        <ele>469.5</ele>
        <time>2020-09-12T21:20:03Z</time>
      </trkpt>
      <trkpt lat="43.1456" lon="-0.0457">
        <ele>469.4</ele>
        <time>2020-09-12T21:20:05Z</time>
      </trkpt>
      <trkpt lat="43.14558" lon="-0.04575">
        <ele>469.5</ele>
        <time>2020-09-12T21:20:07Z</time>
      </trkpt>
      <trkpt lat="43.14558" lon="-0.04579">
        <ele>469.4</ele>
        <time>2020-09-12T21:20:09Z</time>
      </trkpt>
      <trkpt lat="43.14558" lon="-0.04583">
        <ele>469.2</ele>
        <time>2020-09-12T21:20:11Z</time>
      </trkpt>
      <trkpt lat="43.14558" lon="-0.04588">
        <ele>468.7</ele>
        <time>2020-09-12T21:20:13Z</time>
      </trkpt>
      <trkpt lat="43.14559" lon="-0.04593">
        <ele>468.7</ele>
        <time>2020-09-12T21:20:15Z</time>
      </trkpt>
      <trkpt lat="43.1456" lon="-0.04596">
        <ele>469</ele>
        <time>2020-09-12T21:20:17Z</time>
      </trkpt>
      <trkpt lat="43.14561" lon="-0.04602">
        <ele>469.2</ele>
        <time>2020-09-12T21:20:20Z</time>
      </trkpt>
      <trkpt lat="43.1456" lon="-0.04608">
        <ele>469.2</ele>
        <time>2020-09-12T21:20:22Z</time>
      </trkpt>
      <trkpt lat="43.1456" lon="-0.04613">
        <ele>469.5</ele>
        <time>2020-09-12T21:20:26Z</time>
      </trkpt>
      <trkpt lat="43.1456" lon="-0.04619">
        <ele>470</ele>
        <time>2020-09-12T21:20:28Z</time>
      </trkpt>
      <trkpt lat="43.1456" lon="-0.04624">
        <ele>470</ele>
        <time>2020-09-12T21:20:30Z</time>
      </trkpt>
      <trkpt lat="43.1456" lon="-0.04628">
        <ele>469.9</ele>
        <time>2020-09-12T21:20:32Z</time>
      </trkpt>
      <trkpt lat="43.14557" lon="-0.04634">
        <ele>470.3</ele>
        <time>2020-09-12T21:20:34Z</time>
      </trkpt>
      <trkpt lat="43.14555" lon="-0.04638">
        <ele>470.7</ele>
        <time>2020-09-12T21:20:36Z</time>
      </trkpt>
      <trkpt lat="43.14552" lon="-0.04644">
        <ele>471.6</ele>
        <time>2020-09-12T21:20:38Z</time>
      </trkpt>
      <trkpt lat="43.1455" lon="-0.0465">
        <ele>472.3</ele>
        <time>2020-09-12T21:20:40Z</time>
      </trkpt>
      <trkpt lat="43.14547" lon="-0.04653">
        <ele>472.6</ele>
        <time>2020-09-12T21:20:43Z</time>
      </trkpt>
      <trkpt lat="43.14545" lon="-0.04656">
        <ele>472.8</ele>
        <time>2020-09-12T21:20:46Z</time>
      </trkpt>
      <trkpt lat="43.14543" lon="-0.04659">
        <ele>472.9</ele>
        <time>2020-09-12T21:20:49Z</time>
      </trkpt>
      <trkpt lat="43.1454" lon="-0.04663">
        <ele>473.1</ele>
        <time>2020-09-12T21:20:54Z</time>
      </trkpt>
      <trkpt lat="43.1454" lon="-0.04669">
        <ele>473.3</ele>
        <time>2020-09-12T21:20:56Z</time>
      </trkpt>
      <trkpt lat="43.14538" lon="-0.04672">
        <ele>473.5</ele>
        <time>2020-09-12T21:20:58Z</time>
      </trkpt>
      <trkpt lat="43.14538" lon="-0.04678">
        <ele>473.8</ele>
        <time>2020-09-12T21:21:04Z</time>
      </trkpt>
      <trkpt lat="43.14537" lon="-0.04683">
        <ele>474.1</ele>
        <time>2020-09-12T21:21:06Z</time>
      </trkpt>
      <trkpt lat="43.14535" lon="-0.04686">
        <ele>474.3</ele>
        <time>2020-09-12T21:21:16Z</time>
      </trkpt>
      <trkpt lat="43.14527" lon="-0.04693">
        <ele>476.2</ele>
        <time>2020-09-12T21:21:50Z</time>
      </trkpt>
      <trkpt lat="43.14524" lon="-0.04696">
        <ele>476.5</ele>
        <time>2020-09-12T21:21:52Z</time>
      </trkpt>
      <trkpt lat="43.14521" lon="-0.04698">
        <ele>476.8</ele>
        <time>2020-09-12T21:21:54Z</time>
      </trkpt>
      <trkpt lat="43.14518" lon="-0.047">
        <ele>477.1</ele>
        <time>2020-09-12T21:21:56Z</time>
      </trkpt>
      <trkpt lat="43.14515" lon="-0.047">
        <ele>477.3</ele>
        <time>2020-09-12T21:21:59Z</time>
      </trkpt>
      <trkpt lat="43.14512" lon="-0.047">
        <ele>478</ele>
        <time>2020-09-12T21:22:03Z</time>
      </trkpt>
      <trkpt lat="43.14508" lon="-0.04701">
        <ele>479</ele>
        <time>2020-09-12T21:22:06Z</time>
      </trkpt>
      <trkpt lat="43.14505" lon="-0.04702">
        <ele>479.7</ele>
        <time>2020-09-12T21:22:09Z</time>
      </trkpt>
      <trkpt lat="43.14502" lon="-0.04704">
        <ele>480.4</ele>
        <time>2020-09-12T21:22:12Z</time>
      </trkpt>
      <trkpt lat="43.145" lon="-0.04706">
        <ele>480.8</ele>
        <time>2020-09-12T21:22:15Z</time>
      </trkpt>
      <trkpt lat="43.14496" lon="-0.04709">
        <ele>481.2</ele>
        <time>2020-09-12T21:22:18Z</time>
      </trkpt>
      <trkpt lat="43.14493" lon="-0.04711">
        <ele>481.9</ele>
        <time>2020-09-12T21:22:20Z</time>
      </trkpt>
      <trkpt lat="43.1449" lon="-0.04713">
        <ele>482.7</ele>
        <time>2020-09-12T21:22:24Z</time>
      </trkpt>
      <trkpt lat="43.14487" lon="-0.04715">
        <ele>483.8</ele>
        <time>2020-09-12T21:22:26Z</time>
      </trkpt>
      <trkpt lat="43.14483" lon="-0.04716">
        <ele>484.4</ele>
        <time>2020-09-12T21:22:29Z</time>
      </trkpt>
      <trkpt lat="43.14481" lon="-0.04718">
        <ele>484.9</ele>
        <time>2020-09-12T21:22:31Z</time>
      </trkpt>
      <trkpt lat="43.14478" lon="-0.04719">
        <ele>485.3</ele>
        <time>2020-09-12T21:22:33Z</time>
      </trkpt>
      <trkpt lat="43.14475" lon="-0.04719">
        <ele>485.8</ele>
        <time>2020-09-12T21:22:35Z</time>
      </trkpt>
      <trkpt lat="43.14472" lon="-0.04718">
        <ele>486.3</ele>
        <time>2020-09-12T21:22:38Z</time>
      </trkpt>
      <trkpt lat="43.14468" lon="-0.04718">
        <ele>487.2</ele>
        <time>2020-09-12T21:22:40Z</time>
      </trkpt>
      <trkpt lat="43.14464" lon="-0.04719">
        <ele>488.1</ele>
        <time>2020-09-12T21:22:42Z</time>
      </trkpt>
      <trkpt lat="43.14461" lon="-0.0472">
        <ele>488.7</ele>
        <time>2020-09-12T21:22:44Z</time>
      </trkpt>
      <trkpt lat="43.14458" lon="-0.04721">
        <ele>489.3</ele>
        <time>2020-09-12T21:22:46Z</time>
      </trkpt>
      <trkpt lat="43.14456" lon="-0.04722">
        <ele>489.9</ele>
        <time>2020-09-12T21:22:48Z</time>
      </trkpt>
      <trkpt lat="43.14452" lon="-0.04724">
        <ele>490.6</ele>
        <time>2020-09-12T21:22:51Z</time>
      </trkpt>
      <trkpt lat="43.14449" lon="-0.04729">
        <ele>491.2</ele>
        <time>2020-09-12T21:22:52Z</time>
      </trkpt>
      <trkpt lat="43.14448" lon="-0.04732">
        <ele>491.6</ele>
        <time>2020-09-12T21:22:53Z</time>
      </trkpt>
      <trkpt lat="43.14445" lon="-0.04734">
        <ele>492</ele>
        <time>2020-09-12T21:22:55Z</time>
      </trkpt>
      <trkpt lat="43.14442" lon="-0.04733">
        <ele>492.3</ele>
        <time>2020-09-12T21:22:57Z</time>
      </trkpt>
      <trkpt lat="43.14439" lon="-0.04733">
        <ele>492.7</ele>
        <time>2020-09-12T21:22:59Z</time>
      </trkpt>
      <trkpt lat="43.14436" lon="-0.04733">
        <ele>493.4</ele>
        <time>2020-09-12T21:23:01Z</time>
      </trkpt>
      <trkpt lat="43.14433" lon="-0.04732">
        <ele>494</ele>
        <time>2020-09-12T21:23:03Z</time>
      </trkpt>
      <trkpt lat="43.14431" lon="-0.0473">
        <ele>494.3</ele>
        <time>2020-09-12T21:23:05Z</time>
      </trkpt>
      <trkpt lat="43.14427" lon="-0.0473">
        <ele>494.6</ele>
        <time>2020-09-12T21:23:07Z</time>
      </trkpt>
      <trkpt lat="43.14423" lon="-0.04727">
        <ele>494.9</ele>
        <time>2020-09-12T21:23:09Z</time>
      </trkpt>
      <trkpt lat="43.1442" lon="-0.04725">
        <ele>495.3</ele>
        <time>2020-09-12T21:23:11Z</time>
      </trkpt>
      <trkpt lat="43.14417" lon="-0.04726">
        <ele>495.7</ele>
        <time>2020-09-12T21:23:14Z</time>
      </trkpt>
      <trkpt lat="43.14414" lon="-0.04726">
        <ele>496.1</ele>
        <time>2020-09-12T21:23:16Z</time>
      </trkpt>
      <trkpt lat="43.14411" lon="-0.04725">
        <ele>496.6</ele>
        <time>2020-09-12T21:23:19Z</time>
      </trkpt>
      <trkpt lat="43.14408" lon="-0.04723">
        <ele>496.9</ele>
        <time>2020-09-12T21:23:21Z</time>
      </trkpt>
      <trkpt lat="43.14405" lon="-0.04721">
        <ele>497.2</ele>
        <time>2020-09-12T21:23:23Z</time>
      </trkpt>
      <trkpt lat="43.14402" lon="-0.04721">
        <ele>497.6</ele>
        <time>2020-09-12T21:23:25Z</time>
      </trkpt>
      <trkpt lat="43.14399" lon="-0.04719">
        <ele>498</ele>
        <time>2020-09-12T21:23:27Z</time>
      </trkpt>
      <trkpt lat="43.14395" lon="-0.0472">
        <ele>498.5</ele>
        <time>2020-09-12T21:23:29Z</time>
      </trkpt>
      <trkpt lat="43.14391" lon="-0.0472">
        <ele>498.7</ele>
        <time>2020-09-12T21:23:31Z</time>
      </trkpt>
      <trkpt lat="43.14388" lon="-0.04722">
        <ele>499</ele>
        <time>2020-09-12T21:23:33Z</time>
      </trkpt>
      <trkpt lat="43.14384" lon="-0.04722">
        <ele>499.3</ele>
        <time>2020-09-12T21:23:35Z</time>
      </trkpt>
      <trkpt lat="43.14381" lon="-0.04723">
        <ele>499.6</ele>
        <time>2020-09-12T21:23:37Z</time>
      </trkpt>
      <trkpt lat="43.14377" lon="-0.04724">
        <ele>500</ele>
        <time>2020-09-12T21:23:39Z</time>
      </trkpt>
      <trkpt lat="43.14373" lon="-0.04725">
        <ele>500.7</ele>
        <time>2020-09-12T21:23:41Z</time>
      </trkpt>
      <trkpt lat="43.14368" lon="-0.04725">
        <ele>501</ele>
        <time>2020-09-12T21:23:43Z</time>
      </trkpt>
      <trkpt lat="43.14366" lon="-0.04728">
        <ele>501.2</ele>
        <time>2020-09-12T21:23:47Z</time>
      </trkpt>
      <trkpt lat="43.14363" lon="-0.04729">
        <ele>501.3</ele>
        <time>2020-09-12T21:23:48Z</time>
      </trkpt>
      <trkpt lat="43.1436" lon="-0.0473">
        <ele>501.5</ele>
        <time>2020-09-12T21:23:49Z</time>
      </trkpt>
      <trkpt lat="43.14355" lon="-0.04731">
        <ele>501.6</ele>
        <time>2020-09-12T21:23:51Z</time>
      </trkpt>
      <trkpt lat="43.14351" lon="-0.04733">
        <ele>501.7</ele>
        <time>2020-09-12T21:23:53Z</time>
      </trkpt>
      <trkpt lat="43.14346" lon="-0.04735">
        <ele>501.8</ele>
        <time>2020-09-12T21:23:55Z</time>
      </trkpt>
      <trkpt lat="43.14341" lon="-0.04736">
        <ele>502.1</ele>
        <time>2020-09-12T21:23:57Z</time>
      </trkpt>
      <trkpt lat="43.14338" lon="-0.04737">
        <ele>502.4</ele>
        <time>2020-09-12T21:23:59Z</time>
      </trkpt>
      <trkpt lat="43.14334" lon="-0.04738">
        <ele>502.8</ele>
        <time>2020-09-12T21:24:01Z</time>
      </trkpt>
      <trkpt lat="43.1433" lon="-0.0474">
        <ele>503.1</ele>
        <time>2020-09-12T21:24:03Z</time>
      </trkpt>
      <trkpt lat="43.14327" lon="-0.04743">
        <ele>503.3</ele>
        <time>2020-09-12T21:24:05Z</time>
      </trkpt>
      <trkpt lat="43.14324" lon="-0.04743">
        <ele>503.4</ele>
        <time>2020-09-12T21:24:07Z</time>
      </trkpt>
      <trkpt lat="43.14319" lon="-0.04743">
        <ele>503.9</ele>
        <time>2020-09-12T21:24:09Z</time>
      </trkpt>
      <trkpt lat="43.14317" lon="-0.04744">
        <ele>504.3</ele>
        <time>2020-09-12T21:24:10Z</time>
      </trkpt>
      <trkpt lat="43.14312" lon="-0.04746">
        <ele>504.8</ele>
        <time>2020-09-12T21:24:12Z</time>
      </trkpt>
      <trkpt lat="43.14309" lon="-0.04746">
        <ele>505.2</ele>
        <time>2020-09-12T21:24:14Z</time>
      </trkpt>
      <trkpt lat="43.14307" lon="-0.0475">
        <ele>505.5</ele>
        <time>2020-09-12T21:24:16Z</time>
      </trkpt>
      <trkpt lat="43.14303" lon="-0.04754">
        <ele>506</ele>
        <time>2020-09-12T21:24:18Z</time>
      </trkpt>
      <trkpt lat="43.143" lon="-0.04758">
        <ele>506.3</ele>
        <time>2020-09-12T21:24:19Z</time>
      </trkpt>
      <trkpt lat="43.14297" lon="-0.04762">
        <ele>506.8</ele>
        <time>2020-09-12T21:24:21Z</time>
      </trkpt>
      <trkpt lat="43.14297" lon="-0.04767">
        <ele>507.3</ele>
        <time>2020-09-12T21:24:23Z</time>
      </trkpt>
      <trkpt lat="43.14293" lon="-0.04768">
        <ele>508</ele>
        <time>2020-09-12T21:24:26Z</time>
      </trkpt>
      <trkpt lat="43.14289" lon="-0.04769">
        <ele>508.5</ele>
        <time>2020-09-12T21:24:27Z</time>
      </trkpt>
      <trkpt lat="43.14283" lon="-0.04772">
        <ele>509.3</ele>
        <time>2020-09-12T21:24:32Z</time>
      </trkpt>
      <trkpt lat="43.1428" lon="-0.04774">
        <ele>509.6</ele>
        <time>2020-09-12T21:24:33Z</time>
      </trkpt>
      <trkpt lat="43.14277" lon="-0.04776">
        <ele>510.1</ele>
        <time>2020-09-12T21:24:34Z</time>
      </trkpt>
      <trkpt lat="43.14273" lon="-0.04778">
        <ele>510.7</ele>
        <time>2020-09-12T21:24:35Z</time>
      </trkpt>
      <trkpt lat="43.14271" lon="-0.04779">
        <ele>511.2</ele>
        <time>2020-09-12T21:24:36Z</time>
      </trkpt>
      <trkpt lat="43.14269" lon="-0.04782">
        <ele>511.8</ele>
        <time>2020-09-12T21:24:37Z</time>
      </trkpt>
      <trkpt lat="43.14265" lon="-0.04786">
        <ele>512.7</ele>
        <time>2020-09-12T21:24:39Z</time>
      </trkpt>
      <trkpt lat="43.14262" lon="-0.04788">
        <ele>513.2</ele>
        <time>2020-09-12T21:24:41Z</time>
      </trkpt>
      <trkpt lat="43.1426" lon="-0.04793">
        <ele>513.6</ele>
        <time>2020-09-12T21:24:43Z</time>
      </trkpt>
      <trkpt lat="43.14259" lon="-0.04798">
        <ele>514.2</ele>
        <time>2020-09-12T21:24:45Z</time>
      </trkpt>
      <trkpt lat="43.14258" lon="-0.04803">
        <ele>514.8</ele>
        <time>2020-09-12T21:24:47Z</time>
      </trkpt>
      <trkpt lat="43.14257" lon="-0.04808">
        <ele>515</ele>
        <time>2020-09-12T21:24:49Z</time>
      </trkpt>
      <trkpt lat="43.14257" lon="-0.04813">
        <ele>515.2</ele>
        <time>2020-09-12T21:24:51Z</time>
      </trkpt>
      <trkpt lat="43.14258" lon="-0.04818">
        <ele>515.4</ele>
        <time>2020-09-12T21:24:53Z</time>
      </trkpt>
      <trkpt lat="43.14259" lon="-0.04823">
        <ele>515.2</ele>
        <time>2020-09-12T21:24:56Z</time>
      </trkpt>
      <trkpt lat="43.1426" lon="-0.04829">
        <ele>515.5</ele>
        <time>2020-09-12T21:24:58Z</time>
      </trkpt>
      <trkpt lat="43.14257" lon="-0.04835">
        <ele>516.2</ele>
        <time>2020-09-12T21:25:00Z</time>
      </trkpt>
      <trkpt lat="43.14255" lon="-0.04838">
        <ele>516.9</ele>
        <time>2020-09-12T21:25:01Z</time>
      </trkpt>
      <trkpt lat="43.14253" lon="-0.04843">
        <ele>517.1</ele>
        <time>2020-09-12T21:25:03Z</time>
      </trkpt>
      <trkpt lat="43.14253" lon="-0.04848">
        <ele>517.3</ele>
        <time>2020-09-12T21:25:05Z</time>
      </trkpt>
      <trkpt lat="43.14254" lon="-0.04856">
        <ele>517.7</ele>
        <time>2020-09-12T21:25:07Z</time>
      </trkpt>
      <trkpt lat="43.14253" lon="-0.04861">
        <ele>517.9</ele>
        <time>2020-09-12T21:25:08Z</time>
      </trkpt>
      <trkpt lat="43.14252" lon="-0.04866">
        <ele>518.2</ele>
        <time>2020-09-12T21:25:09Z</time>
      </trkpt>
      <trkpt lat="43.14252" lon="-0.0487">
        <ele>519</ele>
        <time>2020-09-12T21:25:10Z</time>
      </trkpt>
      <trkpt lat="43.14252" lon="-0.04875">
        <ele>518.6</ele>
        <time>2020-09-12T21:25:11Z</time>
      </trkpt>
      <trkpt lat="43.14254" lon="-0.04882">
        <ele>518.9</ele>
        <time>2020-09-12T21:25:13Z</time>
      </trkpt>
      <trkpt lat="43.14254" lon="-0.04889">
        <ele>519.2</ele>
        <time>2020-09-12T21:25:15Z</time>
      </trkpt>
      <trkpt lat="43.14256" lon="-0.04893">
        <ele>518.8</ele>
        <time>2020-09-12T21:25:17Z</time>
      </trkpt>
      <trkpt lat="43.14258" lon="-0.04896">
        <ele>518.8</ele>
        <time>2020-09-12T21:25:19Z</time>
      </trkpt>
      <trkpt lat="43.1426" lon="-0.04901">
        <ele>518.6</ele>
        <time>2020-09-12T21:25:21Z</time>
      </trkpt>
      <trkpt lat="43.14261" lon="-0.04906">
        <ele>518.2</ele>
        <time>2020-09-12T21:25:23Z</time>
      </trkpt>
      <trkpt lat="43.14261" lon="-0.04912">
        <ele>518.4</ele>
        <time>2020-09-12T21:25:25Z</time>
      </trkpt>
      <trkpt lat="43.14261" lon="-0.04919">
        <ele>518.7</ele>
        <time>2020-09-12T21:25:27Z</time>
      </trkpt>
      <trkpt lat="43.14262" lon="-0.04924">
        <ele>518.9</ele>
        <time>2020-09-12T21:25:29Z</time>
      </trkpt>
      <trkpt lat="43.14261" lon="-0.04931">
        <ele>519</ele>
        <time>2020-09-12T21:25:31Z</time>
      </trkpt>
      <trkpt lat="43.1426" lon="-0.04937">
        <ele>519.8</ele>
        <time>2020-09-12T21:25:33Z</time>
      </trkpt>
      <trkpt lat="43.1426" lon="-0.04942">
        <ele>519.9</ele>
        <time>2020-09-12T21:25:35Z</time>
      </trkpt>
      <trkpt lat="43.1426" lon="-0.04946">
        <ele>520</ele>
        <time>2020-09-12T21:25:38Z</time>
      </trkpt>
      <trkpt lat="43.14257" lon="-0.04948">
        <ele>520.5</ele>
        <time>2020-09-12T21:25:41Z</time>
      </trkpt>
      <trkpt lat="43.14254" lon="-0.04948">
        <ele>521</ele>
        <time>2020-09-12T21:25:43Z</time>
      </trkpt>
      <trkpt lat="43.14251" lon="-0.04951">
        <ele>521.5</ele>
        <time>2020-09-12T21:25:45Z</time>
      </trkpt>
      <trkpt lat="43.14249" lon="-0.04953">
        <ele>522</ele>
        <time>2020-09-12T21:25:47Z</time>
      </trkpt>
      <trkpt lat="43.14245" lon="-0.04955">
        <ele>522.5</ele>
        <time>2020-09-12T21:25:50Z</time>
      </trkpt>
      <trkpt lat="43.14242" lon="-0.04957">
        <ele>523</ele>
        <time>2020-09-12T21:25:53Z</time>
      </trkpt>
      <trkpt lat="43.14238" lon="-0.04958">
        <ele>523.4</ele>
        <time>2020-09-12T21:25:56Z</time>
      </trkpt>
      <trkpt lat="43.14235" lon="-0.04959">
        <ele>523.8</ele>
        <time>2020-09-12T21:25:59Z</time>
      </trkpt>
      <trkpt lat="43.14229" lon="-0.04962">
        <ele>524.4</ele>
        <time>2020-09-12T21:26:01Z</time>
      </trkpt>
      <trkpt lat="43.14225" lon="-0.04964">
        <ele>524.8</ele>
        <time>2020-09-12T21:26:03Z</time>
      </trkpt>
      <trkpt lat="43.1422" lon="-0.04964">
        <ele>525.5</ele>
        <time>2020-09-12T21:26:05Z</time>
      </trkpt>
      <trkpt lat="43.14218" lon="-0.04964">
        <ele>525.6</ele>
        <time>2020-09-12T21:26:08Z</time>
      </trkpt>
      <trkpt lat="43.14215" lon="-0.04962">
        <ele>525.9</ele>
        <time>2020-09-12T21:26:12Z</time>
      </trkpt>
      <trkpt lat="43.14211" lon="-0.04964">
        <ele>526.5</ele>
        <time>2020-09-12T21:26:14Z</time>
      </trkpt>
      <trkpt lat="43.14208" lon="-0.04965">
        <ele>526.8</ele>
        <time>2020-09-12T21:26:16Z</time>
      </trkpt>
      <trkpt lat="43.14204" lon="-0.04966">
        <ele>527.1</ele>
        <time>2020-09-12T21:26:19Z</time>
      </trkpt>
      <trkpt lat="43.14201" lon="-0.04965">
        <ele>527.5</ele>
        <time>2020-09-12T21:26:22Z</time>
      </trkpt>
      <trkpt lat="43.14198" lon="-0.04966">
        <ele>527.8</ele>
        <time>2020-09-12T21:26:24Z</time>
      </trkpt>
      <trkpt lat="43.14195" lon="-0.04967">
        <ele>528.2</ele>
        <time>2020-09-12T21:26:26Z</time>
      </trkpt>
      <trkpt lat="43.14191" lon="-0.04967">
        <ele>528.6</ele>
        <time>2020-09-12T21:26:29Z</time>
      </trkpt>
      <trkpt lat="43.14188" lon="-0.0497">
        <ele>529</ele>
        <time>2020-09-12T21:26:31Z</time>
      </trkpt>
      <trkpt lat="43.14185" lon="-0.04971">
        <ele>529.3</ele>
        <time>2020-09-12T21:26:33Z</time>
      </trkpt>
      <trkpt lat="43.14182" lon="-0.04971">
        <ele>529.7</ele>
        <time>2020-09-12T21:26:35Z</time>
      </trkpt>
      <trkpt lat="43.14179" lon="-0.04972">
        <ele>530</ele>
        <time>2020-09-12T21:26:37Z</time>
      </trkpt>
      <trkpt lat="43.14175" lon="-0.04973">
        <ele>530.3</ele>
        <time>2020-09-12T21:26:39Z</time>
      </trkpt>
      <trkpt lat="43.14172" lon="-0.04975">
        <ele>530.7</ele>
        <time>2020-09-12T21:26:41Z</time>
      </trkpt>
      <trkpt lat="43.14168" lon="-0.04977">
        <ele>531.1</ele>
        <time>2020-09-12T21:26:43Z</time>
      </trkpt>
      <trkpt lat="43.14165" lon="-0.04977">
        <ele>531.4</ele>
        <time>2020-09-12T21:26:45Z</time>
      </trkpt>
      <trkpt lat="43.14162" lon="-0.04979">
        <ele>531.7</ele>
        <time>2020-09-12T21:26:47Z</time>
      </trkpt>
      <trkpt lat="43.14159" lon="-0.0498">
        <ele>532.1</ele>
        <time>2020-09-12T21:26:49Z</time>
      </trkpt>
      <trkpt lat="43.14157" lon="-0.04977">
        <ele>532.4</ele>
        <time>2020-09-12T21:26:53Z</time>
      </trkpt>
      <trkpt lat="43.14154" lon="-0.04976">
        <ele>532.7</ele>
        <time>2020-09-12T21:26:56Z</time>
      </trkpt>
      <trkpt lat="43.14152" lon="-0.04978">
        <ele>533</ele>
        <time>2020-09-12T21:26:58Z</time>
      </trkpt>
      <trkpt lat="43.1415" lon="-0.04981">
        <ele>533</ele>
        <time>2020-09-12T21:27:00Z</time>
      </trkpt>
      <trkpt lat="43.14149" lon="-0.04986">
        <ele>533</ele>
        <time>2020-09-12T21:27:04Z</time>
      </trkpt>
      <trkpt lat="43.14148" lon="-0.0499">
        <ele>533.2</ele>
        <time>2020-09-12T21:27:06Z</time>
      </trkpt>
      <trkpt lat="43.14148" lon="-0.04995">
        <ele>533.2</ele>
        <time>2020-09-12T21:27:08Z</time>
      </trkpt>
      <trkpt lat="43.14148" lon="-0.04999">
        <ele>533.1</ele>
        <time>2020-09-12T21:27:11Z</time>
      </trkpt>
      <trkpt lat="43.1415" lon="-0.05004">
        <ele>532.6</ele>
        <time>2020-09-12T21:27:13Z</time>
      </trkpt>
      <trkpt lat="43.14152" lon="-0.05008">
        <ele>532.4</ele>
        <time>2020-09-12T21:27:14Z</time>
      </trkpt>
      <trkpt lat="43.14155" lon="-0.05011">
        <ele>532</ele>
        <time>2020-09-12T21:27:15Z</time>
      </trkpt>
      <trkpt lat="43.14157" lon="-0.05014">
        <ele>531.9</ele>
        <time>2020-09-12T21:27:16Z</time>
      </trkpt>
      <trkpt lat="43.14159" lon="-0.05017">
        <ele>531.5</ele>
        <time>2020-09-12T21:27:17Z</time>
      </trkpt>
      <trkpt lat="43.14159" lon="-0.05022">
        <ele>531.4</ele>
        <time>2020-09-12T21:27:18Z</time>
      </trkpt>
      <trkpt lat="43.1416" lon="-0.05026">
        <ele>531.2</ele>
        <time>2020-09-12T21:27:19Z</time>
      </trkpt>
      <trkpt lat="43.14162" lon="-0.0503">
        <ele>530.8</ele>
        <time>2020-09-12T21:27:20Z</time>
      </trkpt>
      <trkpt lat="43.14163" lon="-0.05034">
        <ele>530.6</ele>
        <time>2020-09-12T21:27:21Z</time>
      </trkpt>
      <trkpt lat="43.14166" lon="-0.05039">
        <ele>530.1</ele>
        <time>2020-09-12T21:27:23Z</time>
      </trkpt>
      <trkpt lat="43.14169" lon="-0.05043">
        <ele>529.6</ele>
        <time>2020-09-12T21:27:25Z</time>
      </trkpt>
      <trkpt lat="43.14172" lon="-0.05046">
        <ele>529.2</ele>
        <time>2020-09-12T21:27:26Z</time>
      </trkpt>
      <trkpt lat="43.14174" lon="-0.05049">
        <ele>528.6</ele>
        <time>2020-09-12T21:27:27Z</time>
      </trkpt>
      <trkpt lat="43.14176" lon="-0.05052">
        <ele>528.5</ele>
        <time>2020-09-12T21:27:28Z</time>
      </trkpt>
      <trkpt lat="43.14178" lon="-0.05055">
        <ele>528.1</ele>
        <time>2020-09-12T21:27:29Z</time>
      </trkpt>
      <trkpt lat="43.14182" lon="-0.05059">
        <ele>527.5</ele>
        <time>2020-09-12T21:27:30Z</time>
      </trkpt>
      <trkpt lat="43.14185" lon="-0.05063">
        <ele>526.9</ele>
        <time>2020-09-12T21:27:31Z</time>
      </trkpt>
      <trkpt lat="43.14188" lon="-0.05067">
        <ele>526.3</ele>
        <time>2020-09-12T21:27:32Z</time>
      </trkpt>
      <trkpt lat="43.14191" lon="-0.0507">
        <ele>525.7</ele>
        <time>2020-09-12T21:27:33Z</time>
      </trkpt>
      <trkpt lat="43.14194" lon="-0.05073">
        <ele>525</ele>
        <time>2020-09-12T21:27:34Z</time>
      </trkpt>
      <trkpt lat="43.14197" lon="-0.05075">
        <ele>524.6</ele>
        <time>2020-09-12T21:27:35Z</time>
      </trkpt>
      <trkpt lat="43.14199" lon="-0.05078">
        <ele>523.9</ele>
        <time>2020-09-12T21:27:36Z</time>
      </trkpt>
      <trkpt lat="43.14201" lon="-0.0508">
        <ele>523.9</ele>
        <time>2020-09-12T21:27:37Z</time>
      </trkpt>
      <trkpt lat="43.14205" lon="-0.05085">
        <ele>523.2</ele>
        <time>2020-09-12T21:27:39Z</time>
      </trkpt>
      <trkpt lat="43.14207" lon="-0.05089">
        <ele>522.6</ele>
        <time>2020-09-12T21:27:41Z</time>
      </trkpt>
      <trkpt lat="43.14209" lon="-0.05094">
        <ele>521.9</ele>
        <time>2020-09-12T21:27:42Z</time>
      </trkpt>
      <trkpt lat="43.14214" lon="-0.05098">
        <ele>521.3</ele>
        <time>2020-09-12T21:27:43Z</time>
      </trkpt>
      <trkpt lat="43.14218" lon="-0.05102">
        <ele>520.1</ele>
        <time>2020-09-12T21:27:44Z</time>
      </trkpt>
      <trkpt lat="43.14222" lon="-0.05106">
        <ele>519.3</ele>
        <time>2020-09-12T21:27:45Z</time>
      </trkpt>
      <trkpt lat="43.14226" lon="-0.05108">
        <ele>518.5</ele>
        <time>2020-09-12T21:27:46Z</time>
      </trkpt>
      <trkpt lat="43.14228" lon="-0.05111">
        <ele>518.2</ele>
        <time>2020-09-12T21:27:47Z</time>
      </trkpt>
      <trkpt lat="43.14231" lon="-0.05117">
        <ele>517.1</ele>
        <time>2020-09-12T21:27:49Z</time>
      </trkpt>
      <trkpt lat="43.14234" lon="-0.05122">
        <ele>516.4</ele>
        <time>2020-09-12T21:27:51Z</time>
      </trkpt>
      <trkpt lat="43.14235" lon="-0.05127">
        <ele>516.1</ele>
        <time>2020-09-12T21:27:52Z</time>
      </trkpt>
      <trkpt lat="43.14237" lon="-0.0513">
        <ele>515.4</ele>
        <time>2020-09-12T21:27:53Z</time>
      </trkpt>
      <trkpt lat="43.14239" lon="-0.05134">
        <ele>515</ele>
        <time>2020-09-12T21:27:54Z</time>
      </trkpt>
      <trkpt lat="43.1424" lon="-0.05139">
        <ele>514.3</ele>
        <time>2020-09-12T21:27:55Z</time>
      </trkpt>
      <trkpt lat="43.14243" lon="-0.05141">
        <ele>513.5</ele>
        <time>2020-09-12T21:27:56Z</time>
      </trkpt>
      <trkpt lat="43.14246" lon="-0.05144">
        <ele>513.1</ele>
        <time>2020-09-12T21:27:57Z</time>
      </trkpt>
      <trkpt lat="43.1425" lon="-0.0515">
        <ele>512.2</ele>
        <time>2020-09-12T21:27:59Z</time>
      </trkpt>
      <trkpt lat="43.14252" lon="-0.05154">
        <ele>510.9</ele>
        <time>2020-09-12T21:28:00Z</time>
      </trkpt>
      <trkpt lat="43.14254" lon="-0.05159">
        <ele>510.5</ele>
        <time>2020-09-12T21:28:01Z</time>
      </trkpt>
      <trkpt lat="43.14255" lon="-0.05163">
        <ele>510.5</ele>
        <time>2020-09-12T21:28:02Z</time>
      </trkpt>
      <trkpt lat="43.14256" lon="-0.05167">
        <ele>509.1</ele>
        <time>2020-09-12T21:28:03Z</time>
      </trkpt>
      <trkpt lat="43.14257" lon="-0.05172">
        <ele>508.7</ele>
        <time>2020-09-12T21:28:04Z</time>
      </trkpt>
      <trkpt lat="43.14258" lon="-0.05176">
        <ele>508.3</ele>
        <time>2020-09-12T21:28:05Z</time>
      </trkpt>
      <trkpt lat="43.1426" lon="-0.05178">
        <ele>507.8</ele>
        <time>2020-09-12T21:28:06Z</time>
      </trkpt>
      <trkpt lat="43.14262" lon="-0.05185">
        <ele>506.5</ele>
        <time>2020-09-12T21:28:08Z</time>
      </trkpt>
      <trkpt lat="43.14264" lon="-0.05189">
        <ele>505.6</ele>
        <time>2020-09-12T21:28:10Z</time>
      </trkpt>
      <trkpt lat="43.14267" lon="-0.05195">
        <ele>505.2</ele>
        <time>2020-09-12T21:28:12Z</time>
      </trkpt>
      <trkpt lat="43.14269" lon="-0.05201">
        <ele>504.3</ele>
        <time>2020-09-12T21:28:14Z</time>
      </trkpt>
      <trkpt lat="43.1427" lon="-0.05207">
        <ele>503.4</ele>
        <time>2020-09-12T21:28:16Z</time>
      </trkpt>
      <trkpt lat="43.14271" lon="-0.05211">
        <ele>502.5</ele>
        <time>2020-09-12T21:28:17Z</time>
      </trkpt>
      <trkpt lat="43.14274" lon="-0.05215">
        <ele>501.5</ele>
        <time>2020-09-12T21:28:19Z</time>
      </trkpt>
      <trkpt lat="43.14275" lon="-0.05219">
        <ele>501.1</ele>
        <time>2020-09-12T21:28:22Z</time>
      </trkpt>
      <trkpt lat="43.14273" lon="-0.05223">
        <ele>501.3</ele>
        <time>2020-09-12T21:28:24Z</time>
      </trkpt>
      <trkpt lat="43.1427" lon="-0.05229">
        <ele>501.4</ele>
        <time>2020-09-12T21:28:26Z</time>
      </trkpt>
      <trkpt lat="43.14268" lon="-0.05234">
        <ele>501.1</ele>
        <time>2020-09-12T21:28:28Z</time>
      </trkpt>
      <trkpt lat="43.14266" lon="-0.05238">
        <ele>501.2</ele>
        <time>2020-09-12T21:28:30Z</time>
      </trkpt>
      <trkpt lat="43.14265" lon="-0.05243">
        <ele>500.9</ele>
        <time>2020-09-12T21:28:32Z</time>
      </trkpt>
      <trkpt lat="43.14264" lon="-0.05248">
        <ele>501.1</ele>
        <time>2020-09-12T21:28:36Z</time>
      </trkpt>
      <trkpt lat="43.14264" lon="-0.05253">
        <ele>500.4</ele>
        <time>2020-09-12T21:28:38Z</time>
      </trkpt>
      <trkpt lat="43.14262" lon="-0.05261">
        <ele>500.2</ele>
        <time>2020-09-12T21:28:40Z</time>
      </trkpt>
      <trkpt lat="43.1426" lon="-0.05265">
        <ele>500.3</ele>
        <time>2020-09-12T21:28:42Z</time>
      </trkpt>
      <trkpt lat="43.14259" lon="-0.05271">
        <ele>499.9</ele>
        <time>2020-09-12T21:28:44Z</time>
      </trkpt>
      <trkpt lat="43.14257" lon="-0.05277">
        <ele>500.2</ele>
        <time>2020-09-12T21:28:46Z</time>
      </trkpt>
      <trkpt lat="43.14255" lon="-0.05282">
        <ele>500.6</ele>
        <time>2020-09-12T21:28:48Z</time>
      </trkpt>
      <trkpt lat="43.14251" lon="-0.05286">
        <ele>501</ele>
        <time>2020-09-12T21:28:50Z</time>
      </trkpt>
      <trkpt lat="43.14248" lon="-0.05286">
        <ele>501.6</ele>
        <time>2020-09-12T21:28:53Z</time>
      </trkpt>
      <trkpt lat="43.14245" lon="-0.05286">
        <ele>501.7</ele>
        <time>2020-09-12T21:28:56Z</time>
      </trkpt>
      <trkpt lat="43.14242" lon="-0.05287">
        <ele>501.9</ele>
        <time>2020-09-12T21:28:57Z</time>
      </trkpt>
      <trkpt lat="43.14239" lon="-0.05288">
        <ele>502</ele>
        <time>2020-09-12T21:28:59Z</time>
      </trkpt>
      <trkpt lat="43.14237" lon="-0.05289">
        <ele>502.1</ele>
        <time>2020-09-12T21:29:00Z</time>
      </trkpt>
      <trkpt lat="43.14233" lon="-0.05289">
        <ele>502.3</ele>
        <time>2020-09-12T21:29:02Z</time>
      </trkpt>
      <trkpt lat="43.1423" lon="-0.05286">
        <ele>502.5</ele>
        <time>2020-09-12T21:29:05Z</time>
      </trkpt>
      <trkpt lat="43.14226" lon="-0.05288">
        <ele>502.7</ele>
        <time>2020-09-12T21:29:07Z</time>
      </trkpt>
      <trkpt lat="43.14224" lon="-0.0529">
        <ele>502.8</ele>
        <time>2020-09-12T21:29:08Z</time>
      </trkpt>
      <trkpt lat="43.14221" lon="-0.05292">
        <ele>503</ele>
        <time>2020-09-12T21:29:09Z</time>
      </trkpt>
      <trkpt lat="43.14217" lon="-0.05295">
        <ele>503.2</ele>
        <time>2020-09-12T21:29:11Z</time>
      </trkpt>
      <trkpt lat="43.14214" lon="-0.05295">
        <ele>503.4</ele>
        <time>2020-09-12T21:29:13Z</time>
      </trkpt>
      <trkpt lat="43.14208" lon="-0.05293">
        <ele>503.8</ele>
        <time>2020-09-12T21:29:15Z</time>
      </trkpt>
      <trkpt lat="43.14205" lon="-0.05293">
        <ele>504</ele>
        <time>2020-09-12T21:29:18Z</time>
      </trkpt>
      <trkpt lat="43.14202" lon="-0.05293">
        <ele>504.1</ele>
        <time>2020-09-12T21:29:20Z</time>
      </trkpt>
      <trkpt lat="43.14199" lon="-0.05292">
        <ele>504.3</ele>
        <time>2020-09-12T21:29:23Z</time>
      </trkpt>
      <trkpt lat="43.14196" lon="-0.05292">
        <ele>504.4</ele>
        <time>2020-09-12T21:29:28Z</time>
      </trkpt>
      <trkpt lat="43.14193" lon="-0.05292">
        <ele>504.6</ele>
        <time>2020-09-12T21:29:29Z</time>
      </trkpt>
      <trkpt lat="43.14189" lon="-0.05293">
        <ele>504.8</ele>
        <time>2020-09-12T21:29:30Z</time>
      </trkpt>
      <trkpt lat="43.14186" lon="-0.05293">
        <ele>505</ele>
        <time>2020-09-12T21:29:31Z</time>
      </trkpt>
      <trkpt lat="43.14182" lon="-0.05293">
        <ele>505.3</ele>
        <time>2020-09-12T21:29:33Z</time>
      </trkpt>
      <trkpt lat="43.14179" lon="-0.05296">
        <ele>505.4</ele>
        <time>2020-09-12T21:29:34Z</time>
      </trkpt>
      <trkpt lat="43.14176" lon="-0.05297">
        <ele>505.6</ele>
        <time>2020-09-12T21:29:36Z</time>
      </trkpt>
      <trkpt lat="43.14171" lon="-0.05297">
        <ele>505.9</ele>
        <time>2020-09-12T21:29:38Z</time>
      </trkpt>
      <trkpt lat="43.14166" lon="-0.05301">
        <ele>506.2</ele>
        <time>2020-09-12T21:29:40Z</time>
      </trkpt>
      <trkpt lat="43.14164" lon="-0.05303">
        <ele>506.3</ele>
        <time>2020-09-12T21:29:41Z</time>
      </trkpt>
      <trkpt lat="43.1416" lon="-0.05305">
        <ele>506.6</ele>
        <time>2020-09-12T21:29:43Z</time>
      </trkpt>
      <trkpt lat="43.14156" lon="-0.05305">
        <ele>506.7</ele>
        <time>2020-09-12T21:29:45Z</time>
      </trkpt>
      <trkpt lat="43.14152" lon="-0.05303">
        <ele>507</ele>
        <time>2020-09-12T21:29:48Z</time>
      </trkpt>
      <trkpt lat="43.14149" lon="-0.05301">
        <ele>507.2</ele>
        <time>2020-09-12T21:29:51Z</time>
      </trkpt>
      <trkpt lat="43.14141" lon="-0.053">
        <ele>507.6</ele>
        <time>2020-09-12T21:29:53Z</time>
      </trkpt>
      <trkpt lat="43.14137" lon="-0.05301">
        <ele>508</ele>
        <time>2020-09-12T21:29:54Z</time>
      </trkpt>
      <trkpt lat="43.14133" lon="-0.053">
        <ele>508.2</ele>
        <time>2020-09-12T21:29:55Z</time>
      </trkpt>
      <trkpt lat="43.14131" lon="-0.053">
        <ele>508.3</ele>
        <time>2020-09-12T21:29:56Z</time>
      </trkpt>
      <trkpt lat="43.14126" lon="-0.053">
        <ele>508.6</ele>
        <time>2020-09-12T21:29:58Z</time>
      </trkpt>
      <trkpt lat="43.14123" lon="-0.05301">
        <ele>508.9</ele>
        <time>2020-09-12T21:29:59Z</time>
      </trkpt>
      <trkpt lat="43.1412" lon="-0.05302">
        <ele>509.1</ele>
        <time>2020-09-12T21:30:00Z</time>
      </trkpt>
      <trkpt lat="43.14117" lon="-0.05302">
        <ele>509.3</ele>
        <time>2020-09-12T21:30:01Z</time>
      </trkpt>
      <trkpt lat="43.14113" lon="-0.05301">
        <ele>509.6</ele>
        <time>2020-09-12T21:30:03Z</time>
      </trkpt>
      <trkpt lat="43.14109" lon="-0.05301">
        <ele>509.9</ele>
        <time>2020-09-12T21:30:05Z</time>
      </trkpt>
      <trkpt lat="43.14106" lon="-0.05299">
        <ele>510.1</ele>
        <time>2020-09-12T21:30:07Z</time>
      </trkpt>
      <trkpt lat="43.14103" lon="-0.05297">
        <ele>510.3</ele>
        <time>2020-09-12T21:30:09Z</time>
      </trkpt>
      <trkpt lat="43.141" lon="-0.05296">
        <ele>510.6</ele>
        <time>2020-09-12T21:30:11Z</time>
      </trkpt>
      <trkpt lat="43.14097" lon="-0.05294">
        <ele>510.9</ele>
        <time>2020-09-12T21:30:13Z</time>
      </trkpt>
      <trkpt lat="43.14095" lon="-0.0529">
        <ele>511.1</ele>
        <time>2020-09-12T21:30:15Z</time>
      </trkpt>
      <trkpt lat="43.14091" lon="-0.05291">
        <ele>511.4</ele>
        <time>2020-09-12T21:30:17Z</time>
      </trkpt>
      <trkpt lat="43.14087" lon="-0.0529">
        <ele>511.8</ele>
        <time>2020-09-12T21:30:19Z</time>
      </trkpt>
      <trkpt lat="43.14084" lon="-0.05285">
        <ele>512.1</ele>
        <time>2020-09-12T21:30:21Z</time>
      </trkpt>
      <trkpt lat="43.14082" lon="-0.0528">
        <ele>512.3</ele>
        <time>2020-09-12T21:30:23Z</time>
      </trkpt>
      <trkpt lat="43.14079" lon="-0.05275">
        <ele>512.5</ele>
        <time>2020-09-12T21:30:25Z</time>
      </trkpt>
      <trkpt lat="43.14076" lon="-0.05271">
        <ele>512.7</ele>
        <time>2020-09-12T21:30:27Z</time>
      </trkpt>
      <trkpt lat="43.14072" lon="-0.05265">
        <ele>512.9</ele>
        <time>2020-09-12T21:30:29Z</time>
      </trkpt>
      <trkpt lat="43.14069" lon="-0.05259">
        <ele>513.2</ele>
        <time>2020-09-12T21:30:31Z</time>
      </trkpt>
      <trkpt lat="43.14067" lon="-0.05257">
        <ele>513.4</ele>
        <time>2020-09-12T21:30:32Z</time>
      </trkpt>
      <trkpt lat="43.14065" lon="-0.05254">
        <ele>513.6</ele>
        <time>2020-09-12T21:30:33Z</time>
      </trkpt>
      <trkpt lat="43.14063" lon="-0.05251">
        <ele>513.8</ele>
        <time>2020-09-12T21:30:34Z</time>
      </trkpt>
      <trkpt lat="43.14061" lon="-0.05249">
        <ele>514</ele>
        <time>2020-09-12T21:30:35Z</time>
      </trkpt>
      <trkpt lat="43.14056" lon="-0.05247">
        <ele>514.3</ele>
        <time>2020-09-12T21:30:37Z</time>
      </trkpt>
      <trkpt lat="43.14054" lon="-0.05248">
        <ele>514.5</ele>
        <time>2020-09-12T21:30:38Z</time>
      </trkpt>
      <trkpt lat="43.14051" lon="-0.0525">
        <ele>514.6</ele>
        <time>2020-09-12T21:30:39Z</time>
      </trkpt>
      <trkpt lat="43.14049" lon="-0.05253">
        <ele>514.8</ele>
        <time>2020-09-12T21:30:40Z</time>
      </trkpt>
      <trkpt lat="43.14047" lon="-0.05255">
        <ele>514.9</ele>
        <time>2020-09-12T21:30:41Z</time>
      </trkpt>
      <trkpt lat="43.14043" lon="-0.05259">
        <ele>515.1</ele>
        <time>2020-09-12T21:30:43Z</time>
      </trkpt>
      <trkpt lat="43.14041" lon="-0.05261">
        <ele>515.3</ele>
        <time>2020-09-12T21:30:44Z</time>
      </trkpt>
      <trkpt lat="43.14038" lon="-0.05263">
        <ele>515.4</ele>
        <time>2020-09-12T21:30:46Z</time>
      </trkpt>
      <trkpt lat="43.14033" lon="-0.05267">
        <ele>515.7</ele>
        <time>2020-09-12T21:30:48Z</time>
      </trkpt>
      <trkpt lat="43.1403" lon="-0.05268">
        <ele>516</ele>
        <time>2020-09-12T21:30:49Z</time>
      </trkpt>
      <trkpt lat="43.14026" lon="-0.05267">
        <ele>516.5</ele>
        <time>2020-09-12T21:30:51Z</time>
      </trkpt>
      <trkpt lat="43.14022" lon="-0.05265">
        <ele>516.9</ele>
        <time>2020-09-12T21:30:53Z</time>
      </trkpt>
      <trkpt lat="43.14019" lon="-0.05265">
        <ele>517.2</ele>
        <time>2020-09-12T21:30:55Z</time>
      </trkpt>
      <trkpt lat="43.14013" lon="-0.05264">
        <ele>517.6</ele>
        <time>2020-09-12T21:30:57Z</time>
      </trkpt>
      <trkpt lat="43.14011" lon="-0.05264">
        <ele>517.8</ele>
        <time>2020-09-12T21:30:58Z</time>
      </trkpt>
      <trkpt lat="43.14007" lon="-0.05263">
        <ele>518.2</ele>
        <time>2020-09-12T21:31:00Z</time>
      </trkpt>
      <trkpt lat="43.14003" lon="-0.05262">
        <ele>518.5</ele>
        <time>2020-09-12T21:31:02Z</time>
      </trkpt>
      <trkpt lat="43.13999" lon="-0.05263">
        <ele>518.9</ele>
        <time>2020-09-12T21:31:04Z</time>
      </trkpt>
      <trkpt lat="43.13996" lon="-0.05262">
        <ele>519.1</ele>
        <time>2020-09-12T21:31:07Z</time>
      </trkpt>
      <trkpt lat="43.13993" lon="-0.0526">
        <ele>519.6</ele>
        <time>2020-09-12T21:31:09Z</time>
      </trkpt>
      <trkpt lat="43.1399" lon="-0.05259">
        <ele>519.9</ele>
        <time>2020-09-12T21:31:10Z</time>
      </trkpt>
      <trkpt lat="43.13987" lon="-0.05255">
        <ele>520.4</ele>
        <time>2020-09-12T21:31:12Z</time>
      </trkpt>
      <trkpt lat="43.13983" lon="-0.05255">
        <ele>520.8</ele>
        <time>2020-09-12T21:31:14Z</time>
      </trkpt>
      <trkpt lat="43.13981" lon="-0.05252">
        <ele>521.1</ele>
        <time>2020-09-12T21:31:16Z</time>
      </trkpt>
      <trkpt lat="43.13978" lon="-0.0525">
        <ele>521.4</ele>
        <time>2020-09-12T21:31:18Z</time>
      </trkpt>
      <trkpt lat="43.13974" lon="-0.05248">
        <ele>521.8</ele>
        <time>2020-09-12T21:31:20Z</time>
      </trkpt>
      <trkpt lat="43.13972" lon="-0.05244">
        <ele>522.1</ele>
        <time>2020-09-12T21:31:22Z</time>
      </trkpt>
      <trkpt lat="43.13969" lon="-0.05243">
        <ele>522.4</ele>
        <time>2020-09-12T21:31:24Z</time>
      </trkpt>
      <trkpt lat="43.13965" lon="-0.05238">
        <ele>522.9</ele>
        <time>2020-09-12T21:31:26Z</time>
      </trkpt>
      <trkpt lat="43.13961" lon="-0.05236">
        <ele>523.3</ele>
        <time>2020-09-12T21:31:28Z</time>
      </trkpt>
      <trkpt lat="43.13958" lon="-0.05233">
        <ele>523.6</ele>
        <time>2020-09-12T21:31:30Z</time>
      </trkpt>
      <trkpt lat="43.13954" lon="-0.0523">
        <ele>524</ele>
        <time>2020-09-12T21:31:32Z</time>
      </trkpt>
      <trkpt lat="43.13949" lon="-0.05227">
        <ele>524.4</ele>
        <time>2020-09-12T21:31:34Z</time>
      </trkpt>
      <trkpt lat="43.13945" lon="-0.05223">
        <ele>524.7</ele>
        <time>2020-09-12T21:31:36Z</time>
      </trkpt>
      <trkpt lat="43.13941" lon="-0.05219">
        <ele>525.1</ele>
        <time>2020-09-12T21:31:38Z</time>
      </trkpt>
      <trkpt lat="43.13938" lon="-0.05215">
        <ele>525.5</ele>
        <time>2020-09-12T21:31:40Z</time>
      </trkpt>
      <trkpt lat="43.13934" lon="-0.05211">
        <ele>525.8</ele>
        <time>2020-09-12T21:31:42Z</time>
      </trkpt>
      <trkpt lat="43.13929" lon="-0.0521">
        <ele>526.1</ele>
        <time>2020-09-12T21:31:44Z</time>
      </trkpt>
      <trkpt lat="43.13925" lon="-0.05208">
        <ele>526.5</ele>
        <time>2020-09-12T21:31:46Z</time>
      </trkpt>
      <trkpt lat="43.1392" lon="-0.05206">
        <ele>526.8</ele>
        <time>2020-09-12T21:31:48Z</time>
      </trkpt>
      <trkpt lat="43.13916" lon="-0.05208">
        <ele>527.1</ele>
        <time>2020-09-12T21:31:50Z</time>
      </trkpt>
      <trkpt lat="43.13912" lon="-0.05205">
        <ele>527.5</ele>
        <time>2020-09-12T21:31:52Z</time>
      </trkpt>
      <trkpt lat="43.13909" lon="-0.05201">
        <ele>527.7</ele>
        <time>2020-09-12T21:31:54Z</time>
      </trkpt>
      <trkpt lat="43.13906" lon="-0.05197">
        <ele>527.9</ele>
        <time>2020-09-12T21:31:56Z</time>
      </trkpt>
      <trkpt lat="43.13901" lon="-0.05195">
        <ele>528.3</ele>
        <time>2020-09-12T21:31:58Z</time>
      </trkpt>
      <trkpt lat="43.13898" lon="-0.05195">
        <ele>528.4</ele>
        <time>2020-09-12T21:31:59Z</time>
      </trkpt>
      <trkpt lat="43.13895" lon="-0.05194">
        <ele>528.6</ele>
        <time>2020-09-12T21:32:00Z</time>
      </trkpt>
      <trkpt lat="43.1389" lon="-0.05192">
        <ele>528.8</ele>
        <time>2020-09-12T21:32:02Z</time>
      </trkpt>
      <trkpt lat="43.13885" lon="-0.05193">
        <ele>529</ele>
        <time>2020-09-12T21:32:04Z</time>
      </trkpt>
      <trkpt lat="43.13882" lon="-0.05191">
        <ele>529.3</ele>
        <time>2020-09-12T21:32:06Z</time>
      </trkpt>
      <trkpt lat="43.13877" lon="-0.0519">
        <ele>529.6</ele>
        <time>2020-09-12T21:32:08Z</time>
      </trkpt>
      <trkpt lat="43.13872" lon="-0.0519">
        <ele>530.1</ele>
        <time>2020-09-12T21:32:10Z</time>
      </trkpt>
      <trkpt lat="43.13868" lon="-0.0519">
        <ele>530.3</ele>
        <time>2020-09-12T21:32:13Z</time>
      </trkpt>
      <trkpt lat="43.13865" lon="-0.05191">
        <ele>530.6</ele>
        <time>2020-09-12T21:32:14Z</time>
      </trkpt>
      <trkpt lat="43.13862" lon="-0.05192">
        <ele>530.9</ele>
        <time>2020-09-12T21:32:15Z</time>
      </trkpt>
      <trkpt lat="43.13859" lon="-0.05192">
        <ele>531.1</ele>
        <time>2020-09-12T21:32:16Z</time>
      </trkpt>
      <trkpt lat="43.13855" lon="-0.05193">
        <ele>531.3</ele>
        <time>2020-09-12T21:32:17Z</time>
      </trkpt>
      <trkpt lat="43.1385" lon="-0.05192">
        <ele>531.7</ele>
        <time>2020-09-12T21:32:19Z</time>
      </trkpt>
      <trkpt lat="43.13845" lon="-0.05192">
        <ele>532.1</ele>
        <time>2020-09-12T21:32:21Z</time>
      </trkpt>
      <trkpt lat="43.13841" lon="-0.05192">
        <ele>532.5</ele>
        <time>2020-09-12T21:32:23Z</time>
      </trkpt>
      <trkpt lat="43.13838" lon="-0.05193">
        <ele>532.8</ele>
        <time>2020-09-12T21:32:25Z</time>
      </trkpt>
      <trkpt lat="43.13834" lon="-0.05195">
        <ele>533.1</ele>
        <time>2020-09-12T21:32:28Z</time>
      </trkpt>
      <trkpt lat="43.13829" lon="-0.05195">
        <ele>533.6</ele>
        <time>2020-09-12T21:32:30Z</time>
      </trkpt>
      <trkpt lat="43.13824" lon="-0.05197">
        <ele>534.1</ele>
        <time>2020-09-12T21:32:32Z</time>
      </trkpt>
      <trkpt lat="43.13819" lon="-0.05199">
        <ele>534.6</ele>
        <time>2020-09-12T21:32:33Z</time>
      </trkpt>
      <trkpt lat="43.13816" lon="-0.052">
        <ele>535</ele>
        <time>2020-09-12T21:32:34Z</time>
      </trkpt>
      <trkpt lat="43.13812" lon="-0.05201">
        <ele>535.3</ele>
        <time>2020-09-12T21:32:35Z</time>
      </trkpt>
      <trkpt lat="43.13809" lon="-0.05202">
        <ele>535.6</ele>
        <time>2020-09-12T21:32:36Z</time>
      </trkpt>
      <trkpt lat="43.13804" lon="-0.05205">
        <ele>536</ele>
        <time>2020-09-12T21:32:38Z</time>
      </trkpt>
      <trkpt lat="43.138" lon="-0.05206">
        <ele>536.5</ele>
        <time>2020-09-12T21:32:40Z</time>
      </trkpt>
      <trkpt lat="43.13796" lon="-0.0521">
        <ele>537.1</ele>
        <time>2020-09-12T21:32:42Z</time>
      </trkpt>
      <trkpt lat="43.13793" lon="-0.05215">
        <ele>537.6</ele>
        <time>2020-09-12T21:32:44Z</time>
      </trkpt>
      <trkpt lat="43.13791" lon="-0.05218">
        <ele>537.9</ele>
        <time>2020-09-12T21:32:45Z</time>
      </trkpt>
      <trkpt lat="43.13788" lon="-0.05223">
        <ele>538.5</ele>
        <time>2020-09-12T21:32:47Z</time>
      </trkpt>
      <trkpt lat="43.13785" lon="-0.05226">
        <ele>538.9</ele>
        <time>2020-09-12T21:32:50Z</time>
      </trkpt>
      <trkpt lat="43.13783" lon="-0.05228">
        <ele>539.2</ele>
        <time>2020-09-12T21:32:52Z</time>
      </trkpt>
      <trkpt lat="43.1378" lon="-0.05232">
        <ele>539.6</ele>
        <time>2020-09-12T21:32:54Z</time>
      </trkpt>
      <trkpt lat="43.13778" lon="-0.05234">
        <ele>539.9</ele>
        <time>2020-09-12T21:32:56Z</time>
      </trkpt>
      <trkpt lat="43.13775" lon="-0.05236">
        <ele>540.2</ele>
        <time>2020-09-12T21:32:58Z</time>
      </trkpt>
      <trkpt lat="43.13772" lon="-0.05238">
        <ele>540.5</ele>
        <time>2020-09-12T21:33:00Z</time>
      </trkpt>
      <trkpt lat="43.1377" lon="-0.05239">
        <ele>540.8</ele>
        <time>2020-09-12T21:33:03Z</time>
      </trkpt>
      <trkpt lat="43.13766" lon="-0.05239">
        <ele>541.2</ele>
        <time>2020-09-12T21:33:05Z</time>
      </trkpt>
      <trkpt lat="43.13762" lon="-0.05238">
        <ele>541.6</ele>
        <time>2020-09-12T21:33:07Z</time>
      </trkpt>
      <trkpt lat="43.13757" lon="-0.0524">
        <ele>542</ele>
        <time>2020-09-12T21:33:09Z</time>
      </trkpt>
      <trkpt lat="43.13754" lon="-0.05241">
        <ele>542.3</ele>
        <time>2020-09-12T21:33:11Z</time>
      </trkpt>
      <trkpt lat="43.1375" lon="-0.05238">
        <ele>542.7</ele>
        <time>2020-09-12T21:33:13Z</time>
      </trkpt>
      <trkpt lat="43.13747" lon="-0.05235">
        <ele>543.1</ele>
        <time>2020-09-12T21:33:15Z</time>
      </trkpt>
      <trkpt lat="43.13744" lon="-0.05232">
        <ele>543.4</ele>
        <time>2020-09-12T21:33:17Z</time>
      </trkpt>
      <trkpt lat="43.13743" lon="-0.05228">
        <ele>543.8</ele>
        <time>2020-09-12T21:33:19Z</time>
      </trkpt>
      <trkpt lat="43.1374" lon="-0.05226">
        <ele>544</ele>
        <time>2020-09-12T21:33:22Z</time>
      </trkpt>
      <trkpt lat="43.13737" lon="-0.05224">
        <ele>544.3</ele>
        <time>2020-09-12T21:33:24Z</time>
      </trkpt>
      <trkpt lat="43.13734" lon="-0.05222">
        <ele>544.6</ele>
        <time>2020-09-12T21:33:26Z</time>
      </trkpt>
      <trkpt lat="43.1373" lon="-0.05219">
        <ele>544.8</ele>
        <time>2020-09-12T21:33:28Z</time>
      </trkpt>
      <trkpt lat="43.13727" lon="-0.05217">
        <ele>545</ele>
        <time>2020-09-12T21:33:29Z</time>
      </trkpt>
      <trkpt lat="43.13724" lon="-0.05215">
        <ele>545.2</ele>
        <time>2020-09-12T21:33:30Z</time>
      </trkpt>
      <trkpt lat="43.13721" lon="-0.05215">
        <ele>545.3</ele>
        <time>2020-09-12T21:33:31Z</time>
      </trkpt>
      <trkpt lat="43.13719" lon="-0.05214">
        <ele>545.5</ele>
        <time>2020-09-12T21:33:32Z</time>
      </trkpt>
      <trkpt lat="43.13716" lon="-0.05213">
        <ele>545.7</ele>
        <time>2020-09-12T21:33:33Z</time>
      </trkpt>
      <trkpt lat="43.13713" lon="-0.05212">
        <ele>545.8</ele>
        <time>2020-09-12T21:33:34Z</time>
      </trkpt>
      <trkpt lat="43.1371" lon="-0.05213">
        <ele>545.9</ele>
        <time>2020-09-12T21:33:35Z</time>
      </trkpt>
      <trkpt lat="43.13707" lon="-0.05213">
        <ele>546</ele>
        <time>2020-09-12T21:33:36Z</time>
      </trkpt>
      <trkpt lat="43.13704" lon="-0.05212">
        <ele>546.2</ele>
        <time>2020-09-12T21:33:37Z</time>
      </trkpt>
      <trkpt lat="43.13701" lon="-0.05213">
        <ele>546.3</ele>
        <time>2020-09-12T21:33:38Z</time>
      </trkpt>
      <trkpt lat="43.13697" lon="-0.05217">
        <ele>546.6</ele>
        <time>2020-09-12T21:33:40Z</time>
      </trkpt>
      <trkpt lat="43.13693" lon="-0.05221">
        <ele>546.8</ele>
        <time>2020-09-12T21:33:42Z</time>
      </trkpt>
      <trkpt lat="43.1369" lon="-0.05227">
        <ele>547.1</ele>
        <time>2020-09-12T21:33:44Z</time>
      </trkpt>
      <trkpt lat="43.13687" lon="-0.0523">
        <ele>547.2</ele>
        <time>2020-09-12T21:33:46Z</time>
      </trkpt>
      <trkpt lat="43.13684" lon="-0.05233">
        <ele>547.4</ele>
        <time>2020-09-12T21:33:48Z</time>
      </trkpt>
      <trkpt lat="43.13681" lon="-0.05236">
        <ele>547.5</ele>
        <time>2020-09-12T21:33:50Z</time>
      </trkpt>
      <trkpt lat="43.13678" lon="-0.0524">
        <ele>547.7</ele>
        <time>2020-09-12T21:33:52Z</time>
      </trkpt>
      <trkpt lat="43.13675" lon="-0.05244">
        <ele>547.9</ele>
        <time>2020-09-12T21:33:54Z</time>
      </trkpt>
      <trkpt lat="43.13672" lon="-0.05249">
        <ele>548.1</ele>
        <time>2020-09-12T21:33:56Z</time>
      </trkpt>
      <trkpt lat="43.13669" lon="-0.05254">
        <ele>548.3</ele>
        <time>2020-09-12T21:33:58Z</time>
      </trkpt>
      <trkpt lat="43.13666" lon="-0.05259">
        <ele>548.5</ele>
        <time>2020-09-12T21:34:00Z</time>
      </trkpt>
      <trkpt lat="43.13663" lon="-0.05263">
        <ele>548.7</ele>
        <time>2020-09-12T21:34:02Z</time>
      </trkpt>
      <trkpt lat="43.13659" lon="-0.05267">
        <ele>548.9</ele>
        <time>2020-09-12T21:34:04Z</time>
      </trkpt>
      <trkpt lat="43.13656" lon="-0.05272">
        <ele>549.1</ele>
        <time>2020-09-12T21:34:06Z</time>
      </trkpt>
      <trkpt lat="43.13653" lon="-0.05275">
        <ele>549.3</ele>
        <time>2020-09-12T21:34:08Z</time>
      </trkpt>
      <trkpt lat="43.1365" lon="-0.05277">
        <ele>549.5</ele>
        <time>2020-09-12T21:34:10Z</time>
      </trkpt>
      <trkpt lat="43.13647" lon="-0.05281">
        <ele>549.8</ele>
        <time>2020-09-12T21:34:12Z</time>
      </trkpt>
      <trkpt lat="43.13644" lon="-0.05283">
        <ele>550</ele>
        <time>2020-09-12T21:34:14Z</time>
      </trkpt>
      <trkpt lat="43.13641" lon="-0.05285">
        <ele>550.2</ele>
        <time>2020-09-12T21:34:16Z</time>
      </trkpt>
      <trkpt lat="43.13637" lon="-0.05288">
        <ele>550.4</ele>
        <time>2020-09-12T21:34:18Z</time>
      </trkpt>
      <trkpt lat="43.13634" lon="-0.0529">
        <ele>550.6</ele>
        <time>2020-09-12T21:34:20Z</time>
      </trkpt>
      <trkpt lat="43.13631" lon="-0.05294">
        <ele>550.8</ele>
        <time>2020-09-12T21:34:22Z</time>
      </trkpt>
      <trkpt lat="43.13629" lon="-0.05296">
        <ele>551</ele>
        <time>2020-09-12T21:34:23Z</time>
      </trkpt>
      <trkpt lat="43.13626" lon="-0.05299">
        <ele>551.1</ele>
        <time>2020-09-12T21:34:25Z</time>
      </trkpt>
      <trkpt lat="43.13624" lon="-0.05302">
        <ele>551.3</ele>
        <time>2020-09-12T21:34:27Z</time>
      </trkpt>
      <trkpt lat="43.13621" lon="-0.05306">
        <ele>551.6</ele>
        <time>2020-09-12T21:34:29Z</time>
      </trkpt>
      <trkpt lat="43.13619" lon="-0.0531">
        <ele>551.9</ele>
        <time>2020-09-12T21:34:31Z</time>
      </trkpt>
      <trkpt lat="43.13616" lon="-0.05314">
        <ele>552.2</ele>
        <time>2020-09-12T21:34:33Z</time>
      </trkpt>
      <trkpt lat="43.13613" lon="-0.05319">
        <ele>552.6</ele>
        <time>2020-09-12T21:34:35Z</time>
      </trkpt>
      <trkpt lat="43.13611" lon="-0.05321">
        <ele>552.8</ele>
        <time>2020-09-12T21:34:36Z</time>
      </trkpt>
      <trkpt lat="43.13609" lon="-0.05325">
        <ele>553.1</ele>
        <time>2020-09-12T21:34:38Z</time>
      </trkpt>
      <trkpt lat="43.13607" lon="-0.05329">
        <ele>553.3</ele>
        <time>2020-09-12T21:34:40Z</time>
      </trkpt>
      <trkpt lat="43.13607" lon="-0.05332">
        <ele>553.5</ele>
        <time>2020-09-12T21:34:42Z</time>
      </trkpt>
      <trkpt lat="43.13605" lon="-0.05336">
        <ele>553.7</ele>
        <time>2020-09-12T21:34:44Z</time>
      </trkpt>
      <trkpt lat="43.13603" lon="-0.05339">
        <ele>553.9</ele>
        <time>2020-09-12T21:34:46Z</time>
      </trkpt>
      <trkpt lat="43.13601" lon="-0.05342">
        <ele>554</ele>
        <time>2020-09-12T21:34:48Z</time>
      </trkpt>
      <trkpt lat="43.13599" lon="-0.05347">
        <ele>554.2</ele>
        <time>2020-09-12T21:34:50Z</time>
      </trkpt>
      <trkpt lat="43.13596" lon="-0.0535">
        <ele>554.4</ele>
        <time>2020-09-12T21:34:52Z</time>
      </trkpt>
      <trkpt lat="43.13594" lon="-0.05353">
        <ele>554.5</ele>
        <time>2020-09-12T21:34:54Z</time>
      </trkpt>
      <trkpt lat="43.13592" lon="-0.05359">
        <ele>554.7</ele>
        <time>2020-09-12T21:34:56Z</time>
      </trkpt>
      <trkpt lat="43.13591" lon="-0.05365">
        <ele>554.9</ele>
        <time>2020-09-12T21:34:58Z</time>
      </trkpt>
      <trkpt lat="43.13588" lon="-0.0537">
        <ele>555.1</ele>
        <time>2020-09-12T21:35:00Z</time>
      </trkpt>
      <trkpt lat="43.13586" lon="-0.05373">
        <ele>555.2</ele>
        <time>2020-09-12T21:35:01Z</time>
      </trkpt>
      <trkpt lat="43.13584" lon="-0.05377">
        <ele>555.3</ele>
        <time>2020-09-12T21:35:02Z</time>
      </trkpt>
      <trkpt lat="43.13582" lon="-0.05379">
        <ele>555.4</ele>
        <time>2020-09-12T21:35:03Z</time>
      </trkpt>
      <trkpt lat="43.13578" lon="-0.05384">
        <ele>555.7</ele>
        <time>2020-09-12T21:35:05Z</time>
      </trkpt>
      <trkpt lat="43.13577" lon="-0.05387">
        <ele>555.8</ele>
        <time>2020-09-12T21:35:06Z</time>
      </trkpt>
      <trkpt lat="43.13575" lon="-0.0539">
        <ele>555.9</ele>
        <time>2020-09-12T21:35:07Z</time>
      </trkpt>
      <trkpt lat="43.13573" lon="-0.05393">
        <ele>556.1</ele>
        <time>2020-09-12T21:35:08Z</time>
      </trkpt>
      <trkpt lat="43.13571" lon="-0.05396">
        <ele>556.2</ele>
        <time>2020-09-12T21:35:09Z</time>
      </trkpt>
      <trkpt lat="43.13567" lon="-0.054">
        <ele>556.4</ele>
        <time>2020-09-12T21:35:11Z</time>
      </trkpt>
      <trkpt lat="43.13563" lon="-0.05403">
        <ele>556.6</ele>
        <time>2020-09-12T21:35:13Z</time>
      </trkpt>
      <trkpt lat="43.13559" lon="-0.05407">
        <ele>556.8</ele>
        <time>2020-09-12T21:35:15Z</time>
      </trkpt>
      <trkpt lat="43.13554" lon="-0.05412">
        <ele>557</ele>
        <time>2020-09-12T21:35:17Z</time>
      </trkpt>
      <trkpt lat="43.1355" lon="-0.05415">
        <ele>557.2</ele>
        <time>2020-09-12T21:35:19Z</time>
      </trkpt>
      <trkpt lat="43.13547" lon="-0.05417">
        <ele>557.4</ele>
        <time>2020-09-12T21:35:21Z</time>
      </trkpt>
      <trkpt lat="43.13543" lon="-0.05419">
        <ele>557.5</ele>
        <time>2020-09-12T21:35:23Z</time>
      </trkpt>
      <trkpt lat="43.13539" lon="-0.05422">
        <ele>557.7</ele>
        <time>2020-09-12T21:35:25Z</time>
      </trkpt>
      <trkpt lat="43.13535" lon="-0.05425">
        <ele>557.9</ele>
        <time>2020-09-12T21:35:27Z</time>
      </trkpt>
      <trkpt lat="43.13531" lon="-0.05428">
        <ele>558.1</ele>
        <time>2020-09-12T21:35:29Z</time>
      </trkpt>
      <trkpt lat="43.13526" lon="-0.05431">
        <ele>558.2</ele>
        <time>2020-09-12T21:35:31Z</time>
      </trkpt>
      <trkpt lat="43.13522" lon="-0.05433">
        <ele>558.3</ele>
        <time>2020-09-12T21:35:33Z</time>
      </trkpt>
      <trkpt lat="43.13517" lon="-0.05434">
        <ele>558.5</ele>
        <time>2020-09-12T21:35:35Z</time>
      </trkpt>
      <trkpt lat="43.13513" lon="-0.05438">
        <ele>558.6</ele>
        <time>2020-09-12T21:35:37Z</time>
      </trkpt>
      <trkpt lat="43.13508" lon="-0.05439">
        <ele>558.8</ele>
        <time>2020-09-12T21:35:39Z</time>
      </trkpt>
      <trkpt lat="43.13502" lon="-0.0544">
        <ele>559</ele>
        <time>2020-09-12T21:35:41Z</time>
      </trkpt>
      <trkpt lat="43.135" lon="-0.05442">
        <ele>559.1</ele>
        <time>2020-09-12T21:35:42Z</time>
      </trkpt>
      <trkpt lat="43.13497" lon="-0.05442">
        <ele>559.1</ele>
        <time>2020-09-12T21:35:43Z</time>
      </trkpt>
      <trkpt lat="43.13493" lon="-0.05445">
        <ele>559.2</ele>
        <time>2020-09-12T21:35:45Z</time>
      </trkpt>
      <trkpt lat="43.13489" lon="-0.05449">
        <ele>559.3</ele>
        <time>2020-09-12T21:35:47Z</time>
      </trkpt>
      <trkpt lat="43.13484" lon="-0.0545">
        <ele>559.4</ele>
        <time>2020-09-12T21:35:49Z</time>
      </trkpt>
      <trkpt lat="43.1348" lon="-0.05453">
        <ele>559.5</ele>
        <time>2020-09-12T21:35:51Z</time>
      </trkpt>
      <trkpt lat="43.13475" lon="-0.05455">
        <ele>559.6</ele>
        <time>2020-09-12T21:35:53Z</time>
      </trkpt>
      <trkpt lat="43.13471" lon="-0.05458">
        <ele>559.6</ele>
        <time>2020-09-12T21:35:55Z</time>
      </trkpt>
      <trkpt lat="43.13467" lon="-0.05459">
        <ele>559.7</ele>
        <time>2020-09-12T21:35:57Z</time>
      </trkpt>
      <trkpt lat="43.13464" lon="-0.05461">
        <ele>559.8</ele>
        <time>2020-09-12T21:35:59Z</time>
      </trkpt>
      <trkpt lat="43.13459" lon="-0.05461">
        <ele>559.8</ele>
        <time>2020-09-12T21:36:01Z</time>
      </trkpt>
      <trkpt lat="43.13455" lon="-0.05462">
        <ele>559.9</ele>
        <time>2020-09-12T21:36:03Z</time>
      </trkpt>
      <trkpt lat="43.13452" lon="-0.05462">
        <ele>559.9</ele>
        <time>2020-09-12T21:36:05Z</time>
      </trkpt>
      <trkpt lat="43.1345" lon="-0.05461">
        <ele>560</ele>
        <time>2020-09-12T21:36:07Z</time>
      </trkpt>
      <trkpt lat="43.13447" lon="-0.0546">
        <ele>560</ele>
        <time>2020-09-12T21:36:09Z</time>
      </trkpt>
      <trkpt lat="43.13442" lon="-0.0546">
        <ele>560.1</ele>
        <time>2020-09-12T21:36:11Z</time>
      </trkpt>
      <trkpt lat="43.13437" lon="-0.05461">
        <ele>560.2</ele>
        <time>2020-09-12T21:36:13Z</time>
      </trkpt>
      <trkpt lat="43.13432" lon="-0.05462">
        <ele>560.3</ele>
        <time>2020-09-12T21:36:15Z</time>
      </trkpt>
      <trkpt lat="43.13427" lon="-0.05463">
        <ele>560.4</ele>
        <time>2020-09-12T21:36:17Z</time>
      </trkpt>
      <trkpt lat="43.13422" lon="-0.05464">
        <ele>560.5</ele>
        <time>2020-09-12T21:36:19Z</time>
      </trkpt>
      <trkpt lat="43.13417" lon="-0.05464">
        <ele>560.6</ele>
        <time>2020-09-12T21:36:21Z</time>
      </trkpt>
      <trkpt lat="43.13412" lon="-0.05465">
        <ele>560.8</ele>
        <time>2020-09-12T21:36:23Z</time>
      </trkpt>
      <trkpt lat="43.13408" lon="-0.0547">
        <ele>560.9</ele>
        <time>2020-09-12T21:36:25Z</time>
      </trkpt>
      <trkpt lat="43.13406" lon="-0.05473">
        <ele>561</ele>
        <time>2020-09-12T21:36:26Z</time>
      </trkpt>
      <trkpt lat="43.13404" lon="-0.05477">
        <ele>561</ele>
        <time>2020-09-12T21:36:27Z</time>
      </trkpt>
      <trkpt lat="43.13403" lon="-0.05481">
        <ele>561.1</ele>
        <time>2020-09-12T21:36:28Z</time>
      </trkpt>
      <trkpt lat="43.13403" lon="-0.05489">
        <ele>561.6</ele>
        <time>2020-09-12T21:36:30Z</time>
      </trkpt>
      <trkpt lat="43.13406" lon="-0.05495">
        <ele>561.5</ele>
        <time>2020-09-12T21:36:32Z</time>
      </trkpt>
      <trkpt lat="43.1341" lon="-0.05498">
        <ele>561.5</ele>
        <time>2020-09-12T21:36:34Z</time>
      </trkpt>
      <trkpt lat="43.13413" lon="-0.05499">
        <ele>561.5</ele>
        <time>2020-09-12T21:36:35Z</time>
      </trkpt>
      <trkpt lat="43.13417" lon="-0.05499">
        <ele>561.4</ele>
        <time>2020-09-12T21:36:36Z</time>
      </trkpt>
      <trkpt lat="43.1342" lon="-0.055">
        <ele>561.4</ele>
        <time>2020-09-12T21:36:37Z</time>
      </trkpt>
      <trkpt lat="43.13423" lon="-0.055">
        <ele>561.4</ele>
        <time>2020-09-12T21:36:38Z</time>
      </trkpt>
      <trkpt lat="43.13427" lon="-0.055">
        <ele>561.4</ele>
        <time>2020-09-12T21:36:39Z</time>
      </trkpt>
      <trkpt lat="43.1343" lon="-0.05501">
        <ele>561.3</ele>
        <time>2020-09-12T21:36:40Z</time>
      </trkpt>
      <trkpt lat="43.13434" lon="-0.055">
        <ele>561.3</ele>
        <time>2020-09-12T21:36:41Z</time>
      </trkpt>
      <trkpt lat="43.13438" lon="-0.055">
        <ele>561.3</ele>
        <time>2020-09-12T21:36:42Z</time>
      </trkpt>
      <trkpt lat="43.13442" lon="-0.05502">
        <ele>561.3</ele>
        <time>2020-09-12T21:36:43Z</time>
      </trkpt>
      <trkpt lat="43.13447" lon="-0.05502">
        <ele>561.2</ele>
        <time>2020-09-12T21:36:44Z</time>
      </trkpt>
      <trkpt lat="43.13452" lon="-0.05502">
        <ele>561.2</ele>
        <time>2020-09-12T21:36:45Z</time>
      </trkpt>
      <trkpt lat="43.13457" lon="-0.05501">
        <ele>561.2</ele>
        <time>2020-09-12T21:36:46Z</time>
      </trkpt>
      <trkpt lat="43.13462" lon="-0.055">
        <ele>561.2</ele>
        <time>2020-09-12T21:36:47Z</time>
      </trkpt>
      <trkpt lat="43.13466" lon="-0.05499">
        <ele>561.1</ele>
        <time>2020-09-12T21:36:48Z</time>
      </trkpt>
      <trkpt lat="43.1347" lon="-0.05501">
        <ele>561.1</ele>
        <time>2020-09-12T21:36:49Z</time>
      </trkpt>
      <trkpt lat="43.13474" lon="-0.05501">
        <ele>561.1</ele>
        <time>2020-09-12T21:36:50Z</time>
      </trkpt>
      <trkpt lat="43.13478" lon="-0.05503">
        <ele>561</ele>
        <time>2020-09-12T21:36:51Z</time>
      </trkpt>
      <trkpt lat="43.13482" lon="-0.05503">
        <ele>561</ele>
        <time>2020-09-12T21:36:52Z</time>
      </trkpt>
      <trkpt lat="43.13486" lon="-0.05502">
        <ele>561</ele>
        <time>2020-09-12T21:36:53Z</time>
      </trkpt>
      <trkpt lat="43.13489" lon="-0.05504">
        <ele>560.9</ele>
        <time>2020-09-12T21:36:54Z</time>
      </trkpt>
      <trkpt lat="43.13493" lon="-0.05506">
        <ele>560.9</ele>
        <time>2020-09-12T21:36:55Z</time>
      </trkpt>
      <trkpt lat="43.13497" lon="-0.05509">
        <ele>560.8</ele>
        <time>2020-09-12T21:36:56Z</time>
      </trkpt>
      <trkpt lat="43.13501" lon="-0.05511">
        <ele>560.8</ele>
        <time>2020-09-12T21:36:57Z</time>
      </trkpt>
      <trkpt lat="43.13506" lon="-0.05513">
        <ele>560.7</ele>
        <time>2020-09-12T21:36:58Z</time>
      </trkpt>
      <trkpt lat="43.13511" lon="-0.05513">
        <ele>560.6</ele>
        <time>2020-09-12T21:36:59Z</time>
      </trkpt>
      <trkpt lat="43.13516" lon="-0.05515">
        <ele>560.5</ele>
        <time>2020-09-12T21:37:00Z</time>
      </trkpt>
      <trkpt lat="43.1352" lon="-0.05518">
        <ele>560.4</ele>
        <time>2020-09-12T21:37:01Z</time>
      </trkpt>
      <trkpt lat="43.13525" lon="-0.05519">
        <ele>560.2</ele>
        <time>2020-09-12T21:37:02Z</time>
      </trkpt>
      <trkpt lat="43.1353" lon="-0.0552">
        <ele>560.1</ele>
        <time>2020-09-12T21:37:03Z</time>
      </trkpt>
      <trkpt lat="43.13535" lon="-0.05522">
        <ele>560</ele>
        <time>2020-09-12T21:37:04Z</time>
      </trkpt>
      <trkpt lat="43.13539" lon="-0.05524">
        <ele>559.8</ele>
        <time>2020-09-12T21:37:05Z</time>
      </trkpt>
      <trkpt lat="43.13544" lon="-0.05527">
        <ele>559.6</ele>
        <time>2020-09-12T21:37:06Z</time>
      </trkpt>
      <trkpt lat="43.1355" lon="-0.05529">
        <ele>559.4</ele>
        <time>2020-09-12T21:37:07Z</time>
      </trkpt>
      <trkpt lat="43.13556" lon="-0.05532">
        <ele>559.1</ele>
        <time>2020-09-12T21:37:08Z</time>
      </trkpt>
      <trkpt lat="43.13561" lon="-0.05537">
        <ele>558.8</ele>
        <time>2020-09-12T21:37:09Z</time>
      </trkpt>
      <trkpt lat="43.13568" lon="-0.05542">
        <ele>558.5</ele>
        <time>2020-09-12T21:37:10Z</time>
      </trkpt>
      <trkpt lat="43.13574" lon="-0.05547">
        <ele>558.1</ele>
        <time>2020-09-12T21:37:11Z</time>
      </trkpt>
      <trkpt lat="43.1358" lon="-0.0555">
        <ele>557.8</ele>
        <time>2020-09-12T21:37:12Z</time>
      </trkpt>
      <trkpt lat="43.13586" lon="-0.05554">
        <ele>557.6</ele>
        <time>2020-09-12T21:37:13Z</time>
      </trkpt>
      <trkpt lat="43.13593" lon="-0.05558">
        <ele>557.3</ele>
        <time>2020-09-12T21:37:14Z</time>
      </trkpt>
      <trkpt lat="43.136" lon="-0.05562">
        <ele>557</ele>
        <time>2020-09-12T21:37:15Z</time>
      </trkpt>
      <trkpt lat="43.13607" lon="-0.05567">
        <ele>556.8</ele>
        <time>2020-09-12T21:37:16Z</time>
      </trkpt>
      <trkpt lat="43.13614" lon="-0.05571">
        <ele>556.5</ele>
        <time>2020-09-12T21:37:17Z</time>
      </trkpt>
      <trkpt lat="43.1362" lon="-0.05576">
        <ele>556.3</ele>
        <time>2020-09-12T21:37:18Z</time>
      </trkpt>
      <trkpt lat="43.13627" lon="-0.0558">
        <ele>556.2</ele>
        <time>2020-09-12T21:37:19Z</time>
      </trkpt>
      <trkpt lat="43.13633" lon="-0.05584">
        <ele>556.1</ele>
        <time>2020-09-12T21:37:20Z</time>
      </trkpt>
      <trkpt lat="43.13639" lon="-0.05588">
        <ele>556</ele>
        <time>2020-09-12T21:37:21Z</time>
      </trkpt>
      <trkpt lat="43.13645" lon="-0.05592">
        <ele>556</ele>
        <time>2020-09-12T21:37:22Z</time>
      </trkpt>
      <trkpt lat="43.13651" lon="-0.05596">
        <ele>556.1</ele>
        <time>2020-09-12T21:37:23Z</time>
      </trkpt>
      <trkpt lat="43.13656" lon="-0.056">
        <ele>556.2</ele>
        <time>2020-09-12T21:37:24Z</time>
      </trkpt>
      <trkpt lat="43.13662" lon="-0.05603">
        <ele>556.2</ele>
        <time>2020-09-12T21:37:25Z</time>
      </trkpt>
      <trkpt lat="43.13668" lon="-0.05607">
        <ele>556.3</ele>
        <time>2020-09-12T21:37:26Z</time>
      </trkpt>
      <trkpt lat="43.13673" lon="-0.05611">
        <ele>556.4</ele>
        <time>2020-09-12T21:37:27Z</time>
      </trkpt>
      <trkpt lat="43.13679" lon="-0.05615">
        <ele>556.6</ele>
        <time>2020-09-12T21:37:28Z</time>
      </trkpt>
      <trkpt lat="43.13684" lon="-0.05618">
        <ele>556.7</ele>
        <time>2020-09-12T21:37:29Z</time>
      </trkpt>
      <trkpt lat="43.13689" lon="-0.05622">
        <ele>556.9</ele>
        <time>2020-09-12T21:37:30Z</time>
      </trkpt>
      <trkpt lat="43.13694" lon="-0.05626">
        <ele>557</ele>
        <time>2020-09-12T21:37:31Z</time>
      </trkpt>
      <trkpt lat="43.13699" lon="-0.0563">
        <ele>557.1</ele>
        <time>2020-09-12T21:37:32Z</time>
      </trkpt>
      <trkpt lat="43.13704" lon="-0.05634">
        <ele>557.3</ele>
        <time>2020-09-12T21:37:33Z</time>
      </trkpt>
      <trkpt lat="43.13709" lon="-0.05637">
        <ele>557.4</ele>
        <time>2020-09-12T21:37:34Z</time>
      </trkpt>
      <trkpt lat="43.13714" lon="-0.05641">
        <ele>557.6</ele>
        <time>2020-09-12T21:37:35Z</time>
      </trkpt>
      <trkpt lat="43.13719" lon="-0.05644">
        <ele>557.7</ele>
        <time>2020-09-12T21:37:36Z</time>
      </trkpt>
      <trkpt lat="43.13723" lon="-0.05649">
        <ele>557.8</ele>
        <time>2020-09-12T21:37:37Z</time>
      </trkpt>
      <trkpt lat="43.13728" lon="-0.05653">
        <ele>557.9</ele>
        <time>2020-09-12T21:37:38Z</time>
      </trkpt>
      <trkpt lat="43.13732" lon="-0.05657">
        <ele>557.9</ele>
        <time>2020-09-12T21:37:39Z</time>
      </trkpt>
      <trkpt lat="43.13737" lon="-0.0566">
        <ele>557.9</ele>
        <time>2020-09-12T21:37:40Z</time>
      </trkpt>
      <trkpt lat="43.13742" lon="-0.05664">
        <ele>557.9</ele>
        <time>2020-09-12T21:37:41Z</time>
      </trkpt>
      <trkpt lat="43.13747" lon="-0.05668">
        <ele>557.9</ele>
        <time>2020-09-12T21:37:42Z</time>
      </trkpt>
      <trkpt lat="43.13752" lon="-0.05673">
        <ele>557.8</ele>
        <time>2020-09-12T21:37:43Z</time>
      </trkpt>
      <trkpt lat="43.13757" lon="-0.05677">
        <ele>557.7</ele>
        <time>2020-09-12T21:37:44Z</time>
      </trkpt>
      <trkpt lat="43.13762" lon="-0.05682">
        <ele>557.6</ele>
        <time>2020-09-12T21:37:45Z</time>
      </trkpt>
      <trkpt lat="43.13768" lon="-0.05686">
        <ele>557.5</ele>
        <time>2020-09-12T21:37:46Z</time>
      </trkpt>
      <trkpt lat="43.13773" lon="-0.0569">
        <ele>557.4</ele>
        <time>2020-09-12T21:37:47Z</time>
      </trkpt>
      <trkpt lat="43.13779" lon="-0.05695">
        <ele>557.2</ele>
        <time>2020-09-12T21:37:48Z</time>
      </trkpt>
      <trkpt lat="43.13784" lon="-0.05699">
        <ele>557.1</ele>
        <time>2020-09-12T21:37:49Z</time>
      </trkpt>
      <trkpt lat="43.1379" lon="-0.05703">
        <ele>557</ele>
        <time>2020-09-12T21:37:50Z</time>
      </trkpt>
      <trkpt lat="43.13795" lon="-0.05708">
        <ele>556.9</ele>
        <time>2020-09-12T21:37:51Z</time>
      </trkpt>
      <trkpt lat="43.13801" lon="-0.05713">
        <ele>556.8</ele>
        <time>2020-09-12T21:37:52Z</time>
      </trkpt>
      <trkpt lat="43.13806" lon="-0.05717">
        <ele>556.7</ele>
        <time>2020-09-12T21:37:53Z</time>
      </trkpt>
      <trkpt lat="43.13812" lon="-0.0572">
        <ele>556.7</ele>
        <time>2020-09-12T21:37:54Z</time>
      </trkpt>
      <trkpt lat="43.13818" lon="-0.05722">
        <ele>556.6</ele>
        <time>2020-09-12T21:37:55Z</time>
      </trkpt>
      <trkpt lat="43.13823" lon="-0.05724">
        <ele>556.6</ele>
        <time>2020-09-12T21:37:56Z</time>
      </trkpt>
      <trkpt lat="43.13829" lon="-0.05724">
        <ele>556.6</ele>
        <time>2020-09-12T21:37:57Z</time>
      </trkpt>
      <trkpt lat="43.13835" lon="-0.05723">
        <ele>556.6</ele>
        <time>2020-09-12T21:37:58Z</time>
      </trkpt>
      <trkpt lat="43.13841" lon="-0.05723">
        <ele>556.7</ele>
        <time>2020-09-12T21:37:59Z</time>
      </trkpt>
      <trkpt lat="43.13847" lon="-0.05721">
        <ele>556.8</ele>
        <time>2020-09-12T21:38:00Z</time>
      </trkpt>
      <trkpt lat="43.13852" lon="-0.0572">
        <ele>556.9</ele>
        <time>2020-09-12T21:38:01Z</time>
      </trkpt>
      <trkpt lat="43.13858" lon="-0.05718">
        <ele>557</ele>
        <time>2020-09-12T21:38:02Z</time>
      </trkpt>
      <trkpt lat="43.13863" lon="-0.05716">
        <ele>557.2</ele>
        <time>2020-09-12T21:38:03Z</time>
      </trkpt>
      <trkpt lat="43.13868" lon="-0.05714">
        <ele>557.3</ele>
        <time>2020-09-12T21:38:04Z</time>
      </trkpt>
      <trkpt lat="43.13874" lon="-0.05712">
        <ele>557.4</ele>
        <time>2020-09-12T21:38:05Z</time>
      </trkpt>
      <trkpt lat="43.13879" lon="-0.0571">
        <ele>557.5</ele>
        <time>2020-09-12T21:38:06Z</time>
      </trkpt>
      <trkpt lat="43.13884" lon="-0.05708">
        <ele>557.6</ele>
        <time>2020-09-12T21:38:07Z</time>
      </trkpt>
      <trkpt lat="43.13889" lon="-0.05706">
        <ele>557.8</ele>
        <time>2020-09-12T21:38:08Z</time>
      </trkpt>
      <trkpt lat="43.13893" lon="-0.05706">
        <ele>557.9</ele>
        <time>2020-09-12T21:38:09Z</time>
      </trkpt>
      <trkpt lat="43.13898" lon="-0.05705">
        <ele>558</ele>
        <time>2020-09-12T21:38:10Z</time>
      </trkpt>
      <trkpt lat="43.13902" lon="-0.05704">
        <ele>558.1</ele>
        <time>2020-09-12T21:38:11Z</time>
      </trkpt>
      <trkpt lat="43.13906" lon="-0.05703">
        <ele>558.2</ele>
        <time>2020-09-12T21:38:12Z</time>
      </trkpt>
      <trkpt lat="43.1391" lon="-0.05702">
        <ele>558.3</ele>
        <time>2020-09-12T21:38:13Z</time>
      </trkpt>
      <trkpt lat="43.13914" lon="-0.05702">
        <ele>558.3</ele>
        <time>2020-09-12T21:38:14Z</time>
      </trkpt>
      <trkpt lat="43.13919" lon="-0.05701">
        <ele>558.4</ele>
        <time>2020-09-12T21:38:15Z</time>
      </trkpt>
      <trkpt lat="43.13923" lon="-0.05701">
        <ele>558.5</ele>
        <time>2020-09-12T21:38:16Z</time>
      </trkpt>
      <trkpt lat="43.13928" lon="-0.05702">
        <ele>558.5</ele>
        <time>2020-09-12T21:38:17Z</time>
      </trkpt>
      <trkpt lat="43.13933" lon="-0.05703">
        <ele>558.5</ele>
        <time>2020-09-12T21:38:18Z</time>
      </trkpt>
      <trkpt lat="43.13938" lon="-0.05704">
        <ele>558.6</ele>
        <time>2020-09-12T21:38:19Z</time>
      </trkpt>
      <trkpt lat="43.13943" lon="-0.05705">
        <ele>558.6</ele>
        <time>2020-09-12T21:38:20Z</time>
      </trkpt>
      <trkpt lat="43.13948" lon="-0.05707">
        <ele>558.5</ele>
        <time>2020-09-12T21:38:21Z</time>
      </trkpt>
      <trkpt lat="43.13954" lon="-0.05709">
        <ele>558.5</ele>
        <time>2020-09-12T21:38:22Z</time>
      </trkpt>
      <trkpt lat="43.13959" lon="-0.05711">
        <ele>558.4</ele>
        <time>2020-09-12T21:38:23Z</time>
      </trkpt>
      <trkpt lat="43.13964" lon="-0.05713">
        <ele>558.3</ele>
        <time>2020-09-12T21:38:24Z</time>
      </trkpt>
      <trkpt lat="43.1397" lon="-0.05714">
        <ele>558.2</ele>
        <time>2020-09-12T21:38:25Z</time>
      </trkpt>
      <trkpt lat="43.13975" lon="-0.05715">
        <ele>558.1</ele>
        <time>2020-09-12T21:38:26Z</time>
      </trkpt>
      <trkpt lat="43.13981" lon="-0.05717">
        <ele>558.1</ele>
        <time>2020-09-12T21:38:27Z</time>
      </trkpt>
      <trkpt lat="43.13987" lon="-0.05718">
        <ele>558</ele>
        <time>2020-09-12T21:38:28Z</time>
      </trkpt>
      <trkpt lat="43.13993" lon="-0.05719">
        <ele>557.9</ele>
        <time>2020-09-12T21:38:29Z</time>
      </trkpt>
      <trkpt lat="43.13999" lon="-0.05721">
        <ele>557.8</ele>
        <time>2020-09-12T21:38:30Z</time>
      </trkpt>
      <trkpt lat="43.14004" lon="-0.05722">
        <ele>557.7</ele>
        <time>2020-09-12T21:38:31Z</time>
      </trkpt>
      <trkpt lat="43.1401" lon="-0.05724">
        <ele>557.7</ele>
        <time>2020-09-12T21:38:32Z</time>
      </trkpt>
      <trkpt lat="43.14016" lon="-0.05725">
        <ele>557.6</ele>
        <time>2020-09-12T21:38:33Z</time>
      </trkpt>
      <trkpt lat="43.14022" lon="-0.05727">
        <ele>557.6</ele>
        <time>2020-09-12T21:38:34Z</time>
      </trkpt>
      <trkpt lat="43.14028" lon="-0.05728">
        <ele>557.5</ele>
        <time>2020-09-12T21:38:35Z</time>
      </trkpt>
      <trkpt lat="43.14034" lon="-0.05729">
        <ele>557.5</ele>
        <time>2020-09-12T21:38:36Z</time>
      </trkpt>
      <trkpt lat="43.1404" lon="-0.05731">
        <ele>557.4</ele>
        <time>2020-09-12T21:38:37Z</time>
      </trkpt>
      <trkpt lat="43.14045" lon="-0.05732">
        <ele>557.4</ele>
        <time>2020-09-12T21:38:38Z</time>
      </trkpt>
      <trkpt lat="43.14051" lon="-0.05733">
        <ele>557.4</ele>
        <time>2020-09-12T21:38:39Z</time>
      </trkpt>
      <trkpt lat="43.14057" lon="-0.05734">
        <ele>557.4</ele>
        <time>2020-09-12T21:38:40Z</time>
      </trkpt>
      <trkpt lat="43.14063" lon="-0.05735">
        <ele>557.4</ele>
        <time>2020-09-12T21:38:41Z</time>
      </trkpt>
      <trkpt lat="43.14068" lon="-0.05737">
        <ele>557.4</ele>
        <time>2020-09-12T21:38:42Z</time>
      </trkpt>
      <trkpt lat="43.14073" lon="-0.05738">
        <ele>557.4</ele>
        <time>2020-09-12T21:38:43Z</time>
      </trkpt>
      <trkpt lat="43.14079" lon="-0.0574">
        <ele>557.4</ele>
        <time>2020-09-12T21:38:44Z</time>
      </trkpt>
      <trkpt lat="43.14084" lon="-0.05741">
        <ele>557.4</ele>
        <time>2020-09-12T21:38:45Z</time>
      </trkpt>
      <trkpt lat="43.14089" lon="-0.05742">
        <ele>557.5</ele>
        <time>2020-09-12T21:38:46Z</time>
      </trkpt>
      <trkpt lat="43.14095" lon="-0.05744">
        <ele>557.5</ele>
        <time>2020-09-12T21:38:47Z</time>
      </trkpt>
      <trkpt lat="43.141" lon="-0.05745">
        <ele>557.5</ele>
        <time>2020-09-12T21:38:48Z</time>
      </trkpt>
      <trkpt lat="43.14105" lon="-0.05747">
        <ele>557.5</ele>
        <time>2020-09-12T21:38:49Z</time>
      </trkpt>
      <trkpt lat="43.1411" lon="-0.05748">
        <ele>557.5</ele>
        <time>2020-09-12T21:38:50Z</time>
      </trkpt>
      <trkpt lat="43.14116" lon="-0.0575">
        <ele>557.5</ele>
        <time>2020-09-12T21:38:51Z</time>
      </trkpt>
      <trkpt lat="43.14121" lon="-0.05752">
        <ele>557.5</ele>
        <time>2020-09-12T21:38:52Z</time>
      </trkpt>
      <trkpt lat="43.14125" lon="-0.05754">
        <ele>557.5</ele>
        <time>2020-09-12T21:38:53Z</time>
      </trkpt>
      <trkpt lat="43.14131" lon="-0.05755">
        <ele>557.5</ele>
        <time>2020-09-12T21:38:54Z</time>
      </trkpt>
      <trkpt lat="43.14136" lon="-0.05756">
        <ele>557.5</ele>
        <time>2020-09-12T21:38:55Z</time>
      </trkpt>
      <trkpt lat="43.14141" lon="-0.05757">
        <ele>557.5</ele>
        <time>2020-09-12T21:38:56Z</time>
      </trkpt>
      <trkpt lat="43.14146" lon="-0.05758">
        <ele>557.5</ele>
        <time>2020-09-12T21:38:57Z</time>
      </trkpt>
      <trkpt lat="43.14151" lon="-0.05759">
        <ele>557.4</ele>
        <time>2020-09-12T21:38:58Z</time>
      </trkpt>
      <trkpt lat="43.14155" lon="-0.05761">
        <ele>557.4</ele>
        <time>2020-09-12T21:38:59Z</time>
      </trkpt>
      <trkpt lat="43.1416" lon="-0.05764">
        <ele>557.3</ele>
        <time>2020-09-12T21:39:00Z</time>
      </trkpt>
      <trkpt lat="43.14165" lon="-0.05766">
        <ele>557.3</ele>
        <time>2020-09-12T21:39:01Z</time>
      </trkpt>
      <trkpt lat="43.14171" lon="-0.05768">
        <ele>557.2</ele>
        <time>2020-09-12T21:39:02Z</time>
      </trkpt>
      <trkpt lat="43.14176" lon="-0.05771">
        <ele>557.2</ele>
        <time>2020-09-12T21:39:03Z</time>
      </trkpt>
      <trkpt lat="43.14181" lon="-0.05773">
        <ele>557.1</ele>
        <time>2020-09-12T21:39:04Z</time>
      </trkpt>
      <trkpt lat="43.14187" lon="-0.05775">
        <ele>557</ele>
        <time>2020-09-12T21:39:05Z</time>
      </trkpt>
      <trkpt lat="43.14193" lon="-0.05778">
        <ele>556.8</ele>
        <time>2020-09-12T21:39:06Z</time>
      </trkpt>
      <trkpt lat="43.14199" lon="-0.0578">
        <ele>556.7</ele>
        <time>2020-09-12T21:39:07Z</time>
      </trkpt>
      <trkpt lat="43.14205" lon="-0.05783">
        <ele>556.5</ele>
        <time>2020-09-12T21:39:08Z</time>
      </trkpt>
      <trkpt lat="43.14212" lon="-0.05786">
        <ele>556.3</ele>
        <time>2020-09-12T21:39:09Z</time>
      </trkpt>
      <trkpt lat="43.14218" lon="-0.05788">
        <ele>556.1</ele>
        <time>2020-09-12T21:39:10Z</time>
      </trkpt>
      <trkpt lat="43.14225" lon="-0.05791">
        <ele>555.9</ele>
        <time>2020-09-12T21:39:11Z</time>
      </trkpt>
      <trkpt lat="43.14231" lon="-0.05794">
        <ele>555.8</ele>
        <time>2020-09-12T21:39:12Z</time>
      </trkpt>
      <trkpt lat="43.14238" lon="-0.05796">
        <ele>555.6</ele>
        <time>2020-09-12T21:39:13Z</time>
      </trkpt>
      <trkpt lat="43.14245" lon="-0.05799">
        <ele>555.5</ele>
        <time>2020-09-12T21:39:14Z</time>
      </trkpt>
      <trkpt lat="43.14251" lon="-0.05802">
        <ele>555.4</ele>
        <time>2020-09-12T21:39:15Z</time>
      </trkpt>
      <trkpt lat="43.14257" lon="-0.05804">
        <ele>555.3</ele>
        <time>2020-09-12T21:39:16Z</time>
      </trkpt>
      <trkpt lat="43.14263" lon="-0.05806">
        <ele>555.2</ele>
        <time>2020-09-12T21:39:17Z</time>
      </trkpt>
      <trkpt lat="43.14269" lon="-0.05809">
        <ele>555.1</ele>
        <time>2020-09-12T21:39:18Z</time>
      </trkpt>
      <trkpt lat="43.14275" lon="-0.05812">
        <ele>555.1</ele>
        <time>2020-09-12T21:39:19Z</time>
      </trkpt>
      <trkpt lat="43.14281" lon="-0.05814">
        <ele>555.1</ele>
        <time>2020-09-12T21:39:20Z</time>
      </trkpt>
      <trkpt lat="43.14287" lon="-0.05817">
        <ele>555</ele>
        <time>2020-09-12T21:39:21Z</time>
      </trkpt>
      <trkpt lat="43.14293" lon="-0.05819">
        <ele>555</ele>
        <time>2020-09-12T21:39:22Z</time>
      </trkpt>
      <trkpt lat="43.14298" lon="-0.0582">
        <ele>555</ele>
        <time>2020-09-12T21:39:23Z</time>
      </trkpt>
      <trkpt lat="43.14304" lon="-0.05821">
        <ele>555</ele>
        <time>2020-09-12T21:39:24Z</time>
      </trkpt>
      <trkpt lat="43.1431" lon="-0.05822">
        <ele>555</ele>
        <time>2020-09-12T21:39:25Z</time>
      </trkpt>
      <trkpt lat="43.14315" lon="-0.05824">
        <ele>555</ele>
        <time>2020-09-12T21:39:26Z</time>
      </trkpt>
      <trkpt lat="43.14321" lon="-0.05824">
        <ele>555</ele>
        <time>2020-09-12T21:39:27Z</time>
      </trkpt>
      <trkpt lat="43.14327" lon="-0.05822">
        <ele>555</ele>
        <time>2020-09-12T21:39:28Z</time>
      </trkpt>
      <trkpt lat="43.14332" lon="-0.05818">
        <ele>555</ele>
        <time>2020-09-12T21:39:29Z</time>
      </trkpt>
      <trkpt lat="43.14338" lon="-0.05815">
        <ele>555</ele>
        <time>2020-09-12T21:39:30Z</time>
      </trkpt>
      <trkpt lat="43.14344" lon="-0.05813">
        <ele>555</ele>
        <time>2020-09-12T21:39:31Z</time>
      </trkpt>
      <trkpt lat="43.1435" lon="-0.0581">
        <ele>554.9</ele>
        <time>2020-09-12T21:39:32Z</time>
      </trkpt>
      <trkpt lat="43.14355" lon="-0.05807">
        <ele>554.9</ele>
        <time>2020-09-12T21:39:33Z</time>
      </trkpt>
      <trkpt lat="43.14361" lon="-0.05803">
        <ele>554.9</ele>
        <time>2020-09-12T21:39:34Z</time>
      </trkpt>
      <trkpt lat="43.14367" lon="-0.058">
        <ele>554.8</ele>
        <time>2020-09-12T21:39:35Z</time>
      </trkpt>
      <trkpt lat="43.14372" lon="-0.05798">
        <ele>554.7</ele>
        <time>2020-09-12T21:39:36Z</time>
      </trkpt>
      <trkpt lat="43.14378" lon="-0.05796">
        <ele>554.6</ele>
        <time>2020-09-12T21:39:37Z</time>
      </trkpt>
      <trkpt lat="43.14384" lon="-0.05794">
        <ele>554.6</ele>
        <time>2020-09-12T21:39:38Z</time>
      </trkpt>
      <trkpt lat="43.1439" lon="-0.05792">
        <ele>554.4</ele>
        <time>2020-09-12T21:39:39Z</time>
      </trkpt>
      <trkpt lat="43.14396" lon="-0.0579">
        <ele>554.3</ele>
        <time>2020-09-12T21:39:40Z</time>
      </trkpt>
      <trkpt lat="43.14403" lon="-0.05788">
        <ele>554.1</ele>
        <time>2020-09-12T21:39:41Z</time>
      </trkpt>
      <trkpt lat="43.14409" lon="-0.05785">
        <ele>553.9</ele>
        <time>2020-09-12T21:39:42Z</time>
      </trkpt>
      <trkpt lat="43.14416" lon="-0.05783">
        <ele>553.7</ele>
        <time>2020-09-12T21:39:43Z</time>
      </trkpt>
      <trkpt lat="43.14423" lon="-0.05782">
        <ele>553.4</ele>
        <time>2020-09-12T21:39:44Z</time>
      </trkpt>
      <trkpt lat="43.14429" lon="-0.05782">
        <ele>553.2</ele>
        <time>2020-09-12T21:39:45Z</time>
      </trkpt>
      <trkpt lat="43.14436" lon="-0.05782">
        <ele>552.8</ele>
        <time>2020-09-12T21:39:46Z</time>
      </trkpt>
      <trkpt lat="43.14444" lon="-0.05784">
        <ele>552.5</ele>
        <time>2020-09-12T21:39:47Z</time>
      </trkpt>
      <trkpt lat="43.14451" lon="-0.05786">
        <ele>552.1</ele>
        <time>2020-09-12T21:39:48Z</time>
      </trkpt>
      <trkpt lat="43.14459" lon="-0.05789">
        <ele>551.7</ele>
        <time>2020-09-12T21:39:49Z</time>
      </trkpt>
      <trkpt lat="43.14466" lon="-0.05793">
        <ele>551.3</ele>
        <time>2020-09-12T21:39:50Z</time>
      </trkpt>
      <trkpt lat="43.14473" lon="-0.05797">
        <ele>550.9</ele>
        <time>2020-09-12T21:39:51Z</time>
      </trkpt>
      <trkpt lat="43.1448" lon="-0.05803">
        <ele>550.5</ele>
        <time>2020-09-12T21:39:52Z</time>
      </trkpt>
      <trkpt lat="43.14487" lon="-0.05807">
        <ele>550</ele>
        <time>2020-09-12T21:39:53Z</time>
      </trkpt>
      <trkpt lat="43.14495" lon="-0.05811">
        <ele>549.6</ele>
        <time>2020-09-12T21:39:54Z</time>
      </trkpt>
      <trkpt lat="43.14502" lon="-0.05817">
        <ele>549.1</ele>
        <time>2020-09-12T21:39:55Z</time>
      </trkpt>
      <trkpt lat="43.14509" lon="-0.05822">
        <ele>548.7</ele>
        <time>2020-09-12T21:39:56Z</time>
      </trkpt>
      <trkpt lat="43.14517" lon="-0.05825">
        <ele>548.3</ele>
        <time>2020-09-12T21:39:57Z</time>
      </trkpt>
      <trkpt lat="43.14525" lon="-0.05828">
        <ele>547.8</ele>
        <time>2020-09-12T21:39:58Z</time>
      </trkpt>
      <trkpt lat="43.14532" lon="-0.05833">
        <ele>547.3</ele>
        <time>2020-09-12T21:39:59Z</time>
      </trkpt>
      <trkpt lat="43.1454" lon="-0.05837">
        <ele>546.9</ele>
        <time>2020-09-12T21:40:00Z</time>
      </trkpt>
      <trkpt lat="43.14548" lon="-0.05841">
        <ele>546.5</ele>
        <time>2020-09-12T21:40:01Z</time>
      </trkpt>
      <trkpt lat="43.14557" lon="-0.05845">
        <ele>546.1</ele>
        <time>2020-09-12T21:40:02Z</time>
      </trkpt>
      <trkpt lat="43.14564" lon="-0.05851">
        <ele>545.8</ele>
        <time>2020-09-12T21:40:03Z</time>
      </trkpt>
      <trkpt lat="43.1457" lon="-0.05853">
        <ele>545.5</ele>
        <time>2020-09-12T21:40:04Z</time>
      </trkpt>
      <trkpt lat="43.14575" lon="-0.05854">
        <ele>545.2</ele>
        <time>2020-09-12T21:40:05Z</time>
      </trkpt>
      <trkpt lat="43.14578" lon="-0.05854">
        <ele>544.8</ele>
        <time>2020-09-12T21:40:06Z</time>
      </trkpt>
      <trkpt lat="43.14581" lon="-0.05854">
        <ele>544.4</ele>
        <time>2020-09-12T21:40:07Z</time>
      </trkpt>
      <trkpt lat="43.14584" lon="-0.05852">
        <ele>544.1</ele>
        <time>2020-09-12T21:40:08Z</time>
      </trkpt>
      <trkpt lat="43.14585" lon="-0.05849">
        <ele>543.4</ele>
        <time>2020-09-12T21:40:09Z</time>
      </trkpt>
      <trkpt lat="43.14587" lon="-0.05846">
        <ele>543.1</ele>
        <time>2020-09-12T21:40:10Z</time>
      </trkpt>
      <trkpt lat="43.14589" lon="-0.05843">
        <ele>542.8</ele>
        <time>2020-09-12T21:40:11Z</time>
      </trkpt>
      <trkpt lat="43.14591" lon="-0.05839">
        <ele>542.1</ele>
        <time>2020-09-12T21:40:12Z</time>
      </trkpt>
      <trkpt lat="43.14593" lon="-0.05835">
        <ele>541.9</ele>
        <time>2020-09-12T21:40:13Z</time>
      </trkpt>
      <trkpt lat="43.14594" lon="-0.05832">
        <ele>541.4</ele>
        <time>2020-09-12T21:40:14Z</time>
      </trkpt>
      <trkpt lat="43.14595" lon="-0.05828">
        <ele>541.2</ele>
        <time>2020-09-12T21:40:15Z</time>
      </trkpt>
      <trkpt lat="43.14596" lon="-0.05824">
        <ele>541.1</ele>
        <time>2020-09-12T21:40:16Z</time>
      </trkpt>
      <trkpt lat="43.14597" lon="-0.0582">
        <ele>540.9</ele>
        <time>2020-09-12T21:40:17Z</time>
      </trkpt>
      <trkpt lat="43.14598" lon="-0.05816">
        <ele>540.8</ele>
        <time>2020-09-12T21:40:18Z</time>
      </trkpt>
      <trkpt lat="43.146" lon="-0.05813">
        <ele>540.6</ele>
        <time>2020-09-12T21:40:21Z</time>
      </trkpt>
      <trkpt lat="43.14603" lon="-0.05814">
        <ele>540.4</ele>
        <time>2020-09-12T21:40:23Z</time>
      </trkpt>
      <trkpt lat="43.14605" lon="-0.05818">
        <ele>540.4</ele>
        <time>2020-09-12T21:40:25Z</time>
      </trkpt>
      <trkpt lat="43.14607" lon="-0.05821">
        <ele>540.3</ele>
        <time>2020-09-12T21:40:28Z</time>
      </trkpt>
      <trkpt lat="43.14611" lon="-0.05821">
        <ele>540</ele>
        <time>2020-09-12T21:40:30Z</time>
      </trkpt>
      <trkpt lat="43.14615" lon="-0.05821">
        <ele>539.5</ele>
        <time>2020-09-12T21:40:32Z</time>
      </trkpt>
      <trkpt lat="43.14618" lon="-0.0582">
        <ele>539.5</ele>
        <time>2020-09-12T21:40:33Z</time>
      </trkpt>
      <trkpt lat="43.14621" lon="-0.05822">
        <ele>539.3</ele>
        <time>2020-09-12T21:40:34Z</time>
      </trkpt>
      <trkpt lat="43.14623" lon="-0.05825">
        <ele>539.1</ele>
        <time>2020-09-12T21:40:35Z</time>
      </trkpt>
      <trkpt lat="43.14626" lon="-0.05826">
        <ele>538.9</ele>
        <time>2020-09-12T21:40:36Z</time>
      </trkpt>
      <trkpt lat="43.14629" lon="-0.05827">
        <ele>538.7</ele>
        <time>2020-09-12T21:40:37Z</time>
      </trkpt>
      <trkpt lat="43.14632" lon="-0.0583">
        <ele>538.5</ele>
        <time>2020-09-12T21:40:38Z</time>
      </trkpt>
      <trkpt lat="43.14636" lon="-0.05832">
        <ele>538.3</ele>
        <time>2020-09-12T21:40:40Z</time>
      </trkpt>
      <trkpt lat="43.14639" lon="-0.05834">
        <ele>538.1</ele>
        <time>2020-09-12T21:40:41Z</time>
      </trkpt>
      <trkpt lat="43.14641" lon="-0.05835">
        <ele>537.9</ele>
        <time>2020-09-12T21:40:42Z</time>
      </trkpt>
      <trkpt lat="43.14646" lon="-0.0584">
        <ele>537.8</ele>
        <time>2020-09-12T21:40:44Z</time>
      </trkpt>
      <trkpt lat="43.1465" lon="-0.05844">
        <ele>537.5</ele>
        <time>2020-09-12T21:40:46Z</time>
      </trkpt>
      <trkpt lat="43.14653" lon="-0.05848">
        <ele>537.5</ele>
        <time>2020-09-12T21:40:48Z</time>
      </trkpt>
      <trkpt lat="43.14655" lon="-0.0585">
        <ele>537.7</ele>
        <time>2020-09-12T21:40:49Z</time>
      </trkpt>
      <trkpt lat="43.14657" lon="-0.05853">
        <ele>537.6</ele>
        <time>2020-09-12T21:40:50Z</time>
      </trkpt>
      <trkpt lat="43.1466" lon="-0.05856">
        <ele>537.6</ele>
        <time>2020-09-12T21:40:51Z</time>
      </trkpt>
      <trkpt lat="43.14663" lon="-0.0586">
        <ele>537.7</ele>
        <time>2020-09-12T21:40:52Z</time>
      </trkpt>
      <trkpt lat="43.14666" lon="-0.05862">
        <ele>537.6</ele>
        <time>2020-09-12T21:40:53Z</time>
      </trkpt>
      <trkpt lat="43.14668" lon="-0.05865">
        <ele>537.7</ele>
        <time>2020-09-12T21:40:54Z</time>
      </trkpt>
      <trkpt lat="43.14671" lon="-0.0587">
        <ele>537.8</ele>
        <time>2020-09-12T21:40:56Z</time>
      </trkpt>
      <trkpt lat="43.14673" lon="-0.05873">
        <ele>537.9</ele>
        <time>2020-09-12T21:40:57Z</time>
      </trkpt>
      <trkpt lat="43.14676" lon="-0.05875">
        <ele>538</ele>
        <time>2020-09-12T21:40:58Z</time>
      </trkpt>
      <trkpt lat="43.14678" lon="-0.05877">
        <ele>537.9</ele>
        <time>2020-09-12T21:40:59Z</time>
      </trkpt>
      <trkpt lat="43.14683" lon="-0.05878">
        <ele>537.9</ele>
        <time>2020-09-12T21:41:01Z</time>
      </trkpt>
      <trkpt lat="43.14688" lon="-0.05877">
        <ele>537.8</ele>
        <time>2020-09-12T21:41:03Z</time>
      </trkpt>
      <trkpt lat="43.1469" lon="-0.05876">
        <ele>537.7</ele>
        <time>2020-09-12T21:41:04Z</time>
      </trkpt>
      <trkpt lat="43.14693" lon="-0.05876">
        <ele>537.7</ele>
        <time>2020-09-12T21:41:05Z</time>
      </trkpt>
      <trkpt lat="43.14699" lon="-0.05877">
        <ele>537.6</ele>
        <time>2020-09-12T21:41:07Z</time>
      </trkpt>
      <trkpt lat="43.14704" lon="-0.05878">
        <ele>537.5</ele>
        <time>2020-09-12T21:41:09Z</time>
      </trkpt>
      <trkpt lat="43.14708" lon="-0.05878">
        <ele>537.5</ele>
        <time>2020-09-12T21:41:11Z</time>
      </trkpt>
      <trkpt lat="43.14711" lon="-0.05876">
        <ele>537.5</ele>
        <time>2020-09-12T21:41:13Z</time>
      </trkpt>
      <trkpt lat="43.14714" lon="-0.05877">
        <ele>537.4</ele>
        <time>2020-09-12T21:41:15Z</time>
      </trkpt>
      <trkpt lat="43.14717" lon="-0.05878">
        <ele>537.4</ele>
        <time>2020-09-12T21:41:17Z</time>
      </trkpt>
      <trkpt lat="43.1472" lon="-0.05879">
        <ele>537.4</ele>
        <time>2020-09-12T21:41:19Z</time>
      </trkpt>
      <trkpt lat="43.14723" lon="-0.05879">
        <ele>537.4</ele>
        <time>2020-09-12T21:41:22Z</time>
      </trkpt>
      <trkpt lat="43.14725" lon="-0.05874">
        <ele>537.1</ele>
        <time>2020-09-12T21:41:26Z</time>
      </trkpt>
      <trkpt lat="43.14728" lon="-0.05875">
        <ele>537.1</ele>
        <time>2020-09-12T21:41:29Z</time>
      </trkpt>
      <trkpt lat="43.14731" lon="-0.05874">
        <ele>537.1</ele>
        <time>2020-09-12T21:41:35Z</time>
      </trkpt>
      <trkpt lat="43.14734" lon="-0.05875">
        <ele>537.1</ele>
        <time>2020-09-12T21:41:37Z</time>
      </trkpt>
      <trkpt lat="43.14738" lon="-0.05875">
        <ele>537.2</ele>
        <time>2020-09-12T21:41:39Z</time>
      </trkpt>
      <trkpt lat="43.14743" lon="-0.05871">
        <ele>537.2</ele>
        <time>2020-09-12T21:41:41Z</time>
      </trkpt>
      <trkpt lat="43.14745" lon="-0.05869">
        <ele>537</ele>
        <time>2020-09-12T21:41:42Z</time>
      </trkpt>
      <trkpt lat="43.14748" lon="-0.0587">
        <ele>537.1</ele>
        <time>2020-09-12T21:41:46Z</time>
      </trkpt>
      <trkpt lat="43.1475" lon="-0.05866">
        <ele>536.9</ele>
        <time>2020-09-12T21:41:47Z</time>
      </trkpt>
      <trkpt lat="43.14754" lon="-0.05863">
        <ele>537</ele>
        <time>2020-09-12T21:41:49Z</time>
      </trkpt>
      <trkpt lat="43.14757" lon="-0.05857">
        <ele>536.6</ele>
        <time>2020-09-12T21:41:51Z</time>
      </trkpt>
      <trkpt lat="43.14759" lon="-0.05852">
        <ele>536.4</ele>
        <time>2020-09-12T21:41:52Z</time>
      </trkpt>
      <trkpt lat="43.14761" lon="-0.05846">
        <ele>536.3</ele>
        <time>2020-09-12T21:41:53Z</time>
      </trkpt>
      <trkpt lat="43.14762" lon="-0.05842">
        <ele>536.1</ele>
        <time>2020-09-12T21:41:54Z</time>
      </trkpt>
      <trkpt lat="43.14764" lon="-0.05837">
        <ele>535.9</ele>
        <time>2020-09-12T21:41:55Z</time>
      </trkpt>
      <trkpt lat="43.14766" lon="-0.05834">
        <ele>535.8</ele>
        <time>2020-09-12T21:41:56Z</time>
      </trkpt>
      <trkpt lat="43.14767" lon="-0.05829">
        <ele>535.5</ele>
        <time>2020-09-12T21:41:57Z</time>
      </trkpt>
      <trkpt lat="43.14769" lon="-0.05823">
        <ele>535.2</ele>
        <time>2020-09-12T21:41:58Z</time>
      </trkpt>
      <trkpt lat="43.14771" lon="-0.05816">
        <ele>535</ele>
        <time>2020-09-12T21:41:59Z</time>
      </trkpt>
      <trkpt lat="43.14773" lon="-0.05809">
        <ele>534.6</ele>
        <time>2020-09-12T21:42:00Z</time>
      </trkpt>
      <trkpt lat="43.14776" lon="-0.05802">
        <ele>534.5</ele>
        <time>2020-09-12T21:42:01Z</time>
      </trkpt>
      <trkpt lat="43.14778" lon="-0.05798">
        <ele>534.5</ele>
        <time>2020-09-12T21:42:02Z</time>
      </trkpt>
      <trkpt lat="43.14783" lon="-0.05796">
        <ele>534.4</ele>
        <time>2020-09-12T21:42:03Z</time>
      </trkpt>
      <trkpt lat="43.14788" lon="-0.05795">
        <ele>534.8</ele>
        <time>2020-09-12T21:42:04Z</time>
      </trkpt>
      <trkpt lat="43.14793" lon="-0.05794">
        <ele>535</ele>
        <time>2020-09-12T21:42:05Z</time>
      </trkpt>
      <trkpt lat="43.14797" lon="-0.05794">
        <ele>535.3</ele>
        <time>2020-09-12T21:42:06Z</time>
      </trkpt>
      <trkpt lat="43.148" lon="-0.05792">
        <ele>535.1</ele>
        <time>2020-09-12T21:42:07Z</time>
      </trkpt>
      <trkpt lat="43.14804" lon="-0.05791">
        <ele>535.2</ele>
        <time>2020-09-12T21:42:08Z</time>
      </trkpt>
      <trkpt lat="43.14807" lon="-0.05791">
        <ele>535.3</ele>
        <time>2020-09-12T21:42:09Z</time>
      </trkpt>
      <trkpt lat="43.14811" lon="-0.05792">
        <ele>535.4</ele>
        <time>2020-09-12T21:42:10Z</time>
      </trkpt>
      <trkpt lat="43.14814" lon="-0.05791">
        <ele>535.5</ele>
        <time>2020-09-12T21:42:11Z</time>
      </trkpt>
      <trkpt lat="43.14817" lon="-0.0579">
        <ele>535.5</ele>
        <time>2020-09-12T21:42:12Z</time>
      </trkpt>
      <trkpt lat="43.14821" lon="-0.05791">
        <ele>535.5</ele>
        <time>2020-09-12T21:42:13Z</time>
      </trkpt>
      <trkpt lat="43.14824" lon="-0.05791">
        <ele>535.5</ele>
        <time>2020-09-12T21:42:14Z</time>
      </trkpt>
      <trkpt lat="43.14827" lon="-0.05792">
        <ele>535.5</ele>
        <time>2020-09-12T21:42:15Z</time>
      </trkpt>
      <trkpt lat="43.14832" lon="-0.05793">
        <ele>535.5</ele>
        <time>2020-09-12T21:42:17Z</time>
      </trkpt>
      <trkpt lat="43.14838" lon="-0.0579">
        <ele>535.4</ele>
        <time>2020-09-12T21:42:19Z</time>
      </trkpt>
      <trkpt lat="43.1484" lon="-0.05787">
        <ele>535.2</ele>
        <time>2020-09-12T21:42:20Z</time>
      </trkpt>
      <trkpt lat="43.14843" lon="-0.05784">
        <ele>535</ele>
        <time>2020-09-12T21:42:21Z</time>
      </trkpt>
      <trkpt lat="43.14846" lon="-0.05779">
        <ele>534.8</ele>
        <time>2020-09-12T21:42:23Z</time>
      </trkpt>
      <trkpt lat="43.14848" lon="-0.05774">
        <ele>534.5</ele>
        <time>2020-09-12T21:42:25Z</time>
      </trkpt>
      <trkpt lat="43.14848" lon="-0.0577">
        <ele>534.4</ele>
        <time>2020-09-12T21:42:30Z</time>
      </trkpt>
      <trkpt lat="43.14849" lon="-0.05764">
        <ele>534.2</ele>
        <time>2020-09-12T21:42:32Z</time>
      </trkpt>
      <trkpt lat="43.14851" lon="-0.05759">
        <ele>533.8</ele>
        <time>2020-09-12T21:42:42Z</time>
      </trkpt>
      <trkpt lat="43.14851" lon="-0.05754">
        <ele>533.7</ele>
        <time>2020-09-12T21:42:44Z</time>
      </trkpt>
      <trkpt lat="43.14852" lon="-0.05749">
        <ele>533.5</ele>
        <time>2020-09-12T21:42:46Z</time>
      </trkpt>
      <trkpt lat="43.14852" lon="-0.05743">
        <ele>533.3</ele>
        <time>2020-09-12T21:42:48Z</time>
      </trkpt>
      <trkpt lat="43.14852" lon="-0.05739">
        <ele>533.1</ele>
        <time>2020-09-12T21:42:50Z</time>
      </trkpt>
      <trkpt lat="43.14853" lon="-0.05734">
        <ele>533.1</ele>
        <time>2020-09-12T21:42:54Z</time>
      </trkpt>
      <trkpt lat="43.14856" lon="-0.05731">
        <ele>532.9</ele>
        <time>2020-09-12T21:42:56Z</time>
      </trkpt>
      <trkpt lat="43.14857" lon="-0.05727">
        <ele>532.9</ele>
        <time>2020-09-12T21:42:57Z</time>
      </trkpt>
      <trkpt lat="43.14859" lon="-0.05724">
        <ele>532.7</ele>
        <time>2020-09-12T21:42:59Z</time>
      </trkpt>
      <trkpt lat="43.14859" lon="-0.05718">
        <ele>532.6</ele>
        <time>2020-09-12T21:43:01Z</time>
      </trkpt>
      <trkpt lat="43.1486" lon="-0.05714">
        <ele>532.6</ele>
        <time>2020-09-12T21:43:03Z</time>
      </trkpt>
      <trkpt lat="43.14863" lon="-0.0571">
        <ele>532.6</ele>
        <time>2020-09-12T21:43:05Z</time>
      </trkpt>
      <trkpt lat="43.14864" lon="-0.05706">
        <ele>532.5</ele>
        <time>2020-09-12T21:43:07Z</time>
      </trkpt>
      <trkpt lat="43.14864" lon="-0.05702">
        <ele>532.4</ele>
        <time>2020-09-12T21:43:09Z</time>
      </trkpt>
      <trkpt lat="43.14864" lon="-0.05696">
        <ele>532.3</ele>
        <time>2020-09-12T21:43:12Z</time>
      </trkpt>
      <trkpt lat="43.14863" lon="-0.05692">
        <ele>532.2</ele>
        <time>2020-09-12T21:43:13Z</time>
      </trkpt>
      <trkpt lat="43.14862" lon="-0.05688">
        <ele>532</ele>
        <time>2020-09-12T21:43:14Z</time>
      </trkpt>
      <trkpt lat="43.14861" lon="-0.05685">
        <ele>531.9</ele>
        <time>2020-09-12T21:43:15Z</time>
      </trkpt>
      <trkpt lat="43.1486" lon="-0.0568">
        <ele>531.8</ele>
        <time>2020-09-12T21:43:16Z</time>
      </trkpt>
      <trkpt lat="43.14858" lon="-0.05676">
        <ele>531.5</ele>
        <time>2020-09-12T21:43:17Z</time>
      </trkpt>
      <trkpt lat="43.14857" lon="-0.05672">
        <ele>531.5</ele>
        <time>2020-09-12T21:43:18Z</time>
      </trkpt>
      <trkpt lat="43.14856" lon="-0.05668">
        <ele>531.1</ele>
        <time>2020-09-12T21:43:19Z</time>
      </trkpt>
      <trkpt lat="43.14855" lon="-0.05665">
        <ele>531.1</ele>
        <time>2020-09-12T21:43:20Z</time>
      </trkpt>
      <trkpt lat="43.14854" lon="-0.05661">
        <ele>531.1</ele>
        <time>2020-09-12T21:43:21Z</time>
      </trkpt>
      <trkpt lat="43.14851" lon="-0.05654">
        <ele>530.7</ele>
        <time>2020-09-12T21:43:23Z</time>
      </trkpt>
      <trkpt lat="43.1485" lon="-0.0565">
        <ele>530.7</ele>
        <time>2020-09-12T21:43:24Z</time>
      </trkpt>
      <trkpt lat="43.14849" lon="-0.05646">
        <ele>530.4</ele>
        <time>2020-09-12T21:43:25Z</time>
      </trkpt>
      <trkpt lat="43.14847" lon="-0.05642">
        <ele>530.4</ele>
        <time>2020-09-12T21:43:26Z</time>
      </trkpt>
      <trkpt lat="43.14846" lon="-0.05638">
        <ele>530.2</ele>
        <time>2020-09-12T21:43:27Z</time>
      </trkpt>
      <trkpt lat="43.14844" lon="-0.05635">
        <ele>529.9</ele>
        <time>2020-09-12T21:43:28Z</time>
      </trkpt>
      <trkpt lat="43.14841" lon="-0.0563">
        <ele>529.9</ele>
        <time>2020-09-12T21:43:30Z</time>
      </trkpt>
      <trkpt lat="43.14838" lon="-0.05623">
        <ele>529.6</ele>
        <time>2020-09-12T21:43:32Z</time>
      </trkpt>
      <trkpt lat="43.14837" lon="-0.05619">
        <ele>529.3</ele>
        <time>2020-09-12T21:43:33Z</time>
      </trkpt>
      <trkpt lat="43.14835" lon="-0.05616">
        <ele>529.3</ele>
        <time>2020-09-12T21:43:34Z</time>
      </trkpt>
      <trkpt lat="43.14834" lon="-0.05612">
        <ele>529</ele>
        <time>2020-09-12T21:43:35Z</time>
      </trkpt>
      <trkpt lat="43.14832" lon="-0.05608">
        <ele>529.1</ele>
        <time>2020-09-12T21:43:36Z</time>
      </trkpt>
      <trkpt lat="43.1483" lon="-0.05606">
        <ele>528.7</ele>
        <time>2020-09-12T21:43:37Z</time>
      </trkpt>
      <trkpt lat="43.14826" lon="-0.056">
        <ele>528.6</ele>
        <time>2020-09-12T21:43:39Z</time>
      </trkpt>
      <trkpt lat="43.14824" lon="-0.05597">
        <ele>528.2</ele>
        <time>2020-09-12T21:43:40Z</time>
      </trkpt>
      <trkpt lat="43.14821" lon="-0.05596">
        <ele>528</ele>
        <time>2020-09-12T21:43:41Z</time>
      </trkpt>
      <trkpt lat="43.14818" lon="-0.05594">
        <ele>527.6</ele>
        <time>2020-09-12T21:43:42Z</time>
      </trkpt>
      <trkpt lat="43.14816" lon="-0.05589">
        <ele>527.7</ele>
        <time>2020-09-12T21:43:44Z</time>
      </trkpt>
      <trkpt lat="43.14814" lon="-0.05585">
        <ele>527.4</ele>
        <time>2020-09-12T21:43:45Z</time>
      </trkpt>
      <trkpt lat="43.14814" lon="-0.05581">
        <ele>527.5</ele>
        <time>2020-09-12T21:43:46Z</time>
      </trkpt>
      <trkpt lat="43.14815" lon="-0.05577">
        <ele>527.6</ele>
        <time>2020-09-12T21:43:47Z</time>
      </trkpt>
      <trkpt lat="43.14814" lon="-0.05573">
        <ele>527.7</ele>
        <time>2020-09-12T21:43:48Z</time>
      </trkpt>
      <trkpt lat="43.14813" lon="-0.05565">
        <ele>527.9</ele>
        <time>2020-09-12T21:43:50Z</time>
      </trkpt>
      <trkpt lat="43.14813" lon="-0.05561">
        <ele>528</ele>
        <time>2020-09-12T21:43:51Z</time>
      </trkpt>
      <trkpt lat="43.14812" lon="-0.05555">
        <ele>527.7</ele>
        <time>2020-09-12T21:43:53Z</time>
      </trkpt>
      <trkpt lat="43.14811" lon="-0.05548">
        <ele>527.9</ele>
        <time>2020-09-12T21:43:55Z</time>
      </trkpt>
      <trkpt lat="43.14809" lon="-0.05543">
        <ele>528.1</ele>
        <time>2020-09-12T21:43:56Z</time>
      </trkpt>
      <trkpt lat="43.14807" lon="-0.05539">
        <ele>527.7</ele>
        <time>2020-09-12T21:43:57Z</time>
      </trkpt>
      <trkpt lat="43.14804" lon="-0.05538">
        <ele>527.3</ele>
        <time>2020-09-12T21:43:59Z</time>
      </trkpt>
      <trkpt lat="43.14802" lon="-0.0554">
        <ele>526.9</ele>
        <time>2020-09-12T21:44:01Z</time>
      </trkpt>
      <trkpt lat="43.14799" lon="-0.0554">
        <ele>526.4</ele>
        <time>2020-09-12T21:44:03Z</time>
      </trkpt>
      <trkpt lat="43.14796" lon="-0.05535">
        <ele>526.1</ele>
        <time>2020-09-12T21:44:05Z</time>
      </trkpt>
      <trkpt lat="43.14795" lon="-0.05532">
        <ele>526.3</ele>
        <time>2020-09-12T21:44:06Z</time>
      </trkpt>
      <trkpt lat="43.14792" lon="-0.05527">
        <ele>525.9</ele>
        <time>2020-09-12T21:44:08Z</time>
      </trkpt>
      <trkpt lat="43.14789" lon="-0.05522">
        <ele>525.6</ele>
        <time>2020-09-12T21:44:10Z</time>
      </trkpt>
      <trkpt lat="43.14786" lon="-0.05516">
        <ele>525.3</ele>
        <time>2020-09-12T21:44:12Z</time>
      </trkpt>
      <trkpt lat="43.14785" lon="-0.05511">
        <ele>525.4</ele>
        <time>2020-09-12T21:44:14Z</time>
      </trkpt>
      <trkpt lat="43.14787" lon="-0.05507">
        <ele>525.6</ele>
        <time>2020-09-12T21:44:16Z</time>
      </trkpt>
      <trkpt lat="43.14787" lon="-0.05503">
        <ele>525.6</ele>
        <time>2020-09-12T21:44:18Z</time>
      </trkpt>
      <trkpt lat="43.14785" lon="-0.055">
        <ele>525.7</ele>
        <time>2020-09-12T21:44:20Z</time>
      </trkpt>
      <trkpt lat="43.14783" lon="-0.05495">
        <ele>525.3</ele>
        <time>2020-09-12T21:44:21Z</time>
      </trkpt>
      <trkpt lat="43.14781" lon="-0.05491">
        <ele>525.3</ele>
        <time>2020-09-12T21:44:22Z</time>
      </trkpt>
      <trkpt lat="43.1478" lon="-0.05487">
        <ele>524.8</ele>
        <time>2020-09-12T21:44:23Z</time>
      </trkpt>
      <trkpt lat="43.14776" lon="-0.05482">
        <ele>524.3</ele>
        <time>2020-09-12T21:44:25Z</time>
      </trkpt>
      <trkpt lat="43.14773" lon="-0.05479">
        <ele>523.7</ele>
        <time>2020-09-12T21:44:27Z</time>
      </trkpt>
      <trkpt lat="43.14771" lon="-0.05472">
        <ele>523.1</ele>
        <time>2020-09-12T21:44:29Z</time>
      </trkpt>
      <trkpt lat="43.1477" lon="-0.05469">
        <ele>523</ele>
        <time>2020-09-12T21:44:30Z</time>
      </trkpt>
      <trkpt lat="43.14769" lon="-0.05464">
        <ele>522.8</ele>
        <time>2020-09-12T21:44:31Z</time>
      </trkpt>
      <trkpt lat="43.14768" lon="-0.05459">
        <ele>522.2</ele>
        <time>2020-09-12T21:44:32Z</time>
      </trkpt>
      <trkpt lat="43.14768" lon="-0.05454">
        <ele>521.8</ele>
        <time>2020-09-12T21:44:33Z</time>
      </trkpt>
      <trkpt lat="43.14767" lon="-0.05449">
        <ele>521.6</ele>
        <time>2020-09-12T21:44:34Z</time>
      </trkpt>
      <trkpt lat="43.14765" lon="-0.05445">
        <ele>520.8</ele>
        <time>2020-09-12T21:44:35Z</time>
      </trkpt>
      <trkpt lat="43.14763" lon="-0.05442">
        <ele>520.8</ele>
        <time>2020-09-12T21:44:36Z</time>
      </trkpt>
      <trkpt lat="43.1476" lon="-0.0544">
        <ele>520.1</ele>
        <time>2020-09-12T21:44:37Z</time>
      </trkpt>
      <trkpt lat="43.14758" lon="-0.05437">
        <ele>519.3</ele>
        <time>2020-09-12T21:44:38Z</time>
      </trkpt>
      <trkpt lat="43.14756" lon="-0.05434">
        <ele>518.8</ele>
        <time>2020-09-12T21:44:39Z</time>
      </trkpt>
      <trkpt lat="43.14754" lon="-0.05431">
        <ele>518.5</ele>
        <time>2020-09-12T21:44:40Z</time>
      </trkpt>
      <trkpt lat="43.14751" lon="-0.05426">
        <ele>517.6</ele>
        <time>2020-09-12T21:44:42Z</time>
      </trkpt>
      <trkpt lat="43.14749" lon="-0.0542">
        <ele>516.8</ele>
        <time>2020-09-12T21:44:44Z</time>
      </trkpt>
      <trkpt lat="43.14747" lon="-0.05414">
        <ele>516.1</ele>
        <time>2020-09-12T21:44:46Z</time>
      </trkpt>
      <trkpt lat="43.14745" lon="-0.05409">
        <ele>515.4</ele>
        <time>2020-09-12T21:44:48Z</time>
      </trkpt>
      <trkpt lat="43.14743" lon="-0.05404">
        <ele>514.6</ele>
        <time>2020-09-12T21:44:50Z</time>
      </trkpt>
      <trkpt lat="43.14741" lon="-0.054">
        <ele>514.3</ele>
        <time>2020-09-12T21:44:51Z</time>
      </trkpt>
      <trkpt lat="43.14739" lon="-0.05394">
        <ele>513.2</ele>
        <time>2020-09-12T21:44:53Z</time>
      </trkpt>
      <trkpt lat="43.14737" lon="-0.05389">
        <ele>512.5</ele>
        <time>2020-09-12T21:44:55Z</time>
      </trkpt>
      <trkpt lat="43.14734" lon="-0.05385">
        <ele>511.7</ele>
        <time>2020-09-12T21:44:57Z</time>
      </trkpt>
      <trkpt lat="43.14731" lon="-0.05382">
        <ele>511.7</ele>
        <time>2020-09-12T21:44:58Z</time>
      </trkpt>
      <trkpt lat="43.14728" lon="-0.05379">
        <ele>511</ele>
        <time>2020-09-12T21:45:00Z</time>
      </trkpt>
      <trkpt lat="43.14725" lon="-0.05374">
        <ele>509.6</ele>
        <time>2020-09-12T21:45:02Z</time>
      </trkpt>
      <trkpt lat="43.14723" lon="-0.05369">
        <ele>508.9</ele>
        <time>2020-09-12T21:45:04Z</time>
      </trkpt>
      <trkpt lat="43.1472" lon="-0.05369">
        <ele>508.8</ele>
        <time>2020-09-12T21:45:05Z</time>
      </trkpt>
      <trkpt lat="43.14713" lon="-0.05367">
        <ele>507.5</ele>
        <time>2020-09-12T21:45:07Z</time>
      </trkpt>
      <trkpt lat="43.1471" lon="-0.05364">
        <ele>506.7</ele>
        <time>2020-09-12T21:45:08Z</time>
      </trkpt>
      <trkpt lat="43.14706" lon="-0.05362">
        <ele>506.3</ele>
        <time>2020-09-12T21:45:09Z</time>
      </trkpt>
      <trkpt lat="43.14703" lon="-0.05358">
        <ele>505.5</ele>
        <time>2020-09-12T21:45:10Z</time>
      </trkpt>
      <trkpt lat="43.14702" lon="-0.05355">
        <ele>504.7</ele>
        <time>2020-09-12T21:45:11Z</time>
      </trkpt>
      <trkpt lat="43.14698" lon="-0.0535">
        <ele>503.9</ele>
        <time>2020-09-12T21:45:13Z</time>
      </trkpt>
      <trkpt lat="43.14697" lon="-0.05347">
        <ele>503.6</ele>
        <time>2020-09-12T21:45:14Z</time>
      </trkpt>
      <trkpt lat="43.14695" lon="-0.05343">
        <ele>503.1</ele>
        <time>2020-09-12T21:45:15Z</time>
      </trkpt>
      <trkpt lat="43.14691" lon="-0.05335">
        <ele>502</ele>
        <time>2020-09-12T21:45:16Z</time>
      </trkpt>
      <trkpt lat="43.14685" lon="-0.05329">
        <ele>500.8</ele>
        <time>2020-09-12T21:45:18Z</time>
      </trkpt>
      <trkpt lat="43.14681" lon="-0.05329">
        <ele>500.4</ele>
        <time>2020-09-12T21:45:19Z</time>
      </trkpt>
      <trkpt lat="43.14677" lon="-0.05328">
        <ele>499.7</ele>
        <time>2020-09-12T21:45:20Z</time>
      </trkpt>
      <trkpt lat="43.14672" lon="-0.05326">
        <ele>499.3</ele>
        <time>2020-09-12T21:45:21Z</time>
      </trkpt>
      <trkpt lat="43.14668" lon="-0.05324">
        <ele>498.6</ele>
        <time>2020-09-12T21:45:22Z</time>
      </trkpt>
      <trkpt lat="43.14665" lon="-0.05322">
        <ele>498.3</ele>
        <time>2020-09-12T21:45:23Z</time>
      </trkpt>
      <trkpt lat="43.14662" lon="-0.05319">
        <ele>498</ele>
        <time>2020-09-12T21:45:24Z</time>
      </trkpt>
      <trkpt lat="43.14656" lon="-0.05312">
        <ele>497.8</ele>
        <time>2020-09-12T21:45:26Z</time>
      </trkpt>
      <trkpt lat="43.14653" lon="-0.05308">
        <ele>497.6</ele>
        <time>2020-09-12T21:45:27Z</time>
      </trkpt>
      <trkpt lat="43.14651" lon="-0.05305">
        <ele>497.3</ele>
        <time>2020-09-12T21:45:28Z</time>
      </trkpt>
      <trkpt lat="43.14648" lon="-0.05301">
        <ele>497.1</ele>
        <time>2020-09-12T21:45:29Z</time>
      </trkpt>
      <trkpt lat="43.14645" lon="-0.05299">
        <ele>496.8</ele>
        <time>2020-09-12T21:45:30Z</time>
      </trkpt>
      <trkpt lat="43.14643" lon="-0.05295">
        <ele>496.4</ele>
        <time>2020-09-12T21:45:31Z</time>
      </trkpt>
      <trkpt lat="43.1464" lon="-0.05293">
        <ele>496</ele>
        <time>2020-09-12T21:45:32Z</time>
      </trkpt>
      <trkpt lat="43.14636" lon="-0.0529">
        <ele>495.6</ele>
        <time>2020-09-12T21:45:33Z</time>
      </trkpt>
      <trkpt lat="43.14631" lon="-0.05287">
        <ele>495.2</ele>
        <time>2020-09-12T21:45:34Z</time>
      </trkpt>
      <trkpt lat="43.14627" lon="-0.05285">
        <ele>494.5</ele>
        <time>2020-09-12T21:45:35Z</time>
      </trkpt>
      <trkpt lat="43.14622" lon="-0.05282">
        <ele>494.1</ele>
        <time>2020-09-12T21:45:36Z</time>
      </trkpt>
      <trkpt lat="43.14618" lon="-0.05279">
        <ele>493.4</ele>
        <time>2020-09-12T21:45:37Z</time>
      </trkpt>
      <trkpt lat="43.14615" lon="-0.05276">
        <ele>493.1</ele>
        <time>2020-09-12T21:45:38Z</time>
      </trkpt>
      <trkpt lat="43.14611" lon="-0.05273">
        <ele>492.7</ele>
        <time>2020-09-12T21:45:39Z</time>
      </trkpt>
      <trkpt lat="43.14608" lon="-0.0527">
        <ele>492.4</ele>
        <time>2020-09-12T21:45:40Z</time>
      </trkpt>
      <trkpt lat="43.14605" lon="-0.05267">
        <ele>492</ele>
        <time>2020-09-12T21:45:41Z</time>
      </trkpt>
      <trkpt lat="43.14602" lon="-0.05265">
        <ele>491.7</ele>
        <time>2020-09-12T21:45:42Z</time>
      </trkpt>
      <trkpt lat="43.14599" lon="-0.05262">
        <ele>491.3</ele>
        <time>2020-09-12T21:45:43Z</time>
      </trkpt>
      <trkpt lat="43.14596" lon="-0.05257">
        <ele>491.1</ele>
        <time>2020-09-12T21:45:45Z</time>
      </trkpt>
      <trkpt lat="43.14594" lon="-0.05255">
        <ele>491.1</ele>
        <time>2020-09-12T21:45:46Z</time>
      </trkpt>
      <trkpt lat="43.14592" lon="-0.05251">
        <ele>490.9</ele>
        <time>2020-09-12T21:45:47Z</time>
      </trkpt>
      <trkpt lat="43.14589" lon="-0.05248">
        <ele>490.5</ele>
        <time>2020-09-12T21:45:48Z</time>
      </trkpt>
      <trkpt lat="43.14587" lon="-0.05241">
        <ele>490.1</ele>
        <time>2020-09-12T21:45:50Z</time>
      </trkpt>
      <trkpt lat="43.14585" lon="-0.05237">
        <ele>490.2</ele>
        <time>2020-09-12T21:45:51Z</time>
      </trkpt>
      <trkpt lat="43.14583" lon="-0.05232">
        <ele>489.7</ele>
        <time>2020-09-12T21:45:52Z</time>
      </trkpt>
      <trkpt lat="43.14581" lon="-0.05229">
        <ele>489.7</ele>
        <time>2020-09-12T21:45:53Z</time>
      </trkpt>
      <trkpt lat="43.14579" lon="-0.05225">
        <ele>489.2</ele>
        <time>2020-09-12T21:45:54Z</time>
      </trkpt>
      <trkpt lat="43.14577" lon="-0.05221">
        <ele>488.8</ele>
        <time>2020-09-12T21:45:55Z</time>
      </trkpt>
      <trkpt lat="43.14575" lon="-0.05217">
        <ele>488.7</ele>
        <time>2020-09-12T21:45:56Z</time>
      </trkpt>
      <trkpt lat="43.14574" lon="-0.05214">
        <ele>488.3</ele>
        <time>2020-09-12T21:45:57Z</time>
      </trkpt>
      <trkpt lat="43.14572" lon="-0.0521">
        <ele>488.3</ele>
        <time>2020-09-12T21:45:58Z</time>
      </trkpt>
      <trkpt lat="43.1457" lon="-0.05207">
        <ele>487.8</ele>
        <time>2020-09-12T21:45:59Z</time>
      </trkpt>
      <trkpt lat="43.14569" lon="-0.05203">
        <ele>487.8</ele>
        <time>2020-09-12T21:46:00Z</time>
      </trkpt>
      <trkpt lat="43.14568" lon="-0.05197">
        <ele>487.2</ele>
        <time>2020-09-12T21:46:02Z</time>
      </trkpt>
      <trkpt lat="43.14567" lon="-0.05193">
        <ele>487.1</ele>
        <time>2020-09-12T21:46:03Z</time>
      </trkpt>
      <trkpt lat="43.14566" lon="-0.05189">
        <ele>487.1</ele>
        <time>2020-09-12T21:46:04Z</time>
      </trkpt>
      <trkpt lat="43.14565" lon="-0.05184">
        <ele>486.8</ele>
        <time>2020-09-12T21:46:05Z</time>
      </trkpt>
      <trkpt lat="43.14565" lon="-0.0518">
        <ele>486.6</ele>
        <time>2020-09-12T21:46:06Z</time>
      </trkpt>
      <trkpt lat="43.14564" lon="-0.05173">
        <ele>485.7</ele>
        <time>2020-09-12T21:46:08Z</time>
      </trkpt>
      <trkpt lat="43.14564" lon="-0.05169">
        <ele>485.5</ele>
        <time>2020-09-12T21:46:09Z</time>
      </trkpt>
      <trkpt lat="43.14564" lon="-0.05165">
        <ele>485.1</ele>
        <time>2020-09-12T21:46:10Z</time>
      </trkpt>
      <trkpt lat="43.14564" lon="-0.0516">
        <ele>484.8</ele>
        <time>2020-09-12T21:46:11Z</time>
      </trkpt>
      <trkpt lat="43.14564" lon="-0.05156">
        <ele>484.5</ele>
        <time>2020-09-12T21:46:12Z</time>
      </trkpt>
      <trkpt lat="43.14564" lon="-0.05151">
        <ele>484.2</ele>
        <time>2020-09-12T21:46:13Z</time>
      </trkpt>
      <trkpt lat="43.14565" lon="-0.05147">
        <ele>484.5</ele>
        <time>2020-09-12T21:46:14Z</time>
      </trkpt>
      <trkpt lat="43.14566" lon="-0.05142">
        <ele>484.2</ele>
        <time>2020-09-12T21:46:15Z</time>
      </trkpt>
      <trkpt lat="43.14567" lon="-0.05137">
        <ele>483.8</ele>
        <time>2020-09-12T21:46:16Z</time>
      </trkpt>
      <trkpt lat="43.14568" lon="-0.05133">
        <ele>483.5</ele>
        <time>2020-09-12T21:46:17Z</time>
      </trkpt>
      <trkpt lat="43.14568" lon="-0.05129">
        <ele>483.1</ele>
        <time>2020-09-12T21:46:18Z</time>
      </trkpt>
      <trkpt lat="43.14569" lon="-0.05125">
        <ele>483.3</ele>
        <time>2020-09-12T21:46:19Z</time>
      </trkpt>
      <trkpt lat="43.14569" lon="-0.0512">
        <ele>483</ele>
        <time>2020-09-12T21:46:20Z</time>
      </trkpt>
      <trkpt lat="43.14571" lon="-0.05115">
        <ele>482.2</ele>
        <time>2020-09-12T21:46:21Z</time>
      </trkpt>
      <trkpt lat="43.14572" lon="-0.0511">
        <ele>482.4</ele>
        <time>2020-09-12T21:46:22Z</time>
      </trkpt>
      <trkpt lat="43.14574" lon="-0.05105">
        <ele>482.1</ele>
        <time>2020-09-12T21:46:23Z</time>
      </trkpt>
      <trkpt lat="43.14575" lon="-0.05101">
        <ele>482.4</ele>
        <time>2020-09-12T21:46:24Z</time>
      </trkpt>
      <trkpt lat="43.14577" lon="-0.05097">
        <ele>482.1</ele>
        <time>2020-09-12T21:46:25Z</time>
      </trkpt>
      <trkpt lat="43.14578" lon="-0.05093">
        <ele>482.5</ele>
        <time>2020-09-12T21:46:26Z</time>
      </trkpt>
      <trkpt lat="43.14581" lon="-0.05088">
        <ele>482.8</ele>
        <time>2020-09-12T21:46:28Z</time>
      </trkpt>
      <trkpt lat="43.14583" lon="-0.05082">
        <ele>482.5</ele>
        <time>2020-09-12T21:46:30Z</time>
      </trkpt>
      <trkpt lat="43.14585" lon="-0.05076">
        <ele>482.5</ele>
        <time>2020-09-12T21:46:32Z</time>
      </trkpt>
      <trkpt lat="43.14589" lon="-0.05073">
        <ele>483.1</ele>
        <time>2020-09-12T21:46:34Z</time>
      </trkpt>
      <trkpt lat="43.14591" lon="-0.05071">
        <ele>483.3</ele>
        <time>2020-09-12T21:46:35Z</time>
      </trkpt>
      <trkpt lat="43.14593" lon="-0.05067">
        <ele>483.4</ele>
        <time>2020-09-12T21:46:36Z</time>
      </trkpt>
      <trkpt lat="43.14595" lon="-0.05062">
        <ele>483</ele>
        <time>2020-09-12T21:46:37Z</time>
      </trkpt>
      <trkpt lat="43.14597" lon="-0.05057">
        <ele>483.1</ele>
        <time>2020-09-12T21:46:38Z</time>
      </trkpt>
      <trkpt lat="43.14597" lon="-0.05053">
        <ele>482.8</ele>
        <time>2020-09-12T21:46:39Z</time>
      </trkpt>
      <trkpt lat="43.14597" lon="-0.05049">
        <ele>482.4</ele>
        <time>2020-09-12T21:46:40Z</time>
      </trkpt>
      <trkpt lat="43.14597" lon="-0.05044">
        <ele>482.1</ele>
        <time>2020-09-12T21:46:41Z</time>
      </trkpt>
      <trkpt lat="43.14597" lon="-0.0504">
        <ele>481.7</ele>
        <time>2020-09-12T21:46:42Z</time>
      </trkpt>
      <trkpt lat="43.14597" lon="-0.05035">
        <ele>481.4</ele>
        <time>2020-09-12T21:46:43Z</time>
      </trkpt>
      <trkpt lat="43.14596" lon="-0.05029">
        <ele>480.6</ele>
        <time>2020-09-12T21:46:44Z</time>
      </trkpt>
      <trkpt lat="43.14596" lon="-0.05024">
        <ele>479.9</ele>
        <time>2020-09-12T21:46:45Z</time>
      </trkpt>
      <trkpt lat="43.14595" lon="-0.0502">
        <ele>479.5</ele>
        <time>2020-09-12T21:46:46Z</time>
      </trkpt>
      <trkpt lat="43.14592" lon="-0.05019">
        <ele>479.1</ele>
        <time>2020-09-12T21:46:49Z</time>
      </trkpt>
      <trkpt lat="43.14588" lon="-0.05015">
        <ele>478.4</ele>
        <time>2020-09-12T21:46:51Z</time>
      </trkpt>
      <trkpt lat="43.14585" lon="-0.05013">
        <ele>477.9</ele>
        <time>2020-09-12T21:46:53Z</time>
      </trkpt>
      <trkpt lat="43.14581" lon="-0.05005">
        <ele>476.9</ele>
        <time>2020-09-12T21:46:55Z</time>
      </trkpt>
      <trkpt lat="43.1458" lon="-0.05001">
        <ele>476.1</ele>
        <time>2020-09-12T21:46:56Z</time>
      </trkpt>
      <trkpt lat="43.14578" lon="-0.04997">
        <ele>475.8</ele>
        <time>2020-09-12T21:46:57Z</time>
      </trkpt>
      <trkpt lat="43.14576" lon="-0.04993">
        <ele>475</ele>
        <time>2020-09-12T21:46:58Z</time>
      </trkpt>
      <trkpt lat="43.14575" lon="-0.0499">
        <ele>474.7</ele>
        <time>2020-09-12T21:46:59Z</time>
      </trkpt>
      <trkpt lat="43.14575" lon="-0.04985">
        <ele>474.4</ele>
        <time>2020-09-12T21:47:00Z</time>
      </trkpt>
      <trkpt lat="43.14574" lon="-0.04981">
        <ele>473.7</ele>
        <time>2020-09-12T21:47:01Z</time>
      </trkpt>
      <trkpt lat="43.14575" lon="-0.04975">
        <ele>473.7</ele>
        <time>2020-09-12T21:47:03Z</time>
      </trkpt>
      <trkpt lat="43.14578" lon="-0.0497">
        <ele>473.4</ele>
        <time>2020-09-12T21:47:05Z</time>
      </trkpt>
      <trkpt lat="43.14579" lon="-0.04966">
        <ele>473.5</ele>
        <time>2020-09-12T21:47:06Z</time>
      </trkpt>
      <trkpt lat="43.14581" lon="-0.0496">
        <ele>473.2</ele>
        <time>2020-09-12T21:47:08Z</time>
      </trkpt>
      <trkpt lat="43.14581" lon="-0.04957">
        <ele>473</ele>
        <time>2020-09-12T21:47:10Z</time>
      </trkpt>
      <trkpt lat="43.14579" lon="-0.04953">
        <ele>472.6</ele>
        <time>2020-09-12T21:47:11Z</time>
      </trkpt>
      <trkpt lat="43.14577" lon="-0.0495">
        <ele>472.1</ele>
        <time>2020-09-12T21:47:13Z</time>
      </trkpt>
      <trkpt lat="43.14576" lon="-0.04947">
        <ele>471.8</ele>
        <time>2020-09-12T21:47:15Z</time>
      </trkpt>
      <trkpt lat="43.14576" lon="-0.04942">
        <ele>471.5</ele>
        <time>2020-09-12T21:47:18Z</time>
      </trkpt>
      <trkpt lat="43.14578" lon="-0.04938">
        <ele>471.2</ele>
        <time>2020-09-12T21:47:20Z</time>
      </trkpt>
      <trkpt lat="43.14579" lon="-0.04933">
        <ele>471.1</ele>
        <time>2020-09-12T21:47:22Z</time>
      </trkpt>
      <trkpt lat="43.14582" lon="-0.04929">
        <ele>471.1</ele>
        <time>2020-09-12T21:47:24Z</time>
      </trkpt>
      <trkpt lat="43.14583" lon="-0.04922">
        <ele>470.6</ele>
        <time>2020-09-12T21:47:26Z</time>
      </trkpt>
      <trkpt lat="43.14583" lon="-0.04915">
        <ele>470.2</ele>
        <time>2020-09-12T21:47:28Z</time>
      </trkpt>
      <trkpt lat="43.14585" lon="-0.04911">
        <ele>470.1</ele>
        <time>2020-09-12T21:47:29Z</time>
      </trkpt>
      <trkpt lat="43.14587" lon="-0.04906">
        <ele>469.9</ele>
        <time>2020-09-12T21:47:31Z</time>
      </trkpt>
      <trkpt lat="43.1459" lon="-0.04901">
        <ele>469.4</ele>
        <time>2020-09-12T21:47:33Z</time>
      </trkpt>
      <trkpt lat="43.1459" lon="-0.04896">
        <ele>468.5</ele>
        <time>2020-09-12T21:47:35Z</time>
      </trkpt>
      <trkpt lat="43.1459" lon="-0.04892">
        <ele>468.1</ele>
        <time>2020-09-12T21:47:36Z</time>
      </trkpt>
      <trkpt lat="43.1459" lon="-0.04886">
        <ele>467.8</ele>
        <time>2020-09-12T21:47:38Z</time>
      </trkpt>
      <trkpt lat="43.14592" lon="-0.04882">
        <ele>467.4</ele>
        <time>2020-09-12T21:47:40Z</time>
      </trkpt>
      <trkpt lat="43.14593" lon="-0.04879">
        <ele>467.2</ele>
        <time>2020-09-12T21:47:41Z</time>
      </trkpt>
      <trkpt lat="43.14595" lon="-0.04876">
        <ele>467.2</ele>
        <time>2020-09-12T21:47:42Z</time>
      </trkpt>
      <trkpt lat="43.14595" lon="-0.04872">
        <ele>466.8</ele>
        <time>2020-09-12T21:47:46Z</time>
      </trkpt>
      <trkpt lat="43.14596" lon="-0.04864">
        <ele>466</ele>
        <time>2020-09-12T21:47:48Z</time>
      </trkpt>
      <trkpt lat="43.14598" lon="-0.0486">
        <ele>465.8</ele>
        <time>2020-09-12T21:47:49Z</time>
      </trkpt>
      <trkpt lat="43.14599" lon="-0.04857">
        <ele>465.3</ele>
        <time>2020-09-12T21:47:50Z</time>
      </trkpt>
      <trkpt lat="43.14602" lon="-0.04851">
        <ele>465</ele>
        <time>2020-09-12T21:47:52Z</time>
      </trkpt>
      <trkpt lat="43.14606" lon="-0.04853">
        <ele>465.4</ele>
        <time>2020-09-12T21:47:54Z</time>
      </trkpt>
      <trkpt lat="43.14608" lon="-0.0485">
        <ele>465.4</ele>
        <time>2020-09-12T21:47:57Z</time>
      </trkpt>
      <trkpt lat="43.1461" lon="-0.04847">
        <ele>465.1</ele>
        <time>2020-09-12T21:47:58Z</time>
      </trkpt>
      <trkpt lat="43.14612" lon="-0.04844">
        <ele>464.8</ele>
        <time>2020-09-12T21:47:59Z</time>
      </trkpt>
      <trkpt lat="43.14612" lon="-0.0484">
        <ele>464.3</ele>
        <time>2020-09-12T21:48:00Z</time>
      </trkpt>
      <trkpt lat="43.14613" lon="-0.04836">
        <ele>463.8</ele>
        <time>2020-09-12T21:48:02Z</time>
      </trkpt>
      <trkpt lat="43.14613" lon="-0.04831">
        <ele>463.4</ele>
        <time>2020-09-12T21:48:03Z</time>
      </trkpt>
      <trkpt lat="43.14615" lon="-0.04827">
        <ele>462.9</ele>
        <time>2020-09-12T21:48:04Z</time>
      </trkpt>
      <trkpt lat="43.14615" lon="-0.04824">
        <ele>462.7</ele>
        <time>2020-09-12T21:48:05Z</time>
      </trkpt>
      <trkpt lat="43.14618" lon="-0.04817">
        <ele>462.4</ele>
        <time>2020-09-12T21:48:07Z</time>
      </trkpt>
      <trkpt lat="43.1462" lon="-0.04813">
        <ele>461.9</ele>
        <time>2020-09-12T21:48:08Z</time>
      </trkpt>
      <trkpt lat="43.14622" lon="-0.04809">
        <ele>461.7</ele>
        <time>2020-09-12T21:48:10Z</time>
      </trkpt>
      <trkpt lat="43.14625" lon="-0.04806">
        <ele>461.6</ele>
        <time>2020-09-12T21:48:13Z</time>
      </trkpt>
      <trkpt lat="43.14627" lon="-0.04801">
        <ele>461</ele>
        <time>2020-09-12T21:48:15Z</time>
      </trkpt>
      <trkpt lat="43.14628" lon="-0.04794">
        <ele>460.9</ele>
        <time>2020-09-12T21:48:17Z</time>
      </trkpt>
      <trkpt lat="43.14629" lon="-0.0479">
        <ele>460.4</ele>
        <time>2020-09-12T21:48:18Z</time>
      </trkpt>
      <trkpt lat="43.14629" lon="-0.04786">
        <ele>459.9</ele>
        <time>2020-09-12T21:48:19Z</time>
      </trkpt>
      <trkpt lat="43.1463" lon="-0.04781">
        <ele>459.4</ele>
        <time>2020-09-12T21:48:20Z</time>
      </trkpt>
      <trkpt lat="43.14632" lon="-0.04776">
        <ele>458.9</ele>
        <time>2020-09-12T21:48:22Z</time>
      </trkpt>
      <trkpt lat="43.14634" lon="-0.04773">
        <ele>459.4</ele>
        <time>2020-09-12T21:48:23Z</time>
      </trkpt>
      <trkpt lat="43.14638" lon="-0.04768">
        <ele>459.5</ele>
        <time>2020-09-12T21:48:25Z</time>
      </trkpt>
      <trkpt lat="43.14639" lon="-0.04763">
        <ele>458.9</ele>
        <time>2020-09-12T21:48:27Z</time>
      </trkpt>
      <trkpt lat="43.14641" lon="-0.04758">
        <ele>459.1</ele>
        <time>2020-09-12T21:48:29Z</time>
      </trkpt>
      <trkpt lat="43.14645" lon="-0.04755">
        <ele>459.3</ele>
        <time>2020-09-12T21:48:31Z</time>
      </trkpt>
      <trkpt lat="43.14647" lon="-0.0475">
        <ele>459.5</ele>
        <time>2020-09-12T21:48:34Z</time>
      </trkpt>
      <trkpt lat="43.14648" lon="-0.04745">
        <ele>459.2</ele>
        <time>2020-09-12T21:48:36Z</time>
      </trkpt>
      <trkpt lat="43.14653" lon="-0.0474">
        <ele>459.2</ele>
        <time>2020-09-12T21:48:38Z</time>
      </trkpt>
      <trkpt lat="43.14656" lon="-0.04735">
        <ele>459.2</ele>
        <time>2020-09-12T21:48:40Z</time>
      </trkpt>
      <trkpt lat="43.14657" lon="-0.04731">
        <ele>459.2</ele>
        <time>2020-09-12T21:48:41Z</time>
      </trkpt>
      <trkpt lat="43.14657" lon="-0.04726">
        <ele>458.9</ele>
        <time>2020-09-12T21:48:42Z</time>
      </trkpt>
      <trkpt lat="43.14658" lon="-0.04722">
        <ele>458.5</ele>
        <time>2020-09-12T21:48:43Z</time>
      </trkpt>
      <trkpt lat="43.1466" lon="-0.04716">
        <ele>458.1</ele>
        <time>2020-09-12T21:48:45Z</time>
      </trkpt>
      <trkpt lat="43.14658" lon="-0.04713">
        <ele>457.8</ele>
        <time>2020-09-12T21:48:48Z</time>
      </trkpt>
      <trkpt lat="43.14656" lon="-0.04709">
        <ele>457.1</ele>
        <time>2020-09-12T21:48:51Z</time>
      </trkpt>
      <trkpt lat="43.1466" lon="-0.04706">
        <ele>457.5</ele>
        <time>2020-09-12T21:49:00Z</time>
      </trkpt>
      <trkpt lat="43.14663" lon="-0.04702">
        <ele>457.5</ele>
        <time>2020-09-12T21:49:01Z</time>
      </trkpt>
      <trkpt lat="43.14665" lon="-0.04699">
        <ele>457.7</ele>
        <time>2020-09-12T21:49:02Z</time>
      </trkpt>
      <trkpt lat="43.14667" lon="-0.04696">
        <ele>457.9</ele>
        <time>2020-09-12T21:49:03Z</time>
      </trkpt>
      <trkpt lat="43.1467" lon="-0.04692">
        <ele>458.3</ele>
        <time>2020-09-12T21:49:05Z</time>
      </trkpt>
      <trkpt lat="43.14673" lon="-0.04688">
        <ele>458.6</ele>
        <time>2020-09-12T21:49:07Z</time>
      </trkpt>
      <trkpt lat="43.14676" lon="-0.04683">
        <ele>459</ele>
        <time>2020-09-12T21:49:09Z</time>
      </trkpt>
      <trkpt lat="43.14679" lon="-0.04678">
        <ele>459.4</ele>
        <time>2020-09-12T21:49:11Z</time>
      </trkpt>
      <trkpt lat="43.14682" lon="-0.04674">
        <ele>459.8</ele>
        <time>2020-09-12T21:49:13Z</time>
      </trkpt>
      <trkpt lat="43.14684" lon="-0.04671">
        <ele>460.1</ele>
        <time>2020-09-12T21:49:15Z</time>
      </trkpt>
      <trkpt lat="43.14689" lon="-0.04669">
        <ele>460.6</ele>
        <time>2020-09-12T21:49:17Z</time>
      </trkpt>
      <trkpt lat="43.14694" lon="-0.04669">
        <ele>461</ele>
        <time>2020-09-12T21:49:19Z</time>
      </trkpt>
      <trkpt lat="43.14699" lon="-0.04668">
        <ele>461.5</ele>
        <time>2020-09-12T21:49:21Z</time>
      </trkpt>
      <trkpt lat="43.14703" lon="-0.04668">
        <ele>461.9</ele>
        <time>2020-09-12T21:49:23Z</time>
      </trkpt>
      <trkpt lat="43.14708" lon="-0.04669">
        <ele>462.1</ele>
        <time>2020-09-12T21:49:25Z</time>
      </trkpt>
      <trkpt lat="43.14712" lon="-0.04668">
        <ele>462.4</ele>
        <time>2020-09-12T21:49:27Z</time>
      </trkpt>
      <trkpt lat="43.14717" lon="-0.04667">
        <ele>462.7</ele>
        <time>2020-09-12T21:49:29Z</time>
      </trkpt>
      <trkpt lat="43.14722" lon="-0.04666">
        <ele>463</ele>
        <time>2020-09-12T21:49:31Z</time>
      </trkpt>
      <trkpt lat="43.14726" lon="-0.04665">
        <ele>463.3</ele>
        <time>2020-09-12T21:49:33Z</time>
      </trkpt>
      <trkpt lat="43.1473" lon="-0.04665">
        <ele>463.6</ele>
        <time>2020-09-12T21:49:35Z</time>
      </trkpt>
      <trkpt lat="43.14733" lon="-0.04666">
        <ele>463.9</ele>
        <time>2020-09-12T21:49:37Z</time>
      </trkpt>
      <trkpt lat="43.14736" lon="-0.04668">
        <ele>464.2</ele>
        <time>2020-09-12T21:49:39Z</time>
      </trkpt>
      <trkpt lat="43.1474" lon="-0.04667">
        <ele>464.5</ele>
        <time>2020-09-12T21:49:41Z</time>
      </trkpt>
      <trkpt lat="43.14743" lon="-0.04667">
        <ele>464.7</ele>
        <time>2020-09-12T21:49:43Z</time>
      </trkpt>
      <trkpt lat="43.14747" lon="-0.04667">
        <ele>465</ele>
        <time>2020-09-12T21:49:45Z</time>
      </trkpt>
      <trkpt lat="43.14751" lon="-0.04669">
        <ele>465.3</ele>
        <time>2020-09-12T21:49:47Z</time>
      </trkpt>
      <trkpt lat="43.14754" lon="-0.0467">
        <ele>465.6</ele>
        <time>2020-09-12T21:49:49Z</time>
      </trkpt>
      <trkpt lat="43.14758" lon="-0.04673">
        <ele>466</ele>
        <time>2020-09-12T21:49:51Z</time>
      </trkpt>
      <trkpt lat="43.1476" lon="-0.04677">
        <ele>466.3</ele>
        <time>2020-09-12T21:49:54Z</time>
      </trkpt>
      <trkpt lat="43.14761" lon="-0.04682">
        <ele>466.7</ele>
        <time>2020-09-12T21:49:58Z</time>
      </trkpt>
      <trkpt lat="43.1476" lon="-0.04687">
        <ele>467.1</ele>
        <time>2020-09-12T21:50:00Z</time>
      </trkpt>
      <trkpt lat="43.14758" lon="-0.04692">
        <ele>467.6</ele>
        <time>2020-09-12T21:50:02Z</time>
      </trkpt>
      <trkpt lat="43.14757" lon="-0.04697">
        <ele>468</ele>
        <time>2020-09-12T21:50:04Z</time>
      </trkpt>
      <trkpt lat="43.14756" lon="-0.04701">
        <ele>468.4</ele>
        <time>2020-09-12T21:50:07Z</time>
      </trkpt>
      <trkpt lat="43.14753" lon="-0.047">
        <ele>468.8</ele>
        <time>2020-09-12T21:50:10Z</time>
      </trkpt>
      <trkpt lat="43.1475" lon="-0.04701">
        <ele>469.3</ele>
        <time>2020-09-12T21:50:12Z</time>
      </trkpt>
      <trkpt lat="43.14747" lon="-0.04702">
        <ele>469.9</ele>
        <time>2020-09-12T21:50:14Z</time>
      </trkpt>
      <trkpt lat="43.14743" lon="-0.04702">
        <ele>470.4</ele>
        <time>2020-09-12T21:50:16Z</time>
      </trkpt>
      <trkpt lat="43.1474" lon="-0.04702">
        <ele>470.7</ele>
        <time>2020-09-12T21:50:18Z</time>
      </trkpt>
      <trkpt lat="43.14738" lon="-0.047">
        <ele>471</ele>
        <time>2020-09-12T21:50:21Z</time>
      </trkpt>
      <trkpt lat="43.14735" lon="-0.04699">
        <ele>471.3</ele>
        <time>2020-09-12T21:50:24Z</time>
      </trkpt>
      <trkpt lat="43.14732" lon="-0.047">
        <ele>471.6</ele>
        <time>2020-09-12T21:50:26Z</time>
      </trkpt>
      <trkpt lat="43.14728" lon="-0.04701">
        <ele>472</ele>
        <time>2020-09-12T21:50:29Z</time>
      </trkpt>
      <trkpt lat="43.14725" lon="-0.04702">
        <ele>472.4</ele>
        <time>2020-09-12T21:50:31Z</time>
      </trkpt>
      <trkpt lat="43.14721" lon="-0.04705">
        <ele>472.9</ele>
        <time>2020-09-12T21:50:33Z</time>
      </trkpt>
      <trkpt lat="43.14718" lon="-0.04706">
        <ele>473.4</ele>
        <time>2020-09-12T21:50:35Z</time>
      </trkpt>
      <trkpt lat="43.14715" lon="-0.04708">
        <ele>473.7</ele>
        <time>2020-09-12T21:50:37Z</time>
      </trkpt>
      <trkpt lat="43.14712" lon="-0.0471">
        <ele>474.1</ele>
        <time>2020-09-12T21:50:39Z</time>
      </trkpt>
      <trkpt lat="43.14709" lon="-0.04713">
        <ele>474.5</ele>
        <time>2020-09-12T21:50:41Z</time>
      </trkpt>
      <trkpt lat="43.14708" lon="-0.04717">
        <ele>474.8</ele>
        <time>2020-09-12T21:50:43Z</time>
      </trkpt>
      <trkpt lat="43.14707" lon="-0.04722">
        <ele>475.1</ele>
        <time>2020-09-12T21:50:45Z</time>
      </trkpt>
      <trkpt lat="43.14707" lon="-0.04727">
        <ele>475.4</ele>
        <time>2020-09-12T21:50:48Z</time>
      </trkpt>
      <trkpt lat="43.14707" lon="-0.04731">
        <ele>475.6</ele>
        <time>2020-09-12T21:50:50Z</time>
      </trkpt>
      <trkpt lat="43.14707" lon="-0.04736">
        <ele>475.9</ele>
        <time>2020-09-12T21:50:52Z</time>
      </trkpt>
      <trkpt lat="43.14707" lon="-0.04742">
        <ele>476.3</ele>
        <time>2020-09-12T21:50:54Z</time>
      </trkpt>
      <trkpt lat="43.14706" lon="-0.04747">
        <ele>476.6</ele>
        <time>2020-09-12T21:50:56Z</time>
      </trkpt>
      <trkpt lat="43.14704" lon="-0.04751">
        <ele>476.9</ele>
        <time>2020-09-12T21:50:58Z</time>
      </trkpt>
      <trkpt lat="43.14702" lon="-0.04756">
        <ele>477.4</ele>
        <time>2020-09-12T21:51:00Z</time>
      </trkpt>
      <trkpt lat="43.14699" lon="-0.04759">
        <ele>477.7</ele>
        <time>2020-09-12T21:51:02Z</time>
      </trkpt>
      <trkpt lat="43.14698" lon="-0.04763">
        <ele>478</ele>
        <time>2020-09-12T21:51:04Z</time>
      </trkpt>
      <trkpt lat="43.14696" lon="-0.04767">
        <ele>478.2</ele>
        <time>2020-09-12T21:51:06Z</time>
      </trkpt>
      <trkpt lat="43.14694" lon="-0.04771">
        <ele>478.5</ele>
        <time>2020-09-12T21:51:08Z</time>
      </trkpt>
      <trkpt lat="43.14691" lon="-0.04774">
        <ele>478.7</ele>
        <time>2020-09-12T21:51:10Z</time>
      </trkpt>
      <trkpt lat="43.14689" lon="-0.04777">
        <ele>478.8</ele>
        <time>2020-09-12T21:51:12Z</time>
      </trkpt>
      <trkpt lat="43.14688" lon="-0.04781">
        <ele>479</ele>
        <time>2020-09-12T21:51:14Z</time>
      </trkpt>
      <trkpt lat="43.14688" lon="-0.04785">
        <ele>479.1</ele>
        <time>2020-09-12T21:51:16Z</time>
      </trkpt>
      <trkpt lat="43.14688" lon="-0.04788">
        <ele>479.3</ele>
        <time>2020-09-12T21:51:18Z</time>
      </trkpt>
      <trkpt lat="43.14687" lon="-0.04793">
        <ele>479.4</ele>
        <time>2020-09-12T21:51:20Z</time>
      </trkpt>
      <trkpt lat="43.14686" lon="-0.04797">
        <ele>479.6</ele>
        <time>2020-09-12T21:51:22Z</time>
      </trkpt>
      <trkpt lat="43.14686" lon="-0.04801">
        <ele>479.8</ele>
        <time>2020-09-12T21:51:24Z</time>
      </trkpt>
      <trkpt lat="43.14684" lon="-0.04807">
        <ele>480.1</ele>
        <time>2020-09-12T21:51:26Z</time>
      </trkpt>
      <trkpt lat="43.14684" lon="-0.04812">
        <ele>480.3</ele>
        <time>2020-09-12T21:51:28Z</time>
      </trkpt>
      <trkpt lat="43.14685" lon="-0.04817">
        <ele>480.5</ele>
        <time>2020-09-12T21:51:30Z</time>
      </trkpt>
      <trkpt lat="43.14685" lon="-0.04821">
        <ele>480.7</ele>
        <time>2020-09-12T21:51:32Z</time>
      </trkpt>
      <trkpt lat="43.14685" lon="-0.04825">
        <ele>480.9</ele>
        <time>2020-09-12T21:51:34Z</time>
      </trkpt>
      <trkpt lat="43.14685" lon="-0.04829">
        <ele>481.2</ele>
        <time>2020-09-12T21:51:36Z</time>
      </trkpt>
      <trkpt lat="43.14684" lon="-0.04834">
        <ele>481.4</ele>
        <time>2020-09-12T21:51:38Z</time>
      </trkpt>
      <trkpt lat="43.14683" lon="-0.04838">
        <ele>481.6</ele>
        <time>2020-09-12T21:51:40Z</time>
      </trkpt>
      <trkpt lat="43.14683" lon="-0.04842">
        <ele>481.9</ele>
        <time>2020-09-12T21:51:42Z</time>
      </trkpt>
      <trkpt lat="43.14684" lon="-0.04847">
        <ele>482.1</ele>
        <time>2020-09-12T21:51:44Z</time>
      </trkpt>
      <trkpt lat="43.14683" lon="-0.04851">
        <ele>482.4</ele>
        <time>2020-09-12T21:51:46Z</time>
      </trkpt>
      <trkpt lat="43.14683" lon="-0.04856">
        <ele>482.7</ele>
        <time>2020-09-12T21:51:48Z</time>
      </trkpt>
      <trkpt lat="43.14682" lon="-0.0486">
        <ele>482.9</ele>
        <time>2020-09-12T21:51:50Z</time>
      </trkpt>
      <trkpt lat="43.14682" lon="-0.04863">
        <ele>483.1</ele>
        <time>2020-09-12T21:51:52Z</time>
      </trkpt>
      <trkpt lat="43.14682" lon="-0.04869">
        <ele>483.5</ele>
        <time>2020-09-12T21:51:54Z</time>
      </trkpt>
      <trkpt lat="43.14683" lon="-0.04873">
        <ele>483.7</ele>
        <time>2020-09-12T21:51:56Z</time>
      </trkpt>
      <trkpt lat="43.14685" lon="-0.04877">
        <ele>484</ele>
        <time>2020-09-12T21:51:59Z</time>
      </trkpt>
      <trkpt lat="43.14686" lon="-0.04882">
        <ele>484.3</ele>
        <time>2020-09-12T21:52:02Z</time>
      </trkpt>
      <trkpt lat="43.14686" lon="-0.04887">
        <ele>484.6</ele>
        <time>2020-09-12T21:52:04Z</time>
      </trkpt>
      <trkpt lat="43.14685" lon="-0.04891">
        <ele>484.8</ele>
        <time>2020-09-12T21:52:06Z</time>
      </trkpt>
      <trkpt lat="43.14685" lon="-0.04897">
        <ele>485.1</ele>
        <time>2020-09-12T21:52:08Z</time>
      </trkpt>
      <trkpt lat="43.14685" lon="-0.04903">
        <ele>485.4</ele>
        <time>2020-09-12T21:52:10Z</time>
      </trkpt>
      <trkpt lat="43.14685" lon="-0.04908">
        <ele>485.7</ele>
        <time>2020-09-12T21:52:13Z</time>
      </trkpt>
      <trkpt lat="43.14684" lon="-0.04912">
        <ele>485.9</ele>
        <time>2020-09-12T21:52:15Z</time>
      </trkpt>
      <trkpt lat="43.14685" lon="-0.04917">
        <ele>486.2</ele>
        <time>2020-09-12T21:52:17Z</time>
      </trkpt>
      <trkpt lat="43.14685" lon="-0.04921">
        <ele>486.4</ele>
        <time>2020-09-12T21:52:19Z</time>
      </trkpt>
      <trkpt lat="43.14685" lon="-0.04924">
        <ele>486.7</ele>
        <time>2020-09-12T21:52:21Z</time>
      </trkpt>
      <trkpt lat="43.14685" lon="-0.04929">
        <ele>487</ele>
        <time>2020-09-12T21:52:23Z</time>
      </trkpt>
      <trkpt lat="43.14686" lon="-0.04933">
        <ele>487.2</ele>
        <time>2020-09-12T21:52:25Z</time>
      </trkpt>
      <trkpt lat="43.14687" lon="-0.04938">
        <ele>487.5</ele>
        <time>2020-09-12T21:52:28Z</time>
      </trkpt>
      <trkpt lat="43.14687" lon="-0.04943">
        <ele>487.8</ele>
        <time>2020-09-12T21:52:30Z</time>
      </trkpt>
      <trkpt lat="43.14688" lon="-0.04948">
        <ele>488</ele>
        <time>2020-09-12T21:52:32Z</time>
      </trkpt>
      <trkpt lat="43.14688" lon="-0.04952">
        <ele>488.2</ele>
        <time>2020-09-12T21:52:34Z</time>
      </trkpt>
      <trkpt lat="43.14689" lon="-0.04956">
        <ele>488.4</ele>
        <time>2020-09-12T21:52:36Z</time>
      </trkpt>
      <trkpt lat="43.14692" lon="-0.04959">
        <ele>488.6</ele>
        <time>2020-09-12T21:52:38Z</time>
      </trkpt>
      <trkpt lat="43.14694" lon="-0.04961">
        <ele>488.8</ele>
        <time>2020-09-12T21:52:40Z</time>
      </trkpt>
      <trkpt lat="43.14695" lon="-0.04967">
        <ele>489.2</ele>
        <time>2020-09-12T21:52:43Z</time>
      </trkpt>
      <trkpt lat="43.14695" lon="-0.04971">
        <ele>489.5</ele>
        <time>2020-09-12T21:52:45Z</time>
      </trkpt>
      <trkpt lat="43.14694" lon="-0.04976">
        <ele>489.9</ele>
        <time>2020-09-12T21:52:47Z</time>
      </trkpt>
      <trkpt lat="43.14694" lon="-0.04983">
        <ele>490.2</ele>
        <time>2020-09-12T21:52:49Z</time>
      </trkpt>
      <trkpt lat="43.14694" lon="-0.04986">
        <ele>490.4</ele>
        <time>2020-09-12T21:52:50Z</time>
      </trkpt>
      <trkpt lat="43.14694" lon="-0.04992">
        <ele>490.7</ele>
        <time>2020-09-12T21:52:52Z</time>
      </trkpt>
      <trkpt lat="43.14698" lon="-0.04993">
        <ele>491</ele>
        <time>2020-09-12T21:52:55Z</time>
      </trkpt>
      <trkpt lat="43.14699" lon="-0.04997">
        <ele>491.2</ele>
        <time>2020-09-12T21:52:57Z</time>
      </trkpt>
      <trkpt lat="43.14701" lon="-0.05001">
        <ele>491.5</ele>
        <time>2020-09-12T21:52:59Z</time>
      </trkpt>
      <trkpt lat="43.14703" lon="-0.05005">
        <ele>491.7</ele>
        <time>2020-09-12T21:53:01Z</time>
      </trkpt>
      <trkpt lat="43.14706" lon="-0.05008">
        <ele>492.1</ele>
        <time>2020-09-12T21:53:04Z</time>
      </trkpt>
      <trkpt lat="43.1471" lon="-0.05012">
        <ele>492.5</ele>
        <time>2020-09-12T21:53:06Z</time>
      </trkpt>
      <trkpt lat="43.14712" lon="-0.05016">
        <ele>492.8</ele>
        <time>2020-09-12T21:53:08Z</time>
      </trkpt>
      <trkpt lat="43.14714" lon="-0.05019">
        <ele>493.1</ele>
        <time>2020-09-12T21:53:10Z</time>
      </trkpt>
      <trkpt lat="43.14715" lon="-0.05023">
        <ele>493.4</ele>
        <time>2020-09-12T21:53:13Z</time>
      </trkpt>
      <trkpt lat="43.14717" lon="-0.05028">
        <ele>493.7</ele>
        <time>2020-09-12T21:53:15Z</time>
      </trkpt>
      <trkpt lat="43.14718" lon="-0.05032">
        <ele>494</ele>
        <time>2020-09-12T21:53:17Z</time>
      </trkpt>
      <trkpt lat="43.1472" lon="-0.05038">
        <ele>494.5</ele>
        <time>2020-09-12T21:53:19Z</time>
      </trkpt>
      <trkpt lat="43.14722" lon="-0.05042">
        <ele>494.8</ele>
        <time>2020-09-12T21:53:21Z</time>
      </trkpt>
      <trkpt lat="43.14726" lon="-0.05045">
        <ele>495.2</ele>
        <time>2020-09-12T21:53:23Z</time>
      </trkpt>
      <trkpt lat="43.14728" lon="-0.05047">
        <ele>495.5</ele>
        <time>2020-09-12T21:53:25Z</time>
      </trkpt>
      <trkpt lat="43.14731" lon="-0.0505">
        <ele>495.9</ele>
        <time>2020-09-12T21:53:27Z</time>
      </trkpt>
      <trkpt lat="43.14733" lon="-0.05054">
        <ele>496.1</ele>
        <time>2020-09-12T21:53:29Z</time>
      </trkpt>
      <trkpt lat="43.14736" lon="-0.05058">
        <ele>496.4</ele>
        <time>2020-09-12T21:53:32Z</time>
      </trkpt>
      <trkpt lat="43.14739" lon="-0.05061">
        <ele>496.7</ele>
        <time>2020-09-12T21:53:34Z</time>
      </trkpt>
      <trkpt lat="43.14743" lon="-0.05064">
        <ele>497.1</ele>
        <time>2020-09-12T21:53:36Z</time>
      </trkpt>
      <trkpt lat="43.14746" lon="-0.05067">
        <ele>497.4</ele>
        <time>2020-09-12T21:53:38Z</time>
      </trkpt>
      <trkpt lat="43.14748" lon="-0.0507">
        <ele>497.6</ele>
        <time>2020-09-12T21:53:40Z</time>
      </trkpt>
      <trkpt lat="43.14751" lon="-0.05075">
        <ele>497.9</ele>
        <time>2020-09-12T21:53:42Z</time>
      </trkpt>
      <trkpt lat="43.14754" lon="-0.05079">
        <ele>498.2</ele>
        <time>2020-09-12T21:53:44Z</time>
      </trkpt>
      <trkpt lat="43.14756" lon="-0.05083">
        <ele>498.4</ele>
        <time>2020-09-12T21:53:46Z</time>
      </trkpt>
      <trkpt lat="43.14758" lon="-0.05086">
        <ele>498.7</ele>
        <time>2020-09-12T21:53:48Z</time>
      </trkpt>
      <trkpt lat="43.1476" lon="-0.05089">
        <ele>498.8</ele>
        <time>2020-09-12T21:53:50Z</time>
      </trkpt>
      <trkpt lat="43.14763" lon="-0.05093">
        <ele>498.9</ele>
        <time>2020-09-12T21:53:53Z</time>
      </trkpt>
      <trkpt lat="43.14765" lon="-0.05096">
        <ele>499</ele>
        <time>2020-09-12T21:53:55Z</time>
      </trkpt>
      <trkpt lat="43.14767" lon="-0.05101">
        <ele>499.2</ele>
        <time>2020-09-12T21:53:57Z</time>
      </trkpt>
      <trkpt lat="43.14769" lon="-0.05105">
        <ele>499.3</ele>
        <time>2020-09-12T21:53:58Z</time>
      </trkpt>
      <trkpt lat="43.1477" lon="-0.05108">
        <ele>499.5</ele>
        <time>2020-09-12T21:53:59Z</time>
      </trkpt>
      <trkpt lat="43.14771" lon="-0.05113">
        <ele>499.6</ele>
        <time>2020-09-12T21:54:00Z</time>
      </trkpt>
      <trkpt lat="43.14773" lon="-0.05117">
        <ele>499.7</ele>
        <time>2020-09-12T21:54:01Z</time>
      </trkpt>
      <trkpt lat="43.14774" lon="-0.05122">
        <ele>499.8</ele>
        <time>2020-09-12T21:54:02Z</time>
      </trkpt>
      <trkpt lat="43.14774" lon="-0.05125">
        <ele>499.8</ele>
        <time>2020-09-12T21:54:03Z</time>
      </trkpt>
      <trkpt lat="43.14774" lon="-0.0513">
        <ele>499.9</ele>
        <time>2020-09-12T21:54:05Z</time>
      </trkpt>
      <trkpt lat="43.14775" lon="-0.05136">
        <ele>500</ele>
        <time>2020-09-12T21:54:07Z</time>
      </trkpt>
      <trkpt lat="43.14774" lon="-0.05141">
        <ele>500.1</ele>
        <time>2020-09-12T21:54:09Z</time>
      </trkpt>
      <trkpt lat="43.14772" lon="-0.05147">
        <ele>500.3</ele>
        <time>2020-09-12T21:54:11Z</time>
      </trkpt>
      <trkpt lat="43.14771" lon="-0.05154">
        <ele>500.4</ele>
        <time>2020-09-12T21:54:13Z</time>
      </trkpt>
      <trkpt lat="43.14769" lon="-0.05159">
        <ele>500.5</ele>
        <time>2020-09-12T21:54:15Z</time>
      </trkpt>
      <trkpt lat="43.14766" lon="-0.05163">
        <ele>500.6</ele>
        <time>2020-09-12T21:54:17Z</time>
      </trkpt>
      <trkpt lat="43.14763" lon="-0.05168">
        <ele>500.7</ele>
        <time>2020-09-12T21:54:19Z</time>
      </trkpt>
      <trkpt lat="43.14759" lon="-0.05171">
        <ele>500.8</ele>
        <time>2020-09-12T21:54:21Z</time>
      </trkpt>
      <trkpt lat="43.14756" lon="-0.05175">
        <ele>500.8</ele>
        <time>2020-09-12T21:54:23Z</time>
      </trkpt>
      <trkpt lat="43.14753" lon="-0.05178">
        <ele>501</ele>
        <time>2020-09-12T21:54:25Z</time>
      </trkpt>
      <trkpt lat="43.14751" lon="-0.05184">
        <ele>501.3</ele>
        <time>2020-09-12T21:54:27Z</time>
      </trkpt>
      <trkpt lat="43.14749" lon="-0.05189">
        <ele>501.6</ele>
        <time>2020-09-12T21:54:29Z</time>
      </trkpt>
      <trkpt lat="43.14748" lon="-0.05194">
        <ele>502</ele>
        <time>2020-09-12T21:54:31Z</time>
      </trkpt>
      <trkpt lat="43.14748" lon="-0.052">
        <ele>502.3</ele>
        <time>2020-09-12T21:54:33Z</time>
      </trkpt>
      <trkpt lat="43.14748" lon="-0.05205">
        <ele>502.5</ele>
        <time>2020-09-12T21:54:35Z</time>
      </trkpt>
      <trkpt lat="43.14749" lon="-0.05211">
        <ele>502.8</ele>
        <time>2020-09-12T21:54:37Z</time>
      </trkpt>
      <trkpt lat="43.1475" lon="-0.05215">
        <ele>503</ele>
        <time>2020-09-12T21:54:39Z</time>
      </trkpt>
      <trkpt lat="43.14752" lon="-0.05221">
        <ele>503.3</ele>
        <time>2020-09-12T21:54:42Z</time>
      </trkpt>
      <trkpt lat="43.14752" lon="-0.05225">
        <ele>503.6</ele>
        <time>2020-09-12T21:54:44Z</time>
      </trkpt>
      <trkpt lat="43.14753" lon="-0.05231">
        <ele>504</ele>
        <time>2020-09-12T21:54:46Z</time>
      </trkpt>
      <trkpt lat="43.14754" lon="-0.05236">
        <ele>504.5</ele>
        <time>2020-09-12T21:54:48Z</time>
      </trkpt>
      <trkpt lat="43.14753" lon="-0.0524">
        <ele>504.9</ele>
        <time>2020-09-12T21:54:50Z</time>
      </trkpt>
      <trkpt lat="43.14752" lon="-0.05245">
        <ele>505.2</ele>
        <time>2020-09-12T21:54:53Z</time>
      </trkpt>
      <trkpt lat="43.14752" lon="-0.05249">
        <ele>505.4</ele>
        <time>2020-09-12T21:54:55Z</time>
      </trkpt>
      <trkpt lat="43.14752" lon="-0.05254">
        <ele>505.7</ele>
        <time>2020-09-12T21:54:57Z</time>
      </trkpt>
      <trkpt lat="43.14751" lon="-0.05259">
        <ele>506</ele>
        <time>2020-09-12T21:54:59Z</time>
      </trkpt>
      <trkpt lat="43.14749" lon="-0.05263">
        <ele>506.5</ele>
        <time>2020-09-12T21:55:01Z</time>
      </trkpt>
      <trkpt lat="43.14747" lon="-0.05267">
        <ele>506.9</ele>
        <time>2020-09-12T21:55:03Z</time>
      </trkpt>
      <trkpt lat="43.14746" lon="-0.05272">
        <ele>507.2</ele>
        <time>2020-09-12T21:55:06Z</time>
      </trkpt>
      <trkpt lat="43.14746" lon="-0.05277">
        <ele>507.6</ele>
        <time>2020-09-12T21:55:08Z</time>
      </trkpt>
      <trkpt lat="43.14747" lon="-0.05282">
        <ele>507.9</ele>
        <time>2020-09-12T21:55:10Z</time>
      </trkpt>
      <trkpt lat="43.14748" lon="-0.05285">
        <ele>508.1</ele>
        <time>2020-09-12T21:55:12Z</time>
      </trkpt>
      <trkpt lat="43.14748" lon="-0.05289">
        <ele>508.4</ele>
        <time>2020-09-12T21:55:14Z</time>
      </trkpt>
      <trkpt lat="43.14748" lon="-0.05295">
        <ele>508.7</ele>
        <time>2020-09-12T21:55:16Z</time>
      </trkpt>
      <trkpt lat="43.14748" lon="-0.05299">
        <ele>509</ele>
        <time>2020-09-12T21:55:18Z</time>
      </trkpt>
      <trkpt lat="43.14747" lon="-0.05305">
        <ele>509.3</ele>
        <time>2020-09-12T21:55:20Z</time>
      </trkpt>
      <trkpt lat="43.14749" lon="-0.0531">
        <ele>509.7</ele>
        <time>2020-09-12T21:55:22Z</time>
      </trkpt>
      <trkpt lat="43.1475" lon="-0.05315">
        <ele>510</ele>
        <time>2020-09-12T21:55:24Z</time>
      </trkpt>
      <trkpt lat="43.14751" lon="-0.0532">
        <ele>510.3</ele>
        <time>2020-09-12T21:55:26Z</time>
      </trkpt>
      <trkpt lat="43.14753" lon="-0.05324">
        <ele>510.6</ele>
        <time>2020-09-12T21:55:28Z</time>
      </trkpt>
      <trkpt lat="43.14756" lon="-0.0533">
        <ele>511.1</ele>
        <time>2020-09-12T21:55:30Z</time>
      </trkpt>
      <trkpt lat="43.14758" lon="-0.05335">
        <ele>511.4</ele>
        <time>2020-09-12T21:55:32Z</time>
      </trkpt>
      <trkpt lat="43.14761" lon="-0.05339">
        <ele>511.8</ele>
        <time>2020-09-12T21:55:35Z</time>
      </trkpt>
      <trkpt lat="43.14765" lon="-0.05341">
        <ele>512.2</ele>
        <time>2020-09-12T21:55:37Z</time>
      </trkpt>
      <trkpt lat="43.14766" lon="-0.05346">
        <ele>512.5</ele>
        <time>2020-09-12T21:55:39Z</time>
      </trkpt>
      <trkpt lat="43.14767" lon="-0.05351">
        <ele>512.7</ele>
        <time>2020-09-12T21:55:41Z</time>
      </trkpt>
      <trkpt lat="43.14769" lon="-0.05356">
        <ele>512.9</ele>
        <time>2020-09-12T21:55:43Z</time>
      </trkpt>
      <trkpt lat="43.1477" lon="-0.0536">
        <ele>513</ele>
        <time>2020-09-12T21:55:45Z</time>
      </trkpt>
      <trkpt lat="43.14771" lon="-0.05364">
        <ele>513.2</ele>
        <time>2020-09-12T21:55:47Z</time>
      </trkpt>
      <trkpt lat="43.14772" lon="-0.05368">
        <ele>513.3</ele>
        <time>2020-09-12T21:55:49Z</time>
      </trkpt>
      <trkpt lat="43.14775" lon="-0.05372">
        <ele>513.5</ele>
        <time>2020-09-12T21:55:52Z</time>
      </trkpt>
      <trkpt lat="43.14778" lon="-0.05375">
        <ele>513.7</ele>
        <time>2020-09-12T21:55:54Z</time>
      </trkpt>
      <trkpt lat="43.1478" lon="-0.05379">
        <ele>513.8</ele>
        <time>2020-09-12T21:55:56Z</time>
      </trkpt>
      <trkpt lat="43.1478" lon="-0.05383">
        <ele>514</ele>
        <time>2020-09-12T21:55:58Z</time>
      </trkpt>
      <trkpt lat="43.14781" lon="-0.05388">
        <ele>514.3</ele>
        <time>2020-09-12T21:56:00Z</time>
      </trkpt>
      <trkpt lat="43.14781" lon="-0.05392">
        <ele>514.5</ele>
        <time>2020-09-12T21:56:02Z</time>
      </trkpt>
      <trkpt lat="43.14782" lon="-0.05397">
        <ele>514.7</ele>
        <time>2020-09-12T21:56:04Z</time>
      </trkpt>
      <trkpt lat="43.14784" lon="-0.05402">
        <ele>515</ele>
        <time>2020-09-12T21:56:06Z</time>
      </trkpt>
      <trkpt lat="43.14785" lon="-0.05406">
        <ele>515.2</ele>
        <time>2020-09-12T21:56:08Z</time>
      </trkpt>
      <trkpt lat="43.14785" lon="-0.0541">
        <ele>515.4</ele>
        <time>2020-09-12T21:56:10Z</time>
      </trkpt>
      <trkpt lat="43.14785" lon="-0.05415">
        <ele>515.6</ele>
        <time>2020-09-12T21:56:12Z</time>
      </trkpt>
      <trkpt lat="43.14787" lon="-0.05419">
        <ele>515.8</ele>
        <time>2020-09-12T21:56:14Z</time>
      </trkpt>
      <trkpt lat="43.14789" lon="-0.05423">
        <ele>516.1</ele>
        <time>2020-09-12T21:56:16Z</time>
      </trkpt>
      <trkpt lat="43.14791" lon="-0.0543">
        <ele>516.5</ele>
        <time>2020-09-12T21:56:18Z</time>
      </trkpt>
      <trkpt lat="43.14793" lon="-0.05435">
        <ele>516.9</ele>
        <time>2020-09-12T21:56:20Z</time>
      </trkpt>
      <trkpt lat="43.14795" lon="-0.0544">
        <ele>517.2</ele>
        <time>2020-09-12T21:56:22Z</time>
      </trkpt>
      <trkpt lat="43.14796" lon="-0.05446">
        <ele>517.5</ele>
        <time>2020-09-12T21:56:24Z</time>
      </trkpt>
      <trkpt lat="43.14798" lon="-0.05451">
        <ele>517.8</ele>
        <time>2020-09-12T21:56:26Z</time>
      </trkpt>
      <trkpt lat="43.14798" lon="-0.05455">
        <ele>518.1</ele>
        <time>2020-09-12T21:56:28Z</time>
      </trkpt>
      <trkpt lat="43.14799" lon="-0.0546">
        <ele>518.3</ele>
        <time>2020-09-12T21:56:30Z</time>
      </trkpt>
      <trkpt lat="43.14801" lon="-0.05464">
        <ele>518.6</ele>
        <time>2020-09-12T21:56:33Z</time>
      </trkpt>
      <trkpt lat="43.14802" lon="-0.0547">
        <ele>518.9</ele>
        <time>2020-09-12T21:56:36Z</time>
      </trkpt>
      <trkpt lat="43.14803" lon="-0.05475">
        <ele>519.2</ele>
        <time>2020-09-12T21:56:38Z</time>
      </trkpt>
      <trkpt lat="43.14804" lon="-0.05479">
        <ele>519.5</ele>
        <time>2020-09-12T21:56:40Z</time>
      </trkpt>
      <trkpt lat="43.14805" lon="-0.05483">
        <ele>519.7</ele>
        <time>2020-09-12T21:56:42Z</time>
      </trkpt>
      <trkpt lat="43.14805" lon="-0.05488">
        <ele>520</ele>
        <time>2020-09-12T21:56:44Z</time>
      </trkpt>
      <trkpt lat="43.14805" lon="-0.05493">
        <ele>520.3</ele>
        <time>2020-09-12T21:56:46Z</time>
      </trkpt>
      <trkpt lat="43.14805" lon="-0.05499">
        <ele>520.6</ele>
        <time>2020-09-12T21:56:48Z</time>
      </trkpt>
      <trkpt lat="43.14805" lon="-0.05503">
        <ele>521</ele>
        <time>2020-09-12T21:56:51Z</time>
      </trkpt>
      <trkpt lat="43.14808" lon="-0.05504">
        <ele>521.2</ele>
        <time>2020-09-12T21:56:53Z</time>
      </trkpt>
      <trkpt lat="43.14809" lon="-0.05508">
        <ele>521.5</ele>
        <time>2020-09-12T21:56:55Z</time>
      </trkpt>
      <trkpt lat="43.14811" lon="-0.05513">
        <ele>521.7</ele>
        <time>2020-09-12T21:56:57Z</time>
      </trkpt>
      <trkpt lat="43.14814" lon="-0.05518">
        <ele>522.1</ele>
        <time>2020-09-12T21:56:59Z</time>
      </trkpt>
      <trkpt lat="43.14816" lon="-0.05522">
        <ele>522.4</ele>
        <time>2020-09-12T21:57:01Z</time>
      </trkpt>
      <trkpt lat="43.14818" lon="-0.05526">
        <ele>522.7</ele>
        <time>2020-09-12T21:57:03Z</time>
      </trkpt>
      <trkpt lat="43.14821" lon="-0.05528">
        <ele>523</ele>
        <time>2020-09-12T21:57:05Z</time>
      </trkpt>
      <trkpt lat="43.14822" lon="-0.05532">
        <ele>523.2</ele>
        <time>2020-09-12T21:57:07Z</time>
      </trkpt>
      <trkpt lat="43.14822" lon="-0.05536">
        <ele>523.5</ele>
        <time>2020-09-12T21:57:09Z</time>
      </trkpt>
      <trkpt lat="43.14824" lon="-0.0554">
        <ele>523.8</ele>
        <time>2020-09-12T21:57:11Z</time>
      </trkpt>
      <trkpt lat="43.14826" lon="-0.05543">
        <ele>524.1</ele>
        <time>2020-09-12T21:57:13Z</time>
      </trkpt>
      <trkpt lat="43.1483" lon="-0.05546">
        <ele>524.5</ele>
        <time>2020-09-12T21:57:15Z</time>
      </trkpt>
      <trkpt lat="43.14831" lon="-0.0555">
        <ele>524.7</ele>
        <time>2020-09-12T21:57:17Z</time>
      </trkpt>
      <trkpt lat="43.14832" lon="-0.05554">
        <ele>525</ele>
        <time>2020-09-12T21:57:20Z</time>
      </trkpt>
      <trkpt lat="43.14833" lon="-0.05557">
        <ele>525.2</ele>
        <time>2020-09-12T21:57:24Z</time>
      </trkpt>
      <trkpt lat="43.14835" lon="-0.05561">
        <ele>525.5</ele>
        <time>2020-09-12T21:57:26Z</time>
      </trkpt>
      <trkpt lat="43.14838" lon="-0.05567">
        <ele>525.9</ele>
        <time>2020-09-12T21:57:29Z</time>
      </trkpt>
      <trkpt lat="43.1484" lon="-0.0557">
        <ele>526.1</ele>
        <time>2020-09-12T21:57:30Z</time>
      </trkpt>
      <trkpt lat="43.14843" lon="-0.05575">
        <ele>526.5</ele>
        <time>2020-09-12T21:57:32Z</time>
      </trkpt>
      <trkpt lat="43.14845" lon="-0.05579">
        <ele>526.8</ele>
        <time>2020-09-12T21:57:35Z</time>
      </trkpt>
      <trkpt lat="43.14848" lon="-0.05583">
        <ele>527</ele>
        <time>2020-09-12T21:57:38Z</time>
      </trkpt>
      <trkpt lat="43.1485" lon="-0.05587">
        <ele>527.3</ele>
        <time>2020-09-12T21:57:41Z</time>
      </trkpt>
      <trkpt lat="43.14852" lon="-0.0559">
        <ele>527.5</ele>
        <time>2020-09-12T21:57:43Z</time>
      </trkpt>
      <trkpt lat="43.14855" lon="-0.05592">
        <ele>527.8</ele>
        <time>2020-09-12T21:57:45Z</time>
      </trkpt>
      <trkpt lat="43.14857" lon="-0.05596">
        <ele>528.1</ele>
        <time>2020-09-12T21:57:47Z</time>
      </trkpt>
      <trkpt lat="43.14858" lon="-0.05601">
        <ele>528.5</ele>
        <time>2020-09-12T21:57:49Z</time>
      </trkpt>
      <trkpt lat="43.14859" lon="-0.05605">
        <ele>528.7</ele>
        <time>2020-09-12T21:57:51Z</time>
      </trkpt>
      <trkpt lat="43.14862" lon="-0.0561">
        <ele>529.1</ele>
        <time>2020-09-12T21:57:53Z</time>
      </trkpt>
      <trkpt lat="43.14864" lon="-0.05614">
        <ele>529.4</ele>
        <time>2020-09-12T21:57:55Z</time>
      </trkpt>
      <trkpt lat="43.14865" lon="-0.05619">
        <ele>529.8</ele>
        <time>2020-09-12T21:57:57Z</time>
      </trkpt>
      <trkpt lat="43.14867" lon="-0.05622">
        <ele>530.1</ele>
        <time>2020-09-12T21:57:59Z</time>
      </trkpt>
      <trkpt lat="43.14869" lon="-0.05625">
        <ele>530.4</ele>
        <time>2020-09-12T21:58:01Z</time>
      </trkpt>
      <trkpt lat="43.14873" lon="-0.05628">
        <ele>530.8</ele>
        <time>2020-09-12T21:58:04Z</time>
      </trkpt>
      <trkpt lat="43.14876" lon="-0.05625">
        <ele>533.3</ele>
        <time>2020-09-12T21:58:07Z</time>
      </trkpt>
      <trkpt lat="43.14877" lon="-0.05621">
        <ele>533.3</ele>
        <time>2020-09-12T21:58:09Z</time>
      </trkpt>
      <trkpt lat="43.14878" lon="-0.05615">
        <ele>533.3</ele>
        <time>2020-09-12T21:58:11Z</time>
      </trkpt>
      <trkpt lat="43.14878" lon="-0.0561">
        <ele>533.3</ele>
        <time>2020-09-12T21:58:13Z</time>
      </trkpt>
      <trkpt lat="43.14875" lon="-0.05606">
        <ele>533.3</ele>
        <time>2020-09-12T21:58:15Z</time>
      </trkpt>
      <trkpt lat="43.14874" lon="-0.05601">
        <ele>533.2</ele>
        <time>2020-09-12T21:58:16Z</time>
      </trkpt>
      <trkpt lat="43.14874" lon="-0.05597">
        <ele>533.2</ele>
        <time>2020-09-12T21:58:17Z</time>
      </trkpt>
      <trkpt lat="43.14872" lon="-0.05592">
        <ele>533.2</ele>
        <time>2020-09-12T21:58:18Z</time>
      </trkpt>
      <trkpt lat="43.14871" lon="-0.05587">
        <ele>533.2</ele>
        <time>2020-09-12T21:58:19Z</time>
      </trkpt>
      <trkpt lat="43.1487" lon="-0.05581">
        <ele>533.2</ele>
        <time>2020-09-12T21:58:20Z</time>
      </trkpt>
      <trkpt lat="43.14868" lon="-0.05575">
        <ele>533.1</ele>
        <time>2020-09-12T21:58:21Z</time>
      </trkpt>
      <trkpt lat="43.14867" lon="-0.05568">
        <ele>533.1</ele>
        <time>2020-09-12T21:58:22Z</time>
      </trkpt>
      <trkpt lat="43.14865" lon="-0.05561">
        <ele>533.1</ele>
        <time>2020-09-12T21:58:23Z</time>
      </trkpt>
      <trkpt lat="43.14864" lon="-0.05554">
        <ele>533.1</ele>
        <time>2020-09-12T21:58:24Z</time>
      </trkpt>
      <trkpt lat="43.14862" lon="-0.05547">
        <ele>533</ele>
        <time>2020-09-12T21:58:25Z</time>
      </trkpt>
      <trkpt lat="43.1486" lon="-0.05539">
        <ele>533</ele>
        <time>2020-09-12T21:58:26Z</time>
      </trkpt>
      <trkpt lat="43.14859" lon="-0.05532">
        <ele>533</ele>
        <time>2020-09-12T21:58:27Z</time>
      </trkpt>
      <trkpt lat="43.14857" lon="-0.05524">
        <ele>533</ele>
        <time>2020-09-12T21:58:28Z</time>
      </trkpt>
      <trkpt lat="43.14856" lon="-0.05516">
        <ele>533</ele>
        <time>2020-09-12T21:58:29Z</time>
      </trkpt>
      <trkpt lat="43.14854" lon="-0.05508">
        <ele>533</ele>
        <time>2020-09-12T21:58:30Z</time>
      </trkpt>
      <trkpt lat="43.14853" lon="-0.05501">
        <ele>532.9</ele>
        <time>2020-09-12T21:58:31Z</time>
      </trkpt>
      <trkpt lat="43.14851" lon="-0.05492">
        <ele>532.9</ele>
        <time>2020-09-12T21:58:32Z</time>
      </trkpt>
      <trkpt lat="43.14852" lon="-0.05484">
        <ele>532.9</ele>
        <time>2020-09-12T21:58:33Z</time>
      </trkpt>
      <trkpt lat="43.14853" lon="-0.05476">
        <ele>532.9</ele>
        <time>2020-09-12T21:58:34Z</time>
      </trkpt>
      <trkpt lat="43.14857" lon="-0.0547">
        <ele>532.9</ele>
        <time>2020-09-12T21:58:35Z</time>
      </trkpt>
      <trkpt lat="43.14861" lon="-0.05465">
        <ele>532.8</ele>
        <time>2020-09-12T21:58:36Z</time>
      </trkpt>
      <trkpt lat="43.14865" lon="-0.05462">
        <ele>532.8</ele>
        <time>2020-09-12T21:58:37Z</time>
      </trkpt>
      <trkpt lat="43.1487" lon="-0.05459">
        <ele>532.8</ele>
        <time>2020-09-12T21:58:38Z</time>
      </trkpt>
      <trkpt lat="43.14874" lon="-0.05458">
        <ele>532.8</ele>
        <time>2020-09-12T21:58:39Z</time>
      </trkpt>
      <trkpt lat="43.14879" lon="-0.05457">
        <ele>532.7</ele>
        <time>2020-09-12T21:58:40Z</time>
      </trkpt>
      <trkpt lat="43.14884" lon="-0.05456">
        <ele>532.7</ele>
        <time>2020-09-12T21:58:41Z</time>
      </trkpt>
      <trkpt lat="43.14888" lon="-0.05455">
        <ele>532.7</ele>
        <time>2020-09-12T21:58:42Z</time>
      </trkpt>
      <trkpt lat="43.14893" lon="-0.05456">
        <ele>532.7</ele>
        <time>2020-09-12T21:58:43Z</time>
      </trkpt>
      <trkpt lat="43.14897" lon="-0.05457">
        <ele>532.6</ele>
        <time>2020-09-12T21:58:44Z</time>
      </trkpt>
      <trkpt lat="43.14902" lon="-0.05461">
        <ele>532.6</ele>
        <time>2020-09-12T21:58:45Z</time>
      </trkpt>
      <trkpt lat="43.14908" lon="-0.05459">
        <ele>532.5</ele>
        <time>2020-09-12T21:58:46Z</time>
      </trkpt>
      <trkpt lat="43.14912" lon="-0.05458">
        <ele>532.5</ele>
        <time>2020-09-12T21:58:47Z</time>
      </trkpt>
      <trkpt lat="43.14918" lon="-0.05457">
        <ele>532.5</ele>
        <time>2020-09-12T21:58:48Z</time>
      </trkpt>
      <trkpt lat="43.14923" lon="-0.05456">
        <ele>532.4</ele>
        <time>2020-09-12T21:58:49Z</time>
      </trkpt>
      <trkpt lat="43.14927" lon="-0.05454">
        <ele>532.4</ele>
        <time>2020-09-12T21:58:50Z</time>
      </trkpt>
      <trkpt lat="43.14932" lon="-0.05451">
        <ele>532.4</ele>
        <time>2020-09-12T21:58:51Z</time>
      </trkpt>
      <trkpt lat="43.14936" lon="-0.05447">
        <ele>532.3</ele>
        <time>2020-09-12T21:58:52Z</time>
      </trkpt>
      <trkpt lat="43.14941" lon="-0.05444">
        <ele>532.3</ele>
        <time>2020-09-12T21:58:53Z</time>
      </trkpt>
      <trkpt lat="43.14945" lon="-0.05438">
        <ele>532.2</ele>
        <time>2020-09-12T21:58:54Z</time>
      </trkpt>
      <trkpt lat="43.1495" lon="-0.05431">
        <ele>532.2</ele>
        <time>2020-09-12T21:58:55Z</time>
      </trkpt>
      <trkpt lat="43.14954" lon="-0.05426">
        <ele>532.1</ele>
        <time>2020-09-12T21:58:56Z</time>
      </trkpt>
      <trkpt lat="43.14958" lon="-0.05421">
        <ele>532.1</ele>
        <time>2020-09-12T21:58:57Z</time>
      </trkpt>
      <trkpt lat="43.14963" lon="-0.05413">
        <ele>532</ele>
        <time>2020-09-12T21:58:58Z</time>
      </trkpt>
      <trkpt lat="43.14967" lon="-0.05405">
        <ele>531.9</ele>
        <time>2020-09-12T21:58:59Z</time>
      </trkpt>
      <trkpt lat="43.1497" lon="-0.05397">
        <ele>531.8</ele>
        <time>2020-09-12T21:59:00Z</time>
      </trkpt>
      <trkpt lat="43.14973" lon="-0.05389">
        <ele>531.8</ele>
        <time>2020-09-12T21:59:01Z</time>
      </trkpt>
      <trkpt lat="43.14974" lon="-0.05381">
        <ele>531.7</ele>
        <time>2020-09-12T21:59:02Z</time>
      </trkpt>
      <trkpt lat="43.14976" lon="-0.05373">
        <ele>531.7</ele>
        <time>2020-09-12T21:59:03Z</time>
      </trkpt>
      <trkpt lat="43.14975" lon="-0.05364">
        <ele>531.6</ele>
        <time>2020-09-12T21:59:04Z</time>
      </trkpt>
      <trkpt lat="43.14975" lon="-0.05356">
        <ele>531.6</ele>
        <time>2020-09-12T21:59:05Z</time>
      </trkpt>
      <trkpt lat="43.14975" lon="-0.05347">
        <ele>531.6</ele>
        <time>2020-09-12T21:59:06Z</time>
      </trkpt>
      <trkpt lat="43.14975" lon="-0.05339">
        <ele>531.6</ele>
        <time>2020-09-12T21:59:07Z</time>
      </trkpt>
      <trkpt lat="43.14976" lon="-0.05331">
        <ele>531.6</ele>
        <time>2020-09-12T21:59:08Z</time>
      </trkpt>
      <trkpt lat="43.14978" lon="-0.05326">
        <ele>531.6</ele>
        <time>2020-09-12T21:59:09Z</time>
      </trkpt>
      <trkpt lat="43.14981" lon="-0.05322">
        <ele>531.6</ele>
        <time>2020-09-12T21:59:10Z</time>
      </trkpt>
      <trkpt lat="43.14984" lon="-0.0532">
        <ele>531.6</ele>
        <time>2020-09-12T21:59:11Z</time>
      </trkpt>
      <trkpt lat="43.14987" lon="-0.05319">
        <ele>531.6</ele>
        <time>2020-09-12T21:59:12Z</time>
      </trkpt>
      <trkpt lat="43.14991" lon="-0.05319">
        <ele>531.6</ele>
        <time>2020-09-12T21:59:13Z</time>
      </trkpt>
      <trkpt lat="43.14995" lon="-0.05317">
        <ele>531.7</ele>
        <time>2020-09-12T21:59:14Z</time>
      </trkpt>
      <trkpt lat="43.14998" lon="-0.05314">
        <ele>531.7</ele>
        <time>2020-09-12T21:59:15Z</time>
      </trkpt>
      <trkpt lat="43.15002" lon="-0.05313">
        <ele>531.7</ele>
        <time>2020-09-12T21:59:16Z</time>
      </trkpt>
      <trkpt lat="43.15005" lon="-0.05313">
        <ele>531.7</ele>
        <time>2020-09-12T21:59:17Z</time>
      </trkpt>
      <trkpt lat="43.15008" lon="-0.05313">
        <ele>531.7</ele>
        <time>2020-09-12T21:59:18Z</time>
      </trkpt>
      <trkpt lat="43.15011" lon="-0.05312">
        <ele>531.8</ele>
        <time>2020-09-12T21:59:19Z</time>
      </trkpt>
      <trkpt lat="43.15014" lon="-0.05309">
        <ele>531.8</ele>
        <time>2020-09-12T21:59:20Z</time>
      </trkpt>
      <trkpt lat="43.15018" lon="-0.05308">
        <ele>531.8</ele>
        <time>2020-09-12T21:59:22Z</time>
      </trkpt>
      <trkpt lat="43.15022" lon="-0.05307">
        <ele>531.8</ele>
        <time>2020-09-12T21:59:24Z</time>
      </trkpt>
      <trkpt lat="43.15027" lon="-0.05304">
        <ele>531.9</ele>
        <time>2020-09-12T21:59:25Z</time>
      </trkpt>
      <trkpt lat="43.1503" lon="-0.05301">
        <ele>531.9</ele>
        <time>2020-09-12T21:59:26Z</time>
      </trkpt>
      <trkpt lat="43.15033" lon="-0.053">
        <ele>532</ele>
        <time>2020-09-12T21:59:27Z</time>
      </trkpt>
      <trkpt lat="43.15039" lon="-0.05297">
        <ele>532</ele>
        <time>2020-09-12T21:59:29Z</time>
      </trkpt>
      <trkpt lat="43.15042" lon="-0.05294">
        <ele>532.1</ele>
        <time>2020-09-12T21:59:30Z</time>
      </trkpt>
      <trkpt lat="43.15045" lon="-0.05294">
        <ele>532.1</ele>
        <time>2020-09-12T21:59:31Z</time>
      </trkpt>
      <trkpt lat="43.15049" lon="-0.05293">
        <ele>532.2</ele>
        <time>2020-09-12T21:59:32Z</time>
      </trkpt>
      <trkpt lat="43.15052" lon="-0.05293">
        <ele>532.2</ele>
        <time>2020-09-12T21:59:33Z</time>
      </trkpt>
      <trkpt lat="43.15057" lon="-0.05292">
        <ele>532.3</ele>
        <time>2020-09-12T21:59:35Z</time>
      </trkpt>
      <trkpt lat="43.15059" lon="-0.05292">
        <ele>532.3</ele>
        <time>2020-09-12T21:59:36Z</time>
      </trkpt>
      <trkpt lat="43.15064" lon="-0.05291">
        <ele>532.3</ele>
        <time>2020-09-12T21:59:38Z</time>
      </trkpt>
      <trkpt lat="43.15068" lon="-0.05291">
        <ele>532.4</ele>
        <time>2020-09-12T21:59:40Z</time>
      </trkpt>
      <trkpt lat="43.15073" lon="-0.05291">
        <ele>532.4</ele>
        <time>2020-09-12T21:59:42Z</time>
      </trkpt>
      <trkpt lat="43.15078" lon="-0.05292">
        <ele>532.5</ele>
        <time>2020-09-12T21:59:44Z</time>
      </trkpt>
      <trkpt lat="43.15083" lon="-0.05294">
        <ele>532.6</ele>
        <time>2020-09-12T21:59:46Z</time>
      </trkpt>
      <trkpt lat="43.15089" lon="-0.05294">
        <ele>532.7</ele>
        <time>2020-09-12T21:59:48Z</time>
      </trkpt>
      <trkpt lat="43.15092" lon="-0.05295">
        <ele>532.7</ele>
        <time>2020-09-12T21:59:49Z</time>
      </trkpt>
      <trkpt lat="43.15095" lon="-0.05295">
        <ele>532.7</ele>
        <time>2020-09-12T21:59:50Z</time>
      </trkpt>
      <trkpt lat="43.15098" lon="-0.05296">
        <ele>532.8</ele>
        <time>2020-09-12T21:59:51Z</time>
      </trkpt>
      <trkpt lat="43.151" lon="-0.05297">
        <ele>532.8</ele>
        <time>2020-09-12T21:59:52Z</time>
      </trkpt>
      <trkpt lat="43.15104" lon="-0.05299">
        <ele>532.8</ele>
        <time>2020-09-12T21:59:53Z</time>
      </trkpt>
      <trkpt lat="43.15106" lon="-0.05301">
        <ele>532.9</ele>
        <time>2020-09-12T21:59:54Z</time>
      </trkpt>
      <trkpt lat="43.15111" lon="-0.05302">
        <ele>532.9</ele>
        <time>2020-09-12T21:59:56Z</time>
      </trkpt>
      <trkpt lat="43.15114" lon="-0.05301">
        <ele>533</ele>
        <time>2020-09-12T21:59:57Z</time>
      </trkpt>
      <trkpt lat="43.15117" lon="-0.05299">
        <ele>533</ele>
        <time>2020-09-12T21:59:58Z</time>
      </trkpt>
      <trkpt lat="43.15122" lon="-0.05292">
        <ele>533.1</ele>
        <time>2020-09-12T21:59:59Z</time>
      </trkpt>
      <trkpt lat="43.15126" lon="-0.05287">
        <ele>533.1</ele>
        <time>2020-09-12T22:00:00Z</time>
      </trkpt>
      <trkpt lat="43.15129" lon="-0.05283">
        <ele>533.2</ele>
        <time>2020-09-12T22:00:01Z</time>
      </trkpt>
      <trkpt lat="43.15132" lon="-0.0528">
        <ele>533.2</ele>
        <time>2020-09-12T22:00:02Z</time>
      </trkpt>
      <trkpt lat="43.15135" lon="-0.05278">
        <ele>533.2</ele>
        <time>2020-09-12T22:00:03Z</time>
      </trkpt>
      <trkpt lat="43.15138" lon="-0.05276">
        <ele>533.2</ele>
        <time>2020-09-12T22:00:04Z</time>
      </trkpt>
      <trkpt lat="43.15142" lon="-0.05273">
        <ele>533.3</ele>
        <time>2020-09-12T22:00:05Z</time>
      </trkpt>
      <trkpt lat="43.15146" lon="-0.05269">
        <ele>533.3</ele>
        <time>2020-09-12T22:00:06Z</time>
      </trkpt>
      <trkpt lat="43.15149" lon="-0.05267">
        <ele>533.3</ele>
        <time>2020-09-12T22:00:07Z</time>
      </trkpt>
      <trkpt lat="43.15152" lon="-0.05265">
        <ele>533.3</ele>
        <time>2020-09-12T22:00:08Z</time>
      </trkpt>
      <trkpt lat="43.15156" lon="-0.05263">
        <ele>533.3</ele>
        <time>2020-09-12T22:00:09Z</time>
      </trkpt>
      <trkpt lat="43.15159" lon="-0.05262">
        <ele>533.3</ele>
        <time>2020-09-12T22:00:10Z</time>
      </trkpt>
      <trkpt lat="43.15162" lon="-0.0526">
        <ele>533.3</ele>
        <time>2020-09-12T22:00:11Z</time>
      </trkpt>
      <trkpt lat="43.15166" lon="-0.05257">
        <ele>533.3</ele>
        <time>2020-09-12T22:00:12Z</time>
      </trkpt>
      <trkpt lat="43.15169" lon="-0.05254">
        <ele>533.4</ele>
        <time>2020-09-12T22:00:13Z</time>
      </trkpt>
      <trkpt lat="43.15173" lon="-0.05251">
        <ele>533.4</ele>
        <time>2020-09-12T22:00:14Z</time>
      </trkpt>
      <trkpt lat="43.15177" lon="-0.05248">
        <ele>533.4</ele>
        <time>2020-09-12T22:00:15Z</time>
      </trkpt>
      <trkpt lat="43.15181" lon="-0.05244">
        <ele>533.4</ele>
        <time>2020-09-12T22:00:16Z</time>
      </trkpt>
      <trkpt lat="43.15186" lon="-0.05241">
        <ele>533.4</ele>
        <time>2020-09-12T22:00:17Z</time>
      </trkpt>
      <trkpt lat="43.15192" lon="-0.0524">
        <ele>533.4</ele>
        <time>2020-09-12T22:00:18Z</time>
      </trkpt>
      <trkpt lat="43.15197" lon="-0.05239">
        <ele>533.4</ele>
        <time>2020-09-12T22:00:19Z</time>
      </trkpt>
      <trkpt lat="43.15204" lon="-0.05241">
        <ele>533.3</ele>
        <time>2020-09-12T22:00:20Z</time>
      </trkpt>
      <trkpt lat="43.15211" lon="-0.0524">
        <ele>533.3</ele>
        <time>2020-09-12T22:00:21Z</time>
      </trkpt>
      <trkpt lat="43.15218" lon="-0.05242">
        <ele>533.3</ele>
        <time>2020-09-12T22:00:22Z</time>
      </trkpt>
      <trkpt lat="43.15224" lon="-0.05244">
        <ele>533.3</ele>
        <time>2020-09-12T22:00:23Z</time>
      </trkpt>
      <trkpt lat="43.15231" lon="-0.05247">
        <ele>533.3</ele>
        <time>2020-09-12T22:00:24Z</time>
      </trkpt>
      <trkpt lat="43.15237" lon="-0.0525">
        <ele>533.2</ele>
        <time>2020-09-12T22:00:25Z</time>
      </trkpt>
      <trkpt lat="43.15243" lon="-0.05253">
        <ele>533.2</ele>
        <time>2020-09-12T22:00:26Z</time>
      </trkpt>
      <trkpt lat="43.15249" lon="-0.05258">
        <ele>533.2</ele>
        <time>2020-09-12T22:00:27Z</time>
      </trkpt>
      <trkpt lat="43.15256" lon="-0.05262">
        <ele>533.2</ele>
        <time>2020-09-12T22:00:28Z</time>
      </trkpt>
      <trkpt lat="43.15263" lon="-0.05267">
        <ele>533.2</ele>
        <time>2020-09-12T22:00:29Z</time>
      </trkpt>
      <trkpt lat="43.1527" lon="-0.05272">
        <ele>533.2</ele>
        <time>2020-09-12T22:00:30Z</time>
      </trkpt>
      <trkpt lat="43.15276" lon="-0.05277">
        <ele>533.2</ele>
        <time>2020-09-12T22:00:31Z</time>
      </trkpt>
      <trkpt lat="43.15283" lon="-0.05281">
        <ele>533.2</ele>
        <time>2020-09-12T22:00:32Z</time>
      </trkpt>
      <trkpt lat="43.1529" lon="-0.05284">
        <ele>533.2</ele>
        <time>2020-09-12T22:00:33Z</time>
      </trkpt>
      <trkpt lat="43.15299" lon="-0.05289">
        <ele>533.2</ele>
        <time>2020-09-12T22:00:34Z</time>
      </trkpt>
      <trkpt lat="43.15308" lon="-0.05291">
        <ele>533.2</ele>
        <time>2020-09-12T22:00:35Z</time>
      </trkpt>
      <trkpt lat="43.15317" lon="-0.05292">
        <ele>533.1</ele>
        <time>2020-09-12T22:00:36Z</time>
      </trkpt>
      <trkpt lat="43.15326" lon="-0.05292">
        <ele>533.1</ele>
        <time>2020-09-12T22:00:37Z</time>
      </trkpt>
      <trkpt lat="43.15335" lon="-0.05292">
        <ele>533</ele>
        <time>2020-09-12T22:00:38Z</time>
      </trkpt>
      <trkpt lat="43.15343" lon="-0.05292">
        <ele>533</ele>
        <time>2020-09-12T22:00:39Z</time>
      </trkpt>
      <trkpt lat="43.15351" lon="-0.05293">
        <ele>532.9</ele>
        <time>2020-09-12T22:00:40Z</time>
      </trkpt>
      <trkpt lat="43.1536" lon="-0.05296">
        <ele>532.9</ele>
        <time>2020-09-12T22:00:41Z</time>
      </trkpt>
      <trkpt lat="43.15369" lon="-0.05299">
        <ele>532.8</ele>
        <time>2020-09-12T22:00:42Z</time>
      </trkpt>
      <trkpt lat="43.15376" lon="-0.05305">
        <ele>532.8</ele>
        <time>2020-09-12T22:00:43Z</time>
      </trkpt>
      <trkpt lat="43.15384" lon="-0.05303">
        <ele>532.7</ele>
        <time>2020-09-12T22:00:44Z</time>
      </trkpt>
      <trkpt lat="43.15391" lon="-0.05303">
        <ele>532.6</ele>
        <time>2020-09-12T22:00:45Z</time>
      </trkpt>
      <trkpt lat="43.15398" lon="-0.05306">
        <ele>532.6</ele>
        <time>2020-09-12T22:00:46Z</time>
      </trkpt>
      <trkpt lat="43.15405" lon="-0.05305">
        <ele>532.6</ele>
        <time>2020-09-12T22:00:47Z</time>
      </trkpt>
      <trkpt lat="43.15411" lon="-0.05304">
        <ele>532.5</ele>
        <time>2020-09-12T22:00:48Z</time>
      </trkpt>
      <trkpt lat="43.15416" lon="-0.05301">
        <ele>532.5</ele>
        <time>2020-09-12T22:00:49Z</time>
      </trkpt>
      <trkpt lat="43.15421" lon="-0.05296">
        <ele>532.4</ele>
        <time>2020-09-12T22:00:50Z</time>
      </trkpt>
      <trkpt lat="43.15425" lon="-0.0529">
        <ele>532.4</ele>
        <time>2020-09-12T22:00:51Z</time>
      </trkpt>
      <trkpt lat="43.15429" lon="-0.05283">
        <ele>532.4</ele>
        <time>2020-09-12T22:00:52Z</time>
      </trkpt>
      <trkpt lat="43.15433" lon="-0.05277">
        <ele>532.3</ele>
        <time>2020-09-12T22:00:53Z</time>
      </trkpt>
      <trkpt lat="43.15438" lon="-0.05274">
        <ele>532.3</ele>
        <time>2020-09-12T22:00:54Z</time>
      </trkpt>
      <trkpt lat="43.15442" lon="-0.0527">
        <ele>532.3</ele>
        <time>2020-09-12T22:00:55Z</time>
      </trkpt>
      <trkpt lat="43.15447" lon="-0.05265">
        <ele>532.2</ele>
        <time>2020-09-12T22:00:56Z</time>
      </trkpt>
      <trkpt lat="43.15451" lon="-0.0526">
        <ele>532.2</ele>
        <time>2020-09-12T22:00:57Z</time>
      </trkpt>
      <trkpt lat="43.15455" lon="-0.05254">
        <ele>532.2</ele>
        <time>2020-09-12T22:00:58Z</time>
      </trkpt>
      <trkpt lat="43.1546" lon="-0.05245">
        <ele>532.1</ele>
        <time>2020-09-12T22:00:59Z</time>
      </trkpt>
      <trkpt lat="43.15464" lon="-0.05238">
        <ele>532.1</ele>
        <time>2020-09-12T22:01:00Z</time>
      </trkpt>
      <trkpt lat="43.15468" lon="-0.0523">
        <ele>532</ele>
        <time>2020-09-12T22:01:01Z</time>
      </trkpt>
      <trkpt lat="43.15472" lon="-0.05224">
        <ele>532</ele>
        <time>2020-09-12T22:01:02Z</time>
      </trkpt>
      <trkpt lat="43.15476" lon="-0.05217">
        <ele>531.9</ele>
        <time>2020-09-12T22:01:03Z</time>
      </trkpt>
      <trkpt lat="43.15481" lon="-0.05212">
        <ele>531.9</ele>
        <time>2020-09-12T22:01:04Z</time>
      </trkpt>
      <trkpt lat="43.15485" lon="-0.05206">
        <ele>531.8</ele>
        <time>2020-09-12T22:01:05Z</time>
      </trkpt>
      <trkpt lat="43.15489" lon="-0.05201">
        <ele>531.8</ele>
        <time>2020-09-12T22:01:06Z</time>
      </trkpt>
      <trkpt lat="43.15494" lon="-0.05196">
        <ele>531.7</ele>
        <time>2020-09-12T22:01:07Z</time>
      </trkpt>
      <trkpt lat="43.15498" lon="-0.05191">
        <ele>531.7</ele>
        <time>2020-09-12T22:01:08Z</time>
      </trkpt>
      <trkpt lat="43.15502" lon="-0.05186">
        <ele>531.7</ele>
        <time>2020-09-12T22:01:09Z</time>
      </trkpt>
      <trkpt lat="43.15506" lon="-0.05181">
        <ele>531.7</ele>
        <time>2020-09-12T22:01:10Z</time>
      </trkpt>
      <trkpt lat="43.1551" lon="-0.05176">
        <ele>531.6</ele>
        <time>2020-09-12T22:01:11Z</time>
      </trkpt>
      <trkpt lat="43.15514" lon="-0.05172">
        <ele>531.6</ele>
        <time>2020-09-12T22:01:12Z</time>
      </trkpt>
      <trkpt lat="43.15518" lon="-0.05167">
        <ele>531.6</ele>
        <time>2020-09-12T22:01:13Z</time>
      </trkpt>
      <trkpt lat="43.15522" lon="-0.05163">
        <ele>531.5</ele>
        <time>2020-09-12T22:01:14Z</time>
      </trkpt>
      <trkpt lat="43.15526" lon="-0.05158">
        <ele>531.5</ele>
        <time>2020-09-12T22:01:15Z</time>
      </trkpt>
      <trkpt lat="43.1553" lon="-0.05154">
        <ele>531.5</ele>
        <time>2020-09-12T22:01:16Z</time>
      </trkpt>
      <trkpt lat="43.15534" lon="-0.05149">
        <ele>531.5</ele>
        <time>2020-09-12T22:01:17Z</time>
      </trkpt>
      <trkpt lat="43.15538" lon="-0.05146">
        <ele>531.5</ele>
        <time>2020-09-12T22:01:18Z</time>
      </trkpt>
      <trkpt lat="43.15542" lon="-0.05142">
        <ele>531.5</ele>
        <time>2020-09-12T22:01:19Z</time>
      </trkpt>
      <trkpt lat="43.15546" lon="-0.05138">
        <ele>531.5</ele>
        <time>2020-09-12T22:01:20Z</time>
      </trkpt>
      <trkpt lat="43.1555" lon="-0.05134">
        <ele>531.5</ele>
        <time>2020-09-12T22:01:21Z</time>
      </trkpt>
      <trkpt lat="43.15555" lon="-0.05132">
        <ele>531.5</ele>
        <time>2020-09-12T22:01:22Z</time>
      </trkpt>
      <trkpt lat="43.15559" lon="-0.0513">
        <ele>531.5</ele>
        <time>2020-09-12T22:01:23Z</time>
      </trkpt>
      <trkpt lat="43.15564" lon="-0.05128">
        <ele>531.5</ele>
        <time>2020-09-12T22:01:24Z</time>
      </trkpt>
      <trkpt lat="43.15569" lon="-0.05127">
        <ele>531.5</ele>
        <time>2020-09-12T22:01:25Z</time>
      </trkpt>
      <trkpt lat="43.15574" lon="-0.05127">
        <ele>531.5</ele>
        <time>2020-09-12T22:01:26Z</time>
      </trkpt>
      <trkpt lat="43.15579" lon="-0.05127">
        <ele>531.5</ele>
        <time>2020-09-12T22:01:27Z</time>
      </trkpt>
      <trkpt lat="43.15584" lon="-0.05128">
        <ele>531.5</ele>
        <time>2020-09-12T22:01:28Z</time>
      </trkpt>
      <trkpt lat="43.15589" lon="-0.05129">
        <ele>531.5</ele>
        <time>2020-09-12T22:01:29Z</time>
      </trkpt>
      <trkpt lat="43.15594" lon="-0.0513">
        <ele>531.5</ele>
        <time>2020-09-12T22:01:30Z</time>
      </trkpt>
      <trkpt lat="43.15598" lon="-0.05131">
        <ele>531.5</ele>
        <time>2020-09-12T22:01:31Z</time>
      </trkpt>
      <trkpt lat="43.15603" lon="-0.05132">
        <ele>531.5</ele>
        <time>2020-09-12T22:01:32Z</time>
      </trkpt>
      <trkpt lat="43.15608" lon="-0.05134">
        <ele>531.5</ele>
        <time>2020-09-12T22:01:33Z</time>
      </trkpt>
      <trkpt lat="43.15613" lon="-0.05135">
        <ele>531.6</ele>
        <time>2020-09-12T22:01:34Z</time>
      </trkpt>
      <trkpt lat="43.15618" lon="-0.05136">
        <ele>531.6</ele>
        <time>2020-09-12T22:01:35Z</time>
      </trkpt>
      <trkpt lat="43.15623" lon="-0.05138">
        <ele>531.6</ele>
        <time>2020-09-12T22:01:36Z</time>
      </trkpt>
      <trkpt lat="43.15628" lon="-0.05139">
        <ele>531.6</ele>
        <time>2020-09-12T22:01:37Z</time>
      </trkpt>
      <trkpt lat="43.15633" lon="-0.0514">
        <ele>531.6</ele>
        <time>2020-09-12T22:01:38Z</time>
      </trkpt>
      <trkpt lat="43.15638" lon="-0.05141">
        <ele>531.6</ele>
        <time>2020-09-12T22:01:39Z</time>
      </trkpt>
      <trkpt lat="43.15642" lon="-0.05143">
        <ele>531.7</ele>
        <time>2020-09-12T22:01:40Z</time>
      </trkpt>
      <trkpt lat="43.15647" lon="-0.05145">
        <ele>531.7</ele>
        <time>2020-09-12T22:01:41Z</time>
      </trkpt>
      <trkpt lat="43.15651" lon="-0.05147">
        <ele>531.7</ele>
        <time>2020-09-12T22:01:42Z</time>
      </trkpt>
      <trkpt lat="43.15656" lon="-0.05148">
        <ele>531.7</ele>
        <time>2020-09-12T22:01:43Z</time>
      </trkpt>
      <trkpt lat="43.15661" lon="-0.0515">
        <ele>531.7</ele>
        <time>2020-09-12T22:01:44Z</time>
      </trkpt>
      <trkpt lat="43.15666" lon="-0.05153">
        <ele>531.8</ele>
        <time>2020-09-12T22:01:45Z</time>
      </trkpt>
      <trkpt lat="43.1567" lon="-0.05155">
        <ele>531.8</ele>
        <time>2020-09-12T22:01:46Z</time>
      </trkpt>
      <trkpt lat="43.15674" lon="-0.05159">
        <ele>531.8</ele>
        <time>2020-09-12T22:01:47Z</time>
      </trkpt>
      <trkpt lat="43.15678" lon="-0.05162">
        <ele>531.8</ele>
        <time>2020-09-12T22:01:48Z</time>
      </trkpt>
      <trkpt lat="43.15681" lon="-0.05166">
        <ele>531.8</ele>
        <time>2020-09-12T22:01:49Z</time>
      </trkpt>
      <trkpt lat="43.15684" lon="-0.05171">
        <ele>531.8</ele>
        <time>2020-09-12T22:01:50Z</time>
      </trkpt>
      <trkpt lat="43.15687" lon="-0.05177">
        <ele>531.9</ele>
        <time>2020-09-12T22:01:51Z</time>
      </trkpt>
      <trkpt lat="43.15691" lon="-0.05182">
        <ele>531.9</ele>
        <time>2020-09-12T22:01:52Z</time>
      </trkpt>
      <trkpt lat="43.15693" lon="-0.05187">
        <ele>531.9</ele>
        <time>2020-09-12T22:01:53Z</time>
      </trkpt>
      <trkpt lat="43.15695" lon="-0.0519">
        <ele>531.9</ele>
        <time>2020-09-12T22:01:54Z</time>
      </trkpt>
      <trkpt lat="43.15696" lon="-0.05193">
        <ele>532</ele>
        <time>2020-09-12T22:01:58Z</time>
      </trkpt>
      <trkpt lat="43.15703" lon="-0.05185">
        <ele>532.1</ele>
        <time>2020-09-12T22:02:26Z</time>
      </trkpt>
      <trkpt lat="43.15704" lon="-0.05179">
        <ele>531.8</ele>
        <time>2020-09-12T22:02:28Z</time>
      </trkpt>
      <trkpt lat="43.15706" lon="-0.05173">
        <ele>531.7</ele>
        <time>2020-09-12T22:02:30Z</time>
      </trkpt>
      <trkpt lat="43.15707" lon="-0.05166">
        <ele>531.2</ele>
        <time>2020-09-12T22:02:32Z</time>
      </trkpt>
      <trkpt lat="43.15707" lon="-0.0516">
        <ele>530.8</ele>
        <time>2020-09-12T22:02:34Z</time>
      </trkpt>
      <trkpt lat="43.15706" lon="-0.05154">
        <ele>530.3</ele>
        <time>2020-09-12T22:02:36Z</time>
      </trkpt>
      <trkpt lat="43.15705" lon="-0.05147">
        <ele>529.9</ele>
        <time>2020-09-12T22:02:38Z</time>
      </trkpt>
      <trkpt lat="43.15706" lon="-0.05143">
        <ele>529.5</ele>
        <time>2020-09-12T22:02:39Z</time>
      </trkpt>
      <trkpt lat="43.15706" lon="-0.05138">
        <ele>529</ele>
        <time>2020-09-12T22:02:40Z</time>
      </trkpt>
      <trkpt lat="43.15707" lon="-0.05133">
        <ele>528.6</ele>
        <time>2020-09-12T22:02:41Z</time>
      </trkpt>
      <trkpt lat="43.15708" lon="-0.05128">
        <ele>527.8</ele>
        <time>2020-09-12T22:02:42Z</time>
      </trkpt>
      <trkpt lat="43.1571" lon="-0.05124">
        <ele>527.3</ele>
        <time>2020-09-12T22:02:43Z</time>
      </trkpt>
      <trkpt lat="43.15712" lon="-0.0512">
        <ele>527</ele>
        <time>2020-09-12T22:02:44Z</time>
      </trkpt>
      <trkpt lat="43.15714" lon="-0.05115">
        <ele>526.6</ele>
        <time>2020-09-12T22:02:45Z</time>
      </trkpt>
      <trkpt lat="43.15716" lon="-0.05112">
        <ele>526.6</ele>
        <time>2020-09-12T22:02:46Z</time>
      </trkpt>
      <trkpt lat="43.15718" lon="-0.0511">
        <ele>526.3</ele>
        <time>2020-09-12T22:02:47Z</time>
      </trkpt>
      <trkpt lat="43.15721" lon="-0.05107">
        <ele>526.1</ele>
        <time>2020-09-12T22:02:48Z</time>
      </trkpt>
      <trkpt lat="43.15724" lon="-0.05105">
        <ele>526.1</ele>
        <time>2020-09-12T22:02:49Z</time>
      </trkpt>
      <trkpt lat="43.15726" lon="-0.05103">
        <ele>526</ele>
        <time>2020-09-12T22:02:50Z</time>
      </trkpt>
      <trkpt lat="43.15729" lon="-0.051">
        <ele>525.8</ele>
        <time>2020-09-12T22:02:51Z</time>
      </trkpt>
      <trkpt lat="43.15732" lon="-0.05097">
        <ele>525.6</ele>
        <time>2020-09-12T22:02:52Z</time>
      </trkpt>
      <trkpt lat="43.15734" lon="-0.05093">
        <ele>525.3</ele>
        <time>2020-09-12T22:02:53Z</time>
      </trkpt>
      <trkpt lat="43.15736" lon="-0.05089">
        <ele>525</ele>
        <time>2020-09-12T22:02:54Z</time>
      </trkpt>
      <trkpt lat="43.15738" lon="-0.05084">
        <ele>524.6</ele>
        <time>2020-09-12T22:02:56Z</time>
      </trkpt>
      <trkpt lat="43.1574" lon="-0.05079">
        <ele>524.2</ele>
        <time>2020-09-12T22:02:58Z</time>
      </trkpt>
      <trkpt lat="43.15741" lon="-0.05075">
        <ele>523.8</ele>
        <time>2020-09-12T22:02:59Z</time>
      </trkpt>
      <trkpt lat="43.15742" lon="-0.05072">
        <ele>523.5</ele>
        <time>2020-09-12T22:03:00Z</time>
      </trkpt>
      <trkpt lat="43.15743" lon="-0.05067">
        <ele>523</ele>
        <time>2020-09-12T22:03:01Z</time>
      </trkpt>
      <trkpt lat="43.15744" lon="-0.05062">
        <ele>522.6</ele>
        <time>2020-09-12T22:03:02Z</time>
      </trkpt>
      <trkpt lat="43.15746" lon="-0.05056">
        <ele>522.4</ele>
        <time>2020-09-12T22:03:04Z</time>
      </trkpt>
      <trkpt lat="43.15748" lon="-0.05052">
        <ele>522</ele>
        <time>2020-09-12T22:03:06Z</time>
      </trkpt>
      <trkpt lat="43.1575" lon="-0.05047">
        <ele>521.9</ele>
        <time>2020-09-12T22:03:08Z</time>
      </trkpt>
      <trkpt lat="43.1575" lon="-0.05043">
        <ele>521.3</ele>
        <time>2020-09-12T22:03:10Z</time>
      </trkpt>
      <trkpt lat="43.15752" lon="-0.05037">
        <ele>521.1</ele>
        <time>2020-09-12T22:03:12Z</time>
      </trkpt>
      <trkpt lat="43.15755" lon="-0.05033">
        <ele>520.8</ele>
        <time>2020-09-12T22:03:14Z</time>
      </trkpt>
      <trkpt lat="43.15756" lon="-0.05029">
        <ele>520.6</ele>
        <time>2020-09-12T22:03:16Z</time>
      </trkpt>
      <trkpt lat="43.15756" lon="-0.05022">
        <ele>520.2</ele>
        <time>2020-09-12T22:03:18Z</time>
      </trkpt>
      <trkpt lat="43.15757" lon="-0.05018">
        <ele>519.9</ele>
        <time>2020-09-12T22:03:19Z</time>
      </trkpt>
      <trkpt lat="43.15757" lon="-0.05015">
        <ele>519.5</ele>
        <time>2020-09-12T22:03:20Z</time>
      </trkpt>
      <trkpt lat="43.15754" lon="-0.05007">
        <ele>518.8</ele>
        <time>2020-09-12T22:03:22Z</time>
      </trkpt>
      <trkpt lat="43.15753" lon="-0.05001">
        <ele>518.5</ele>
        <time>2020-09-12T22:03:24Z</time>
      </trkpt>
      <trkpt lat="43.15754" lon="-0.04997">
        <ele>518.1</ele>
        <time>2020-09-12T22:03:25Z</time>
      </trkpt>
      <trkpt lat="43.15756" lon="-0.04993">
        <ele>517.9</ele>
        <time>2020-09-12T22:03:26Z</time>
      </trkpt>
      <trkpt lat="43.15758" lon="-0.04988">
        <ele>517.6</ele>
        <time>2020-09-12T22:03:27Z</time>
      </trkpt>
      <trkpt lat="43.15759" lon="-0.04984">
        <ele>517.4</ele>
        <time>2020-09-12T22:03:28Z</time>
      </trkpt>
      <trkpt lat="43.1576" lon="-0.0498">
        <ele>517</ele>
        <time>2020-09-12T22:03:29Z</time>
      </trkpt>
      <trkpt lat="43.15761" lon="-0.04975">
        <ele>516.7</ele>
        <time>2020-09-12T22:03:30Z</time>
      </trkpt>
      <trkpt lat="43.15761" lon="-0.04969">
        <ele>516.3</ele>
        <time>2020-09-12T22:03:31Z</time>
      </trkpt>
      <trkpt lat="43.15762" lon="-0.04965">
        <ele>515.9</ele>
        <time>2020-09-12T22:03:32Z</time>
      </trkpt>
      <trkpt lat="43.15763" lon="-0.0496">
        <ele>515.6</ele>
        <time>2020-09-12T22:03:33Z</time>
      </trkpt>
      <trkpt lat="43.15764" lon="-0.04956">
        <ele>515.3</ele>
        <time>2020-09-12T22:03:34Z</time>
      </trkpt>
      <trkpt lat="43.15765" lon="-0.04951">
        <ele>515.1</ele>
        <time>2020-09-12T22:03:35Z</time>
      </trkpt>
      <trkpt lat="43.15766" lon="-0.04946">
        <ele>514.8</ele>
        <time>2020-09-12T22:03:36Z</time>
      </trkpt>
      <trkpt lat="43.15768" lon="-0.0494">
        <ele>514.5</ele>
        <time>2020-09-12T22:03:37Z</time>
      </trkpt>
      <trkpt lat="43.1577" lon="-0.04935">
        <ele>514</ele>
        <time>2020-09-12T22:03:38Z</time>
      </trkpt>
      <trkpt lat="43.15773" lon="-0.0493">
        <ele>513.7</ele>
        <time>2020-09-12T22:03:39Z</time>
      </trkpt>
      <trkpt lat="43.15775" lon="-0.04926">
        <ele>513.5</ele>
        <time>2020-09-12T22:03:40Z</time>
      </trkpt>
      <trkpt lat="43.15778" lon="-0.04921">
        <ele>513.2</ele>
        <time>2020-09-12T22:03:41Z</time>
      </trkpt>
      <trkpt lat="43.1578" lon="-0.04916">
        <ele>512.9</ele>
        <time>2020-09-12T22:03:42Z</time>
      </trkpt>
      <trkpt lat="43.15782" lon="-0.04911">
        <ele>512.5</ele>
        <time>2020-09-12T22:03:43Z</time>
      </trkpt>
      <trkpt lat="43.15784" lon="-0.04907">
        <ele>512.1</ele>
        <time>2020-09-12T22:03:44Z</time>
      </trkpt>
      <trkpt lat="43.15787" lon="-0.04906">
        <ele>512</ele>
        <time>2020-09-12T22:03:45Z</time>
      </trkpt>
      <trkpt lat="43.15792" lon="-0.04901">
        <ele>511</ele>
        <time>2020-09-12T22:03:47Z</time>
      </trkpt>
      <trkpt lat="43.15795" lon="-0.04899">
        <ele>510.9</ele>
        <time>2020-09-12T22:03:48Z</time>
      </trkpt>
      <trkpt lat="43.15798" lon="-0.04899">
        <ele>510.6</ele>
        <time>2020-09-12T22:03:50Z</time>
      </trkpt>
      <trkpt lat="43.15801" lon="-0.04898">
        <ele>510.3</ele>
        <time>2020-09-12T22:03:51Z</time>
      </trkpt>
      <trkpt lat="43.15804" lon="-0.04897">
        <ele>510</ele>
        <time>2020-09-12T22:03:52Z</time>
      </trkpt>
      <trkpt lat="43.15807" lon="-0.04897">
        <ele>509.1</ele>
        <time>2020-09-12T22:03:53Z</time>
      </trkpt>
      <trkpt lat="43.1581" lon="-0.04896">
        <ele>508.7</ele>
        <time>2020-09-12T22:03:54Z</time>
      </trkpt>
      <trkpt lat="43.15814" lon="-0.04892">
        <ele>507.7</ele>
        <time>2020-09-12T22:03:58Z</time>
      </trkpt>
      <trkpt lat="43.15813" lon="-0.04886">
        <ele>507.1</ele>
        <time>2020-09-12T22:03:59Z</time>
      </trkpt>
      <trkpt lat="43.15816" lon="-0.04877">
        <ele>505.8</ele>
        <time>2020-09-12T22:04:00Z</time>
      </trkpt>
      <trkpt lat="43.15819" lon="-0.0487">
        <ele>504.5</ele>
        <time>2020-09-12T22:04:01Z</time>
      </trkpt>
      <trkpt lat="43.15822" lon="-0.04866">
        <ele>503.7</ele>
        <time>2020-09-12T22:04:02Z</time>
      </trkpt>
      <trkpt lat="43.15825" lon="-0.04863">
        <ele>503.3</ele>
        <time>2020-09-12T22:04:03Z</time>
      </trkpt>
      <trkpt lat="43.15828" lon="-0.0486">
        <ele>502.4</ele>
        <time>2020-09-12T22:04:04Z</time>
      </trkpt>
      <trkpt lat="43.15831" lon="-0.04856">
        <ele>501.6</ele>
        <time>2020-09-12T22:04:05Z</time>
      </trkpt>
      <trkpt lat="43.15834" lon="-0.04851">
        <ele>500.7</ele>
        <time>2020-09-12T22:04:06Z</time>
      </trkpt>
      <trkpt lat="43.15836" lon="-0.04847">
        <ele>500.2</ele>
        <time>2020-09-12T22:04:07Z</time>
      </trkpt>
      <trkpt lat="43.15839" lon="-0.04845">
        <ele>499.2</ele>
        <time>2020-09-12T22:04:08Z</time>
      </trkpt>
      <trkpt lat="43.15841" lon="-0.04842">
        <ele>498.7</ele>
        <time>2020-09-12T22:04:09Z</time>
      </trkpt>
      <trkpt lat="43.15845" lon="-0.04839">
        <ele>497.7</ele>
        <time>2020-09-12T22:04:10Z</time>
      </trkpt>
      <trkpt lat="43.15848" lon="-0.04838">
        <ele>497.1</ele>
        <time>2020-09-12T22:04:11Z</time>
      </trkpt>
      <trkpt lat="43.15851" lon="-0.04835">
        <ele>496.1</ele>
        <time>2020-09-12T22:04:13Z</time>
      </trkpt>
      <trkpt lat="43.15855" lon="-0.04829">
        <ele>495.1</ele>
        <time>2020-09-12T22:04:15Z</time>
      </trkpt>
      <trkpt lat="43.15857" lon="-0.04828">
        <ele>494.3</ele>
        <time>2020-09-12T22:04:16Z</time>
      </trkpt>
      <trkpt lat="43.15858" lon="-0.04824">
        <ele>493.8</ele>
        <time>2020-09-12T22:04:17Z</time>
      </trkpt>
      <trkpt lat="43.15859" lon="-0.04816">
        <ele>492.2</ele>
        <time>2020-09-12T22:04:18Z</time>
      </trkpt>
      <trkpt lat="43.15862" lon="-0.0481">
        <ele>491.1</ele>
        <time>2020-09-12T22:04:19Z</time>
      </trkpt>
      <trkpt lat="43.15863" lon="-0.04802">
        <ele>490.1</ele>
        <time>2020-09-12T22:04:20Z</time>
      </trkpt>
      <trkpt lat="43.15864" lon="-0.04796">
        <ele>489.2</ele>
        <time>2020-09-12T22:04:21Z</time>
      </trkpt>
      <trkpt lat="43.15866" lon="-0.04788">
        <ele>488.1</ele>
        <time>2020-09-12T22:04:22Z</time>
      </trkpt>
      <trkpt lat="43.15867" lon="-0.04782">
        <ele>487.6</ele>
        <time>2020-09-12T22:04:23Z</time>
      </trkpt>
      <trkpt lat="43.15867" lon="-0.04777">
        <ele>487.2</ele>
        <time>2020-09-12T22:04:24Z</time>
      </trkpt>
      <trkpt lat="43.15866" lon="-0.04772">
        <ele>486.7</ele>
        <time>2020-09-12T22:04:25Z</time>
      </trkpt>
      <trkpt lat="43.15865" lon="-0.04768">
        <ele>486.3</ele>
        <time>2020-09-12T22:04:26Z</time>
      </trkpt>
      <trkpt lat="43.15865" lon="-0.04762">
        <ele>485.5</ele>
        <time>2020-09-12T22:04:27Z</time>
      </trkpt>
      <trkpt lat="43.15867" lon="-0.04758">
        <ele>484.7</ele>
        <time>2020-09-12T22:04:28Z</time>
      </trkpt>
      <trkpt lat="43.15871" lon="-0.04752">
        <ele>483.7</ele>
        <time>2020-09-12T22:04:29Z</time>
      </trkpt>
      <trkpt lat="43.15874" lon="-0.04746">
        <ele>482.7</ele>
        <time>2020-09-12T22:04:30Z</time>
      </trkpt>
      <trkpt lat="43.15877" lon="-0.04739">
        <ele>481.9</ele>
        <time>2020-09-12T22:04:31Z</time>
      </trkpt>
      <trkpt lat="43.15878" lon="-0.04734">
        <ele>481.3</ele>
        <time>2020-09-12T22:04:32Z</time>
      </trkpt>
      <trkpt lat="43.15878" lon="-0.0473">
        <ele>480.7</ele>
        <time>2020-09-12T22:04:33Z</time>
      </trkpt>
      <trkpt lat="43.15878" lon="-0.04725">
        <ele>480.2</ele>
        <time>2020-09-12T22:04:34Z</time>
      </trkpt>
      <trkpt lat="43.1588" lon="-0.04721">
        <ele>479.8</ele>
        <time>2020-09-12T22:04:35Z</time>
      </trkpt>
      <trkpt lat="43.15883" lon="-0.04719">
        <ele>479.3</ele>
        <time>2020-09-12T22:04:36Z</time>
      </trkpt>
      <trkpt lat="43.15887" lon="-0.04715">
        <ele>478.6</ele>
        <time>2020-09-12T22:04:37Z</time>
      </trkpt>
      <trkpt lat="43.15891" lon="-0.04711">
        <ele>477.6</ele>
        <time>2020-09-12T22:04:38Z</time>
      </trkpt>
      <trkpt lat="43.15894" lon="-0.04705">
        <ele>476.7</ele>
        <time>2020-09-12T22:04:39Z</time>
      </trkpt>
      <trkpt lat="43.15898" lon="-0.04699">
        <ele>475.7</ele>
        <time>2020-09-12T22:04:40Z</time>
      </trkpt>
      <trkpt lat="43.15901" lon="-0.04693">
        <ele>474.8</ele>
        <time>2020-09-12T22:04:41Z</time>
      </trkpt>
      <trkpt lat="43.15903" lon="-0.04687">
        <ele>473.8</ele>
        <time>2020-09-12T22:04:42Z</time>
      </trkpt>
      <trkpt lat="43.15905" lon="-0.04676">
        <ele>472.3</ele>
        <time>2020-09-12T22:04:43Z</time>
      </trkpt>
      <trkpt lat="43.15908" lon="-0.04668">
        <ele>471.2</ele>
        <time>2020-09-12T22:04:44Z</time>
      </trkpt>
      <trkpt lat="43.15909" lon="-0.04659">
        <ele>469.9</ele>
        <time>2020-09-12T22:04:45Z</time>
      </trkpt>
      <trkpt lat="43.15908" lon="-0.04653">
        <ele>468.7</ele>
        <time>2020-09-12T22:04:46Z</time>
      </trkpt>
      <trkpt lat="43.15907" lon="-0.04645">
        <ele>467.4</ele>
        <time>2020-09-12T22:04:47Z</time>
      </trkpt>
      <trkpt lat="43.15907" lon="-0.04636">
        <ele>466.2</ele>
        <time>2020-09-12T22:04:48Z</time>
      </trkpt>
      <trkpt lat="43.15907" lon="-0.04631">
        <ele>465.5</ele>
        <time>2020-09-12T22:04:49Z</time>
      </trkpt>
      <trkpt lat="43.15906" lon="-0.04625">
        <ele>465.1</ele>
        <time>2020-09-12T22:04:50Z</time>
      </trkpt>
      <trkpt lat="43.15909" lon="-0.04621">
        <ele>464.7</ele>
        <time>2020-09-12T22:04:52Z</time>
      </trkpt>
      <trkpt lat="43.15913" lon="-0.04621">
        <ele>464.3</ele>
        <time>2020-09-12T22:04:56Z</time>
      </trkpt>
      <trkpt lat="43.15917" lon="-0.04621">
        <ele>463.9</ele>
        <time>2020-09-12T22:04:58Z</time>
      </trkpt>
      <trkpt lat="43.1592" lon="-0.04621">
        <ele>463.6</ele>
        <time>2020-09-12T22:04:59Z</time>
      </trkpt>
      <trkpt lat="43.15923" lon="-0.0462">
        <ele>463.3</ele>
        <time>2020-09-12T22:05:00Z</time>
      </trkpt>
      <trkpt lat="43.15926" lon="-0.04618">
        <ele>463</ele>
        <time>2020-09-12T22:05:01Z</time>
      </trkpt>
      <trkpt lat="43.15931" lon="-0.04618">
        <ele>462.7</ele>
        <time>2020-09-12T22:05:03Z</time>
      </trkpt>
      <trkpt lat="43.15935" lon="-0.04615">
        <ele>462.3</ele>
        <time>2020-09-12T22:05:04Z</time>
      </trkpt>
      <trkpt lat="43.15941" lon="-0.04612">
        <ele>461.6</ele>
        <time>2020-09-12T22:05:05Z</time>
      </trkpt>
      <trkpt lat="43.15946" lon="-0.04609">
        <ele>461.2</ele>
        <time>2020-09-12T22:05:06Z</time>
      </trkpt>
      <trkpt lat="43.1595" lon="-0.04606">
        <ele>460.8</ele>
        <time>2020-09-12T22:05:07Z</time>
      </trkpt>
      <trkpt lat="43.15954" lon="-0.04601">
        <ele>460.4</ele>
        <time>2020-09-12T22:05:08Z</time>
      </trkpt>
      <trkpt lat="43.15959" lon="-0.04596">
        <ele>459.8</ele>
        <time>2020-09-12T22:05:09Z</time>
      </trkpt>
      <trkpt lat="43.15963" lon="-0.04588">
        <ele>459</ele>
        <time>2020-09-12T22:05:10Z</time>
      </trkpt>
      <trkpt lat="43.15968" lon="-0.04579">
        <ele>457.6</ele>
        <time>2020-09-12T22:05:11Z</time>
      </trkpt>
      <trkpt lat="43.15973" lon="-0.04571">
        <ele>456.6</ele>
        <time>2020-09-12T22:05:12Z</time>
      </trkpt>
      <trkpt lat="43.15976" lon="-0.04561">
        <ele>455.5</ele>
        <time>2020-09-12T22:05:13Z</time>
      </trkpt>
      <trkpt lat="43.15979" lon="-0.04554">
        <ele>454.5</ele>
        <time>2020-09-12T22:05:14Z</time>
      </trkpt>
      <trkpt lat="43.15982" lon="-0.04549">
        <ele>453.9</ele>
        <time>2020-09-12T22:05:15Z</time>
      </trkpt>
      <trkpt lat="43.15984" lon="-0.04544">
        <ele>453.2</ele>
        <time>2020-09-12T22:05:16Z</time>
      </trkpt>
      <trkpt lat="43.15986" lon="-0.04537">
        <ele>452.1</ele>
        <time>2020-09-12T22:05:17Z</time>
      </trkpt>
      <trkpt lat="43.15988" lon="-0.0453">
        <ele>450.9</ele>
        <time>2020-09-12T22:05:18Z</time>
      </trkpt>
      <trkpt lat="43.15992" lon="-0.04525">
        <ele>449.9</ele>
        <time>2020-09-12T22:05:19Z</time>
      </trkpt>
      <trkpt lat="43.15998" lon="-0.04519">
        <ele>448.6</ele>
        <time>2020-09-12T22:05:20Z</time>
      </trkpt>
      <trkpt lat="43.16002" lon="-0.04513">
        <ele>447.5</ele>
        <time>2020-09-12T22:05:21Z</time>
      </trkpt>
      <trkpt lat="43.16006" lon="-0.04509">
        <ele>446.5</ele>
        <time>2020-09-12T22:05:22Z</time>
      </trkpt>
      <trkpt lat="43.16009" lon="-0.04505">
        <ele>445.6</ele>
        <time>2020-09-12T22:05:23Z</time>
      </trkpt>
      <trkpt lat="43.16013" lon="-0.045">
        <ele>444.2</ele>
        <time>2020-09-12T22:05:24Z</time>
      </trkpt>
      <trkpt lat="43.16017" lon="-0.04494">
        <ele>442.8</ele>
        <time>2020-09-12T22:05:25Z</time>
      </trkpt>
      <trkpt lat="43.16022" lon="-0.04487">
        <ele>441.4</ele>
        <time>2020-09-12T22:05:26Z</time>
      </trkpt>
      <trkpt lat="43.16027" lon="-0.04481">
        <ele>439.6</ele>
        <time>2020-09-12T22:05:27Z</time>
      </trkpt>
      <trkpt lat="43.16032" lon="-0.04475">
        <ele>437.9</ele>
        <time>2020-09-12T22:05:28Z</time>
      </trkpt>
      <trkpt lat="43.16033" lon="-0.04469">
        <ele>436.6</ele>
        <time>2020-09-12T22:05:29Z</time>
      </trkpt>
      <trkpt lat="43.16036" lon="-0.04462">
        <ele>435.2</ele>
        <time>2020-09-12T22:05:30Z</time>
      </trkpt>
      <trkpt lat="43.16038" lon="-0.04457">
        <ele>434.2</ele>
        <time>2020-09-12T22:05:31Z</time>
      </trkpt>
      <trkpt lat="43.16041" lon="-0.04454">
        <ele>433.3</ele>
        <time>2020-09-12T22:05:32Z</time>
      </trkpt>
      <trkpt lat="43.16044" lon="-0.04451">
        <ele>432.5</ele>
        <time>2020-09-12T22:05:34Z</time>
      </trkpt>
      <trkpt lat="43.16047" lon="-0.04444">
        <ele>431.6</ele>
        <time>2020-09-12T22:05:36Z</time>
      </trkpt>
      <trkpt lat="43.16049" lon="-0.0444">
        <ele>431.1</ele>
        <time>2020-09-12T22:05:37Z</time>
      </trkpt>
      <trkpt lat="43.1605" lon="-0.04434">
        <ele>430.5</ele>
        <time>2020-09-12T22:05:38Z</time>
      </trkpt>
      <trkpt lat="43.16051" lon="-0.04429">
        <ele>429.8</ele>
        <time>2020-09-12T22:05:39Z</time>
      </trkpt>
      <trkpt lat="43.16054" lon="-0.04424">
        <ele>429.4</ele>
        <time>2020-09-12T22:05:40Z</time>
      </trkpt>
      <trkpt lat="43.16055" lon="-0.04419">
        <ele>428.9</ele>
        <time>2020-09-12T22:05:41Z</time>
      </trkpt>
      <trkpt lat="43.16056" lon="-0.04413">
        <ele>428.4</ele>
        <time>2020-09-12T22:05:42Z</time>
      </trkpt>
      <trkpt lat="43.16059" lon="-0.04408">
        <ele>427.9</ele>
        <time>2020-09-12T22:05:43Z</time>
      </trkpt>
      <trkpt lat="43.16062" lon="-0.04403">
        <ele>427.4</ele>
        <time>2020-09-12T22:05:44Z</time>
      </trkpt>
      <trkpt lat="43.16065" lon="-0.04398">
        <ele>426.9</ele>
        <time>2020-09-12T22:05:45Z</time>
      </trkpt>
      <trkpt lat="43.1607" lon="-0.04393">
        <ele>426.4</ele>
        <time>2020-09-12T22:05:46Z</time>
      </trkpt>
      <trkpt lat="43.16075" lon="-0.04388">
        <ele>425.9</ele>
        <time>2020-09-12T22:05:47Z</time>
      </trkpt>
      <trkpt lat="43.16081" lon="-0.04382">
        <ele>425.4</ele>
        <time>2020-09-12T22:05:48Z</time>
      </trkpt>
      <trkpt lat="43.16088" lon="-0.04378">
        <ele>424.5</ele>
        <time>2020-09-12T22:05:49Z</time>
      </trkpt>
      <trkpt lat="43.16093" lon="-0.04373">
        <ele>423.6</ele>
        <time>2020-09-12T22:05:50Z</time>
      </trkpt>
      <trkpt lat="43.16097" lon="-0.04367">
        <ele>422.6</ele>
        <time>2020-09-12T22:05:51Z</time>
      </trkpt>
      <trkpt lat="43.16103" lon="-0.0436">
        <ele>421.4</ele>
        <time>2020-09-12T22:05:52Z</time>
      </trkpt>
      <trkpt lat="43.16109" lon="-0.04353">
        <ele>420</ele>
        <time>2020-09-12T22:05:53Z</time>
      </trkpt>
      <trkpt lat="43.16116" lon="-0.04346">
        <ele>418.7</ele>
        <time>2020-09-12T22:05:54Z</time>
      </trkpt>
      <trkpt lat="43.16122" lon="-0.04341">
        <ele>417.5</ele>
        <time>2020-09-12T22:05:55Z</time>
      </trkpt>
      <trkpt lat="43.16128" lon="-0.04336">
        <ele>416.9</ele>
        <time>2020-09-12T22:05:56Z</time>
      </trkpt>
      <trkpt lat="43.16133" lon="-0.04332">
        <ele>416.4</ele>
        <time>2020-09-12T22:05:57Z</time>
      </trkpt>
      <trkpt lat="43.16137" lon="-0.04331">
        <ele>416</ele>
        <time>2020-09-12T22:05:58Z</time>
      </trkpt>
      <trkpt lat="43.1614" lon="-0.0433">
        <ele>415.6</ele>
        <time>2020-09-12T22:05:59Z</time>
      </trkpt>
      <trkpt lat="43.16146" lon="-0.0433">
        <ele>414.8</ele>
        <time>2020-09-12T22:06:00Z</time>
      </trkpt>
      <trkpt lat="43.16151" lon="-0.04329">
        <ele>414.2</ele>
        <time>2020-09-12T22:06:01Z</time>
      </trkpt>
      <trkpt lat="43.16155" lon="-0.04329">
        <ele>413.8</ele>
        <time>2020-09-12T22:06:02Z</time>
      </trkpt>
      <trkpt lat="43.16159" lon="-0.04328">
        <ele>413.1</ele>
        <time>2020-09-12T22:06:03Z</time>
      </trkpt>
      <trkpt lat="43.16166" lon="-0.04327">
        <ele>412.4</ele>
        <time>2020-09-12T22:06:04Z</time>
      </trkpt>
      <trkpt lat="43.16172" lon="-0.04326">
        <ele>411.7</ele>
        <time>2020-09-12T22:06:05Z</time>
      </trkpt>
      <trkpt lat="43.16179" lon="-0.04327">
        <ele>411</ele>
        <time>2020-09-12T22:06:06Z</time>
      </trkpt>
      <trkpt lat="43.16186" lon="-0.04329">
        <ele>410.3</ele>
        <time>2020-09-12T22:06:07Z</time>
      </trkpt>
      <trkpt lat="43.16191" lon="-0.04329">
        <ele>409.6</ele>
        <time>2020-09-12T22:06:08Z</time>
      </trkpt>
      <trkpt lat="43.16197" lon="-0.04329">
        <ele>408.9</ele>
        <time>2020-09-12T22:06:09Z</time>
      </trkpt>
      <trkpt lat="43.16201" lon="-0.04327">
        <ele>408.5</ele>
        <time>2020-09-12T22:06:10Z</time>
      </trkpt>
      <trkpt lat="43.16206" lon="-0.04328">
        <ele>407.9</ele>
        <time>2020-09-12T22:06:12Z</time>
      </trkpt>
      <trkpt lat="43.16209" lon="-0.04328">
        <ele>407.8</ele>
        <time>2020-09-12T22:06:13Z</time>
      </trkpt>
      <trkpt lat="43.16212" lon="-0.04328">
        <ele>407.2</ele>
        <time>2020-09-12T22:06:14Z</time>
      </trkpt>
      <trkpt lat="43.16215" lon="-0.04329">
        <ele>407.1</ele>
        <time>2020-09-12T22:06:15Z</time>
      </trkpt>
      <trkpt lat="43.16218" lon="-0.0433">
        <ele>406.8</ele>
        <time>2020-09-12T22:06:16Z</time>
      </trkpt>
      <trkpt lat="43.16222" lon="-0.04329">
        <ele>406.2</ele>
        <time>2020-09-12T22:06:17Z</time>
      </trkpt>
      <trkpt lat="43.16225" lon="-0.04328">
        <ele>405.8</ele>
        <time>2020-09-12T22:06:18Z</time>
      </trkpt>
      <trkpt lat="43.16231" lon="-0.04326">
        <ele>405</ele>
        <time>2020-09-12T22:06:19Z</time>
      </trkpt>
      <trkpt lat="43.16235" lon="-0.04323">
        <ele>404.8</ele>
        <time>2020-09-12T22:06:20Z</time>
      </trkpt>
      <trkpt lat="43.16239" lon="-0.04323">
        <ele>404.5</ele>
        <time>2020-09-12T22:06:21Z</time>
      </trkpt>
      <trkpt lat="43.16243" lon="-0.04324">
        <ele>404.3</ele>
        <time>2020-09-12T22:06:22Z</time>
      </trkpt>
      <trkpt lat="43.16246" lon="-0.04324">
        <ele>404</ele>
        <time>2020-09-12T22:06:23Z</time>
      </trkpt>
      <trkpt lat="43.16251" lon="-0.04326">
        <ele>403.5</ele>
        <time>2020-09-12T22:06:24Z</time>
      </trkpt>
      <trkpt lat="43.16255" lon="-0.04325">
        <ele>403.2</ele>
        <time>2020-09-12T22:06:25Z</time>
      </trkpt>
      <trkpt lat="43.16259" lon="-0.04325">
        <ele>402.7</ele>
        <time>2020-09-12T22:06:26Z</time>
      </trkpt>
      <trkpt lat="43.16262" lon="-0.04323">
        <ele>402.6</ele>
        <time>2020-09-12T22:06:27Z</time>
      </trkpt>
      <trkpt lat="43.16265" lon="-0.04322">
        <ele>402.4</ele>
        <time>2020-09-12T22:06:28Z</time>
      </trkpt>
      <trkpt lat="43.16269" lon="-0.04322">
        <ele>401.9</ele>
        <time>2020-09-12T22:06:30Z</time>
      </trkpt>
      <trkpt lat="43.16272" lon="-0.04323">
        <ele>401.6</ele>
        <time>2020-09-12T22:06:32Z</time>
      </trkpt>
      <trkpt lat="43.16276" lon="-0.04324">
        <ele>401.3</ele>
        <time>2020-09-12T22:06:35Z</time>
      </trkpt>
      <trkpt lat="43.1628" lon="-0.04324">
        <ele>401</ele>
        <time>2020-09-12T22:06:37Z</time>
      </trkpt>
      <trkpt lat="43.16284" lon="-0.0432">
        <ele>400.6</ele>
        <time>2020-09-12T22:06:40Z</time>
      </trkpt>
      <trkpt lat="43.16287" lon="-0.04316">
        <ele>399.9</ele>
        <time>2020-09-12T22:06:42Z</time>
      </trkpt>
      <trkpt lat="43.16292" lon="-0.04312">
        <ele>399.5</ele>
        <time>2020-09-12T22:06:44Z</time>
      </trkpt>
      <trkpt lat="43.16295" lon="-0.0431">
        <ele>399.2</ele>
        <time>2020-09-12T22:06:45Z</time>
      </trkpt>
      <trkpt lat="43.16298" lon="-0.04308">
        <ele>398.8</ele>
        <time>2020-09-12T22:06:46Z</time>
      </trkpt>
      <trkpt lat="43.163" lon="-0.04306">
        <ele>398.5</ele>
        <time>2020-09-12T22:06:47Z</time>
      </trkpt>
      <trkpt lat="43.16303" lon="-0.04303">
        <ele>398</ele>
        <time>2020-09-12T22:06:48Z</time>
      </trkpt>
      <trkpt lat="43.16305" lon="-0.043">
        <ele>397.8</ele>
        <time>2020-09-12T22:06:49Z</time>
      </trkpt>
      <trkpt lat="43.16307" lon="-0.04295">
        <ele>397.3</ele>
        <time>2020-09-12T22:06:50Z</time>
      </trkpt>
      <trkpt lat="43.1631" lon="-0.04293">
        <ele>396.9</ele>
        <time>2020-09-12T22:06:51Z</time>
      </trkpt>
      <trkpt lat="43.16315" lon="-0.0429">
        <ele>396.5</ele>
        <time>2020-09-12T22:06:52Z</time>
      </trkpt>
      <trkpt lat="43.16319" lon="-0.04287">
        <ele>396</ele>
        <time>2020-09-12T22:06:53Z</time>
      </trkpt>
      <trkpt lat="43.16322" lon="-0.04284">
        <ele>395.6</ele>
        <time>2020-09-12T22:06:54Z</time>
      </trkpt>
      <trkpt lat="43.16324" lon="-0.04282">
        <ele>395.3</ele>
        <time>2020-09-12T22:06:55Z</time>
      </trkpt>
      <trkpt lat="43.16328" lon="-0.04278">
        <ele>394.8</ele>
        <time>2020-09-12T22:06:57Z</time>
      </trkpt>
      <trkpt lat="43.16333" lon="-0.0428">
        <ele>394.7</ele>
        <time>2020-09-12T22:06:59Z</time>
      </trkpt>
      <trkpt lat="43.16339" lon="-0.04282">
        <ele>394.2</ele>
        <time>2020-09-12T22:07:01Z</time>
      </trkpt>
      <trkpt lat="43.16343" lon="-0.04285">
        <ele>394</ele>
        <time>2020-09-12T22:07:02Z</time>
      </trkpt>
      <trkpt lat="43.16348" lon="-0.04288">
        <ele>393.7</ele>
        <time>2020-09-12T22:07:03Z</time>
      </trkpt>
      <trkpt lat="43.16353" lon="-0.04291">
        <ele>393.5</ele>
        <time>2020-09-12T22:07:04Z</time>
      </trkpt>
      <trkpt lat="43.16357" lon="-0.04295">
        <ele>393.3</ele>
        <time>2020-09-12T22:07:05Z</time>
      </trkpt>
      <trkpt lat="43.16362" lon="-0.04298">
        <ele>393</ele>
        <time>2020-09-12T22:07:06Z</time>
      </trkpt>
      <trkpt lat="43.16367" lon="-0.04302">
        <ele>392.7</ele>
        <time>2020-09-12T22:07:07Z</time>
      </trkpt>
      <trkpt lat="43.16373" lon="-0.04305">
        <ele>392.4</ele>
        <time>2020-09-12T22:07:08Z</time>
      </trkpt>
      <trkpt lat="43.16378" lon="-0.04307">
        <ele>392.1</ele>
        <time>2020-09-12T22:07:09Z</time>
      </trkpt>
      <trkpt lat="43.16383" lon="-0.0431">
        <ele>391.8</ele>
        <time>2020-09-12T22:07:10Z</time>
      </trkpt>
      <trkpt lat="43.16387" lon="-0.04314">
        <ele>391.6</ele>
        <time>2020-09-12T22:07:11Z</time>
      </trkpt>
      <trkpt lat="43.16391" lon="-0.04316">
        <ele>391.4</ele>
        <time>2020-09-12T22:07:12Z</time>
      </trkpt>
      <trkpt lat="43.16395" lon="-0.04318">
        <ele>391.2</ele>
        <time>2020-09-12T22:07:13Z</time>
      </trkpt>
      <trkpt lat="43.164" lon="-0.0432">
        <ele>391</ele>
        <time>2020-09-12T22:07:14Z</time>
      </trkpt>
      <trkpt lat="43.16404" lon="-0.04322">
        <ele>390.9</ele>
        <time>2020-09-12T22:07:15Z</time>
      </trkpt>
      <trkpt lat="43.16408" lon="-0.04325">
        <ele>390.7</ele>
        <time>2020-09-12T22:07:16Z</time>
      </trkpt>
      <trkpt lat="43.16413" lon="-0.04328">
        <ele>390.6</ele>
        <time>2020-09-12T22:07:17Z</time>
      </trkpt>
      <trkpt lat="43.16418" lon="-0.04332">
        <ele>390.5</ele>
        <time>2020-09-12T22:07:18Z</time>
      </trkpt>
      <trkpt lat="43.16424" lon="-0.04336">
        <ele>390.1</ele>
        <time>2020-09-12T22:07:19Z</time>
      </trkpt>
      <trkpt lat="43.16429" lon="-0.04339">
        <ele>389.7</ele>
        <time>2020-09-12T22:07:20Z</time>
      </trkpt>
      <trkpt lat="43.16434" lon="-0.04343">
        <ele>389.2</ele>
        <time>2020-09-12T22:07:21Z</time>
      </trkpt>
      <trkpt lat="43.1644" lon="-0.04346">
        <ele>388.8</ele>
        <time>2020-09-12T22:07:22Z</time>
      </trkpt>
      <trkpt lat="43.16445" lon="-0.04349">
        <ele>388.5</ele>
        <time>2020-09-12T22:07:23Z</time>
      </trkpt>
      <trkpt lat="43.16448" lon="-0.04351">
        <ele>388.2</ele>
        <time>2020-09-12T22:07:24Z</time>
      </trkpt>
      <trkpt lat="43.16453" lon="-0.04353">
        <ele>388</ele>
        <time>2020-09-12T22:07:25Z</time>
      </trkpt>
      <trkpt lat="43.16457" lon="-0.04353">
        <ele>387.7</ele>
        <time>2020-09-12T22:07:26Z</time>
      </trkpt>
      <trkpt lat="43.16461" lon="-0.04354">
        <ele>387.6</ele>
        <time>2020-09-12T22:07:27Z</time>
      </trkpt>
      <trkpt lat="43.16464" lon="-0.04352">
        <ele>387.4</ele>
        <time>2020-09-12T22:07:28Z</time>
      </trkpt>
      <trkpt lat="43.16468" lon="-0.04349">
        <ele>387.1</ele>
        <time>2020-09-12T22:07:29Z</time>
      </trkpt>
      <trkpt lat="43.16472" lon="-0.04346">
        <ele>386.8</ele>
        <time>2020-09-12T22:07:30Z</time>
      </trkpt>
      <trkpt lat="43.16476" lon="-0.04344">
        <ele>386.6</ele>
        <time>2020-09-12T22:07:31Z</time>
      </trkpt>
      <trkpt lat="43.16481" lon="-0.04341">
        <ele>386.3</ele>
        <time>2020-09-12T22:07:32Z</time>
      </trkpt>
      <trkpt lat="43.16486" lon="-0.04337">
        <ele>385.9</ele>
        <time>2020-09-12T22:07:33Z</time>
      </trkpt>
      <trkpt lat="43.16491" lon="-0.04334">
        <ele>385.9</ele>
        <time>2020-09-12T22:07:34Z</time>
      </trkpt>
      <trkpt lat="43.16495" lon="-0.0433">
        <ele>385.9</ele>
        <time>2020-09-12T22:07:35Z</time>
      </trkpt>
      <trkpt lat="43.16499" lon="-0.04326">
        <ele>385.9</ele>
        <time>2020-09-12T22:07:36Z</time>
      </trkpt>
      <trkpt lat="43.16504" lon="-0.04322">
        <ele>385.9</ele>
        <time>2020-09-12T22:07:37Z</time>
      </trkpt>
      <trkpt lat="43.16509" lon="-0.04318">
        <ele>385.9</ele>
        <time>2020-09-12T22:07:38Z</time>
      </trkpt>
      <trkpt lat="43.16513" lon="-0.04314">
        <ele>385.9</ele>
        <time>2020-09-12T22:07:39Z</time>
      </trkpt>
      <trkpt lat="43.16518" lon="-0.04311">
        <ele>385.9</ele>
        <time>2020-09-12T22:07:40Z</time>
      </trkpt>
      <trkpt lat="43.16523" lon="-0.04308">
        <ele>385.9</ele>
        <time>2020-09-12T22:07:41Z</time>
      </trkpt>
      <trkpt lat="43.16527" lon="-0.04306">
        <ele>385.9</ele>
        <time>2020-09-12T22:07:42Z</time>
      </trkpt>
      <trkpt lat="43.16532" lon="-0.04303">
        <ele>385.9</ele>
        <time>2020-09-12T22:07:43Z</time>
      </trkpt>
      <trkpt lat="43.16537" lon="-0.043">
        <ele>385.9</ele>
        <time>2020-09-12T22:07:44Z</time>
      </trkpt>
      <trkpt lat="43.16542" lon="-0.04298">
        <ele>385.9</ele>
        <time>2020-09-12T22:07:45Z</time>
      </trkpt>
      <trkpt lat="43.16547" lon="-0.04296">
        <ele>385.9</ele>
        <time>2020-09-12T22:07:46Z</time>
      </trkpt>
      <trkpt lat="43.16552" lon="-0.04293">
        <ele>385.9</ele>
        <time>2020-09-12T22:07:47Z</time>
      </trkpt>
      <trkpt lat="43.16556" lon="-0.04291">
        <ele>385.9</ele>
        <time>2020-09-12T22:07:48Z</time>
      </trkpt>
      <trkpt lat="43.16561" lon="-0.04289">
        <ele>385.9</ele>
        <time>2020-09-12T22:07:49Z</time>
      </trkpt>
      <trkpt lat="43.16565" lon="-0.04287">
        <ele>385.9</ele>
        <time>2020-09-12T22:07:50Z</time>
      </trkpt>
      <trkpt lat="43.1657" lon="-0.04286">
        <ele>385.9</ele>
        <time>2020-09-12T22:07:51Z</time>
      </trkpt>
      <trkpt lat="43.16575" lon="-0.04284">
        <ele>385.9</ele>
        <time>2020-09-12T22:07:52Z</time>
      </trkpt>
      <trkpt lat="43.1658" lon="-0.04283">
        <ele>385.9</ele>
        <time>2020-09-12T22:07:53Z</time>
      </trkpt>
      <trkpt lat="43.16585" lon="-0.04282">
        <ele>385.9</ele>
        <time>2020-09-12T22:07:54Z</time>
      </trkpt>
      <trkpt lat="43.16591" lon="-0.04282">
        <ele>385.9</ele>
        <time>2020-09-12T22:07:55Z</time>
      </trkpt>
      <trkpt lat="43.16597" lon="-0.04282">
        <ele>385.9</ele>
        <time>2020-09-12T22:07:56Z</time>
      </trkpt>
      <trkpt lat="43.16604" lon="-0.04282">
        <ele>385.9</ele>
        <time>2020-09-12T22:07:57Z</time>
      </trkpt>
      <trkpt lat="43.16609" lon="-0.04282">
        <ele>385.9</ele>
        <time>2020-09-12T22:07:58Z</time>
      </trkpt>
      <trkpt lat="43.16615" lon="-0.04282">
        <ele>385.9</ele>
        <time>2020-09-12T22:07:59Z</time>
      </trkpt>
      <trkpt lat="43.16622" lon="-0.04283">
        <ele>385.9</ele>
        <time>2020-09-12T22:08:00Z</time>
      </trkpt>
      <trkpt lat="43.16628" lon="-0.04284">
        <ele>385.9</ele>
        <time>2020-09-12T22:08:01Z</time>
      </trkpt>
      <trkpt lat="43.16634" lon="-0.04284">
        <ele>385.9</ele>
        <time>2020-09-12T22:08:02Z</time>
      </trkpt>
      <trkpt lat="43.1664" lon="-0.04285">
        <ele>385.8</ele>
        <time>2020-09-12T22:08:03Z</time>
      </trkpt>
      <trkpt lat="43.16646" lon="-0.04284">
        <ele>385.8</ele>
        <time>2020-09-12T22:08:04Z</time>
      </trkpt>
      <trkpt lat="43.16652" lon="-0.04284">
        <ele>385.7</ele>
        <time>2020-09-12T22:08:05Z</time>
      </trkpt>
      <trkpt lat="43.16658" lon="-0.04282">
        <ele>385.6</ele>
        <time>2020-09-12T22:08:06Z</time>
      </trkpt>
      <trkpt lat="43.16664" lon="-0.0428">
        <ele>385.4</ele>
        <time>2020-09-12T22:08:07Z</time>
      </trkpt>
      <trkpt lat="43.1667" lon="-0.04279">
        <ele>385.3</ele>
        <time>2020-09-12T22:08:08Z</time>
      </trkpt>
      <trkpt lat="43.16676" lon="-0.04277">
        <ele>385</ele>
        <time>2020-09-12T22:08:09Z</time>
      </trkpt>
      <trkpt lat="43.16681" lon="-0.04276">
        <ele>384.8</ele>
        <time>2020-09-12T22:08:10Z</time>
      </trkpt>
      <trkpt lat="43.16686" lon="-0.04274">
        <ele>384.6</ele>
        <time>2020-09-12T22:08:11Z</time>
      </trkpt>
      <trkpt lat="43.16691" lon="-0.04273">
        <ele>384.5</ele>
        <time>2020-09-12T22:08:12Z</time>
      </trkpt>
      <trkpt lat="43.16695" lon="-0.04271">
        <ele>384.3</ele>
        <time>2020-09-12T22:08:13Z</time>
      </trkpt>
      <trkpt lat="43.167" lon="-0.0427">
        <ele>384.2</ele>
        <time>2020-09-12T22:08:14Z</time>
      </trkpt>
      <trkpt lat="43.16704" lon="-0.04268">
        <ele>384.1</ele>
        <time>2020-09-12T22:08:15Z</time>
      </trkpt>
      <trkpt lat="43.16708" lon="-0.04266">
        <ele>384</ele>
        <time>2020-09-12T22:08:16Z</time>
      </trkpt>
      <trkpt lat="43.16712" lon="-0.04265">
        <ele>383.9</ele>
        <time>2020-09-12T22:08:17Z</time>
      </trkpt>
      <trkpt lat="43.16715" lon="-0.04265">
        <ele>383.9</ele>
        <time>2020-09-12T22:08:18Z</time>
      </trkpt>
      <trkpt lat="43.16718" lon="-0.04268">
        <ele>383.9</ele>
        <time>2020-09-12T22:08:19Z</time>
      </trkpt>
      <trkpt lat="43.16721" lon="-0.04272">
        <ele>383.9</ele>
        <time>2020-09-12T22:08:20Z</time>
      </trkpt>
      <trkpt lat="43.16722" lon="-0.04275">
        <ele>383.9</ele>
        <time>2020-09-12T22:08:21Z</time>
      </trkpt>
      <trkpt lat="43.16722" lon="-0.04279">
        <ele>383.9</ele>
        <time>2020-09-12T22:08:22Z</time>
      </trkpt>
      <trkpt lat="43.16722" lon="-0.04283">
        <ele>384</ele>
        <time>2020-09-12T22:08:23Z</time>
      </trkpt>
      <trkpt lat="43.16721" lon="-0.04289">
        <ele>384</ele>
        <time>2020-09-12T22:08:25Z</time>
      </trkpt>
      <trkpt lat="43.16721" lon="-0.04295">
        <ele>384.1</ele>
        <time>2020-09-12T22:08:27Z</time>
      </trkpt>
      <trkpt lat="43.16721" lon="-0.04301">
        <ele>384.2</ele>
        <time>2020-09-12T22:08:29Z</time>
      </trkpt>
      <trkpt lat="43.16723" lon="-0.04308">
        <ele>384.2</ele>
        <time>2020-09-12T22:08:31Z</time>
      </trkpt>
      <trkpt lat="43.16724" lon="-0.04312">
        <ele>384.3</ele>
        <time>2020-09-12T22:08:33Z</time>
      </trkpt>
      <trkpt lat="43.16727" lon="-0.04314">
        <ele>384.3</ele>
        <time>2020-09-12T22:08:35Z</time>
      </trkpt>
      <trkpt lat="43.1673" lon="-0.04315">
        <ele>384.4</ele>
        <time>2020-09-12T22:08:37Z</time>
      </trkpt>
      <trkpt lat="43.16733" lon="-0.04314">
        <ele>384.4</ele>
        <time>2020-09-12T22:08:47Z</time>
      </trkpt>
      <trkpt lat="43.16741" lon="-0.04334">
        <ele>384.6</ele>
        <time>2020-09-12T22:12:28Z</time>
      </trkpt>
      <trkpt lat="43.16743" lon="-0.04337">
        <ele>384.7</ele>
        <time>2020-09-12T22:12:30Z</time>
      </trkpt>
      <trkpt lat="43.16746" lon="-0.0434">
        <ele>384.7</ele>
        <time>2020-09-12T22:12:32Z</time>
      </trkpt>
      <trkpt lat="43.1674" lon="-0.04332">
        <ele>384.8</ele>
        <time>2020-09-12T22:12:50Z</time>
      </trkpt>
      <trkpt lat="43.16738" lon="-0.04329">
        <ele>384.9</ele>
        <time>2020-09-12T22:12:53Z</time>
      </trkpt>
      <trkpt lat="43.16737" lon="-0.04321">
        <ele>384.7</ele>
        <time>2020-09-12T22:13:47Z</time>
      </trkpt>
      <trkpt lat="43.16737" lon="-0.04326">
        <ele>384.7</ele>
        <time>2020-09-12T22:13:53Z</time>
      </trkpt>
      <trkpt lat="43.16739" lon="-0.0433">
        <ele>384.6</ele>
        <time>2020-09-12T22:13:55Z</time>
      </trkpt>
      <trkpt lat="43.16741" lon="-0.04333">
        <ele>384.6</ele>
        <time>2020-09-12T22:13:59Z</time>
      </trkpt>
      <trkpt lat="43.16745" lon="-0.04336">
        <ele>384.6</ele>
        <time>2020-09-12T22:14:16Z</time>
      </trkpt>
      <trkpt lat="43.16747" lon="-0.04338">
        <ele>384.5</ele>
        <time>2020-09-12T22:14:19Z</time>
      </trkpt>
      <trkpt lat="43.16746" lon="-0.04332">
        <ele>384.5</ele>
        <time>2020-09-12T22:15:04Z</time>
      </trkpt>
      <trkpt lat="43.16745" lon="-0.04325">
        <ele>384.4</ele>
        <time>2020-09-12T22:15:06Z</time>
      </trkpt>
      <trkpt lat="43.16745" lon="-0.04321">
        <ele>384.4</ele>
        <time>2020-09-12T22:15:07Z</time>
      </trkpt>
      <trkpt lat="43.16744" lon="-0.04318">
        <ele>384.4</ele>
        <time>2020-09-12T22:15:08Z</time>
      </trkpt>
      <trkpt lat="43.16744" lon="-0.04312">
        <ele>384.3</ele>
        <time>2020-09-12T22:15:10Z</time>
      </trkpt>
      <trkpt lat="43.16743" lon="-0.04308">
        <ele>384.3</ele>
        <time>2020-09-12T22:15:13Z</time>
      </trkpt>
      <trkpt lat="43.16741" lon="-0.04307">
        <ele>384.3</ele>
        <time>2020-09-12T22:15:22Z</time>
      </trkpt>
      <trkpt lat="43.16741" lon="-0.04302">
        <ele>384.3</ele>
        <time>2020-09-12T22:15:49Z</time>
      </trkpt>
      <trkpt lat="43.16743" lon="-0.04298">
        <ele>383.9</ele>
        <time>2020-09-12T22:15:51Z</time>
      </trkpt>
      <trkpt lat="43.16745" lon="-0.04295">
        <ele>383.9</ele>
        <time>2020-09-12T22:15:52Z</time>
      </trkpt>
      <trkpt lat="43.16749" lon="-0.04292">
        <ele>383.9</ele>
        <time>2020-09-12T22:15:54Z</time>
      </trkpt>
      <trkpt lat="43.16754" lon="-0.04289">
        <ele>383.9</ele>
        <time>2020-09-12T22:15:56Z</time>
      </trkpt>
      <trkpt lat="43.16756" lon="-0.04288">
        <ele>383.9</ele>
        <time>2020-09-12T22:15:57Z</time>
      </trkpt>
      <trkpt lat="43.16759" lon="-0.04286">
        <ele>383.9</ele>
        <time>2020-09-12T22:15:58Z</time>
      </trkpt>
      <trkpt lat="43.16765" lon="-0.04284">
        <ele>383.9</ele>
        <time>2020-09-12T22:16:00Z</time>
      </trkpt>
      <trkpt lat="43.16768" lon="-0.04283">
        <ele>383.9</ele>
        <time>2020-09-12T22:16:01Z</time>
      </trkpt>
      <trkpt lat="43.16772" lon="-0.04281">
        <ele>383.9</ele>
        <time>2020-09-12T22:16:02Z</time>
      </trkpt>
      <trkpt lat="43.16775" lon="-0.0428">
        <ele>383.9</ele>
        <time>2020-09-12T22:16:03Z</time>
      </trkpt>
      <trkpt lat="43.16779" lon="-0.0428">
        <ele>383.9</ele>
        <time>2020-09-12T22:16:04Z</time>
      </trkpt>
      <trkpt lat="43.16783" lon="-0.04278">
        <ele>383.9</ele>
        <time>2020-09-12T22:16:05Z</time>
      </trkpt>
      <trkpt lat="43.16787" lon="-0.04276">
        <ele>383.9</ele>
        <time>2020-09-12T22:16:06Z</time>
      </trkpt>
      <trkpt lat="43.16791" lon="-0.04274">
        <ele>383.9</ele>
        <time>2020-09-12T22:16:07Z</time>
      </trkpt>
      <trkpt lat="43.16796" lon="-0.04272">
        <ele>383.9</ele>
        <time>2020-09-12T22:16:08Z</time>
      </trkpt>
      <trkpt lat="43.16801" lon="-0.0427">
        <ele>383.9</ele>
        <time>2020-09-12T22:16:09Z</time>
      </trkpt>
      <trkpt lat="43.16807" lon="-0.04268">
        <ele>383.8</ele>
        <time>2020-09-12T22:16:10Z</time>
      </trkpt>
      <trkpt lat="43.16812" lon="-0.04268">
        <ele>383.8</ele>
        <time>2020-09-12T22:16:11Z</time>
      </trkpt>
      <trkpt lat="43.16816" lon="-0.04266">
        <ele>383.8</ele>
        <time>2020-09-12T22:16:12Z</time>
      </trkpt>
      <trkpt lat="43.16821" lon="-0.04265">
        <ele>383.8</ele>
        <time>2020-09-12T22:16:13Z</time>
      </trkpt>
      <trkpt lat="43.16826" lon="-0.04264">
        <ele>383.7</ele>
        <time>2020-09-12T22:16:14Z</time>
      </trkpt>
      <trkpt lat="43.16831" lon="-0.04263">
        <ele>383.6</ele>
        <time>2020-09-12T22:16:15Z</time>
      </trkpt>
      <trkpt lat="43.16835" lon="-0.04261">
        <ele>383.5</ele>
        <time>2020-09-12T22:16:16Z</time>
      </trkpt>
      <trkpt lat="43.16839" lon="-0.04259">
        <ele>383.4</ele>
        <time>2020-09-12T22:16:17Z</time>
      </trkpt>
      <trkpt lat="43.16844" lon="-0.04257">
        <ele>383.2</ele>
        <time>2020-09-12T22:16:18Z</time>
      </trkpt>
      <trkpt lat="43.1685" lon="-0.04255">
        <ele>382.9</ele>
        <time>2020-09-12T22:16:19Z</time>
      </trkpt>
      <trkpt lat="43.16856" lon="-0.04253">
        <ele>382.6</ele>
        <time>2020-09-12T22:16:20Z</time>
      </trkpt>
      <trkpt lat="43.16862" lon="-0.04251">
        <ele>382.3</ele>
        <time>2020-09-12T22:16:21Z</time>
      </trkpt>
      <trkpt lat="43.16869" lon="-0.04249">
        <ele>382</ele>
        <time>2020-09-12T22:16:22Z</time>
      </trkpt>
      <trkpt lat="43.16876" lon="-0.04247">
        <ele>381.6</ele>
        <time>2020-09-12T22:16:23Z</time>
      </trkpt>
      <trkpt lat="43.16883" lon="-0.04246">
        <ele>381.3</ele>
        <time>2020-09-12T22:16:24Z</time>
      </trkpt>
      <trkpt lat="43.1689" lon="-0.04243">
        <ele>381</ele>
        <time>2020-09-12T22:16:25Z</time>
      </trkpt>
      <trkpt lat="43.16897" lon="-0.0424">
        <ele>380.9</ele>
        <time>2020-09-12T22:16:26Z</time>
      </trkpt>
      <trkpt lat="43.16905" lon="-0.04238">
        <ele>380.9</ele>
        <time>2020-09-12T22:16:27Z</time>
      </trkpt>
      <trkpt lat="43.16912" lon="-0.04236">
        <ele>380.9</ele>
        <time>2020-09-12T22:16:28Z</time>
      </trkpt>
      <trkpt lat="43.1692" lon="-0.04234">
        <ele>380.9</ele>
        <time>2020-09-12T22:16:29Z</time>
      </trkpt>
      <trkpt lat="43.16926" lon="-0.04232">
        <ele>380.9</ele>
        <time>2020-09-12T22:16:30Z</time>
      </trkpt>
      <trkpt lat="43.16933" lon="-0.0423">
        <ele>380.9</ele>
        <time>2020-09-12T22:16:31Z</time>
      </trkpt>
      <trkpt lat="43.16939" lon="-0.04228">
        <ele>380.9</ele>
        <time>2020-09-12T22:16:32Z</time>
      </trkpt>
      <trkpt lat="43.16945" lon="-0.04226">
        <ele>380.9</ele>
        <time>2020-09-12T22:16:33Z</time>
      </trkpt>
      <trkpt lat="43.16951" lon="-0.04224">
        <ele>380.9</ele>
        <time>2020-09-12T22:16:34Z</time>
      </trkpt>
      <trkpt lat="43.16957" lon="-0.04223">
        <ele>380.9</ele>
        <time>2020-09-12T22:16:35Z</time>
      </trkpt>
      <trkpt lat="43.16962" lon="-0.04221">
        <ele>381</ele>
        <time>2020-09-12T22:16:36Z</time>
      </trkpt>
      <trkpt lat="43.16967" lon="-0.04219">
        <ele>381.1</ele>
        <time>2020-09-12T22:16:37Z</time>
      </trkpt>
      <trkpt lat="43.16971" lon="-0.04218">
        <ele>381.2</ele>
        <time>2020-09-12T22:16:38Z</time>
      </trkpt>
      <trkpt lat="43.16976" lon="-0.04216">
        <ele>381.4</ele>
        <time>2020-09-12T22:16:39Z</time>
      </trkpt>
      <trkpt lat="43.16981" lon="-0.04215">
        <ele>381.6</ele>
        <time>2020-09-12T22:16:40Z</time>
      </trkpt>
      <trkpt lat="43.16985" lon="-0.04213">
        <ele>381.9</ele>
        <time>2020-09-12T22:16:41Z</time>
      </trkpt>
      <trkpt lat="43.16991" lon="-0.0421">
        <ele>382.1</ele>
        <time>2020-09-12T22:16:42Z</time>
      </trkpt>
      <trkpt lat="43.16996" lon="-0.04208">
        <ele>382.4</ele>
        <time>2020-09-12T22:16:43Z</time>
      </trkpt>
      <trkpt lat="43.17001" lon="-0.04205">
        <ele>382.5</ele>
        <time>2020-09-12T22:16:44Z</time>
      </trkpt>
      <trkpt lat="43.17007" lon="-0.04202">
        <ele>382.5</ele>
        <time>2020-09-12T22:16:45Z</time>
      </trkpt>
      <trkpt lat="43.17012" lon="-0.042">
        <ele>382.4</ele>
        <time>2020-09-12T22:16:46Z</time>
      </trkpt>
      <trkpt lat="43.17017" lon="-0.04198">
        <ele>382.2</ele>
        <time>2020-09-12T22:16:47Z</time>
      </trkpt>
      <trkpt lat="43.17022" lon="-0.04196">
        <ele>381.9</ele>
        <time>2020-09-12T22:16:48Z</time>
      </trkpt>
      <trkpt lat="43.17027" lon="-0.04193">
        <ele>381.6</ele>
        <time>2020-09-12T22:16:49Z</time>
      </trkpt>
      <trkpt lat="43.17031" lon="-0.04191">
        <ele>381.4</ele>
        <time>2020-09-12T22:16:50Z</time>
      </trkpt>
      <trkpt lat="43.17035" lon="-0.04189">
        <ele>381.2</ele>
        <time>2020-09-12T22:16:51Z</time>
      </trkpt>
      <trkpt lat="43.17039" lon="-0.04187">
        <ele>380.9</ele>
        <time>2020-09-12T22:16:52Z</time>
      </trkpt>
      <trkpt lat="43.17043" lon="-0.04186">
        <ele>380.7</ele>
        <time>2020-09-12T22:16:53Z</time>
      </trkpt>
      <trkpt lat="43.17048" lon="-0.04183">
        <ele>380.4</ele>
        <time>2020-09-12T22:16:54Z</time>
      </trkpt>
      <trkpt lat="43.17052" lon="-0.04181">
        <ele>380.3</ele>
        <time>2020-09-12T22:16:55Z</time>
      </trkpt>
      <trkpt lat="43.17058" lon="-0.04179">
        <ele>380.2</ele>
        <time>2020-09-12T22:16:56Z</time>
      </trkpt>
      <trkpt lat="43.17062" lon="-0.04177">
        <ele>380.3</ele>
        <time>2020-09-12T22:16:57Z</time>
      </trkpt>
      <trkpt lat="43.17068" lon="-0.04174">
        <ele>380.3</ele>
        <time>2020-09-12T22:16:58Z</time>
      </trkpt>
      <trkpt lat="43.17073" lon="-0.04171">
        <ele>380.4</ele>
        <time>2020-09-12T22:16:59Z</time>
      </trkpt>
      <trkpt lat="43.17078" lon="-0.04169">
        <ele>380.6</ele>
        <time>2020-09-12T22:17:00Z</time>
      </trkpt>
      <trkpt lat="43.17083" lon="-0.04166">
        <ele>380.7</ele>
        <time>2020-09-12T22:17:01Z</time>
      </trkpt>
      <trkpt lat="43.1709" lon="-0.04163">
        <ele>380.8</ele>
        <time>2020-09-12T22:17:02Z</time>
      </trkpt>
      <trkpt lat="43.17097" lon="-0.04159">
        <ele>380.8</ele>
        <time>2020-09-12T22:17:03Z</time>
      </trkpt>
      <trkpt lat="43.17104" lon="-0.04156">
        <ele>380.8</ele>
        <time>2020-09-12T22:17:04Z</time>
      </trkpt>
      <trkpt lat="43.1711" lon="-0.04153">
        <ele>380.7</ele>
        <time>2020-09-12T22:17:05Z</time>
      </trkpt>
      <trkpt lat="43.17117" lon="-0.0415">
        <ele>380.5</ele>
        <time>2020-09-12T22:17:06Z</time>
      </trkpt>
      <trkpt lat="43.17122" lon="-0.04147">
        <ele>380.4</ele>
        <time>2020-09-12T22:17:07Z</time>
      </trkpt>
      <trkpt lat="43.17129" lon="-0.04145">
        <ele>380.1</ele>
        <time>2020-09-12T22:17:08Z</time>
      </trkpt>
      <trkpt lat="43.17135" lon="-0.04142">
        <ele>379.8</ele>
        <time>2020-09-12T22:17:09Z</time>
      </trkpt>
      <trkpt lat="43.17141" lon="-0.0414">
        <ele>379.6</ele>
        <time>2020-09-12T22:17:10Z</time>
      </trkpt>
      <trkpt lat="43.17147" lon="-0.04137">
        <ele>379.2</ele>
        <time>2020-09-12T22:17:11Z</time>
      </trkpt>
      <trkpt lat="43.17152" lon="-0.04135">
        <ele>378.9</ele>
        <time>2020-09-12T22:17:12Z</time>
      </trkpt>
      <trkpt lat="43.17157" lon="-0.04132">
        <ele>378.6</ele>
        <time>2020-09-12T22:17:13Z</time>
      </trkpt>
      <trkpt lat="43.17162" lon="-0.04129">
        <ele>378.3</ele>
        <time>2020-09-12T22:17:14Z</time>
      </trkpt>
      <trkpt lat="43.17168" lon="-0.04127">
        <ele>378.1</ele>
        <time>2020-09-12T22:17:15Z</time>
      </trkpt>
      <trkpt lat="43.17174" lon="-0.04123">
        <ele>378</ele>
        <time>2020-09-12T22:17:16Z</time>
      </trkpt>
      <trkpt lat="43.17179" lon="-0.04121">
        <ele>377.9</ele>
        <time>2020-09-12T22:17:17Z</time>
      </trkpt>
      <trkpt lat="43.17185" lon="-0.04119">
        <ele>377.9</ele>
        <time>2020-09-12T22:17:18Z</time>
      </trkpt>
      <trkpt lat="43.17191" lon="-0.04116">
        <ele>377.9</ele>
        <time>2020-09-12T22:17:19Z</time>
      </trkpt>
      <trkpt lat="43.17197" lon="-0.04113">
        <ele>377.9</ele>
        <time>2020-09-12T22:17:20Z</time>
      </trkpt>
      <trkpt lat="43.17203" lon="-0.04111">
        <ele>377.9</ele>
        <time>2020-09-12T22:17:21Z</time>
      </trkpt>
      <trkpt lat="43.17208" lon="-0.04108">
        <ele>377.9</ele>
        <time>2020-09-12T22:17:22Z</time>
      </trkpt>
      <trkpt lat="43.17214" lon="-0.04104">
        <ele>377.9</ele>
        <time>2020-09-12T22:17:23Z</time>
      </trkpt>
      <trkpt lat="43.17219" lon="-0.041">
        <ele>377.9</ele>
        <time>2020-09-12T22:17:24Z</time>
      </trkpt>
      <trkpt lat="43.17225" lon="-0.04096">
        <ele>377.9</ele>
        <time>2020-09-12T22:17:25Z</time>
      </trkpt>
      <trkpt lat="43.1723" lon="-0.04092">
        <ele>377.9</ele>
        <time>2020-09-12T22:17:26Z</time>
      </trkpt>
      <trkpt lat="43.17235" lon="-0.04087">
        <ele>377.9</ele>
        <time>2020-09-12T22:17:27Z</time>
      </trkpt>
      <trkpt lat="43.17239" lon="-0.04083">
        <ele>377.9</ele>
        <time>2020-09-12T22:17:28Z</time>
      </trkpt>
      <trkpt lat="43.17244" lon="-0.04078">
        <ele>377.9</ele>
        <time>2020-09-12T22:17:29Z</time>
      </trkpt>
      <trkpt lat="43.17248" lon="-0.04073">
        <ele>377.9</ele>
        <time>2020-09-12T22:17:30Z</time>
      </trkpt>
      <trkpt lat="43.17253" lon="-0.04067">
        <ele>377.9</ele>
        <time>2020-09-12T22:17:31Z</time>
      </trkpt>
      <trkpt lat="43.17257" lon="-0.04061">
        <ele>377.9</ele>
        <time>2020-09-12T22:17:32Z</time>
      </trkpt>
      <trkpt lat="43.17261" lon="-0.04055">
        <ele>377.9</ele>
        <time>2020-09-12T22:17:33Z</time>
      </trkpt>
      <trkpt lat="43.17265" lon="-0.04048">
        <ele>377.9</ele>
        <time>2020-09-12T22:17:34Z</time>
      </trkpt>
      <trkpt lat="43.17269" lon="-0.04041">
        <ele>377.9</ele>
        <time>2020-09-12T22:17:35Z</time>
      </trkpt>
      <trkpt lat="43.17273" lon="-0.04035">
        <ele>377.9</ele>
        <time>2020-09-12T22:17:36Z</time>
      </trkpt>
      <trkpt lat="43.17278" lon="-0.04029">
        <ele>377.9</ele>
        <time>2020-09-12T22:17:37Z</time>
      </trkpt>
      <trkpt lat="43.17282" lon="-0.04023">
        <ele>377.9</ele>
        <time>2020-09-12T22:17:38Z</time>
      </trkpt>
      <trkpt lat="43.17287" lon="-0.04018">
        <ele>377.9</ele>
        <time>2020-09-12T22:17:39Z</time>
      </trkpt>
      <trkpt lat="43.17292" lon="-0.04012">
        <ele>377.9</ele>
        <time>2020-09-12T22:17:40Z</time>
      </trkpt>
      <trkpt lat="43.17296" lon="-0.04007">
        <ele>377.9</ele>
        <time>2020-09-12T22:17:41Z</time>
      </trkpt>
      <trkpt lat="43.17302" lon="-0.04001">
        <ele>377.9</ele>
        <time>2020-09-12T22:17:42Z</time>
      </trkpt>
      <trkpt lat="43.17308" lon="-0.03994">
        <ele>377.5</ele>
        <time>2020-09-12T22:17:43Z</time>
      </trkpt>
      <trkpt lat="43.17314" lon="-0.03988">
        <ele>377.3</ele>
        <time>2020-09-12T22:17:44Z</time>
      </trkpt>
      <trkpt lat="43.1732" lon="-0.03981">
        <ele>377</ele>
        <time>2020-09-12T22:17:45Z</time>
      </trkpt>
      <trkpt lat="43.17326" lon="-0.03974">
        <ele>376.8</ele>
        <time>2020-09-12T22:17:46Z</time>
      </trkpt>
      <trkpt lat="43.17332" lon="-0.03968">
        <ele>376.6</ele>
        <time>2020-09-12T22:17:47Z</time>
      </trkpt>
      <trkpt lat="43.17337" lon="-0.03962">
        <ele>376.4</ele>
        <time>2020-09-12T22:17:48Z</time>
      </trkpt>
      <trkpt lat="43.17343" lon="-0.03956">
        <ele>376.2</ele>
        <time>2020-09-12T22:17:49Z</time>
      </trkpt>
      <trkpt lat="43.17348" lon="-0.0395">
        <ele>376.1</ele>
        <time>2020-09-12T22:17:50Z</time>
      </trkpt>
      <trkpt lat="43.17354" lon="-0.03944">
        <ele>375.9</ele>
        <time>2020-09-12T22:17:51Z</time>
      </trkpt>
      <trkpt lat="43.17359" lon="-0.03938">
        <ele>375.8</ele>
        <time>2020-09-12T22:17:52Z</time>
      </trkpt>
      <trkpt lat="43.17364" lon="-0.03932">
        <ele>375.6</ele>
        <time>2020-09-12T22:17:53Z</time>
      </trkpt>
      <trkpt lat="43.1737" lon="-0.03927">
        <ele>375.5</ele>
        <time>2020-09-12T22:17:54Z</time>
      </trkpt>
      <trkpt lat="43.17375" lon="-0.03921">
        <ele>375.3</ele>
        <time>2020-09-12T22:17:55Z</time>
      </trkpt>
      <trkpt lat="43.1738" lon="-0.03915">
        <ele>375.1</ele>
        <time>2020-09-12T22:17:56Z</time>
      </trkpt>
      <trkpt lat="43.17385" lon="-0.0391">
        <ele>375</ele>
        <time>2020-09-12T22:17:57Z</time>
      </trkpt>
      <trkpt lat="43.1739" lon="-0.03905">
        <ele>374.8</ele>
        <time>2020-09-12T22:17:58Z</time>
      </trkpt>
      <trkpt lat="43.17396" lon="-0.039">
        <ele>374.6</ele>
        <time>2020-09-12T22:17:59Z</time>
      </trkpt>
      <trkpt lat="43.174" lon="-0.03893">
        <ele>374.4</ele>
        <time>2020-09-12T22:18:00Z</time>
      </trkpt>
      <trkpt lat="43.17405" lon="-0.03887">
        <ele>374.2</ele>
        <time>2020-09-12T22:18:01Z</time>
      </trkpt>
      <trkpt lat="43.17409" lon="-0.0388">
        <ele>374</ele>
        <time>2020-09-12T22:18:02Z</time>
      </trkpt>
      <trkpt lat="43.17413" lon="-0.03872">
        <ele>373.7</ele>
        <time>2020-09-12T22:18:03Z</time>
      </trkpt>
      <trkpt lat="43.17417" lon="-0.03865">
        <ele>373.3</ele>
        <time>2020-09-12T22:18:04Z</time>
      </trkpt>
      <trkpt lat="43.17421" lon="-0.03857">
        <ele>373.1</ele>
        <time>2020-09-12T22:18:05Z</time>
      </trkpt>
      <trkpt lat="43.17425" lon="-0.03849">
        <ele>373</ele>
        <time>2020-09-12T22:18:06Z</time>
      </trkpt>
      <trkpt lat="43.17428" lon="-0.03841">
        <ele>372.9</ele>
        <time>2020-09-12T22:18:07Z</time>
      </trkpt>
      <trkpt lat="43.17431" lon="-0.03832">
        <ele>372.8</ele>
        <time>2020-09-12T22:18:08Z</time>
      </trkpt>
      <trkpt lat="43.17433" lon="-0.03823">
        <ele>372.8</ele>
        <time>2020-09-12T22:18:09Z</time>
      </trkpt>
      <trkpt lat="43.17435" lon="-0.03815">
        <ele>372.7</ele>
        <time>2020-09-12T22:18:10Z</time>
      </trkpt>
      <trkpt lat="43.17436" lon="-0.03806">
        <ele>372.7</ele>
        <time>2020-09-12T22:18:11Z</time>
      </trkpt>
      <trkpt lat="43.17438" lon="-0.03797">
        <ele>372.6</ele>
        <time>2020-09-12T22:18:12Z</time>
      </trkpt>
      <trkpt lat="43.17439" lon="-0.03788">
        <ele>372.5</ele>
        <time>2020-09-12T22:18:13Z</time>
      </trkpt>
      <trkpt lat="43.17441" lon="-0.03779">
        <ele>372.4</ele>
        <time>2020-09-12T22:18:14Z</time>
      </trkpt>
      <trkpt lat="43.17442" lon="-0.03771">
        <ele>372.3</ele>
        <time>2020-09-12T22:18:15Z</time>
      </trkpt>
      <trkpt lat="43.17443" lon="-0.03762">
        <ele>372.2</ele>
        <time>2020-09-12T22:18:16Z</time>
      </trkpt>
      <trkpt lat="43.17444" lon="-0.03753">
        <ele>372.2</ele>
        <time>2020-09-12T22:18:17Z</time>
      </trkpt>
      <trkpt lat="43.17446" lon="-0.03744">
        <ele>372.2</ele>
        <time>2020-09-12T22:18:18Z</time>
      </trkpt>
      <trkpt lat="43.17448" lon="-0.03736">
        <ele>372.2</ele>
        <time>2020-09-12T22:18:19Z</time>
      </trkpt>
      <trkpt lat="43.1745" lon="-0.03727">
        <ele>372.2</ele>
        <time>2020-09-12T22:18:20Z</time>
      </trkpt>
      <trkpt lat="43.17453" lon="-0.03719">
        <ele>372.2</ele>
        <time>2020-09-12T22:18:21Z</time>
      </trkpt>
      <trkpt lat="43.17456" lon="-0.03711">
        <ele>372.2</ele>
        <time>2020-09-12T22:18:22Z</time>
      </trkpt>
      <trkpt lat="43.17459" lon="-0.03702">
        <ele>372.2</ele>
        <time>2020-09-12T22:18:23Z</time>
      </trkpt>
      <trkpt lat="43.17462" lon="-0.03694">
        <ele>372.2</ele>
        <time>2020-09-12T22:18:24Z</time>
      </trkpt>
      <trkpt lat="43.17465" lon="-0.03685">
        <ele>372.2</ele>
        <time>2020-09-12T22:18:25Z</time>
      </trkpt>
      <trkpt lat="43.17469" lon="-0.03677">
        <ele>372.2</ele>
        <time>2020-09-12T22:18:26Z</time>
      </trkpt>
      <trkpt lat="43.17474" lon="-0.0367">
        <ele>372.2</ele>
        <time>2020-09-12T22:18:27Z</time>
      </trkpt>
      <trkpt lat="43.17478" lon="-0.03664">
        <ele>372.2</ele>
        <time>2020-09-12T22:18:28Z</time>
      </trkpt>
      <trkpt lat="43.17483" lon="-0.03658">
        <ele>372.2</ele>
        <time>2020-09-12T22:18:29Z</time>
      </trkpt>
      <trkpt lat="43.17488" lon="-0.03652">
        <ele>372.2</ele>
        <time>2020-09-12T22:18:30Z</time>
      </trkpt>
      <trkpt lat="43.17493" lon="-0.03646">
        <ele>372.2</ele>
        <time>2020-09-12T22:18:31Z</time>
      </trkpt>
      <trkpt lat="43.17498" lon="-0.0364">
        <ele>372.1</ele>
        <time>2020-09-12T22:18:32Z</time>
      </trkpt>
      <trkpt lat="43.17503" lon="-0.03634">
        <ele>372.1</ele>
        <time>2020-09-12T22:18:33Z</time>
      </trkpt>
      <trkpt lat="43.17508" lon="-0.03628">
        <ele>372.1</ele>
        <time>2020-09-12T22:18:34Z</time>
      </trkpt>
      <trkpt lat="43.17513" lon="-0.03621">
        <ele>372</ele>
        <time>2020-09-12T22:18:35Z</time>
      </trkpt>
      <trkpt lat="43.17517" lon="-0.03615">
        <ele>372</ele>
        <time>2020-09-12T22:18:36Z</time>
      </trkpt>
      <trkpt lat="43.17521" lon="-0.03608">
        <ele>371.9</ele>
        <time>2020-09-12T22:18:37Z</time>
      </trkpt>
      <trkpt lat="43.17525" lon="-0.03601">
        <ele>371.8</ele>
        <time>2020-09-12T22:18:38Z</time>
      </trkpt>
      <trkpt lat="43.17528" lon="-0.03594">
        <ele>371.8</ele>
        <time>2020-09-12T22:18:39Z</time>
      </trkpt>
      <trkpt lat="43.1753" lon="-0.03586">
        <ele>371.7</ele>
        <time>2020-09-12T22:18:40Z</time>
      </trkpt>
      <trkpt lat="43.17531" lon="-0.03578">
        <ele>371.6</ele>
        <time>2020-09-12T22:18:41Z</time>
      </trkpt>
      <trkpt lat="43.17533" lon="-0.0357">
        <ele>371.6</ele>
        <time>2020-09-12T22:18:42Z</time>
      </trkpt>
      <trkpt lat="43.17535" lon="-0.03562">
        <ele>371.6</ele>
        <time>2020-09-12T22:18:43Z</time>
      </trkpt>
      <trkpt lat="43.17536" lon="-0.03553">
        <ele>371.6</ele>
        <time>2020-09-12T22:18:44Z</time>
      </trkpt>
      <trkpt lat="43.17538" lon="-0.03545">
        <ele>371.6</ele>
        <time>2020-09-12T22:18:45Z</time>
      </trkpt>
      <trkpt lat="43.17539" lon="-0.03536">
        <ele>371.6</ele>
        <time>2020-09-12T22:18:46Z</time>
      </trkpt>
      <trkpt lat="43.1754" lon="-0.03528">
        <ele>371.7</ele>
        <time>2020-09-12T22:18:47Z</time>
      </trkpt>
      <trkpt lat="43.17542" lon="-0.0352">
        <ele>371.7</ele>
        <time>2020-09-12T22:18:48Z</time>
      </trkpt>
      <trkpt lat="43.17543" lon="-0.03511">
        <ele>371.7</ele>
        <time>2020-09-12T22:18:49Z</time>
      </trkpt>
      <trkpt lat="43.17544" lon="-0.03503">
        <ele>371.6</ele>
        <time>2020-09-12T22:18:50Z</time>
      </trkpt>
      <trkpt lat="43.17545" lon="-0.03495">
        <ele>371.5</ele>
        <time>2020-09-12T22:18:51Z</time>
      </trkpt>
      <trkpt lat="43.17546" lon="-0.03487">
        <ele>371.4</ele>
        <time>2020-09-12T22:18:52Z</time>
      </trkpt>
      <trkpt lat="43.17547" lon="-0.03479">
        <ele>371.2</ele>
        <time>2020-09-12T22:18:53Z</time>
      </trkpt>
      <trkpt lat="43.17549" lon="-0.0347">
        <ele>371</ele>
        <time>2020-09-12T22:18:54Z</time>
      </trkpt>
      <trkpt lat="43.1755" lon="-0.03462">
        <ele>370.8</ele>
        <time>2020-09-12T22:18:55Z</time>
      </trkpt>
      <trkpt lat="43.17553" lon="-0.03454">
        <ele>370.6</ele>
        <time>2020-09-12T22:18:56Z</time>
      </trkpt>
      <trkpt lat="43.17556" lon="-0.03446">
        <ele>370.5</ele>
        <time>2020-09-12T22:18:57Z</time>
      </trkpt>
      <trkpt lat="43.1756" lon="-0.03438">
        <ele>370.4</ele>
        <time>2020-09-12T22:18:58Z</time>
      </trkpt>
      <trkpt lat="43.17563" lon="-0.03431">
        <ele>370.3</ele>
        <time>2020-09-12T22:18:59Z</time>
      </trkpt>
      <trkpt lat="43.17567" lon="-0.03423">
        <ele>370.2</ele>
        <time>2020-09-12T22:19:00Z</time>
      </trkpt>
      <trkpt lat="43.17571" lon="-0.03416">
        <ele>370.1</ele>
        <time>2020-09-12T22:19:01Z</time>
      </trkpt>
      <trkpt lat="43.17575" lon="-0.03409">
        <ele>370</ele>
        <time>2020-09-12T22:19:02Z</time>
      </trkpt>
      <trkpt lat="43.1758" lon="-0.03402">
        <ele>370</ele>
        <time>2020-09-12T22:19:03Z</time>
      </trkpt>
      <trkpt lat="43.17584" lon="-0.03395">
        <ele>369.9</ele>
        <time>2020-09-12T22:19:04Z</time>
      </trkpt>
      <trkpt lat="43.17588" lon="-0.03388">
        <ele>369.9</ele>
        <time>2020-09-12T22:19:05Z</time>
      </trkpt>
      <trkpt lat="43.17592" lon="-0.03381">
        <ele>369.9</ele>
        <time>2020-09-12T22:19:06Z</time>
      </trkpt>
      <trkpt lat="43.17596" lon="-0.03374">
        <ele>369.8</ele>
        <time>2020-09-12T22:19:07Z</time>
      </trkpt>
      <trkpt lat="43.176" lon="-0.03367">
        <ele>369.7</ele>
        <time>2020-09-12T22:19:08Z</time>
      </trkpt>
      <trkpt lat="43.17604" lon="-0.0336">
        <ele>369.7</ele>
        <time>2020-09-12T22:19:09Z</time>
      </trkpt>
      <trkpt lat="43.17607" lon="-0.03353">
        <ele>369.7</ele>
        <time>2020-09-12T22:19:10Z</time>
      </trkpt>
      <trkpt lat="43.17609" lon="-0.03345">
        <ele>369.6</ele>
        <time>2020-09-12T22:19:11Z</time>
      </trkpt>
      <trkpt lat="43.17612" lon="-0.03339">
        <ele>369.6</ele>
        <time>2020-09-12T22:19:12Z</time>
      </trkpt>
      <trkpt lat="43.17614" lon="-0.03331">
        <ele>369.7</ele>
        <time>2020-09-12T22:19:13Z</time>
      </trkpt>
      <trkpt lat="43.17618" lon="-0.03325">
        <ele>369.7</ele>
        <time>2020-09-12T22:19:14Z</time>
      </trkpt>
      <trkpt lat="43.17621" lon="-0.03318">
        <ele>369.7</ele>
        <time>2020-09-12T22:19:15Z</time>
      </trkpt>
      <trkpt lat="43.17624" lon="-0.03311">
        <ele>369.7</ele>
        <time>2020-09-12T22:19:16Z</time>
      </trkpt>
      <trkpt lat="43.17628" lon="-0.03304">
        <ele>369.8</ele>
        <time>2020-09-12T22:19:17Z</time>
      </trkpt>
      <trkpt lat="43.17631" lon="-0.03297">
        <ele>369.9</ele>
        <time>2020-09-12T22:19:18Z</time>
      </trkpt>
      <trkpt lat="43.17634" lon="-0.03291">
        <ele>370</ele>
        <time>2020-09-12T22:19:19Z</time>
      </trkpt>
      <trkpt lat="43.17637" lon="-0.03284">
        <ele>370.1</ele>
        <time>2020-09-12T22:19:20Z</time>
      </trkpt>
      <trkpt lat="43.1764" lon="-0.03277">
        <ele>370.2</ele>
        <time>2020-09-12T22:19:21Z</time>
      </trkpt>
      <trkpt lat="43.17643" lon="-0.0327">
        <ele>370.3</ele>
        <time>2020-09-12T22:19:22Z</time>
      </trkpt>
      <trkpt lat="43.17646" lon="-0.03263">
        <ele>370.4</ele>
        <time>2020-09-12T22:19:23Z</time>
      </trkpt>
      <trkpt lat="43.17649" lon="-0.03257">
        <ele>370.5</ele>
        <time>2020-09-12T22:19:24Z</time>
      </trkpt>
      <trkpt lat="43.17652" lon="-0.03251">
        <ele>370.5</ele>
        <time>2020-09-12T22:19:25Z</time>
      </trkpt>
      <trkpt lat="43.17657" lon="-0.03246">
        <ele>370.5</ele>
        <time>2020-09-12T22:19:26Z</time>
      </trkpt>
      <trkpt lat="43.17661" lon="-0.03241">
        <ele>370.5</ele>
        <time>2020-09-12T22:19:27Z</time>
      </trkpt>
      <trkpt lat="43.17664" lon="-0.03236">
        <ele>370.5</ele>
        <time>2020-09-12T22:19:28Z</time>
      </trkpt>
      <trkpt lat="43.1767" lon="-0.03231">
        <ele>370.4</ele>
        <time>2020-09-12T22:19:29Z</time>
      </trkpt>
      <trkpt lat="43.17675" lon="-0.03227">
        <ele>370.3</ele>
        <time>2020-09-12T22:19:30Z</time>
      </trkpt>
      <trkpt lat="43.1768" lon="-0.03222">
        <ele>370.2</ele>
        <time>2020-09-12T22:19:31Z</time>
      </trkpt>
      <trkpt lat="43.17685" lon="-0.03217">
        <ele>370</ele>
        <time>2020-09-12T22:19:32Z</time>
      </trkpt>
      <trkpt lat="43.1769" lon="-0.03213">
        <ele>369.9</ele>
        <time>2020-09-12T22:19:33Z</time>
      </trkpt>
      <trkpt lat="43.17696" lon="-0.03208">
        <ele>369.4</ele>
        <time>2020-09-12T22:19:34Z</time>
      </trkpt>
      <trkpt lat="43.17701" lon="-0.03204">
        <ele>369</ele>
        <time>2020-09-12T22:19:35Z</time>
      </trkpt>
      <trkpt lat="43.17707" lon="-0.03202">
        <ele>368.7</ele>
        <time>2020-09-12T22:19:36Z</time>
      </trkpt>
      <trkpt lat="43.17713" lon="-0.032">
        <ele>368.5</ele>
        <time>2020-09-12T22:19:37Z</time>
      </trkpt>
      <trkpt lat="43.17719" lon="-0.03199">
        <ele>368.4</ele>
        <time>2020-09-12T22:19:38Z</time>
      </trkpt>
      <trkpt lat="43.17724" lon="-0.03196">
        <ele>368.2</ele>
        <time>2020-09-12T22:19:39Z</time>
      </trkpt>
      <trkpt lat="43.1773" lon="-0.03195">
        <ele>368.1</ele>
        <time>2020-09-12T22:19:40Z</time>
      </trkpt>
      <trkpt lat="43.17735" lon="-0.03194">
        <ele>368</ele>
        <time>2020-09-12T22:19:41Z</time>
      </trkpt>
      <trkpt lat="43.17741" lon="-0.03193">
        <ele>368</ele>
        <time>2020-09-12T22:19:42Z</time>
      </trkpt>
      <trkpt lat="43.17747" lon="-0.03193">
        <ele>368</ele>
        <time>2020-09-12T22:19:43Z</time>
      </trkpt>
      <trkpt lat="43.17753" lon="-0.03193">
        <ele>368</ele>
        <time>2020-09-12T22:19:44Z</time>
      </trkpt>
      <trkpt lat="43.17759" lon="-0.03193">
        <ele>367.8</ele>
        <time>2020-09-12T22:19:45Z</time>
      </trkpt>
      <trkpt lat="43.17765" lon="-0.03192">
        <ele>367.6</ele>
        <time>2020-09-12T22:19:46Z</time>
      </trkpt>
      <trkpt lat="43.1777" lon="-0.03191">
        <ele>367.5</ele>
        <time>2020-09-12T22:19:47Z</time>
      </trkpt>
      <trkpt lat="43.17776" lon="-0.03191">
        <ele>367.4</ele>
        <time>2020-09-12T22:19:48Z</time>
      </trkpt>
      <trkpt lat="43.17781" lon="-0.0319">
        <ele>367.2</ele>
        <time>2020-09-12T22:19:49Z</time>
      </trkpt>
      <trkpt lat="43.17786" lon="-0.03188">
        <ele>367.1</ele>
        <time>2020-09-12T22:19:50Z</time>
      </trkpt>
      <trkpt lat="43.17791" lon="-0.03186">
        <ele>366.9</ele>
        <time>2020-09-12T22:19:51Z</time>
      </trkpt>
      <trkpt lat="43.17796" lon="-0.03184">
        <ele>366.8</ele>
        <time>2020-09-12T22:19:52Z</time>
      </trkpt>
      <trkpt lat="43.17802" lon="-0.03181">
        <ele>366.7</ele>
        <time>2020-09-12T22:19:53Z</time>
      </trkpt>
      <trkpt lat="43.17807" lon="-0.03177">
        <ele>366.6</ele>
        <time>2020-09-12T22:19:54Z</time>
      </trkpt>
      <trkpt lat="43.17812" lon="-0.03173">
        <ele>366.5</ele>
        <time>2020-09-12T22:19:55Z</time>
      </trkpt>
      <trkpt lat="43.17816" lon="-0.03169">
        <ele>366.4</ele>
        <time>2020-09-12T22:19:56Z</time>
      </trkpt>
      <trkpt lat="43.1782" lon="-0.03163">
        <ele>366.3</ele>
        <time>2020-09-12T22:19:57Z</time>
      </trkpt>
      <trkpt lat="43.17824" lon="-0.03157">
        <ele>366.2</ele>
        <time>2020-09-12T22:19:58Z</time>
      </trkpt>
      <trkpt lat="43.17828" lon="-0.03151">
        <ele>366.1</ele>
        <time>2020-09-12T22:19:59Z</time>
      </trkpt>
      <trkpt lat="43.17832" lon="-0.03146">
        <ele>366.1</ele>
        <time>2020-09-12T22:20:00Z</time>
      </trkpt>
      <trkpt lat="43.17835" lon="-0.03141">
        <ele>366</ele>
        <time>2020-09-12T22:20:01Z</time>
      </trkpt>
      <trkpt lat="43.1784" lon="-0.03136">
        <ele>365.9</ele>
        <time>2020-09-12T22:20:02Z</time>
      </trkpt>
      <trkpt lat="43.17844" lon="-0.03131">
        <ele>365.9</ele>
        <time>2020-09-12T22:20:03Z</time>
      </trkpt>
      <trkpt lat="43.17848" lon="-0.03126">
        <ele>365.8</ele>
        <time>2020-09-12T22:20:04Z</time>
      </trkpt>
      <trkpt lat="43.17852" lon="-0.0312">
        <ele>365.7</ele>
        <time>2020-09-12T22:20:05Z</time>
      </trkpt>
      <trkpt lat="43.17857" lon="-0.03115">
        <ele>365.6</ele>
        <time>2020-09-12T22:20:06Z</time>
      </trkpt>
      <trkpt lat="43.1786" lon="-0.0311">
        <ele>365.6</ele>
        <time>2020-09-12T22:20:07Z</time>
      </trkpt>
      <trkpt lat="43.17865" lon="-0.03105">
        <ele>365.5</ele>
        <time>2020-09-12T22:20:08Z</time>
      </trkpt>
      <trkpt lat="43.17869" lon="-0.031">
        <ele>365.5</ele>
        <time>2020-09-12T22:20:09Z</time>
      </trkpt>
      <trkpt lat="43.17873" lon="-0.03095">
        <ele>365.4</ele>
        <time>2020-09-12T22:20:10Z</time>
      </trkpt>
      <trkpt lat="43.17878" lon="-0.03089">
        <ele>365.4</ele>
        <time>2020-09-12T22:20:11Z</time>
      </trkpt>
      <trkpt lat="43.17882" lon="-0.03084">
        <ele>365.3</ele>
        <time>2020-09-12T22:20:12Z</time>
      </trkpt>
      <trkpt lat="43.17887" lon="-0.03079">
        <ele>365.2</ele>
        <time>2020-09-12T22:20:13Z</time>
      </trkpt>
      <trkpt lat="43.17891" lon="-0.03073">
        <ele>365.2</ele>
        <time>2020-09-12T22:20:14Z</time>
      </trkpt>
      <trkpt lat="43.17895" lon="-0.03068">
        <ele>365.3</ele>
        <time>2020-09-12T22:20:15Z</time>
      </trkpt>
      <trkpt lat="43.17899" lon="-0.03064">
        <ele>365.3</ele>
        <time>2020-09-12T22:20:16Z</time>
      </trkpt>
      <trkpt lat="43.17903" lon="-0.03059">
        <ele>365.4</ele>
        <time>2020-09-12T22:20:17Z</time>
      </trkpt>
      <trkpt lat="43.17907" lon="-0.03053">
        <ele>365.4</ele>
        <time>2020-09-12T22:20:18Z</time>
      </trkpt>
      <trkpt lat="43.17912" lon="-0.03047">
        <ele>365.5</ele>
        <time>2020-09-12T22:20:19Z</time>
      </trkpt>
      <trkpt lat="43.17917" lon="-0.03042">
        <ele>365.6</ele>
        <time>2020-09-12T22:20:20Z</time>
      </trkpt>
      <trkpt lat="43.17921" lon="-0.03036">
        <ele>365.7</ele>
        <time>2020-09-12T22:20:21Z</time>
      </trkpt>
      <trkpt lat="43.17926" lon="-0.03031">
        <ele>365.7</ele>
        <time>2020-09-12T22:20:22Z</time>
      </trkpt>
      <trkpt lat="43.1793" lon="-0.03027">
        <ele>365.8</ele>
        <time>2020-09-12T22:20:23Z</time>
      </trkpt>
      <trkpt lat="43.17934" lon="-0.03022">
        <ele>365.9</ele>
        <time>2020-09-12T22:20:24Z</time>
      </trkpt>
      <trkpt lat="43.17939" lon="-0.03018">
        <ele>366</ele>
        <time>2020-09-12T22:20:25Z</time>
      </trkpt>
      <trkpt lat="43.17943" lon="-0.03014">
        <ele>366.2</ele>
        <time>2020-09-12T22:20:26Z</time>
      </trkpt>
      <trkpt lat="43.17947" lon="-0.03008">
        <ele>366.3</ele>
        <time>2020-09-12T22:20:27Z</time>
      </trkpt>
      <trkpt lat="43.17949" lon="-0.03003">
        <ele>366.4</ele>
        <time>2020-09-12T22:20:28Z</time>
      </trkpt>
      <trkpt lat="43.17949" lon="-0.02998">
        <ele>366.5</ele>
        <time>2020-09-12T22:20:29Z</time>
      </trkpt>
      <trkpt lat="43.17949" lon="-0.02992">
        <ele>366.6</ele>
        <time>2020-09-12T22:20:30Z</time>
      </trkpt>
      <trkpt lat="43.17949" lon="-0.02985">
        <ele>366.7</ele>
        <time>2020-09-12T22:20:31Z</time>
      </trkpt>
      <trkpt lat="43.17949" lon="-0.02979">
        <ele>366.8</ele>
        <time>2020-09-12T22:20:32Z</time>
      </trkpt>
      <trkpt lat="43.17949" lon="-0.02973">
        <ele>366.9</ele>
        <time>2020-09-12T22:20:33Z</time>
      </trkpt>
      <trkpt lat="43.17949" lon="-0.02966">
        <ele>367</ele>
        <time>2020-09-12T22:20:34Z</time>
      </trkpt>
      <trkpt lat="43.17949" lon="-0.0296">
        <ele>367.2</ele>
        <time>2020-09-12T22:20:35Z</time>
      </trkpt>
      <trkpt lat="43.17949" lon="-0.02953">
        <ele>367.3</ele>
        <time>2020-09-12T22:20:36Z</time>
      </trkpt>
      <trkpt lat="43.17949" lon="-0.02946">
        <ele>367.4</ele>
        <time>2020-09-12T22:20:37Z</time>
      </trkpt>
      <trkpt lat="43.17949" lon="-0.0294">
        <ele>367.5</ele>
        <time>2020-09-12T22:20:38Z</time>
      </trkpt>
      <trkpt lat="43.17949" lon="-0.02933">
        <ele>367.6</ele>
        <time>2020-09-12T22:20:39Z</time>
      </trkpt>
      <trkpt lat="43.17949" lon="-0.02927">
        <ele>367.7</ele>
        <time>2020-09-12T22:20:40Z</time>
      </trkpt>
      <trkpt lat="43.1795" lon="-0.02923">
        <ele>367.7</ele>
        <time>2020-09-12T22:20:41Z</time>
      </trkpt>
      <trkpt lat="43.17952" lon="-0.02915">
        <ele>367.9</ele>
        <time>2020-09-12T22:20:42Z</time>
      </trkpt>
      <trkpt lat="43.17951" lon="-0.0291">
        <ele>367.9</ele>
        <time>2020-09-12T22:20:43Z</time>
      </trkpt>
      <trkpt lat="43.1795" lon="-0.02903">
        <ele>368</ele>
        <time>2020-09-12T22:20:44Z</time>
      </trkpt>
      <trkpt lat="43.17948" lon="-0.02895">
        <ele>368</ele>
        <time>2020-09-12T22:20:45Z</time>
      </trkpt>
      <trkpt lat="43.17946" lon="-0.02888">
        <ele>368</ele>
        <time>2020-09-12T22:20:46Z</time>
      </trkpt>
      <trkpt lat="43.17944" lon="-0.02881">
        <ele>367.9</ele>
        <time>2020-09-12T22:20:47Z</time>
      </trkpt>
      <trkpt lat="43.17942" lon="-0.02874">
        <ele>367.9</ele>
        <time>2020-09-12T22:20:48Z</time>
      </trkpt>
      <trkpt lat="43.1794" lon="-0.02867">
        <ele>367.8</ele>
        <time>2020-09-12T22:20:49Z</time>
      </trkpt>
      <trkpt lat="43.17939" lon="-0.02861">
        <ele>367.8</ele>
        <time>2020-09-12T22:20:50Z</time>
      </trkpt>
      <trkpt lat="43.17937" lon="-0.02854">
        <ele>367.8</ele>
        <time>2020-09-12T22:20:51Z</time>
      </trkpt>
      <trkpt lat="43.17936" lon="-0.02848">
        <ele>367.8</ele>
        <time>2020-09-12T22:20:52Z</time>
      </trkpt>
      <trkpt lat="43.17934" lon="-0.02841">
        <ele>367.8</ele>
        <time>2020-09-12T22:20:53Z</time>
      </trkpt>
      <trkpt lat="43.17933" lon="-0.02836">
        <ele>367.8</ele>
        <time>2020-09-12T22:20:54Z</time>
      </trkpt>
      <trkpt lat="43.17932" lon="-0.0283">
        <ele>367.8</ele>
        <time>2020-09-12T22:20:55Z</time>
      </trkpt>
      <trkpt lat="43.17931" lon="-0.02824">
        <ele>367.8</ele>
        <time>2020-09-12T22:20:56Z</time>
      </trkpt>
      <trkpt lat="43.17934" lon="-0.02818">
        <ele>367.8</ele>
        <time>2020-09-12T22:20:57Z</time>
      </trkpt>
      <trkpt lat="43.17935" lon="-0.02813">
        <ele>367.8</ele>
        <time>2020-09-12T22:20:58Z</time>
      </trkpt>
      <trkpt lat="43.17939" lon="-0.02808">
        <ele>367.7</ele>
        <time>2020-09-12T22:20:59Z</time>
      </trkpt>
      <trkpt lat="43.17942" lon="-0.02805">
        <ele>367.7</ele>
        <time>2020-09-12T22:21:00Z</time>
      </trkpt>
      <trkpt lat="43.17946" lon="-0.02801">
        <ele>367.7</ele>
        <time>2020-09-12T22:21:01Z</time>
      </trkpt>
      <trkpt lat="43.17951" lon="-0.02798">
        <ele>367.7</ele>
        <time>2020-09-12T22:21:02Z</time>
      </trkpt>
      <trkpt lat="43.17956" lon="-0.02795">
        <ele>367.7</ele>
        <time>2020-09-12T22:21:03Z</time>
      </trkpt>
      <trkpt lat="43.1796" lon="-0.02791">
        <ele>367.7</ele>
        <time>2020-09-12T22:21:04Z</time>
      </trkpt>
      <trkpt lat="43.17965" lon="-0.0279">
        <ele>367.6</ele>
        <time>2020-09-12T22:21:05Z</time>
      </trkpt>
      <trkpt lat="43.1797" lon="-0.02788">
        <ele>367.6</ele>
        <time>2020-09-12T22:21:06Z</time>
      </trkpt>
      <trkpt lat="43.17975" lon="-0.02787">
        <ele>367.6</ele>
        <time>2020-09-12T22:21:07Z</time>
      </trkpt>
      <trkpt lat="43.1798" lon="-0.02786">
        <ele>367.6</ele>
        <time>2020-09-12T22:21:08Z</time>
      </trkpt>
      <trkpt lat="43.17985" lon="-0.02785">
        <ele>367.6</ele>
        <time>2020-09-12T22:21:09Z</time>
      </trkpt>
      <trkpt lat="43.17991" lon="-0.02785">
        <ele>367.5</ele>
        <time>2020-09-12T22:21:10Z</time>
      </trkpt>
      <trkpt lat="43.17996" lon="-0.02784">
        <ele>367.5</ele>
        <time>2020-09-12T22:21:11Z</time>
      </trkpt>
      <trkpt lat="43.18001" lon="-0.02784">
        <ele>367.5</ele>
        <time>2020-09-12T22:21:12Z</time>
      </trkpt>
      <trkpt lat="43.18006" lon="-0.02784">
        <ele>367.5</ele>
        <time>2020-09-12T22:21:13Z</time>
      </trkpt>
      <trkpt lat="43.18011" lon="-0.02784">
        <ele>367.5</ele>
        <time>2020-09-12T22:21:14Z</time>
      </trkpt>
      <trkpt lat="43.18017" lon="-0.02784">
        <ele>367.4</ele>
        <time>2020-09-12T22:21:15Z</time>
      </trkpt>
      <trkpt lat="43.18022" lon="-0.02784">
        <ele>367.4</ele>
        <time>2020-09-12T22:21:16Z</time>
      </trkpt>
      <trkpt lat="43.18028" lon="-0.02784">
        <ele>367.4</ele>
        <time>2020-09-12T22:21:17Z</time>
      </trkpt>
      <trkpt lat="43.18033" lon="-0.02784">
        <ele>367.4</ele>
        <time>2020-09-12T22:21:18Z</time>
      </trkpt>
      <trkpt lat="43.18037" lon="-0.02782">
        <ele>367.3</ele>
        <time>2020-09-12T22:21:19Z</time>
      </trkpt>
      <trkpt lat="43.18044" lon="-0.02782">
        <ele>367.3</ele>
        <time>2020-09-12T22:21:20Z</time>
      </trkpt>
      <trkpt lat="43.18049" lon="-0.0278">
        <ele>367.3</ele>
        <time>2020-09-12T22:21:21Z</time>
      </trkpt>
      <trkpt lat="43.18054" lon="-0.02776">
        <ele>367.3</ele>
        <time>2020-09-12T22:21:22Z</time>
      </trkpt>
      <trkpt lat="43.18059" lon="-0.02772">
        <ele>367.3</ele>
        <time>2020-09-12T22:21:23Z</time>
      </trkpt>
      <trkpt lat="43.18063" lon="-0.02768">
        <ele>367.6</ele>
        <time>2020-09-12T22:21:24Z</time>
      </trkpt>
      <trkpt lat="43.18065" lon="-0.02762">
        <ele>367.7</ele>
        <time>2020-09-12T22:21:25Z</time>
      </trkpt>
      <trkpt lat="43.18066" lon="-0.02755">
        <ele>367.8</ele>
        <time>2020-09-12T22:21:26Z</time>
      </trkpt>
      <trkpt lat="43.18067" lon="-0.02747">
        <ele>367.9</ele>
        <time>2020-09-12T22:21:27Z</time>
      </trkpt>
      <trkpt lat="43.18067" lon="-0.0274">
        <ele>367.9</ele>
        <time>2020-09-12T22:21:28Z</time>
      </trkpt>
      <trkpt lat="43.18068" lon="-0.02733">
        <ele>368</ele>
        <time>2020-09-12T22:21:29Z</time>
      </trkpt>
      <trkpt lat="43.18069" lon="-0.02726">
        <ele>368.1</ele>
        <time>2020-09-12T22:21:30Z</time>
      </trkpt>
      <trkpt lat="43.18069" lon="-0.02718">
        <ele>368.4</ele>
        <time>2020-09-12T22:21:31Z</time>
      </trkpt>
      <trkpt lat="43.1807" lon="-0.02711">
        <ele>368.5</ele>
        <time>2020-09-12T22:21:32Z</time>
      </trkpt>
      <trkpt lat="43.18069" lon="-0.02703">
        <ele>368.7</ele>
        <time>2020-09-12T22:21:33Z</time>
      </trkpt>
      <trkpt lat="43.18068" lon="-0.02695">
        <ele>368.8</ele>
        <time>2020-09-12T22:21:34Z</time>
      </trkpt>
      <trkpt lat="43.18067" lon="-0.02688">
        <ele>368.9</ele>
        <time>2020-09-12T22:21:35Z</time>
      </trkpt>
      <trkpt lat="43.18066" lon="-0.0268">
        <ele>369</ele>
        <time>2020-09-12T22:21:36Z</time>
      </trkpt>
      <trkpt lat="43.18065" lon="-0.02673">
        <ele>369.1</ele>
        <time>2020-09-12T22:21:37Z</time>
      </trkpt>
      <trkpt lat="43.18064" lon="-0.02666">
        <ele>369.3</ele>
        <time>2020-09-12T22:21:38Z</time>
      </trkpt>
      <trkpt lat="43.18063" lon="-0.02658">
        <ele>369.4</ele>
        <time>2020-09-12T22:21:39Z</time>
      </trkpt>
      <trkpt lat="43.18062" lon="-0.02651">
        <ele>369.2</ele>
        <time>2020-09-12T22:21:40Z</time>
      </trkpt>
      <trkpt lat="43.18061" lon="-0.02644">
        <ele>369.1</ele>
        <time>2020-09-12T22:21:41Z</time>
      </trkpt>
      <trkpt lat="43.18061" lon="-0.02636">
        <ele>369.1</ele>
        <time>2020-09-12T22:21:42Z</time>
      </trkpt>
      <trkpt lat="43.1806" lon="-0.02629">
        <ele>369</ele>
        <time>2020-09-12T22:21:43Z</time>
      </trkpt>
      <trkpt lat="43.1806" lon="-0.02622">
        <ele>369</ele>
        <time>2020-09-12T22:21:44Z</time>
      </trkpt>
      <trkpt lat="43.18059" lon="-0.02615">
        <ele>369</ele>
        <time>2020-09-12T22:21:45Z</time>
      </trkpt>
      <trkpt lat="43.18059" lon="-0.02608">
        <ele>369</ele>
        <time>2020-09-12T22:21:46Z</time>
      </trkpt>
      <trkpt lat="43.18058" lon="-0.02601">
        <ele>369</ele>
        <time>2020-09-12T22:21:47Z</time>
      </trkpt>
      <trkpt lat="43.18058" lon="-0.02593">
        <ele>369.1</ele>
        <time>2020-09-12T22:21:48Z</time>
      </trkpt>
      <trkpt lat="43.18058" lon="-0.02587">
        <ele>369.1</ele>
        <time>2020-09-12T22:21:49Z</time>
      </trkpt>
      <trkpt lat="43.18058" lon="-0.0258">
        <ele>369</ele>
        <time>2020-09-12T22:21:50Z</time>
      </trkpt>
      <trkpt lat="43.18058" lon="-0.02573">
        <ele>369</ele>
        <time>2020-09-12T22:21:51Z</time>
      </trkpt>
      <trkpt lat="43.18058" lon="-0.02566">
        <ele>369</ele>
        <time>2020-09-12T22:21:52Z</time>
      </trkpt>
      <trkpt lat="43.18058" lon="-0.02558">
        <ele>368.9</ele>
        <time>2020-09-12T22:21:53Z</time>
      </trkpt>
      <trkpt lat="43.18058" lon="-0.02552">
        <ele>368.9</ele>
        <time>2020-09-12T22:21:54Z</time>
      </trkpt>
      <trkpt lat="43.18058" lon="-0.02547">
        <ele>368.9</ele>
        <time>2020-09-12T22:21:55Z</time>
      </trkpt>
      <trkpt lat="43.18057" lon="-0.02543">
        <ele>368.9</ele>
        <time>2020-09-12T22:21:56Z</time>
      </trkpt>
      <trkpt lat="43.18056" lon="-0.02538">
        <ele>368.9</ele>
        <time>2020-09-12T22:21:58Z</time>
      </trkpt>
      <trkpt lat="43.1806" lon="-0.02535">
        <ele>368.9</ele>
        <time>2020-09-12T22:22:00Z</time>
      </trkpt>
      <trkpt lat="43.18062" lon="-0.02534">
        <ele>368.9</ele>
        <time>2020-09-12T22:22:01Z</time>
      </trkpt>
      <trkpt lat="43.18066" lon="-0.02534">
        <ele>368.9</ele>
        <time>2020-09-12T22:22:02Z</time>
      </trkpt>
      <trkpt lat="43.18072" lon="-0.02535">
        <ele>368.8</ele>
        <time>2020-09-12T22:22:03Z</time>
      </trkpt>
      <trkpt lat="43.18078" lon="-0.02535">
        <ele>368.8</ele>
        <time>2020-09-12T22:22:04Z</time>
      </trkpt>
      <trkpt lat="43.18084" lon="-0.02535">
        <ele>368.7</ele>
        <time>2020-09-12T22:22:05Z</time>
      </trkpt>
      <trkpt lat="43.18089" lon="-0.02534">
        <ele>368.7</ele>
        <time>2020-09-12T22:22:06Z</time>
      </trkpt>
      <trkpt lat="43.18094" lon="-0.02535">
        <ele>368.6</ele>
        <time>2020-09-12T22:22:07Z</time>
      </trkpt>
      <trkpt lat="43.18099" lon="-0.02535">
        <ele>368.5</ele>
        <time>2020-09-12T22:22:08Z</time>
      </trkpt>
      <trkpt lat="43.18104" lon="-0.02534">
        <ele>368.4</ele>
        <time>2020-09-12T22:22:09Z</time>
      </trkpt>
      <trkpt lat="43.18109" lon="-0.02534">
        <ele>368.4</ele>
        <time>2020-09-12T22:22:10Z</time>
      </trkpt>
      <trkpt lat="43.18114" lon="-0.02532">
        <ele>368.3</ele>
        <time>2020-09-12T22:22:11Z</time>
      </trkpt>
      <trkpt lat="43.18119" lon="-0.02531">
        <ele>368.2</ele>
        <time>2020-09-12T22:22:12Z</time>
      </trkpt>
      <trkpt lat="43.18125" lon="-0.02532">
        <ele>368</ele>
        <time>2020-09-12T22:22:13Z</time>
      </trkpt>
      <trkpt lat="43.18131" lon="-0.02532">
        <ele>367.9</ele>
        <time>2020-09-12T22:22:14Z</time>
      </trkpt>
      <trkpt lat="43.18136" lon="-0.02531">
        <ele>367.8</ele>
        <time>2020-09-12T22:22:15Z</time>
      </trkpt>
      <trkpt lat="43.18139" lon="-0.02527">
        <ele>367.8</ele>
        <time>2020-09-12T22:22:16Z</time>
      </trkpt>
      <trkpt lat="43.18141" lon="-0.02521">
        <ele>367.9</ele>
        <time>2020-09-12T22:22:17Z</time>
      </trkpt>
      <trkpt lat="43.18142" lon="-0.02514">
        <ele>368</ele>
        <time>2020-09-12T22:22:18Z</time>
      </trkpt>
      <trkpt lat="43.18142" lon="-0.02507">
        <ele>368.1</ele>
        <time>2020-09-12T22:22:19Z</time>
      </trkpt>
      <trkpt lat="43.18142" lon="-0.025">
        <ele>368.2</ele>
        <time>2020-09-12T22:22:20Z</time>
      </trkpt>
      <trkpt lat="43.18142" lon="-0.02493">
        <ele>368.2</ele>
        <time>2020-09-12T22:22:21Z</time>
      </trkpt>
      <trkpt lat="43.18141" lon="-0.02486">
        <ele>368.3</ele>
        <time>2020-09-12T22:22:22Z</time>
      </trkpt>
      <trkpt lat="43.18141" lon="-0.02479">
        <ele>368.3</ele>
        <time>2020-09-12T22:22:23Z</time>
      </trkpt>
      <trkpt lat="43.18141" lon="-0.02472">
        <ele>368.3</ele>
        <time>2020-09-12T22:22:24Z</time>
      </trkpt>
      <trkpt lat="43.1814" lon="-0.02465">
        <ele>368.3</ele>
        <time>2020-09-12T22:22:25Z</time>
      </trkpt>
      <trkpt lat="43.1814" lon="-0.02458">
        <ele>368.3</ele>
        <time>2020-09-12T22:22:26Z</time>
      </trkpt>
      <trkpt lat="43.1814" lon="-0.02451">
        <ele>368.4</ele>
        <time>2020-09-12T22:22:27Z</time>
      </trkpt>
      <trkpt lat="43.18139" lon="-0.02444">
        <ele>368.4</ele>
        <time>2020-09-12T22:22:28Z</time>
      </trkpt>
      <trkpt lat="43.18139" lon="-0.02437">
        <ele>368.4</ele>
        <time>2020-09-12T22:22:29Z</time>
      </trkpt>
      <trkpt lat="43.1814" lon="-0.02429">
        <ele>368.4</ele>
        <time>2020-09-12T22:22:30Z</time>
      </trkpt>
      <trkpt lat="43.1814" lon="-0.02422">
        <ele>368.5</ele>
        <time>2020-09-12T22:22:31Z</time>
      </trkpt>
      <trkpt lat="43.18141" lon="-0.02415">
        <ele>368.5</ele>
        <time>2020-09-12T22:22:32Z</time>
      </trkpt>
      <trkpt lat="43.18141" lon="-0.02407">
        <ele>368.6</ele>
        <time>2020-09-12T22:22:33Z</time>
      </trkpt>
      <trkpt lat="43.18141" lon="-0.02401">
        <ele>368.6</ele>
        <time>2020-09-12T22:22:34Z</time>
      </trkpt>
      <trkpt lat="43.18141" lon="-0.02394">
        <ele>368.7</ele>
        <time>2020-09-12T22:22:35Z</time>
      </trkpt>
      <trkpt lat="43.18141" lon="-0.02388">
        <ele>368.8</ele>
        <time>2020-09-12T22:22:36Z</time>
      </trkpt>
      <trkpt lat="43.18142" lon="-0.02381">
        <ele>368.7</ele>
        <time>2020-09-12T22:22:37Z</time>
      </trkpt>
      <trkpt lat="43.18142" lon="-0.02374">
        <ele>368.6</ele>
        <time>2020-09-12T22:22:38Z</time>
      </trkpt>
      <trkpt lat="43.18142" lon="-0.02367">
        <ele>368.6</ele>
        <time>2020-09-12T22:22:39Z</time>
      </trkpt>
      <trkpt lat="43.18142" lon="-0.0236">
        <ele>368.5</ele>
        <time>2020-09-12T22:22:40Z</time>
      </trkpt>
      <trkpt lat="43.18142" lon="-0.02352">
        <ele>368.5</ele>
        <time>2020-09-12T22:22:41Z</time>
      </trkpt>
      <trkpt lat="43.18142" lon="-0.02345">
        <ele>368.5</ele>
        <time>2020-09-12T22:22:42Z</time>
      </trkpt>
      <trkpt lat="43.18143" lon="-0.02337">
        <ele>368.5</ele>
        <time>2020-09-12T22:22:43Z</time>
      </trkpt>
      <trkpt lat="43.18143" lon="-0.02329">
        <ele>368.5</ele>
        <time>2020-09-12T22:22:44Z</time>
      </trkpt>
      <trkpt lat="43.18142" lon="-0.02321">
        <ele>368.4</ele>
        <time>2020-09-12T22:22:45Z</time>
      </trkpt>
      <trkpt lat="43.18142" lon="-0.02313">
        <ele>368.4</ele>
        <time>2020-09-12T22:22:46Z</time>
      </trkpt>
      <trkpt lat="43.18142" lon="-0.02306">
        <ele>368.3</ele>
        <time>2020-09-12T22:22:47Z</time>
      </trkpt>
      <trkpt lat="43.18141" lon="-0.02298">
        <ele>368.3</ele>
        <time>2020-09-12T22:22:48Z</time>
      </trkpt>
      <trkpt lat="43.18141" lon="-0.02291">
        <ele>368.2</ele>
        <time>2020-09-12T22:22:49Z</time>
      </trkpt>
      <trkpt lat="43.1814" lon="-0.02284">
        <ele>368.2</ele>
        <time>2020-09-12T22:22:50Z</time>
      </trkpt>
      <trkpt lat="43.1814" lon="-0.02277">
        <ele>368.2</ele>
        <time>2020-09-12T22:22:51Z</time>
      </trkpt>
      <trkpt lat="43.18139" lon="-0.02271">
        <ele>368.2</ele>
        <time>2020-09-12T22:22:52Z</time>
      </trkpt>
      <trkpt lat="43.18139" lon="-0.02265">
        <ele>368.2</ele>
        <time>2020-09-12T22:22:53Z</time>
      </trkpt>
      <trkpt lat="43.18138" lon="-0.02258">
        <ele>368.2</ele>
        <time>2020-09-12T22:22:54Z</time>
      </trkpt>
      <trkpt lat="43.18137" lon="-0.02252">
        <ele>368.3</ele>
        <time>2020-09-12T22:22:55Z</time>
      </trkpt>
      <trkpt lat="43.18137" lon="-0.02246">
        <ele>368.3</ele>
        <time>2020-09-12T22:22:56Z</time>
      </trkpt>
      <trkpt lat="43.18137" lon="-0.0224">
        <ele>368.4</ele>
        <time>2020-09-12T22:22:57Z</time>
      </trkpt>
      <trkpt lat="43.18136" lon="-0.02233">
        <ele>368.4</ele>
        <time>2020-09-12T22:22:58Z</time>
      </trkpt>
      <trkpt lat="43.18136" lon="-0.02226">
        <ele>368.4</ele>
        <time>2020-09-12T22:22:59Z</time>
      </trkpt>
      <trkpt lat="43.18137" lon="-0.0222">
        <ele>368.4</ele>
        <time>2020-09-12T22:23:00Z</time>
      </trkpt>
      <trkpt lat="43.18139" lon="-0.02216">
        <ele>368.5</ele>
        <time>2020-09-12T22:23:01Z</time>
      </trkpt>
      <trkpt lat="43.18143" lon="-0.02214">
        <ele>368.5</ele>
        <time>2020-09-12T22:23:02Z</time>
      </trkpt>
      <trkpt lat="43.18147" lon="-0.02213">
        <ele>368.6</ele>
        <time>2020-09-12T22:23:03Z</time>
      </trkpt>
      <trkpt lat="43.18152" lon="-0.02212">
        <ele>368.7</ele>
        <time>2020-09-12T22:23:04Z</time>
      </trkpt>
      <trkpt lat="43.18157" lon="-0.0221">
        <ele>368.7</ele>
        <time>2020-09-12T22:23:05Z</time>
      </trkpt>
      <trkpt lat="43.18163" lon="-0.02208">
        <ele>368.8</ele>
        <time>2020-09-12T22:23:06Z</time>
      </trkpt>
      <trkpt lat="43.18169" lon="-0.02205">
        <ele>368.8</ele>
        <time>2020-09-12T22:23:07Z</time>
      </trkpt>
      <trkpt lat="43.18174" lon="-0.02202">
        <ele>368.8</ele>
        <time>2020-09-12T22:23:08Z</time>
      </trkpt>
      <trkpt lat="43.18179" lon="-0.02199">
        <ele>368.8</ele>
        <time>2020-09-12T22:23:09Z</time>
      </trkpt>
      <trkpt lat="43.18184" lon="-0.02196">
        <ele>368.7</ele>
        <time>2020-09-12T22:23:10Z</time>
      </trkpt>
      <trkpt lat="43.1819" lon="-0.02193">
        <ele>368.7</ele>
        <time>2020-09-12T22:23:11Z</time>
      </trkpt>
      <trkpt lat="43.18194" lon="-0.0219">
        <ele>368.6</ele>
        <time>2020-09-12T22:23:12Z</time>
      </trkpt>
      <trkpt lat="43.18199" lon="-0.02187">
        <ele>368.5</ele>
        <time>2020-09-12T22:23:13Z</time>
      </trkpt>
      <trkpt lat="43.18204" lon="-0.02184">
        <ele>368.4</ele>
        <time>2020-09-12T22:23:14Z</time>
      </trkpt>
      <trkpt lat="43.18209" lon="-0.02181">
        <ele>368.2</ele>
        <time>2020-09-12T22:23:15Z</time>
      </trkpt>
      <trkpt lat="43.18214" lon="-0.02177">
        <ele>368</ele>
        <time>2020-09-12T22:23:16Z</time>
      </trkpt>
      <trkpt lat="43.18219" lon="-0.02174">
        <ele>367.9</ele>
        <time>2020-09-12T22:23:17Z</time>
      </trkpt>
      <trkpt lat="43.18223" lon="-0.02171">
        <ele>367.7</ele>
        <time>2020-09-12T22:23:18Z</time>
      </trkpt>
      <trkpt lat="43.18228" lon="-0.02168">
        <ele>367.6</ele>
        <time>2020-09-12T22:23:19Z</time>
      </trkpt>
      <trkpt lat="43.18233" lon="-0.02164">
        <ele>367.4</ele>
        <time>2020-09-12T22:23:20Z</time>
      </trkpt>
      <trkpt lat="43.18238" lon="-0.02162">
        <ele>367.3</ele>
        <time>2020-09-12T22:23:21Z</time>
      </trkpt>
      <trkpt lat="43.18243" lon="-0.02158">
        <ele>367.2</ele>
        <time>2020-09-12T22:23:22Z</time>
      </trkpt>
      <trkpt lat="43.18248" lon="-0.02155">
        <ele>367.2</ele>
        <time>2020-09-12T22:23:23Z</time>
      </trkpt>
      <trkpt lat="43.18253" lon="-0.02151">
        <ele>367.1</ele>
        <time>2020-09-12T22:23:24Z</time>
      </trkpt>
      <trkpt lat="43.18258" lon="-0.02148">
        <ele>367.1</ele>
        <time>2020-09-12T22:23:25Z</time>
      </trkpt>
      <trkpt lat="43.18263" lon="-0.02145">
        <ele>367</ele>
        <time>2020-09-12T22:23:26Z</time>
      </trkpt>
      <trkpt lat="43.18267" lon="-0.02142">
        <ele>367</ele>
        <time>2020-09-12T22:23:27Z</time>
      </trkpt>
      <trkpt lat="43.18271" lon="-0.0214">
        <ele>367</ele>
        <time>2020-09-12T22:23:28Z</time>
      </trkpt>
      <trkpt lat="43.18276" lon="-0.02137">
        <ele>367</ele>
        <time>2020-09-12T22:23:29Z</time>
      </trkpt>
      <trkpt lat="43.1828" lon="-0.02134">
        <ele>366.9</ele>
        <time>2020-09-12T22:23:30Z</time>
      </trkpt>
      <trkpt lat="43.18285" lon="-0.02131">
        <ele>366.9</ele>
        <time>2020-09-12T22:23:31Z</time>
      </trkpt>
      <trkpt lat="43.18291" lon="-0.02127">
        <ele>366.9</ele>
        <time>2020-09-12T22:23:32Z</time>
      </trkpt>
      <trkpt lat="43.18295" lon="-0.02124">
        <ele>366.9</ele>
        <time>2020-09-12T22:23:33Z</time>
      </trkpt>
      <trkpt lat="43.183" lon="-0.02121">
        <ele>366.9</ele>
        <time>2020-09-12T22:23:34Z</time>
      </trkpt>
      <trkpt lat="43.18305" lon="-0.02118">
        <ele>366.8</ele>
        <time>2020-09-12T22:23:35Z</time>
      </trkpt>
      <trkpt lat="43.1831" lon="-0.02115">
        <ele>366.8</ele>
        <time>2020-09-12T22:23:36Z</time>
      </trkpt>
      <trkpt lat="43.18315" lon="-0.02111">
        <ele>366.8</ele>
        <time>2020-09-12T22:23:37Z</time>
      </trkpt>
      <trkpt lat="43.18321" lon="-0.02108">
        <ele>366.8</ele>
        <time>2020-09-12T22:23:38Z</time>
      </trkpt>
      <trkpt lat="43.18325" lon="-0.02105">
        <ele>366.7</ele>
        <time>2020-09-12T22:23:39Z</time>
      </trkpt>
      <trkpt lat="43.18331" lon="-0.02101">
        <ele>366.6</ele>
        <time>2020-09-12T22:23:40Z</time>
      </trkpt>
      <trkpt lat="43.18336" lon="-0.02099">
        <ele>366.5</ele>
        <time>2020-09-12T22:23:41Z</time>
      </trkpt>
      <trkpt lat="43.18341" lon="-0.02096">
        <ele>366.4</ele>
        <time>2020-09-12T22:23:42Z</time>
      </trkpt>
      <trkpt lat="43.18345" lon="-0.02093">
        <ele>366.3</ele>
        <time>2020-09-12T22:23:43Z</time>
      </trkpt>
      <trkpt lat="43.1835" lon="-0.0209">
        <ele>366.1</ele>
        <time>2020-09-12T22:23:44Z</time>
      </trkpt>
      <trkpt lat="43.18355" lon="-0.02087">
        <ele>366</ele>
        <time>2020-09-12T22:23:45Z</time>
      </trkpt>
      <trkpt lat="43.1836" lon="-0.02084">
        <ele>365.8</ele>
        <time>2020-09-12T22:23:46Z</time>
      </trkpt>
      <trkpt lat="43.18365" lon="-0.02081">
        <ele>365.7</ele>
        <time>2020-09-12T22:23:47Z</time>
      </trkpt>
      <trkpt lat="43.1837" lon="-0.02078">
        <ele>365.7</ele>
        <time>2020-09-12T22:23:48Z</time>
      </trkpt>
      <trkpt lat="43.18375" lon="-0.02076">
        <ele>365.7</ele>
        <time>2020-09-12T22:23:49Z</time>
      </trkpt>
      <trkpt lat="43.1838" lon="-0.02073">
        <ele>365.7</ele>
        <time>2020-09-12T22:23:50Z</time>
      </trkpt>
      <trkpt lat="43.18385" lon="-0.0207">
        <ele>365.7</ele>
        <time>2020-09-12T22:23:51Z</time>
      </trkpt>
      <trkpt lat="43.1839" lon="-0.02067">
        <ele>365.7</ele>
        <time>2020-09-12T22:23:52Z</time>
      </trkpt>
      <trkpt lat="43.18395" lon="-0.02064">
        <ele>365.8</ele>
        <time>2020-09-12T22:23:53Z</time>
      </trkpt>
      <trkpt lat="43.18399" lon="-0.0206">
        <ele>365.9</ele>
        <time>2020-09-12T22:23:54Z</time>
      </trkpt>
      <trkpt lat="43.18404" lon="-0.02057">
        <ele>365.9</ele>
        <time>2020-09-12T22:23:55Z</time>
      </trkpt>
      <trkpt lat="43.18408" lon="-0.02054">
        <ele>366</ele>
        <time>2020-09-12T22:23:56Z</time>
      </trkpt>
      <trkpt lat="43.18412" lon="-0.02051">
        <ele>366</ele>
        <time>2020-09-12T22:23:57Z</time>
      </trkpt>
      <trkpt lat="43.18417" lon="-0.02048">
        <ele>366</ele>
        <time>2020-09-12T22:23:58Z</time>
      </trkpt>
      <trkpt lat="43.18421" lon="-0.02045">
        <ele>365.9</ele>
        <time>2020-09-12T22:23:59Z</time>
      </trkpt>
      <trkpt lat="43.18426" lon="-0.02042">
        <ele>365.9</ele>
        <time>2020-09-12T22:24:00Z</time>
      </trkpt>
      <trkpt lat="43.18431" lon="-0.02038">
        <ele>365.8</ele>
        <time>2020-09-12T22:24:01Z</time>
      </trkpt>
      <trkpt lat="43.18435" lon="-0.02036">
        <ele>365.8</ele>
        <time>2020-09-12T22:24:02Z</time>
      </trkpt>
      <trkpt lat="43.1844" lon="-0.02033">
        <ele>365.7</ele>
        <time>2020-09-12T22:24:03Z</time>
      </trkpt>
      <trkpt lat="43.18445" lon="-0.02029">
        <ele>365.6</ele>
        <time>2020-09-12T22:24:04Z</time>
      </trkpt>
      <trkpt lat="43.18449" lon="-0.02025">
        <ele>365.6</ele>
        <time>2020-09-12T22:24:05Z</time>
      </trkpt>
      <trkpt lat="43.18454" lon="-0.02021">
        <ele>365.5</ele>
        <time>2020-09-12T22:24:06Z</time>
      </trkpt>
      <trkpt lat="43.18458" lon="-0.02018">
        <ele>365.4</ele>
        <time>2020-09-12T22:24:07Z</time>
      </trkpt>
      <trkpt lat="43.18463" lon="-0.02014">
        <ele>365.3</ele>
        <time>2020-09-12T22:24:08Z</time>
      </trkpt>
      <trkpt lat="43.18468" lon="-0.02012">
        <ele>365.2</ele>
        <time>2020-09-12T22:24:09Z</time>
      </trkpt>
      <trkpt lat="43.18472" lon="-0.02009">
        <ele>365.1</ele>
        <time>2020-09-12T22:24:10Z</time>
      </trkpt>
      <trkpt lat="43.18477" lon="-0.02006">
        <ele>365.1</ele>
        <time>2020-09-12T22:24:11Z</time>
      </trkpt>
      <trkpt lat="43.18481" lon="-0.02003">
        <ele>365</ele>
        <time>2020-09-12T22:24:12Z</time>
      </trkpt>
      <trkpt lat="43.18486" lon="-0.02">
        <ele>364.9</ele>
        <time>2020-09-12T22:24:13Z</time>
      </trkpt>
      <trkpt lat="43.18491" lon="-0.01997">
        <ele>364.8</ele>
        <time>2020-09-12T22:24:14Z</time>
      </trkpt>
      <trkpt lat="43.18496" lon="-0.01994">
        <ele>364.7</ele>
        <time>2020-09-12T22:24:15Z</time>
      </trkpt>
      <trkpt lat="43.18501" lon="-0.01992">
        <ele>364.6</ele>
        <time>2020-09-12T22:24:16Z</time>
      </trkpt>
      <trkpt lat="43.18506" lon="-0.01989">
        <ele>364.6</ele>
        <time>2020-09-12T22:24:17Z</time>
      </trkpt>
      <trkpt lat="43.18511" lon="-0.01987">
        <ele>364.5</ele>
        <time>2020-09-12T22:24:18Z</time>
      </trkpt>
      <trkpt lat="43.18516" lon="-0.01985">
        <ele>364.5</ele>
        <time>2020-09-12T22:24:19Z</time>
      </trkpt>
      <trkpt lat="43.18521" lon="-0.01983">
        <ele>364.4</ele>
        <time>2020-09-12T22:24:20Z</time>
      </trkpt>
      <trkpt lat="43.18526" lon="-0.01981">
        <ele>364.4</ele>
        <time>2020-09-12T22:24:21Z</time>
      </trkpt>
      <trkpt lat="43.18531" lon="-0.01979">
        <ele>364.3</ele>
        <time>2020-09-12T22:24:22Z</time>
      </trkpt>
      <trkpt lat="43.18536" lon="-0.01977">
        <ele>364.3</ele>
        <time>2020-09-12T22:24:23Z</time>
      </trkpt>
      <trkpt lat="43.1854" lon="-0.01976">
        <ele>364.2</ele>
        <time>2020-09-12T22:24:24Z</time>
      </trkpt>
      <trkpt lat="43.18545" lon="-0.01974">
        <ele>364.2</ele>
        <time>2020-09-12T22:24:25Z</time>
      </trkpt>
      <trkpt lat="43.1855" lon="-0.01971">
        <ele>364.2</ele>
        <time>2020-09-12T22:24:26Z</time>
      </trkpt>
      <trkpt lat="43.18555" lon="-0.01969">
        <ele>364.2</ele>
        <time>2020-09-12T22:24:27Z</time>
      </trkpt>
      <trkpt lat="43.1856" lon="-0.01966">
        <ele>364.2</ele>
        <time>2020-09-12T22:24:28Z</time>
      </trkpt>
      <trkpt lat="43.18565" lon="-0.01963">
        <ele>364.2</ele>
        <time>2020-09-12T22:24:29Z</time>
      </trkpt>
      <trkpt lat="43.18569" lon="-0.0196">
        <ele>364.1</ele>
        <time>2020-09-12T22:24:30Z</time>
      </trkpt>
      <trkpt lat="43.18574" lon="-0.01957">
        <ele>364.1</ele>
        <time>2020-09-12T22:24:31Z</time>
      </trkpt>
      <trkpt lat="43.18578" lon="-0.01954">
        <ele>364.1</ele>
        <time>2020-09-12T22:24:32Z</time>
      </trkpt>
      <trkpt lat="43.18583" lon="-0.0195">
        <ele>364</ele>
        <time>2020-09-12T22:24:33Z</time>
      </trkpt>
      <trkpt lat="43.18587" lon="-0.01947">
        <ele>364</ele>
        <time>2020-09-12T22:24:34Z</time>
      </trkpt>
      <trkpt lat="43.18592" lon="-0.01944">
        <ele>364</ele>
        <time>2020-09-12T22:24:35Z</time>
      </trkpt>
      <trkpt lat="43.18596" lon="-0.01941">
        <ele>364</ele>
        <time>2020-09-12T22:24:36Z</time>
      </trkpt>
      <trkpt lat="43.18601" lon="-0.01937">
        <ele>364</ele>
        <time>2020-09-12T22:24:37Z</time>
      </trkpt>
      <trkpt lat="43.18605" lon="-0.01933">
        <ele>364</ele>
        <time>2020-09-12T22:24:38Z</time>
      </trkpt>
      <trkpt lat="43.1861" lon="-0.01929">
        <ele>364</ele>
        <time>2020-09-12T22:24:39Z</time>
      </trkpt>
      <trkpt lat="43.18614" lon="-0.01926">
        <ele>364</ele>
        <time>2020-09-12T22:24:40Z</time>
      </trkpt>
      <trkpt lat="43.18618" lon="-0.01922">
        <ele>364</ele>
        <time>2020-09-12T22:24:41Z</time>
      </trkpt>
      <trkpt lat="43.18623" lon="-0.01918">
        <ele>364</ele>
        <time>2020-09-12T22:24:42Z</time>
      </trkpt>
      <trkpt lat="43.18627" lon="-0.01914">
        <ele>364</ele>
        <time>2020-09-12T22:24:43Z</time>
      </trkpt>
      <trkpt lat="43.18631" lon="-0.01911">
        <ele>364.1</ele>
        <time>2020-09-12T22:24:44Z</time>
      </trkpt>
      <trkpt lat="43.18636" lon="-0.01907">
        <ele>364.1</ele>
        <time>2020-09-12T22:24:45Z</time>
      </trkpt>
      <trkpt lat="43.1864" lon="-0.01904">
        <ele>364</ele>
        <time>2020-09-12T22:24:46Z</time>
      </trkpt>
      <trkpt lat="43.18644" lon="-0.019">
        <ele>364</ele>
        <time>2020-09-12T22:24:47Z</time>
      </trkpt>
      <trkpt lat="43.18648" lon="-0.01896">
        <ele>363.9</ele>
        <time>2020-09-12T22:24:48Z</time>
      </trkpt>
      <trkpt lat="43.18652" lon="-0.01893">
        <ele>363.8</ele>
        <time>2020-09-12T22:24:49Z</time>
      </trkpt>
      <trkpt lat="43.18656" lon="-0.0189">
        <ele>363.7</ele>
        <time>2020-09-12T22:24:50Z</time>
      </trkpt>
      <trkpt lat="43.1866" lon="-0.01888">
        <ele>363.6</ele>
        <time>2020-09-12T22:24:51Z</time>
      </trkpt>
      <trkpt lat="43.18663" lon="-0.01885">
        <ele>363.5</ele>
        <time>2020-09-12T22:24:52Z</time>
      </trkpt>
      <trkpt lat="43.18666" lon="-0.01883">
        <ele>363.4</ele>
        <time>2020-09-12T22:24:53Z</time>
      </trkpt>
      <trkpt lat="43.18668" lon="-0.01881">
        <ele>363.3</ele>
        <time>2020-09-12T22:24:54Z</time>
      </trkpt>
      <trkpt lat="43.18672" lon="-0.01876">
        <ele>363.3</ele>
        <time>2020-09-12T22:24:56Z</time>
      </trkpt>
      <trkpt lat="43.18675" lon="-0.01873">
        <ele>363.3</ele>
        <time>2020-09-12T22:24:57Z</time>
      </trkpt>
      <trkpt lat="43.18677" lon="-0.0187">
        <ele>363.3</ele>
        <time>2020-09-12T22:24:58Z</time>
      </trkpt>
      <trkpt lat="43.1868" lon="-0.01867">
        <ele>363.3</ele>
        <time>2020-09-12T22:24:59Z</time>
      </trkpt>
      <trkpt lat="43.18684" lon="-0.01863">
        <ele>363.2</ele>
        <time>2020-09-12T22:25:00Z</time>
      </trkpt>
      <trkpt lat="43.18688" lon="-0.01858">
        <ele>363.1</ele>
        <time>2020-09-12T22:25:01Z</time>
      </trkpt>
      <trkpt lat="43.18692" lon="-0.01853">
        <ele>362.9</ele>
        <time>2020-09-12T22:25:02Z</time>
      </trkpt>
      <trkpt lat="43.18697" lon="-0.01847">
        <ele>362.7</ele>
        <time>2020-09-12T22:25:03Z</time>
      </trkpt>
      <trkpt lat="43.18701" lon="-0.01841">
        <ele>362.4</ele>
        <time>2020-09-12T22:25:04Z</time>
      </trkpt>
      <trkpt lat="43.18706" lon="-0.01835">
        <ele>362.1</ele>
        <time>2020-09-12T22:25:05Z</time>
      </trkpt>
      <trkpt lat="43.18711" lon="-0.01829">
        <ele>361.7</ele>
        <time>2020-09-12T22:25:06Z</time>
      </trkpt>
      <trkpt lat="43.18716" lon="-0.01823">
        <ele>361.5</ele>
        <time>2020-09-12T22:25:07Z</time>
      </trkpt>
      <trkpt lat="43.1872" lon="-0.01818">
        <ele>361.3</ele>
        <time>2020-09-12T22:25:08Z</time>
      </trkpt>
      <trkpt lat="43.18724" lon="-0.01813">
        <ele>361.1</ele>
        <time>2020-09-12T22:25:09Z</time>
      </trkpt>
      <trkpt lat="43.18727" lon="-0.01808">
        <ele>361</ele>
        <time>2020-09-12T22:25:10Z</time>
      </trkpt>
      <trkpt lat="43.18731" lon="-0.01803">
        <ele>360.9</ele>
        <time>2020-09-12T22:25:11Z</time>
      </trkpt>
      <trkpt lat="43.18734" lon="-0.01797">
        <ele>360.8</ele>
        <time>2020-09-12T22:25:12Z</time>
      </trkpt>
      <trkpt lat="43.18738" lon="-0.01791">
        <ele>360.7</ele>
        <time>2020-09-12T22:25:13Z</time>
      </trkpt>
      <trkpt lat="43.18741" lon="-0.01785">
        <ele>360.7</ele>
        <time>2020-09-12T22:25:14Z</time>
      </trkpt>
      <trkpt lat="43.18745" lon="-0.0178">
        <ele>360.6</ele>
        <time>2020-09-12T22:25:15Z</time>
      </trkpt>
      <trkpt lat="43.18749" lon="-0.01775">
        <ele>360.6</ele>
        <time>2020-09-12T22:25:16Z</time>
      </trkpt>
      <trkpt lat="43.18752" lon="-0.01771">
        <ele>360.6</ele>
        <time>2020-09-12T22:25:17Z</time>
      </trkpt>
      <trkpt lat="43.18755" lon="-0.01767">
        <ele>360.6</ele>
        <time>2020-09-12T22:25:18Z</time>
      </trkpt>
      <trkpt lat="43.18759" lon="-0.01762">
        <ele>360.5</ele>
        <time>2020-09-12T22:25:19Z</time>
      </trkpt>
      <trkpt lat="43.18762" lon="-0.01758">
        <ele>360.5</ele>
        <time>2020-09-12T22:25:20Z</time>
      </trkpt>
      <trkpt lat="43.18766" lon="-0.01751">
        <ele>360.5</ele>
        <time>2020-09-12T22:25:21Z</time>
      </trkpt>
      <trkpt lat="43.1877" lon="-0.01745">
        <ele>360.5</ele>
        <time>2020-09-12T22:25:22Z</time>
      </trkpt>
      <trkpt lat="43.18774" lon="-0.01739">
        <ele>360.4</ele>
        <time>2020-09-12T22:25:23Z</time>
      </trkpt>
      <trkpt lat="43.18777" lon="-0.01733">
        <ele>360.4</ele>
        <time>2020-09-12T22:25:24Z</time>
      </trkpt>
      <trkpt lat="43.18781" lon="-0.01728">
        <ele>360.4</ele>
        <time>2020-09-12T22:25:25Z</time>
      </trkpt>
      <trkpt lat="43.18784" lon="-0.01722">
        <ele>360.4</ele>
        <time>2020-09-12T22:25:26Z</time>
      </trkpt>
      <trkpt lat="43.18788" lon="-0.01716">
        <ele>360.4</ele>
        <time>2020-09-12T22:25:27Z</time>
      </trkpt>
      <trkpt lat="43.18791" lon="-0.01711">
        <ele>360.4</ele>
        <time>2020-09-12T22:25:28Z</time>
      </trkpt>
      <trkpt lat="43.18793" lon="-0.01706">
        <ele>360.4</ele>
        <time>2020-09-12T22:25:29Z</time>
      </trkpt>
      <trkpt lat="43.18796" lon="-0.01701">
        <ele>360.4</ele>
        <time>2020-09-12T22:25:30Z</time>
      </trkpt>
      <trkpt lat="43.18799" lon="-0.01695">
        <ele>360.3</ele>
        <time>2020-09-12T22:25:31Z</time>
      </trkpt>
      <trkpt lat="43.18802" lon="-0.01689">
        <ele>360.3</ele>
        <time>2020-09-12T22:25:32Z</time>
      </trkpt>
      <trkpt lat="43.18805" lon="-0.01683">
        <ele>360.3</ele>
        <time>2020-09-12T22:25:33Z</time>
      </trkpt>
      <trkpt lat="43.18808" lon="-0.01678">
        <ele>360.2</ele>
        <time>2020-09-12T22:25:34Z</time>
      </trkpt>
      <trkpt lat="43.18811" lon="-0.01672">
        <ele>360.2</ele>
        <time>2020-09-12T22:25:35Z</time>
      </trkpt>
      <trkpt lat="43.18813" lon="-0.01667">
        <ele>360.2</ele>
        <time>2020-09-12T22:25:36Z</time>
      </trkpt>
      <trkpt lat="43.18816" lon="-0.01661">
        <ele>360.2</ele>
        <time>2020-09-12T22:25:37Z</time>
      </trkpt>
      <trkpt lat="43.18819" lon="-0.01655">
        <ele>360.2</ele>
        <time>2020-09-12T22:25:38Z</time>
      </trkpt>
      <trkpt lat="43.18822" lon="-0.01649">
        <ele>360.2</ele>
        <time>2020-09-12T22:25:39Z</time>
      </trkpt>
      <trkpt lat="43.18825" lon="-0.01643">
        <ele>360.2</ele>
        <time>2020-09-12T22:25:40Z</time>
      </trkpt>
      <trkpt lat="43.18828" lon="-0.01637">
        <ele>360.2</ele>
        <time>2020-09-12T22:25:41Z</time>
      </trkpt>
      <trkpt lat="43.1883" lon="-0.01631">
        <ele>360.1</ele>
        <time>2020-09-12T22:25:42Z</time>
      </trkpt>
      <trkpt lat="43.18833" lon="-0.01624">
        <ele>360.1</ele>
        <time>2020-09-12T22:25:43Z</time>
      </trkpt>
      <trkpt lat="43.18836" lon="-0.01618">
        <ele>360.1</ele>
        <time>2020-09-12T22:25:44Z</time>
      </trkpt>
      <trkpt lat="43.18839" lon="-0.01611">
        <ele>360</ele>
        <time>2020-09-12T22:25:45Z</time>
      </trkpt>
      <trkpt lat="43.18841" lon="-0.01605">
        <ele>360</ele>
        <time>2020-09-12T22:25:46Z</time>
      </trkpt>
      <trkpt lat="43.18843" lon="-0.01598">
        <ele>360</ele>
        <time>2020-09-12T22:25:47Z</time>
      </trkpt>
      <trkpt lat="43.18845" lon="-0.01592">
        <ele>360</ele>
        <time>2020-09-12T22:25:48Z</time>
      </trkpt>
      <trkpt lat="43.18848" lon="-0.01586">
        <ele>360</ele>
        <time>2020-09-12T22:25:49Z</time>
      </trkpt>
      <trkpt lat="43.1885" lon="-0.01579">
        <ele>359.9</ele>
        <time>2020-09-12T22:25:50Z</time>
      </trkpt>
      <trkpt lat="43.18853" lon="-0.01572">
        <ele>359.9</ele>
        <time>2020-09-12T22:25:51Z</time>
      </trkpt>
      <trkpt lat="43.18855" lon="-0.01565">
        <ele>359.9</ele>
        <time>2020-09-12T22:25:52Z</time>
      </trkpt>
      <trkpt lat="43.18857" lon="-0.01558">
        <ele>359.9</ele>
        <time>2020-09-12T22:25:53Z</time>
      </trkpt>
      <trkpt lat="43.1886" lon="-0.01551">
        <ele>359.9</ele>
        <time>2020-09-12T22:25:54Z</time>
      </trkpt>
      <trkpt lat="43.18862" lon="-0.01545">
        <ele>359.9</ele>
        <time>2020-09-12T22:25:55Z</time>
      </trkpt>
      <trkpt lat="43.18864" lon="-0.01539">
        <ele>359.9</ele>
        <time>2020-09-12T22:25:56Z</time>
      </trkpt>
      <trkpt lat="43.18866" lon="-0.01532">
        <ele>359.9</ele>
        <time>2020-09-12T22:25:57Z</time>
      </trkpt>
      <trkpt lat="43.18868" lon="-0.01526">
        <ele>359.9</ele>
        <time>2020-09-12T22:25:58Z</time>
      </trkpt>
      <trkpt lat="43.1887" lon="-0.0152">
        <ele>359.9</ele>
        <time>2020-09-12T22:25:59Z</time>
      </trkpt>
      <trkpt lat="43.18872" lon="-0.01514">
        <ele>359.9</ele>
        <time>2020-09-12T22:26:00Z</time>
      </trkpt>
      <trkpt lat="43.18873" lon="-0.01507">
        <ele>359.9</ele>
        <time>2020-09-12T22:26:01Z</time>
      </trkpt>
      <trkpt lat="43.18875" lon="-0.01501">
        <ele>359.9</ele>
        <time>2020-09-12T22:26:02Z</time>
      </trkpt>
      <trkpt lat="43.18877" lon="-0.01495">
        <ele>359.9</ele>
        <time>2020-09-12T22:26:03Z</time>
      </trkpt>
      <trkpt lat="43.18878" lon="-0.01489">
        <ele>359.9</ele>
        <time>2020-09-12T22:26:04Z</time>
      </trkpt>
      <trkpt lat="43.1888" lon="-0.01483">
        <ele>359.9</ele>
        <time>2020-09-12T22:26:05Z</time>
      </trkpt>
      <trkpt lat="43.18881" lon="-0.01477">
        <ele>359.9</ele>
        <time>2020-09-12T22:26:06Z</time>
      </trkpt>
      <trkpt lat="43.18883" lon="-0.01472">
        <ele>359.8</ele>
        <time>2020-09-12T22:26:07Z</time>
      </trkpt>
      <trkpt lat="43.18885" lon="-0.01466">
        <ele>359.8</ele>
        <time>2020-09-12T22:26:08Z</time>
      </trkpt>
      <trkpt lat="43.18888" lon="-0.0146">
        <ele>359.8</ele>
        <time>2020-09-12T22:26:09Z</time>
      </trkpt>
      <trkpt lat="43.18889" lon="-0.01454">
        <ele>359.8</ele>
        <time>2020-09-12T22:26:10Z</time>
      </trkpt>
      <trkpt lat="43.18891" lon="-0.01448">
        <ele>359.8</ele>
        <time>2020-09-12T22:26:11Z</time>
      </trkpt>
      <trkpt lat="43.18893" lon="-0.01442">
        <ele>359.8</ele>
        <time>2020-09-12T22:26:12Z</time>
      </trkpt>
      <trkpt lat="43.18895" lon="-0.01436">
        <ele>359.8</ele>
        <time>2020-09-12T22:26:13Z</time>
      </trkpt>
      <trkpt lat="43.18898" lon="-0.01429">
        <ele>359.7</ele>
        <time>2020-09-12T22:26:14Z</time>
      </trkpt>
      <trkpt lat="43.18901" lon="-0.01423">
        <ele>359.7</ele>
        <time>2020-09-12T22:26:15Z</time>
      </trkpt>
      <trkpt lat="43.18904" lon="-0.01417">
        <ele>359.7</ele>
        <time>2020-09-12T22:26:16Z</time>
      </trkpt>
      <trkpt lat="43.18906" lon="-0.01411">
        <ele>359.7</ele>
        <time>2020-09-12T22:26:17Z</time>
      </trkpt>
      <trkpt lat="43.18909" lon="-0.01404">
        <ele>359.7</ele>
        <time>2020-09-12T22:26:18Z</time>
      </trkpt>
      <trkpt lat="43.18911" lon="-0.01398">
        <ele>359.7</ele>
        <time>2020-09-12T22:26:19Z</time>
      </trkpt>
      <trkpt lat="43.18914" lon="-0.01393">
        <ele>359.7</ele>
        <time>2020-09-12T22:26:20Z</time>
      </trkpt>
      <trkpt lat="43.18916" lon="-0.01388">
        <ele>359.7</ele>
        <time>2020-09-12T22:26:21Z</time>
      </trkpt>
      <trkpt lat="43.18919" lon="-0.01382">
        <ele>359.7</ele>
        <time>2020-09-12T22:26:22Z</time>
      </trkpt>
      <trkpt lat="43.18921" lon="-0.01376">
        <ele>359.7</ele>
        <time>2020-09-12T22:26:23Z</time>
      </trkpt>
      <trkpt lat="43.18923" lon="-0.01371">
        <ele>359.7</ele>
        <time>2020-09-12T22:26:24Z</time>
      </trkpt>
      <trkpt lat="43.18925" lon="-0.01365">
        <ele>359.7</ele>
        <time>2020-09-12T22:26:25Z</time>
      </trkpt>
      <trkpt lat="43.18927" lon="-0.01359">
        <ele>359.6</ele>
        <time>2020-09-12T22:26:26Z</time>
      </trkpt>
      <trkpt lat="43.18929" lon="-0.01352">
        <ele>359.6</ele>
        <time>2020-09-12T22:26:27Z</time>
      </trkpt>
      <trkpt lat="43.18932" lon="-0.01345">
        <ele>359.5</ele>
        <time>2020-09-12T22:26:28Z</time>
      </trkpt>
      <trkpt lat="43.18934" lon="-0.01339">
        <ele>359.5</ele>
        <time>2020-09-12T22:26:29Z</time>
      </trkpt>
      <trkpt lat="43.18936" lon="-0.01334">
        <ele>359.4</ele>
        <time>2020-09-12T22:26:30Z</time>
      </trkpt>
      <trkpt lat="43.18938" lon="-0.01328">
        <ele>359.4</ele>
        <time>2020-09-12T22:26:31Z</time>
      </trkpt>
      <trkpt lat="43.18941" lon="-0.01322">
        <ele>359.3</ele>
        <time>2020-09-12T22:26:32Z</time>
      </trkpt>
      <trkpt lat="43.18943" lon="-0.01316">
        <ele>359.3</ele>
        <time>2020-09-12T22:26:33Z</time>
      </trkpt>
      <trkpt lat="43.18946" lon="-0.01309">
        <ele>359.2</ele>
        <time>2020-09-12T22:26:34Z</time>
      </trkpt>
      <trkpt lat="43.18948" lon="-0.01303">
        <ele>359.2</ele>
        <time>2020-09-12T22:26:35Z</time>
      </trkpt>
      <trkpt lat="43.1895" lon="-0.01296">
        <ele>359.2</ele>
        <time>2020-09-12T22:26:36Z</time>
      </trkpt>
      <trkpt lat="43.18952" lon="-0.0129">
        <ele>359.1</ele>
        <time>2020-09-12T22:26:37Z</time>
      </trkpt>
      <trkpt lat="43.18954" lon="-0.01282">
        <ele>359.1</ele>
        <time>2020-09-12T22:26:38Z</time>
      </trkpt>
      <trkpt lat="43.18956" lon="-0.01274">
        <ele>359.1</ele>
        <time>2020-09-12T22:26:39Z</time>
      </trkpt>
      <trkpt lat="43.18959" lon="-0.01267">
        <ele>359.1</ele>
        <time>2020-09-12T22:26:40Z</time>
      </trkpt>
      <trkpt lat="43.18962" lon="-0.0126">
        <ele>359.1</ele>
        <time>2020-09-12T22:26:41Z</time>
      </trkpt>
      <trkpt lat="43.18964" lon="-0.01254">
        <ele>359.1</ele>
        <time>2020-09-12T22:26:42Z</time>
      </trkpt>
      <trkpt lat="43.18967" lon="-0.01247">
        <ele>359.1</ele>
        <time>2020-09-12T22:26:43Z</time>
      </trkpt>
      <trkpt lat="43.18969" lon="-0.01241">
        <ele>359.1</ele>
        <time>2020-09-12T22:26:44Z</time>
      </trkpt>
      <trkpt lat="43.18971" lon="-0.01235">
        <ele>359.1</ele>
        <time>2020-09-12T22:26:45Z</time>
      </trkpt>
      <trkpt lat="43.18973" lon="-0.01229">
        <ele>359.1</ele>
        <time>2020-09-12T22:26:46Z</time>
      </trkpt>
      <trkpt lat="43.18975" lon="-0.01223">
        <ele>359</ele>
        <time>2020-09-12T22:26:47Z</time>
      </trkpt>
      <trkpt lat="43.18977" lon="-0.01217">
        <ele>359</ele>
        <time>2020-09-12T22:26:48Z</time>
      </trkpt>
      <trkpt lat="43.18979" lon="-0.0121">
        <ele>359</ele>
        <time>2020-09-12T22:26:49Z</time>
      </trkpt>
      <trkpt lat="43.18981" lon="-0.01204">
        <ele>359</ele>
        <time>2020-09-12T22:26:50Z</time>
      </trkpt>
      <trkpt lat="43.18984" lon="-0.01198">
        <ele>358.9</ele>
        <time>2020-09-12T22:26:51Z</time>
      </trkpt>
      <trkpt lat="43.18986" lon="-0.01191">
        <ele>358.9</ele>
        <time>2020-09-12T22:26:52Z</time>
      </trkpt>
      <trkpt lat="43.18988" lon="-0.01185">
        <ele>358.9</ele>
        <time>2020-09-12T22:26:53Z</time>
      </trkpt>
      <trkpt lat="43.1899" lon="-0.01178">
        <ele>359</ele>
        <time>2020-09-12T22:26:54Z</time>
      </trkpt>
      <trkpt lat="43.18992" lon="-0.01172">
        <ele>359</ele>
        <time>2020-09-12T22:26:55Z</time>
      </trkpt>
      <trkpt lat="43.18994" lon="-0.01166">
        <ele>359</ele>
        <time>2020-09-12T22:26:56Z</time>
      </trkpt>
      <trkpt lat="43.18997" lon="-0.0116">
        <ele>359.1</ele>
        <time>2020-09-12T22:26:57Z</time>
      </trkpt>
      <trkpt lat="43.18999" lon="-0.01153">
        <ele>359.1</ele>
        <time>2020-09-12T22:26:58Z</time>
      </trkpt>
      <trkpt lat="43.19001" lon="-0.01147">
        <ele>359.1</ele>
        <time>2020-09-12T22:26:59Z</time>
      </trkpt>
      <trkpt lat="43.19003" lon="-0.01141">
        <ele>359.1</ele>
        <time>2020-09-12T22:27:00Z</time>
      </trkpt>
      <trkpt lat="43.19005" lon="-0.01134">
        <ele>359.1</ele>
        <time>2020-09-12T22:27:01Z</time>
      </trkpt>
      <trkpt lat="43.19008" lon="-0.01128">
        <ele>359.1</ele>
        <time>2020-09-12T22:27:02Z</time>
      </trkpt>
      <trkpt lat="43.1901" lon="-0.01121">
        <ele>359.1</ele>
        <time>2020-09-12T22:27:03Z</time>
      </trkpt>
      <trkpt lat="43.19012" lon="-0.01114">
        <ele>359.2</ele>
        <time>2020-09-12T22:27:04Z</time>
      </trkpt>
      <trkpt lat="43.19014" lon="-0.01107">
        <ele>359.3</ele>
        <time>2020-09-12T22:27:05Z</time>
      </trkpt>
      <trkpt lat="43.19017" lon="-0.01101">
        <ele>359.3</ele>
        <time>2020-09-12T22:27:06Z</time>
      </trkpt>
      <trkpt lat="43.19019" lon="-0.01094">
        <ele>359.4</ele>
        <time>2020-09-12T22:27:07Z</time>
      </trkpt>
      <trkpt lat="43.19021" lon="-0.01087">
        <ele>359.5</ele>
        <time>2020-09-12T22:27:08Z</time>
      </trkpt>
      <trkpt lat="43.19023" lon="-0.01082">
        <ele>359.5</ele>
        <time>2020-09-12T22:27:09Z</time>
      </trkpt>
      <trkpt lat="43.19025" lon="-0.01075">
        <ele>359.5</ele>
        <time>2020-09-12T22:27:10Z</time>
      </trkpt>
      <trkpt lat="43.19027" lon="-0.0107">
        <ele>359.4</ele>
        <time>2020-09-12T22:27:11Z</time>
      </trkpt>
      <trkpt lat="43.1903" lon="-0.01064">
        <ele>359.4</ele>
        <time>2020-09-12T22:27:12Z</time>
      </trkpt>
      <trkpt lat="43.19032" lon="-0.01058">
        <ele>359.3</ele>
        <time>2020-09-12T22:27:13Z</time>
      </trkpt>
      <trkpt lat="43.19035" lon="-0.01052">
        <ele>359.3</ele>
        <time>2020-09-12T22:27:14Z</time>
      </trkpt>
      <trkpt lat="43.19037" lon="-0.01045">
        <ele>359.3</ele>
        <time>2020-09-12T22:27:15Z</time>
      </trkpt>
      <trkpt lat="43.19039" lon="-0.01038">
        <ele>359.2</ele>
        <time>2020-09-12T22:27:16Z</time>
      </trkpt>
      <trkpt lat="43.19042" lon="-0.01031">
        <ele>359.2</ele>
        <time>2020-09-12T22:27:17Z</time>
      </trkpt>
      <trkpt lat="43.19044" lon="-0.01024">
        <ele>359.2</ele>
        <time>2020-09-12T22:27:18Z</time>
      </trkpt>
      <trkpt lat="43.19047" lon="-0.01017">
        <ele>359.1</ele>
        <time>2020-09-12T22:27:19Z</time>
      </trkpt>
      <trkpt lat="43.19049" lon="-0.0101">
        <ele>359.1</ele>
        <time>2020-09-12T22:27:20Z</time>
      </trkpt>
      <trkpt lat="43.19052" lon="-0.01003">
        <ele>359</ele>
        <time>2020-09-12T22:27:21Z</time>
      </trkpt>
      <trkpt lat="43.19054" lon="-0.00996">
        <ele>359</ele>
        <time>2020-09-12T22:27:22Z</time>
      </trkpt>
      <trkpt lat="43.19057" lon="-0.00989">
        <ele>359</ele>
        <time>2020-09-12T22:27:23Z</time>
      </trkpt>
      <trkpt lat="43.19059" lon="-0.00982">
        <ele>359</ele>
        <time>2020-09-12T22:27:24Z</time>
      </trkpt>
      <trkpt lat="43.1906" lon="-0.00975">
        <ele>359</ele>
        <time>2020-09-12T22:27:25Z</time>
      </trkpt>
      <trkpt lat="43.19062" lon="-0.00967">
        <ele>359</ele>
        <time>2020-09-12T22:27:26Z</time>
      </trkpt>
      <trkpt lat="43.19064" lon="-0.0096">
        <ele>359</ele>
        <time>2020-09-12T22:27:27Z</time>
      </trkpt>
      <trkpt lat="43.19067" lon="-0.00954">
        <ele>359</ele>
        <time>2020-09-12T22:27:28Z</time>
      </trkpt>
      <trkpt lat="43.19069" lon="-0.00947">
        <ele>359</ele>
        <time>2020-09-12T22:27:29Z</time>
      </trkpt>
      <trkpt lat="43.19072" lon="-0.00941">
        <ele>359</ele>
        <time>2020-09-12T22:27:30Z</time>
      </trkpt>
      <trkpt lat="43.19075" lon="-0.00933">
        <ele>358.9</ele>
        <time>2020-09-12T22:27:31Z</time>
      </trkpt>
      <trkpt lat="43.19077" lon="-0.00927">
        <ele>358.9</ele>
        <time>2020-09-12T22:27:32Z</time>
      </trkpt>
      <trkpt lat="43.1908" lon="-0.0092">
        <ele>358.8</ele>
        <time>2020-09-12T22:27:33Z</time>
      </trkpt>
      <trkpt lat="43.19083" lon="-0.00913">
        <ele>358.8</ele>
        <time>2020-09-12T22:27:34Z</time>
      </trkpt>
      <trkpt lat="43.19086" lon="-0.00906">
        <ele>358.7</ele>
        <time>2020-09-12T22:27:35Z</time>
      </trkpt>
      <trkpt lat="43.19088" lon="-0.00899">
        <ele>358.6</ele>
        <time>2020-09-12T22:27:36Z</time>
      </trkpt>
      <trkpt lat="43.1909" lon="-0.00892">
        <ele>358.6</ele>
        <time>2020-09-12T22:27:37Z</time>
      </trkpt>
      <trkpt lat="43.19092" lon="-0.00885">
        <ele>358.5</ele>
        <time>2020-09-12T22:27:38Z</time>
      </trkpt>
      <trkpt lat="43.19094" lon="-0.00879">
        <ele>358.4</ele>
        <time>2020-09-12T22:27:39Z</time>
      </trkpt>
      <trkpt lat="43.19097" lon="-0.00871">
        <ele>358.3</ele>
        <time>2020-09-12T22:27:40Z</time>
      </trkpt>
      <trkpt lat="43.19099" lon="-0.00864">
        <ele>358.2</ele>
        <time>2020-09-12T22:27:41Z</time>
      </trkpt>
      <trkpt lat="43.19101" lon="-0.00858">
        <ele>358.1</ele>
        <time>2020-09-12T22:27:42Z</time>
      </trkpt>
      <trkpt lat="43.19103" lon="-0.00851">
        <ele>358</ele>
        <time>2020-09-12T22:27:43Z</time>
      </trkpt>
      <trkpt lat="43.19105" lon="-0.00844">
        <ele>358</ele>
        <time>2020-09-12T22:27:44Z</time>
      </trkpt>
      <trkpt lat="43.19108" lon="-0.00838">
        <ele>358</ele>
        <time>2020-09-12T22:27:45Z</time>
      </trkpt>
      <trkpt lat="43.19111" lon="-0.00832">
        <ele>358</ele>
        <time>2020-09-12T22:27:46Z</time>
      </trkpt>
      <trkpt lat="43.19114" lon="-0.00827">
        <ele>358.1</ele>
        <time>2020-09-12T22:27:47Z</time>
      </trkpt>
      <trkpt lat="43.19116" lon="-0.00821">
        <ele>358.1</ele>
        <time>2020-09-12T22:27:48Z</time>
      </trkpt>
      <trkpt lat="43.19118" lon="-0.00815">
        <ele>358.2</ele>
        <time>2020-09-12T22:27:49Z</time>
      </trkpt>
      <trkpt lat="43.19119" lon="-0.00808">
        <ele>358.2</ele>
        <time>2020-09-12T22:27:50Z</time>
      </trkpt>
      <trkpt lat="43.19121" lon="-0.00803">
        <ele>358.2</ele>
        <time>2020-09-12T22:27:51Z</time>
      </trkpt>
      <trkpt lat="43.19123" lon="-0.00796">
        <ele>358.3</ele>
        <time>2020-09-12T22:27:52Z</time>
      </trkpt>
      <trkpt lat="43.19125" lon="-0.0079">
        <ele>358.3</ele>
        <time>2020-09-12T22:27:53Z</time>
      </trkpt>
      <trkpt lat="43.19127" lon="-0.00783">
        <ele>358.2</ele>
        <time>2020-09-12T22:27:54Z</time>
      </trkpt>
      <trkpt lat="43.19129" lon="-0.00777">
        <ele>358.2</ele>
        <time>2020-09-12T22:27:55Z</time>
      </trkpt>
      <trkpt lat="43.19132" lon="-0.0077">
        <ele>358.2</ele>
        <time>2020-09-12T22:27:56Z</time>
      </trkpt>
      <trkpt lat="43.19134" lon="-0.00763">
        <ele>358.2</ele>
        <time>2020-09-12T22:27:57Z</time>
      </trkpt>
      <trkpt lat="43.19137" lon="-0.00755">
        <ele>358.2</ele>
        <time>2020-09-12T22:27:58Z</time>
      </trkpt>
      <trkpt lat="43.19139" lon="-0.00748">
        <ele>358.3</ele>
        <time>2020-09-12T22:27:59Z</time>
      </trkpt>
      <trkpt lat="43.19142" lon="-0.00741">
        <ele>358.3</ele>
        <time>2020-09-12T22:28:00Z</time>
      </trkpt>
      <trkpt lat="43.19144" lon="-0.00734">
        <ele>358.3</ele>
        <time>2020-09-12T22:28:01Z</time>
      </trkpt>
      <trkpt lat="43.19147" lon="-0.00727">
        <ele>358.3</ele>
        <time>2020-09-12T22:28:02Z</time>
      </trkpt>
      <trkpt lat="43.1915" lon="-0.00719">
        <ele>358.2</ele>
        <time>2020-09-12T22:28:03Z</time>
      </trkpt>
      <trkpt lat="43.19152" lon="-0.00712">
        <ele>358.2</ele>
        <time>2020-09-12T22:28:04Z</time>
      </trkpt>
      <trkpt lat="43.19155" lon="-0.00705">
        <ele>358.1</ele>
        <time>2020-09-12T22:28:05Z</time>
      </trkpt>
      <trkpt lat="43.19157" lon="-0.00698">
        <ele>358.1</ele>
        <time>2020-09-12T22:28:06Z</time>
      </trkpt>
      <trkpt lat="43.1916" lon="-0.00691">
        <ele>358.1</ele>
        <time>2020-09-12T22:28:07Z</time>
      </trkpt>
      <trkpt lat="43.19163" lon="-0.00684">
        <ele>358</ele>
        <time>2020-09-12T22:28:08Z</time>
      </trkpt>
      <trkpt lat="43.19165" lon="-0.00677">
        <ele>358</ele>
        <time>2020-09-12T22:28:09Z</time>
      </trkpt>
      <trkpt lat="43.19168" lon="-0.0067">
        <ele>358</ele>
        <time>2020-09-12T22:28:10Z</time>
      </trkpt>
      <trkpt lat="43.1917" lon="-0.00663">
        <ele>358</ele>
        <time>2020-09-12T22:28:11Z</time>
      </trkpt>
      <trkpt lat="43.19173" lon="-0.00656">
        <ele>358</ele>
        <time>2020-09-12T22:28:12Z</time>
      </trkpt>
      <trkpt lat="43.19175" lon="-0.00649">
        <ele>358</ele>
        <time>2020-09-12T22:28:13Z</time>
      </trkpt>
      <trkpt lat="43.19177" lon="-0.00642">
        <ele>358.1</ele>
        <time>2020-09-12T22:28:14Z</time>
      </trkpt>
      <trkpt lat="43.19179" lon="-0.00635">
        <ele>358.2</ele>
        <time>2020-09-12T22:28:15Z</time>
      </trkpt>
      <trkpt lat="43.19182" lon="-0.00628">
        <ele>358.2</ele>
        <time>2020-09-12T22:28:16Z</time>
      </trkpt>
      <trkpt lat="43.19184" lon="-0.00622">
        <ele>358.2</ele>
        <time>2020-09-12T22:28:17Z</time>
      </trkpt>
      <trkpt lat="43.19186" lon="-0.00615">
        <ele>358.2</ele>
        <time>2020-09-12T22:28:18Z</time>
      </trkpt>
      <trkpt lat="43.19188" lon="-0.00609">
        <ele>358.1</ele>
        <time>2020-09-12T22:28:19Z</time>
      </trkpt>
      <trkpt lat="43.19191" lon="-0.00602">
        <ele>358.1</ele>
        <time>2020-09-12T22:28:20Z</time>
      </trkpt>
      <trkpt lat="43.19193" lon="-0.00595">
        <ele>358</ele>
        <time>2020-09-12T22:28:21Z</time>
      </trkpt>
      <trkpt lat="43.19196" lon="-0.00588">
        <ele>357.9</ele>
        <time>2020-09-12T22:28:22Z</time>
      </trkpt>
      <trkpt lat="43.19198" lon="-0.0058">
        <ele>357.8</ele>
        <time>2020-09-12T22:28:23Z</time>
      </trkpt>
      <trkpt lat="43.19201" lon="-0.00573">
        <ele>357.7</ele>
        <time>2020-09-12T22:28:24Z</time>
      </trkpt>
      <trkpt lat="43.19203" lon="-0.00566">
        <ele>357.7</ele>
        <time>2020-09-12T22:28:25Z</time>
      </trkpt>
      <trkpt lat="43.19206" lon="-0.00559">
        <ele>357.6</ele>
        <time>2020-09-12T22:28:26Z</time>
      </trkpt>
      <trkpt lat="43.19208" lon="-0.00552">
        <ele>357.5</ele>
        <time>2020-09-12T22:28:27Z</time>
      </trkpt>
      <trkpt lat="43.19211" lon="-0.00545">
        <ele>357.4</ele>
        <time>2020-09-12T22:28:28Z</time>
      </trkpt>
      <trkpt lat="43.19213" lon="-0.00538">
        <ele>357.4</ele>
        <time>2020-09-12T22:28:29Z</time>
      </trkpt>
      <trkpt lat="43.19215" lon="-0.00532">
        <ele>357.3</ele>
        <time>2020-09-12T22:28:30Z</time>
      </trkpt>
      <trkpt lat="43.19218" lon="-0.00525">
        <ele>357.3</ele>
        <time>2020-09-12T22:28:31Z</time>
      </trkpt>
      <trkpt lat="43.19221" lon="-0.00519">
        <ele>357.3</ele>
        <time>2020-09-12T22:28:32Z</time>
      </trkpt>
      <trkpt lat="43.19223" lon="-0.00512">
        <ele>357.3</ele>
        <time>2020-09-12T22:28:33Z</time>
      </trkpt>
      <trkpt lat="43.19226" lon="-0.00506">
        <ele>357.3</ele>
        <time>2020-09-12T22:28:34Z</time>
      </trkpt>
      <trkpt lat="43.19229" lon="-0.005">
        <ele>357.3</ele>
        <time>2020-09-12T22:28:35Z</time>
      </trkpt>
      <trkpt lat="43.19231" lon="-0.00493">
        <ele>357.3</ele>
        <time>2020-09-12T22:28:36Z</time>
      </trkpt>
      <trkpt lat="43.19234" lon="-0.00487">
        <ele>357.3</ele>
        <time>2020-09-12T22:28:37Z</time>
      </trkpt>
      <trkpt lat="43.19236" lon="-0.0048">
        <ele>357.2</ele>
        <time>2020-09-12T22:28:38Z</time>
      </trkpt>
      <trkpt lat="43.19238" lon="-0.00473">
        <ele>357.2</ele>
        <time>2020-09-12T22:28:39Z</time>
      </trkpt>
      <trkpt lat="43.1924" lon="-0.00467">
        <ele>357.1</ele>
        <time>2020-09-12T22:28:40Z</time>
      </trkpt>
      <trkpt lat="43.19242" lon="-0.00461">
        <ele>357.1</ele>
        <time>2020-09-12T22:28:41Z</time>
      </trkpt>
      <trkpt lat="43.19244" lon="-0.00454">
        <ele>357</ele>
        <time>2020-09-12T22:28:42Z</time>
      </trkpt>
      <trkpt lat="43.19246" lon="-0.00448">
        <ele>356.9</ele>
        <time>2020-09-12T22:28:43Z</time>
      </trkpt>
      <trkpt lat="43.19248" lon="-0.00441">
        <ele>356.7</ele>
        <time>2020-09-12T22:28:44Z</time>
      </trkpt>
      <trkpt lat="43.19251" lon="-0.00434">
        <ele>356.6</ele>
        <time>2020-09-12T22:28:45Z</time>
      </trkpt>
      <trkpt lat="43.19253" lon="-0.00427">
        <ele>356.4</ele>
        <time>2020-09-12T22:28:46Z</time>
      </trkpt>
      <trkpt lat="43.19254" lon="-0.00421">
        <ele>356.3</ele>
        <time>2020-09-12T22:28:47Z</time>
      </trkpt>
      <trkpt lat="43.19256" lon="-0.00415">
        <ele>356.2</ele>
        <time>2020-09-12T22:28:48Z</time>
      </trkpt>
      <trkpt lat="43.19257" lon="-0.00409">
        <ele>356.1</ele>
        <time>2020-09-12T22:28:49Z</time>
      </trkpt>
      <trkpt lat="43.19259" lon="-0.00402">
        <ele>356</ele>
        <time>2020-09-12T22:28:50Z</time>
      </trkpt>
      <trkpt lat="43.19262" lon="-0.00395">
        <ele>355.9</ele>
        <time>2020-09-12T22:28:51Z</time>
      </trkpt>
      <trkpt lat="43.19265" lon="-0.00388">
        <ele>355.8</ele>
        <time>2020-09-12T22:28:52Z</time>
      </trkpt>
      <trkpt lat="43.19268" lon="-0.00381">
        <ele>355.8</ele>
        <time>2020-09-12T22:28:53Z</time>
      </trkpt>
      <trkpt lat="43.19271" lon="-0.00373">
        <ele>355.7</ele>
        <time>2020-09-12T22:28:54Z</time>
      </trkpt>
      <trkpt lat="43.19273" lon="-0.00366">
        <ele>355.7</ele>
        <time>2020-09-12T22:28:55Z</time>
      </trkpt>
      <trkpt lat="43.19276" lon="-0.00358">
        <ele>355.7</ele>
        <time>2020-09-12T22:28:56Z</time>
      </trkpt>
      <trkpt lat="43.19278" lon="-0.00351">
        <ele>355.7</ele>
        <time>2020-09-12T22:28:57Z</time>
      </trkpt>
      <trkpt lat="43.1928" lon="-0.00344">
        <ele>355.6</ele>
        <time>2020-09-12T22:28:58Z</time>
      </trkpt>
      <trkpt lat="43.19282" lon="-0.00338">
        <ele>355.6</ele>
        <time>2020-09-12T22:28:59Z</time>
      </trkpt>
      <trkpt lat="43.19285" lon="-0.00331">
        <ele>355.5</ele>
        <time>2020-09-12T22:29:00Z</time>
      </trkpt>
      <trkpt lat="43.19287" lon="-0.00324">
        <ele>355.4</ele>
        <time>2020-09-12T22:29:01Z</time>
      </trkpt>
      <trkpt lat="43.1929" lon="-0.00317">
        <ele>355.3</ele>
        <time>2020-09-12T22:29:02Z</time>
      </trkpt>
      <trkpt lat="43.19292" lon="-0.0031">
        <ele>355.3</ele>
        <time>2020-09-12T22:29:03Z</time>
      </trkpt>
      <trkpt lat="43.19294" lon="-0.00303">
        <ele>355.2</ele>
        <time>2020-09-12T22:29:04Z</time>
      </trkpt>
      <trkpt lat="43.19297" lon="-0.00296">
        <ele>355.1</ele>
        <time>2020-09-12T22:29:05Z</time>
      </trkpt>
      <trkpt lat="43.193" lon="-0.00288">
        <ele>355</ele>
        <time>2020-09-12T22:29:06Z</time>
      </trkpt>
      <trkpt lat="43.19302" lon="-0.00281">
        <ele>354.9</ele>
        <time>2020-09-12T22:29:07Z</time>
      </trkpt>
      <trkpt lat="43.19305" lon="-0.00274">
        <ele>354.9</ele>
        <time>2020-09-12T22:29:08Z</time>
      </trkpt>
      <trkpt lat="43.19307" lon="-0.00267">
        <ele>354.9</ele>
        <time>2020-09-12T22:29:09Z</time>
      </trkpt>
      <trkpt lat="43.19309" lon="-0.0026">
        <ele>355</ele>
        <time>2020-09-12T22:29:10Z</time>
      </trkpt>
      <trkpt lat="43.19312" lon="-0.00253">
        <ele>355.1</ele>
        <time>2020-09-12T22:29:11Z</time>
      </trkpt>
      <trkpt lat="43.19314" lon="-0.00246">
        <ele>355.1</ele>
        <time>2020-09-12T22:29:12Z</time>
      </trkpt>
      <trkpt lat="43.19316" lon="-0.0024">
        <ele>355</ele>
        <time>2020-09-12T22:29:13Z</time>
      </trkpt>
      <trkpt lat="43.19319" lon="-0.00233">
        <ele>355</ele>
        <time>2020-09-12T22:29:14Z</time>
      </trkpt>
      <trkpt lat="43.19321" lon="-0.00226">
        <ele>354.9</ele>
        <time>2020-09-12T22:29:15Z</time>
      </trkpt>
      <trkpt lat="43.19323" lon="-0.0022">
        <ele>354.9</ele>
        <time>2020-09-12T22:29:16Z</time>
      </trkpt>
      <trkpt lat="43.19326" lon="-0.00214">
        <ele>354.9</ele>
        <time>2020-09-12T22:29:17Z</time>
      </trkpt>
      <trkpt lat="43.19328" lon="-0.00207">
        <ele>354.9</ele>
        <time>2020-09-12T22:29:18Z</time>
      </trkpt>
      <trkpt lat="43.1933" lon="-0.00202">
        <ele>354.9</ele>
        <time>2020-09-12T22:29:19Z</time>
      </trkpt>
      <trkpt lat="43.19332" lon="-0.00196">
        <ele>355</ele>
        <time>2020-09-12T22:29:20Z</time>
      </trkpt>
      <trkpt lat="43.19334" lon="-0.0019">
        <ele>355</ele>
        <time>2020-09-12T22:29:21Z</time>
      </trkpt>
      <trkpt lat="43.19336" lon="-0.00183">
        <ele>355.1</ele>
        <time>2020-09-12T22:29:22Z</time>
      </trkpt>
      <trkpt lat="43.19338" lon="-0.00177">
        <ele>355.1</ele>
        <time>2020-09-12T22:29:23Z</time>
      </trkpt>
      <trkpt lat="43.1934" lon="-0.00171">
        <ele>355.2</ele>
        <time>2020-09-12T22:29:24Z</time>
      </trkpt>
      <trkpt lat="43.19342" lon="-0.00164">
        <ele>355.3</ele>
        <time>2020-09-12T22:29:25Z</time>
      </trkpt>
      <trkpt lat="43.19344" lon="-0.00158">
        <ele>355.3</ele>
        <time>2020-09-12T22:29:26Z</time>
      </trkpt>
      <trkpt lat="43.19346" lon="-0.00152">
        <ele>355.4</ele>
        <time>2020-09-12T22:29:27Z</time>
      </trkpt>
      <trkpt lat="43.19348" lon="-0.00145">
        <ele>355.4</ele>
        <time>2020-09-12T22:29:28Z</time>
      </trkpt>
      <trkpt lat="43.1935" lon="-0.00139">
        <ele>355.5</ele>
        <time>2020-09-12T22:29:29Z</time>
      </trkpt>
      <trkpt lat="43.19351" lon="-0.00133">
        <ele>355.5</ele>
        <time>2020-09-12T22:29:30Z</time>
      </trkpt>
      <trkpt lat="43.19354" lon="-0.00127">
        <ele>355.5</ele>
        <time>2020-09-12T22:29:31Z</time>
      </trkpt>
      <trkpt lat="43.19356" lon="-0.00121">
        <ele>355.6</ele>
        <time>2020-09-12T22:29:32Z</time>
      </trkpt>
      <trkpt lat="43.19358" lon="-0.00116">
        <ele>355.6</ele>
        <time>2020-09-12T22:29:33Z</time>
      </trkpt>
      <trkpt lat="43.1936" lon="-0.0011">
        <ele>355.6</ele>
        <time>2020-09-12T22:29:34Z</time>
      </trkpt>
      <trkpt lat="43.19362" lon="-0.00104">
        <ele>355.6</ele>
        <time>2020-09-12T22:29:35Z</time>
      </trkpt>
      <trkpt lat="43.19365" lon="-0.00098">
        <ele>355.6</ele>
        <time>2020-09-12T22:29:36Z</time>
      </trkpt>
      <trkpt lat="43.19367" lon="-0.00092">
        <ele>355.6</ele>
        <time>2020-09-12T22:29:37Z</time>
      </trkpt>
      <trkpt lat="43.19369" lon="-0.00086">
        <ele>355.6</ele>
        <time>2020-09-12T22:29:38Z</time>
      </trkpt>
      <trkpt lat="43.19371" lon="-0.0008">
        <ele>355.5</ele>
        <time>2020-09-12T22:29:39Z</time>
      </trkpt>
      <trkpt lat="43.19373" lon="-0.00074">
        <ele>355.5</ele>
        <time>2020-09-12T22:29:40Z</time>
      </trkpt>
      <trkpt lat="43.19375" lon="-0.00067">
        <ele>355.4</ele>
        <time>2020-09-12T22:29:41Z</time>
      </trkpt>
      <trkpt lat="43.19377" lon="-0.00061">
        <ele>355.4</ele>
        <time>2020-09-12T22:29:42Z</time>
      </trkpt>
      <trkpt lat="43.19379" lon="-0.00055">
        <ele>355.3</ele>
        <time>2020-09-12T22:29:43Z</time>
      </trkpt>
      <trkpt lat="43.19381" lon="-0.00048">
        <ele>355.2</ele>
        <time>2020-09-12T22:29:44Z</time>
      </trkpt>
      <trkpt lat="43.19384" lon="-0.00041">
        <ele>355.2</ele>
        <time>2020-09-12T22:29:45Z</time>
      </trkpt>
      <trkpt lat="43.19386" lon="-0.00035">
        <ele>355.1</ele>
        <time>2020-09-12T22:29:46Z</time>
      </trkpt>
      <trkpt lat="43.19388" lon="-0.00029">
        <ele>355</ele>
        <time>2020-09-12T22:29:47Z</time>
      </trkpt>
      <trkpt lat="43.1939" lon="-0.00023">
        <ele>354.9</ele>
        <time>2020-09-12T22:29:48Z</time>
      </trkpt>
      <trkpt lat="43.19392" lon="-0.00016">
        <ele>354.9</ele>
        <time>2020-09-12T22:29:49Z</time>
      </trkpt>
      <trkpt lat="43.19395" lon="-0.0001">
        <ele>354.8</ele>
        <time>2020-09-12T22:29:50Z</time>
      </trkpt>
      <trkpt lat="43.19397" lon="-3.0E-5">
        <ele>354.7</ele>
        <time>2020-09-12T22:29:51Z</time>
      </trkpt>
      <trkpt lat="43.19399" lon="4.0E-5">
        <ele>354.6</ele>
        <time>2020-09-12T22:29:52Z</time>
      </trkpt>
      <trkpt lat="43.19401" lon="0.0001">
        <ele>354.5</ele>
        <time>2020-09-12T22:29:53Z</time>
      </trkpt>
      <trkpt lat="43.19403" lon="0.00016">
        <ele>354.5</ele>
        <time>2020-09-12T22:29:54Z</time>
      </trkpt>
      <trkpt lat="43.19406" lon="0.00023">
        <ele>354.4</ele>
        <time>2020-09-12T22:29:55Z</time>
      </trkpt>
      <trkpt lat="43.19408" lon="0.00028">
        <ele>354.3</ele>
        <time>2020-09-12T22:29:56Z</time>
      </trkpt>
      <trkpt lat="43.1941" lon="0.00034">
        <ele>354.2</ele>
        <time>2020-09-12T22:29:57Z</time>
      </trkpt>
      <trkpt lat="43.19412" lon="0.00041">
        <ele>354.2</ele>
        <time>2020-09-12T22:29:58Z</time>
      </trkpt>
      <trkpt lat="43.19415" lon="0.00047">
        <ele>354.1</ele>
        <time>2020-09-12T22:29:59Z</time>
      </trkpt>
      <trkpt lat="43.19417" lon="0.00054">
        <ele>354.1</ele>
        <time>2020-09-12T22:30:00Z</time>
      </trkpt>
      <trkpt lat="43.1942" lon="0.00061">
        <ele>354</ele>
        <time>2020-09-12T22:30:01Z</time>
      </trkpt>
      <trkpt lat="43.19422" lon="0.00067">
        <ele>354</ele>
        <time>2020-09-12T22:30:02Z</time>
      </trkpt>
      <trkpt lat="43.19425" lon="0.00074">
        <ele>353.9</ele>
        <time>2020-09-12T22:30:03Z</time>
      </trkpt>
      <trkpt lat="43.19427" lon="0.0008">
        <ele>353.9</ele>
        <time>2020-09-12T22:30:04Z</time>
      </trkpt>
      <trkpt lat="43.19429" lon="0.00087">
        <ele>353.8</ele>
        <time>2020-09-12T22:30:05Z</time>
      </trkpt>
      <trkpt lat="43.19431" lon="0.00093">
        <ele>353.8</ele>
        <time>2020-09-12T22:30:06Z</time>
      </trkpt>
      <trkpt lat="43.19434" lon="0.001">
        <ele>353.7</ele>
        <time>2020-09-12T22:30:07Z</time>
      </trkpt>
      <trkpt lat="43.19436" lon="0.00106">
        <ele>353.7</ele>
        <time>2020-09-12T22:30:08Z</time>
      </trkpt>
      <trkpt lat="43.19438" lon="0.00113">
        <ele>353.7</ele>
        <time>2020-09-12T22:30:09Z</time>
      </trkpt>
      <trkpt lat="43.1944" lon="0.0012">
        <ele>353.6</ele>
        <time>2020-09-12T22:30:10Z</time>
      </trkpt>
      <trkpt lat="43.19442" lon="0.00126">
        <ele>353.6</ele>
        <time>2020-09-12T22:30:11Z</time>
      </trkpt>
      <trkpt lat="43.19445" lon="0.00133">
        <ele>353.5</ele>
        <time>2020-09-12T22:30:12Z</time>
      </trkpt>
      <trkpt lat="43.19447" lon="0.00139">
        <ele>353.5</ele>
        <time>2020-09-12T22:30:13Z</time>
      </trkpt>
      <trkpt lat="43.19449" lon="0.00146">
        <ele>353.4</ele>
        <time>2020-09-12T22:30:14Z</time>
      </trkpt>
      <trkpt lat="43.19452" lon="0.00152">
        <ele>353.4</ele>
        <time>2020-09-12T22:30:15Z</time>
      </trkpt>
      <trkpt lat="43.19454" lon="0.00158">
        <ele>353.3</ele>
        <time>2020-09-12T22:30:16Z</time>
      </trkpt>
      <trkpt lat="43.19457" lon="0.00165">
        <ele>353.3</ele>
        <time>2020-09-12T22:30:17Z</time>
      </trkpt>
      <trkpt lat="43.19459" lon="0.0017">
        <ele>353.2</ele>
        <time>2020-09-12T22:30:18Z</time>
      </trkpt>
      <trkpt lat="43.19462" lon="0.00176">
        <ele>353.2</ele>
        <time>2020-09-12T22:30:19Z</time>
      </trkpt>
      <trkpt lat="43.19465" lon="0.00182">
        <ele>353.1</ele>
        <time>2020-09-12T22:30:20Z</time>
      </trkpt>
      <trkpt lat="43.19467" lon="0.00188">
        <ele>353.1</ele>
        <time>2020-09-12T22:30:21Z</time>
      </trkpt>
      <trkpt lat="43.19469" lon="0.00194">
        <ele>353</ele>
        <time>2020-09-12T22:30:22Z</time>
      </trkpt>
      <trkpt lat="43.19471" lon="0.00201">
        <ele>353</ele>
        <time>2020-09-12T22:30:23Z</time>
      </trkpt>
      <trkpt lat="43.19473" lon="0.00207">
        <ele>352.9</ele>
        <time>2020-09-12T22:30:24Z</time>
      </trkpt>
      <trkpt lat="43.19476" lon="0.00213">
        <ele>352.8</ele>
        <time>2020-09-12T22:30:25Z</time>
      </trkpt>
      <trkpt lat="43.19478" lon="0.0022">
        <ele>352.8</ele>
        <time>2020-09-12T22:30:26Z</time>
      </trkpt>
      <trkpt lat="43.1948" lon="0.00226">
        <ele>352.7</ele>
        <time>2020-09-12T22:30:27Z</time>
      </trkpt>
      <trkpt lat="43.19483" lon="0.00233">
        <ele>352.6</ele>
        <time>2020-09-12T22:30:28Z</time>
      </trkpt>
      <trkpt lat="43.19485" lon="0.0024">
        <ele>352.5</ele>
        <time>2020-09-12T22:30:29Z</time>
      </trkpt>
      <trkpt lat="43.19488" lon="0.00247">
        <ele>352.5</ele>
        <time>2020-09-12T22:30:30Z</time>
      </trkpt>
      <trkpt lat="43.1949" lon="0.00254">
        <ele>352.4</ele>
        <time>2020-09-12T22:30:31Z</time>
      </trkpt>
      <trkpt lat="43.19493" lon="0.00261">
        <ele>352.4</ele>
        <time>2020-09-12T22:30:32Z</time>
      </trkpt>
      <trkpt lat="43.19495" lon="0.00267">
        <ele>352.3</ele>
        <time>2020-09-12T22:30:33Z</time>
      </trkpt>
      <trkpt lat="43.19497" lon="0.00274">
        <ele>352.3</ele>
        <time>2020-09-12T22:30:34Z</time>
      </trkpt>
      <trkpt lat="43.195" lon="0.00281">
        <ele>352.3</ele>
        <time>2020-09-12T22:30:35Z</time>
      </trkpt>
      <trkpt lat="43.19502" lon="0.00287">
        <ele>352.4</ele>
        <time>2020-09-12T22:30:36Z</time>
      </trkpt>
      <trkpt lat="43.19502" lon="0.00292">
        <ele>352.5</ele>
        <time>2020-09-12T22:30:37Z</time>
      </trkpt>
      <trkpt lat="43.195" lon="0.00295">
        <ele>352.5</ele>
        <time>2020-09-12T22:30:38Z</time>
      </trkpt>
      <trkpt lat="43.19498" lon="0.00297">
        <ele>352.6</ele>
        <time>2020-09-12T22:30:39Z</time>
      </trkpt>
      <trkpt lat="43.19494" lon="0.00299">
        <ele>352.6</ele>
        <time>2020-09-12T22:30:40Z</time>
      </trkpt>
      <trkpt lat="43.19491" lon="0.00299">
        <ele>352.6</ele>
        <time>2020-09-12T22:30:41Z</time>
      </trkpt>
      <trkpt lat="43.19488" lon="0.00297">
        <ele>352.7</ele>
        <time>2020-09-12T22:30:42Z</time>
      </trkpt>
      <trkpt lat="43.19483" lon="0.00296">
        <ele>352.7</ele>
        <time>2020-09-12T22:30:43Z</time>
      </trkpt>
      <trkpt lat="43.19479" lon="0.00295">
        <ele>352.7</ele>
        <time>2020-09-12T22:30:44Z</time>
      </trkpt>
      <trkpt lat="43.19475" lon="0.00294">
        <ele>352.8</ele>
        <time>2020-09-12T22:30:45Z</time>
      </trkpt>
      <trkpt lat="43.1947" lon="0.00293">
        <ele>352.8</ele>
        <time>2020-09-12T22:30:46Z</time>
      </trkpt>
      <trkpt lat="43.19466" lon="0.00292">
        <ele>352.8</ele>
        <time>2020-09-12T22:30:47Z</time>
      </trkpt>
      <trkpt lat="43.19462" lon="0.00291">
        <ele>352.9</ele>
        <time>2020-09-12T22:30:48Z</time>
      </trkpt>
      <trkpt lat="43.19458" lon="0.0029">
        <ele>352.9</ele>
        <time>2020-09-12T22:30:49Z</time>
      </trkpt>
      <trkpt lat="43.19454" lon="0.00289">
        <ele>353</ele>
        <time>2020-09-12T22:30:50Z</time>
      </trkpt>
      <trkpt lat="43.1945" lon="0.00288">
        <ele>353</ele>
        <time>2020-09-12T22:30:51Z</time>
      </trkpt>
      <trkpt lat="43.19446" lon="0.00287">
        <ele>353.1</ele>
        <time>2020-09-12T22:30:52Z</time>
      </trkpt>
      <trkpt lat="43.19442" lon="0.00286">
        <ele>353.2</ele>
        <time>2020-09-12T22:30:53Z</time>
      </trkpt>
      <trkpt lat="43.19438" lon="0.00285">
        <ele>353.2</ele>
        <time>2020-09-12T22:30:54Z</time>
      </trkpt>
      <trkpt lat="43.19433" lon="0.00284">
        <ele>353.3</ele>
        <time>2020-09-12T22:30:55Z</time>
      </trkpt>
      <trkpt lat="43.19429" lon="0.00283">
        <ele>353.4</ele>
        <time>2020-09-12T22:30:56Z</time>
      </trkpt>
      <trkpt lat="43.19425" lon="0.00282">
        <ele>353.4</ele>
        <time>2020-09-12T22:30:57Z</time>
      </trkpt>
      <trkpt lat="43.1942" lon="0.00281">
        <ele>353.5</ele>
        <time>2020-09-12T22:30:58Z</time>
      </trkpt>
      <trkpt lat="43.19416" lon="0.0028">
        <ele>353.6</ele>
        <time>2020-09-12T22:30:59Z</time>
      </trkpt>
      <trkpt lat="43.19412" lon="0.00278">
        <ele>353.6</ele>
        <time>2020-09-12T22:31:00Z</time>
      </trkpt>
      <trkpt lat="43.19408" lon="0.00277">
        <ele>353.7</ele>
        <time>2020-09-12T22:31:01Z</time>
      </trkpt>
      <trkpt lat="43.19404" lon="0.00275">
        <ele>353.8</ele>
        <time>2020-09-12T22:31:02Z</time>
      </trkpt>
      <trkpt lat="43.194" lon="0.00273">
        <ele>353.8</ele>
        <time>2020-09-12T22:31:03Z</time>
      </trkpt>
      <trkpt lat="43.19396" lon="0.00271">
        <ele>353.9</ele>
        <time>2020-09-12T22:31:04Z</time>
      </trkpt>
      <trkpt lat="43.19391" lon="0.00269">
        <ele>353.9</ele>
        <time>2020-09-12T22:31:05Z</time>
      </trkpt>
      <trkpt lat="43.19387" lon="0.00267">
        <ele>354</ele>
        <time>2020-09-12T22:31:06Z</time>
      </trkpt>
      <trkpt lat="43.19383" lon="0.00266">
        <ele>354.1</ele>
        <time>2020-09-12T22:31:07Z</time>
      </trkpt>
      <trkpt lat="43.19379" lon="0.00264">
        <ele>354.1</ele>
        <time>2020-09-12T22:31:08Z</time>
      </trkpt>
      <trkpt lat="43.19375" lon="0.00262">
        <ele>354.2</ele>
        <time>2020-09-12T22:31:09Z</time>
      </trkpt>
      <trkpt lat="43.1937" lon="0.00261">
        <ele>354.3</ele>
        <time>2020-09-12T22:31:10Z</time>
      </trkpt>
      <trkpt lat="43.19366" lon="0.00259">
        <ele>354.4</ele>
        <time>2020-09-12T22:31:11Z</time>
      </trkpt>
      <trkpt lat="43.19362" lon="0.00257">
        <ele>354.5</ele>
        <time>2020-09-12T22:31:12Z</time>
      </trkpt>
      <trkpt lat="43.19358" lon="0.00255">
        <ele>354.5</ele>
        <time>2020-09-12T22:31:13Z</time>
      </trkpt>
      <trkpt lat="43.19354" lon="0.00254">
        <ele>354.6</ele>
        <time>2020-09-12T22:31:14Z</time>
      </trkpt>
      <trkpt lat="43.19349" lon="0.00253">
        <ele>354.7</ele>
        <time>2020-09-12T22:31:15Z</time>
      </trkpt>
      <trkpt lat="43.19346" lon="0.00253">
        <ele>354.8</ele>
        <time>2020-09-12T22:31:16Z</time>
      </trkpt>
      <trkpt lat="43.19342" lon="0.00256">
        <ele>354.9</ele>
        <time>2020-09-12T22:31:17Z</time>
      </trkpt>
      <trkpt lat="43.19338" lon="0.0026">
        <ele>354.9</ele>
        <time>2020-09-12T22:31:18Z</time>
      </trkpt>
      <trkpt lat="43.19337" lon="0.00266">
        <ele>355</ele>
        <time>2020-09-12T22:31:19Z</time>
      </trkpt>
      <trkpt lat="43.19338" lon="0.00271">
        <ele>355</ele>
        <time>2020-09-12T22:31:20Z</time>
      </trkpt>
      <trkpt lat="43.19339" lon="0.00277">
        <ele>355</ele>
        <time>2020-09-12T22:31:21Z</time>
      </trkpt>
      <trkpt lat="43.1934" lon="0.00283">
        <ele>355</ele>
        <time>2020-09-12T22:31:22Z</time>
      </trkpt>
      <trkpt lat="43.19342" lon="0.00288">
        <ele>355</ele>
        <time>2020-09-12T22:31:23Z</time>
      </trkpt>
      <trkpt lat="43.19344" lon="0.00294">
        <ele>355</ele>
        <time>2020-09-12T22:31:24Z</time>
      </trkpt>
      <trkpt lat="43.19347" lon="0.00299">
        <ele>355</ele>
        <time>2020-09-12T22:31:25Z</time>
      </trkpt>
      <trkpt lat="43.19349" lon="0.00304">
        <ele>355</ele>
        <time>2020-09-12T22:31:26Z</time>
      </trkpt>
      <trkpt lat="43.19352" lon="0.00309">
        <ele>355</ele>
        <time>2020-09-12T22:31:27Z</time>
      </trkpt>
      <trkpt lat="43.19356" lon="0.00314">
        <ele>354.9</ele>
        <time>2020-09-12T22:31:28Z</time>
      </trkpt>
      <trkpt lat="43.19359" lon="0.00319">
        <ele>354.9</ele>
        <time>2020-09-12T22:31:29Z</time>
      </trkpt>
      <trkpt lat="43.19363" lon="0.00324">
        <ele>354.9</ele>
        <time>2020-09-12T22:31:30Z</time>
      </trkpt>
      <trkpt lat="43.19366" lon="0.00329">
        <ele>354.9</ele>
        <time>2020-09-12T22:31:31Z</time>
      </trkpt>
      <trkpt lat="43.1937" lon="0.00334">
        <ele>354.8</ele>
        <time>2020-09-12T22:31:32Z</time>
      </trkpt>
      <trkpt lat="43.19373" lon="0.00338">
        <ele>354.8</ele>
        <time>2020-09-12T22:31:33Z</time>
      </trkpt>
      <trkpt lat="43.19376" lon="0.00343">
        <ele>354.8</ele>
        <time>2020-09-12T22:31:34Z</time>
      </trkpt>
      <trkpt lat="43.19379" lon="0.00348">
        <ele>354.7</ele>
        <time>2020-09-12T22:31:35Z</time>
      </trkpt>
      <trkpt lat="43.19382" lon="0.00353">
        <ele>354.7</ele>
        <time>2020-09-12T22:31:36Z</time>
      </trkpt>
      <trkpt lat="43.19385" lon="0.00358">
        <ele>354.7</ele>
        <time>2020-09-12T22:31:37Z</time>
      </trkpt>
      <trkpt lat="43.19388" lon="0.00363">
        <ele>354.6</ele>
        <time>2020-09-12T22:31:38Z</time>
      </trkpt>
      <trkpt lat="43.1939" lon="0.00368">
        <ele>354.6</ele>
        <time>2020-09-12T22:31:39Z</time>
      </trkpt>
      <trkpt lat="43.19393" lon="0.00373">
        <ele>354.6</ele>
        <time>2020-09-12T22:31:40Z</time>
      </trkpt>
      <trkpt lat="43.19396" lon="0.00379">
        <ele>354.5</ele>
        <time>2020-09-12T22:31:41Z</time>
      </trkpt>
      <trkpt lat="43.194" lon="0.00384">
        <ele>354.5</ele>
        <time>2020-09-12T22:31:42Z</time>
      </trkpt>
      <trkpt lat="43.19403" lon="0.00389">
        <ele>354.4</ele>
        <time>2020-09-12T22:31:43Z</time>
      </trkpt>
      <trkpt lat="43.19407" lon="0.00394">
        <ele>354.4</ele>
        <time>2020-09-12T22:31:44Z</time>
      </trkpt>
      <trkpt lat="43.1941" lon="0.00398">
        <ele>354.4</ele>
        <time>2020-09-12T22:31:45Z</time>
      </trkpt>
      <trkpt lat="43.19414" lon="0.00403">
        <ele>354.3</ele>
        <time>2020-09-12T22:31:46Z</time>
      </trkpt>
      <trkpt lat="43.19417" lon="0.00408">
        <ele>354.3</ele>
        <time>2020-09-12T22:31:47Z</time>
      </trkpt>
      <trkpt lat="43.19421" lon="0.00412">
        <ele>354.3</ele>
        <time>2020-09-12T22:31:48Z</time>
      </trkpt>
      <trkpt lat="43.19425" lon="0.00416">
        <ele>354.3</ele>
        <time>2020-09-12T22:31:49Z</time>
      </trkpt>
      <trkpt lat="43.19429" lon="0.00421">
        <ele>354.2</ele>
        <time>2020-09-12T22:31:50Z</time>
      </trkpt>
      <trkpt lat="43.19432" lon="0.00426">
        <ele>354.2</ele>
        <time>2020-09-12T22:31:51Z</time>
      </trkpt>
      <trkpt lat="43.19436" lon="0.00431">
        <ele>354.1</ele>
        <time>2020-09-12T22:31:52Z</time>
      </trkpt>
      <trkpt lat="43.1944" lon="0.00435">
        <ele>354.1</ele>
        <time>2020-09-12T22:31:53Z</time>
      </trkpt>
      <trkpt lat="43.19444" lon="0.0044">
        <ele>354.1</ele>
        <time>2020-09-12T22:31:54Z</time>
      </trkpt>
      <trkpt lat="43.19448" lon="0.00446">
        <ele>354</ele>
        <time>2020-09-12T22:31:55Z</time>
      </trkpt>
      <trkpt lat="43.19452" lon="0.00451">
        <ele>354</ele>
        <time>2020-09-12T22:31:56Z</time>
      </trkpt>
      <trkpt lat="43.19456" lon="0.00456">
        <ele>353.9</ele>
        <time>2020-09-12T22:31:57Z</time>
      </trkpt>
      <trkpt lat="43.19461" lon="0.00461">
        <ele>353.9</ele>
        <time>2020-09-12T22:31:58Z</time>
      </trkpt>
      <trkpt lat="43.19464" lon="0.00466">
        <ele>353.9</ele>
        <time>2020-09-12T22:31:59Z</time>
      </trkpt>
      <trkpt lat="43.19468" lon="0.00471">
        <ele>353.8</ele>
        <time>2020-09-12T22:32:00Z</time>
      </trkpt>
      <trkpt lat="43.19473" lon="0.00475">
        <ele>353.8</ele>
        <time>2020-09-12T22:32:01Z</time>
      </trkpt>
      <trkpt lat="43.19477" lon="0.00479">
        <ele>353.7</ele>
        <time>2020-09-12T22:32:02Z</time>
      </trkpt>
      <trkpt lat="43.1948" lon="0.00482">
        <ele>353.7</ele>
        <time>2020-09-12T22:32:03Z</time>
      </trkpt>
      <trkpt lat="43.19484" lon="0.00486">
        <ele>353.6</ele>
        <time>2020-09-12T22:32:04Z</time>
      </trkpt>
      <trkpt lat="43.19489" lon="0.00492">
        <ele>353.6</ele>
        <time>2020-09-12T22:32:05Z</time>
      </trkpt>
      <trkpt lat="43.19493" lon="0.00497">
        <ele>353.5</ele>
        <time>2020-09-12T22:32:06Z</time>
      </trkpt>
      <trkpt lat="43.19497" lon="0.00502">
        <ele>353.5</ele>
        <time>2020-09-12T22:32:07Z</time>
      </trkpt>
      <trkpt lat="43.19501" lon="0.00506">
        <ele>353.4</ele>
        <time>2020-09-12T22:32:08Z</time>
      </trkpt>
      <trkpt lat="43.19505" lon="0.00511">
        <ele>353.3</ele>
        <time>2020-09-12T22:32:09Z</time>
      </trkpt>
      <trkpt lat="43.19509" lon="0.00516">
        <ele>353.2</ele>
        <time>2020-09-12T22:32:10Z</time>
      </trkpt>
      <trkpt lat="43.19513" lon="0.00521">
        <ele>353.1</ele>
        <time>2020-09-12T22:32:11Z</time>
      </trkpt>
      <trkpt lat="43.19516" lon="0.00526">
        <ele>353</ele>
        <time>2020-09-12T22:32:12Z</time>
      </trkpt>
      <trkpt lat="43.1952" lon="0.00531">
        <ele>352.9</ele>
        <time>2020-09-12T22:32:13Z</time>
      </trkpt>
      <trkpt lat="43.19524" lon="0.00537">
        <ele>352.8</ele>
        <time>2020-09-12T22:32:14Z</time>
      </trkpt>
      <trkpt lat="43.19528" lon="0.00542">
        <ele>352.8</ele>
        <time>2020-09-12T22:32:15Z</time>
      </trkpt>
      <trkpt lat="43.19531" lon="0.00547">
        <ele>352.7</ele>
        <time>2020-09-12T22:32:16Z</time>
      </trkpt>
      <trkpt lat="43.19535" lon="0.00553">
        <ele>352.6</ele>
        <time>2020-09-12T22:32:17Z</time>
      </trkpt>
      <trkpt lat="43.19539" lon="0.00558">
        <ele>352.5</ele>
        <time>2020-09-12T22:32:18Z</time>
      </trkpt>
      <trkpt lat="43.19543" lon="0.00564">
        <ele>352.4</ele>
        <time>2020-09-12T22:32:19Z</time>
      </trkpt>
      <trkpt lat="43.19547" lon="0.00569">
        <ele>352.3</ele>
        <time>2020-09-12T22:32:20Z</time>
      </trkpt>
      <trkpt lat="43.19551" lon="0.00574">
        <ele>352.2</ele>
        <time>2020-09-12T22:32:21Z</time>
      </trkpt>
      <trkpt lat="43.19555" lon="0.00579">
        <ele>352.1</ele>
        <time>2020-09-12T22:32:22Z</time>
      </trkpt>
      <trkpt lat="43.19559" lon="0.00584">
        <ele>351.9</ele>
        <time>2020-09-12T22:32:23Z</time>
      </trkpt>
      <trkpt lat="43.19561" lon="0.00589">
        <ele>351.9</ele>
        <time>2020-09-12T22:32:24Z</time>
      </trkpt>
      <trkpt lat="43.19562" lon="0.00593">
        <ele>351.8</ele>
        <time>2020-09-12T22:32:25Z</time>
      </trkpt>
      <trkpt lat="43.1956" lon="0.00597">
        <ele>351.8</ele>
        <time>2020-09-12T22:32:26Z</time>
      </trkpt>
      <trkpt lat="43.19557" lon="0.00598">
        <ele>351.8</ele>
        <time>2020-09-12T22:32:27Z</time>
      </trkpt>
      <trkpt lat="43.19552" lon="0.00598">
        <ele>351.8</ele>
        <time>2020-09-12T22:32:28Z</time>
      </trkpt>
      <trkpt lat="43.19548" lon="0.006">
        <ele>351.8</ele>
        <time>2020-09-12T22:32:29Z</time>
      </trkpt>
      <trkpt lat="43.19543" lon="0.00601">
        <ele>351.8</ele>
        <time>2020-09-12T22:32:30Z</time>
      </trkpt>
      <trkpt lat="43.19539" lon="0.00603">
        <ele>351.8</ele>
        <time>2020-09-12T22:32:31Z</time>
      </trkpt>
      <trkpt lat="43.19535" lon="0.00604">
        <ele>351.9</ele>
        <time>2020-09-12T22:32:32Z</time>
      </trkpt>
      <trkpt lat="43.19532" lon="0.00606">
        <ele>351.9</ele>
        <time>2020-09-12T22:32:33Z</time>
      </trkpt>
      <trkpt lat="43.19528" lon="0.00609">
        <ele>351.9</ele>
        <time>2020-09-12T22:32:34Z</time>
      </trkpt>
      <trkpt lat="43.19524" lon="0.0061">
        <ele>351.9</ele>
        <time>2020-09-12T22:32:35Z</time>
      </trkpt>
      <trkpt lat="43.1952" lon="0.00612">
        <ele>352</ele>
        <time>2020-09-12T22:32:36Z</time>
      </trkpt>
      <trkpt lat="43.19516" lon="0.00614">
        <ele>352</ele>
        <time>2020-09-12T22:32:37Z</time>
      </trkpt>
      <trkpt lat="43.19512" lon="0.00616">
        <ele>352.1</ele>
        <time>2020-09-12T22:32:38Z</time>
      </trkpt>
      <trkpt lat="43.19508" lon="0.00618">
        <ele>352.1</ele>
        <time>2020-09-12T22:32:39Z</time>
      </trkpt>
      <trkpt lat="43.19504" lon="0.0062">
        <ele>352.1</ele>
        <time>2020-09-12T22:32:40Z</time>
      </trkpt>
      <trkpt lat="43.195" lon="0.00621">
        <ele>352.2</ele>
        <time>2020-09-12T22:32:41Z</time>
      </trkpt>
      <trkpt lat="43.19496" lon="0.00623">
        <ele>352.2</ele>
        <time>2020-09-12T22:32:42Z</time>
      </trkpt>
      <trkpt lat="43.19492" lon="0.00625">
        <ele>352.2</ele>
        <time>2020-09-12T22:32:43Z</time>
      </trkpt>
      <trkpt lat="43.19488" lon="0.00627">
        <ele>352.3</ele>
        <time>2020-09-12T22:32:44Z</time>
      </trkpt>
      <trkpt lat="43.19484" lon="0.00629">
        <ele>352.3</ele>
        <time>2020-09-12T22:32:45Z</time>
      </trkpt>
      <trkpt lat="43.1948" lon="0.00631">
        <ele>352.3</ele>
        <time>2020-09-12T22:32:46Z</time>
      </trkpt>
      <trkpt lat="43.19476" lon="0.00633">
        <ele>352.4</ele>
        <time>2020-09-12T22:32:47Z</time>
      </trkpt>
      <trkpt lat="43.19472" lon="0.00635">
        <ele>352.4</ele>
        <time>2020-09-12T22:32:48Z</time>
      </trkpt>
      <trkpt lat="43.19468" lon="0.00638">
        <ele>352.4</ele>
        <time>2020-09-12T22:32:49Z</time>
      </trkpt>
      <trkpt lat="43.19464" lon="0.0064">
        <ele>352.4</ele>
        <time>2020-09-12T22:32:50Z</time>
      </trkpt>
      <trkpt lat="43.19459" lon="0.00642">
        <ele>352.4</ele>
        <time>2020-09-12T22:32:51Z</time>
      </trkpt>
      <trkpt lat="43.19455" lon="0.00645">
        <ele>352.5</ele>
        <time>2020-09-12T22:32:52Z</time>
      </trkpt>
      <trkpt lat="43.1945" lon="0.00648">
        <ele>352.5</ele>
        <time>2020-09-12T22:32:53Z</time>
      </trkpt>
      <trkpt lat="43.19446" lon="0.0065">
        <ele>352.5</ele>
        <time>2020-09-12T22:32:54Z</time>
      </trkpt>
      <trkpt lat="43.19441" lon="0.00653">
        <ele>352.5</ele>
        <time>2020-09-12T22:32:55Z</time>
      </trkpt>
      <trkpt lat="43.19437" lon="0.00655">
        <ele>352.5</ele>
        <time>2020-09-12T22:32:56Z</time>
      </trkpt>
      <trkpt lat="43.19432" lon="0.00658">
        <ele>352.5</ele>
        <time>2020-09-12T22:32:57Z</time>
      </trkpt>
      <trkpt lat="43.19428" lon="0.00661">
        <ele>352.5</ele>
        <time>2020-09-12T22:32:58Z</time>
      </trkpt>
      <trkpt lat="43.19424" lon="0.00664">
        <ele>352.6</ele>
        <time>2020-09-12T22:32:59Z</time>
      </trkpt>
      <trkpt lat="43.1942" lon="0.00667">
        <ele>352.6</ele>
        <time>2020-09-12T22:33:00Z</time>
      </trkpt>
      <trkpt lat="43.19415" lon="0.0067">
        <ele>352.7</ele>
        <time>2020-09-12T22:33:01Z</time>
      </trkpt>
      <trkpt lat="43.19411" lon="0.00673">
        <ele>352.7</ele>
        <time>2020-09-12T22:33:02Z</time>
      </trkpt>
      <trkpt lat="43.19406" lon="0.00676">
        <ele>352.8</ele>
        <time>2020-09-12T22:33:03Z</time>
      </trkpt>
      <trkpt lat="43.19402" lon="0.0068">
        <ele>353</ele>
        <time>2020-09-12T22:33:04Z</time>
      </trkpt>
      <trkpt lat="43.19397" lon="0.00683">
        <ele>353.1</ele>
        <time>2020-09-12T22:33:05Z</time>
      </trkpt>
      <trkpt lat="43.19393" lon="0.00686">
        <ele>353.3</ele>
        <time>2020-09-12T22:33:06Z</time>
      </trkpt>
      <trkpt lat="43.19389" lon="0.00689">
        <ele>353.5</ele>
        <time>2020-09-12T22:33:07Z</time>
      </trkpt>
      <trkpt lat="43.19384" lon="0.00693">
        <ele>353.8</ele>
        <time>2020-09-12T22:33:08Z</time>
      </trkpt>
      <trkpt lat="43.1938" lon="0.00696">
        <ele>354</ele>
        <time>2020-09-12T22:33:09Z</time>
      </trkpt>
      <trkpt lat="43.19376" lon="0.00699">
        <ele>354.3</ele>
        <time>2020-09-12T22:33:10Z</time>
      </trkpt>
      <trkpt lat="43.19372" lon="0.00702">
        <ele>354.6</ele>
        <time>2020-09-12T22:33:11Z</time>
      </trkpt>
      <trkpt lat="43.19368" lon="0.00705">
        <ele>355</ele>
        <time>2020-09-12T22:33:12Z</time>
      </trkpt>
      <trkpt lat="43.19364" lon="0.00708">
        <ele>355.4</ele>
        <time>2020-09-12T22:33:13Z</time>
      </trkpt>
      <trkpt lat="43.1936" lon="0.00711">
        <ele>355.8</ele>
        <time>2020-09-12T22:33:14Z</time>
      </trkpt>
      <trkpt lat="43.19356" lon="0.00713">
        <ele>356.1</ele>
        <time>2020-09-12T22:33:15Z</time>
      </trkpt>
      <trkpt lat="43.19352" lon="0.00715">
        <ele>356.6</ele>
        <time>2020-09-12T22:33:16Z</time>
      </trkpt>
      <trkpt lat="43.19349" lon="0.00717">
        <ele>356.9</ele>
        <time>2020-09-12T22:33:17Z</time>
      </trkpt>
      <trkpt lat="43.19345" lon="0.00719">
        <ele>357.3</ele>
        <time>2020-09-12T22:33:18Z</time>
      </trkpt>
      <trkpt lat="43.19342" lon="0.00723">
        <ele>357.7</ele>
        <time>2020-09-12T22:33:19Z</time>
      </trkpt>
      <trkpt lat="43.19339" lon="0.00725">
        <ele>358</ele>
        <time>2020-09-12T22:33:20Z</time>
      </trkpt>
      <trkpt lat="43.19336" lon="0.00726">
        <ele>358.3</ele>
        <time>2020-09-12T22:33:21Z</time>
      </trkpt>
      <trkpt lat="43.19334" lon="0.00728">
        <ele>358.6</ele>
        <time>2020-09-12T22:33:22Z</time>
      </trkpt>
      <trkpt lat="43.19329" lon="0.00731">
        <ele>359.1</ele>
        <time>2020-09-12T22:33:24Z</time>
      </trkpt>
      <trkpt lat="43.19325" lon="0.00734">
        <ele>359.6</ele>
        <time>2020-09-12T22:33:26Z</time>
      </trkpt>
      <trkpt lat="43.19321" lon="0.00737">
        <ele>360.1</ele>
        <time>2020-09-12T22:33:28Z</time>
      </trkpt>
      <trkpt lat="43.19317" lon="0.0074">
        <ele>360.5</ele>
        <time>2020-09-12T22:33:30Z</time>
      </trkpt>
      <trkpt lat="43.19314" lon="0.00741">
        <ele>360.9</ele>
        <time>2020-09-12T22:33:32Z</time>
      </trkpt>
      <trkpt lat="43.1931" lon="0.00741">
        <ele>361.4</ele>
        <time>2020-09-12T22:33:34Z</time>
      </trkpt>
      <trkpt lat="43.19306" lon="0.00743">
        <ele>361.8</ele>
        <time>2020-09-12T22:33:36Z</time>
      </trkpt>
      <trkpt lat="43.19304" lon="0.00744">
        <ele>362.3</ele>
        <time>2020-09-12T22:33:38Z</time>
      </trkpt>
      <trkpt lat="43.19301" lon="0.00745">
        <ele>362.7</ele>
        <time>2020-09-12T22:33:40Z</time>
      </trkpt>
      <trkpt lat="43.19297" lon="0.00745">
        <ele>363.1</ele>
        <time>2020-09-12T22:33:42Z</time>
      </trkpt>
      <trkpt lat="43.19294" lon="0.00746">
        <ele>363.6</ele>
        <time>2020-09-12T22:33:44Z</time>
      </trkpt>
      <trkpt lat="43.19292" lon="0.00749">
        <ele>364.1</ele>
        <time>2020-09-12T22:33:46Z</time>
      </trkpt>
      <trkpt lat="43.19289" lon="0.00751">
        <ele>364.4</ele>
        <time>2020-09-12T22:33:48Z</time>
      </trkpt>
      <trkpt lat="43.19286" lon="0.00753">
        <ele>364.8</ele>
        <time>2020-09-12T22:33:50Z</time>
      </trkpt>
      <trkpt lat="43.19284" lon="0.00755">
        <ele>365.2</ele>
        <time>2020-09-12T22:33:52Z</time>
      </trkpt>
      <trkpt lat="43.19282" lon="0.00757">
        <ele>365.5</ele>
        <time>2020-09-12T22:33:54Z</time>
      </trkpt>
      <trkpt lat="43.19279" lon="0.00758">
        <ele>365.9</ele>
        <time>2020-09-12T22:33:56Z</time>
      </trkpt>
      <trkpt lat="43.19276" lon="0.00758">
        <ele>366.2</ele>
        <time>2020-09-12T22:33:58Z</time>
      </trkpt>
      <trkpt lat="43.19273" lon="0.00759">
        <ele>366.6</ele>
        <time>2020-09-12T22:34:00Z</time>
      </trkpt>
      <trkpt lat="43.19271" lon="0.00764">
        <ele>366.9</ele>
        <time>2020-09-12T22:34:03Z</time>
      </trkpt>
      <trkpt lat="43.19269" lon="0.00764">
        <ele>367.2</ele>
        <time>2020-09-12T22:34:05Z</time>
      </trkpt>
      <trkpt lat="43.19265" lon="0.00765">
        <ele>367.6</ele>
        <time>2020-09-12T22:34:07Z</time>
      </trkpt>
      <trkpt lat="43.19262" lon="0.00765">
        <ele>368</ele>
        <time>2020-09-12T22:34:09Z</time>
      </trkpt>
      <trkpt lat="43.19259" lon="0.00766">
        <ele>368.3</ele>
        <time>2020-09-12T22:34:11Z</time>
      </trkpt>
      <trkpt lat="43.19255" lon="0.00767">
        <ele>368.5</ele>
        <time>2020-09-12T22:34:13Z</time>
      </trkpt>
      <trkpt lat="43.19252" lon="0.00768">
        <ele>368.8</ele>
        <time>2020-09-12T22:34:15Z</time>
      </trkpt>
      <trkpt lat="43.19249" lon="0.00769">
        <ele>369</ele>
        <time>2020-09-12T22:34:17Z</time>
      </trkpt>
      <trkpt lat="43.19246" lon="0.00771">
        <ele>369.3</ele>
        <time>2020-09-12T22:34:19Z</time>
      </trkpt>
      <trkpt lat="43.19242" lon="0.00772">
        <ele>369.6</ele>
        <time>2020-09-12T22:34:21Z</time>
      </trkpt>
      <trkpt lat="43.1924" lon="0.00772">
        <ele>369.9</ele>
        <time>2020-09-12T22:34:25Z</time>
      </trkpt>
      <trkpt lat="43.19237" lon="0.00769">
        <ele>369.9</ele>
        <time>2020-09-12T22:34:29Z</time>
      </trkpt>
      <trkpt lat="43.19234" lon="0.00768">
        <ele>370</ele>
        <time>2020-09-12T22:34:32Z</time>
      </trkpt>
      <trkpt lat="43.1923" lon="0.00765">
        <ele>370</ele>
        <time>2020-09-12T22:34:35Z</time>
      </trkpt>
      <trkpt lat="43.19231" lon="0.00762">
        <ele>370</ele>
        <time>2020-09-12T22:34:56Z</time>
      </trkpt>
      <trkpt lat="43.19235" lon="0.00759">
        <ele>370.1</ele>
        <time>2020-09-12T22:34:59Z</time>
      </trkpt>
      <trkpt lat="43.19238" lon="0.00757">
        <ele>370.1</ele>
        <time>2020-09-12T22:35:09Z</time>
      </trkpt>
      <trkpt lat="43.19234" lon="0.00755">
        <ele>370.1</ele>
        <time>2020-09-12T22:35:43Z</time>
      </trkpt>
      <trkpt lat="43.19232" lon="0.0075">
        <ele>370.2</ele>
        <time>2020-09-12T22:36:02Z</time>
      </trkpt>
      <trkpt lat="43.19231" lon="0.00744">
        <ele>370.2</ele>
        <time>2020-09-12T22:36:04Z</time>
      </trkpt>
      <trkpt lat="43.19229" lon="0.0074">
        <ele>370.2</ele>
        <time>2020-09-12T22:36:06Z</time>
      </trkpt>
      <trkpt lat="43.19227" lon="0.00737">
        <ele>370.2</ele>
        <time>2020-09-12T22:36:08Z</time>
      </trkpt>
      <trkpt lat="43.19225" lon="0.00735">
        <ele>370.3</ele>
        <time>2020-09-12T22:36:10Z</time>
      </trkpt>
      <trkpt lat="43.19223" lon="0.0073">
        <ele>370.3</ele>
        <time>2020-09-12T22:36:13Z</time>
      </trkpt>
      <trkpt lat="43.19221" lon="0.00726">
        <ele>370.3</ele>
        <time>2020-09-12T22:36:16Z</time>
      </trkpt>
      <trkpt lat="43.19219" lon="0.00723">
        <ele>370.3</ele>
        <time>2020-09-12T22:36:19Z</time>
      </trkpt>
      <trkpt lat="43.19216" lon="0.00721">
        <ele>370.4</ele>
        <time>2020-09-12T22:36:21Z</time>
      </trkpt>
      <trkpt lat="43.19213" lon="0.00717">
        <ele>370.4</ele>
        <time>2020-09-12T22:36:23Z</time>
      </trkpt>
      <trkpt lat="43.19211" lon="0.00714">
        <ele>370.4</ele>
        <time>2020-09-12T22:36:25Z</time>
      </trkpt>
      <trkpt lat="43.19208" lon="0.00712">
        <ele>370.4</ele>
        <time>2020-09-12T22:36:27Z</time>
      </trkpt>
      <trkpt lat="43.19207" lon="0.00706">
        <ele>370.5</ele>
        <time>2020-09-12T22:36:29Z</time>
      </trkpt>
      <trkpt lat="43.19208" lon="0.00699">
        <ele>370.5</ele>
        <time>2020-09-12T22:36:32Z</time>
      </trkpt>
      <trkpt lat="43.19209" lon="0.00693">
        <ele>370.5</ele>
        <time>2020-09-12T22:36:34Z</time>
      </trkpt>
      <trkpt lat="43.19209" lon="0.00689">
        <ele>370.5</ele>
        <time>2020-09-12T22:36:35Z</time>
      </trkpt>
      <trkpt lat="43.19209" lon="0.00685">
        <ele>370.5</ele>
        <time>2020-09-12T22:36:36Z</time>
      </trkpt>
      <trkpt lat="43.19209" lon="0.00677">
        <ele>370.6</ele>
        <time>2020-09-12T22:36:38Z</time>
      </trkpt>
      <trkpt lat="43.19209" lon="0.00672">
        <ele>370.6</ele>
        <time>2020-09-12T22:36:39Z</time>
      </trkpt>
      <trkpt lat="43.19209" lon="0.00667">
        <ele>370.6</ele>
        <time>2020-09-12T22:36:40Z</time>
      </trkpt>
      <trkpt lat="43.19208" lon="0.00662">
        <ele>370.6</ele>
        <time>2020-09-12T22:36:41Z</time>
      </trkpt>
      <trkpt lat="43.19207" lon="0.00657">
        <ele>370.7</ele>
        <time>2020-09-12T22:36:43Z</time>
      </trkpt>
      <trkpt lat="43.19206" lon="0.00652">
        <ele>370.7</ele>
        <time>2020-09-12T22:36:45Z</time>
      </trkpt>
      <trkpt lat="43.19206" lon="0.00647">
        <ele>370.7</ele>
        <time>2020-09-12T22:36:48Z</time>
      </trkpt>
      <trkpt lat="43.19205" lon="0.00643">
        <ele>370.7</ele>
        <time>2020-09-12T22:36:50Z</time>
      </trkpt>
      <trkpt lat="43.19209" lon="0.0064">
        <ele>370.8</ele>
        <time>2020-09-12T22:36:53Z</time>
      </trkpt>
      <trkpt lat="43.19212" lon="0.0064">
        <ele>370.8</ele>
        <time>2020-09-12T22:36:55Z</time>
      </trkpt>
      <trkpt lat="43.19216" lon="0.00642">
        <ele>370.8</ele>
        <time>2020-09-12T22:36:57Z</time>
      </trkpt>
      <trkpt lat="43.1922" lon="0.00644">
        <ele>370.8</ele>
        <time>2020-09-12T22:36:59Z</time>
      </trkpt>
      <trkpt lat="43.19224" lon="0.00644">
        <ele>370.8</ele>
        <time>2020-09-12T22:37:01Z</time>
      </trkpt>
      <trkpt lat="43.19226" lon="0.0064">
        <ele>370.9</ele>
        <time>2020-09-12T22:37:03Z</time>
      </trkpt>
      <trkpt lat="43.19227" lon="0.00633">
        <ele>370.3</ele>
        <time>2020-09-12T22:37:05Z</time>
      </trkpt>
      <trkpt lat="43.19228" lon="0.00627">
        <ele>369.7</ele>
        <time>2020-09-12T22:37:07Z</time>
      </trkpt>
      <trkpt lat="43.19229" lon="0.00621">
        <ele>369.3</ele>
        <time>2020-09-12T22:37:09Z</time>
      </trkpt>
      <trkpt lat="43.1923" lon="0.00616">
        <ele>369.1</ele>
        <time>2020-09-12T22:37:10Z</time>
      </trkpt>
      <trkpt lat="43.19231" lon="0.00611">
        <ele>368.8</ele>
        <time>2020-09-12T22:37:11Z</time>
      </trkpt>
      <trkpt lat="43.19228" lon="0.00608">
        <ele>368.5</ele>
        <time>2020-09-12T22:37:13Z</time>
      </trkpt>
      <trkpt lat="43.19225" lon="0.00604">
        <ele>368.1</ele>
        <time>2020-09-12T22:37:16Z</time>
      </trkpt>
      <trkpt lat="43.19224" lon="0.00601">
        <ele>367.8</ele>
        <time>2020-09-12T22:37:17Z</time>
      </trkpt>
      <trkpt lat="43.19222" lon="0.00592">
        <ele>367.1</ele>
        <time>2020-09-12T22:37:19Z</time>
      </trkpt>
      <trkpt lat="43.1922" lon="0.00587">
        <ele>366.7</ele>
        <time>2020-09-12T22:37:20Z</time>
      </trkpt>
      <trkpt lat="43.19219" lon="0.00582">
        <ele>366.3</ele>
        <time>2020-09-12T22:37:21Z</time>
      </trkpt>
      <trkpt lat="43.19219" lon="0.00578">
        <ele>366.1</ele>
        <time>2020-09-12T22:37:22Z</time>
      </trkpt>
      <trkpt lat="43.1922" lon="0.00574">
        <ele>365.8</ele>
        <time>2020-09-12T22:37:23Z</time>
      </trkpt>
      <trkpt lat="43.19223" lon="0.0057">
        <ele>365.3</ele>
        <time>2020-09-12T22:37:25Z</time>
      </trkpt>
      <trkpt lat="43.19227" lon="0.00567">
        <ele>364.9</ele>
        <time>2020-09-12T22:37:26Z</time>
      </trkpt>
      <trkpt lat="43.19231" lon="0.00566">
        <ele>364.6</ele>
        <time>2020-09-12T22:37:27Z</time>
      </trkpt>
      <trkpt lat="43.19234" lon="0.00565">
        <ele>364.4</ele>
        <time>2020-09-12T22:37:28Z</time>
      </trkpt>
      <trkpt lat="43.19238" lon="0.00563">
        <ele>364.1</ele>
        <time>2020-09-12T22:37:30Z</time>
      </trkpt>
      <trkpt lat="43.1924" lon="0.00561">
        <ele>363.9</ele>
        <time>2020-09-12T22:37:32Z</time>
      </trkpt>
      <trkpt lat="43.19242" lon="0.00557">
        <ele>363.7</ele>
        <time>2020-09-12T22:37:35Z</time>
      </trkpt>
      <trkpt lat="43.19242" lon="0.00553">
        <ele>363.3</ele>
        <time>2020-09-12T22:37:37Z</time>
      </trkpt>
      <trkpt lat="43.19241" lon="0.00547">
        <ele>362.6</ele>
        <time>2020-09-12T22:37:39Z</time>
      </trkpt>
      <trkpt lat="43.19239" lon="0.00544">
        <ele>362.6</ele>
        <time>2020-09-12T22:37:40Z</time>
      </trkpt>
      <trkpt lat="43.19236" lon="0.0054">
        <ele>362.7</ele>
        <time>2020-09-12T22:37:41Z</time>
      </trkpt>
      <trkpt lat="43.19234" lon="0.00535">
        <ele>362.8</ele>
        <time>2020-09-12T22:37:42Z</time>
      </trkpt>
      <trkpt lat="43.19231" lon="0.00531">
        <ele>362.9</ele>
        <time>2020-09-12T22:37:43Z</time>
      </trkpt>
      <trkpt lat="43.19228" lon="0.00527">
        <ele>362.9</ele>
        <time>2020-09-12T22:37:44Z</time>
      </trkpt>
      <trkpt lat="43.19224" lon="0.00524">
        <ele>363</ele>
        <time>2020-09-12T22:37:45Z</time>
      </trkpt>
      <trkpt lat="43.19222" lon="0.00522">
        <ele>363.1</ele>
        <time>2020-09-12T22:37:46Z</time>
      </trkpt>
      <trkpt lat="43.19219" lon="0.00519">
        <ele>363.2</ele>
        <time>2020-09-12T22:37:47Z</time>
      </trkpt>
      <trkpt lat="43.19216" lon="0.00516">
        <ele>363.2</ele>
        <time>2020-09-12T22:37:48Z</time>
      </trkpt>
      <trkpt lat="43.19213" lon="0.00513">
        <ele>363.3</ele>
        <time>2020-09-12T22:37:49Z</time>
      </trkpt>
      <trkpt lat="43.19211" lon="0.0051">
        <ele>363.4</ele>
        <time>2020-09-12T22:37:50Z</time>
      </trkpt>
      <trkpt lat="43.19208" lon="0.00507">
        <ele>363.5</ele>
        <time>2020-09-12T22:37:51Z</time>
      </trkpt>
      <trkpt lat="43.19205" lon="0.00505">
        <ele>363.5</ele>
        <time>2020-09-12T22:37:52Z</time>
      </trkpt>
      <trkpt lat="43.19201" lon="0.00503">
        <ele>363.6</ele>
        <time>2020-09-12T22:37:53Z</time>
      </trkpt>
      <trkpt lat="43.19198" lon="0.005">
        <ele>363.7</ele>
        <time>2020-09-12T22:37:54Z</time>
      </trkpt>
      <trkpt lat="43.19195" lon="0.00498">
        <ele>363.8</ele>
        <time>2020-09-12T22:37:55Z</time>
      </trkpt>
      <trkpt lat="43.19191" lon="0.00495">
        <ele>363.9</ele>
        <time>2020-09-12T22:37:56Z</time>
      </trkpt>
      <trkpt lat="43.19188" lon="0.00492">
        <ele>364.1</ele>
        <time>2020-09-12T22:37:57Z</time>
      </trkpt>
      <trkpt lat="43.19184" lon="0.00491">
        <ele>364.3</ele>
        <time>2020-09-12T22:37:58Z</time>
      </trkpt>
      <trkpt lat="43.1918" lon="0.00489">
        <ele>364.4</ele>
        <time>2020-09-12T22:37:59Z</time>
      </trkpt>
      <trkpt lat="43.19177" lon="0.00487">
        <ele>364.5</ele>
        <time>2020-09-12T22:38:00Z</time>
      </trkpt>
      <trkpt lat="43.19173" lon="0.00485">
        <ele>364.6</ele>
        <time>2020-09-12T22:38:01Z</time>
      </trkpt>
      <trkpt lat="43.19169" lon="0.00483">
        <ele>364.8</ele>
        <time>2020-09-12T22:38:02Z</time>
      </trkpt>
      <trkpt lat="43.19165" lon="0.00481">
        <ele>364.9</ele>
        <time>2020-09-12T22:38:03Z</time>
      </trkpt>
      <trkpt lat="43.19161" lon="0.00479">
        <ele>365</ele>
        <time>2020-09-12T22:38:04Z</time>
      </trkpt>
      <trkpt lat="43.19158" lon="0.00478">
        <ele>365.1</ele>
        <time>2020-09-12T22:38:05Z</time>
      </trkpt>
      <trkpt lat="43.19154" lon="0.00477">
        <ele>365.2</ele>
        <time>2020-09-12T22:38:06Z</time>
      </trkpt>
      <trkpt lat="43.1915" lon="0.00475">
        <ele>365.3</ele>
        <time>2020-09-12T22:38:07Z</time>
      </trkpt>
      <trkpt lat="43.19146" lon="0.00475">
        <ele>365.4</ele>
        <time>2020-09-12T22:38:08Z</time>
      </trkpt>
      <trkpt lat="43.19142" lon="0.00473">
        <ele>365.5</ele>
        <time>2020-09-12T22:38:09Z</time>
      </trkpt>
      <trkpt lat="43.19139" lon="0.00473">
        <ele>365.6</ele>
        <time>2020-09-12T22:38:10Z</time>
      </trkpt>
      <trkpt lat="43.19136" lon="0.00472">
        <ele>365.7</ele>
        <time>2020-09-12T22:38:11Z</time>
      </trkpt>
      <trkpt lat="43.19132" lon="0.00472">
        <ele>365.8</ele>
        <time>2020-09-12T22:38:12Z</time>
      </trkpt>
      <trkpt lat="43.19129" lon="0.00471">
        <ele>365.8</ele>
        <time>2020-09-12T22:38:13Z</time>
      </trkpt>
      <trkpt lat="43.19125" lon="0.00471">
        <ele>365.9</ele>
        <time>2020-09-12T22:38:14Z</time>
      </trkpt>
      <trkpt lat="43.19121" lon="0.0047">
        <ele>366</ele>
        <time>2020-09-12T22:38:15Z</time>
      </trkpt>
      <trkpt lat="43.19117" lon="0.00469">
        <ele>366</ele>
        <time>2020-09-12T22:38:16Z</time>
      </trkpt>
      <trkpt lat="43.19112" lon="0.00468">
        <ele>366</ele>
        <time>2020-09-12T22:38:17Z</time>
      </trkpt>
      <trkpt lat="43.19109" lon="0.00467">
        <ele>366</ele>
        <time>2020-09-12T22:38:18Z</time>
      </trkpt>
      <trkpt lat="43.19105" lon="0.00467">
        <ele>365.9</ele>
        <time>2020-09-12T22:38:19Z</time>
      </trkpt>
      <trkpt lat="43.19102" lon="0.00465">
        <ele>365.9</ele>
        <time>2020-09-12T22:38:20Z</time>
      </trkpt>
      <trkpt lat="43.19098" lon="0.00464">
        <ele>366.5</ele>
        <time>2020-09-12T22:38:21Z</time>
      </trkpt>
      <trkpt lat="43.19095" lon="0.00463">
        <ele>366.7</ele>
        <time>2020-09-12T22:38:22Z</time>
      </trkpt>
      <trkpt lat="43.19092" lon="0.00463">
        <ele>366.8</ele>
        <time>2020-09-12T22:38:23Z</time>
      </trkpt>
      <trkpt lat="43.19091" lon="0.00467">
        <ele>367</ele>
        <time>2020-09-12T22:38:26Z</time>
      </trkpt>
      <trkpt lat="43.19093" lon="0.00471">
        <ele>367.1</ele>
        <time>2020-09-12T22:38:30Z</time>
      </trkpt>
      <trkpt lat="43.1909" lon="0.00474">
        <ele>367.3</ele>
        <time>2020-09-12T22:38:33Z</time>
      </trkpt>
      <trkpt lat="43.19086" lon="0.00474">
        <ele>367.6</ele>
        <time>2020-09-12T22:38:36Z</time>
      </trkpt>
      <trkpt lat="43.19082" lon="0.00474">
        <ele>368</ele>
        <time>2020-09-12T22:38:38Z</time>
      </trkpt>
      <trkpt lat="43.1908" lon="0.00475">
        <ele>368.3</ele>
        <time>2020-09-12T22:38:41Z</time>
      </trkpt>
      <trkpt lat="43.1908" lon="0.00479">
        <ele>368.6</ele>
        <time>2020-09-12T22:38:46Z</time>
      </trkpt>
      <trkpt lat="43.19083" lon="0.00481">
        <ele>368.9</ele>
        <time>2020-09-12T22:38:51Z</time>
      </trkpt>
      <trkpt lat="43.19085" lon="0.00484">
        <ele>369.2</ele>
        <time>2020-09-12T22:38:55Z</time>
      </trkpt>
      <trkpt lat="43.19083" lon="0.00486">
        <ele>369.5</ele>
        <time>2020-09-12T22:38:59Z</time>
      </trkpt>
      <trkpt lat="43.19081" lon="0.0049">
        <ele>369.9</ele>
        <time>2020-09-12T22:39:03Z</time>
      </trkpt>
      <trkpt lat="43.19081" lon="0.00494">
        <ele>370.2</ele>
        <time>2020-09-12T22:39:10Z</time>
      </trkpt>
      <trkpt lat="43.19084" lon="0.00497">
        <ele>370.6</ele>
        <time>2020-09-12T22:39:16Z</time>
      </trkpt>
      <trkpt lat="43.19082" lon="0.00501">
        <ele>371</ele>
        <time>2020-09-12T22:39:23Z</time>
      </trkpt>
      <trkpt lat="43.19079" lon="0.00503">
        <ele>371.6</ele>
        <time>2020-09-12T22:39:25Z</time>
      </trkpt>
      <trkpt lat="43.19076" lon="0.00505">
        <ele>372.2</ele>
        <time>2020-09-12T22:39:28Z</time>
      </trkpt>
      <trkpt lat="43.19073" lon="0.00505">
        <ele>372.7</ele>
        <time>2020-09-12T22:39:30Z</time>
      </trkpt>
      <trkpt lat="43.1907" lon="0.00507">
        <ele>373.1</ele>
        <time>2020-09-12T22:39:34Z</time>
      </trkpt>
      <trkpt lat="43.19073" lon="0.0051">
        <ele>373.6</ele>
        <time>2020-09-12T22:39:38Z</time>
      </trkpt>
      <trkpt lat="43.19073" lon="0.00515">
        <ele>374</ele>
        <time>2020-09-12T22:39:40Z</time>
      </trkpt>
      <trkpt lat="43.19073" lon="0.00519">
        <ele>374.4</ele>
        <time>2020-09-12T22:39:45Z</time>
      </trkpt>
      <trkpt lat="43.19076" lon="0.00521">
        <ele>374.7</ele>
        <time>2020-09-12T22:39:48Z</time>
      </trkpt>
      <trkpt lat="43.19079" lon="0.00524">
        <ele>375.2</ele>
        <time>2020-09-12T22:39:52Z</time>
      </trkpt>
      <trkpt lat="43.19081" lon="0.00526">
        <ele>375.5</ele>
        <time>2020-09-12T22:39:55Z</time>
      </trkpt>
      <trkpt lat="43.19084" lon="0.00528">
        <ele>375.9</ele>
        <time>2020-09-12T22:39:59Z</time>
      </trkpt>
      <trkpt lat="43.19086" lon="0.0053">
        <ele>376.3</ele>
        <time>2020-09-12T22:40:01Z</time>
      </trkpt>
      <trkpt lat="43.19087" lon="0.00534">
        <ele>376.8</ele>
        <time>2020-09-12T22:40:04Z</time>
      </trkpt>
      <trkpt lat="43.1909" lon="0.00537">
        <ele>377.2</ele>
        <time>2020-09-12T22:40:09Z</time>
      </trkpt>
      <trkpt lat="43.19092" lon="0.0054">
        <ele>377.6</ele>
        <time>2020-09-12T22:40:14Z</time>
      </trkpt>
      <trkpt lat="43.19094" lon="0.00544">
        <ele>378.1</ele>
        <time>2020-09-12T22:40:17Z</time>
      </trkpt>
      <trkpt lat="43.19094" lon="0.00549">
        <ele>378.6</ele>
        <time>2020-09-12T22:40:20Z</time>
      </trkpt>
      <trkpt lat="43.19095" lon="0.00556">
        <ele>379.2</ele>
        <time>2020-09-12T22:40:23Z</time>
      </trkpt>
      <trkpt lat="43.19096" lon="0.0056">
        <ele>380.2</ele>
        <time>2020-09-12T22:40:25Z</time>
      </trkpt>
      <trkpt lat="43.19099" lon="0.00562">
        <ele>380.2</ele>
        <time>2020-09-12T22:40:27Z</time>
      </trkpt>
      <trkpt lat="43.19101" lon="0.00568">
        <ele>380.3</ele>
        <time>2020-09-12T22:40:29Z</time>
      </trkpt>
      <trkpt lat="43.19101" lon="0.00575">
        <ele>380.4</ele>
        <time>2020-09-12T22:40:31Z</time>
      </trkpt>
      <trkpt lat="43.19102" lon="0.00581">
        <ele>380.5</ele>
        <time>2020-09-12T22:40:33Z</time>
      </trkpt>
      <trkpt lat="43.19103" lon="0.00584">
        <ele>380.6</ele>
        <time>2020-09-12T22:40:35Z</time>
      </trkpt>
      <trkpt lat="43.19105" lon="0.00589">
        <ele>380.6</ele>
        <time>2020-09-12T22:40:37Z</time>
      </trkpt>
      <trkpt lat="43.19108" lon="0.00596">
        <ele>380.7</ele>
        <time>2020-09-12T22:40:39Z</time>
      </trkpt>
      <trkpt lat="43.19109" lon="0.00599">
        <ele>380.7</ele>
        <time>2020-09-12T22:40:40Z</time>
      </trkpt>
      <trkpt lat="43.19111" lon="0.00602">
        <ele>380.7</ele>
        <time>2020-09-12T22:40:42Z</time>
      </trkpt>
      <trkpt lat="43.19113" lon="0.00606">
        <ele>380.7</ele>
        <time>2020-09-12T22:40:44Z</time>
      </trkpt>
      <trkpt lat="43.19111" lon="0.00613">
        <ele>380.7</ele>
        <time>2020-09-12T22:40:46Z</time>
      </trkpt>
      <trkpt lat="43.19107" lon="0.0062">
        <ele>380.6</ele>
        <time>2020-09-12T22:40:48Z</time>
      </trkpt>
      <trkpt lat="43.19106" lon="0.00624">
        <ele>380.5</ele>
        <time>2020-09-12T22:40:49Z</time>
      </trkpt>
      <trkpt lat="43.19103" lon="0.00629">
        <ele>380.4</ele>
        <time>2020-09-12T22:40:51Z</time>
      </trkpt>
      <trkpt lat="43.19102" lon="0.00633">
        <ele>379.9</ele>
        <time>2020-09-12T22:40:52Z</time>
      </trkpt>
      <trkpt lat="43.19101" lon="0.00636">
        <ele>379.4</ele>
        <time>2020-09-12T22:40:54Z</time>
      </trkpt>
      <trkpt lat="43.191" lon="0.0064">
        <ele>378.8</ele>
        <time>2020-09-12T22:40:56Z</time>
      </trkpt>
      <trkpt lat="43.19096" lon="0.00642">
        <ele>378.3</ele>
        <time>2020-09-12T22:40:57Z</time>
      </trkpt>
      <trkpt lat="43.19092" lon="0.00643">
        <ele>377.7</ele>
        <time>2020-09-12T22:40:58Z</time>
      </trkpt>
      <trkpt lat="43.1909" lon="0.00644">
        <ele>377.3</ele>
        <time>2020-09-12T22:40:59Z</time>
      </trkpt>
      <trkpt lat="43.19086" lon="0.00643">
        <ele>376.9</ele>
        <time>2020-09-12T22:41:00Z</time>
      </trkpt>
      <trkpt lat="43.19084" lon="0.00642">
        <ele>376.6</ele>
        <time>2020-09-12T22:41:01Z</time>
      </trkpt>
      <trkpt lat="43.19078" lon="0.00639">
        <ele>376.1</ele>
        <time>2020-09-12T22:41:03Z</time>
      </trkpt>
      <trkpt lat="43.19075" lon="0.0064">
        <ele>375.9</ele>
        <time>2020-09-12T22:41:04Z</time>
      </trkpt>
      <trkpt lat="43.19072" lon="0.0064">
        <ele>375.6</ele>
        <time>2020-09-12T22:41:05Z</time>
      </trkpt>
      <trkpt lat="43.19068" lon="0.0064">
        <ele>375.5</ele>
        <time>2020-09-12T22:41:06Z</time>
      </trkpt>
      <trkpt lat="43.19064" lon="0.0064">
        <ele>375.4</ele>
        <time>2020-09-12T22:41:07Z</time>
      </trkpt>
      <trkpt lat="43.1906" lon="0.00637">
        <ele>375.5</ele>
        <time>2020-09-12T22:41:09Z</time>
      </trkpt>
      <trkpt lat="43.19057" lon="0.00633">
        <ele>375.6</ele>
        <time>2020-09-12T22:41:11Z</time>
      </trkpt>
      <trkpt lat="43.19055" lon="0.00626">
        <ele>375.9</ele>
        <time>2020-09-12T22:41:13Z</time>
      </trkpt>
      <trkpt lat="43.19052" lon="0.00622">
        <ele>376.1</ele>
        <time>2020-09-12T22:41:15Z</time>
      </trkpt>
      <trkpt lat="43.19048" lon="0.00617">
        <ele>376.3</ele>
        <time>2020-09-12T22:41:17Z</time>
      </trkpt>
      <trkpt lat="43.19045" lon="0.00612">
        <ele>376.5</ele>
        <time>2020-09-12T22:41:19Z</time>
      </trkpt>
      <trkpt lat="43.19042" lon="0.00608">
        <ele>376.6</ele>
        <time>2020-09-12T22:41:21Z</time>
      </trkpt>
      <trkpt lat="43.1904" lon="0.00605">
        <ele>376.6</ele>
        <time>2020-09-12T22:41:22Z</time>
      </trkpt>
      <trkpt lat="43.19038" lon="0.00604">
        <ele>376.6</ele>
        <time>2020-09-12T22:41:23Z</time>
      </trkpt>
      <trkpt lat="43.19035" lon="0.00602">
        <ele>376.6</ele>
        <time>2020-09-12T22:41:24Z</time>
      </trkpt>
      <trkpt lat="43.19032" lon="0.00597">
        <ele>376.5</ele>
        <time>2020-09-12T22:41:25Z</time>
      </trkpt>
      <trkpt lat="43.19028" lon="0.00594">
        <ele>376.3</ele>
        <time>2020-09-12T22:41:26Z</time>
      </trkpt>
      <trkpt lat="43.19025" lon="0.00589">
        <ele>376.2</ele>
        <time>2020-09-12T22:41:27Z</time>
      </trkpt>
      <trkpt lat="43.19022" lon="0.00584">
        <ele>376</ele>
        <time>2020-09-12T22:41:28Z</time>
      </trkpt>
      <trkpt lat="43.1902" lon="0.00578">
        <ele>375.9</ele>
        <time>2020-09-12T22:41:29Z</time>
      </trkpt>
      <trkpt lat="43.19016" lon="0.00572">
        <ele>375.8</ele>
        <time>2020-09-12T22:41:30Z</time>
      </trkpt>
      <trkpt lat="43.19013" lon="0.00567">
        <ele>375.8</ele>
        <time>2020-09-12T22:41:31Z</time>
      </trkpt>
      <trkpt lat="43.19011" lon="0.00564">
        <ele>375.8</ele>
        <time>2020-09-12T22:41:32Z</time>
      </trkpt>
      <trkpt lat="43.19008" lon="0.00561">
        <ele>375.6</ele>
        <time>2020-09-12T22:41:33Z</time>
      </trkpt>
      <trkpt lat="43.19007" lon="0.00555">
        <ele>375.2</ele>
        <time>2020-09-12T22:41:35Z</time>
      </trkpt>
      <trkpt lat="43.19006" lon="0.00551">
        <ele>374.9</ele>
        <time>2020-09-12T22:41:37Z</time>
      </trkpt>
      <trkpt lat="43.19002" lon="0.00548">
        <ele>374.6</ele>
        <time>2020-09-12T22:41:39Z</time>
      </trkpt>
      <trkpt lat="43.18999" lon="0.00545">
        <ele>374.3</ele>
        <time>2020-09-12T22:41:40Z</time>
      </trkpt>
      <trkpt lat="43.18996" lon="0.00542">
        <ele>374</ele>
        <time>2020-09-12T22:41:41Z</time>
      </trkpt>
      <trkpt lat="43.18993" lon="0.0054">
        <ele>373.8</ele>
        <time>2020-09-12T22:41:42Z</time>
      </trkpt>
      <trkpt lat="43.18988" lon="0.00539">
        <ele>373.4</ele>
        <time>2020-09-12T22:41:44Z</time>
      </trkpt>
      <trkpt lat="43.18985" lon="0.00539">
        <ele>373.2</ele>
        <time>2020-09-12T22:41:45Z</time>
      </trkpt>
      <trkpt lat="43.18982" lon="0.00537">
        <ele>373.1</ele>
        <time>2020-09-12T22:41:46Z</time>
      </trkpt>
      <trkpt lat="43.18979" lon="0.00533">
        <ele>372.9</ele>
        <time>2020-09-12T22:41:48Z</time>
      </trkpt>
      <trkpt lat="43.18975" lon="0.00528">
        <ele>372.6</ele>
        <time>2020-09-12T22:41:50Z</time>
      </trkpt>
      <trkpt lat="43.18972" lon="0.00523">
        <ele>372.4</ele>
        <time>2020-09-12T22:41:52Z</time>
      </trkpt>
      <trkpt lat="43.1897" lon="0.00518">
        <ele>372.3</ele>
        <time>2020-09-12T22:41:54Z</time>
      </trkpt>
      <trkpt lat="43.18967" lon="0.00513">
        <ele>372.1</ele>
        <time>2020-09-12T22:41:56Z</time>
      </trkpt>
      <trkpt lat="43.18965" lon="0.00509">
        <ele>372</ele>
        <time>2020-09-12T22:41:58Z</time>
      </trkpt>
      <trkpt lat="43.18962" lon="0.00503">
        <ele>371.9</ele>
        <time>2020-09-12T22:42:00Z</time>
      </trkpt>
      <trkpt lat="43.1896" lon="0.00499">
        <ele>371.9</ele>
        <time>2020-09-12T22:42:01Z</time>
      </trkpt>
      <trkpt lat="43.18957" lon="0.00497">
        <ele>371.8</ele>
        <time>2020-09-12T22:42:03Z</time>
      </trkpt>
      <trkpt lat="43.18954" lon="0.00498">
        <ele>371.8</ele>
        <time>2020-09-12T22:42:06Z</time>
      </trkpt>
      <trkpt lat="43.18954" lon="0.00503">
        <ele>371.7</ele>
        <time>2020-09-12T22:42:09Z</time>
      </trkpt>
      <trkpt lat="43.18955" lon="0.00508">
        <ele>371.7</ele>
        <time>2020-09-12T22:42:11Z</time>
      </trkpt>
      <trkpt lat="43.18956" lon="0.00514">
        <ele>371.6</ele>
        <time>2020-09-12T22:42:13Z</time>
      </trkpt>
      <trkpt lat="43.18956" lon="0.00518">
        <ele>371.6</ele>
        <time>2020-09-12T22:42:14Z</time>
      </trkpt>
      <trkpt lat="43.18955" lon="0.00525">
        <ele>371.5</ele>
        <time>2020-09-12T22:42:16Z</time>
      </trkpt>
      <trkpt lat="43.18954" lon="0.00529">
        <ele>371.4</ele>
        <time>2020-09-12T22:42:17Z</time>
      </trkpt>
      <trkpt lat="43.18953" lon="0.00533">
        <ele>371.3</ele>
        <time>2020-09-12T22:42:18Z</time>
      </trkpt>
      <trkpt lat="43.18948" lon="0.00535">
        <ele>371.1</ele>
        <time>2020-09-12T22:42:20Z</time>
      </trkpt>
      <trkpt lat="43.18945" lon="0.00537">
        <ele>370.9</ele>
        <time>2020-09-12T22:42:22Z</time>
      </trkpt>
      <trkpt lat="43.1894" lon="0.00537">
        <ele>370.7</ele>
        <time>2020-09-12T22:42:24Z</time>
      </trkpt>
      <trkpt lat="43.18936" lon="0.00537">
        <ele>369.2</ele>
        <time>2020-09-12T22:42:26Z</time>
      </trkpt>
      <trkpt lat="43.18931" lon="0.00537">
        <ele>369.4</ele>
        <time>2020-09-12T22:42:28Z</time>
      </trkpt>
      <trkpt lat="43.18928" lon="0.00537">
        <ele>369.6</ele>
        <time>2020-09-12T22:42:29Z</time>
      </trkpt>
      <trkpt lat="43.18924" lon="0.00536">
        <ele>369.7</ele>
        <time>2020-09-12T22:42:31Z</time>
      </trkpt>
      <trkpt lat="43.18921" lon="0.00534">
        <ele>369.9</ele>
        <time>2020-09-12T22:42:33Z</time>
      </trkpt>
      <trkpt lat="43.18918" lon="0.00534">
        <ele>370</ele>
        <time>2020-09-12T22:42:35Z</time>
      </trkpt>
      <trkpt lat="43.18913" lon="0.00532">
        <ele>370.1</ele>
        <time>2020-09-12T22:42:37Z</time>
      </trkpt>
      <trkpt lat="43.18909" lon="0.00533">
        <ele>370.2</ele>
        <time>2020-09-12T22:42:39Z</time>
      </trkpt>
      <trkpt lat="43.18905" lon="0.00534">
        <ele>370.3</ele>
        <time>2020-09-12T22:42:41Z</time>
      </trkpt>
      <trkpt lat="43.18902" lon="0.00533">
        <ele>370.3</ele>
        <time>2020-09-12T22:42:42Z</time>
      </trkpt>
      <trkpt lat="43.18899" lon="0.00532">
        <ele>370.3</ele>
        <time>2020-09-12T22:42:43Z</time>
      </trkpt>
      <trkpt lat="43.18896" lon="0.00531">
        <ele>370.3</ele>
        <time>2020-09-12T22:42:44Z</time>
      </trkpt>
      <trkpt lat="43.18892" lon="0.00531">
        <ele>370.3</ele>
        <time>2020-09-12T22:42:46Z</time>
      </trkpt>
      <trkpt lat="43.18887" lon="0.0053">
        <ele>370.2</ele>
        <time>2020-09-12T22:42:48Z</time>
      </trkpt>
      <trkpt lat="43.18883" lon="0.00528">
        <ele>370</ele>
        <time>2020-09-12T22:42:50Z</time>
      </trkpt>
      <trkpt lat="43.1888" lon="0.00526">
        <ele>369.9</ele>
        <time>2020-09-12T22:42:51Z</time>
      </trkpt>
      <trkpt lat="43.18875" lon="0.00525">
        <ele>369.7</ele>
        <time>2020-09-12T22:42:53Z</time>
      </trkpt>
      <trkpt lat="43.1887" lon="0.00523">
        <ele>369.4</ele>
        <time>2020-09-12T22:42:55Z</time>
      </trkpt>
      <trkpt lat="43.18865" lon="0.00519">
        <ele>369.1</ele>
        <time>2020-09-12T22:42:57Z</time>
      </trkpt>
      <trkpt lat="43.18862" lon="0.00518">
        <ele>368.9</ele>
        <time>2020-09-12T22:42:58Z</time>
      </trkpt>
      <trkpt lat="43.18858" lon="0.00518">
        <ele>368.7</ele>
        <time>2020-09-12T22:42:59Z</time>
      </trkpt>
      <trkpt lat="43.18852" lon="0.00516">
        <ele>368.4</ele>
        <time>2020-09-12T22:43:00Z</time>
      </trkpt>
      <trkpt lat="43.18847" lon="0.00513">
        <ele>368</ele>
        <time>2020-09-12T22:43:01Z</time>
      </trkpt>
      <trkpt lat="43.18843" lon="0.00512">
        <ele>367.7</ele>
        <time>2020-09-12T22:43:02Z</time>
      </trkpt>
      <trkpt lat="43.1884" lon="0.0051">
        <ele>367.4</ele>
        <time>2020-09-12T22:43:03Z</time>
      </trkpt>
      <trkpt lat="43.18836" lon="0.00508">
        <ele>367.1</ele>
        <time>2020-09-12T22:43:04Z</time>
      </trkpt>
      <trkpt lat="43.18832" lon="0.00507">
        <ele>366.8</ele>
        <time>2020-09-12T22:43:05Z</time>
      </trkpt>
      <trkpt lat="43.18829" lon="0.00508">
        <ele>366.5</ele>
        <time>2020-09-12T22:43:06Z</time>
      </trkpt>
      <trkpt lat="43.18825" lon="0.00509">
        <ele>366.2</ele>
        <time>2020-09-12T22:43:07Z</time>
      </trkpt>
      <trkpt lat="43.18821" lon="0.0051">
        <ele>365.8</ele>
        <time>2020-09-12T22:43:08Z</time>
      </trkpt>
      <trkpt lat="43.18817" lon="0.00511">
        <ele>365.5</ele>
        <time>2020-09-12T22:43:09Z</time>
      </trkpt>
      <trkpt lat="43.18811" lon="0.00513">
        <ele>365</ele>
        <time>2020-09-12T22:43:10Z</time>
      </trkpt>
      <trkpt lat="43.18806" lon="0.00516">
        <ele>364.7</ele>
        <time>2020-09-12T22:43:11Z</time>
      </trkpt>
      <trkpt lat="43.18803" lon="0.0052">
        <ele>364.4</ele>
        <time>2020-09-12T22:43:12Z</time>
      </trkpt>
      <trkpt lat="43.18802" lon="0.00526">
        <ele>364.2</ele>
        <time>2020-09-12T22:43:13Z</time>
      </trkpt>
      <trkpt lat="43.18801" lon="0.00531">
        <ele>364</ele>
        <time>2020-09-12T22:43:14Z</time>
      </trkpt>
      <trkpt lat="43.188" lon="0.00537">
        <ele>363.8</ele>
        <time>2020-09-12T22:43:15Z</time>
      </trkpt>
      <trkpt lat="43.18798" lon="0.00544">
        <ele>363.6</ele>
        <time>2020-09-12T22:43:16Z</time>
      </trkpt>
      <trkpt lat="43.18795" lon="0.0055">
        <ele>363.4</ele>
        <time>2020-09-12T22:43:17Z</time>
      </trkpt>
      <trkpt lat="43.18793" lon="0.00556">
        <ele>363.3</ele>
        <time>2020-09-12T22:43:18Z</time>
      </trkpt>
      <trkpt lat="43.1879" lon="0.00562">
        <ele>363.2</ele>
        <time>2020-09-12T22:43:19Z</time>
      </trkpt>
      <trkpt lat="43.18788" lon="0.00568">
        <ele>363.1</ele>
        <time>2020-09-12T22:43:20Z</time>
      </trkpt>
      <trkpt lat="43.18785" lon="0.00573">
        <ele>362.8</ele>
        <time>2020-09-12T22:43:21Z</time>
      </trkpt>
      <trkpt lat="43.18781" lon="0.00577">
        <ele>362.6</ele>
        <time>2020-09-12T22:43:22Z</time>
      </trkpt>
      <trkpt lat="43.18777" lon="0.00579">
        <ele>362.5</ele>
        <time>2020-09-12T22:43:23Z</time>
      </trkpt>
      <trkpt lat="43.18772" lon="0.00579">
        <ele>362.3</ele>
        <time>2020-09-12T22:43:24Z</time>
      </trkpt>
      <trkpt lat="43.18768" lon="0.00579">
        <ele>362.1</ele>
        <time>2020-09-12T22:43:25Z</time>
      </trkpt>
      <trkpt lat="43.18764" lon="0.00578">
        <ele>361.7</ele>
        <time>2020-09-12T22:43:26Z</time>
      </trkpt>
      <trkpt lat="43.1876" lon="0.00577">
        <ele>361.5</ele>
        <time>2020-09-12T22:43:27Z</time>
      </trkpt>
      <trkpt lat="43.18756" lon="0.00576">
        <ele>361.4</ele>
        <time>2020-09-12T22:43:28Z</time>
      </trkpt>
      <trkpt lat="43.18752" lon="0.00575">
        <ele>361.3</ele>
        <time>2020-09-12T22:43:29Z</time>
      </trkpt>
      <trkpt lat="43.18749" lon="0.00574">
        <ele>361.1</ele>
        <time>2020-09-12T22:43:30Z</time>
      </trkpt>
      <trkpt lat="43.18745" lon="0.00572">
        <ele>361</ele>
        <time>2020-09-12T22:43:31Z</time>
      </trkpt>
      <trkpt lat="43.18741" lon="0.00571">
        <ele>360.8</ele>
        <time>2020-09-12T22:43:32Z</time>
      </trkpt>
      <trkpt lat="43.18737" lon="0.0057">
        <ele>360.7</ele>
        <time>2020-09-12T22:43:33Z</time>
      </trkpt>
      <trkpt lat="43.18734" lon="0.00568">
        <ele>360.5</ele>
        <time>2020-09-12T22:43:34Z</time>
      </trkpt>
      <trkpt lat="43.1873" lon="0.00566">
        <ele>360.4</ele>
        <time>2020-09-12T22:43:35Z</time>
      </trkpt>
      <trkpt lat="43.18726" lon="0.00565">
        <ele>360.5</ele>
        <time>2020-09-12T22:43:36Z</time>
      </trkpt>
      <trkpt lat="43.18723" lon="0.00563">
        <ele>360.6</ele>
        <time>2020-09-12T22:43:37Z</time>
      </trkpt>
      <trkpt lat="43.18719" lon="0.00562">
        <ele>360.6</ele>
        <time>2020-09-12T22:43:38Z</time>
      </trkpt>
      <trkpt lat="43.18716" lon="0.00561">
        <ele>360.7</ele>
        <time>2020-09-12T22:43:39Z</time>
      </trkpt>
      <trkpt lat="43.18713" lon="0.0056">
        <ele>360.8</ele>
        <time>2020-09-12T22:43:40Z</time>
      </trkpt>
      <trkpt lat="43.1871" lon="0.0056">
        <ele>360.9</ele>
        <time>2020-09-12T22:43:41Z</time>
      </trkpt>
      <trkpt lat="43.18707" lon="0.00559">
        <ele>361</ele>
        <time>2020-09-12T22:43:42Z</time>
      </trkpt>
      <trkpt lat="43.18704" lon="0.00558">
        <ele>361</ele>
        <time>2020-09-12T22:43:43Z</time>
      </trkpt>
      <trkpt lat="43.18701" lon="0.00557">
        <ele>361.1</ele>
        <time>2020-09-12T22:43:44Z</time>
      </trkpt>
      <trkpt lat="43.18696" lon="0.00559">
        <ele>361.2</ele>
        <time>2020-09-12T22:43:46Z</time>
      </trkpt>
      <trkpt lat="43.18694" lon="0.00562">
        <ele>361.3</ele>
        <time>2020-09-12T22:43:47Z</time>
      </trkpt>
      <trkpt lat="43.18692" lon="0.00566">
        <ele>361.4</ele>
        <time>2020-09-12T22:43:48Z</time>
      </trkpt>
      <trkpt lat="43.1869" lon="0.00571">
        <ele>361.7</ele>
        <time>2020-09-12T22:43:49Z</time>
      </trkpt>
      <trkpt lat="43.18689" lon="0.00576">
        <ele>361.7</ele>
        <time>2020-09-12T22:43:50Z</time>
      </trkpt>
      <trkpt lat="43.18687" lon="0.00581">
        <ele>361.8</ele>
        <time>2020-09-12T22:43:51Z</time>
      </trkpt>
      <trkpt lat="43.18686" lon="0.00587">
        <ele>361.8</ele>
        <time>2020-09-12T22:43:52Z</time>
      </trkpt>
      <trkpt lat="43.18685" lon="0.00591">
        <ele>361.8</ele>
        <time>2020-09-12T22:43:53Z</time>
      </trkpt>
      <trkpt lat="43.18684" lon="0.00597">
        <ele>361.9</ele>
        <time>2020-09-12T22:43:54Z</time>
      </trkpt>
      <trkpt lat="43.18683" lon="0.00602">
        <ele>361.9</ele>
        <time>2020-09-12T22:43:55Z</time>
      </trkpt>
      <trkpt lat="43.18682" lon="0.00608">
        <ele>361.9</ele>
        <time>2020-09-12T22:43:56Z</time>
      </trkpt>
      <trkpt lat="43.18681" lon="0.00613">
        <ele>361.9</ele>
        <time>2020-09-12T22:43:57Z</time>
      </trkpt>
      <trkpt lat="43.1868" lon="0.00619">
        <ele>361.9</ele>
        <time>2020-09-12T22:43:58Z</time>
      </trkpt>
      <trkpt lat="43.18679" lon="0.00624">
        <ele>361.9</ele>
        <time>2020-09-12T22:43:59Z</time>
      </trkpt>
      <trkpt lat="43.18678" lon="0.0063">
        <ele>361.9</ele>
        <time>2020-09-12T22:44:00Z</time>
      </trkpt>
      <trkpt lat="43.18677" lon="0.00636">
        <ele>361.9</ele>
        <time>2020-09-12T22:44:01Z</time>
      </trkpt>
      <trkpt lat="43.18676" lon="0.00641">
        <ele>361.9</ele>
        <time>2020-09-12T22:44:02Z</time>
      </trkpt>
      <trkpt lat="43.18675" lon="0.00647">
        <ele>361.9</ele>
        <time>2020-09-12T22:44:03Z</time>
      </trkpt>
      <trkpt lat="43.18673" lon="0.00653">
        <ele>361.9</ele>
        <time>2020-09-12T22:44:04Z</time>
      </trkpt>
      <trkpt lat="43.18673" lon="0.0066">
        <ele>361.9</ele>
        <time>2020-09-12T22:44:05Z</time>
      </trkpt>
      <trkpt lat="43.18672" lon="0.00666">
        <ele>361.9</ele>
        <time>2020-09-12T22:44:06Z</time>
      </trkpt>
      <trkpt lat="43.18671" lon="0.00672">
        <ele>361.9</ele>
        <time>2020-09-12T22:44:07Z</time>
      </trkpt>
      <trkpt lat="43.18669" lon="0.00678">
        <ele>361.9</ele>
        <time>2020-09-12T22:44:08Z</time>
      </trkpt>
      <trkpt lat="43.18668" lon="0.00684">
        <ele>361.9</ele>
        <time>2020-09-12T22:44:09Z</time>
      </trkpt>
      <trkpt lat="43.18667" lon="0.0069">
        <ele>361.9</ele>
        <time>2020-09-12T22:44:10Z</time>
      </trkpt>
      <trkpt lat="43.18666" lon="0.00697">
        <ele>361.9</ele>
        <time>2020-09-12T22:44:11Z</time>
      </trkpt>
      <trkpt lat="43.18665" lon="0.00703">
        <ele>361.8</ele>
        <time>2020-09-12T22:44:12Z</time>
      </trkpt>
      <trkpt lat="43.18664" lon="0.00709">
        <ele>361.8</ele>
        <time>2020-09-12T22:44:13Z</time>
      </trkpt>
      <trkpt lat="43.18663" lon="0.00715">
        <ele>362</ele>
        <time>2020-09-12T22:44:14Z</time>
      </trkpt>
      <trkpt lat="43.18662" lon="0.00721">
        <ele>362</ele>
        <time>2020-09-12T22:44:15Z</time>
      </trkpt>
      <trkpt lat="43.18661" lon="0.00728">
        <ele>362.1</ele>
        <time>2020-09-12T22:44:16Z</time>
      </trkpt>
      <trkpt lat="43.1866" lon="0.00734">
        <ele>362.2</ele>
        <time>2020-09-12T22:44:17Z</time>
      </trkpt>
      <trkpt lat="43.18659" lon="0.00741">
        <ele>362.2</ele>
        <time>2020-09-12T22:44:18Z</time>
      </trkpt>
      <trkpt lat="43.18658" lon="0.00748">
        <ele>362.2</ele>
        <time>2020-09-12T22:44:19Z</time>
      </trkpt>
      <trkpt lat="43.18657" lon="0.00754">
        <ele>362.3</ele>
        <time>2020-09-12T22:44:20Z</time>
      </trkpt>
      <trkpt lat="43.18656" lon="0.00761">
        <ele>362.3</ele>
        <time>2020-09-12T22:44:21Z</time>
      </trkpt>
      <trkpt lat="43.18655" lon="0.00767">
        <ele>362.3</ele>
        <time>2020-09-12T22:44:22Z</time>
      </trkpt>
      <trkpt lat="43.18653" lon="0.00774">
        <ele>362.2</ele>
        <time>2020-09-12T22:44:23Z</time>
      </trkpt>
      <trkpt lat="43.18652" lon="0.0078">
        <ele>362.2</ele>
        <time>2020-09-12T22:44:24Z</time>
      </trkpt>
      <trkpt lat="43.18651" lon="0.00787">
        <ele>362.2</ele>
        <time>2020-09-12T22:44:25Z</time>
      </trkpt>
      <trkpt lat="43.1865" lon="0.00794">
        <ele>362.2</ele>
        <time>2020-09-12T22:44:26Z</time>
      </trkpt>
      <trkpt lat="43.18648" lon="0.008">
        <ele>362.2</ele>
        <time>2020-09-12T22:44:27Z</time>
      </trkpt>
      <trkpt lat="43.18647" lon="0.00806">
        <ele>362.1</ele>
        <time>2020-09-12T22:44:28Z</time>
      </trkpt>
      <trkpt lat="43.18645" lon="0.00813">
        <ele>362.1</ele>
        <time>2020-09-12T22:44:29Z</time>
      </trkpt>
      <trkpt lat="43.18643" lon="0.00819">
        <ele>362.1</ele>
        <time>2020-09-12T22:44:30Z</time>
      </trkpt>
      <trkpt lat="43.18641" lon="0.00826">
        <ele>362.1</ele>
        <time>2020-09-12T22:44:31Z</time>
      </trkpt>
      <trkpt lat="43.18639" lon="0.00833">
        <ele>362.1</ele>
        <time>2020-09-12T22:44:32Z</time>
      </trkpt>
      <trkpt lat="43.18637" lon="0.00839">
        <ele>362.1</ele>
        <time>2020-09-12T22:44:33Z</time>
      </trkpt>
      <trkpt lat="43.18634" lon="0.00846">
        <ele>362.1</ele>
        <time>2020-09-12T22:44:34Z</time>
      </trkpt>
      <trkpt lat="43.18631" lon="0.00852">
        <ele>362.1</ele>
        <time>2020-09-12T22:44:35Z</time>
      </trkpt>
      <trkpt lat="43.18629" lon="0.00858">
        <ele>362.1</ele>
        <time>2020-09-12T22:44:36Z</time>
      </trkpt>
      <trkpt lat="43.18626" lon="0.00864">
        <ele>362.1</ele>
        <time>2020-09-12T22:44:37Z</time>
      </trkpt>
      <trkpt lat="43.18623" lon="0.00871">
        <ele>361.6</ele>
        <time>2020-09-12T22:44:38Z</time>
      </trkpt>
      <trkpt lat="43.1862" lon="0.00877">
        <ele>361.3</ele>
        <time>2020-09-12T22:44:39Z</time>
      </trkpt>
      <trkpt lat="43.18617" lon="0.00883">
        <ele>361.1</ele>
        <time>2020-09-12T22:44:40Z</time>
      </trkpt>
      <trkpt lat="43.18614" lon="0.00889">
        <ele>360.9</ele>
        <time>2020-09-12T22:44:41Z</time>
      </trkpt>
      <trkpt lat="43.18611" lon="0.00896">
        <ele>360.7</ele>
        <time>2020-09-12T22:44:42Z</time>
      </trkpt>
      <trkpt lat="43.18608" lon="0.00902">
        <ele>360.6</ele>
        <time>2020-09-12T22:44:43Z</time>
      </trkpt>
      <trkpt lat="43.18604" lon="0.00907">
        <ele>360.4</ele>
        <time>2020-09-12T22:44:44Z</time>
      </trkpt>
      <trkpt lat="43.18601" lon="0.00913">
        <ele>360.2</ele>
        <time>2020-09-12T22:44:45Z</time>
      </trkpt>
      <trkpt lat="43.18598" lon="0.00918">
        <ele>359.9</ele>
        <time>2020-09-12T22:44:46Z</time>
      </trkpt>
      <trkpt lat="43.18594" lon="0.00924">
        <ele>359.7</ele>
        <time>2020-09-12T22:44:47Z</time>
      </trkpt>
      <trkpt lat="43.18591" lon="0.00929">
        <ele>359.3</ele>
        <time>2020-09-12T22:44:48Z</time>
      </trkpt>
      <trkpt lat="43.18587" lon="0.00934">
        <ele>358.7</ele>
        <time>2020-09-12T22:44:49Z</time>
      </trkpt>
      <trkpt lat="43.18584" lon="0.00939">
        <ele>358.6</ele>
        <time>2020-09-12T22:44:50Z</time>
      </trkpt>
      <trkpt lat="43.1858" lon="0.00944">
        <ele>358.5</ele>
        <time>2020-09-12T22:44:51Z</time>
      </trkpt>
      <trkpt lat="43.18576" lon="0.00949">
        <ele>358.4</ele>
        <time>2020-09-12T22:44:52Z</time>
      </trkpt>
      <trkpt lat="43.18573" lon="0.00955">
        <ele>358.3</ele>
        <time>2020-09-12T22:44:53Z</time>
      </trkpt>
      <trkpt lat="43.18572" lon="0.00961">
        <ele>358.1</ele>
        <time>2020-09-12T22:44:54Z</time>
      </trkpt>
      <trkpt lat="43.18572" lon="0.00968">
        <ele>358</ele>
        <time>2020-09-12T22:44:55Z</time>
      </trkpt>
      <trkpt lat="43.18574" lon="0.00974">
        <ele>357.4</ele>
        <time>2020-09-12T22:44:56Z</time>
      </trkpt>
      <trkpt lat="43.18578" lon="0.0098">
        <ele>357.3</ele>
        <time>2020-09-12T22:44:57Z</time>
      </trkpt>
      <trkpt lat="43.18582" lon="0.00985">
        <ele>357.2</ele>
        <time>2020-09-12T22:44:58Z</time>
      </trkpt>
      <trkpt lat="43.18586" lon="0.0099">
        <ele>357.1</ele>
        <time>2020-09-12T22:44:59Z</time>
      </trkpt>
      <trkpt lat="43.1859" lon="0.00995">
        <ele>357.1</ele>
        <time>2020-09-12T22:45:00Z</time>
      </trkpt>
      <trkpt lat="43.18595" lon="0.01001">
        <ele>357</ele>
        <time>2020-09-12T22:45:01Z</time>
      </trkpt>
      <trkpt lat="43.18599" lon="0.01007">
        <ele>357</ele>
        <time>2020-09-12T22:45:02Z</time>
      </trkpt>
      <trkpt lat="43.18604" lon="0.01013">
        <ele>356.9</ele>
        <time>2020-09-12T22:45:03Z</time>
      </trkpt>
      <trkpt lat="43.18608" lon="0.01019">
        <ele>356.9</ele>
        <time>2020-09-12T22:45:04Z</time>
      </trkpt>
      <trkpt lat="43.18612" lon="0.01024">
        <ele>357</ele>
        <time>2020-09-12T22:45:05Z</time>
      </trkpt>
      <trkpt lat="43.18617" lon="0.01028">
        <ele>357.1</ele>
        <time>2020-09-12T22:45:06Z</time>
      </trkpt>
      <trkpt lat="43.1862" lon="0.01031">
        <ele>357.2</ele>
        <time>2020-09-12T22:45:07Z</time>
      </trkpt>
      <trkpt lat="43.18623" lon="0.01028">
        <ele>357.2</ele>
        <time>2020-09-12T22:45:09Z</time>
      </trkpt>
      <trkpt lat="43.18625" lon="0.01025">
        <ele>357.3</ele>
        <time>2020-09-12T22:45:10Z</time>
      </trkpt>
      <trkpt lat="43.18627" lon="0.01021">
        <ele>357.3</ele>
        <time>2020-09-12T22:45:11Z</time>
      </trkpt>
      <trkpt lat="43.18631" lon="0.01016">
        <ele>357.4</ele>
        <time>2020-09-12T22:45:12Z</time>
      </trkpt>
      <trkpt lat="43.18635" lon="0.01013">
        <ele>357.5</ele>
        <time>2020-09-12T22:45:13Z</time>
      </trkpt>
      <trkpt lat="43.1864" lon="0.01011">
        <ele>357.5</ele>
        <time>2020-09-12T22:45:14Z</time>
      </trkpt>
      <trkpt lat="43.18645" lon="0.01009">
        <ele>357.3</ele>
        <time>2020-09-12T22:45:15Z</time>
      </trkpt>
      <trkpt lat="43.18651" lon="0.01008">
        <ele>357.2</ele>
        <time>2020-09-12T22:45:16Z</time>
      </trkpt>
      <trkpt lat="43.18655" lon="0.01006">
        <ele>357.2</ele>
        <time>2020-09-12T22:45:17Z</time>
      </trkpt>
      <trkpt lat="43.18658" lon="0.01003">
        <ele>357.1</ele>
        <time>2020-09-12T22:45:18Z</time>
      </trkpt>
      <trkpt lat="43.1866" lon="0.00999">
        <ele>357.1</ele>
        <time>2020-09-12T22:45:20Z</time>
      </trkpt>
      <trkpt lat="43.1866" lon="0.00995">
        <ele>357.1</ele>
        <time>2020-09-12T22:45:22Z</time>
      </trkpt>
      <trkpt lat="43.18661" lon="0.00992">
        <ele>357.2</ele>
        <time>2020-09-12T22:45:24Z</time>
      </trkpt>
      <trkpt lat="43.18664" lon="0.00993">
        <ele>357.2</ele>
        <time>2020-09-12T22:45:26Z</time>
      </trkpt>
      <trkpt lat="43.18668" lon="0.00997">
        <ele>357.2</ele>
        <time>2020-09-12T22:45:28Z</time>
      </trkpt>
      <trkpt lat="43.18671" lon="0.01002">
        <ele>357.2</ele>
        <time>2020-09-12T22:45:30Z</time>
      </trkpt>
      <trkpt lat="43.18673" lon="0.01004">
        <ele>357.3</ele>
        <time>2020-09-12T22:45:31Z</time>
      </trkpt>
      <trkpt lat="43.18675" lon="0.01007">
        <ele>357.3</ele>
        <time>2020-09-12T22:45:32Z</time>
      </trkpt>
      <trkpt lat="43.18679" lon="0.01011">
        <ele>357.4</ele>
        <time>2020-09-12T22:45:34Z</time>
      </trkpt>
      <trkpt lat="43.18683" lon="0.01016">
        <ele>357.4</ele>
        <time>2020-09-12T22:45:36Z</time>
      </trkpt>
      <trkpt lat="43.18685" lon="0.01018">
        <ele>357.4</ele>
        <time>2020-09-12T22:45:37Z</time>
      </trkpt>
      <trkpt lat="43.18687" lon="0.01021">
        <ele>357.5</ele>
        <time>2020-09-12T22:45:38Z</time>
      </trkpt>
      <trkpt lat="43.1869" lon="0.01023">
        <ele>357.5</ele>
        <time>2020-09-12T22:45:39Z</time>
      </trkpt>
      <trkpt lat="43.18692" lon="0.01026">
        <ele>357.5</ele>
        <time>2020-09-12T22:45:40Z</time>
      </trkpt>
      <trkpt lat="43.18697" lon="0.0103">
        <ele>357.6</ele>
        <time>2020-09-12T22:45:42Z</time>
      </trkpt>
      <trkpt lat="43.18701" lon="0.01036">
        <ele>357.6</ele>
        <time>2020-09-12T22:45:44Z</time>
      </trkpt>
      <trkpt lat="43.18703" lon="0.01033">
        <ele>357.6</ele>
        <time>2020-09-12T22:45:46Z</time>
      </trkpt>
      <trkpt lat="43.18704" lon="0.01029">
        <ele>357.6</ele>
        <time>2020-09-12T22:45:48Z</time>
      </trkpt>
      <trkpt lat="43.18706" lon="0.01022">
        <ele>357.6</ele>
        <time>2020-09-12T22:45:50Z</time>
      </trkpt>
      <trkpt lat="43.18708" lon="0.01018">
        <ele>357.6</ele>
        <time>2020-09-12T22:45:52Z</time>
      </trkpt>
      <trkpt lat="43.18709" lon="0.01012">
        <ele>357.7</ele>
        <time>2020-09-12T22:45:55Z</time>
      </trkpt>
      <trkpt lat="43.18711" lon="0.01008">
        <ele>357.7</ele>
        <time>2020-09-12T22:45:57Z</time>
      </trkpt>
      <trkpt lat="43.18713" lon="0.01003">
        <ele>357.7</ele>
        <time>2020-09-12T22:45:59Z</time>
      </trkpt>
      <trkpt lat="43.18716" lon="0.00998">
        <ele>357.7</ele>
        <time>2020-09-12T22:46:01Z</time>
      </trkpt>
      <trkpt lat="43.1872" lon="0.00993">
        <ele>357.8</ele>
        <time>2020-09-12T22:46:03Z</time>
      </trkpt>
      <trkpt lat="43.18723" lon="0.0099">
        <ele>357.8</ele>
        <time>2020-09-12T22:46:04Z</time>
      </trkpt>
      <trkpt lat="43.18726" lon="0.00987">
        <ele>357.8</ele>
        <time>2020-09-12T22:46:05Z</time>
      </trkpt>
      <trkpt lat="43.18729" lon="0.00985">
        <ele>357.8</ele>
        <time>2020-09-12T22:46:06Z</time>
      </trkpt>
      <trkpt lat="43.18733" lon="0.00984">
        <ele>357.8</ele>
        <time>2020-09-12T22:46:07Z</time>
      </trkpt>
      <trkpt lat="43.18736" lon="0.00984">
        <ele>357.8</ele>
        <time>2020-09-12T22:46:08Z</time>
      </trkpt>
      <trkpt lat="43.18739" lon="0.00985">
        <ele>357.8</ele>
        <time>2020-09-12T22:46:09Z</time>
      </trkpt>
      <trkpt lat="43.18742" lon="0.00987">
        <ele>357.9</ele>
        <time>2020-09-12T22:46:10Z</time>
      </trkpt>
      <trkpt lat="43.18746" lon="0.00989">
        <ele>357.6</ele>
        <time>2020-09-12T22:46:11Z</time>
      </trkpt>
      <trkpt lat="43.18748" lon="0.00993">
        <ele>357.4</ele>
        <time>2020-09-12T22:46:12Z</time>
      </trkpt>
      <trkpt lat="43.1875" lon="0.00998">
        <ele>357.3</ele>
        <time>2020-09-12T22:46:13Z</time>
      </trkpt>
      <trkpt lat="43.18752" lon="0.01002">
        <ele>357.1</ele>
        <time>2020-09-12T22:46:14Z</time>
      </trkpt>
      <trkpt lat="43.18755" lon="0.01007">
        <ele>356.9</ele>
        <time>2020-09-12T22:46:15Z</time>
      </trkpt>
      <trkpt lat="43.18758" lon="0.01011">
        <ele>356.8</ele>
        <time>2020-09-12T22:46:16Z</time>
      </trkpt>
      <trkpt lat="43.1876" lon="0.01016">
        <ele>356.6</ele>
        <time>2020-09-12T22:46:17Z</time>
      </trkpt>
      <trkpt lat="43.18763" lon="0.0102">
        <ele>356.5</ele>
        <time>2020-09-12T22:46:18Z</time>
      </trkpt>
      <trkpt lat="43.18765" lon="0.01024">
        <ele>356.4</ele>
        <time>2020-09-12T22:46:19Z</time>
      </trkpt>
      <trkpt lat="43.18767" lon="0.01029">
        <ele>356.2</ele>
        <time>2020-09-12T22:46:20Z</time>
      </trkpt>
      <trkpt lat="43.1877" lon="0.01033">
        <ele>356.1</ele>
        <time>2020-09-12T22:46:21Z</time>
      </trkpt>
      <trkpt lat="43.18772" lon="0.01038">
        <ele>356</ele>
        <time>2020-09-12T22:46:22Z</time>
      </trkpt>
      <trkpt lat="43.18774" lon="0.01043">
        <ele>355.9</ele>
        <time>2020-09-12T22:46:23Z</time>
      </trkpt>
      <trkpt lat="43.18777" lon="0.01047">
        <ele>355.8</ele>
        <time>2020-09-12T22:46:24Z</time>
      </trkpt>
      <trkpt lat="43.18779" lon="0.01052">
        <ele>355.7</ele>
        <time>2020-09-12T22:46:25Z</time>
      </trkpt>
      <trkpt lat="43.18782" lon="0.01057">
        <ele>355.5</ele>
        <time>2020-09-12T22:46:26Z</time>
      </trkpt>
      <trkpt lat="43.18784" lon="0.01061">
        <ele>355.4</ele>
        <time>2020-09-12T22:46:27Z</time>
      </trkpt>
      <trkpt lat="43.18787" lon="0.01066">
        <ele>355.3</ele>
        <time>2020-09-12T22:46:28Z</time>
      </trkpt>
      <trkpt lat="43.18789" lon="0.01071">
        <ele>355.2</ele>
        <time>2020-09-12T22:46:29Z</time>
      </trkpt>
      <trkpt lat="43.18792" lon="0.01076">
        <ele>355</ele>
        <time>2020-09-12T22:46:30Z</time>
      </trkpt>
      <trkpt lat="43.18795" lon="0.01081">
        <ele>354.9</ele>
        <time>2020-09-12T22:46:31Z</time>
      </trkpt>
      <trkpt lat="43.18798" lon="0.01086">
        <ele>354.8</ele>
        <time>2020-09-12T22:46:32Z</time>
      </trkpt>
      <trkpt lat="43.188" lon="0.01091">
        <ele>354.6</ele>
        <time>2020-09-12T22:46:33Z</time>
      </trkpt>
      <trkpt lat="43.18803" lon="0.01096">
        <ele>354.5</ele>
        <time>2020-09-12T22:46:34Z</time>
      </trkpt>
      <trkpt lat="43.18806" lon="0.01101">
        <ele>354.3</ele>
        <time>2020-09-12T22:46:35Z</time>
      </trkpt>
      <trkpt lat="43.18809" lon="0.01106">
        <ele>354.2</ele>
        <time>2020-09-12T22:46:36Z</time>
      </trkpt>
      <trkpt lat="43.18811" lon="0.01111">
        <ele>354.1</ele>
        <time>2020-09-12T22:46:37Z</time>
      </trkpt>
      <trkpt lat="43.18814" lon="0.01116">
        <ele>354</ele>
        <time>2020-09-12T22:46:38Z</time>
      </trkpt>
      <trkpt lat="43.18817" lon="0.0112">
        <ele>353.9</ele>
        <time>2020-09-12T22:46:39Z</time>
      </trkpt>
      <trkpt lat="43.1882" lon="0.01125">
        <ele>353.8</ele>
        <time>2020-09-12T22:46:40Z</time>
      </trkpt>
      <trkpt lat="43.18823" lon="0.0113">
        <ele>353.8</ele>
        <time>2020-09-12T22:46:41Z</time>
      </trkpt>
      <trkpt lat="43.18826" lon="0.01135">
        <ele>353.7</ele>
        <time>2020-09-12T22:46:42Z</time>
      </trkpt>
      <trkpt lat="43.18829" lon="0.01139">
        <ele>353.7</ele>
        <time>2020-09-12T22:46:43Z</time>
      </trkpt>
      <trkpt lat="43.18832" lon="0.01143">
        <ele>353.5</ele>
        <time>2020-09-12T22:46:44Z</time>
      </trkpt>
      <trkpt lat="43.18836" lon="0.01148">
        <ele>353.4</ele>
        <time>2020-09-12T22:46:45Z</time>
      </trkpt>
      <trkpt lat="43.18839" lon="0.01152">
        <ele>353.3</ele>
        <time>2020-09-12T22:46:46Z</time>
      </trkpt>
      <trkpt lat="43.18843" lon="0.01156">
        <ele>353.2</ele>
        <time>2020-09-12T22:46:47Z</time>
      </trkpt>
      <trkpt lat="43.18846" lon="0.0116">
        <ele>353</ele>
        <time>2020-09-12T22:46:48Z</time>
      </trkpt>
      <trkpt lat="43.1885" lon="0.01164">
        <ele>352.9</ele>
        <time>2020-09-12T22:46:49Z</time>
      </trkpt>
      <trkpt lat="43.18854" lon="0.01167">
        <ele>352.7</ele>
        <time>2020-09-12T22:46:50Z</time>
      </trkpt>
      <trkpt lat="43.18858" lon="0.0117">
        <ele>352.6</ele>
        <time>2020-09-12T22:46:51Z</time>
      </trkpt>
      <trkpt lat="43.18861" lon="0.01172">
        <ele>352.4</ele>
        <time>2020-09-12T22:46:52Z</time>
      </trkpt>
      <trkpt lat="43.18865" lon="0.01175">
        <ele>352.2</ele>
        <time>2020-09-12T22:46:53Z</time>
      </trkpt>
      <trkpt lat="43.18869" lon="0.01178">
        <ele>352.1</ele>
        <time>2020-09-12T22:46:54Z</time>
      </trkpt>
      <trkpt lat="43.18873" lon="0.01181">
        <ele>351.9</ele>
        <time>2020-09-12T22:46:55Z</time>
      </trkpt>
      <trkpt lat="43.18877" lon="0.01184">
        <ele>351.7</ele>
        <time>2020-09-12T22:46:56Z</time>
      </trkpt>
      <trkpt lat="43.18881" lon="0.01187">
        <ele>351.5</ele>
        <time>2020-09-12T22:46:57Z</time>
      </trkpt>
      <trkpt lat="43.18885" lon="0.01189">
        <ele>351.2</ele>
        <time>2020-09-12T22:46:58Z</time>
      </trkpt>
      <trkpt lat="43.1889" lon="0.0119">
        <ele>351</ele>
        <time>2020-09-12T22:46:59Z</time>
      </trkpt>
      <trkpt lat="43.18894" lon="0.01193">
        <ele>350.7</ele>
        <time>2020-09-12T22:47:00Z</time>
      </trkpt>
      <trkpt lat="43.18897" lon="0.01194">
        <ele>350.5</ele>
        <time>2020-09-12T22:47:01Z</time>
      </trkpt>
      <trkpt lat="43.18901" lon="0.01194">
        <ele>350.3</ele>
        <time>2020-09-12T22:47:02Z</time>
      </trkpt>
      <trkpt lat="43.18906" lon="0.01195">
        <ele>349.9</ele>
        <time>2020-09-12T22:47:03Z</time>
      </trkpt>
      <trkpt lat="43.18911" lon="0.01196">
        <ele>349.5</ele>
        <time>2020-09-12T22:47:04Z</time>
      </trkpt>
      <trkpt lat="43.18916" lon="0.01197">
        <ele>349.2</ele>
        <time>2020-09-12T22:47:05Z</time>
      </trkpt>
      <trkpt lat="43.18922" lon="0.012">
        <ele>348.8</ele>
        <time>2020-09-12T22:47:06Z</time>
      </trkpt>
      <trkpt lat="43.18928" lon="0.01202">
        <ele>348.4</ele>
        <time>2020-09-12T22:47:07Z</time>
      </trkpt>
      <trkpt lat="43.18935" lon="0.01203">
        <ele>348.1</ele>
        <time>2020-09-12T22:47:08Z</time>
      </trkpt>
      <trkpt lat="43.18942" lon="0.01203">
        <ele>347.7</ele>
        <time>2020-09-12T22:47:09Z</time>
      </trkpt>
      <trkpt lat="43.18949" lon="0.01202">
        <ele>347.3</ele>
        <time>2020-09-12T22:47:10Z</time>
      </trkpt>
      <trkpt lat="43.18957" lon="0.01202">
        <ele>346.7</ele>
        <time>2020-09-12T22:47:11Z</time>
      </trkpt>
      <trkpt lat="43.18965" lon="0.012">
        <ele>346.2</ele>
        <time>2020-09-12T22:47:12Z</time>
      </trkpt>
      <trkpt lat="43.18972" lon="0.01199">
        <ele>345.6</ele>
        <time>2020-09-12T22:47:13Z</time>
      </trkpt>
      <trkpt lat="43.18981" lon="0.01197">
        <ele>345.1</ele>
        <time>2020-09-12T22:47:14Z</time>
      </trkpt>
      <trkpt lat="43.18988" lon="0.01196">
        <ele>344.6</ele>
        <time>2020-09-12T22:47:15Z</time>
      </trkpt>
      <trkpt lat="43.18996" lon="0.01194">
        <ele>344.2</ele>
        <time>2020-09-12T22:47:16Z</time>
      </trkpt>
      <trkpt lat="43.19005" lon="0.0119">
        <ele>343.7</ele>
        <time>2020-09-12T22:47:17Z</time>
      </trkpt>
      <trkpt lat="43.19013" lon="0.01189">
        <ele>343.3</ele>
        <time>2020-09-12T22:47:18Z</time>
      </trkpt>
      <trkpt lat="43.19021" lon="0.01192">
        <ele>343</ele>
        <time>2020-09-12T22:47:19Z</time>
      </trkpt>
      <trkpt lat="43.19027" lon="0.01198">
        <ele>342.8</ele>
        <time>2020-09-12T22:47:20Z</time>
      </trkpt>
      <trkpt lat="43.19031" lon="0.01204">
        <ele>342.6</ele>
        <time>2020-09-12T22:47:21Z</time>
      </trkpt>
      <trkpt lat="43.19037" lon="0.01211">
        <ele>342.4</ele>
        <time>2020-09-12T22:47:22Z</time>
      </trkpt>
      <trkpt lat="43.19043" lon="0.01218">
        <ele>342.3</ele>
        <time>2020-09-12T22:47:23Z</time>
      </trkpt>
      <trkpt lat="43.19048" lon="0.01223">
        <ele>342.4</ele>
        <time>2020-09-12T22:47:24Z</time>
      </trkpt>
      <trkpt lat="43.19053" lon="0.01229">
        <ele>342.5</ele>
        <time>2020-09-12T22:47:25Z</time>
      </trkpt>
      <trkpt lat="43.19057" lon="0.01233">
        <ele>342.6</ele>
        <time>2020-09-12T22:47:26Z</time>
      </trkpt>
      <trkpt lat="43.19061" lon="0.01238">
        <ele>342.7</ele>
        <time>2020-09-12T22:47:27Z</time>
      </trkpt>
      <trkpt lat="43.19065" lon="0.01243">
        <ele>342.7</ele>
        <time>2020-09-12T22:47:28Z</time>
      </trkpt>
      <trkpt lat="43.19069" lon="0.01248">
        <ele>342.7</ele>
        <time>2020-09-12T22:47:29Z</time>
      </trkpt>
      <trkpt lat="43.19073" lon="0.01254">
        <ele>342.7</ele>
        <time>2020-09-12T22:47:30Z</time>
      </trkpt>
      <trkpt lat="43.19077" lon="0.01258">
        <ele>342.7</ele>
        <time>2020-09-12T22:47:31Z</time>
      </trkpt>
      <trkpt lat="43.19082" lon="0.01264">
        <ele>342.7</ele>
        <time>2020-09-12T22:47:32Z</time>
      </trkpt>
      <trkpt lat="43.19086" lon="0.01269">
        <ele>342.7</ele>
        <time>2020-09-12T22:47:33Z</time>
      </trkpt>
      <trkpt lat="43.19089" lon="0.01273">
        <ele>342.7</ele>
        <time>2020-09-12T22:47:34Z</time>
      </trkpt>
      <trkpt lat="43.19093" lon="0.01278">
        <ele>342.7</ele>
        <time>2020-09-12T22:47:35Z</time>
      </trkpt>
      <trkpt lat="43.19097" lon="0.01282">
        <ele>342.6</ele>
        <time>2020-09-12T22:47:36Z</time>
      </trkpt>
      <trkpt lat="43.19101" lon="0.01287">
        <ele>342.6</ele>
        <time>2020-09-12T22:47:37Z</time>
      </trkpt>
      <trkpt lat="43.19105" lon="0.01292">
        <ele>342.5</ele>
        <time>2020-09-12T22:47:38Z</time>
      </trkpt>
      <trkpt lat="43.19109" lon="0.01297">
        <ele>342.5</ele>
        <time>2020-09-12T22:47:39Z</time>
      </trkpt>
      <trkpt lat="43.19113" lon="0.01302">
        <ele>342.5</ele>
        <time>2020-09-12T22:47:40Z</time>
      </trkpt>
      <trkpt lat="43.19117" lon="0.01307">
        <ele>342.5</ele>
        <time>2020-09-12T22:47:41Z</time>
      </trkpt>
      <trkpt lat="43.19121" lon="0.01312">
        <ele>342.5</ele>
        <time>2020-09-12T22:47:42Z</time>
      </trkpt>
      <trkpt lat="43.19125" lon="0.01316">
        <ele>342.5</ele>
        <time>2020-09-12T22:47:43Z</time>
      </trkpt>
      <trkpt lat="43.19129" lon="0.01321">
        <ele>342.5</ele>
        <time>2020-09-12T22:47:44Z</time>
      </trkpt>
      <trkpt lat="43.19134" lon="0.01325">
        <ele>342.5</ele>
        <time>2020-09-12T22:47:45Z</time>
      </trkpt>
      <trkpt lat="43.19138" lon="0.0133">
        <ele>342.5</ele>
        <time>2020-09-12T22:47:46Z</time>
      </trkpt>
      <trkpt lat="43.19142" lon="0.01334">
        <ele>342.5</ele>
        <time>2020-09-12T22:47:47Z</time>
      </trkpt>
      <trkpt lat="43.19146" lon="0.01338">
        <ele>342.5</ele>
        <time>2020-09-12T22:47:48Z</time>
      </trkpt>
      <trkpt lat="43.19151" lon="0.01343">
        <ele>342.5</ele>
        <time>2020-09-12T22:47:49Z</time>
      </trkpt>
      <trkpt lat="43.19155" lon="0.01347">
        <ele>342.5</ele>
        <time>2020-09-12T22:47:50Z</time>
      </trkpt>
      <trkpt lat="43.19159" lon="0.01352">
        <ele>342.5</ele>
        <time>2020-09-12T22:47:51Z</time>
      </trkpt>
      <trkpt lat="43.19163" lon="0.01356">
        <ele>342.5</ele>
        <time>2020-09-12T22:47:52Z</time>
      </trkpt>
      <trkpt lat="43.19166" lon="0.0136">
        <ele>342.5</ele>
        <time>2020-09-12T22:47:53Z</time>
      </trkpt>
      <trkpt lat="43.1917" lon="0.01365">
        <ele>342.4</ele>
        <time>2020-09-12T22:47:54Z</time>
      </trkpt>
      <trkpt lat="43.19174" lon="0.01369">
        <ele>342.4</ele>
        <time>2020-09-12T22:47:55Z</time>
      </trkpt>
      <trkpt lat="43.19177" lon="0.01373">
        <ele>342.4</ele>
        <time>2020-09-12T22:47:56Z</time>
      </trkpt>
      <trkpt lat="43.1918" lon="0.01375">
        <ele>342.4</ele>
        <time>2020-09-12T22:47:57Z</time>
      </trkpt>
      <trkpt lat="43.19183" lon="0.01378">
        <ele>342.3</ele>
        <time>2020-09-12T22:47:58Z</time>
      </trkpt>
      <trkpt lat="43.19186" lon="0.0138">
        <ele>342.3</ele>
        <time>2020-09-12T22:47:59Z</time>
      </trkpt>
      <trkpt lat="43.1919" lon="0.01383">
        <ele>342.2</ele>
        <time>2020-09-12T22:48:00Z</time>
      </trkpt>
      <trkpt lat="43.19192" lon="0.01387">
        <ele>342.2</ele>
        <time>2020-09-12T22:48:01Z</time>
      </trkpt>
      <trkpt lat="43.19194" lon="0.01391">
        <ele>342.2</ele>
        <time>2020-09-12T22:48:02Z</time>
      </trkpt>
      <trkpt lat="43.19195" lon="0.01396">
        <ele>342.1</ele>
        <time>2020-09-12T22:48:04Z</time>
      </trkpt>
      <trkpt lat="43.19197" lon="0.01399">
        <ele>342.1</ele>
        <time>2020-09-12T22:48:05Z</time>
      </trkpt>
      <trkpt lat="43.192" lon="0.01402">
        <ele>342</ele>
        <time>2020-09-12T22:48:06Z</time>
      </trkpt>
      <trkpt lat="43.19202" lon="0.01405">
        <ele>342</ele>
        <time>2020-09-12T22:48:07Z</time>
      </trkpt>
      <trkpt lat="43.19205" lon="0.01407">
        <ele>342</ele>
        <time>2020-09-12T22:48:08Z</time>
      </trkpt>
      <trkpt lat="43.19209" lon="0.0141">
        <ele>341.9</ele>
        <time>2020-09-12T22:48:09Z</time>
      </trkpt>
      <trkpt lat="43.19213" lon="0.01412">
        <ele>341.8</ele>
        <time>2020-09-12T22:48:10Z</time>
      </trkpt>
      <trkpt lat="43.19217" lon="0.01415">
        <ele>341.8</ele>
        <time>2020-09-12T22:48:11Z</time>
      </trkpt>
      <trkpt lat="43.1922" lon="0.01418">
        <ele>341.7</ele>
        <time>2020-09-12T22:48:12Z</time>
      </trkpt>
      <trkpt lat="43.19225" lon="0.0142">
        <ele>341.7</ele>
        <time>2020-09-12T22:48:13Z</time>
      </trkpt>
      <trkpt lat="43.19229" lon="0.01423">
        <ele>341.7</ele>
        <time>2020-09-12T22:48:14Z</time>
      </trkpt>
      <trkpt lat="43.19233" lon="0.01426">
        <ele>341.6</ele>
        <time>2020-09-12T22:48:15Z</time>
      </trkpt>
      <trkpt lat="43.19237" lon="0.01429">
        <ele>341.6</ele>
        <time>2020-09-12T22:48:16Z</time>
      </trkpt>
      <trkpt lat="43.19241" lon="0.01432">
        <ele>341.4</ele>
        <time>2020-09-12T22:48:17Z</time>
      </trkpt>
      <trkpt lat="43.19245" lon="0.01435">
        <ele>341.2</ele>
        <time>2020-09-12T22:48:18Z</time>
      </trkpt>
      <trkpt lat="43.1925" lon="0.01438">
        <ele>341</ele>
        <time>2020-09-12T22:48:19Z</time>
      </trkpt>
      <trkpt lat="43.19254" lon="0.01441">
        <ele>340.9</ele>
        <time>2020-09-12T22:48:20Z</time>
      </trkpt>
      <trkpt lat="43.19258" lon="0.01444">
        <ele>340.8</ele>
        <time>2020-09-12T22:48:21Z</time>
      </trkpt>
      <trkpt lat="43.19263" lon="0.01447">
        <ele>340.5</ele>
        <time>2020-09-12T22:48:22Z</time>
      </trkpt>
      <trkpt lat="43.19268" lon="0.0145">
        <ele>340.4</ele>
        <time>2020-09-12T22:48:23Z</time>
      </trkpt>
      <trkpt lat="43.19273" lon="0.01453">
        <ele>340.3</ele>
        <time>2020-09-12T22:48:24Z</time>
      </trkpt>
      <trkpt lat="43.19278" lon="0.01456">
        <ele>340.1</ele>
        <time>2020-09-12T22:48:25Z</time>
      </trkpt>
      <trkpt lat="43.19284" lon="0.01459">
        <ele>340</ele>
        <time>2020-09-12T22:48:26Z</time>
      </trkpt>
      <trkpt lat="43.19289" lon="0.01461">
        <ele>339.9</ele>
        <time>2020-09-12T22:48:27Z</time>
      </trkpt>
      <trkpt lat="43.19295" lon="0.01464">
        <ele>339.8</ele>
        <time>2020-09-12T22:48:28Z</time>
      </trkpt>
      <trkpt lat="43.19301" lon="0.01467">
        <ele>339.6</ele>
        <time>2020-09-12T22:48:29Z</time>
      </trkpt>
      <trkpt lat="43.19307" lon="0.0147">
        <ele>339.4</ele>
        <time>2020-09-12T22:48:30Z</time>
      </trkpt>
      <trkpt lat="43.19314" lon="0.01473">
        <ele>339.2</ele>
        <time>2020-09-12T22:48:31Z</time>
      </trkpt>
      <trkpt lat="43.1932" lon="0.01476">
        <ele>339.1</ele>
        <time>2020-09-12T22:48:32Z</time>
      </trkpt>
      <trkpt lat="43.19327" lon="0.01479">
        <ele>338.8</ele>
        <time>2020-09-12T22:48:33Z</time>
      </trkpt>
      <trkpt lat="43.19333" lon="0.01482">
        <ele>338.7</ele>
        <time>2020-09-12T22:48:34Z</time>
      </trkpt>
      <trkpt lat="43.1934" lon="0.01485">
        <ele>338.6</ele>
        <time>2020-09-12T22:48:35Z</time>
      </trkpt>
      <trkpt lat="43.19347" lon="0.01487">
        <ele>338.5</ele>
        <time>2020-09-12T22:48:36Z</time>
      </trkpt>
      <trkpt lat="43.19353" lon="0.0149">
        <ele>338.3</ele>
        <time>2020-09-12T22:48:37Z</time>
      </trkpt>
      <trkpt lat="43.1936" lon="0.01493">
        <ele>338.2</ele>
        <time>2020-09-12T22:48:38Z</time>
      </trkpt>
      <trkpt lat="43.19367" lon="0.01496">
        <ele>337.9</ele>
        <time>2020-09-12T22:48:39Z</time>
      </trkpt>
      <trkpt lat="43.19373" lon="0.01498">
        <ele>337.7</ele>
        <time>2020-09-12T22:48:40Z</time>
      </trkpt>
      <trkpt lat="43.1938" lon="0.01501">
        <ele>337.4</ele>
        <time>2020-09-12T22:48:41Z</time>
      </trkpt>
      <trkpt lat="43.19387" lon="0.01502">
        <ele>337.2</ele>
        <time>2020-09-12T22:48:42Z</time>
      </trkpt>
      <trkpt lat="43.19393" lon="0.01504">
        <ele>336.9</ele>
        <time>2020-09-12T22:48:43Z</time>
      </trkpt>
      <trkpt lat="43.194" lon="0.01506">
        <ele>336.7</ele>
        <time>2020-09-12T22:48:44Z</time>
      </trkpt>
      <trkpt lat="43.19406" lon="0.01508">
        <ele>336.5</ele>
        <time>2020-09-12T22:48:45Z</time>
      </trkpt>
      <trkpt lat="43.19412" lon="0.01511">
        <ele>336.3</ele>
        <time>2020-09-12T22:48:46Z</time>
      </trkpt>
      <trkpt lat="43.19418" lon="0.01512">
        <ele>336.1</ele>
        <time>2020-09-12T22:48:47Z</time>
      </trkpt>
      <trkpt lat="43.19423" lon="0.01517">
        <ele>335.7</ele>
        <time>2020-09-12T22:48:48Z</time>
      </trkpt>
      <trkpt lat="43.19426" lon="0.01524">
        <ele>335.6</ele>
        <time>2020-09-12T22:48:49Z</time>
      </trkpt>
      <trkpt lat="43.19429" lon="0.01531">
        <ele>335.5</ele>
        <time>2020-09-12T22:48:50Z</time>
      </trkpt>
      <trkpt lat="43.19432" lon="0.01538">
        <ele>335.5</ele>
        <time>2020-09-12T22:48:51Z</time>
      </trkpt>
      <trkpt lat="43.19434" lon="0.01544">
        <ele>335.4</ele>
        <time>2020-09-12T22:48:52Z</time>
      </trkpt>
      <trkpt lat="43.19437" lon="0.01551">
        <ele>335.3</ele>
        <time>2020-09-12T22:48:53Z</time>
      </trkpt>
      <trkpt lat="43.1944" lon="0.01558">
        <ele>335.3</ele>
        <time>2020-09-12T22:48:54Z</time>
      </trkpt>
      <trkpt lat="43.19443" lon="0.01565">
        <ele>335.2</ele>
        <time>2020-09-12T22:48:55Z</time>
      </trkpt>
      <trkpt lat="43.19446" lon="0.01571">
        <ele>335.2</ele>
        <time>2020-09-12T22:48:56Z</time>
      </trkpt>
      <trkpt lat="43.19448" lon="0.01578">
        <ele>335.1</ele>
        <time>2020-09-12T22:48:57Z</time>
      </trkpt>
      <trkpt lat="43.19451" lon="0.01584">
        <ele>335</ele>
        <time>2020-09-12T22:48:58Z</time>
      </trkpt>
      <trkpt lat="43.19455" lon="0.01591">
        <ele>334.9</ele>
        <time>2020-09-12T22:48:59Z</time>
      </trkpt>
      <trkpt lat="43.19458" lon="0.01598">
        <ele>334.9</ele>
        <time>2020-09-12T22:49:00Z</time>
      </trkpt>
      <trkpt lat="43.19461" lon="0.01605">
        <ele>334.8</ele>
        <time>2020-09-12T22:49:01Z</time>
      </trkpt>
      <trkpt lat="43.19464" lon="0.01612">
        <ele>334.7</ele>
        <time>2020-09-12T22:49:02Z</time>
      </trkpt>
      <trkpt lat="43.19468" lon="0.01619">
        <ele>334.6</ele>
        <time>2020-09-12T22:49:03Z</time>
      </trkpt>
      <trkpt lat="43.19472" lon="0.01625">
        <ele>334.6</ele>
        <time>2020-09-12T22:49:04Z</time>
      </trkpt>
      <trkpt lat="43.19477" lon="0.01631">
        <ele>334.6</ele>
        <time>2020-09-12T22:49:05Z</time>
      </trkpt>
      <trkpt lat="43.19482" lon="0.01636">
        <ele>334.6</ele>
        <time>2020-09-12T22:49:06Z</time>
      </trkpt>
      <trkpt lat="43.19487" lon="0.01641">
        <ele>334.6</ele>
        <time>2020-09-12T22:49:07Z</time>
      </trkpt>
      <trkpt lat="43.19492" lon="0.01646">
        <ele>334.6</ele>
        <time>2020-09-12T22:49:08Z</time>
      </trkpt>
      <trkpt lat="43.19497" lon="0.0165">
        <ele>334.6</ele>
        <time>2020-09-12T22:49:09Z</time>
      </trkpt>
      <trkpt lat="43.19503" lon="0.01654">
        <ele>334.6</ele>
        <time>2020-09-12T22:49:10Z</time>
      </trkpt>
      <trkpt lat="43.19508" lon="0.01659">
        <ele>334.6</ele>
        <time>2020-09-12T22:49:11Z</time>
      </trkpt>
      <trkpt lat="43.19513" lon="0.01663">
        <ele>334.6</ele>
        <time>2020-09-12T22:49:12Z</time>
      </trkpt>
      <trkpt lat="43.19518" lon="0.01667">
        <ele>334.6</ele>
        <time>2020-09-12T22:49:13Z</time>
      </trkpt>
      <trkpt lat="43.19524" lon="0.01672">
        <ele>334.6</ele>
        <time>2020-09-12T22:49:14Z</time>
      </trkpt>
      <trkpt lat="43.19529" lon="0.01677">
        <ele>334.6</ele>
        <time>2020-09-12T22:49:15Z</time>
      </trkpt>
      <trkpt lat="43.19534" lon="0.01682">
        <ele>334.5</ele>
        <time>2020-09-12T22:49:16Z</time>
      </trkpt>
      <trkpt lat="43.19538" lon="0.01687">
        <ele>334.5</ele>
        <time>2020-09-12T22:49:17Z</time>
      </trkpt>
      <trkpt lat="43.19543" lon="0.01692">
        <ele>334.5</ele>
        <time>2020-09-12T22:49:18Z</time>
      </trkpt>
      <trkpt lat="43.19548" lon="0.01698">
        <ele>334.5</ele>
        <time>2020-09-12T22:49:19Z</time>
      </trkpt>
      <trkpt lat="43.19553" lon="0.01703">
        <ele>334.4</ele>
        <time>2020-09-12T22:49:20Z</time>
      </trkpt>
      <trkpt lat="43.19558" lon="0.01708">
        <ele>334.4</ele>
        <time>2020-09-12T22:49:21Z</time>
      </trkpt>
      <trkpt lat="43.19562" lon="0.01713">
        <ele>334.4</ele>
        <time>2020-09-12T22:49:22Z</time>
      </trkpt>
      <trkpt lat="43.19567" lon="0.01719">
        <ele>334.3</ele>
        <time>2020-09-12T22:49:23Z</time>
      </trkpt>
      <trkpt lat="43.19572" lon="0.01724">
        <ele>334.2</ele>
        <time>2020-09-12T22:49:24Z</time>
      </trkpt>
      <trkpt lat="43.19577" lon="0.0173">
        <ele>334.1</ele>
        <time>2020-09-12T22:49:25Z</time>
      </trkpt>
      <trkpt lat="43.19582" lon="0.01735">
        <ele>334</ele>
        <time>2020-09-12T22:49:26Z</time>
      </trkpt>
      <trkpt lat="43.19587" lon="0.01741">
        <ele>333.8</ele>
        <time>2020-09-12T22:49:27Z</time>
      </trkpt>
      <trkpt lat="43.19592" lon="0.01747">
        <ele>333.7</ele>
        <time>2020-09-12T22:49:28Z</time>
      </trkpt>
      <trkpt lat="43.19596" lon="0.01753">
        <ele>333.6</ele>
        <time>2020-09-12T22:49:29Z</time>
      </trkpt>
      <trkpt lat="43.19601" lon="0.01759">
        <ele>333.6</ele>
        <time>2020-09-12T22:49:30Z</time>
      </trkpt>
      <trkpt lat="43.19606" lon="0.01765">
        <ele>333.4</ele>
        <time>2020-09-12T22:49:31Z</time>
      </trkpt>
      <trkpt lat="43.19611" lon="0.01772">
        <ele>333.3</ele>
        <time>2020-09-12T22:49:32Z</time>
      </trkpt>
      <trkpt lat="43.19616" lon="0.01778">
        <ele>333.2</ele>
        <time>2020-09-12T22:49:33Z</time>
      </trkpt>
      <trkpt lat="43.19621" lon="0.01785">
        <ele>333</ele>
        <time>2020-09-12T22:49:34Z</time>
      </trkpt>
      <trkpt lat="43.19626" lon="0.0179">
        <ele>332.8</ele>
        <time>2020-09-12T22:49:35Z</time>
      </trkpt>
      <trkpt lat="43.19632" lon="0.01795">
        <ele>332.6</ele>
        <time>2020-09-12T22:49:36Z</time>
      </trkpt>
      <trkpt lat="43.19638" lon="0.01801">
        <ele>332.4</ele>
        <time>2020-09-12T22:49:37Z</time>
      </trkpt>
      <trkpt lat="43.19643" lon="0.01806">
        <ele>332.2</ele>
        <time>2020-09-12T22:49:38Z</time>
      </trkpt>
      <trkpt lat="43.19649" lon="0.01811">
        <ele>332.1</ele>
        <time>2020-09-12T22:49:39Z</time>
      </trkpt>
      <trkpt lat="43.19654" lon="0.01816">
        <ele>332</ele>
        <time>2020-09-12T22:49:40Z</time>
      </trkpt>
      <trkpt lat="43.1966" lon="0.01822">
        <ele>331.9</ele>
        <time>2020-09-12T22:49:41Z</time>
      </trkpt>
      <trkpt lat="43.19664" lon="0.01827">
        <ele>331.8</ele>
        <time>2020-09-12T22:49:42Z</time>
      </trkpt>
      <trkpt lat="43.19668" lon="0.01833">
        <ele>331.8</ele>
        <time>2020-09-12T22:49:43Z</time>
      </trkpt>
      <trkpt lat="43.19671" lon="0.01837">
        <ele>331.8</ele>
        <time>2020-09-12T22:49:44Z</time>
      </trkpt>
      <trkpt lat="43.19673" lon="0.01842">
        <ele>331.8</ele>
        <time>2020-09-12T22:49:45Z</time>
      </trkpt>
      <trkpt lat="43.19674" lon="0.01846">
        <ele>331.8</ele>
        <time>2020-09-12T22:49:46Z</time>
      </trkpt>
      <trkpt lat="43.19675" lon="0.01851">
        <ele>331.5</ele>
        <time>2020-09-12T22:49:47Z</time>
      </trkpt>
      <trkpt lat="43.19675" lon="0.01856">
        <ele>331.5</ele>
        <time>2020-09-12T22:49:48Z</time>
      </trkpt>
      <trkpt lat="43.19676" lon="0.01861">
        <ele>331.5</ele>
        <time>2020-09-12T22:49:49Z</time>
      </trkpt>
      <trkpt lat="43.1968" lon="0.01864">
        <ele>331.3</ele>
        <time>2020-09-12T22:49:50Z</time>
      </trkpt>
      <trkpt lat="43.19685" lon="0.01866">
        <ele>331.1</ele>
        <time>2020-09-12T22:49:51Z</time>
      </trkpt>
      <trkpt lat="43.1969" lon="0.01868">
        <ele>331</ele>
        <time>2020-09-12T22:49:52Z</time>
      </trkpt>
      <trkpt lat="43.19696" lon="0.0187">
        <ele>330.8</ele>
        <time>2020-09-12T22:49:53Z</time>
      </trkpt>
      <trkpt lat="43.19701" lon="0.01873">
        <ele>330.7</ele>
        <time>2020-09-12T22:49:54Z</time>
      </trkpt>
      <trkpt lat="43.19707" lon="0.01876">
        <ele>330.6</ele>
        <time>2020-09-12T22:49:55Z</time>
      </trkpt>
      <trkpt lat="43.19713" lon="0.01879">
        <ele>330.5</ele>
        <time>2020-09-12T22:49:56Z</time>
      </trkpt>
      <trkpt lat="43.19718" lon="0.01883">
        <ele>330.4</ele>
        <time>2020-09-12T22:49:57Z</time>
      </trkpt>
      <trkpt lat="43.19723" lon="0.01886">
        <ele>330.3</ele>
        <time>2020-09-12T22:49:58Z</time>
      </trkpt>
      <trkpt lat="43.19729" lon="0.0189">
        <ele>330.2</ele>
        <time>2020-09-12T22:49:59Z</time>
      </trkpt>
      <trkpt lat="43.19734" lon="0.01893">
        <ele>330.1</ele>
        <time>2020-09-12T22:50:00Z</time>
      </trkpt>
      <trkpt lat="43.19739" lon="0.01898">
        <ele>330</ele>
        <time>2020-09-12T22:50:01Z</time>
      </trkpt>
      <trkpt lat="43.19744" lon="0.01902">
        <ele>329.9</ele>
        <time>2020-09-12T22:50:02Z</time>
      </trkpt>
      <trkpt lat="43.19749" lon="0.01906">
        <ele>329.7</ele>
        <time>2020-09-12T22:50:03Z</time>
      </trkpt>
      <trkpt lat="43.19754" lon="0.0191">
        <ele>329.6</ele>
        <time>2020-09-12T22:50:04Z</time>
      </trkpt>
      <trkpt lat="43.19759" lon="0.01914">
        <ele>329.4</ele>
        <time>2020-09-12T22:50:05Z</time>
      </trkpt>
      <trkpt lat="43.19765" lon="0.01917">
        <ele>329.3</ele>
        <time>2020-09-12T22:50:06Z</time>
      </trkpt>
      <trkpt lat="43.1977" lon="0.0192">
        <ele>329.2</ele>
        <time>2020-09-12T22:50:07Z</time>
      </trkpt>
      <trkpt lat="43.19775" lon="0.01924">
        <ele>329.2</ele>
        <time>2020-09-12T22:50:08Z</time>
      </trkpt>
      <trkpt lat="43.1978" lon="0.01928">
        <ele>329.1</ele>
        <time>2020-09-12T22:50:09Z</time>
      </trkpt>
      <trkpt lat="43.19786" lon="0.01932">
        <ele>329</ele>
        <time>2020-09-12T22:50:10Z</time>
      </trkpt>
      <trkpt lat="43.19791" lon="0.01935">
        <ele>329</ele>
        <time>2020-09-12T22:50:11Z</time>
      </trkpt>
      <trkpt lat="43.19796" lon="0.01938">
        <ele>329</ele>
        <time>2020-09-12T22:50:12Z</time>
      </trkpt>
      <trkpt lat="43.19801" lon="0.01942">
        <ele>328.9</ele>
        <time>2020-09-12T22:50:13Z</time>
      </trkpt>
      <trkpt lat="43.19806" lon="0.01945">
        <ele>328.9</ele>
        <time>2020-09-12T22:50:14Z</time>
      </trkpt>
      <trkpt lat="43.19811" lon="0.01949">
        <ele>328.9</ele>
        <time>2020-09-12T22:50:15Z</time>
      </trkpt>
      <trkpt lat="43.19817" lon="0.01952">
        <ele>328.9</ele>
        <time>2020-09-12T22:50:16Z</time>
      </trkpt>
      <trkpt lat="43.19822" lon="0.01956">
        <ele>328.8</ele>
        <time>2020-09-12T22:50:17Z</time>
      </trkpt>
      <trkpt lat="43.19827" lon="0.01959">
        <ele>328.8</ele>
        <time>2020-09-12T22:50:18Z</time>
      </trkpt>
      <trkpt lat="43.19832" lon="0.01963">
        <ele>328.8</ele>
        <time>2020-09-12T22:50:19Z</time>
      </trkpt>
      <trkpt lat="43.19836" lon="0.01966">
        <ele>328.8</ele>
        <time>2020-09-12T22:50:20Z</time>
      </trkpt>
      <trkpt lat="43.19841" lon="0.01969">
        <ele>328.8</ele>
        <time>2020-09-12T22:50:21Z</time>
      </trkpt>
      <trkpt lat="43.19846" lon="0.01973">
        <ele>328.7</ele>
        <time>2020-09-12T22:50:22Z</time>
      </trkpt>
      <trkpt lat="43.19851" lon="0.01976">
        <ele>328.7</ele>
        <time>2020-09-12T22:50:23Z</time>
      </trkpt>
      <trkpt lat="43.19856" lon="0.0198">
        <ele>328.7</ele>
        <time>2020-09-12T22:50:24Z</time>
      </trkpt>
      <trkpt lat="43.1986" lon="0.01983">
        <ele>328.7</ele>
        <time>2020-09-12T22:50:25Z</time>
      </trkpt>
      <trkpt lat="43.19865" lon="0.01986">
        <ele>328.6</ele>
        <time>2020-09-12T22:50:26Z</time>
      </trkpt>
      <trkpt lat="43.1987" lon="0.01989">
        <ele>328.6</ele>
        <time>2020-09-12T22:50:27Z</time>
      </trkpt>
      <trkpt lat="43.19874" lon="0.01992">
        <ele>328.6</ele>
        <time>2020-09-12T22:50:28Z</time>
      </trkpt>
      <trkpt lat="43.19878" lon="0.01994">
        <ele>328.6</ele>
        <time>2020-09-12T22:50:29Z</time>
      </trkpt>
      <trkpt lat="43.19882" lon="0.01995">
        <ele>328.6</ele>
        <time>2020-09-12T22:50:30Z</time>
      </trkpt>
      <trkpt lat="43.19885" lon="0.01996">
        <ele>328.6</ele>
        <time>2020-09-12T22:50:31Z</time>
      </trkpt>
      <trkpt lat="43.19889" lon="0.01999">
        <ele>328.5</ele>
        <time>2020-09-12T22:50:33Z</time>
      </trkpt>
      <trkpt lat="43.19891" lon="0.02002">
        <ele>328.5</ele>
        <time>2020-09-12T22:50:34Z</time>
      </trkpt>
      <trkpt lat="43.19894" lon="0.02006">
        <ele>328.5</ele>
        <time>2020-09-12T22:50:35Z</time>
      </trkpt>
      <trkpt lat="43.19897" lon="0.0201">
        <ele>328.5</ele>
        <time>2020-09-12T22:50:36Z</time>
      </trkpt>
      <trkpt lat="43.199" lon="0.02014">
        <ele>328.5</ele>
        <time>2020-09-12T22:50:37Z</time>
      </trkpt>
      <trkpt lat="43.19904" lon="0.02018">
        <ele>328.5</ele>
        <time>2020-09-12T22:50:38Z</time>
      </trkpt>
      <trkpt lat="43.19907" lon="0.02022">
        <ele>328.5</ele>
        <time>2020-09-12T22:50:39Z</time>
      </trkpt>
      <trkpt lat="43.19911" lon="0.02025">
        <ele>328.4</ele>
        <time>2020-09-12T22:50:40Z</time>
      </trkpt>
      <trkpt lat="43.19915" lon="0.02029">
        <ele>328.4</ele>
        <time>2020-09-12T22:50:41Z</time>
      </trkpt>
      <trkpt lat="43.19919" lon="0.02034">
        <ele>328.4</ele>
        <time>2020-09-12T22:50:42Z</time>
      </trkpt>
      <trkpt lat="43.19924" lon="0.02039">
        <ele>328.3</ele>
        <time>2020-09-12T22:50:43Z</time>
      </trkpt>
      <trkpt lat="43.19928" lon="0.02044">
        <ele>328.2</ele>
        <time>2020-09-12T22:50:44Z</time>
      </trkpt>
      <trkpt lat="43.19933" lon="0.02048">
        <ele>328.1</ele>
        <time>2020-09-12T22:50:45Z</time>
      </trkpt>
      <trkpt lat="43.19937" lon="0.02053">
        <ele>328.1</ele>
        <time>2020-09-12T22:50:46Z</time>
      </trkpt>
      <trkpt lat="43.19942" lon="0.02058">
        <ele>328</ele>
        <time>2020-09-12T22:50:47Z</time>
      </trkpt>
      <trkpt lat="43.19946" lon="0.02064">
        <ele>327.9</ele>
        <time>2020-09-12T22:50:48Z</time>
      </trkpt>
      <trkpt lat="43.19949" lon="0.02068">
        <ele>327.9</ele>
        <time>2020-09-12T22:50:49Z</time>
      </trkpt>
      <trkpt lat="43.19953" lon="0.02072">
        <ele>328.2</ele>
        <time>2020-09-12T22:50:50Z</time>
      </trkpt>
      <trkpt lat="43.19956" lon="0.02076">
        <ele>328.3</ele>
        <time>2020-09-12T22:50:51Z</time>
      </trkpt>
      <trkpt lat="43.19956" lon="0.0208">
        <ele>328.4</ele>
        <time>2020-09-12T22:50:52Z</time>
      </trkpt>
      <trkpt lat="43.19954" lon="0.02086">
        <ele>328.5</ele>
        <time>2020-09-12T22:50:53Z</time>
      </trkpt>
      <trkpt lat="43.19952" lon="0.02092">
        <ele>328.7</ele>
        <time>2020-09-12T22:50:54Z</time>
      </trkpt>
      <trkpt lat="43.19949" lon="0.02099">
        <ele>328.7</ele>
        <time>2020-09-12T22:50:55Z</time>
      </trkpt>
      <trkpt lat="43.19948" lon="0.02106">
        <ele>328.8</ele>
        <time>2020-09-12T22:50:56Z</time>
      </trkpt>
      <trkpt lat="43.19946" lon="0.02114">
        <ele>328.8</ele>
        <time>2020-09-12T22:50:57Z</time>
      </trkpt>
      <trkpt lat="43.19945" lon="0.02122">
        <ele>328.8</ele>
        <time>2020-09-12T22:50:58Z</time>
      </trkpt>
      <trkpt lat="43.19945" lon="0.0213">
        <ele>328.8</ele>
        <time>2020-09-12T22:50:59Z</time>
      </trkpt>
      <trkpt lat="43.19945" lon="0.02138">
        <ele>328.8</ele>
        <time>2020-09-12T22:51:00Z</time>
      </trkpt>
      <trkpt lat="43.19944" lon="0.02147">
        <ele>328.8</ele>
        <time>2020-09-12T22:51:01Z</time>
      </trkpt>
      <trkpt lat="43.19943" lon="0.02155">
        <ele>328.8</ele>
        <time>2020-09-12T22:51:02Z</time>
      </trkpt>
      <trkpt lat="43.19942" lon="0.02163">
        <ele>328.8</ele>
        <time>2020-09-12T22:51:03Z</time>
      </trkpt>
      <trkpt lat="43.19941" lon="0.02171">
        <ele>328.8</ele>
        <time>2020-09-12T22:51:04Z</time>
      </trkpt>
      <trkpt lat="43.1994" lon="0.02178">
        <ele>328.8</ele>
        <time>2020-09-12T22:51:05Z</time>
      </trkpt>
      <trkpt lat="43.19939" lon="0.02186">
        <ele>328.8</ele>
        <time>2020-09-12T22:51:06Z</time>
      </trkpt>
      <trkpt lat="43.19938" lon="0.02193">
        <ele>328.8</ele>
        <time>2020-09-12T22:51:07Z</time>
      </trkpt>
      <trkpt lat="43.19937" lon="0.02201">
        <ele>328.8</ele>
        <time>2020-09-12T22:51:08Z</time>
      </trkpt>
      <trkpt lat="43.19935" lon="0.02208">
        <ele>328.8</ele>
        <time>2020-09-12T22:51:09Z</time>
      </trkpt>
      <trkpt lat="43.19934" lon="0.02215">
        <ele>328.8</ele>
        <time>2020-09-12T22:51:10Z</time>
      </trkpt>
      <trkpt lat="43.19932" lon="0.02223">
        <ele>328.8</ele>
        <time>2020-09-12T22:51:11Z</time>
      </trkpt>
      <trkpt lat="43.19931" lon="0.0223">
        <ele>328.8</ele>
        <time>2020-09-12T22:51:12Z</time>
      </trkpt>
      <trkpt lat="43.1993" lon="0.02238">
        <ele>328.8</ele>
        <time>2020-09-12T22:51:13Z</time>
      </trkpt>
      <trkpt lat="43.19929" lon="0.02245">
        <ele>328.8</ele>
        <time>2020-09-12T22:51:14Z</time>
      </trkpt>
      <trkpt lat="43.19929" lon="0.02253">
        <ele>328.7</ele>
        <time>2020-09-12T22:51:15Z</time>
      </trkpt>
      <trkpt lat="43.19929" lon="0.02261">
        <ele>328.7</ele>
        <time>2020-09-12T22:51:16Z</time>
      </trkpt>
      <trkpt lat="43.19929" lon="0.02269">
        <ele>328.7</ele>
        <time>2020-09-12T22:51:17Z</time>
      </trkpt>
      <trkpt lat="43.1993" lon="0.02277">
        <ele>328.6</ele>
        <time>2020-09-12T22:51:18Z</time>
      </trkpt>
      <trkpt lat="43.19931" lon="0.02285">
        <ele>328.4</ele>
        <time>2020-09-12T22:51:19Z</time>
      </trkpt>
      <trkpt lat="43.19931" lon="0.02293">
        <ele>328.3</ele>
        <time>2020-09-12T22:51:20Z</time>
      </trkpt>
      <trkpt lat="43.19933" lon="0.02301">
        <ele>328.1</ele>
        <time>2020-09-12T22:51:21Z</time>
      </trkpt>
      <trkpt lat="43.19934" lon="0.02309">
        <ele>328</ele>
        <time>2020-09-12T22:51:22Z</time>
      </trkpt>
      <trkpt lat="43.19935" lon="0.02316">
        <ele>327.9</ele>
        <time>2020-09-12T22:51:23Z</time>
      </trkpt>
      <trkpt lat="43.19935" lon="0.02323">
        <ele>327.9</ele>
        <time>2020-09-12T22:51:24Z</time>
      </trkpt>
      <trkpt lat="43.19936" lon="0.0233">
        <ele>327.9</ele>
        <time>2020-09-12T22:51:25Z</time>
      </trkpt>
      <trkpt lat="43.19936" lon="0.02337">
        <ele>327.9</ele>
        <time>2020-09-12T22:51:26Z</time>
      </trkpt>
      <trkpt lat="43.19937" lon="0.02343">
        <ele>328.1</ele>
        <time>2020-09-12T22:51:27Z</time>
      </trkpt>
      <trkpt lat="43.19937" lon="0.02349">
        <ele>328.2</ele>
        <time>2020-09-12T22:51:28Z</time>
      </trkpt>
      <trkpt lat="43.19938" lon="0.02355">
        <ele>328.4</ele>
        <time>2020-09-12T22:51:29Z</time>
      </trkpt>
      <trkpt lat="43.19938" lon="0.0236">
        <ele>328.7</ele>
        <time>2020-09-12T22:51:30Z</time>
      </trkpt>
      <trkpt lat="43.1994" lon="0.02365">
        <ele>328.7</ele>
        <time>2020-09-12T22:51:31Z</time>
      </trkpt>
      <trkpt lat="43.19942" lon="0.02369">
        <ele>328.7</ele>
        <time>2020-09-12T22:51:32Z</time>
      </trkpt>
      <trkpt lat="43.19945" lon="0.0237">
        <ele>328.7</ele>
        <time>2020-09-12T22:51:33Z</time>
      </trkpt>
      <trkpt lat="43.19948" lon="0.02371">
        <ele>328.6</ele>
        <time>2020-09-12T22:51:34Z</time>
      </trkpt>
      <trkpt lat="43.19952" lon="0.0237">
        <ele>328.6</ele>
        <time>2020-09-12T22:51:35Z</time>
      </trkpt>
      <trkpt lat="43.19957" lon="0.02366">
        <ele>328.6</ele>
        <time>2020-09-12T22:51:36Z</time>
      </trkpt>
      <trkpt lat="43.19961" lon="0.02365">
        <ele>328.5</ele>
        <time>2020-09-12T22:51:37Z</time>
      </trkpt>
      <trkpt lat="43.19966" lon="0.02365">
        <ele>328.5</ele>
        <time>2020-09-12T22:51:38Z</time>
      </trkpt>
      <trkpt lat="43.19971" lon="0.02363">
        <ele>328.5</ele>
        <time>2020-09-12T22:51:39Z</time>
      </trkpt>
      <trkpt lat="43.19977" lon="0.02362">
        <ele>328.5</ele>
        <time>2020-09-12T22:51:40Z</time>
      </trkpt>
      <trkpt lat="43.19983" lon="0.02362">
        <ele>328.4</ele>
        <time>2020-09-12T22:51:41Z</time>
      </trkpt>
      <trkpt lat="43.19988" lon="0.02362">
        <ele>328.4</ele>
        <time>2020-09-12T22:51:42Z</time>
      </trkpt>
      <trkpt lat="43.19994" lon="0.02363">
        <ele>328.4</ele>
        <time>2020-09-12T22:51:43Z</time>
      </trkpt>
      <trkpt lat="43.2" lon="0.02365">
        <ele>328.4</ele>
        <time>2020-09-12T22:51:44Z</time>
      </trkpt>
      <trkpt lat="43.20007" lon="0.02364">
        <ele>328.5</ele>
        <time>2020-09-12T22:51:45Z</time>
      </trkpt>
      <trkpt lat="43.20013" lon="0.02364">
        <ele>328.6</ele>
        <time>2020-09-12T22:51:46Z</time>
      </trkpt>
      <trkpt lat="43.20018" lon="0.02365">
        <ele>328.6</ele>
        <time>2020-09-12T22:51:47Z</time>
      </trkpt>
      <trkpt lat="43.20023" lon="0.02367">
        <ele>328.6</ele>
        <time>2020-09-12T22:51:48Z</time>
      </trkpt>
      <trkpt lat="43.20028" lon="0.02371">
        <ele>328.7</ele>
        <time>2020-09-12T22:51:49Z</time>
      </trkpt>
      <trkpt lat="43.20034" lon="0.02373">
        <ele>328.8</ele>
        <time>2020-09-12T22:51:50Z</time>
      </trkpt>
      <trkpt lat="43.20039" lon="0.02374">
        <ele>328.8</ele>
        <time>2020-09-12T22:51:51Z</time>
      </trkpt>
      <trkpt lat="43.20045" lon="0.02375">
        <ele>328.9</ele>
        <time>2020-09-12T22:51:52Z</time>
      </trkpt>
      <trkpt lat="43.2005" lon="0.02374">
        <ele>328.9</ele>
        <time>2020-09-12T22:51:53Z</time>
      </trkpt>
      <trkpt lat="43.20055" lon="0.02373">
        <ele>328.9</ele>
        <time>2020-09-12T22:51:54Z</time>
      </trkpt>
      <trkpt lat="43.20061" lon="0.02371">
        <ele>328.9</ele>
        <time>2020-09-12T22:51:55Z</time>
      </trkpt>
      <trkpt lat="43.20065" lon="0.0237">
        <ele>328.9</ele>
        <time>2020-09-12T22:51:56Z</time>
      </trkpt>
      <trkpt lat="43.20069" lon="0.02369">
        <ele>328.9</ele>
        <time>2020-09-12T22:51:58Z</time>
      </trkpt>
      <trkpt lat="43.20071" lon="0.02373">
        <ele>328.9</ele>
        <time>2020-09-12T22:52:00Z</time>
      </trkpt>
      <trkpt lat="43.20071" lon="0.02378">
        <ele>328.9</ele>
        <time>2020-09-12T22:52:01Z</time>
      </trkpt>
      <trkpt lat="43.20074" lon="0.02385">
        <ele>328.9</ele>
        <time>2020-09-12T22:52:03Z</time>
      </trkpt>
      <trkpt lat="43.20076" lon="0.02389">
        <ele>328.9</ele>
        <time>2020-09-12T22:52:04Z</time>
      </trkpt>
      <trkpt lat="43.20078" lon="0.02395">
        <ele>328.8</ele>
        <time>2020-09-12T22:52:05Z</time>
      </trkpt>
      <trkpt lat="43.20079" lon="0.02402">
        <ele>328.8</ele>
        <time>2020-09-12T22:52:06Z</time>
      </trkpt>
      <trkpt lat="43.20081" lon="0.02409">
        <ele>328.7</ele>
        <time>2020-09-12T22:52:07Z</time>
      </trkpt>
      <trkpt lat="43.20082" lon="0.02416">
        <ele>328.7</ele>
        <time>2020-09-12T22:52:08Z</time>
      </trkpt>
      <trkpt lat="43.20083" lon="0.02423">
        <ele>328.6</ele>
        <time>2020-09-12T22:52:09Z</time>
      </trkpt>
      <trkpt lat="43.20084" lon="0.0243">
        <ele>328.6</ele>
        <time>2020-09-12T22:52:10Z</time>
      </trkpt>
      <trkpt lat="43.20085" lon="0.02437">
        <ele>328.6</ele>
        <time>2020-09-12T22:52:11Z</time>
      </trkpt>
      <trkpt lat="43.20087" lon="0.02443">
        <ele>328.6</ele>
        <time>2020-09-12T22:52:12Z</time>
      </trkpt>
      <trkpt lat="43.20088" lon="0.02451">
        <ele>328.6</ele>
        <time>2020-09-12T22:52:13Z</time>
      </trkpt>
      <trkpt lat="43.20089" lon="0.02458">
        <ele>328.6</ele>
        <time>2020-09-12T22:52:14Z</time>
      </trkpt>
      <trkpt lat="43.2009" lon="0.02466">
        <ele>328.6</ele>
        <time>2020-09-12T22:52:15Z</time>
      </trkpt>
      <trkpt lat="43.2009" lon="0.02474">
        <ele>328.6</ele>
        <time>2020-09-12T22:52:16Z</time>
      </trkpt>
      <trkpt lat="43.20091" lon="0.02482">
        <ele>328.5</ele>
        <time>2020-09-12T22:52:17Z</time>
      </trkpt>
      <trkpt lat="43.20094" lon="0.02487">
        <ele>328.5</ele>
        <time>2020-09-12T22:52:18Z</time>
      </trkpt>
      <trkpt lat="43.20098" lon="0.02491">
        <ele>328.4</ele>
        <time>2020-09-12T22:52:19Z</time>
      </trkpt>
      <trkpt lat="43.20103" lon="0.02492">
        <ele>328.3</ele>
        <time>2020-09-12T22:52:20Z</time>
      </trkpt>
      <trkpt lat="43.20108" lon="0.02493">
        <ele>328.2</ele>
        <time>2020-09-12T22:52:21Z</time>
      </trkpt>
      <trkpt lat="43.20113" lon="0.02493">
        <ele>328</ele>
        <time>2020-09-12T22:52:22Z</time>
      </trkpt>
      <trkpt lat="43.20118" lon="0.02493">
        <ele>327.9</ele>
        <time>2020-09-12T22:52:23Z</time>
      </trkpt>
      <trkpt lat="43.20123" lon="0.02489">
        <ele>327.8</ele>
        <time>2020-09-12T22:52:24Z</time>
      </trkpt>
      <trkpt lat="43.20127" lon="0.02489">
        <ele>327.8</ele>
        <time>2020-09-12T22:52:25Z</time>
      </trkpt>
      <trkpt lat="43.20131" lon="0.02489">
        <ele>327.7</ele>
        <time>2020-09-12T22:52:26Z</time>
      </trkpt>
      <trkpt lat="43.20136" lon="0.0249">
        <ele>327.6</ele>
        <time>2020-09-12T22:52:27Z</time>
      </trkpt>
      <trkpt lat="43.2014" lon="0.02492">
        <ele>327.5</ele>
        <time>2020-09-12T22:52:28Z</time>
      </trkpt>
      <trkpt lat="43.20145" lon="0.02493">
        <ele>327.4</ele>
        <time>2020-09-12T22:52:29Z</time>
      </trkpt>
      <trkpt lat="43.20149" lon="0.02495">
        <ele>327.4</ele>
        <time>2020-09-12T22:52:30Z</time>
      </trkpt>
      <trkpt lat="43.20153" lon="0.02497">
        <ele>327.3</ele>
        <time>2020-09-12T22:52:31Z</time>
      </trkpt>
      <trkpt lat="43.20157" lon="0.02499">
        <ele>327.2</ele>
        <time>2020-09-12T22:52:32Z</time>
      </trkpt>
      <trkpt lat="43.20161" lon="0.02501">
        <ele>327.2</ele>
        <time>2020-09-12T22:52:33Z</time>
      </trkpt>
      <trkpt lat="43.20165" lon="0.02503">
        <ele>327.1</ele>
        <time>2020-09-12T22:52:34Z</time>
      </trkpt>
      <trkpt lat="43.20169" lon="0.02505">
        <ele>327.1</ele>
        <time>2020-09-12T22:52:35Z</time>
      </trkpt>
      <trkpt lat="43.20172" lon="0.02506">
        <ele>327</ele>
        <time>2020-09-12T22:52:36Z</time>
      </trkpt>
      <trkpt lat="43.20176" lon="0.02508">
        <ele>326.9</ele>
        <time>2020-09-12T22:52:37Z</time>
      </trkpt>
      <trkpt lat="43.2018" lon="0.02509">
        <ele>326.9</ele>
        <time>2020-09-12T22:52:38Z</time>
      </trkpt>
      <trkpt lat="43.20183" lon="0.02511">
        <ele>326.9</ele>
        <time>2020-09-12T22:52:39Z</time>
      </trkpt>
      <trkpt lat="43.20186" lon="0.02514">
        <ele>326.8</ele>
        <time>2020-09-12T22:52:40Z</time>
      </trkpt>
      <trkpt lat="43.20188" lon="0.02515">
        <ele>326.8</ele>
        <time>2020-09-12T22:52:41Z</time>
      </trkpt>
      <trkpt lat="43.20192" lon="0.02518">
        <ele>326.7</ele>
        <time>2020-09-12T22:52:43Z</time>
      </trkpt>
      <trkpt lat="43.20197" lon="0.02522">
        <ele>326.7</ele>
        <time>2020-09-12T22:52:45Z</time>
      </trkpt>
      <trkpt lat="43.20201" lon="0.02526">
        <ele>326.6</ele>
        <time>2020-09-12T22:52:47Z</time>
      </trkpt>
      <trkpt lat="43.20203" lon="0.02529">
        <ele>326.6</ele>
        <time>2020-09-12T22:52:48Z</time>
      </trkpt>
      <trkpt lat="43.20207" lon="0.02533">
        <ele>326.5</ele>
        <time>2020-09-12T22:52:50Z</time>
      </trkpt>
      <trkpt lat="43.20204" lon="0.02534">
        <ele>326.5</ele>
        <time>2020-09-12T22:52:56Z</time>
      </trkpt>
      <trkpt lat="43.20202" lon="0.02531">
        <ele>326.5</ele>
        <time>2020-09-12T22:53:02Z</time>
      </trkpt>
    </trkseg>
  </trk>
</gpx>